<?xml version="1.0" encoding="UTF-8" standalone="no" ?>
<gpx xmlns="http://www.topografix.com/GPX/1/1" xmlns:xsi="http://www.w3.org/2001/XMLSchema-instance" xsi:schemaLocation="http://www.topografix.com/GPX/1/1 http://www.topografix.com/GPX/1/1/gpx.xsd" version="1.1" creator="VisuGPX - https://www.visugpx.com">
  <metadata>
    <name>Plateau de Retord et Haut Bugey Mai 2026 #B (jour1)</name>
    <desc><![CDATA[En 2025, lors d'un voyage à vélo empruntant la GTJ Gravel, nous n'avions pas terminé le dernier jour à cause d'une météo défavorable avant d'arriver sur le plateau de Retord.
Objectif 2026 : faire des boucles Gravel sur le plateau de Retord au départ de Hauteville-Lompnes. 
5 jours de vélo début mai 2026
Cette trace permet de faire une bonne partie de la GTJ sur le plateau et au nord de Hauteville-Lompnes : 2ème partie de cette trace selon un axe nord/sud et entre Le-Poizat et La-Praille]]></desc>
  </metadata>
  <trk>
    <name><![CDATA[Plateau de Retord et Haut Bugey Mai 2026 #B (jour1)_1]]></name>
    <trkseg>
      <trkpt lat="45.97709" lon="5.60001">
        <ele>794.4</ele>
        <time>2026-05-10T07:25:40Z</time>
      </trkpt>
      <trkpt lat="45.97707" lon="5.60005">
        <ele>794.4</ele>
        <time>2026-05-10T07:25:41Z</time>
      </trkpt>
      <trkpt lat="45.97705" lon="5.60008">
        <ele>794.2</ele>
        <time>2026-05-10T07:25:42Z</time>
      </trkpt>
      <trkpt lat="45.97703" lon="5.60011">
        <ele>794.2</ele>
        <time>2026-05-10T07:25:43Z</time>
      </trkpt>
      <trkpt lat="45.97701" lon="5.60014">
        <ele>793.6</ele>
        <time>2026-05-10T07:25:44Z</time>
      </trkpt>
      <trkpt lat="45.97699" lon="5.60017">
        <ele>794</ele>
        <time>2026-05-10T07:25:45Z</time>
      </trkpt>
      <trkpt lat="45.97693" lon="5.60025">
        <ele>794</ele>
        <time>2026-05-10T07:25:46Z</time>
      </trkpt>
      <trkpt lat="45.97693" lon="5.60026">
        <ele>794.4</ele>
        <time>2026-05-10T07:25:47Z</time>
      </trkpt>
      <trkpt lat="45.97691" lon="5.60027">
        <ele>794.4</ele>
        <time>2026-05-10T07:25:48Z</time>
      </trkpt>
      <trkpt lat="45.9769" lon="5.6003">
        <ele>794.4</ele>
        <time>2026-05-10T07:25:49Z</time>
      </trkpt>
      <trkpt lat="45.97689" lon="5.60035">
        <ele>794.2</ele>
        <time>2026-05-10T07:25:50Z</time>
      </trkpt>
      <trkpt lat="45.97688" lon="5.60039">
        <ele>794.2</ele>
        <time>2026-05-10T07:25:51Z</time>
      </trkpt>
      <trkpt lat="45.9769" lon="5.60043">
        <ele>793.8</ele>
        <time>2026-05-10T07:25:52Z</time>
      </trkpt>
      <trkpt lat="45.97692" lon="5.60047">
        <ele>793.8</ele>
        <time>2026-05-10T07:25:53Z</time>
      </trkpt>
      <trkpt lat="45.97694" lon="5.60051">
        <ele>793.8</ele>
        <time>2026-05-10T07:25:54Z</time>
      </trkpt>
      <trkpt lat="45.97698" lon="5.60053">
        <ele>793.8</ele>
        <time>2026-05-10T07:25:55Z</time>
      </trkpt>
      <trkpt lat="45.97701" lon="5.60054">
        <ele>793.8</ele>
        <time>2026-05-10T07:25:56Z</time>
      </trkpt>
      <trkpt lat="45.97704" lon="5.60055">
        <ele>794.2</ele>
        <time>2026-05-10T07:25:57Z</time>
      </trkpt>
      <trkpt lat="45.97706" lon="5.60057">
        <ele>794.2</ele>
        <time>2026-05-10T07:25:58Z</time>
      </trkpt>
      <trkpt lat="45.97709" lon="5.60059">
        <ele>794.2</ele>
        <time>2026-05-10T07:25:59Z</time>
      </trkpt>
      <trkpt lat="45.97713" lon="5.60061">
        <ele>794.2</ele>
        <time>2026-05-10T07:26:00Z</time>
      </trkpt>
      <trkpt lat="45.97716" lon="5.60064">
        <ele>794.2</ele>
        <time>2026-05-10T07:26:01Z</time>
      </trkpt>
      <trkpt lat="45.9772" lon="5.60066">
        <ele>794.2</ele>
        <time>2026-05-10T07:26:02Z</time>
      </trkpt>
      <trkpt lat="45.97723" lon="5.60068">
        <ele>794.2</ele>
        <time>2026-05-10T07:26:03Z</time>
      </trkpt>
      <trkpt lat="45.97726" lon="5.60071">
        <ele>794.6</ele>
        <time>2026-05-10T07:26:04Z</time>
      </trkpt>
      <trkpt lat="45.97729" lon="5.60074">
        <ele>794.6</ele>
        <time>2026-05-10T07:26:05Z</time>
      </trkpt>
      <trkpt lat="45.97732" lon="5.60076">
        <ele>794.8</ele>
        <time>2026-05-10T07:26:06Z</time>
      </trkpt>
      <trkpt lat="45.97735" lon="5.60078">
        <ele>794.8</ele>
        <time>2026-05-10T07:26:07Z</time>
      </trkpt>
      <trkpt lat="45.97738" lon="5.6008">
        <ele>795.2</ele>
        <time>2026-05-10T07:26:08Z</time>
      </trkpt>
      <trkpt lat="45.9774" lon="5.60082">
        <ele>795.2</ele>
        <time>2026-05-10T07:26:09Z</time>
      </trkpt>
      <trkpt lat="45.97741" lon="5.60083">
        <ele>795.2</ele>
        <time>2026-05-10T07:26:10Z</time>
      </trkpt>
      <trkpt lat="45.97743" lon="5.60085">
        <ele>795.6</ele>
        <time>2026-05-10T07:26:11Z</time>
      </trkpt>
      <trkpt lat="45.97746" lon="5.60087">
        <ele>795.6</ele>
        <time>2026-05-10T07:26:12Z</time>
      </trkpt>
      <trkpt lat="45.97749" lon="5.60088">
        <ele>795.6</ele>
        <time>2026-05-10T07:26:13Z</time>
      </trkpt>
      <trkpt lat="45.97751" lon="5.6009">
        <ele>796.2</ele>
        <time>2026-05-10T07:26:14Z</time>
      </trkpt>
      <trkpt lat="45.97754" lon="5.60092">
        <ele>796.4</ele>
        <time>2026-05-10T07:26:15Z</time>
      </trkpt>
      <trkpt lat="45.97756" lon="5.60094">
        <ele>796.4</ele>
        <time>2026-05-10T07:26:16Z</time>
      </trkpt>
      <trkpt lat="45.97759" lon="5.60096">
        <ele>796.4</ele>
        <time>2026-05-10T07:26:17Z</time>
      </trkpt>
      <trkpt lat="45.97762" lon="5.60098">
        <ele>796.8</ele>
        <time>2026-05-10T07:26:18Z</time>
      </trkpt>
      <trkpt lat="45.97764" lon="5.601">
        <ele>796.8</ele>
        <time>2026-05-10T07:26:19Z</time>
      </trkpt>
      <trkpt lat="45.97767" lon="5.60102">
        <ele>797.2</ele>
        <time>2026-05-10T07:26:20Z</time>
      </trkpt>
      <trkpt lat="45.97769" lon="5.60104">
        <ele>797.2</ele>
        <time>2026-05-10T07:26:21Z</time>
      </trkpt>
      <trkpt lat="45.97772" lon="5.60106">
        <ele>797.2</ele>
        <time>2026-05-10T07:26:22Z</time>
      </trkpt>
      <trkpt lat="45.97774" lon="5.60107">
        <ele>797.2</ele>
        <time>2026-05-10T07:26:23Z</time>
      </trkpt>
      <trkpt lat="45.97777" lon="5.60108">
        <ele>797.6</ele>
        <time>2026-05-10T07:26:24Z</time>
      </trkpt>
      <trkpt lat="45.9778" lon="5.6011">
        <ele>797.6</ele>
        <time>2026-05-10T07:26:25Z</time>
      </trkpt>
      <trkpt lat="45.97782" lon="5.60112">
        <ele>798</ele>
        <time>2026-05-10T07:26:26Z</time>
      </trkpt>
      <trkpt lat="45.97784" lon="5.60115">
        <ele>798</ele>
        <time>2026-05-10T07:26:27Z</time>
      </trkpt>
      <trkpt lat="45.97786" lon="5.60117">
        <ele>798.2</ele>
        <time>2026-05-10T07:26:28Z</time>
      </trkpt>
      <trkpt lat="45.97788" lon="5.60119">
        <ele>798.2</ele>
        <time>2026-05-10T07:26:29Z</time>
      </trkpt>
      <trkpt lat="45.9779" lon="5.60121">
        <ele>798.6</ele>
        <time>2026-05-10T07:26:30Z</time>
      </trkpt>
      <trkpt lat="45.97793" lon="5.60122">
        <ele>798.6</ele>
        <time>2026-05-10T07:26:31Z</time>
      </trkpt>
      <trkpt lat="45.97795" lon="5.60122">
        <ele>798.8</ele>
        <time>2026-05-10T07:26:32Z</time>
      </trkpt>
      <trkpt lat="45.97798" lon="5.60121">
        <ele>798.8</ele>
        <time>2026-05-10T07:26:33Z</time>
      </trkpt>
      <trkpt lat="45.978" lon="5.60119">
        <ele>799</ele>
        <time>2026-05-10T07:26:34Z</time>
      </trkpt>
      <trkpt lat="45.97802" lon="5.60117">
        <ele>799</ele>
        <time>2026-05-10T07:26:35Z</time>
      </trkpt>
      <trkpt lat="45.97804" lon="5.60116">
        <ele>799.6</ele>
        <time>2026-05-10T07:26:36Z</time>
      </trkpt>
      <trkpt lat="45.97806" lon="5.60114">
        <ele>799.8</ele>
        <time>2026-05-10T07:26:37Z</time>
      </trkpt>
      <trkpt lat="45.97808" lon="5.60113">
        <ele>800</ele>
        <time>2026-05-10T07:26:38Z</time>
      </trkpt>
      <trkpt lat="45.9781" lon="5.60113">
        <ele>800</ele>
        <time>2026-05-10T07:26:39Z</time>
      </trkpt>
      <trkpt lat="45.97812" lon="5.60114">
        <ele>800.2</ele>
        <time>2026-05-10T07:26:40Z</time>
      </trkpt>
      <trkpt lat="45.97814" lon="5.60115">
        <ele>800.6</ele>
        <time>2026-05-10T07:26:41Z</time>
      </trkpt>
      <trkpt lat="45.97815" lon="5.60117">
        <ele>800.6</ele>
        <time>2026-05-10T07:26:42Z</time>
      </trkpt>
      <trkpt lat="45.97816" lon="5.6012">
        <ele>800.8</ele>
        <time>2026-05-10T07:26:43Z</time>
      </trkpt>
      <trkpt lat="45.97817" lon="5.60122">
        <ele>800.8</ele>
        <time>2026-05-10T07:26:44Z</time>
      </trkpt>
      <trkpt lat="45.97818" lon="5.60125">
        <ele>801</ele>
        <time>2026-05-10T07:26:45Z</time>
      </trkpt>
      <trkpt lat="45.97819" lon="5.60128">
        <ele>801</ele>
        <time>2026-05-10T07:26:46Z</time>
      </trkpt>
      <trkpt lat="45.9782" lon="5.60131">
        <ele>801</ele>
        <time>2026-05-10T07:26:47Z</time>
      </trkpt>
      <trkpt lat="45.97821" lon="5.60133">
        <ele>801</ele>
        <time>2026-05-10T07:26:48Z</time>
      </trkpt>
      <trkpt lat="45.97821" lon="5.60134">
        <ele>801.2</ele>
        <time>2026-05-10T07:26:49Z</time>
      </trkpt>
      <trkpt lat="45.97823" lon="5.60135">
        <ele>801.2</ele>
        <time>2026-05-10T07:26:50Z</time>
      </trkpt>
      <trkpt lat="45.97824" lon="5.60134">
        <ele>801.2</ele>
        <time>2026-05-10T07:26:51Z</time>
      </trkpt>
      <trkpt lat="45.97825" lon="5.60131">
        <ele>801.2</ele>
        <time>2026-05-10T07:26:52Z</time>
      </trkpt>
      <trkpt lat="45.97824" lon="5.60127">
        <ele>801.2</ele>
        <time>2026-05-10T07:26:53Z</time>
      </trkpt>
      <trkpt lat="45.97823" lon="5.60124">
        <ele>801.4</ele>
        <time>2026-05-10T07:26:54Z</time>
      </trkpt>
      <trkpt lat="45.97822" lon="5.60121">
        <ele>801.4</ele>
        <time>2026-05-10T07:26:55Z</time>
      </trkpt>
      <trkpt lat="45.97822" lon="5.60118">
        <ele>801.4</ele>
        <time>2026-05-10T07:26:56Z</time>
      </trkpt>
      <trkpt lat="45.97823" lon="5.60116">
        <ele>801.4</ele>
        <time>2026-05-10T07:26:57Z</time>
      </trkpt>
      <trkpt lat="45.97825" lon="5.60116">
        <ele>801.4</ele>
        <time>2026-05-10T07:26:58Z</time>
      </trkpt>
      <trkpt lat="45.97827" lon="5.60118">
        <ele>801.8</ele>
        <time>2026-05-10T07:26:59Z</time>
      </trkpt>
      <trkpt lat="45.97829" lon="5.6012">
        <ele>801.8</ele>
        <time>2026-05-10T07:27:00Z</time>
      </trkpt>
      <trkpt lat="45.9783" lon="5.60122">
        <ele>802.2</ele>
        <time>2026-05-10T07:27:01Z</time>
      </trkpt>
      <trkpt lat="45.97831" lon="5.60124">
        <ele>802.2</ele>
        <time>2026-05-10T07:27:02Z</time>
      </trkpt>
      <trkpt lat="45.97832" lon="5.60126">
        <ele>802.4</ele>
        <time>2026-05-10T07:27:03Z</time>
      </trkpt>
      <trkpt lat="45.97832" lon="5.60128">
        <ele>802.4</ele>
        <time>2026-05-10T07:27:04Z</time>
      </trkpt>
      <trkpt lat="45.97833" lon="5.60131">
        <ele>802.8</ele>
        <time>2026-05-10T07:27:05Z</time>
      </trkpt>
      <trkpt lat="45.97834" lon="5.60133">
        <ele>803</ele>
        <time>2026-05-10T07:27:06Z</time>
      </trkpt>
      <trkpt lat="45.97835" lon="5.60135">
        <ele>803</ele>
        <time>2026-05-10T07:27:07Z</time>
      </trkpt>
      <trkpt lat="45.97836" lon="5.60137">
        <ele>803.4</ele>
        <time>2026-05-10T07:27:08Z</time>
      </trkpt>
      <trkpt lat="45.97837" lon="5.60138">
        <ele>803.6</ele>
        <time>2026-05-10T07:27:09Z</time>
      </trkpt>
      <trkpt lat="45.97838" lon="5.6014">
        <ele>804</ele>
        <time>2026-05-10T07:27:10Z</time>
      </trkpt>
      <trkpt lat="45.9784" lon="5.60142">
        <ele>804.2</ele>
        <time>2026-05-10T07:27:11Z</time>
      </trkpt>
      <trkpt lat="45.97841" lon="5.60143">
        <ele>804.4</ele>
        <time>2026-05-10T07:27:12Z</time>
      </trkpt>
      <trkpt lat="45.97842" lon="5.60145">
        <ele>804.4</ele>
        <time>2026-05-10T07:27:13Z</time>
      </trkpt>
      <trkpt lat="45.97844" lon="5.60146">
        <ele>804.8</ele>
        <time>2026-05-10T07:27:14Z</time>
      </trkpt>
      <trkpt lat="45.97845" lon="5.60148">
        <ele>804.8</ele>
        <time>2026-05-10T07:27:15Z</time>
      </trkpt>
      <trkpt lat="45.97846" lon="5.60149">
        <ele>805</ele>
        <time>2026-05-10T07:27:16Z</time>
      </trkpt>
      <trkpt lat="45.97847" lon="5.6015">
        <ele>805</ele>
        <time>2026-05-10T07:27:17Z</time>
      </trkpt>
      <trkpt lat="45.97849" lon="5.60152">
        <ele>805.4</ele>
        <time>2026-05-10T07:27:18Z</time>
      </trkpt>
      <trkpt lat="45.9785" lon="5.60154">
        <ele>805.6</ele>
        <time>2026-05-10T07:27:19Z</time>
      </trkpt>
      <trkpt lat="45.97851" lon="5.60155">
        <ele>806</ele>
        <time>2026-05-10T07:27:20Z</time>
      </trkpt>
      <trkpt lat="45.97852" lon="5.60157">
        <ele>806</ele>
        <time>2026-05-10T07:27:21Z</time>
      </trkpt>
      <trkpt lat="45.97853" lon="5.60158">
        <ele>806.2</ele>
        <time>2026-05-10T07:27:22Z</time>
      </trkpt>
      <trkpt lat="45.97854" lon="5.6016">
        <ele>806.2</ele>
        <time>2026-05-10T07:27:23Z</time>
      </trkpt>
      <trkpt lat="45.97855" lon="5.60161">
        <ele>806.6</ele>
        <time>2026-05-10T07:27:24Z</time>
      </trkpt>
      <trkpt lat="45.97857" lon="5.60164">
        <ele>806.8</ele>
        <time>2026-05-10T07:27:25Z</time>
      </trkpt>
      <trkpt lat="45.97858" lon="5.60166">
        <ele>806.8</ele>
        <time>2026-05-10T07:27:26Z</time>
      </trkpt>
      <trkpt lat="45.9786" lon="5.60168">
        <ele>807</ele>
        <time>2026-05-10T07:27:27Z</time>
      </trkpt>
      <trkpt lat="45.97861" lon="5.6017">
        <ele>807.2</ele>
        <time>2026-05-10T07:27:28Z</time>
      </trkpt>
      <trkpt lat="45.97862" lon="5.60172">
        <ele>807.2</ele>
        <time>2026-05-10T07:27:29Z</time>
      </trkpt>
      <trkpt lat="45.97863" lon="5.60174">
        <ele>807.6</ele>
        <time>2026-05-10T07:27:30Z</time>
      </trkpt>
      <trkpt lat="45.97864" lon="5.60176">
        <ele>807.6</ele>
        <time>2026-05-10T07:27:31Z</time>
      </trkpt>
      <trkpt lat="45.97865" lon="5.60178">
        <ele>807.8</ele>
        <time>2026-05-10T07:27:32Z</time>
      </trkpt>
      <trkpt lat="45.97865" lon="5.60181">
        <ele>808.2</ele>
        <time>2026-05-10T07:27:33Z</time>
      </trkpt>
      <trkpt lat="45.97866" lon="5.60183">
        <ele>808.4</ele>
        <time>2026-05-10T07:27:34Z</time>
      </trkpt>
      <trkpt lat="45.97867" lon="5.60185">
        <ele>808.4</ele>
        <time>2026-05-10T07:27:35Z</time>
      </trkpt>
      <trkpt lat="45.97868" lon="5.60187">
        <ele>808.8</ele>
        <time>2026-05-10T07:27:36Z</time>
      </trkpt>
      <trkpt lat="45.97869" lon="5.60189">
        <ele>809</ele>
        <time>2026-05-10T07:27:37Z</time>
      </trkpt>
      <trkpt lat="45.9787" lon="5.60191">
        <ele>809.4</ele>
        <time>2026-05-10T07:27:38Z</time>
      </trkpt>
      <trkpt lat="45.9787" lon="5.60193">
        <ele>809.4</ele>
        <time>2026-05-10T07:27:39Z</time>
      </trkpt>
      <trkpt lat="45.97871" lon="5.60196">
        <ele>809.8</ele>
        <time>2026-05-10T07:27:40Z</time>
      </trkpt>
      <trkpt lat="45.97871" lon="5.60198">
        <ele>810</ele>
        <time>2026-05-10T07:27:41Z</time>
      </trkpt>
      <trkpt lat="45.97872" lon="5.60201">
        <ele>810</ele>
        <time>2026-05-10T07:27:42Z</time>
      </trkpt>
      <trkpt lat="45.97872" lon="5.60203">
        <ele>810.4</ele>
        <time>2026-05-10T07:27:43Z</time>
      </trkpt>
      <trkpt lat="45.97872" lon="5.60205">
        <ele>810.6</ele>
        <time>2026-05-10T07:27:44Z</time>
      </trkpt>
      <trkpt lat="45.97873" lon="5.60207">
        <ele>810.6</ele>
        <time>2026-05-10T07:27:45Z</time>
      </trkpt>
      <trkpt lat="45.97873" lon="5.60209">
        <ele>811</ele>
        <time>2026-05-10T07:27:46Z</time>
      </trkpt>
      <trkpt lat="45.97873" lon="5.60211">
        <ele>811</ele>
        <time>2026-05-10T07:27:47Z</time>
      </trkpt>
      <trkpt lat="45.97872" lon="5.60213">
        <ele>811.2</ele>
        <time>2026-05-10T07:27:48Z</time>
      </trkpt>
      <trkpt lat="45.97872" lon="5.60215">
        <ele>811.4</ele>
        <time>2026-05-10T07:27:49Z</time>
      </trkpt>
      <trkpt lat="45.97871" lon="5.60218">
        <ele>811.4</ele>
        <time>2026-05-10T07:27:50Z</time>
      </trkpt>
      <trkpt lat="45.97871" lon="5.6022">
        <ele>811.8</ele>
        <time>2026-05-10T07:27:51Z</time>
      </trkpt>
      <trkpt lat="45.97871" lon="5.60222">
        <ele>811.8</ele>
        <time>2026-05-10T07:27:52Z</time>
      </trkpt>
      <trkpt lat="45.97871" lon="5.60224">
        <ele>812.2</ele>
        <time>2026-05-10T07:27:53Z</time>
      </trkpt>
      <trkpt lat="45.97871" lon="5.60226">
        <ele>812.4</ele>
        <time>2026-05-10T07:27:54Z</time>
      </trkpt>
      <trkpt lat="45.97871" lon="5.60228">
        <ele>812.6</ele>
        <time>2026-05-10T07:27:55Z</time>
      </trkpt>
      <trkpt lat="45.97872" lon="5.6023">
        <ele>813</ele>
        <time>2026-05-10T07:27:56Z</time>
      </trkpt>
      <trkpt lat="45.97872" lon="5.60232">
        <ele>813.2</ele>
        <time>2026-05-10T07:27:57Z</time>
      </trkpt>
      <trkpt lat="45.97872" lon="5.60234">
        <ele>813.2</ele>
        <time>2026-05-10T07:27:58Z</time>
      </trkpt>
      <trkpt lat="45.97873" lon="5.60236">
        <ele>813.6</ele>
        <time>2026-05-10T07:27:59Z</time>
      </trkpt>
      <trkpt lat="45.97873" lon="5.60238">
        <ele>813.6</ele>
        <time>2026-05-10T07:28:00Z</time>
      </trkpt>
      <trkpt lat="45.97874" lon="5.6024">
        <ele>813.8</ele>
        <time>2026-05-10T07:28:01Z</time>
      </trkpt>
      <trkpt lat="45.97874" lon="5.60243">
        <ele>814</ele>
        <time>2026-05-10T07:28:02Z</time>
      </trkpt>
      <trkpt lat="45.97875" lon="5.60245">
        <ele>814</ele>
        <time>2026-05-10T07:28:03Z</time>
      </trkpt>
      <trkpt lat="45.97875" lon="5.60247">
        <ele>814.6</ele>
        <time>2026-05-10T07:28:04Z</time>
      </trkpt>
      <trkpt lat="45.97876" lon="5.60249">
        <ele>814.8</ele>
        <time>2026-05-10T07:28:05Z</time>
      </trkpt>
      <trkpt lat="45.97877" lon="5.60251">
        <ele>814.8</ele>
        <time>2026-05-10T07:28:06Z</time>
      </trkpt>
      <trkpt lat="45.97878" lon="5.60253">
        <ele>815.4</ele>
        <time>2026-05-10T07:28:07Z</time>
      </trkpt>
      <trkpt lat="45.97879" lon="5.60254">
        <ele>815.4</ele>
        <time>2026-05-10T07:28:08Z</time>
      </trkpt>
      <trkpt lat="45.9788" lon="5.60256">
        <ele>815.6</ele>
        <time>2026-05-10T07:28:09Z</time>
      </trkpt>
      <trkpt lat="45.97881" lon="5.60258">
        <ele>815.6</ele>
        <time>2026-05-10T07:28:10Z</time>
      </trkpt>
      <trkpt lat="45.97881" lon="5.6026">
        <ele>816</ele>
        <time>2026-05-10T07:28:11Z</time>
      </trkpt>
      <trkpt lat="45.97882" lon="5.60262">
        <ele>816</ele>
        <time>2026-05-10T07:28:12Z</time>
      </trkpt>
      <trkpt lat="45.97883" lon="5.60263">
        <ele>816.2</ele>
        <time>2026-05-10T07:28:13Z</time>
      </trkpt>
      <trkpt lat="45.97885" lon="5.60265">
        <ele>816.2</ele>
        <time>2026-05-10T07:28:14Z</time>
      </trkpt>
      <trkpt lat="45.97886" lon="5.60266">
        <ele>816.2</ele>
        <time>2026-05-10T07:28:15Z</time>
      </trkpt>
      <trkpt lat="45.97888" lon="5.60267">
        <ele>816.2</ele>
        <time>2026-05-10T07:28:16Z</time>
      </trkpt>
      <trkpt lat="45.97889" lon="5.60269">
        <ele>816.6</ele>
        <time>2026-05-10T07:28:17Z</time>
      </trkpt>
      <trkpt lat="45.97891" lon="5.6027">
        <ele>816.6</ele>
        <time>2026-05-10T07:28:18Z</time>
      </trkpt>
      <trkpt lat="45.97892" lon="5.60271">
        <ele>816.6</ele>
        <time>2026-05-10T07:28:19Z</time>
      </trkpt>
      <trkpt lat="45.97894" lon="5.60272">
        <ele>817</ele>
        <time>2026-05-10T07:28:20Z</time>
      </trkpt>
      <trkpt lat="45.97895" lon="5.60274">
        <ele>817</ele>
        <time>2026-05-10T07:28:21Z</time>
      </trkpt>
      <trkpt lat="45.97897" lon="5.60275">
        <ele>817</ele>
        <time>2026-05-10T07:28:22Z</time>
      </trkpt>
      <trkpt lat="45.97898" lon="5.60276">
        <ele>817</ele>
        <time>2026-05-10T07:28:23Z</time>
      </trkpt>
      <trkpt lat="45.97899" lon="5.60277">
        <ele>817.4</ele>
        <time>2026-05-10T07:28:24Z</time>
      </trkpt>
      <trkpt lat="45.979" lon="5.60278">
        <ele>817.8</ele>
        <time>2026-05-10T07:28:25Z</time>
      </trkpt>
      <trkpt lat="45.97902" lon="5.60279">
        <ele>817.8</ele>
        <time>2026-05-10T07:28:26Z</time>
      </trkpt>
      <trkpt lat="45.97904" lon="5.6028">
        <ele>818.2</ele>
        <time>2026-05-10T07:28:27Z</time>
      </trkpt>
      <trkpt lat="45.97905" lon="5.6028">
        <ele>818.2</ele>
        <time>2026-05-10T07:28:28Z</time>
      </trkpt>
      <trkpt lat="45.97907" lon="5.6028">
        <ele>818.4</ele>
        <time>2026-05-10T07:28:29Z</time>
      </trkpt>
      <trkpt lat="45.97908" lon="5.60281">
        <ele>818.4</ele>
        <time>2026-05-10T07:28:30Z</time>
      </trkpt>
      <trkpt lat="45.97909" lon="5.60281">
        <ele>818.4</ele>
        <time>2026-05-10T07:28:31Z</time>
      </trkpt>
      <trkpt lat="45.9791" lon="5.60282">
        <ele>818.8</ele>
        <time>2026-05-10T07:28:32Z</time>
      </trkpt>
      <trkpt lat="45.97911" lon="5.60282">
        <ele>818.8</ele>
        <time>2026-05-10T07:28:33Z</time>
      </trkpt>
      <trkpt lat="45.97913" lon="5.60283">
        <ele>819</ele>
        <time>2026-05-10T07:28:34Z</time>
      </trkpt>
      <trkpt lat="45.97914" lon="5.60284">
        <ele>819</ele>
        <time>2026-05-10T07:28:35Z</time>
      </trkpt>
      <trkpt lat="45.97916" lon="5.60285">
        <ele>819</ele>
        <time>2026-05-10T07:28:36Z</time>
      </trkpt>
      <trkpt lat="45.97917" lon="5.60286">
        <ele>819</ele>
        <time>2026-05-10T07:28:37Z</time>
      </trkpt>
      <trkpt lat="45.97918" lon="5.60286">
        <ele>819.4</ele>
        <time>2026-05-10T07:28:38Z</time>
      </trkpt>
      <trkpt lat="45.97919" lon="5.60286">
        <ele>819.4</ele>
        <time>2026-05-10T07:28:39Z</time>
      </trkpt>
      <trkpt lat="45.97936" lon="5.60297">
        <ele>821.6</ele>
        <time>2026-05-10T07:36:24Z</time>
      </trkpt>
      <trkpt lat="45.97939" lon="5.60299">
        <ele>822</ele>
        <time>2026-05-10T07:36:25Z</time>
      </trkpt>
      <trkpt lat="45.97942" lon="5.60299">
        <ele>822</ele>
        <time>2026-05-10T07:36:26Z</time>
      </trkpt>
      <trkpt lat="45.97945" lon="5.603">
        <ele>822</ele>
        <time>2026-05-10T07:36:27Z</time>
      </trkpt>
      <trkpt lat="45.97948" lon="5.60302">
        <ele>822.4</ele>
        <time>2026-05-10T07:36:28Z</time>
      </trkpt>
      <trkpt lat="45.97951" lon="5.60303">
        <ele>822.4</ele>
        <time>2026-05-10T07:36:29Z</time>
      </trkpt>
      <trkpt lat="45.97955" lon="5.60305">
        <ele>822.4</ele>
        <time>2026-05-10T07:36:30Z</time>
      </trkpt>
      <trkpt lat="45.97958" lon="5.60306">
        <ele>822.6</ele>
        <time>2026-05-10T07:36:31Z</time>
      </trkpt>
      <trkpt lat="45.97961" lon="5.60308">
        <ele>822.6</ele>
        <time>2026-05-10T07:36:32Z</time>
      </trkpt>
      <trkpt lat="45.97964" lon="5.60309">
        <ele>823</ele>
        <time>2026-05-10T07:36:33Z</time>
      </trkpt>
      <trkpt lat="45.97968" lon="5.60311">
        <ele>823</ele>
        <time>2026-05-10T07:36:34Z</time>
      </trkpt>
      <trkpt lat="45.97971" lon="5.60313">
        <ele>823.2</ele>
        <time>2026-05-10T07:36:35Z</time>
      </trkpt>
      <trkpt lat="45.97973" lon="5.60314">
        <ele>823.2</ele>
        <time>2026-05-10T07:36:36Z</time>
      </trkpt>
      <trkpt lat="45.97976" lon="5.60316">
        <ele>823.4</ele>
        <time>2026-05-10T07:36:37Z</time>
      </trkpt>
      <trkpt lat="45.97979" lon="5.60318">
        <ele>823.4</ele>
        <time>2026-05-10T07:36:38Z</time>
      </trkpt>
      <trkpt lat="45.97982" lon="5.6032">
        <ele>823.8</ele>
        <time>2026-05-10T07:36:39Z</time>
      </trkpt>
      <trkpt lat="45.97984" lon="5.60321">
        <ele>823.8</ele>
        <time>2026-05-10T07:36:40Z</time>
      </trkpt>
      <trkpt lat="45.97987" lon="5.60322">
        <ele>824.2</ele>
        <time>2026-05-10T07:36:41Z</time>
      </trkpt>
      <trkpt lat="45.9799" lon="5.60324">
        <ele>824.2</ele>
        <time>2026-05-10T07:36:42Z</time>
      </trkpt>
      <trkpt lat="45.97992" lon="5.60326">
        <ele>824.4</ele>
        <time>2026-05-10T07:36:43Z</time>
      </trkpt>
      <trkpt lat="45.97995" lon="5.60327">
        <ele>824.4</ele>
        <time>2026-05-10T07:36:44Z</time>
      </trkpt>
      <trkpt lat="45.97997" lon="5.60329">
        <ele>824.8</ele>
        <time>2026-05-10T07:36:45Z</time>
      </trkpt>
      <trkpt lat="45.98" lon="5.6033">
        <ele>824.8</ele>
        <time>2026-05-10T07:36:46Z</time>
      </trkpt>
      <trkpt lat="45.98002" lon="5.60331">
        <ele>825.2</ele>
        <time>2026-05-10T07:36:47Z</time>
      </trkpt>
      <trkpt lat="45.98005" lon="5.60332">
        <ele>825.2</ele>
        <time>2026-05-10T07:36:48Z</time>
      </trkpt>
      <trkpt lat="45.98007" lon="5.60333">
        <ele>825.4</ele>
        <time>2026-05-10T07:36:49Z</time>
      </trkpt>
      <trkpt lat="45.98009" lon="5.60335">
        <ele>825.4</ele>
        <time>2026-05-10T07:36:50Z</time>
      </trkpt>
      <trkpt lat="45.98012" lon="5.60336">
        <ele>825.8</ele>
        <time>2026-05-10T07:36:51Z</time>
      </trkpt>
      <trkpt lat="45.98014" lon="5.60338">
        <ele>825.8</ele>
        <time>2026-05-10T07:36:52Z</time>
      </trkpt>
      <trkpt lat="45.98016" lon="5.60339">
        <ele>825.8</ele>
        <time>2026-05-10T07:36:53Z</time>
      </trkpt>
      <trkpt lat="45.98018" lon="5.6034">
        <ele>825.8</ele>
        <time>2026-05-10T07:36:54Z</time>
      </trkpt>
      <trkpt lat="45.98021" lon="5.60341">
        <ele>826.2</ele>
        <time>2026-05-10T07:36:55Z</time>
      </trkpt>
      <trkpt lat="45.98023" lon="5.60342">
        <ele>826.4</ele>
        <time>2026-05-10T07:36:56Z</time>
      </trkpt>
      <trkpt lat="45.98025" lon="5.60344">
        <ele>826.4</ele>
        <time>2026-05-10T07:36:57Z</time>
      </trkpt>
      <trkpt lat="45.98027" lon="5.60345">
        <ele>826.4</ele>
        <time>2026-05-10T07:36:58Z</time>
      </trkpt>
      <trkpt lat="45.9803" lon="5.60346">
        <ele>826.4</ele>
        <time>2026-05-10T07:36:59Z</time>
      </trkpt>
      <trkpt lat="45.98032" lon="5.60348">
        <ele>826.6</ele>
        <time>2026-05-10T07:37:00Z</time>
      </trkpt>
      <trkpt lat="45.98034" lon="5.6035">
        <ele>826.6</ele>
        <time>2026-05-10T07:37:01Z</time>
      </trkpt>
      <trkpt lat="45.98036" lon="5.60351">
        <ele>826.6</ele>
        <time>2026-05-10T07:37:02Z</time>
      </trkpt>
      <trkpt lat="45.98039" lon="5.60352">
        <ele>826.8</ele>
        <time>2026-05-10T07:37:03Z</time>
      </trkpt>
      <trkpt lat="45.98041" lon="5.60353">
        <ele>826.8</ele>
        <time>2026-05-10T07:37:04Z</time>
      </trkpt>
      <trkpt lat="45.98043" lon="5.60354">
        <ele>827</ele>
        <time>2026-05-10T07:37:05Z</time>
      </trkpt>
      <trkpt lat="45.98045" lon="5.60356">
        <ele>827</ele>
        <time>2026-05-10T07:37:06Z</time>
      </trkpt>
      <trkpt lat="45.98048" lon="5.60357">
        <ele>827</ele>
        <time>2026-05-10T07:37:07Z</time>
      </trkpt>
      <trkpt lat="45.9805" lon="5.60358">
        <ele>827</ele>
        <time>2026-05-10T07:37:08Z</time>
      </trkpt>
      <trkpt lat="45.98052" lon="5.60359">
        <ele>827.4</ele>
        <time>2026-05-10T07:37:09Z</time>
      </trkpt>
      <trkpt lat="45.98055" lon="5.6036">
        <ele>827.4</ele>
        <time>2026-05-10T07:37:10Z</time>
      </trkpt>
      <trkpt lat="45.98058" lon="5.60361">
        <ele>827.4</ele>
        <time>2026-05-10T07:37:11Z</time>
      </trkpt>
      <trkpt lat="45.9806" lon="5.60361">
        <ele>827.4</ele>
        <time>2026-05-10T07:37:12Z</time>
      </trkpt>
      <trkpt lat="45.98063" lon="5.60362">
        <ele>827.4</ele>
        <time>2026-05-10T07:37:13Z</time>
      </trkpt>
      <trkpt lat="45.98065" lon="5.60364">
        <ele>827.6</ele>
        <time>2026-05-10T07:37:14Z</time>
      </trkpt>
      <trkpt lat="45.98068" lon="5.60365">
        <ele>827.6</ele>
        <time>2026-05-10T07:37:15Z</time>
      </trkpt>
      <trkpt lat="45.9807" lon="5.60366">
        <ele>827.6</ele>
        <time>2026-05-10T07:37:16Z</time>
      </trkpt>
      <trkpt lat="45.98073" lon="5.60367">
        <ele>828</ele>
        <time>2026-05-10T07:37:17Z</time>
      </trkpt>
      <trkpt lat="45.98075" lon="5.60367">
        <ele>828</ele>
        <time>2026-05-10T07:37:18Z</time>
      </trkpt>
      <trkpt lat="45.98078" lon="5.60368">
        <ele>828</ele>
        <time>2026-05-10T07:37:19Z</time>
      </trkpt>
      <trkpt lat="45.9808" lon="5.60369">
        <ele>828.2</ele>
        <time>2026-05-10T07:37:20Z</time>
      </trkpt>
      <trkpt lat="45.98082" lon="5.6037">
        <ele>828.2</ele>
        <time>2026-05-10T07:37:21Z</time>
      </trkpt>
      <trkpt lat="45.98085" lon="5.60371">
        <ele>828.2</ele>
        <time>2026-05-10T07:37:22Z</time>
      </trkpt>
      <trkpt lat="45.98088" lon="5.60372">
        <ele>828.4</ele>
        <time>2026-05-10T07:37:23Z</time>
      </trkpt>
      <trkpt lat="45.9809" lon="5.60373">
        <ele>828.4</ele>
        <time>2026-05-10T07:37:24Z</time>
      </trkpt>
      <trkpt lat="45.98093" lon="5.60373">
        <ele>828.4</ele>
        <time>2026-05-10T07:37:25Z</time>
      </trkpt>
      <trkpt lat="45.98097" lon="5.60374">
        <ele>828.4</ele>
        <time>2026-05-10T07:37:26Z</time>
      </trkpt>
      <trkpt lat="45.981" lon="5.60375">
        <ele>828.4</ele>
        <time>2026-05-10T07:37:27Z</time>
      </trkpt>
      <trkpt lat="45.98103" lon="5.60376">
        <ele>828.4</ele>
        <time>2026-05-10T07:37:28Z</time>
      </trkpt>
      <trkpt lat="45.98106" lon="5.60378">
        <ele>828.4</ele>
        <time>2026-05-10T07:37:29Z</time>
      </trkpt>
      <trkpt lat="45.9811" lon="5.60379">
        <ele>828.4</ele>
        <time>2026-05-10T07:37:30Z</time>
      </trkpt>
      <trkpt lat="45.98113" lon="5.6038">
        <ele>828.4</ele>
        <time>2026-05-10T07:37:31Z</time>
      </trkpt>
      <trkpt lat="45.98117" lon="5.6038">
        <ele>828.2</ele>
        <time>2026-05-10T07:37:32Z</time>
      </trkpt>
      <trkpt lat="45.9812" lon="5.60381">
        <ele>828.2</ele>
        <time>2026-05-10T07:37:33Z</time>
      </trkpt>
      <trkpt lat="45.98124" lon="5.60382">
        <ele>827.8</ele>
        <time>2026-05-10T07:37:34Z</time>
      </trkpt>
      <trkpt lat="45.98127" lon="5.60384">
        <ele>827.8</ele>
        <time>2026-05-10T07:37:35Z</time>
      </trkpt>
      <trkpt lat="45.98131" lon="5.60385">
        <ele>827.8</ele>
        <time>2026-05-10T07:37:36Z</time>
      </trkpt>
      <trkpt lat="45.98135" lon="5.60386">
        <ele>827.6</ele>
        <time>2026-05-10T07:37:37Z</time>
      </trkpt>
      <trkpt lat="45.98139" lon="5.60387">
        <ele>827.6</ele>
        <time>2026-05-10T07:37:38Z</time>
      </trkpt>
      <trkpt lat="45.98143" lon="5.60388">
        <ele>827.2</ele>
        <time>2026-05-10T07:37:39Z</time>
      </trkpt>
      <trkpt lat="45.98146" lon="5.60389">
        <ele>827.2</ele>
        <time>2026-05-10T07:37:40Z</time>
      </trkpt>
      <trkpt lat="45.9815" lon="5.6039">
        <ele>827.2</ele>
        <time>2026-05-10T07:37:41Z</time>
      </trkpt>
      <trkpt lat="45.98153" lon="5.60391">
        <ele>827.2</ele>
        <time>2026-05-10T07:37:42Z</time>
      </trkpt>
      <trkpt lat="45.98157" lon="5.60392">
        <ele>826.8</ele>
        <time>2026-05-10T07:37:43Z</time>
      </trkpt>
      <trkpt lat="45.98161" lon="5.60393">
        <ele>826.8</ele>
        <time>2026-05-10T07:37:44Z</time>
      </trkpt>
      <trkpt lat="45.98164" lon="5.60395">
        <ele>826.4</ele>
        <time>2026-05-10T07:37:45Z</time>
      </trkpt>
      <trkpt lat="45.98168" lon="5.60396">
        <ele>826.6</ele>
        <time>2026-05-10T07:37:46Z</time>
      </trkpt>
      <trkpt lat="45.98172" lon="5.60397">
        <ele>826.6</ele>
        <time>2026-05-10T07:37:47Z</time>
      </trkpt>
      <trkpt lat="45.98176" lon="5.60398">
        <ele>826.6</ele>
        <time>2026-05-10T07:37:48Z</time>
      </trkpt>
      <trkpt lat="45.9818" lon="5.604">
        <ele>826.6</ele>
        <time>2026-05-10T07:37:49Z</time>
      </trkpt>
      <trkpt lat="45.98184" lon="5.60401">
        <ele>826.6</ele>
        <time>2026-05-10T07:37:50Z</time>
      </trkpt>
      <trkpt lat="45.98188" lon="5.60403">
        <ele>826.2</ele>
        <time>2026-05-10T07:37:51Z</time>
      </trkpt>
      <trkpt lat="45.98193" lon="5.60404">
        <ele>826</ele>
        <time>2026-05-10T07:37:52Z</time>
      </trkpt>
      <trkpt lat="45.98197" lon="5.60405">
        <ele>826</ele>
        <time>2026-05-10T07:37:53Z</time>
      </trkpt>
      <trkpt lat="45.98201" lon="5.60407">
        <ele>826</ele>
        <time>2026-05-10T07:37:54Z</time>
      </trkpt>
      <trkpt lat="45.98205" lon="5.6041">
        <ele>825.6</ele>
        <time>2026-05-10T07:37:55Z</time>
      </trkpt>
      <trkpt lat="45.98209" lon="5.60413">
        <ele>825.6</ele>
        <time>2026-05-10T07:37:56Z</time>
      </trkpt>
      <trkpt lat="45.98212" lon="5.60416">
        <ele>825.6</ele>
        <time>2026-05-10T07:37:57Z</time>
      </trkpt>
      <trkpt lat="45.98216" lon="5.6042">
        <ele>825.6</ele>
        <time>2026-05-10T07:37:58Z</time>
      </trkpt>
      <trkpt lat="45.98219" lon="5.60423">
        <ele>825.6</ele>
        <time>2026-05-10T07:37:59Z</time>
      </trkpt>
      <trkpt lat="45.98223" lon="5.60427">
        <ele>825.8</ele>
        <time>2026-05-10T07:38:00Z</time>
      </trkpt>
      <trkpt lat="45.98226" lon="5.6043">
        <ele>825.8</ele>
        <time>2026-05-10T07:38:01Z</time>
      </trkpt>
      <trkpt lat="45.98229" lon="5.60433">
        <ele>825.8</ele>
        <time>2026-05-10T07:38:02Z</time>
      </trkpt>
      <trkpt lat="45.98231" lon="5.60436">
        <ele>826.2</ele>
        <time>2026-05-10T07:38:03Z</time>
      </trkpt>
      <trkpt lat="45.98232" lon="5.6044">
        <ele>826.2</ele>
        <time>2026-05-10T07:38:04Z</time>
      </trkpt>
      <trkpt lat="45.98234" lon="5.60443">
        <ele>826.6</ele>
        <time>2026-05-10T07:38:05Z</time>
      </trkpt>
      <trkpt lat="45.98236" lon="5.60446">
        <ele>826.6</ele>
        <time>2026-05-10T07:38:06Z</time>
      </trkpt>
      <trkpt lat="45.98239" lon="5.60448">
        <ele>826.8</ele>
        <time>2026-05-10T07:38:07Z</time>
      </trkpt>
      <trkpt lat="45.98242" lon="5.60449">
        <ele>826.8</ele>
        <time>2026-05-10T07:38:08Z</time>
      </trkpt>
      <trkpt lat="45.98246" lon="5.60449">
        <ele>827.2</ele>
        <time>2026-05-10T07:38:09Z</time>
      </trkpt>
      <trkpt lat="45.98249" lon="5.60447">
        <ele>827.2</ele>
        <time>2026-05-10T07:38:10Z</time>
      </trkpt>
      <trkpt lat="45.98253" lon="5.60445">
        <ele>827.2</ele>
        <time>2026-05-10T07:38:11Z</time>
      </trkpt>
      <trkpt lat="45.98257" lon="5.60444">
        <ele>827.2</ele>
        <time>2026-05-10T07:38:12Z</time>
      </trkpt>
      <trkpt lat="45.98261" lon="5.60441">
        <ele>827.2</ele>
        <time>2026-05-10T07:38:13Z</time>
      </trkpt>
      <trkpt lat="45.98265" lon="5.60439">
        <ele>827.2</ele>
        <time>2026-05-10T07:38:14Z</time>
      </trkpt>
      <trkpt lat="45.98269" lon="5.60435">
        <ele>827.2</ele>
        <time>2026-05-10T07:38:15Z</time>
      </trkpt>
      <trkpt lat="45.98273" lon="5.60433">
        <ele>827</ele>
        <time>2026-05-10T07:38:16Z</time>
      </trkpt>
      <trkpt lat="45.98278" lon="5.6043">
        <ele>827</ele>
        <time>2026-05-10T07:38:17Z</time>
      </trkpt>
      <trkpt lat="45.98283" lon="5.60427">
        <ele>826.4</ele>
        <time>2026-05-10T07:38:18Z</time>
      </trkpt>
      <trkpt lat="45.98288" lon="5.60425">
        <ele>826.4</ele>
        <time>2026-05-10T07:38:19Z</time>
      </trkpt>
      <trkpt lat="45.98293" lon="5.60423">
        <ele>825.8</ele>
        <time>2026-05-10T07:38:20Z</time>
      </trkpt>
      <trkpt lat="45.98299" lon="5.60421">
        <ele>825.4</ele>
        <time>2026-05-10T07:38:21Z</time>
      </trkpt>
      <trkpt lat="45.98305" lon="5.60419">
        <ele>825.4</ele>
        <time>2026-05-10T07:38:22Z</time>
      </trkpt>
      <trkpt lat="45.9831" lon="5.60417">
        <ele>825.4</ele>
        <time>2026-05-10T07:38:23Z</time>
      </trkpt>
      <trkpt lat="45.98316" lon="5.60415">
        <ele>825.2</ele>
        <time>2026-05-10T07:38:24Z</time>
      </trkpt>
      <trkpt lat="45.98321" lon="5.60412">
        <ele>825.2</ele>
        <time>2026-05-10T07:38:25Z</time>
      </trkpt>
      <trkpt lat="45.98326" lon="5.6041">
        <ele>825.2</ele>
        <time>2026-05-10T07:38:26Z</time>
      </trkpt>
      <trkpt lat="45.98332" lon="5.60405">
        <ele>825.2</ele>
        <time>2026-05-10T07:38:27Z</time>
      </trkpt>
      <trkpt lat="45.98336" lon="5.60401">
        <ele>825.2</ele>
        <time>2026-05-10T07:38:28Z</time>
      </trkpt>
      <trkpt lat="45.98341" lon="5.60397">
        <ele>825.2</ele>
        <time>2026-05-10T07:38:29Z</time>
      </trkpt>
      <trkpt lat="45.98346" lon="5.60394">
        <ele>825.2</ele>
        <time>2026-05-10T07:38:30Z</time>
      </trkpt>
      <trkpt lat="45.98351" lon="5.60389">
        <ele>825.2</ele>
        <time>2026-05-10T07:38:31Z</time>
      </trkpt>
      <trkpt lat="45.98354" lon="5.60385">
        <ele>825.2</ele>
        <time>2026-05-10T07:38:32Z</time>
      </trkpt>
      <trkpt lat="45.98358" lon="5.6038">
        <ele>825.4</ele>
        <time>2026-05-10T07:38:33Z</time>
      </trkpt>
      <trkpt lat="45.98363" lon="5.60375">
        <ele>825.6</ele>
        <time>2026-05-10T07:38:34Z</time>
      </trkpt>
      <trkpt lat="45.98367" lon="5.60371">
        <ele>825.6</ele>
        <time>2026-05-10T07:38:35Z</time>
      </trkpt>
      <trkpt lat="45.98371" lon="5.60366">
        <ele>825.6</ele>
        <time>2026-05-10T07:38:36Z</time>
      </trkpt>
      <trkpt lat="45.98375" lon="5.60362">
        <ele>825.6</ele>
        <time>2026-05-10T07:38:37Z</time>
      </trkpt>
      <trkpt lat="45.9838" lon="5.60357">
        <ele>825.6</ele>
        <time>2026-05-10T07:38:38Z</time>
      </trkpt>
      <trkpt lat="45.98383" lon="5.60353">
        <ele>825.4</ele>
        <time>2026-05-10T07:38:39Z</time>
      </trkpt>
      <trkpt lat="45.98388" lon="5.60349">
        <ele>825.4</ele>
        <time>2026-05-10T07:38:40Z</time>
      </trkpt>
      <trkpt lat="45.98392" lon="5.60345">
        <ele>825.2</ele>
        <time>2026-05-10T07:38:41Z</time>
      </trkpt>
      <trkpt lat="45.98397" lon="5.60341">
        <ele>825.2</ele>
        <time>2026-05-10T07:38:42Z</time>
      </trkpt>
      <trkpt lat="45.98402" lon="5.60338">
        <ele>824.6</ele>
        <time>2026-05-10T07:38:43Z</time>
      </trkpt>
      <trkpt lat="45.98407" lon="5.60334">
        <ele>824.6</ele>
        <time>2026-05-10T07:38:44Z</time>
      </trkpt>
      <trkpt lat="45.98412" lon="5.60332">
        <ele>824.6</ele>
        <time>2026-05-10T07:38:45Z</time>
      </trkpt>
      <trkpt lat="45.98418" lon="5.60329">
        <ele>824.2</ele>
        <time>2026-05-10T07:38:46Z</time>
      </trkpt>
      <trkpt lat="45.98423" lon="5.60326">
        <ele>824.2</ele>
        <time>2026-05-10T07:38:47Z</time>
      </trkpt>
      <trkpt lat="45.98428" lon="5.60323">
        <ele>824.2</ele>
        <time>2026-05-10T07:38:48Z</time>
      </trkpt>
      <trkpt lat="45.98433" lon="5.6032">
        <ele>824.2</ele>
        <time>2026-05-10T07:38:49Z</time>
      </trkpt>
      <trkpt lat="45.98438" lon="5.60316">
        <ele>824</ele>
        <time>2026-05-10T07:38:50Z</time>
      </trkpt>
      <trkpt lat="45.98442" lon="5.60314">
        <ele>824</ele>
        <time>2026-05-10T07:38:51Z</time>
      </trkpt>
      <trkpt lat="45.98448" lon="5.60311">
        <ele>823.8</ele>
        <time>2026-05-10T07:38:52Z</time>
      </trkpt>
      <trkpt lat="45.98453" lon="5.60308">
        <ele>823.8</ele>
        <time>2026-05-10T07:38:53Z</time>
      </trkpt>
      <trkpt lat="45.98458" lon="5.60306">
        <ele>823.8</ele>
        <time>2026-05-10T07:38:54Z</time>
      </trkpt>
      <trkpt lat="45.98463" lon="5.60303">
        <ele>823.8</ele>
        <time>2026-05-10T07:38:55Z</time>
      </trkpt>
      <trkpt lat="45.98468" lon="5.603">
        <ele>823.8</ele>
        <time>2026-05-10T07:38:56Z</time>
      </trkpt>
      <trkpt lat="45.98474" lon="5.60298">
        <ele>823.8</ele>
        <time>2026-05-10T07:38:57Z</time>
      </trkpt>
      <trkpt lat="45.98478" lon="5.60295">
        <ele>823.8</ele>
        <time>2026-05-10T07:38:58Z</time>
      </trkpt>
      <trkpt lat="45.98483" lon="5.60291">
        <ele>823.8</ele>
        <time>2026-05-10T07:38:59Z</time>
      </trkpt>
      <trkpt lat="45.98487" lon="5.60289">
        <ele>823.8</ele>
        <time>2026-05-10T07:39:00Z</time>
      </trkpt>
      <trkpt lat="45.98492" lon="5.60286">
        <ele>823.8</ele>
        <time>2026-05-10T07:39:01Z</time>
      </trkpt>
      <trkpt lat="45.98496" lon="5.60283">
        <ele>823.8</ele>
        <time>2026-05-10T07:39:02Z</time>
      </trkpt>
      <trkpt lat="45.98498" lon="5.60279">
        <ele>823.8</ele>
        <time>2026-05-10T07:39:03Z</time>
      </trkpt>
      <trkpt lat="45.98501" lon="5.60274">
        <ele>823.8</ele>
        <time>2026-05-10T07:39:04Z</time>
      </trkpt>
      <trkpt lat="45.98504" lon="5.60269">
        <ele>823.8</ele>
        <time>2026-05-10T07:39:05Z</time>
      </trkpt>
      <trkpt lat="45.98507" lon="5.60263">
        <ele>823.8</ele>
        <time>2026-05-10T07:39:06Z</time>
      </trkpt>
      <trkpt lat="45.98509" lon="5.60257">
        <ele>823.4</ele>
        <time>2026-05-10T07:39:07Z</time>
      </trkpt>
      <trkpt lat="45.98512" lon="5.6025">
        <ele>823.4</ele>
        <time>2026-05-10T07:39:08Z</time>
      </trkpt>
      <trkpt lat="45.98516" lon="5.60243">
        <ele>823.4</ele>
        <time>2026-05-10T07:39:09Z</time>
      </trkpt>
      <trkpt lat="45.98518" lon="5.60236">
        <ele>823.4</ele>
        <time>2026-05-10T07:39:10Z</time>
      </trkpt>
      <trkpt lat="45.98522" lon="5.6023">
        <ele>823.2</ele>
        <time>2026-05-10T07:39:11Z</time>
      </trkpt>
      <trkpt lat="45.98525" lon="5.60222">
        <ele>823.2</ele>
        <time>2026-05-10T07:39:12Z</time>
      </trkpt>
      <trkpt lat="45.98528" lon="5.60215">
        <ele>822.8</ele>
        <time>2026-05-10T07:39:13Z</time>
      </trkpt>
      <trkpt lat="45.98531" lon="5.60207">
        <ele>822.8</ele>
        <time>2026-05-10T07:39:14Z</time>
      </trkpt>
      <trkpt lat="45.98535" lon="5.60199">
        <ele>822.2</ele>
        <time>2026-05-10T07:39:15Z</time>
      </trkpt>
      <trkpt lat="45.98539" lon="5.60191">
        <ele>822.2</ele>
        <time>2026-05-10T07:39:16Z</time>
      </trkpt>
      <trkpt lat="45.98543" lon="5.60185">
        <ele>821.8</ele>
        <time>2026-05-10T07:39:17Z</time>
      </trkpt>
      <trkpt lat="45.98547" lon="5.60177">
        <ele>821.6</ele>
        <time>2026-05-10T07:39:18Z</time>
      </trkpt>
      <trkpt lat="45.98551" lon="5.60172">
        <ele>821.6</ele>
        <time>2026-05-10T07:39:19Z</time>
      </trkpt>
      <trkpt lat="45.98556" lon="5.60166">
        <ele>821.4</ele>
        <time>2026-05-10T07:39:20Z</time>
      </trkpt>
      <trkpt lat="45.98562" lon="5.60162">
        <ele>821.4</ele>
        <time>2026-05-10T07:39:21Z</time>
      </trkpt>
      <trkpt lat="45.98567" lon="5.60158">
        <ele>821</ele>
        <time>2026-05-10T07:39:22Z</time>
      </trkpt>
      <trkpt lat="45.98573" lon="5.60154">
        <ele>820.8</ele>
        <time>2026-05-10T07:39:23Z</time>
      </trkpt>
      <trkpt lat="45.98578" lon="5.60152">
        <ele>820.8</ele>
        <time>2026-05-10T07:39:24Z</time>
      </trkpt>
      <trkpt lat="45.98585" lon="5.60151">
        <ele>820.8</ele>
        <time>2026-05-10T07:39:25Z</time>
      </trkpt>
      <trkpt lat="45.98591" lon="5.60149">
        <ele>820.8</ele>
        <time>2026-05-10T07:39:26Z</time>
      </trkpt>
      <trkpt lat="45.98596" lon="5.60148">
        <ele>821</ele>
        <time>2026-05-10T07:39:27Z</time>
      </trkpt>
      <trkpt lat="45.98602" lon="5.60149">
        <ele>821</ele>
        <time>2026-05-10T07:39:28Z</time>
      </trkpt>
      <trkpt lat="45.98607" lon="5.60148">
        <ele>821</ele>
        <time>2026-05-10T07:39:29Z</time>
      </trkpt>
      <trkpt lat="45.98613" lon="5.60147">
        <ele>821</ele>
        <time>2026-05-10T07:39:30Z</time>
      </trkpt>
      <trkpt lat="45.98618" lon="5.60146">
        <ele>821.2</ele>
        <time>2026-05-10T07:39:31Z</time>
      </trkpt>
      <trkpt lat="45.98623" lon="5.60145">
        <ele>821.2</ele>
        <time>2026-05-10T07:39:32Z</time>
      </trkpt>
      <trkpt lat="45.98629" lon="5.60144">
        <ele>821.2</ele>
        <time>2026-05-10T07:39:33Z</time>
      </trkpt>
      <trkpt lat="45.98634" lon="5.60143">
        <ele>821.2</ele>
        <time>2026-05-10T07:39:34Z</time>
      </trkpt>
      <trkpt lat="45.9864" lon="5.60142">
        <ele>821.2</ele>
        <time>2026-05-10T07:39:35Z</time>
      </trkpt>
      <trkpt lat="45.98645" lon="5.60141">
        <ele>821.2</ele>
        <time>2026-05-10T07:39:36Z</time>
      </trkpt>
      <trkpt lat="45.98651" lon="5.6014">
        <ele>821.2</ele>
        <time>2026-05-10T07:39:37Z</time>
      </trkpt>
      <trkpt lat="45.98657" lon="5.6014">
        <ele>821</ele>
        <time>2026-05-10T07:39:38Z</time>
      </trkpt>
      <trkpt lat="45.98662" lon="5.60139">
        <ele>821</ele>
        <time>2026-05-10T07:39:39Z</time>
      </trkpt>
      <trkpt lat="45.98667" lon="5.60138">
        <ele>821</ele>
        <time>2026-05-10T07:39:40Z</time>
      </trkpt>
      <trkpt lat="45.98672" lon="5.60136">
        <ele>821</ele>
        <time>2026-05-10T07:39:41Z</time>
      </trkpt>
      <trkpt lat="45.98678" lon="5.60135">
        <ele>820.8</ele>
        <time>2026-05-10T07:39:42Z</time>
      </trkpt>
      <trkpt lat="45.98684" lon="5.60133">
        <ele>820.8</ele>
        <time>2026-05-10T07:39:43Z</time>
      </trkpt>
      <trkpt lat="45.98689" lon="5.60133">
        <ele>820.8</ele>
        <time>2026-05-10T07:39:44Z</time>
      </trkpt>
      <trkpt lat="45.98695" lon="5.60133">
        <ele>820.4</ele>
        <time>2026-05-10T07:39:45Z</time>
      </trkpt>
      <trkpt lat="45.987" lon="5.60133">
        <ele>820.4</ele>
        <time>2026-05-10T07:39:46Z</time>
      </trkpt>
      <trkpt lat="45.98705" lon="5.60132">
        <ele>820.2</ele>
        <time>2026-05-10T07:39:47Z</time>
      </trkpt>
      <trkpt lat="45.9871" lon="5.60131">
        <ele>820.2</ele>
        <time>2026-05-10T07:39:48Z</time>
      </trkpt>
      <trkpt lat="45.98717" lon="5.60129">
        <ele>820</ele>
        <time>2026-05-10T07:39:49Z</time>
      </trkpt>
      <trkpt lat="45.98722" lon="5.60128">
        <ele>820</ele>
        <time>2026-05-10T07:39:50Z</time>
      </trkpt>
      <trkpt lat="45.98728" lon="5.60126">
        <ele>820</ele>
        <time>2026-05-10T07:39:51Z</time>
      </trkpt>
      <trkpt lat="45.98734" lon="5.60125">
        <ele>820</ele>
        <time>2026-05-10T07:39:52Z</time>
      </trkpt>
      <trkpt lat="45.98746" lon="5.60123">
        <ele>820</ele>
        <time>2026-05-10T07:39:53Z</time>
      </trkpt>
      <trkpt lat="45.98751" lon="5.60121">
        <ele>820</ele>
        <time>2026-05-10T07:39:54Z</time>
      </trkpt>
      <trkpt lat="45.98757" lon="5.60119">
        <ele>819.4</ele>
        <time>2026-05-10T07:39:55Z</time>
      </trkpt>
      <trkpt lat="45.98763" lon="5.60117">
        <ele>819.2</ele>
        <time>2026-05-10T07:39:56Z</time>
      </trkpt>
      <trkpt lat="45.98769" lon="5.60116">
        <ele>819</ele>
        <time>2026-05-10T07:39:57Z</time>
      </trkpt>
      <trkpt lat="45.98775" lon="5.60114">
        <ele>819</ele>
        <time>2026-05-10T07:39:58Z</time>
      </trkpt>
      <trkpt lat="45.9878" lon="5.60112">
        <ele>819</ele>
        <time>2026-05-10T07:39:59Z</time>
      </trkpt>
      <trkpt lat="45.98786" lon="5.6011">
        <ele>819</ele>
        <time>2026-05-10T07:40:00Z</time>
      </trkpt>
      <trkpt lat="45.98791" lon="5.60108">
        <ele>818.6</ele>
        <time>2026-05-10T07:40:01Z</time>
      </trkpt>
      <trkpt lat="45.98797" lon="5.60106">
        <ele>818.6</ele>
        <time>2026-05-10T07:40:02Z</time>
      </trkpt>
      <trkpt lat="45.98802" lon="5.60104">
        <ele>818.2</ele>
        <time>2026-05-10T07:40:03Z</time>
      </trkpt>
      <trkpt lat="45.98807" lon="5.60103">
        <ele>818.2</ele>
        <time>2026-05-10T07:40:04Z</time>
      </trkpt>
      <trkpt lat="45.98813" lon="5.60103">
        <ele>818.2</ele>
        <time>2026-05-10T07:40:05Z</time>
      </trkpt>
      <trkpt lat="45.98819" lon="5.60102">
        <ele>818.4</ele>
        <time>2026-05-10T07:40:06Z</time>
      </trkpt>
      <trkpt lat="45.98824" lon="5.60102">
        <ele>818.4</ele>
        <time>2026-05-10T07:40:07Z</time>
      </trkpt>
      <trkpt lat="45.98831" lon="5.60101">
        <ele>818.4</ele>
        <time>2026-05-10T07:40:08Z</time>
      </trkpt>
      <trkpt lat="45.98837" lon="5.60102">
        <ele>818.2</ele>
        <time>2026-05-10T07:40:09Z</time>
      </trkpt>
      <trkpt lat="45.98843" lon="5.60102">
        <ele>818.2</ele>
        <time>2026-05-10T07:40:10Z</time>
      </trkpt>
      <trkpt lat="45.98848" lon="5.60103">
        <ele>818.2</ele>
        <time>2026-05-10T07:40:11Z</time>
      </trkpt>
      <trkpt lat="45.98854" lon="5.60104">
        <ele>818.2</ele>
        <time>2026-05-10T07:40:12Z</time>
      </trkpt>
      <trkpt lat="45.9886" lon="5.60105">
        <ele>818</ele>
        <time>2026-05-10T07:40:13Z</time>
      </trkpt>
      <trkpt lat="45.98865" lon="5.60105">
        <ele>818</ele>
        <time>2026-05-10T07:40:14Z</time>
      </trkpt>
      <trkpt lat="45.9887" lon="5.60104">
        <ele>817.6</ele>
        <time>2026-05-10T07:40:15Z</time>
      </trkpt>
      <trkpt lat="45.98875" lon="5.601">
        <ele>817.6</ele>
        <time>2026-05-10T07:40:16Z</time>
      </trkpt>
      <trkpt lat="45.98879" lon="5.60096">
        <ele>817.6</ele>
        <time>2026-05-10T07:40:17Z</time>
      </trkpt>
      <trkpt lat="45.98882" lon="5.60091">
        <ele>817.4</ele>
        <time>2026-05-10T07:40:18Z</time>
      </trkpt>
      <trkpt lat="45.98886" lon="5.60085">
        <ele>817.4</ele>
        <time>2026-05-10T07:40:19Z</time>
      </trkpt>
      <trkpt lat="45.98889" lon="5.60081">
        <ele>817</ele>
        <time>2026-05-10T07:40:20Z</time>
      </trkpt>
      <trkpt lat="45.98893" lon="5.60077">
        <ele>817</ele>
        <time>2026-05-10T07:40:21Z</time>
      </trkpt>
      <trkpt lat="45.98897" lon="5.60076">
        <ele>816.8</ele>
        <time>2026-05-10T07:40:22Z</time>
      </trkpt>
      <trkpt lat="45.98901" lon="5.60074">
        <ele>816.8</ele>
        <time>2026-05-10T07:40:23Z</time>
      </trkpt>
      <trkpt lat="45.98904" lon="5.60074">
        <ele>816.8</ele>
        <time>2026-05-10T07:40:24Z</time>
      </trkpt>
      <trkpt lat="45.98906" lon="5.60072">
        <ele>816.8</ele>
        <time>2026-05-10T07:40:25Z</time>
      </trkpt>
      <trkpt lat="45.98908" lon="5.60071">
        <ele>816.8</ele>
        <time>2026-05-10T07:40:26Z</time>
      </trkpt>
      <trkpt lat="45.98908" lon="5.60067">
        <ele>816.8</ele>
        <time>2026-05-10T07:40:27Z</time>
      </trkpt>
      <trkpt lat="45.98907" lon="5.60064">
        <ele>816.8</ele>
        <time>2026-05-10T07:40:28Z</time>
      </trkpt>
      <trkpt lat="45.98904" lon="5.60063">
        <ele>816.8</ele>
        <time>2026-05-10T07:40:29Z</time>
      </trkpt>
      <trkpt lat="45.98901" lon="5.60063">
        <ele>816.8</ele>
        <time>2026-05-10T07:40:30Z</time>
      </trkpt>
      <trkpt lat="45.98898" lon="5.60063">
        <ele>816.8</ele>
        <time>2026-05-10T07:40:31Z</time>
      </trkpt>
      <trkpt lat="45.98894" lon="5.60062">
        <ele>816.8</ele>
        <time>2026-05-10T07:40:32Z</time>
      </trkpt>
      <trkpt lat="45.98891" lon="5.60059">
        <ele>816.8</ele>
        <time>2026-05-10T07:40:33Z</time>
      </trkpt>
      <trkpt lat="45.98889" lon="5.60054">
        <ele>816.8</ele>
        <time>2026-05-10T07:40:34Z</time>
      </trkpt>
      <trkpt lat="45.98888" lon="5.60049">
        <ele>816.4</ele>
        <time>2026-05-10T07:40:35Z</time>
      </trkpt>
      <trkpt lat="45.98893" lon="5.60042">
        <ele>816.4</ele>
        <time>2026-05-10T07:40:36Z</time>
      </trkpt>
      <trkpt lat="45.98896" lon="5.60037">
        <ele>816</ele>
        <time>2026-05-10T07:40:37Z</time>
      </trkpt>
      <trkpt lat="45.98896" lon="5.60037">
        <ele>815.6</ele>
        <time>2026-05-10T07:40:38Z</time>
      </trkpt>
      <trkpt lat="45.989" lon="5.60034">
        <ele>815</ele>
        <time>2026-05-10T07:40:39Z</time>
      </trkpt>
      <trkpt lat="45.98905" lon="5.60029">
        <ele>814.8</ele>
        <time>2026-05-10T07:40:40Z</time>
      </trkpt>
      <trkpt lat="45.98909" lon="5.60024">
        <ele>814.4</ele>
        <time>2026-05-10T07:40:41Z</time>
      </trkpt>
      <trkpt lat="45.98913" lon="5.60018">
        <ele>814.2</ele>
        <time>2026-05-10T07:40:42Z</time>
      </trkpt>
      <trkpt lat="45.98918" lon="5.60011">
        <ele>814</ele>
        <time>2026-05-10T07:40:43Z</time>
      </trkpt>
      <trkpt lat="45.98922" lon="5.60005">
        <ele>813.4</ele>
        <time>2026-05-10T07:40:44Z</time>
      </trkpt>
      <trkpt lat="45.98927" lon="5.59999">
        <ele>813.4</ele>
        <time>2026-05-10T07:40:45Z</time>
      </trkpt>
      <trkpt lat="45.98932" lon="5.59991">
        <ele>813</ele>
        <time>2026-05-10T07:40:46Z</time>
      </trkpt>
      <trkpt lat="45.98936" lon="5.59985">
        <ele>812.4</ele>
        <time>2026-05-10T07:40:47Z</time>
      </trkpt>
      <trkpt lat="45.98941" lon="5.59979">
        <ele>812</ele>
        <time>2026-05-10T07:40:48Z</time>
      </trkpt>
      <trkpt lat="45.98946" lon="5.59972">
        <ele>811.8</ele>
        <time>2026-05-10T07:40:49Z</time>
      </trkpt>
      <trkpt lat="45.9895" lon="5.59965">
        <ele>811.6</ele>
        <time>2026-05-10T07:40:50Z</time>
      </trkpt>
      <trkpt lat="45.98955" lon="5.59958">
        <ele>811</ele>
        <time>2026-05-10T07:40:51Z</time>
      </trkpt>
      <trkpt lat="45.9896" lon="5.5995">
        <ele>811</ele>
        <time>2026-05-10T07:40:52Z</time>
      </trkpt>
      <trkpt lat="45.98965" lon="5.59943">
        <ele>811</ele>
        <time>2026-05-10T07:40:53Z</time>
      </trkpt>
      <trkpt lat="45.9897" lon="5.59935">
        <ele>810.6</ele>
        <time>2026-05-10T07:40:54Z</time>
      </trkpt>
      <trkpt lat="45.98975" lon="5.59927">
        <ele>810.2</ele>
        <time>2026-05-10T07:40:55Z</time>
      </trkpt>
      <trkpt lat="45.98981" lon="5.5992">
        <ele>809.6</ele>
        <time>2026-05-10T07:40:56Z</time>
      </trkpt>
      <trkpt lat="45.98986" lon="5.59914">
        <ele>809.4</ele>
        <time>2026-05-10T07:40:57Z</time>
      </trkpt>
      <trkpt lat="45.98991" lon="5.59909">
        <ele>809.4</ele>
        <time>2026-05-10T07:40:58Z</time>
      </trkpt>
      <trkpt lat="45.98997" lon="5.59904">
        <ele>809</ele>
        <time>2026-05-10T07:40:59Z</time>
      </trkpt>
      <trkpt lat="45.99002" lon="5.59899">
        <ele>809</ele>
        <time>2026-05-10T07:41:00Z</time>
      </trkpt>
      <trkpt lat="45.99008" lon="5.59896">
        <ele>808.4</ele>
        <time>2026-05-10T07:41:01Z</time>
      </trkpt>
      <trkpt lat="45.99014" lon="5.59892">
        <ele>808</ele>
        <time>2026-05-10T07:41:02Z</time>
      </trkpt>
      <trkpt lat="45.99019" lon="5.59888">
        <ele>808</ele>
        <time>2026-05-10T07:41:03Z</time>
      </trkpt>
      <trkpt lat="45.99024" lon="5.59884">
        <ele>808.2</ele>
        <time>2026-05-10T07:41:04Z</time>
      </trkpt>
      <trkpt lat="45.99029" lon="5.59881">
        <ele>808.2</ele>
        <time>2026-05-10T07:41:05Z</time>
      </trkpt>
      <trkpt lat="45.99033" lon="5.59879">
        <ele>808.2</ele>
        <time>2026-05-10T07:41:06Z</time>
      </trkpt>
      <trkpt lat="45.99036" lon="5.59878">
        <ele>808.6</ele>
        <time>2026-05-10T07:41:07Z</time>
      </trkpt>
      <trkpt lat="45.99039" lon="5.59877">
        <ele>808.8</ele>
        <time>2026-05-10T07:41:08Z</time>
      </trkpt>
      <trkpt lat="45.99041" lon="5.59876">
        <ele>809</ele>
        <time>2026-05-10T07:41:09Z</time>
      </trkpt>
      <trkpt lat="45.99043" lon="5.59876">
        <ele>809</ele>
        <time>2026-05-10T07:41:10Z</time>
      </trkpt>
      <trkpt lat="45.99045" lon="5.59875">
        <ele>809</ele>
        <time>2026-05-10T07:41:11Z</time>
      </trkpt>
      <trkpt lat="45.99044" lon="5.59875">
        <ele>809.4</ele>
        <time>2026-05-10T07:41:12Z</time>
      </trkpt>
      <trkpt lat="45.99044" lon="5.59876">
        <ele>809.4</ele>
        <time>2026-05-10T07:41:13Z</time>
      </trkpt>
      <trkpt lat="45.99044" lon="5.59873">
        <ele>809.6</ele>
        <time>2026-05-10T07:41:26Z</time>
      </trkpt>
      <trkpt lat="45.99044" lon="5.59873">
        <ele>809.6</ele>
        <time>2026-05-10T07:41:27Z</time>
      </trkpt>
      <trkpt lat="45.99044" lon="5.59873">
        <ele>809.6</ele>
        <time>2026-05-10T07:41:28Z</time>
      </trkpt>
      <trkpt lat="45.99044" lon="5.5987">
        <ele>809.4</ele>
        <time>2026-05-10T07:41:46Z</time>
      </trkpt>
      <trkpt lat="45.99043" lon="5.59869">
        <ele>809.4</ele>
        <time>2026-05-10T07:41:47Z</time>
      </trkpt>
      <trkpt lat="45.99042" lon="5.59868">
        <ele>809.2</ele>
        <time>2026-05-10T07:41:48Z</time>
      </trkpt>
      <trkpt lat="45.99039" lon="5.59866">
        <ele>809.2</ele>
        <time>2026-05-10T07:41:49Z</time>
      </trkpt>
      <trkpt lat="45.99036" lon="5.59865">
        <ele>809.2</ele>
        <time>2026-05-10T07:41:50Z</time>
      </trkpt>
      <trkpt lat="45.99033" lon="5.59863">
        <ele>809.2</ele>
        <time>2026-05-10T07:41:51Z</time>
      </trkpt>
      <trkpt lat="45.9903" lon="5.5986">
        <ele>809.2</ele>
        <time>2026-05-10T07:41:52Z</time>
      </trkpt>
      <trkpt lat="45.99028" lon="5.59856">
        <ele>808.8</ele>
        <time>2026-05-10T07:41:53Z</time>
      </trkpt>
      <trkpt lat="45.99026" lon="5.59851">
        <ele>808.6</ele>
        <time>2026-05-10T07:41:54Z</time>
      </trkpt>
      <trkpt lat="45.99025" lon="5.59846">
        <ele>807.8</ele>
        <time>2026-05-10T07:41:55Z</time>
      </trkpt>
      <trkpt lat="45.99024" lon="5.5984">
        <ele>808.2</ele>
        <time>2026-05-10T07:41:56Z</time>
      </trkpt>
      <trkpt lat="45.99024" lon="5.59834">
        <ele>807.8</ele>
        <time>2026-05-10T07:41:57Z</time>
      </trkpt>
      <trkpt lat="45.99024" lon="5.59828">
        <ele>807.4</ele>
        <time>2026-05-10T07:41:58Z</time>
      </trkpt>
      <trkpt lat="45.99024" lon="5.59823">
        <ele>807.2</ele>
        <time>2026-05-10T07:41:59Z</time>
      </trkpt>
      <trkpt lat="45.99023" lon="5.59817">
        <ele>807.2</ele>
        <time>2026-05-10T07:42:00Z</time>
      </trkpt>
      <trkpt lat="45.99021" lon="5.59812">
        <ele>806.8</ele>
        <time>2026-05-10T07:42:01Z</time>
      </trkpt>
      <trkpt lat="45.9902" lon="5.59808">
        <ele>806.4</ele>
        <time>2026-05-10T07:42:02Z</time>
      </trkpt>
      <trkpt lat="45.99018" lon="5.59803">
        <ele>806.6</ele>
        <time>2026-05-10T07:42:03Z</time>
      </trkpt>
      <trkpt lat="45.99016" lon="5.59797">
        <ele>806</ele>
        <time>2026-05-10T07:42:04Z</time>
      </trkpt>
      <trkpt lat="45.99015" lon="5.59791">
        <ele>805.6</ele>
        <time>2026-05-10T07:42:05Z</time>
      </trkpt>
      <trkpt lat="45.99015" lon="5.59785">
        <ele>805.2</ele>
        <time>2026-05-10T07:42:06Z</time>
      </trkpt>
      <trkpt lat="45.99012" lon="5.59778">
        <ele>804.8</ele>
        <time>2026-05-10T07:42:07Z</time>
      </trkpt>
      <trkpt lat="45.9901" lon="5.59771">
        <ele>804.2</ele>
        <time>2026-05-10T07:42:08Z</time>
      </trkpt>
      <trkpt lat="45.99008" lon="5.59764">
        <ele>803.8</ele>
        <time>2026-05-10T07:42:09Z</time>
      </trkpt>
      <trkpt lat="45.99006" lon="5.59757">
        <ele>803.2</ele>
        <time>2026-05-10T07:42:10Z</time>
      </trkpt>
      <trkpt lat="45.99006" lon="5.59748">
        <ele>802.8</ele>
        <time>2026-05-10T07:42:11Z</time>
      </trkpt>
      <trkpt lat="45.99006" lon="5.59739">
        <ele>802.8</ele>
        <time>2026-05-10T07:42:12Z</time>
      </trkpt>
      <trkpt lat="45.99006" lon="5.59732">
        <ele>801.8</ele>
        <time>2026-05-10T07:42:13Z</time>
      </trkpt>
      <trkpt lat="45.99007" lon="5.59723">
        <ele>801.6</ele>
        <time>2026-05-10T07:42:14Z</time>
      </trkpt>
      <trkpt lat="45.99009" lon="5.59714">
        <ele>801</ele>
        <time>2026-05-10T07:42:15Z</time>
      </trkpt>
      <trkpt lat="45.99011" lon="5.59705">
        <ele>800.4</ele>
        <time>2026-05-10T07:42:16Z</time>
      </trkpt>
      <trkpt lat="45.99014" lon="5.59697">
        <ele>800</ele>
        <time>2026-05-10T07:42:17Z</time>
      </trkpt>
      <trkpt lat="45.99016" lon="5.59689">
        <ele>799.4</ele>
        <time>2026-05-10T07:42:18Z</time>
      </trkpt>
      <trkpt lat="45.9902" lon="5.59681">
        <ele>799</ele>
        <time>2026-05-10T07:42:19Z</time>
      </trkpt>
      <trkpt lat="45.99025" lon="5.59674">
        <ele>798.6</ele>
        <time>2026-05-10T07:42:20Z</time>
      </trkpt>
      <trkpt lat="45.99031" lon="5.59668">
        <ele>798</ele>
        <time>2026-05-10T07:42:21Z</time>
      </trkpt>
      <trkpt lat="45.99036" lon="5.59662">
        <ele>797.8</ele>
        <time>2026-05-10T07:42:22Z</time>
      </trkpt>
      <trkpt lat="45.99042" lon="5.59657">
        <ele>797.8</ele>
        <time>2026-05-10T07:42:23Z</time>
      </trkpt>
      <trkpt lat="45.99047" lon="5.59651">
        <ele>797.4</ele>
        <time>2026-05-10T07:42:24Z</time>
      </trkpt>
      <trkpt lat="45.99054" lon="5.59646">
        <ele>797</ele>
        <time>2026-05-10T07:42:25Z</time>
      </trkpt>
      <trkpt lat="45.9906" lon="5.5964">
        <ele>797</ele>
        <time>2026-05-10T07:42:26Z</time>
      </trkpt>
      <trkpt lat="45.99065" lon="5.59633">
        <ele>796.6</ele>
        <time>2026-05-10T07:42:27Z</time>
      </trkpt>
      <trkpt lat="45.99069" lon="5.59626">
        <ele>796.4</ele>
        <time>2026-05-10T07:42:28Z</time>
      </trkpt>
      <trkpt lat="45.99073" lon="5.59618">
        <ele>796.2</ele>
        <time>2026-05-10T07:42:29Z</time>
      </trkpt>
      <trkpt lat="45.99077" lon="5.59609">
        <ele>796.2</ele>
        <time>2026-05-10T07:42:30Z</time>
      </trkpt>
      <trkpt lat="45.99081" lon="5.59601">
        <ele>796</ele>
        <time>2026-05-10T07:42:31Z</time>
      </trkpt>
      <trkpt lat="45.99083" lon="5.59592">
        <ele>796</ele>
        <time>2026-05-10T07:42:32Z</time>
      </trkpt>
      <trkpt lat="45.99086" lon="5.59584">
        <ele>795.8</ele>
        <time>2026-05-10T07:42:33Z</time>
      </trkpt>
      <trkpt lat="45.99087" lon="5.59576">
        <ele>796</ele>
        <time>2026-05-10T07:42:34Z</time>
      </trkpt>
      <trkpt lat="45.9909" lon="5.59568">
        <ele>795.6</ele>
        <time>2026-05-10T07:42:35Z</time>
      </trkpt>
      <trkpt lat="45.99093" lon="5.59558">
        <ele>795.2</ele>
        <time>2026-05-10T07:42:36Z</time>
      </trkpt>
      <trkpt lat="45.99095" lon="5.5955">
        <ele>795.2</ele>
        <time>2026-05-10T07:42:37Z</time>
      </trkpt>
      <trkpt lat="45.99098" lon="5.5954">
        <ele>794.8</ele>
        <time>2026-05-10T07:42:38Z</time>
      </trkpt>
      <trkpt lat="45.99099" lon="5.59531">
        <ele>794.6</ele>
        <time>2026-05-10T07:42:39Z</time>
      </trkpt>
      <trkpt lat="45.99102" lon="5.59522">
        <ele>794.2</ele>
        <time>2026-05-10T07:42:40Z</time>
      </trkpt>
      <trkpt lat="45.99105" lon="5.59513">
        <ele>794.2</ele>
        <time>2026-05-10T07:42:41Z</time>
      </trkpt>
      <trkpt lat="45.99107" lon="5.59504">
        <ele>794.2</ele>
        <time>2026-05-10T07:42:42Z</time>
      </trkpt>
      <trkpt lat="45.99109" lon="5.59494">
        <ele>792.2</ele>
        <time>2026-05-10T07:42:43Z</time>
      </trkpt>
      <trkpt lat="45.99111" lon="5.59486">
        <ele>793</ele>
        <time>2026-05-10T07:42:44Z</time>
      </trkpt>
      <trkpt lat="45.99113" lon="5.59477">
        <ele>793</ele>
        <time>2026-05-10T07:42:45Z</time>
      </trkpt>
      <trkpt lat="45.99114" lon="5.59469">
        <ele>793</ele>
        <time>2026-05-10T07:42:46Z</time>
      </trkpt>
      <trkpt lat="45.99116" lon="5.59461">
        <ele>793.6</ele>
        <time>2026-05-10T07:42:47Z</time>
      </trkpt>
      <trkpt lat="45.99117" lon="5.59453">
        <ele>793.4</ele>
        <time>2026-05-10T07:42:48Z</time>
      </trkpt>
      <trkpt lat="45.99119" lon="5.59444">
        <ele>793.4</ele>
        <time>2026-05-10T07:42:49Z</time>
      </trkpt>
      <trkpt lat="45.9912" lon="5.59437">
        <ele>793.6</ele>
        <time>2026-05-10T07:42:50Z</time>
      </trkpt>
      <trkpt lat="45.99123" lon="5.59428">
        <ele>793.6</ele>
        <time>2026-05-10T07:42:51Z</time>
      </trkpt>
      <trkpt lat="45.99123" lon="5.59419">
        <ele>793.2</ele>
        <time>2026-05-10T07:42:52Z</time>
      </trkpt>
      <trkpt lat="45.99125" lon="5.5941">
        <ele>792.8</ele>
        <time>2026-05-10T07:42:53Z</time>
      </trkpt>
      <trkpt lat="45.99127" lon="5.59401">
        <ele>792.6</ele>
        <time>2026-05-10T07:42:54Z</time>
      </trkpt>
      <trkpt lat="45.99128" lon="5.59391">
        <ele>792.2</ele>
        <time>2026-05-10T07:42:55Z</time>
      </trkpt>
      <trkpt lat="45.99129" lon="5.59382">
        <ele>791.8</ele>
        <time>2026-05-10T07:42:56Z</time>
      </trkpt>
      <trkpt lat="45.99129" lon="5.59371">
        <ele>791.4</ele>
        <time>2026-05-10T07:42:57Z</time>
      </trkpt>
      <trkpt lat="45.99129" lon="5.59361">
        <ele>791</ele>
        <time>2026-05-10T07:42:58Z</time>
      </trkpt>
      <trkpt lat="45.99128" lon="5.59351">
        <ele>791</ele>
        <time>2026-05-10T07:42:59Z</time>
      </trkpt>
      <trkpt lat="45.99127" lon="5.59342">
        <ele>790.4</ele>
        <time>2026-05-10T07:43:00Z</time>
      </trkpt>
      <trkpt lat="45.99125" lon="5.59333">
        <ele>790.4</ele>
        <time>2026-05-10T07:43:01Z</time>
      </trkpt>
      <trkpt lat="45.99124" lon="5.59324">
        <ele>789.2</ele>
        <time>2026-05-10T07:43:02Z</time>
      </trkpt>
      <trkpt lat="45.99124" lon="5.59315">
        <ele>789.2</ele>
        <time>2026-05-10T07:43:03Z</time>
      </trkpt>
      <trkpt lat="45.99121" lon="5.59306">
        <ele>788.8</ele>
        <time>2026-05-10T07:43:04Z</time>
      </trkpt>
      <trkpt lat="45.9912" lon="5.59296">
        <ele>787.8</ele>
        <time>2026-05-10T07:43:05Z</time>
      </trkpt>
      <trkpt lat="45.99119" lon="5.59287">
        <ele>787.2</ele>
        <time>2026-05-10T07:43:06Z</time>
      </trkpt>
      <trkpt lat="45.99117" lon="5.59277">
        <ele>786.8</ele>
        <time>2026-05-10T07:43:07Z</time>
      </trkpt>
      <trkpt lat="45.99115" lon="5.59268">
        <ele>786.4</ele>
        <time>2026-05-10T07:43:08Z</time>
      </trkpt>
      <trkpt lat="45.99113" lon="5.59258">
        <ele>786.2</ele>
        <time>2026-05-10T07:43:09Z</time>
      </trkpt>
      <trkpt lat="45.99109" lon="5.5925">
        <ele>785.8</ele>
        <time>2026-05-10T07:43:10Z</time>
      </trkpt>
      <trkpt lat="45.99106" lon="5.59241">
        <ele>785.4</ele>
        <time>2026-05-10T07:43:11Z</time>
      </trkpt>
      <trkpt lat="45.99103" lon="5.59232">
        <ele>785</ele>
        <time>2026-05-10T07:43:12Z</time>
      </trkpt>
      <trkpt lat="45.99098" lon="5.59224">
        <ele>784.8</ele>
        <time>2026-05-10T07:43:13Z</time>
      </trkpt>
      <trkpt lat="45.99094" lon="5.59215">
        <ele>784.4</ele>
        <time>2026-05-10T07:43:14Z</time>
      </trkpt>
      <trkpt lat="45.9909" lon="5.59206">
        <ele>784.4</ele>
        <time>2026-05-10T07:43:15Z</time>
      </trkpt>
      <trkpt lat="45.99086" lon="5.59197">
        <ele>784.4</ele>
        <time>2026-05-10T07:43:16Z</time>
      </trkpt>
      <trkpt lat="45.9908" lon="5.5918">
        <ele>784</ele>
        <time>2026-05-10T07:43:17Z</time>
      </trkpt>
      <trkpt lat="45.99078" lon="5.59171">
        <ele>783.6</ele>
        <time>2026-05-10T07:43:18Z</time>
      </trkpt>
      <trkpt lat="45.99076" lon="5.59161">
        <ele>783.6</ele>
        <time>2026-05-10T07:43:19Z</time>
      </trkpt>
      <trkpt lat="45.99075" lon="5.59151">
        <ele>784</ele>
        <time>2026-05-10T07:43:20Z</time>
      </trkpt>
      <trkpt lat="45.99076" lon="5.59141">
        <ele>784</ele>
        <time>2026-05-10T07:43:21Z</time>
      </trkpt>
      <trkpt lat="45.99076" lon="5.59131">
        <ele>784</ele>
        <time>2026-05-10T07:43:22Z</time>
      </trkpt>
      <trkpt lat="45.99075" lon="5.59122">
        <ele>783.6</ele>
        <time>2026-05-10T07:43:23Z</time>
      </trkpt>
      <trkpt lat="45.99076" lon="5.59111">
        <ele>783.2</ele>
        <time>2026-05-10T07:43:24Z</time>
      </trkpt>
      <trkpt lat="45.99075" lon="5.59102">
        <ele>783</ele>
        <time>2026-05-10T07:43:25Z</time>
      </trkpt>
      <trkpt lat="45.99075" lon="5.59093">
        <ele>783</ele>
        <time>2026-05-10T07:43:26Z</time>
      </trkpt>
      <trkpt lat="45.99075" lon="5.59085">
        <ele>782.8</ele>
        <time>2026-05-10T07:43:27Z</time>
      </trkpt>
      <trkpt lat="45.99076" lon="5.59076">
        <ele>782.8</ele>
        <time>2026-05-10T07:43:28Z</time>
      </trkpt>
      <trkpt lat="45.99077" lon="5.59068">
        <ele>782.4</ele>
        <time>2026-05-10T07:43:29Z</time>
      </trkpt>
      <trkpt lat="45.99079" lon="5.5906">
        <ele>782.4</ele>
        <time>2026-05-10T07:43:30Z</time>
      </trkpt>
      <trkpt lat="45.9908" lon="5.59052">
        <ele>782.4</ele>
        <time>2026-05-10T07:43:31Z</time>
      </trkpt>
      <trkpt lat="45.99082" lon="5.59044">
        <ele>782.8</ele>
        <time>2026-05-10T07:43:32Z</time>
      </trkpt>
      <trkpt lat="45.99083" lon="5.59037">
        <ele>782.8</ele>
        <time>2026-05-10T07:43:33Z</time>
      </trkpt>
      <trkpt lat="45.99085" lon="5.5903">
        <ele>783.2</ele>
        <time>2026-05-10T07:43:34Z</time>
      </trkpt>
      <trkpt lat="45.99086" lon="5.59023">
        <ele>783.2</ele>
        <time>2026-05-10T07:43:35Z</time>
      </trkpt>
      <trkpt lat="45.99088" lon="5.59016">
        <ele>783.2</ele>
        <time>2026-05-10T07:43:36Z</time>
      </trkpt>
      <trkpt lat="45.9909" lon="5.5901">
        <ele>783.8</ele>
        <time>2026-05-10T07:43:37Z</time>
      </trkpt>
      <trkpt lat="45.9909" lon="5.59004">
        <ele>784.2</ele>
        <time>2026-05-10T07:43:38Z</time>
      </trkpt>
      <trkpt lat="45.99091" lon="5.58999">
        <ele>784.6</ele>
        <time>2026-05-10T07:43:39Z</time>
      </trkpt>
      <trkpt lat="45.99093" lon="5.58993">
        <ele>785</ele>
        <time>2026-05-10T07:43:40Z</time>
      </trkpt>
      <trkpt lat="45.99094" lon="5.58988">
        <ele>785.2</ele>
        <time>2026-05-10T07:43:41Z</time>
      </trkpt>
      <trkpt lat="45.99095" lon="5.58983">
        <ele>785.6</ele>
        <time>2026-05-10T07:43:42Z</time>
      </trkpt>
      <trkpt lat="45.99096" lon="5.58979">
        <ele>785.8</ele>
        <time>2026-05-10T07:43:43Z</time>
      </trkpt>
      <trkpt lat="45.99097" lon="5.58974">
        <ele>786</ele>
        <time>2026-05-10T07:43:44Z</time>
      </trkpt>
      <trkpt lat="45.99097" lon="5.5897">
        <ele>786</ele>
        <time>2026-05-10T07:43:45Z</time>
      </trkpt>
      <trkpt lat="45.99098" lon="5.58966">
        <ele>786.6</ele>
        <time>2026-05-10T07:43:46Z</time>
      </trkpt>
      <trkpt lat="45.99099" lon="5.58962">
        <ele>786.6</ele>
        <time>2026-05-10T07:43:47Z</time>
      </trkpt>
      <trkpt lat="45.991" lon="5.58957">
        <ele>786.6</ele>
        <time>2026-05-10T07:43:48Z</time>
      </trkpt>
      <trkpt lat="45.99101" lon="5.58953">
        <ele>786.8</ele>
        <time>2026-05-10T07:43:49Z</time>
      </trkpt>
      <trkpt lat="45.99102" lon="5.58949">
        <ele>787</ele>
        <time>2026-05-10T07:43:50Z</time>
      </trkpt>
      <trkpt lat="45.99103" lon="5.58946">
        <ele>787.4</ele>
        <time>2026-05-10T07:43:51Z</time>
      </trkpt>
      <trkpt lat="45.99104" lon="5.58942">
        <ele>787.4</ele>
        <time>2026-05-10T07:43:52Z</time>
      </trkpt>
      <trkpt lat="45.99106" lon="5.58938">
        <ele>787.6</ele>
        <time>2026-05-10T07:43:53Z</time>
      </trkpt>
      <trkpt lat="45.99108" lon="5.58935">
        <ele>787.6</ele>
        <time>2026-05-10T07:43:54Z</time>
      </trkpt>
      <trkpt lat="45.9911" lon="5.58931">
        <ele>788</ele>
        <time>2026-05-10T07:43:55Z</time>
      </trkpt>
      <trkpt lat="45.99112" lon="5.58928">
        <ele>788</ele>
        <time>2026-05-10T07:43:56Z</time>
      </trkpt>
      <trkpt lat="45.99113" lon="5.58925">
        <ele>788.4</ele>
        <time>2026-05-10T07:43:57Z</time>
      </trkpt>
      <trkpt lat="45.99115" lon="5.58922">
        <ele>788.4</ele>
        <time>2026-05-10T07:43:58Z</time>
      </trkpt>
      <trkpt lat="45.99116" lon="5.5892">
        <ele>788.8</ele>
        <time>2026-05-10T07:43:59Z</time>
      </trkpt>
      <trkpt lat="45.99117" lon="5.58917">
        <ele>789.2</ele>
        <time>2026-05-10T07:44:00Z</time>
      </trkpt>
      <trkpt lat="45.99119" lon="5.58915">
        <ele>789.2</ele>
        <time>2026-05-10T07:44:01Z</time>
      </trkpt>
      <trkpt lat="45.9912" lon="5.58913">
        <ele>789.2</ele>
        <time>2026-05-10T07:44:02Z</time>
      </trkpt>
      <trkpt lat="45.99121" lon="5.58912">
        <ele>789.2</ele>
        <time>2026-05-10T07:44:03Z</time>
      </trkpt>
      <trkpt lat="45.99121" lon="5.58912">
        <ele>789.2</ele>
        <time>2026-05-10T07:44:04Z</time>
      </trkpt>
      <trkpt lat="45.99121" lon="5.58912">
        <ele>789.2</ele>
        <time>2026-05-10T07:44:05Z</time>
      </trkpt>
      <trkpt lat="45.99119" lon="5.58912">
        <ele>789.4</ele>
        <time>2026-05-10T07:52:30Z</time>
      </trkpt>
      <trkpt lat="45.99119" lon="5.58911">
        <ele>789.4</ele>
        <time>2026-05-10T07:52:31Z</time>
      </trkpt>
      <trkpt lat="45.99119" lon="5.58911">
        <ele>789.4</ele>
        <time>2026-05-10T07:52:32Z</time>
      </trkpt>
      <trkpt lat="45.99121" lon="5.58908">
        <ele>789.4</ele>
        <time>2026-05-10T07:52:33Z</time>
      </trkpt>
      <trkpt lat="45.99123" lon="5.58906">
        <ele>789.4</ele>
        <time>2026-05-10T07:52:34Z</time>
      </trkpt>
      <trkpt lat="45.99125" lon="5.58904">
        <ele>789.4</ele>
        <time>2026-05-10T07:52:35Z</time>
      </trkpt>
      <trkpt lat="45.99127" lon="5.58902">
        <ele>789.2</ele>
        <time>2026-05-10T07:52:36Z</time>
      </trkpt>
      <trkpt lat="45.99129" lon="5.589">
        <ele>789.2</ele>
        <time>2026-05-10T07:52:37Z</time>
      </trkpt>
      <trkpt lat="45.99131" lon="5.58898">
        <ele>789.2</ele>
        <time>2026-05-10T07:52:38Z</time>
      </trkpt>
      <trkpt lat="45.99134" lon="5.58896">
        <ele>789.2</ele>
        <time>2026-05-10T07:52:39Z</time>
      </trkpt>
      <trkpt lat="45.99136" lon="5.58893">
        <ele>789.2</ele>
        <time>2026-05-10T07:52:40Z</time>
      </trkpt>
      <trkpt lat="45.99138" lon="5.58891">
        <ele>789.2</ele>
        <time>2026-05-10T07:52:41Z</time>
      </trkpt>
      <trkpt lat="45.9914" lon="5.58887">
        <ele>789.2</ele>
        <time>2026-05-10T07:52:42Z</time>
      </trkpt>
      <trkpt lat="45.99142" lon="5.58884">
        <ele>788.8</ele>
        <time>2026-05-10T07:52:43Z</time>
      </trkpt>
      <trkpt lat="45.99144" lon="5.58881">
        <ele>788.8</ele>
        <time>2026-05-10T07:52:44Z</time>
      </trkpt>
      <trkpt lat="45.99146" lon="5.58878">
        <ele>789.2</ele>
        <time>2026-05-10T07:52:45Z</time>
      </trkpt>
      <trkpt lat="45.99148" lon="5.58874">
        <ele>789.2</ele>
        <time>2026-05-10T07:52:46Z</time>
      </trkpt>
      <trkpt lat="45.9915" lon="5.5887">
        <ele>789.6</ele>
        <time>2026-05-10T07:52:47Z</time>
      </trkpt>
      <trkpt lat="45.99152" lon="5.58866">
        <ele>789.8</ele>
        <time>2026-05-10T07:52:48Z</time>
      </trkpt>
      <trkpt lat="45.99154" lon="5.58862">
        <ele>789.6</ele>
        <time>2026-05-10T07:52:49Z</time>
      </trkpt>
      <trkpt lat="45.99157" lon="5.58858">
        <ele>789.6</ele>
        <time>2026-05-10T07:52:50Z</time>
      </trkpt>
      <trkpt lat="45.99159" lon="5.58855">
        <ele>789.4</ele>
        <time>2026-05-10T07:52:51Z</time>
      </trkpt>
      <trkpt lat="45.99162" lon="5.58851">
        <ele>789.4</ele>
        <time>2026-05-10T07:52:52Z</time>
      </trkpt>
      <trkpt lat="45.99164" lon="5.58848">
        <ele>789.4</ele>
        <time>2026-05-10T07:52:53Z</time>
      </trkpt>
      <trkpt lat="45.99166" lon="5.58844">
        <ele>789.4</ele>
        <time>2026-05-10T07:52:54Z</time>
      </trkpt>
      <trkpt lat="45.99169" lon="5.58839">
        <ele>789.4</ele>
        <time>2026-05-10T07:52:55Z</time>
      </trkpt>
      <trkpt lat="45.99171" lon="5.58836">
        <ele>789.4</ele>
        <time>2026-05-10T07:52:56Z</time>
      </trkpt>
      <trkpt lat="45.99173" lon="5.58833">
        <ele>789</ele>
        <time>2026-05-10T07:52:57Z</time>
      </trkpt>
      <trkpt lat="45.99175" lon="5.58829">
        <ele>789</ele>
        <time>2026-05-10T07:52:58Z</time>
      </trkpt>
      <trkpt lat="45.99177" lon="5.58826">
        <ele>789.4</ele>
        <time>2026-05-10T07:52:59Z</time>
      </trkpt>
      <trkpt lat="45.99179" lon="5.58822">
        <ele>789.4</ele>
        <time>2026-05-10T07:53:00Z</time>
      </trkpt>
      <trkpt lat="45.99181" lon="5.58818">
        <ele>789.8</ele>
        <time>2026-05-10T07:53:01Z</time>
      </trkpt>
      <trkpt lat="45.99183" lon="5.58814">
        <ele>790</ele>
        <time>2026-05-10T07:53:02Z</time>
      </trkpt>
      <trkpt lat="45.99185" lon="5.58811">
        <ele>789.6</ele>
        <time>2026-05-10T07:53:03Z</time>
      </trkpt>
      <trkpt lat="45.99187" lon="5.58806">
        <ele>789.6</ele>
        <time>2026-05-10T07:53:04Z</time>
      </trkpt>
      <trkpt lat="45.9919" lon="5.58802">
        <ele>790.2</ele>
        <time>2026-05-10T07:53:05Z</time>
      </trkpt>
      <trkpt lat="45.99193" lon="5.58797">
        <ele>789.8</ele>
        <time>2026-05-10T07:53:06Z</time>
      </trkpt>
      <trkpt lat="45.99195" lon="5.58793">
        <ele>789.8</ele>
        <time>2026-05-10T07:53:07Z</time>
      </trkpt>
      <trkpt lat="45.99197" lon="5.58789">
        <ele>789.8</ele>
        <time>2026-05-10T07:53:08Z</time>
      </trkpt>
      <trkpt lat="45.99199" lon="5.58784">
        <ele>789.8</ele>
        <time>2026-05-10T07:53:09Z</time>
      </trkpt>
      <trkpt lat="45.99202" lon="5.58779">
        <ele>789.8</ele>
        <time>2026-05-10T07:53:10Z</time>
      </trkpt>
      <trkpt lat="45.99204" lon="5.58774">
        <ele>789.8</ele>
        <time>2026-05-10T07:53:11Z</time>
      </trkpt>
      <trkpt lat="45.99206" lon="5.58769">
        <ele>789</ele>
        <time>2026-05-10T07:53:12Z</time>
      </trkpt>
      <trkpt lat="45.99208" lon="5.58765">
        <ele>789</ele>
        <time>2026-05-10T07:53:13Z</time>
      </trkpt>
      <trkpt lat="45.99211" lon="5.5876">
        <ele>789</ele>
        <time>2026-05-10T07:53:14Z</time>
      </trkpt>
      <trkpt lat="45.99211" lon="5.5876">
        <ele>789.4</ele>
        <time>2026-05-10T07:53:15Z</time>
      </trkpt>
      <trkpt lat="45.99213" lon="5.58756">
        <ele>789.4</ele>
        <time>2026-05-10T07:53:16Z</time>
      </trkpt>
      <trkpt lat="45.99216" lon="5.58752">
        <ele>789.4</ele>
        <time>2026-05-10T07:53:17Z</time>
      </trkpt>
      <trkpt lat="45.99219" lon="5.58747">
        <ele>789.4</ele>
        <time>2026-05-10T07:53:18Z</time>
      </trkpt>
      <trkpt lat="45.99221" lon="5.58743">
        <ele>789.6</ele>
        <time>2026-05-10T07:53:19Z</time>
      </trkpt>
      <trkpt lat="45.99224" lon="5.58739">
        <ele>789.2</ele>
        <time>2026-05-10T07:53:20Z</time>
      </trkpt>
      <trkpt lat="45.99226" lon="5.58734">
        <ele>789.4</ele>
        <time>2026-05-10T07:53:21Z</time>
      </trkpt>
      <trkpt lat="45.99228" lon="5.5873">
        <ele>789.2</ele>
        <time>2026-05-10T07:53:22Z</time>
      </trkpt>
      <trkpt lat="45.99231" lon="5.58726">
        <ele>789.2</ele>
        <time>2026-05-10T07:53:23Z</time>
      </trkpt>
      <trkpt lat="45.99233" lon="5.58722">
        <ele>789.4</ele>
        <time>2026-05-10T07:53:24Z</time>
      </trkpt>
      <trkpt lat="45.99236" lon="5.58718">
        <ele>789.4</ele>
        <time>2026-05-10T07:53:25Z</time>
      </trkpt>
      <trkpt lat="45.99238" lon="5.58714">
        <ele>789.4</ele>
        <time>2026-05-10T07:53:26Z</time>
      </trkpt>
      <trkpt lat="45.99241" lon="5.5871">
        <ele>789.4</ele>
        <time>2026-05-10T07:53:27Z</time>
      </trkpt>
      <trkpt lat="45.99244" lon="5.58705">
        <ele>789.4</ele>
        <time>2026-05-10T07:53:28Z</time>
      </trkpt>
      <trkpt lat="45.99246" lon="5.58701">
        <ele>789.4</ele>
        <time>2026-05-10T07:53:29Z</time>
      </trkpt>
      <trkpt lat="45.99248" lon="5.58698">
        <ele>789.8</ele>
        <time>2026-05-10T07:53:30Z</time>
      </trkpt>
      <trkpt lat="45.9925" lon="5.58694">
        <ele>789.8</ele>
        <time>2026-05-10T07:53:31Z</time>
      </trkpt>
      <trkpt lat="45.99252" lon="5.58689">
        <ele>789.8</ele>
        <time>2026-05-10T07:53:32Z</time>
      </trkpt>
      <trkpt lat="45.99254" lon="5.58685">
        <ele>789.8</ele>
        <time>2026-05-10T07:53:33Z</time>
      </trkpt>
      <trkpt lat="45.99256" lon="5.5868">
        <ele>789.8</ele>
        <time>2026-05-10T07:53:34Z</time>
      </trkpt>
      <trkpt lat="45.99258" lon="5.58675">
        <ele>790.2</ele>
        <time>2026-05-10T07:53:35Z</time>
      </trkpt>
      <trkpt lat="45.9926" lon="5.58669">
        <ele>790.6</ele>
        <time>2026-05-10T07:53:36Z</time>
      </trkpt>
      <trkpt lat="45.99261" lon="5.58664">
        <ele>790.6</ele>
        <time>2026-05-10T07:53:37Z</time>
      </trkpt>
      <trkpt lat="45.99263" lon="5.58658">
        <ele>790.2</ele>
        <time>2026-05-10T07:53:38Z</time>
      </trkpt>
      <trkpt lat="45.99264" lon="5.58652">
        <ele>790.2</ele>
        <time>2026-05-10T07:53:39Z</time>
      </trkpt>
      <trkpt lat="45.99265" lon="5.58647">
        <ele>790.6</ele>
        <time>2026-05-10T07:53:40Z</time>
      </trkpt>
      <trkpt lat="45.99267" lon="5.58641">
        <ele>790.6</ele>
        <time>2026-05-10T07:53:41Z</time>
      </trkpt>
      <trkpt lat="45.99268" lon="5.58636">
        <ele>790.2</ele>
        <time>2026-05-10T07:53:42Z</time>
      </trkpt>
      <trkpt lat="45.99269" lon="5.58631">
        <ele>790.2</ele>
        <time>2026-05-10T07:53:43Z</time>
      </trkpt>
      <trkpt lat="45.9927" lon="5.58625">
        <ele>790.2</ele>
        <time>2026-05-10T07:53:44Z</time>
      </trkpt>
      <trkpt lat="45.99272" lon="5.5862">
        <ele>790.2</ele>
        <time>2026-05-10T07:53:45Z</time>
      </trkpt>
      <trkpt lat="45.99274" lon="5.58615">
        <ele>789.8</ele>
        <time>2026-05-10T07:53:46Z</time>
      </trkpt>
      <trkpt lat="45.99277" lon="5.58609">
        <ele>789.8</ele>
        <time>2026-05-10T07:53:47Z</time>
      </trkpt>
      <trkpt lat="45.99278" lon="5.58603">
        <ele>789.8</ele>
        <time>2026-05-10T07:53:48Z</time>
      </trkpt>
      <trkpt lat="45.99279" lon="5.58598">
        <ele>789.8</ele>
        <time>2026-05-10T07:53:49Z</time>
      </trkpt>
      <trkpt lat="45.99281" lon="5.58593">
        <ele>790.2</ele>
        <time>2026-05-10T07:53:50Z</time>
      </trkpt>
      <trkpt lat="45.99283" lon="5.58589">
        <ele>790.2</ele>
        <time>2026-05-10T07:53:51Z</time>
      </trkpt>
      <trkpt lat="45.99285" lon="5.58583">
        <ele>790.2</ele>
        <time>2026-05-10T07:53:52Z</time>
      </trkpt>
      <trkpt lat="45.99287" lon="5.58578">
        <ele>790.2</ele>
        <time>2026-05-10T07:53:53Z</time>
      </trkpt>
      <trkpt lat="45.9929" lon="5.58574">
        <ele>790.6</ele>
        <time>2026-05-10T07:53:54Z</time>
      </trkpt>
      <trkpt lat="45.99293" lon="5.58568">
        <ele>790.2</ele>
        <time>2026-05-10T07:53:55Z</time>
      </trkpt>
      <trkpt lat="45.99296" lon="5.58564">
        <ele>790</ele>
        <time>2026-05-10T07:53:56Z</time>
      </trkpt>
      <trkpt lat="45.99299" lon="5.58559">
        <ele>789.6</ele>
        <time>2026-05-10T07:53:57Z</time>
      </trkpt>
      <trkpt lat="45.99304" lon="5.58555">
        <ele>790.2</ele>
        <time>2026-05-10T07:53:58Z</time>
      </trkpt>
      <trkpt lat="45.99308" lon="5.5855">
        <ele>790.2</ele>
        <time>2026-05-10T07:53:59Z</time>
      </trkpt>
      <trkpt lat="45.99312" lon="5.58546">
        <ele>790.2</ele>
        <time>2026-05-10T07:54:00Z</time>
      </trkpt>
      <trkpt lat="45.99316" lon="5.58542">
        <ele>790.2</ele>
        <time>2026-05-10T07:54:01Z</time>
      </trkpt>
      <trkpt lat="45.9932" lon="5.58539">
        <ele>790.2</ele>
        <time>2026-05-10T07:54:02Z</time>
      </trkpt>
      <trkpt lat="45.99322" lon="5.58535">
        <ele>790.2</ele>
        <time>2026-05-10T07:54:03Z</time>
      </trkpt>
      <trkpt lat="45.99326" lon="5.5853">
        <ele>790.4</ele>
        <time>2026-05-10T07:54:04Z</time>
      </trkpt>
      <trkpt lat="45.99329" lon="5.58526">
        <ele>790.4</ele>
        <time>2026-05-10T07:54:05Z</time>
      </trkpt>
      <trkpt lat="45.99332" lon="5.58522">
        <ele>790.6</ele>
        <time>2026-05-10T07:54:06Z</time>
      </trkpt>
      <trkpt lat="45.99335" lon="5.58517">
        <ele>790.4</ele>
        <time>2026-05-10T07:54:07Z</time>
      </trkpt>
      <trkpt lat="45.99337" lon="5.58512">
        <ele>790.4</ele>
        <time>2026-05-10T07:54:08Z</time>
      </trkpt>
      <trkpt lat="45.9934" lon="5.58508">
        <ele>790.6</ele>
        <time>2026-05-10T07:54:09Z</time>
      </trkpt>
      <trkpt lat="45.99343" lon="5.58503">
        <ele>790.6</ele>
        <time>2026-05-10T07:54:10Z</time>
      </trkpt>
      <trkpt lat="45.99345" lon="5.58499">
        <ele>790.6</ele>
        <time>2026-05-10T07:54:11Z</time>
      </trkpt>
      <trkpt lat="45.99347" lon="5.58495">
        <ele>791.2</ele>
        <time>2026-05-10T07:54:12Z</time>
      </trkpt>
      <trkpt lat="45.9935" lon="5.5849">
        <ele>791.2</ele>
        <time>2026-05-10T07:54:13Z</time>
      </trkpt>
      <trkpt lat="45.99352" lon="5.58485">
        <ele>791.6</ele>
        <time>2026-05-10T07:54:14Z</time>
      </trkpt>
      <trkpt lat="45.99355" lon="5.58481">
        <ele>792</ele>
        <time>2026-05-10T07:54:15Z</time>
      </trkpt>
      <trkpt lat="45.99356" lon="5.58478">
        <ele>792</ele>
        <time>2026-05-10T07:54:16Z</time>
      </trkpt>
      <trkpt lat="45.99359" lon="5.58474">
        <ele>792</ele>
        <time>2026-05-10T07:54:17Z</time>
      </trkpt>
      <trkpt lat="45.99362" lon="5.58471">
        <ele>792</ele>
        <time>2026-05-10T07:54:18Z</time>
      </trkpt>
      <trkpt lat="45.99364" lon="5.58467">
        <ele>791.6</ele>
        <time>2026-05-10T07:54:19Z</time>
      </trkpt>
      <trkpt lat="45.99367" lon="5.58464">
        <ele>791.6</ele>
        <time>2026-05-10T07:54:20Z</time>
      </trkpt>
      <trkpt lat="45.9937" lon="5.58461">
        <ele>792</ele>
        <time>2026-05-10T07:54:21Z</time>
      </trkpt>
      <trkpt lat="45.99374" lon="5.58458">
        <ele>792</ele>
        <time>2026-05-10T07:54:22Z</time>
      </trkpt>
      <trkpt lat="45.99377" lon="5.58456">
        <ele>792</ele>
        <time>2026-05-10T07:54:23Z</time>
      </trkpt>
      <trkpt lat="45.9938" lon="5.58453">
        <ele>791.8</ele>
        <time>2026-05-10T07:54:24Z</time>
      </trkpt>
      <trkpt lat="45.99384" lon="5.58451">
        <ele>791.8</ele>
        <time>2026-05-10T07:54:25Z</time>
      </trkpt>
      <trkpt lat="45.99387" lon="5.5845">
        <ele>792</ele>
        <time>2026-05-10T07:54:26Z</time>
      </trkpt>
      <trkpt lat="45.99391" lon="5.58448">
        <ele>792</ele>
        <time>2026-05-10T07:54:27Z</time>
      </trkpt>
      <trkpt lat="45.99394" lon="5.58446">
        <ele>792.4</ele>
        <time>2026-05-10T07:54:28Z</time>
      </trkpt>
      <trkpt lat="45.99398" lon="5.58445">
        <ele>792.8</ele>
        <time>2026-05-10T07:54:29Z</time>
      </trkpt>
      <trkpt lat="45.994" lon="5.58443">
        <ele>792.8</ele>
        <time>2026-05-10T07:54:30Z</time>
      </trkpt>
      <trkpt lat="45.99404" lon="5.58442">
        <ele>792.8</ele>
        <time>2026-05-10T07:54:31Z</time>
      </trkpt>
      <trkpt lat="45.99408" lon="5.5844">
        <ele>792.4</ele>
        <time>2026-05-10T07:54:32Z</time>
      </trkpt>
      <trkpt lat="45.99412" lon="5.58439">
        <ele>792.4</ele>
        <time>2026-05-10T07:54:33Z</time>
      </trkpt>
      <trkpt lat="45.99416" lon="5.58438">
        <ele>792.4</ele>
        <time>2026-05-10T07:54:34Z</time>
      </trkpt>
      <trkpt lat="45.9942" lon="5.58437">
        <ele>792.2</ele>
        <time>2026-05-10T07:54:35Z</time>
      </trkpt>
      <trkpt lat="45.99424" lon="5.58436">
        <ele>792.4</ele>
        <time>2026-05-10T07:54:36Z</time>
      </trkpt>
      <trkpt lat="45.99428" lon="5.58435">
        <ele>793.2</ele>
        <time>2026-05-10T07:54:37Z</time>
      </trkpt>
      <trkpt lat="45.99432" lon="5.58435">
        <ele>793.2</ele>
        <time>2026-05-10T07:54:38Z</time>
      </trkpt>
      <trkpt lat="45.99435" lon="5.58435">
        <ele>793.2</ele>
        <time>2026-05-10T07:54:39Z</time>
      </trkpt>
      <trkpt lat="45.99439" lon="5.58434">
        <ele>793.2</ele>
        <time>2026-05-10T07:54:40Z</time>
      </trkpt>
      <trkpt lat="45.99443" lon="5.58434">
        <ele>793.4</ele>
        <time>2026-05-10T07:54:41Z</time>
      </trkpt>
      <trkpt lat="45.99447" lon="5.58434">
        <ele>793.4</ele>
        <time>2026-05-10T07:54:42Z</time>
      </trkpt>
      <trkpt lat="45.99451" lon="5.58434">
        <ele>793.8</ele>
        <time>2026-05-10T07:54:43Z</time>
      </trkpt>
      <trkpt lat="45.99455" lon="5.58433">
        <ele>793.8</ele>
        <time>2026-05-10T07:54:44Z</time>
      </trkpt>
      <trkpt lat="45.99458" lon="5.58432">
        <ele>794.4</ele>
        <time>2026-05-10T07:54:45Z</time>
      </trkpt>
      <trkpt lat="45.99462" lon="5.58431">
        <ele>794.4</ele>
        <time>2026-05-10T07:54:46Z</time>
      </trkpt>
      <trkpt lat="45.99466" lon="5.58429">
        <ele>793.4</ele>
        <time>2026-05-10T07:54:47Z</time>
      </trkpt>
      <trkpt lat="45.9947" lon="5.58427">
        <ele>793.4</ele>
        <time>2026-05-10T07:54:48Z</time>
      </trkpt>
      <trkpt lat="45.99474" lon="5.58425">
        <ele>793.8</ele>
        <time>2026-05-10T07:54:49Z</time>
      </trkpt>
      <trkpt lat="45.99477" lon="5.58422">
        <ele>793.8</ele>
        <time>2026-05-10T07:54:50Z</time>
      </trkpt>
      <trkpt lat="45.99481" lon="5.58419">
        <ele>793.8</ele>
        <time>2026-05-10T07:54:51Z</time>
      </trkpt>
      <trkpt lat="45.99485" lon="5.58416">
        <ele>793.8</ele>
        <time>2026-05-10T07:54:52Z</time>
      </trkpt>
      <trkpt lat="45.99488" lon="5.58413">
        <ele>793.8</ele>
        <time>2026-05-10T07:54:53Z</time>
      </trkpt>
      <trkpt lat="45.99491" lon="5.58409">
        <ele>794.8</ele>
        <time>2026-05-10T07:54:54Z</time>
      </trkpt>
      <trkpt lat="45.99493" lon="5.58406">
        <ele>794.6</ele>
        <time>2026-05-10T07:54:55Z</time>
      </trkpt>
      <trkpt lat="45.99495" lon="5.58403">
        <ele>794.6</ele>
        <time>2026-05-10T07:54:56Z</time>
      </trkpt>
      <trkpt lat="45.99497" lon="5.58399">
        <ele>794.8</ele>
        <time>2026-05-10T07:54:57Z</time>
      </trkpt>
      <trkpt lat="45.99499" lon="5.58395">
        <ele>794.8</ele>
        <time>2026-05-10T07:54:58Z</time>
      </trkpt>
      <trkpt lat="45.99501" lon="5.58391">
        <ele>795</ele>
        <time>2026-05-10T07:54:59Z</time>
      </trkpt>
      <trkpt lat="45.99502" lon="5.58387">
        <ele>795</ele>
        <time>2026-05-10T07:55:00Z</time>
      </trkpt>
      <trkpt lat="45.99504" lon="5.58382">
        <ele>795.4</ele>
        <time>2026-05-10T07:55:01Z</time>
      </trkpt>
      <trkpt lat="45.99504" lon="5.58378">
        <ele>795.4</ele>
        <time>2026-05-10T07:55:02Z</time>
      </trkpt>
      <trkpt lat="45.99505" lon="5.58374">
        <ele>795.6</ele>
        <time>2026-05-10T07:55:03Z</time>
      </trkpt>
      <trkpt lat="45.99505" lon="5.5837">
        <ele>795.8</ele>
        <time>2026-05-10T07:55:04Z</time>
      </trkpt>
      <trkpt lat="45.99505" lon="5.58366">
        <ele>795.6</ele>
        <time>2026-05-10T07:55:05Z</time>
      </trkpt>
      <trkpt lat="45.99506" lon="5.58362">
        <ele>796</ele>
        <time>2026-05-10T07:55:06Z</time>
      </trkpt>
      <trkpt lat="45.99507" lon="5.58358">
        <ele>796.6</ele>
        <time>2026-05-10T07:55:07Z</time>
      </trkpt>
      <trkpt lat="45.99508" lon="5.58355">
        <ele>796.8</ele>
        <time>2026-05-10T07:55:08Z</time>
      </trkpt>
      <trkpt lat="45.99509" lon="5.58352">
        <ele>797</ele>
        <time>2026-05-10T07:55:09Z</time>
      </trkpt>
      <trkpt lat="45.9951" lon="5.58348">
        <ele>797</ele>
        <time>2026-05-10T07:55:10Z</time>
      </trkpt>
      <trkpt lat="45.99511" lon="5.58345">
        <ele>797.4</ele>
        <time>2026-05-10T07:55:11Z</time>
      </trkpt>
      <trkpt lat="45.99511" lon="5.58342">
        <ele>797.6</ele>
        <time>2026-05-10T07:55:12Z</time>
      </trkpt>
      <trkpt lat="45.99512" lon="5.58339">
        <ele>798</ele>
        <time>2026-05-10T07:55:13Z</time>
      </trkpt>
      <trkpt lat="45.99513" lon="5.58335">
        <ele>798</ele>
        <time>2026-05-10T07:55:14Z</time>
      </trkpt>
      <trkpt lat="45.99514" lon="5.58332">
        <ele>798</ele>
        <time>2026-05-10T07:55:15Z</time>
      </trkpt>
      <trkpt lat="45.99517" lon="5.58328">
        <ele>798</ele>
        <time>2026-05-10T07:55:16Z</time>
      </trkpt>
      <trkpt lat="45.99519" lon="5.58325">
        <ele>798</ele>
        <time>2026-05-10T07:55:17Z</time>
      </trkpt>
      <trkpt lat="45.99522" lon="5.58321">
        <ele>798</ele>
        <time>2026-05-10T07:55:18Z</time>
      </trkpt>
      <trkpt lat="45.99525" lon="5.58317">
        <ele>798</ele>
        <time>2026-05-10T07:55:19Z</time>
      </trkpt>
      <trkpt lat="45.99528" lon="5.58313">
        <ele>797.4</ele>
        <time>2026-05-10T07:55:20Z</time>
      </trkpt>
      <trkpt lat="45.99531" lon="5.58309">
        <ele>797.4</ele>
        <time>2026-05-10T07:55:21Z</time>
      </trkpt>
      <trkpt lat="45.99534" lon="5.58304">
        <ele>797.4</ele>
        <time>2026-05-10T07:55:22Z</time>
      </trkpt>
      <trkpt lat="45.99537" lon="5.58301">
        <ele>797.4</ele>
        <time>2026-05-10T07:55:23Z</time>
      </trkpt>
      <trkpt lat="45.9954" lon="5.58297">
        <ele>797</ele>
        <time>2026-05-10T07:55:24Z</time>
      </trkpt>
      <trkpt lat="45.99543" lon="5.58294">
        <ele>797.2</ele>
        <time>2026-05-10T07:55:25Z</time>
      </trkpt>
      <trkpt lat="45.99546" lon="5.5829">
        <ele>797.2</ele>
        <time>2026-05-10T07:55:26Z</time>
      </trkpt>
      <trkpt lat="45.99549" lon="5.58286">
        <ele>796.8</ele>
        <time>2026-05-10T07:55:27Z</time>
      </trkpt>
      <trkpt lat="45.99553" lon="5.58284">
        <ele>796.8</ele>
        <time>2026-05-10T07:55:28Z</time>
      </trkpt>
      <trkpt lat="45.99556" lon="5.5828">
        <ele>796.8</ele>
        <time>2026-05-10T07:55:29Z</time>
      </trkpt>
      <trkpt lat="45.99559" lon="5.58278">
        <ele>797</ele>
        <time>2026-05-10T07:55:30Z</time>
      </trkpt>
      <trkpt lat="45.99563" lon="5.58274">
        <ele>797</ele>
        <time>2026-05-10T07:55:31Z</time>
      </trkpt>
      <trkpt lat="45.99565" lon="5.58272">
        <ele>797.4</ele>
        <time>2026-05-10T07:55:32Z</time>
      </trkpt>
      <trkpt lat="45.99568" lon="5.58267">
        <ele>797.4</ele>
        <time>2026-05-10T07:55:33Z</time>
      </trkpt>
      <trkpt lat="45.99569" lon="5.58264">
        <ele>797.4</ele>
        <time>2026-05-10T07:55:34Z</time>
      </trkpt>
      <trkpt lat="45.99572" lon="5.58259">
        <ele>797.4</ele>
        <time>2026-05-10T07:55:35Z</time>
      </trkpt>
      <trkpt lat="45.99573" lon="5.58254">
        <ele>797.8</ele>
        <time>2026-05-10T07:55:36Z</time>
      </trkpt>
      <trkpt lat="45.99576" lon="5.58249">
        <ele>797.8</ele>
        <time>2026-05-10T07:55:37Z</time>
      </trkpt>
      <trkpt lat="45.9958" lon="5.58245">
        <ele>797.8</ele>
        <time>2026-05-10T07:55:38Z</time>
      </trkpt>
      <trkpt lat="45.99582" lon="5.58241">
        <ele>798.4</ele>
        <time>2026-05-10T07:55:39Z</time>
      </trkpt>
      <trkpt lat="45.99584" lon="5.58236">
        <ele>798.8</ele>
        <time>2026-05-10T07:55:40Z</time>
      </trkpt>
      <trkpt lat="45.99586" lon="5.58231">
        <ele>798.6</ele>
        <time>2026-05-10T07:55:41Z</time>
      </trkpt>
      <trkpt lat="45.99587" lon="5.58226">
        <ele>798.6</ele>
        <time>2026-05-10T07:55:42Z</time>
      </trkpt>
      <trkpt lat="45.99589" lon="5.58217">
        <ele>798.6</ele>
        <time>2026-05-10T07:55:43Z</time>
      </trkpt>
      <trkpt lat="45.9959" lon="5.58211">
        <ele>798.6</ele>
        <time>2026-05-10T07:55:44Z</time>
      </trkpt>
      <trkpt lat="45.99591" lon="5.58205">
        <ele>798.8</ele>
        <time>2026-05-10T07:55:45Z</time>
      </trkpt>
      <trkpt lat="45.99592" lon="5.582">
        <ele>798.8</ele>
        <time>2026-05-10T07:55:46Z</time>
      </trkpt>
      <trkpt lat="45.99594" lon="5.58195">
        <ele>798.8</ele>
        <time>2026-05-10T07:55:47Z</time>
      </trkpt>
      <trkpt lat="45.99595" lon="5.58191">
        <ele>798.8</ele>
        <time>2026-05-10T07:55:48Z</time>
      </trkpt>
      <trkpt lat="45.99597" lon="5.58187">
        <ele>798.8</ele>
        <time>2026-05-10T07:55:49Z</time>
      </trkpt>
      <trkpt lat="45.99598" lon="5.58184">
        <ele>798.8</ele>
        <time>2026-05-10T07:55:50Z</time>
      </trkpt>
      <trkpt lat="45.99599" lon="5.5818">
        <ele>799</ele>
        <time>2026-05-10T07:55:51Z</time>
      </trkpt>
      <trkpt lat="45.99601" lon="5.58176">
        <ele>799</ele>
        <time>2026-05-10T07:55:52Z</time>
      </trkpt>
      <trkpt lat="45.99602" lon="5.58172">
        <ele>799.4</ele>
        <time>2026-05-10T07:55:53Z</time>
      </trkpt>
      <trkpt lat="45.99603" lon="5.58168">
        <ele>799.8</ele>
        <time>2026-05-10T07:55:54Z</time>
      </trkpt>
      <trkpt lat="45.99604" lon="5.58164">
        <ele>800.2</ele>
        <time>2026-05-10T07:55:55Z</time>
      </trkpt>
      <trkpt lat="45.99604" lon="5.58159">
        <ele>800.6</ele>
        <time>2026-05-10T07:55:56Z</time>
      </trkpt>
      <trkpt lat="45.99605" lon="5.58153">
        <ele>800.6</ele>
        <time>2026-05-10T07:55:57Z</time>
      </trkpt>
      <trkpt lat="45.99607" lon="5.58149">
        <ele>800.6</ele>
        <time>2026-05-10T07:55:58Z</time>
      </trkpt>
      <trkpt lat="45.9961" lon="5.58144">
        <ele>800.6</ele>
        <time>2026-05-10T07:55:59Z</time>
      </trkpt>
      <trkpt lat="45.99612" lon="5.5814">
        <ele>800.8</ele>
        <time>2026-05-10T07:56:00Z</time>
      </trkpt>
      <trkpt lat="45.99613" lon="5.58136">
        <ele>800.8</ele>
        <time>2026-05-10T07:56:01Z</time>
      </trkpt>
      <trkpt lat="45.99614" lon="5.58131">
        <ele>801</ele>
        <time>2026-05-10T07:56:02Z</time>
      </trkpt>
      <trkpt lat="45.99615" lon="5.58126">
        <ele>801</ele>
        <time>2026-05-10T07:56:03Z</time>
      </trkpt>
      <trkpt lat="45.99616" lon="5.58122">
        <ele>801</ele>
        <time>2026-05-10T07:56:04Z</time>
      </trkpt>
      <trkpt lat="45.99617" lon="5.58117">
        <ele>801.4</ele>
        <time>2026-05-10T07:56:05Z</time>
      </trkpt>
      <trkpt lat="45.99618" lon="5.58112">
        <ele>801.4</ele>
        <time>2026-05-10T07:56:06Z</time>
      </trkpt>
      <trkpt lat="45.99618" lon="5.58106">
        <ele>801.4</ele>
        <time>2026-05-10T07:56:07Z</time>
      </trkpt>
      <trkpt lat="45.99617" lon="5.58102">
        <ele>801.6</ele>
        <time>2026-05-10T07:56:08Z</time>
      </trkpt>
      <trkpt lat="45.99617" lon="5.58098">
        <ele>801.6</ele>
        <time>2026-05-10T07:56:09Z</time>
      </trkpt>
      <trkpt lat="45.99617" lon="5.58093">
        <ele>801.8</ele>
        <time>2026-05-10T07:56:10Z</time>
      </trkpt>
      <trkpt lat="45.99616" lon="5.58089">
        <ele>801.8</ele>
        <time>2026-05-10T07:56:11Z</time>
      </trkpt>
      <trkpt lat="45.99615" lon="5.58085">
        <ele>802.2</ele>
        <time>2026-05-10T07:56:12Z</time>
      </trkpt>
      <trkpt lat="45.99615" lon="5.5808">
        <ele>802.2</ele>
        <time>2026-05-10T07:56:13Z</time>
      </trkpt>
      <trkpt lat="45.99615" lon="5.58076">
        <ele>802.4</ele>
        <time>2026-05-10T07:56:14Z</time>
      </trkpt>
      <trkpt lat="45.99615" lon="5.58071">
        <ele>802.4</ele>
        <time>2026-05-10T07:56:15Z</time>
      </trkpt>
      <trkpt lat="45.99615" lon="5.58067">
        <ele>802.4</ele>
        <time>2026-05-10T07:56:16Z</time>
      </trkpt>
      <trkpt lat="45.99616" lon="5.58062">
        <ele>802.8</ele>
        <time>2026-05-10T07:56:17Z</time>
      </trkpt>
      <trkpt lat="45.99616" lon="5.58057">
        <ele>803</ele>
        <time>2026-05-10T07:56:18Z</time>
      </trkpt>
      <trkpt lat="45.99617" lon="5.58052">
        <ele>803.4</ele>
        <time>2026-05-10T07:56:19Z</time>
      </trkpt>
      <trkpt lat="45.99616" lon="5.58047">
        <ele>803.4</ele>
        <time>2026-05-10T07:56:20Z</time>
      </trkpt>
      <trkpt lat="45.99615" lon="5.58043">
        <ele>803.4</ele>
        <time>2026-05-10T07:56:21Z</time>
      </trkpt>
      <trkpt lat="45.99615" lon="5.58039">
        <ele>803.8</ele>
        <time>2026-05-10T07:56:22Z</time>
      </trkpt>
      <trkpt lat="45.99615" lon="5.58034">
        <ele>803.8</ele>
        <time>2026-05-10T07:56:23Z</time>
      </trkpt>
      <trkpt lat="45.99615" lon="5.5803">
        <ele>803.8</ele>
        <time>2026-05-10T07:56:24Z</time>
      </trkpt>
      <trkpt lat="45.99615" lon="5.58025">
        <ele>803.8</ele>
        <time>2026-05-10T07:56:25Z</time>
      </trkpt>
      <trkpt lat="45.99614" lon="5.5802">
        <ele>804.2</ele>
        <time>2026-05-10T07:56:26Z</time>
      </trkpt>
      <trkpt lat="45.99614" lon="5.58015">
        <ele>804.2</ele>
        <time>2026-05-10T07:56:27Z</time>
      </trkpt>
      <trkpt lat="45.99614" lon="5.58015">
        <ele>804.2</ele>
        <time>2026-05-10T07:56:28Z</time>
      </trkpt>
      <trkpt lat="45.99614" lon="5.5801">
        <ele>804.2</ele>
        <time>2026-05-10T07:56:29Z</time>
      </trkpt>
      <trkpt lat="45.99616" lon="5.58004">
        <ele>804.4</ele>
        <time>2026-05-10T07:56:30Z</time>
      </trkpt>
      <trkpt lat="45.99616" lon="5.57998">
        <ele>804.4</ele>
        <time>2026-05-10T07:56:31Z</time>
      </trkpt>
      <trkpt lat="45.99617" lon="5.57992">
        <ele>804.4</ele>
        <time>2026-05-10T07:56:32Z</time>
      </trkpt>
      <trkpt lat="45.99617" lon="5.57987">
        <ele>804.4</ele>
        <time>2026-05-10T07:56:33Z</time>
      </trkpt>
      <trkpt lat="45.99617" lon="5.57982">
        <ele>804.4</ele>
        <time>2026-05-10T07:56:34Z</time>
      </trkpt>
      <trkpt lat="45.99618" lon="5.57977">
        <ele>804.8</ele>
        <time>2026-05-10T07:56:35Z</time>
      </trkpt>
      <trkpt lat="45.99619" lon="5.57971">
        <ele>804.6</ele>
        <time>2026-05-10T07:56:36Z</time>
      </trkpt>
      <trkpt lat="45.9962" lon="5.57966">
        <ele>804.8</ele>
        <time>2026-05-10T07:56:37Z</time>
      </trkpt>
      <trkpt lat="45.9962" lon="5.57962">
        <ele>804.8</ele>
        <time>2026-05-10T07:56:38Z</time>
      </trkpt>
      <trkpt lat="45.99621" lon="5.57956">
        <ele>804.4</ele>
        <time>2026-05-10T07:56:39Z</time>
      </trkpt>
      <trkpt lat="45.99621" lon="5.57951">
        <ele>804.8</ele>
        <time>2026-05-10T07:56:40Z</time>
      </trkpt>
      <trkpt lat="45.99621" lon="5.57946">
        <ele>804.8</ele>
        <time>2026-05-10T07:56:41Z</time>
      </trkpt>
      <trkpt lat="45.99621" lon="5.57941">
        <ele>804.8</ele>
        <time>2026-05-10T07:56:42Z</time>
      </trkpt>
      <trkpt lat="45.9962" lon="5.57936">
        <ele>804.8</ele>
        <time>2026-05-10T07:56:43Z</time>
      </trkpt>
      <trkpt lat="45.9962" lon="5.57932">
        <ele>805</ele>
        <time>2026-05-10T07:56:44Z</time>
      </trkpt>
      <trkpt lat="45.9962" lon="5.57927">
        <ele>805</ele>
        <time>2026-05-10T07:56:45Z</time>
      </trkpt>
      <trkpt lat="45.9962" lon="5.57922">
        <ele>805</ele>
        <time>2026-05-10T07:56:46Z</time>
      </trkpt>
      <trkpt lat="45.99619" lon="5.57918">
        <ele>805.4</ele>
        <time>2026-05-10T07:56:47Z</time>
      </trkpt>
      <trkpt lat="45.99619" lon="5.57913">
        <ele>805</ele>
        <time>2026-05-10T07:56:48Z</time>
      </trkpt>
      <trkpt lat="45.99618" lon="5.57908">
        <ele>805</ele>
        <time>2026-05-10T07:56:49Z</time>
      </trkpt>
      <trkpt lat="45.99617" lon="5.57903">
        <ele>805.2</ele>
        <time>2026-05-10T07:56:50Z</time>
      </trkpt>
      <trkpt lat="45.99616" lon="5.57898">
        <ele>805.2</ele>
        <time>2026-05-10T07:56:51Z</time>
      </trkpt>
      <trkpt lat="45.99616" lon="5.57893">
        <ele>805.2</ele>
        <time>2026-05-10T07:56:52Z</time>
      </trkpt>
      <trkpt lat="45.99615" lon="5.57888">
        <ele>805.2</ele>
        <time>2026-05-10T07:56:53Z</time>
      </trkpt>
      <trkpt lat="45.99614" lon="5.57882">
        <ele>805.4</ele>
        <time>2026-05-10T07:56:54Z</time>
      </trkpt>
      <trkpt lat="45.99613" lon="5.57877">
        <ele>805.6</ele>
        <time>2026-05-10T07:56:55Z</time>
      </trkpt>
      <trkpt lat="45.99612" lon="5.57872">
        <ele>805.6</ele>
        <time>2026-05-10T07:56:56Z</time>
      </trkpt>
      <trkpt lat="45.99611" lon="5.57866">
        <ele>806</ele>
        <time>2026-05-10T07:56:57Z</time>
      </trkpt>
      <trkpt lat="45.9961" lon="5.57861">
        <ele>806</ele>
        <time>2026-05-10T07:56:58Z</time>
      </trkpt>
      <trkpt lat="45.99609" lon="5.57856">
        <ele>806</ele>
        <time>2026-05-10T07:56:59Z</time>
      </trkpt>
      <trkpt lat="45.99608" lon="5.57851">
        <ele>806</ele>
        <time>2026-05-10T07:57:00Z</time>
      </trkpt>
      <trkpt lat="45.99607" lon="5.57846">
        <ele>806.2</ele>
        <time>2026-05-10T07:57:01Z</time>
      </trkpt>
      <trkpt lat="45.99607" lon="5.57841">
        <ele>806.2</ele>
        <time>2026-05-10T07:57:02Z</time>
      </trkpt>
      <trkpt lat="45.99606" lon="5.57836">
        <ele>806.2</ele>
        <time>2026-05-10T07:57:03Z</time>
      </trkpt>
      <trkpt lat="45.99605" lon="5.57831">
        <ele>806.2</ele>
        <time>2026-05-10T07:57:04Z</time>
      </trkpt>
      <trkpt lat="45.99604" lon="5.57826">
        <ele>806.2</ele>
        <time>2026-05-10T07:57:05Z</time>
      </trkpt>
      <trkpt lat="45.99603" lon="5.57821">
        <ele>806.6</ele>
        <time>2026-05-10T07:57:06Z</time>
      </trkpt>
      <trkpt lat="45.99602" lon="5.57816">
        <ele>806.6</ele>
        <time>2026-05-10T07:57:07Z</time>
      </trkpt>
      <trkpt lat="45.99602" lon="5.57812">
        <ele>806.6</ele>
        <time>2026-05-10T07:57:08Z</time>
      </trkpt>
      <trkpt lat="45.99601" lon="5.57807">
        <ele>806.6</ele>
        <time>2026-05-10T07:57:09Z</time>
      </trkpt>
      <trkpt lat="45.996" lon="5.57802">
        <ele>806.8</ele>
        <time>2026-05-10T07:57:10Z</time>
      </trkpt>
      <trkpt lat="45.996" lon="5.57797">
        <ele>806.4</ele>
        <time>2026-05-10T07:57:11Z</time>
      </trkpt>
      <trkpt lat="45.99599" lon="5.57792">
        <ele>806.8</ele>
        <time>2026-05-10T07:57:12Z</time>
      </trkpt>
      <trkpt lat="45.99598" lon="5.57787">
        <ele>806.8</ele>
        <time>2026-05-10T07:57:13Z</time>
      </trkpt>
      <trkpt lat="45.99598" lon="5.57782">
        <ele>806.8</ele>
        <time>2026-05-10T07:57:14Z</time>
      </trkpt>
      <trkpt lat="45.99597" lon="5.57777">
        <ele>807</ele>
        <time>2026-05-10T07:57:15Z</time>
      </trkpt>
      <trkpt lat="45.99597" lon="5.57772">
        <ele>807</ele>
        <time>2026-05-10T07:57:16Z</time>
      </trkpt>
      <trkpt lat="45.99597" lon="5.57767">
        <ele>807</ele>
        <time>2026-05-10T07:57:17Z</time>
      </trkpt>
      <trkpt lat="45.99597" lon="5.57761">
        <ele>806.8</ele>
        <time>2026-05-10T07:57:18Z</time>
      </trkpt>
      <trkpt lat="45.99597" lon="5.57756">
        <ele>806.8</ele>
        <time>2026-05-10T07:57:19Z</time>
      </trkpt>
      <trkpt lat="45.99596" lon="5.57751">
        <ele>807</ele>
        <time>2026-05-10T07:57:20Z</time>
      </trkpt>
      <trkpt lat="45.99596" lon="5.57746">
        <ele>807</ele>
        <time>2026-05-10T07:57:21Z</time>
      </trkpt>
      <trkpt lat="45.99596" lon="5.5774">
        <ele>807</ele>
        <time>2026-05-10T07:57:22Z</time>
      </trkpt>
      <trkpt lat="45.99596" lon="5.57735">
        <ele>807.2</ele>
        <time>2026-05-10T07:57:23Z</time>
      </trkpt>
      <trkpt lat="45.99595" lon="5.5773">
        <ele>807.2</ele>
        <time>2026-05-10T07:57:24Z</time>
      </trkpt>
      <trkpt lat="45.99595" lon="5.57725">
        <ele>807.8</ele>
        <time>2026-05-10T07:57:25Z</time>
      </trkpt>
      <trkpt lat="45.99594" lon="5.57721">
        <ele>807.8</ele>
        <time>2026-05-10T07:57:26Z</time>
      </trkpt>
      <trkpt lat="45.99593" lon="5.57716">
        <ele>808</ele>
        <time>2026-05-10T07:57:27Z</time>
      </trkpt>
      <trkpt lat="45.99591" lon="5.57712">
        <ele>808</ele>
        <time>2026-05-10T07:57:28Z</time>
      </trkpt>
      <trkpt lat="45.9959" lon="5.57708">
        <ele>808</ele>
        <time>2026-05-10T07:57:29Z</time>
      </trkpt>
      <trkpt lat="45.99588" lon="5.57704">
        <ele>808.4</ele>
        <time>2026-05-10T07:57:30Z</time>
      </trkpt>
      <trkpt lat="45.99586" lon="5.577">
        <ele>808.4</ele>
        <time>2026-05-10T07:57:31Z</time>
      </trkpt>
      <trkpt lat="45.99584" lon="5.57697">
        <ele>808.6</ele>
        <time>2026-05-10T07:57:32Z</time>
      </trkpt>
      <trkpt lat="45.99582" lon="5.57694">
        <ele>808.6</ele>
        <time>2026-05-10T07:57:33Z</time>
      </trkpt>
      <trkpt lat="45.9958" lon="5.57692">
        <ele>809</ele>
        <time>2026-05-10T07:57:34Z</time>
      </trkpt>
      <trkpt lat="45.99578" lon="5.57689">
        <ele>809</ele>
        <time>2026-05-10T07:57:35Z</time>
      </trkpt>
      <trkpt lat="45.99576" lon="5.57687">
        <ele>809</ele>
        <time>2026-05-10T07:57:36Z</time>
      </trkpt>
      <trkpt lat="45.99574" lon="5.57685">
        <ele>808.6</ele>
        <time>2026-05-10T07:57:37Z</time>
      </trkpt>
      <trkpt lat="45.99573" lon="5.57684">
        <ele>809</ele>
        <time>2026-05-10T07:57:38Z</time>
      </trkpt>
      <trkpt lat="45.99571" lon="5.57681">
        <ele>809</ele>
        <time>2026-05-10T07:57:39Z</time>
      </trkpt>
      <trkpt lat="45.99568" lon="5.57679">
        <ele>809.6</ele>
        <time>2026-05-10T07:57:40Z</time>
      </trkpt>
      <trkpt lat="45.99565" lon="5.57677">
        <ele>810.2</ele>
        <time>2026-05-10T07:57:41Z</time>
      </trkpt>
      <trkpt lat="45.99563" lon="5.57675">
        <ele>810.4</ele>
        <time>2026-05-10T07:57:42Z</time>
      </trkpt>
      <trkpt lat="45.99561" lon="5.57674">
        <ele>810.4</ele>
        <time>2026-05-10T07:57:43Z</time>
      </trkpt>
      <trkpt lat="45.99558" lon="5.57673">
        <ele>810.6</ele>
        <time>2026-05-10T07:57:44Z</time>
      </trkpt>
      <trkpt lat="45.99556" lon="5.57671">
        <ele>811</ele>
        <time>2026-05-10T07:57:45Z</time>
      </trkpt>
      <trkpt lat="45.99553" lon="5.5767">
        <ele>811</ele>
        <time>2026-05-10T07:57:46Z</time>
      </trkpt>
      <trkpt lat="45.99551" lon="5.57668">
        <ele>811.4</ele>
        <time>2026-05-10T07:57:47Z</time>
      </trkpt>
      <trkpt lat="45.99549" lon="5.57666">
        <ele>811.6</ele>
        <time>2026-05-10T07:57:48Z</time>
      </trkpt>
      <trkpt lat="45.99547" lon="5.57664">
        <ele>811.6</ele>
        <time>2026-05-10T07:57:49Z</time>
      </trkpt>
      <trkpt lat="45.99544" lon="5.57662">
        <ele>811.8</ele>
        <time>2026-05-10T07:57:50Z</time>
      </trkpt>
      <trkpt lat="45.99543" lon="5.57661">
        <ele>811.8</ele>
        <time>2026-05-10T07:57:51Z</time>
      </trkpt>
      <trkpt lat="45.99541" lon="5.5766">
        <ele>812.2</ele>
        <time>2026-05-10T07:57:52Z</time>
      </trkpt>
      <trkpt lat="45.99539" lon="5.57658">
        <ele>812.2</ele>
        <time>2026-05-10T07:57:53Z</time>
      </trkpt>
      <trkpt lat="45.99536" lon="5.57656">
        <ele>812.6</ele>
        <time>2026-05-10T07:57:54Z</time>
      </trkpt>
      <trkpt lat="45.99534" lon="5.57655">
        <ele>812.8</ele>
        <time>2026-05-10T07:57:55Z</time>
      </trkpt>
      <trkpt lat="45.99532" lon="5.57652">
        <ele>812.8</ele>
        <time>2026-05-10T07:57:56Z</time>
      </trkpt>
      <trkpt lat="45.9953" lon="5.5765">
        <ele>813.2</ele>
        <time>2026-05-10T07:57:57Z</time>
      </trkpt>
      <trkpt lat="45.99528" lon="5.57649">
        <ele>813.2</ele>
        <time>2026-05-10T07:57:58Z</time>
      </trkpt>
      <trkpt lat="45.99526" lon="5.57647">
        <ele>813.2</ele>
        <time>2026-05-10T07:57:59Z</time>
      </trkpt>
      <trkpt lat="45.99525" lon="5.57646">
        <ele>813.4</ele>
        <time>2026-05-10T07:58:00Z</time>
      </trkpt>
      <trkpt lat="45.99522" lon="5.57645">
        <ele>813.4</ele>
        <time>2026-05-10T07:58:01Z</time>
      </trkpt>
      <trkpt lat="45.9952" lon="5.57643">
        <ele>813.4</ele>
        <time>2026-05-10T07:58:02Z</time>
      </trkpt>
      <trkpt lat="45.99518" lon="5.5764">
        <ele>813.4</ele>
        <time>2026-05-10T07:58:03Z</time>
      </trkpt>
      <trkpt lat="45.99517" lon="5.57639">
        <ele>813.8</ele>
        <time>2026-05-10T07:58:04Z</time>
      </trkpt>
      <trkpt lat="45.99515" lon="5.57637">
        <ele>814</ele>
        <time>2026-05-10T07:58:05Z</time>
      </trkpt>
      <trkpt lat="45.99514" lon="5.57635">
        <ele>814</ele>
        <time>2026-05-10T07:58:06Z</time>
      </trkpt>
      <trkpt lat="45.99512" lon="5.57633">
        <ele>814</ele>
        <time>2026-05-10T07:58:07Z</time>
      </trkpt>
      <trkpt lat="45.9951" lon="5.5763">
        <ele>814.4</ele>
        <time>2026-05-10T07:58:08Z</time>
      </trkpt>
      <trkpt lat="45.99507" lon="5.57627">
        <ele>814.4</ele>
        <time>2026-05-10T07:58:09Z</time>
      </trkpt>
      <trkpt lat="45.99505" lon="5.57624">
        <ele>814.4</ele>
        <time>2026-05-10T07:58:10Z</time>
      </trkpt>
      <trkpt lat="45.99503" lon="5.57621">
        <ele>814</ele>
        <time>2026-05-10T07:58:11Z</time>
      </trkpt>
      <trkpt lat="45.99501" lon="5.57617">
        <ele>814</ele>
        <time>2026-05-10T07:58:12Z</time>
      </trkpt>
      <trkpt lat="45.99499" lon="5.57615">
        <ele>814.4</ele>
        <time>2026-05-10T07:58:13Z</time>
      </trkpt>
      <trkpt lat="45.99496" lon="5.57611">
        <ele>814.4</ele>
        <time>2026-05-10T07:58:14Z</time>
      </trkpt>
      <trkpt lat="45.99494" lon="5.57608">
        <ele>814.6</ele>
        <time>2026-05-10T07:58:15Z</time>
      </trkpt>
      <trkpt lat="45.99491" lon="5.57605">
        <ele>814.8</ele>
        <time>2026-05-10T07:58:16Z</time>
      </trkpt>
      <trkpt lat="45.99489" lon="5.57603">
        <ele>814.8</ele>
        <time>2026-05-10T07:58:17Z</time>
      </trkpt>
      <trkpt lat="45.99487" lon="5.576">
        <ele>815.2</ele>
        <time>2026-05-10T07:58:18Z</time>
      </trkpt>
      <trkpt lat="45.99486" lon="5.57596">
        <ele>815.2</ele>
        <time>2026-05-10T07:58:19Z</time>
      </trkpt>
      <trkpt lat="45.99484" lon="5.57593">
        <ele>815</ele>
        <time>2026-05-10T07:58:20Z</time>
      </trkpt>
      <trkpt lat="45.99483" lon="5.57589">
        <ele>815</ele>
        <time>2026-05-10T07:58:21Z</time>
      </trkpt>
      <trkpt lat="45.99482" lon="5.57586">
        <ele>815.2</ele>
        <time>2026-05-10T07:58:22Z</time>
      </trkpt>
      <trkpt lat="45.99482" lon="5.57584">
        <ele>815.2</ele>
        <time>2026-05-10T07:58:23Z</time>
      </trkpt>
      <trkpt lat="45.9948" lon="5.5758">
        <ele>815.2</ele>
        <time>2026-05-10T07:58:24Z</time>
      </trkpt>
      <trkpt lat="45.9948" lon="5.57575">
        <ele>815.4</ele>
        <time>2026-05-10T07:58:25Z</time>
      </trkpt>
      <trkpt lat="45.99479" lon="5.5757">
        <ele>815.4</ele>
        <time>2026-05-10T07:58:26Z</time>
      </trkpt>
      <trkpt lat="45.99478" lon="5.57566">
        <ele>815.4</ele>
        <time>2026-05-10T07:58:27Z</time>
      </trkpt>
      <trkpt lat="45.99477" lon="5.57562">
        <ele>815.4</ele>
        <time>2026-05-10T07:58:28Z</time>
      </trkpt>
      <trkpt lat="45.99476" lon="5.57558">
        <ele>815.8</ele>
        <time>2026-05-10T07:58:29Z</time>
      </trkpt>
      <trkpt lat="45.99476" lon="5.57553">
        <ele>815.8</ele>
        <time>2026-05-10T07:58:30Z</time>
      </trkpt>
      <trkpt lat="45.99475" lon="5.57549">
        <ele>815.8</ele>
        <time>2026-05-10T07:58:31Z</time>
      </trkpt>
      <trkpt lat="45.99475" lon="5.57544">
        <ele>816</ele>
        <time>2026-05-10T07:58:32Z</time>
      </trkpt>
      <trkpt lat="45.99476" lon="5.57541">
        <ele>816</ele>
        <time>2026-05-10T07:58:33Z</time>
      </trkpt>
      <trkpt lat="45.99476" lon="5.57537">
        <ele>816</ele>
        <time>2026-05-10T07:58:34Z</time>
      </trkpt>
      <trkpt lat="45.99476" lon="5.57533">
        <ele>816</ele>
        <time>2026-05-10T07:58:35Z</time>
      </trkpt>
      <trkpt lat="45.99477" lon="5.57529">
        <ele>816</ele>
        <time>2026-05-10T07:58:36Z</time>
      </trkpt>
      <trkpt lat="45.99478" lon="5.57526">
        <ele>816.4</ele>
        <time>2026-05-10T07:58:37Z</time>
      </trkpt>
      <trkpt lat="45.99479" lon="5.57522">
        <ele>816.4</ele>
        <time>2026-05-10T07:58:38Z</time>
      </trkpt>
      <trkpt lat="45.9948" lon="5.57518">
        <ele>816.8</ele>
        <time>2026-05-10T07:58:39Z</time>
      </trkpt>
      <trkpt lat="45.9948" lon="5.57515">
        <ele>816.8</ele>
        <time>2026-05-10T07:58:40Z</time>
      </trkpt>
      <trkpt lat="45.99481" lon="5.57512">
        <ele>816.8</ele>
        <time>2026-05-10T07:58:41Z</time>
      </trkpt>
      <trkpt lat="45.99481" lon="5.57509">
        <ele>816.8</ele>
        <time>2026-05-10T07:58:42Z</time>
      </trkpt>
      <trkpt lat="45.99482" lon="5.57505">
        <ele>817.2</ele>
        <time>2026-05-10T07:58:43Z</time>
      </trkpt>
      <trkpt lat="45.99483" lon="5.57501">
        <ele>817.2</ele>
        <time>2026-05-10T07:58:44Z</time>
      </trkpt>
      <trkpt lat="45.99485" lon="5.57496">
        <ele>817.6</ele>
        <time>2026-05-10T07:58:45Z</time>
      </trkpt>
      <trkpt lat="45.99486" lon="5.57493">
        <ele>817.6</ele>
        <time>2026-05-10T07:58:46Z</time>
      </trkpt>
      <trkpt lat="45.99488" lon="5.5749">
        <ele>817.6</ele>
        <time>2026-05-10T07:58:47Z</time>
      </trkpt>
      <trkpt lat="45.9949" lon="5.57487">
        <ele>818</ele>
        <time>2026-05-10T07:58:48Z</time>
      </trkpt>
      <trkpt lat="45.99492" lon="5.57484">
        <ele>818</ele>
        <time>2026-05-10T07:58:49Z</time>
      </trkpt>
      <trkpt lat="45.99494" lon="5.57482">
        <ele>818.2</ele>
        <time>2026-05-10T07:58:50Z</time>
      </trkpt>
      <trkpt lat="45.99496" lon="5.5748">
        <ele>818.4</ele>
        <time>2026-05-10T07:58:51Z</time>
      </trkpt>
      <trkpt lat="45.99498" lon="5.57477">
        <ele>818.4</ele>
        <time>2026-05-10T07:58:52Z</time>
      </trkpt>
      <trkpt lat="45.99499" lon="5.57475">
        <ele>818.4</ele>
        <time>2026-05-10T07:58:53Z</time>
      </trkpt>
      <trkpt lat="45.99501" lon="5.57472">
        <ele>818.4</ele>
        <time>2026-05-10T07:58:54Z</time>
      </trkpt>
      <trkpt lat="45.99505" lon="5.57468">
        <ele>818.6</ele>
        <time>2026-05-10T07:58:55Z</time>
      </trkpt>
      <trkpt lat="45.99508" lon="5.57466">
        <ele>818.6</ele>
        <time>2026-05-10T07:58:56Z</time>
      </trkpt>
      <trkpt lat="45.99511" lon="5.57464">
        <ele>818.6</ele>
        <time>2026-05-10T07:58:57Z</time>
      </trkpt>
      <trkpt lat="45.99513" lon="5.57463">
        <ele>819</ele>
        <time>2026-05-10T07:58:58Z</time>
      </trkpt>
      <trkpt lat="45.99516" lon="5.57461">
        <ele>819</ele>
        <time>2026-05-10T07:58:59Z</time>
      </trkpt>
      <trkpt lat="45.99518" lon="5.5746">
        <ele>819</ele>
        <time>2026-05-10T07:59:00Z</time>
      </trkpt>
      <trkpt lat="45.9952" lon="5.57459">
        <ele>819.2</ele>
        <time>2026-05-10T07:59:01Z</time>
      </trkpt>
      <trkpt lat="45.99523" lon="5.57458">
        <ele>819.4</ele>
        <time>2026-05-10T07:59:02Z</time>
      </trkpt>
      <trkpt lat="45.99525" lon="5.57456">
        <ele>819.4</ele>
        <time>2026-05-10T07:59:03Z</time>
      </trkpt>
      <trkpt lat="45.99527" lon="5.57455">
        <ele>819.6</ele>
        <time>2026-05-10T07:59:04Z</time>
      </trkpt>
      <trkpt lat="45.99531" lon="5.57453">
        <ele>819.6</ele>
        <time>2026-05-10T07:59:05Z</time>
      </trkpt>
      <trkpt lat="45.99534" lon="5.57452">
        <ele>820</ele>
        <time>2026-05-10T07:59:06Z</time>
      </trkpt>
      <trkpt lat="45.99538" lon="5.57452">
        <ele>820.2</ele>
        <time>2026-05-10T07:59:07Z</time>
      </trkpt>
      <trkpt lat="45.99541" lon="5.57451">
        <ele>820.2</ele>
        <time>2026-05-10T07:59:08Z</time>
      </trkpt>
      <trkpt lat="45.99544" lon="5.5745">
        <ele>820.2</ele>
        <time>2026-05-10T07:59:09Z</time>
      </trkpt>
      <trkpt lat="45.99548" lon="5.57448">
        <ele>820.2</ele>
        <time>2026-05-10T07:59:10Z</time>
      </trkpt>
      <trkpt lat="45.99552" lon="5.57445">
        <ele>820.4</ele>
        <time>2026-05-10T07:59:11Z</time>
      </trkpt>
      <trkpt lat="45.99556" lon="5.57443">
        <ele>820.4</ele>
        <time>2026-05-10T07:59:12Z</time>
      </trkpt>
      <trkpt lat="45.99559" lon="5.57441">
        <ele>820.4</ele>
        <time>2026-05-10T07:59:13Z</time>
      </trkpt>
      <trkpt lat="45.99562" lon="5.57439">
        <ele>820.6</ele>
        <time>2026-05-10T07:59:14Z</time>
      </trkpt>
      <trkpt lat="45.99565" lon="5.57437">
        <ele>820.6</ele>
        <time>2026-05-10T07:59:15Z</time>
      </trkpt>
      <trkpt lat="45.99567" lon="5.57436">
        <ele>821</ele>
        <time>2026-05-10T07:59:16Z</time>
      </trkpt>
      <trkpt lat="45.99569" lon="5.57435">
        <ele>821</ele>
        <time>2026-05-10T07:59:17Z</time>
      </trkpt>
      <trkpt lat="45.99571" lon="5.57433">
        <ele>821</ele>
        <time>2026-05-10T07:59:18Z</time>
      </trkpt>
      <trkpt lat="45.99573" lon="5.57432">
        <ele>821</ele>
        <time>2026-05-10T07:59:19Z</time>
      </trkpt>
      <trkpt lat="45.99575" lon="5.57431">
        <ele>821</ele>
        <time>2026-05-10T07:59:20Z</time>
      </trkpt>
      <trkpt lat="45.99578" lon="5.5743">
        <ele>821</ele>
        <time>2026-05-10T07:59:21Z</time>
      </trkpt>
      <trkpt lat="45.9958" lon="5.57429">
        <ele>821.4</ele>
        <time>2026-05-10T07:59:22Z</time>
      </trkpt>
      <trkpt lat="45.99582" lon="5.57428">
        <ele>821.6</ele>
        <time>2026-05-10T07:59:23Z</time>
      </trkpt>
      <trkpt lat="45.99585" lon="5.57426">
        <ele>821.6</ele>
        <time>2026-05-10T07:59:24Z</time>
      </trkpt>
      <trkpt lat="45.99587" lon="5.57425">
        <ele>821.6</ele>
        <time>2026-05-10T07:59:25Z</time>
      </trkpt>
      <trkpt lat="45.99589" lon="5.57423">
        <ele>821.6</ele>
        <time>2026-05-10T07:59:26Z</time>
      </trkpt>
      <trkpt lat="45.99591" lon="5.57422">
        <ele>821.8</ele>
        <time>2026-05-10T07:59:27Z</time>
      </trkpt>
      <trkpt lat="45.99592" lon="5.57421">
        <ele>821.8</ele>
        <time>2026-05-10T07:59:28Z</time>
      </trkpt>
      <trkpt lat="45.99595" lon="5.57419">
        <ele>822.2</ele>
        <time>2026-05-10T07:59:29Z</time>
      </trkpt>
      <trkpt lat="45.99598" lon="5.57417">
        <ele>822.2</ele>
        <time>2026-05-10T07:59:30Z</time>
      </trkpt>
      <trkpt lat="45.99601" lon="5.57416">
        <ele>822.2</ele>
        <time>2026-05-10T07:59:31Z</time>
      </trkpt>
      <trkpt lat="45.99604" lon="5.57415">
        <ele>822.2</ele>
        <time>2026-05-10T07:59:32Z</time>
      </trkpt>
      <trkpt lat="45.99608" lon="5.57414">
        <ele>822.2</ele>
        <time>2026-05-10T07:59:33Z</time>
      </trkpt>
      <trkpt lat="45.99611" lon="5.57413">
        <ele>822.2</ele>
        <time>2026-05-10T07:59:34Z</time>
      </trkpt>
      <trkpt lat="45.99615" lon="5.57411">
        <ele>822.2</ele>
        <time>2026-05-10T07:59:35Z</time>
      </trkpt>
      <trkpt lat="45.99618" lon="5.5741">
        <ele>822.2</ele>
        <time>2026-05-10T07:59:36Z</time>
      </trkpt>
      <trkpt lat="45.99621" lon="5.57408">
        <ele>822.4</ele>
        <time>2026-05-10T07:59:37Z</time>
      </trkpt>
      <trkpt lat="45.99624" lon="5.57407">
        <ele>822.4</ele>
        <time>2026-05-10T07:59:38Z</time>
      </trkpt>
      <trkpt lat="45.99627" lon="5.57405">
        <ele>822.8</ele>
        <time>2026-05-10T07:59:39Z</time>
      </trkpt>
      <trkpt lat="45.9963" lon="5.57403">
        <ele>822.8</ele>
        <time>2026-05-10T07:59:40Z</time>
      </trkpt>
      <trkpt lat="45.99634" lon="5.57401">
        <ele>822.8</ele>
        <time>2026-05-10T07:59:41Z</time>
      </trkpt>
      <trkpt lat="45.99637" lon="5.57399">
        <ele>823.2</ele>
        <time>2026-05-10T07:59:42Z</time>
      </trkpt>
      <trkpt lat="45.99641" lon="5.57398">
        <ele>823.2</ele>
        <time>2026-05-10T07:59:43Z</time>
      </trkpt>
      <trkpt lat="45.99644" lon="5.57398">
        <ele>823.2</ele>
        <time>2026-05-10T07:59:44Z</time>
      </trkpt>
      <trkpt lat="45.99648" lon="5.57397">
        <ele>823.2</ele>
        <time>2026-05-10T07:59:45Z</time>
      </trkpt>
      <trkpt lat="45.99652" lon="5.57396">
        <ele>823.2</ele>
        <time>2026-05-10T07:59:46Z</time>
      </trkpt>
      <trkpt lat="45.99656" lon="5.57395">
        <ele>823.2</ele>
        <time>2026-05-10T07:59:47Z</time>
      </trkpt>
      <trkpt lat="45.99659" lon="5.57393">
        <ele>823.4</ele>
        <time>2026-05-10T07:59:48Z</time>
      </trkpt>
      <trkpt lat="45.99662" lon="5.57392">
        <ele>823.6</ele>
        <time>2026-05-10T07:59:49Z</time>
      </trkpt>
      <trkpt lat="45.99665" lon="5.57391">
        <ele>823.6</ele>
        <time>2026-05-10T07:59:50Z</time>
      </trkpt>
      <trkpt lat="45.99667" lon="5.57389">
        <ele>823.4</ele>
        <time>2026-05-10T07:59:51Z</time>
      </trkpt>
      <trkpt lat="45.9967" lon="5.57388">
        <ele>823.8</ele>
        <time>2026-05-10T07:59:52Z</time>
      </trkpt>
      <trkpt lat="45.9967" lon="5.57388">
        <ele>824.4</ele>
        <time>2026-05-10T07:59:53Z</time>
      </trkpt>
      <trkpt lat="45.99673" lon="5.57386">
        <ele>824.4</ele>
        <time>2026-05-10T07:59:54Z</time>
      </trkpt>
      <trkpt lat="45.99676" lon="5.57384">
        <ele>824.4</ele>
        <time>2026-05-10T07:59:55Z</time>
      </trkpt>
      <trkpt lat="45.99679" lon="5.57382">
        <ele>824.4</ele>
        <time>2026-05-10T07:59:56Z</time>
      </trkpt>
      <trkpt lat="45.99682" lon="5.57379">
        <ele>824.4</ele>
        <time>2026-05-10T07:59:57Z</time>
      </trkpt>
      <trkpt lat="45.99685" lon="5.57377">
        <ele>824.6</ele>
        <time>2026-05-10T07:59:58Z</time>
      </trkpt>
      <trkpt lat="45.9969" lon="5.57372">
        <ele>824.6</ele>
        <time>2026-05-10T07:59:59Z</time>
      </trkpt>
      <trkpt lat="45.99692" lon="5.5737">
        <ele>824.6</ele>
        <time>2026-05-10T08:00:00Z</time>
      </trkpt>
      <trkpt lat="45.99695" lon="5.57367">
        <ele>825</ele>
        <time>2026-05-10T08:00:01Z</time>
      </trkpt>
      <trkpt lat="45.99697" lon="5.57365">
        <ele>825</ele>
        <time>2026-05-10T08:00:02Z</time>
      </trkpt>
      <trkpt lat="45.99699" lon="5.57362">
        <ele>825</ele>
        <time>2026-05-10T08:00:03Z</time>
      </trkpt>
      <trkpt lat="45.99702" lon="5.57359">
        <ele>825</ele>
        <time>2026-05-10T08:00:04Z</time>
      </trkpt>
      <trkpt lat="45.99705" lon="5.57356">
        <ele>824.6</ele>
        <time>2026-05-10T08:00:05Z</time>
      </trkpt>
      <trkpt lat="45.99706" lon="5.57353">
        <ele>824.6</ele>
        <time>2026-05-10T08:00:06Z</time>
      </trkpt>
      <trkpt lat="45.99708" lon="5.57349">
        <ele>824.6</ele>
        <time>2026-05-10T08:00:07Z</time>
      </trkpt>
      <trkpt lat="45.9971" lon="5.57345">
        <ele>824.6</ele>
        <time>2026-05-10T08:00:08Z</time>
      </trkpt>
      <trkpt lat="45.99712" lon="5.5734">
        <ele>824.8</ele>
        <time>2026-05-10T08:00:09Z</time>
      </trkpt>
      <trkpt lat="45.99712" lon="5.57334">
        <ele>824.8</ele>
        <time>2026-05-10T08:00:10Z</time>
      </trkpt>
      <trkpt lat="45.99713" lon="5.57328">
        <ele>824.8</ele>
        <time>2026-05-10T08:00:11Z</time>
      </trkpt>
      <trkpt lat="45.99714" lon="5.57323">
        <ele>824.2</ele>
        <time>2026-05-10T08:00:12Z</time>
      </trkpt>
      <trkpt lat="45.99716" lon="5.57318">
        <ele>824.6</ele>
        <time>2026-05-10T08:00:13Z</time>
      </trkpt>
      <trkpt lat="45.99717" lon="5.57314">
        <ele>824.6</ele>
        <time>2026-05-10T08:00:14Z</time>
      </trkpt>
      <trkpt lat="45.99719" lon="5.57309">
        <ele>824.2</ele>
        <time>2026-05-10T08:00:15Z</time>
      </trkpt>
      <trkpt lat="45.99721" lon="5.57303">
        <ele>824.2</ele>
        <time>2026-05-10T08:00:16Z</time>
      </trkpt>
      <trkpt lat="45.99722" lon="5.57298">
        <ele>824.6</ele>
        <time>2026-05-10T08:00:17Z</time>
      </trkpt>
      <trkpt lat="45.99724" lon="5.57293">
        <ele>825</ele>
        <time>2026-05-10T08:00:18Z</time>
      </trkpt>
      <trkpt lat="45.99726" lon="5.57288">
        <ele>825</ele>
        <time>2026-05-10T08:00:19Z</time>
      </trkpt>
      <trkpt lat="45.99729" lon="5.57283">
        <ele>825</ele>
        <time>2026-05-10T08:00:20Z</time>
      </trkpt>
      <trkpt lat="45.99734" lon="5.57277">
        <ele>825</ele>
        <time>2026-05-10T08:00:21Z</time>
      </trkpt>
      <trkpt lat="45.99736" lon="5.57273">
        <ele>825</ele>
        <time>2026-05-10T08:00:22Z</time>
      </trkpt>
      <trkpt lat="45.99738" lon="5.57267">
        <ele>824.6</ele>
        <time>2026-05-10T08:00:23Z</time>
      </trkpt>
      <trkpt lat="45.99741" lon="5.57262">
        <ele>824.6</ele>
        <time>2026-05-10T08:00:24Z</time>
      </trkpt>
      <trkpt lat="45.99745" lon="5.57258">
        <ele>824.6</ele>
        <time>2026-05-10T08:00:25Z</time>
      </trkpt>
      <trkpt lat="45.99746" lon="5.57254">
        <ele>824.6</ele>
        <time>2026-05-10T08:00:26Z</time>
      </trkpt>
      <trkpt lat="45.99749" lon="5.57249">
        <ele>824.6</ele>
        <time>2026-05-10T08:00:27Z</time>
      </trkpt>
      <trkpt lat="45.99753" lon="5.57244">
        <ele>825</ele>
        <time>2026-05-10T08:00:28Z</time>
      </trkpt>
      <trkpt lat="45.99753" lon="5.57239">
        <ele>825</ele>
        <time>2026-05-10T08:00:29Z</time>
      </trkpt>
      <trkpt lat="45.99755" lon="5.57233">
        <ele>825</ele>
        <time>2026-05-10T08:00:30Z</time>
      </trkpt>
      <trkpt lat="45.99758" lon="5.57228">
        <ele>825</ele>
        <time>2026-05-10T08:00:31Z</time>
      </trkpt>
      <trkpt lat="45.9976" lon="5.57223">
        <ele>825</ele>
        <time>2026-05-10T08:00:32Z</time>
      </trkpt>
      <trkpt lat="45.99762" lon="5.57217">
        <ele>825</ele>
        <time>2026-05-10T08:00:33Z</time>
      </trkpt>
      <trkpt lat="45.99762" lon="5.57214">
        <ele>825</ele>
        <time>2026-05-10T08:00:34Z</time>
      </trkpt>
      <trkpt lat="45.99764" lon="5.57209">
        <ele>825.2</ele>
        <time>2026-05-10T08:00:35Z</time>
      </trkpt>
      <trkpt lat="45.99766" lon="5.57205">
        <ele>825.2</ele>
        <time>2026-05-10T08:00:36Z</time>
      </trkpt>
      <trkpt lat="45.99768" lon="5.57199">
        <ele>825.2</ele>
        <time>2026-05-10T08:00:37Z</time>
      </trkpt>
      <trkpt lat="45.99768" lon="5.57195">
        <ele>825.2</ele>
        <time>2026-05-10T08:00:38Z</time>
      </trkpt>
      <trkpt lat="45.9977" lon="5.5719">
        <ele>825.2</ele>
        <time>2026-05-10T08:00:39Z</time>
      </trkpt>
      <trkpt lat="45.99774" lon="5.57184">
        <ele>825.2</ele>
        <time>2026-05-10T08:00:40Z</time>
      </trkpt>
      <trkpt lat="45.99777" lon="5.57178">
        <ele>825.4</ele>
        <time>2026-05-10T08:00:41Z</time>
      </trkpt>
      <trkpt lat="45.9978" lon="5.57173">
        <ele>825.4</ele>
        <time>2026-05-10T08:00:42Z</time>
      </trkpt>
      <trkpt lat="45.99783" lon="5.57168">
        <ele>825.4</ele>
        <time>2026-05-10T08:00:43Z</time>
      </trkpt>
      <trkpt lat="45.99784" lon="5.57163">
        <ele>825.4</ele>
        <time>2026-05-10T08:00:44Z</time>
      </trkpt>
      <trkpt lat="45.99787" lon="5.57158">
        <ele>825.8</ele>
        <time>2026-05-10T08:00:45Z</time>
      </trkpt>
      <trkpt lat="45.9979" lon="5.57154">
        <ele>825.8</ele>
        <time>2026-05-10T08:00:46Z</time>
      </trkpt>
      <trkpt lat="45.99791" lon="5.5715">
        <ele>826.4</ele>
        <time>2026-05-10T08:00:47Z</time>
      </trkpt>
      <trkpt lat="45.99791" lon="5.57146">
        <ele>826.6</ele>
        <time>2026-05-10T08:00:48Z</time>
      </trkpt>
      <trkpt lat="45.9979" lon="5.57142">
        <ele>827</ele>
        <time>2026-05-10T08:00:49Z</time>
      </trkpt>
      <trkpt lat="45.9979" lon="5.57137">
        <ele>827</ele>
        <time>2026-05-10T08:00:50Z</time>
      </trkpt>
      <trkpt lat="45.99791" lon="5.57131">
        <ele>827</ele>
        <time>2026-05-10T08:00:51Z</time>
      </trkpt>
      <trkpt lat="45.99794" lon="5.57125">
        <ele>827</ele>
        <time>2026-05-10T08:00:52Z</time>
      </trkpt>
      <trkpt lat="45.99795" lon="5.57119">
        <ele>827</ele>
        <time>2026-05-10T08:00:53Z</time>
      </trkpt>
      <trkpt lat="45.99797" lon="5.57114">
        <ele>826.4</ele>
        <time>2026-05-10T08:00:54Z</time>
      </trkpt>
      <trkpt lat="45.99798" lon="5.57109">
        <ele>826.4</ele>
        <time>2026-05-10T08:00:55Z</time>
      </trkpt>
      <trkpt lat="45.998" lon="5.57103">
        <ele>826.6</ele>
        <time>2026-05-10T08:00:56Z</time>
      </trkpt>
      <trkpt lat="45.99801" lon="5.57098">
        <ele>827</ele>
        <time>2026-05-10T08:00:57Z</time>
      </trkpt>
      <trkpt lat="45.99802" lon="5.57094">
        <ele>827</ele>
        <time>2026-05-10T08:00:58Z</time>
      </trkpt>
      <trkpt lat="45.99803" lon="5.5709">
        <ele>827</ele>
        <time>2026-05-10T08:00:59Z</time>
      </trkpt>
      <trkpt lat="45.99805" lon="5.57086">
        <ele>827.4</ele>
        <time>2026-05-10T08:01:00Z</time>
      </trkpt>
      <trkpt lat="45.99807" lon="5.57082">
        <ele>827.4</ele>
        <time>2026-05-10T08:01:01Z</time>
      </trkpt>
      <trkpt lat="45.99809" lon="5.57079">
        <ele>827.8</ele>
        <time>2026-05-10T08:01:02Z</time>
      </trkpt>
      <trkpt lat="45.99811" lon="5.57076">
        <ele>828</ele>
        <time>2026-05-10T08:01:03Z</time>
      </trkpt>
      <trkpt lat="45.99813" lon="5.57072">
        <ele>828</ele>
        <time>2026-05-10T08:01:04Z</time>
      </trkpt>
      <trkpt lat="45.99815" lon="5.57068">
        <ele>828</ele>
        <time>2026-05-10T08:01:05Z</time>
      </trkpt>
      <trkpt lat="45.99816" lon="5.57063">
        <ele>828</ele>
        <time>2026-05-10T08:01:06Z</time>
      </trkpt>
      <trkpt lat="45.99817" lon="5.57058">
        <ele>828</ele>
        <time>2026-05-10T08:01:07Z</time>
      </trkpt>
      <trkpt lat="45.99818" lon="5.57053">
        <ele>828</ele>
        <time>2026-05-10T08:01:08Z</time>
      </trkpt>
      <trkpt lat="45.99819" lon="5.57048">
        <ele>828.2</ele>
        <time>2026-05-10T08:01:09Z</time>
      </trkpt>
      <trkpt lat="45.99819" lon="5.57043">
        <ele>828.2</ele>
        <time>2026-05-10T08:01:10Z</time>
      </trkpt>
      <trkpt lat="45.9982" lon="5.57038">
        <ele>828.2</ele>
        <time>2026-05-10T08:01:11Z</time>
      </trkpt>
      <trkpt lat="45.9982" lon="5.57034">
        <ele>828.2</ele>
        <time>2026-05-10T08:01:12Z</time>
      </trkpt>
      <trkpt lat="45.99821" lon="5.5703">
        <ele>828.2</ele>
        <time>2026-05-10T08:01:13Z</time>
      </trkpt>
      <trkpt lat="45.99822" lon="5.57025">
        <ele>828.2</ele>
        <time>2026-05-10T08:01:14Z</time>
      </trkpt>
      <trkpt lat="45.99824" lon="5.5702">
        <ele>828.2</ele>
        <time>2026-05-10T08:01:15Z</time>
      </trkpt>
      <trkpt lat="45.99825" lon="5.57016">
        <ele>828.6</ele>
        <time>2026-05-10T08:01:16Z</time>
      </trkpt>
      <trkpt lat="45.99826" lon="5.5701">
        <ele>829.4</ele>
        <time>2026-05-10T08:01:17Z</time>
      </trkpt>
      <trkpt lat="45.99827" lon="5.57005">
        <ele>829.4</ele>
        <time>2026-05-10T08:01:18Z</time>
      </trkpt>
      <trkpt lat="45.99828" lon="5.57">
        <ele>829.6</ele>
        <time>2026-05-10T08:01:19Z</time>
      </trkpt>
      <trkpt lat="45.99828" lon="5.56996">
        <ele>829.6</ele>
        <time>2026-05-10T08:01:20Z</time>
      </trkpt>
      <trkpt lat="45.99829" lon="5.56991">
        <ele>830</ele>
        <time>2026-05-10T08:01:21Z</time>
      </trkpt>
      <trkpt lat="45.99829" lon="5.56986">
        <ele>830</ele>
        <time>2026-05-10T08:01:22Z</time>
      </trkpt>
      <trkpt lat="45.99829" lon="5.56982">
        <ele>830</ele>
        <time>2026-05-10T08:01:23Z</time>
      </trkpt>
      <trkpt lat="45.9983" lon="5.56978">
        <ele>830</ele>
        <time>2026-05-10T08:01:24Z</time>
      </trkpt>
      <trkpt lat="45.9983" lon="5.56973">
        <ele>830</ele>
        <time>2026-05-10T08:01:25Z</time>
      </trkpt>
      <trkpt lat="45.99831" lon="5.56968">
        <ele>830</ele>
        <time>2026-05-10T08:01:26Z</time>
      </trkpt>
      <trkpt lat="45.99832" lon="5.56962">
        <ele>830.2</ele>
        <time>2026-05-10T08:01:27Z</time>
      </trkpt>
      <trkpt lat="45.99834" lon="5.56957">
        <ele>830.2</ele>
        <time>2026-05-10T08:01:28Z</time>
      </trkpt>
      <trkpt lat="45.99835" lon="5.56951">
        <ele>830.2</ele>
        <time>2026-05-10T08:01:29Z</time>
      </trkpt>
      <trkpt lat="45.99837" lon="5.56945">
        <ele>830.6</ele>
        <time>2026-05-10T08:01:30Z</time>
      </trkpt>
      <trkpt lat="45.99838" lon="5.56941">
        <ele>830.6</ele>
        <time>2026-05-10T08:01:31Z</time>
      </trkpt>
      <trkpt lat="45.99838" lon="5.56936">
        <ele>830.6</ele>
        <time>2026-05-10T08:01:32Z</time>
      </trkpt>
      <trkpt lat="45.99839" lon="5.56931">
        <ele>830.4</ele>
        <time>2026-05-10T08:01:33Z</time>
      </trkpt>
      <trkpt lat="45.9984" lon="5.56926">
        <ele>830.4</ele>
        <time>2026-05-10T08:01:34Z</time>
      </trkpt>
      <trkpt lat="45.99841" lon="5.56921">
        <ele>830.4</ele>
        <time>2026-05-10T08:01:35Z</time>
      </trkpt>
      <trkpt lat="45.99844" lon="5.56916">
        <ele>830.6</ele>
        <time>2026-05-10T08:01:36Z</time>
      </trkpt>
      <trkpt lat="45.99846" lon="5.56912">
        <ele>830.6</ele>
        <time>2026-05-10T08:01:37Z</time>
      </trkpt>
      <trkpt lat="45.99849" lon="5.56907">
        <ele>830.6</ele>
        <time>2026-05-10T08:01:38Z</time>
      </trkpt>
      <trkpt lat="45.99851" lon="5.56902">
        <ele>830.4</ele>
        <time>2026-05-10T08:01:39Z</time>
      </trkpt>
      <trkpt lat="45.99853" lon="5.56897">
        <ele>830.4</ele>
        <time>2026-05-10T08:01:40Z</time>
      </trkpt>
      <trkpt lat="45.99854" lon="5.56892">
        <ele>830.4</ele>
        <time>2026-05-10T08:01:41Z</time>
      </trkpt>
      <trkpt lat="45.99857" lon="5.56887">
        <ele>830.4</ele>
        <time>2026-05-10T08:01:42Z</time>
      </trkpt>
      <trkpt lat="45.99859" lon="5.56882">
        <ele>830.2</ele>
        <time>2026-05-10T08:01:43Z</time>
      </trkpt>
      <trkpt lat="45.99862" lon="5.56873">
        <ele>830.2</ele>
        <time>2026-05-10T08:01:44Z</time>
      </trkpt>
      <trkpt lat="45.99864" lon="5.56868">
        <ele>829.8</ele>
        <time>2026-05-10T08:01:45Z</time>
      </trkpt>
      <trkpt lat="45.99865" lon="5.56861">
        <ele>829.8</ele>
        <time>2026-05-10T08:01:46Z</time>
      </trkpt>
      <trkpt lat="45.99867" lon="5.56854">
        <ele>829.8</ele>
        <time>2026-05-10T08:01:47Z</time>
      </trkpt>
      <trkpt lat="45.99869" lon="5.56847">
        <ele>829.8</ele>
        <time>2026-05-10T08:01:48Z</time>
      </trkpt>
      <trkpt lat="45.99873" lon="5.56842">
        <ele>829.6</ele>
        <time>2026-05-10T08:01:49Z</time>
      </trkpt>
      <trkpt lat="45.99875" lon="5.56836">
        <ele>829.6</ele>
        <time>2026-05-10T08:01:50Z</time>
      </trkpt>
      <trkpt lat="45.99878" lon="5.5683">
        <ele>829.4</ele>
        <time>2026-05-10T08:01:51Z</time>
      </trkpt>
      <trkpt lat="45.99881" lon="5.56824">
        <ele>829.4</ele>
        <time>2026-05-10T08:01:52Z</time>
      </trkpt>
      <trkpt lat="45.99884" lon="5.56819">
        <ele>829.4</ele>
        <time>2026-05-10T08:01:53Z</time>
      </trkpt>
      <trkpt lat="45.99887" lon="5.56814">
        <ele>829.4</ele>
        <time>2026-05-10T08:01:54Z</time>
      </trkpt>
      <trkpt lat="45.99891" lon="5.56809">
        <ele>829.4</ele>
        <time>2026-05-10T08:01:55Z</time>
      </trkpt>
      <trkpt lat="45.99894" lon="5.56804">
        <ele>829.4</ele>
        <time>2026-05-10T08:01:56Z</time>
      </trkpt>
      <trkpt lat="45.99897" lon="5.56799">
        <ele>829.4</ele>
        <time>2026-05-10T08:01:57Z</time>
      </trkpt>
      <trkpt lat="45.999" lon="5.56793">
        <ele>829.2</ele>
        <time>2026-05-10T08:01:58Z</time>
      </trkpt>
      <trkpt lat="45.99904" lon="5.56787">
        <ele>829.2</ele>
        <time>2026-05-10T08:01:59Z</time>
      </trkpt>
      <trkpt lat="45.99907" lon="5.56782">
        <ele>829.2</ele>
        <time>2026-05-10T08:02:00Z</time>
      </trkpt>
      <trkpt lat="45.9991" lon="5.56776">
        <ele>829.2</ele>
        <time>2026-05-10T08:02:01Z</time>
      </trkpt>
      <trkpt lat="45.99911" lon="5.56771">
        <ele>829.2</ele>
        <time>2026-05-10T08:02:02Z</time>
      </trkpt>
      <trkpt lat="45.99913" lon="5.56764">
        <ele>829.4</ele>
        <time>2026-05-10T08:02:03Z</time>
      </trkpt>
      <trkpt lat="45.99914" lon="5.56761">
        <ele>829.6</ele>
        <time>2026-05-10T08:02:04Z</time>
      </trkpt>
      <trkpt lat="45.99915" lon="5.56754">
        <ele>830</ele>
        <time>2026-05-10T08:02:05Z</time>
      </trkpt>
      <trkpt lat="45.99916" lon="5.56749">
        <ele>830</ele>
        <time>2026-05-10T08:02:06Z</time>
      </trkpt>
      <trkpt lat="45.99918" lon="5.56743">
        <ele>830.2</ele>
        <time>2026-05-10T08:02:07Z</time>
      </trkpt>
      <trkpt lat="45.99918" lon="5.56736">
        <ele>830.2</ele>
        <time>2026-05-10T08:02:08Z</time>
      </trkpt>
      <trkpt lat="45.99918" lon="5.56731">
        <ele>830.2</ele>
        <time>2026-05-10T08:02:09Z</time>
      </trkpt>
      <trkpt lat="45.9992" lon="5.56726">
        <ele>830.2</ele>
        <time>2026-05-10T08:02:10Z</time>
      </trkpt>
      <trkpt lat="45.99921" lon="5.56719">
        <ele>830.2</ele>
        <time>2026-05-10T08:02:11Z</time>
      </trkpt>
      <trkpt lat="45.99921" lon="5.56713">
        <ele>830.4</ele>
        <time>2026-05-10T08:02:12Z</time>
      </trkpt>
      <trkpt lat="45.99924" lon="5.56706">
        <ele>830.4</ele>
        <time>2026-05-10T08:02:13Z</time>
      </trkpt>
      <trkpt lat="45.99925" lon="5.56702">
        <ele>830.4</ele>
        <time>2026-05-10T08:02:14Z</time>
      </trkpt>
      <trkpt lat="45.99927" lon="5.56695">
        <ele>830.8</ele>
        <time>2026-05-10T08:02:15Z</time>
      </trkpt>
      <trkpt lat="45.9993" lon="5.56689">
        <ele>830.8</ele>
        <time>2026-05-10T08:02:16Z</time>
      </trkpt>
      <trkpt lat="45.99933" lon="5.56684">
        <ele>830.8</ele>
        <time>2026-05-10T08:02:17Z</time>
      </trkpt>
      <trkpt lat="45.99937" lon="5.5668">
        <ele>831.2</ele>
        <time>2026-05-10T08:02:18Z</time>
      </trkpt>
      <trkpt lat="45.9994" lon="5.56675">
        <ele>831.2</ele>
        <time>2026-05-10T08:02:19Z</time>
      </trkpt>
      <trkpt lat="45.99942" lon="5.5667">
        <ele>831.2</ele>
        <time>2026-05-10T08:02:20Z</time>
      </trkpt>
      <trkpt lat="45.99945" lon="5.56665">
        <ele>830.8</ele>
        <time>2026-05-10T08:02:21Z</time>
      </trkpt>
      <trkpt lat="45.99948" lon="5.5666">
        <ele>830.8</ele>
        <time>2026-05-10T08:02:22Z</time>
      </trkpt>
      <trkpt lat="45.9995" lon="5.56655">
        <ele>830.8</ele>
        <time>2026-05-10T08:02:23Z</time>
      </trkpt>
      <trkpt lat="45.99954" lon="5.5665">
        <ele>830.8</ele>
        <time>2026-05-10T08:02:24Z</time>
      </trkpt>
      <trkpt lat="45.99955" lon="5.56645">
        <ele>830.8</ele>
        <time>2026-05-10T08:02:25Z</time>
      </trkpt>
      <trkpt lat="45.99959" lon="5.5664">
        <ele>831</ele>
        <time>2026-05-10T08:02:26Z</time>
      </trkpt>
      <trkpt lat="45.99961" lon="5.56635">
        <ele>831</ele>
        <time>2026-05-10T08:02:27Z</time>
      </trkpt>
      <trkpt lat="45.99964" lon="5.5663">
        <ele>830.6</ele>
        <time>2026-05-10T08:02:28Z</time>
      </trkpt>
      <trkpt lat="45.99966" lon="5.56624">
        <ele>830.6</ele>
        <time>2026-05-10T08:02:29Z</time>
      </trkpt>
      <trkpt lat="45.99968" lon="5.56619">
        <ele>830.8</ele>
        <time>2026-05-10T08:02:30Z</time>
      </trkpt>
      <trkpt lat="45.99971" lon="5.56613">
        <ele>830.8</ele>
        <time>2026-05-10T08:02:31Z</time>
      </trkpt>
      <trkpt lat="45.99973" lon="5.56607">
        <ele>830.8</ele>
        <time>2026-05-10T08:02:32Z</time>
      </trkpt>
      <trkpt lat="45.99976" lon="5.56602">
        <ele>830.8</ele>
        <time>2026-05-10T08:02:33Z</time>
      </trkpt>
      <trkpt lat="45.99978" lon="5.56598">
        <ele>831.2</ele>
        <time>2026-05-10T08:02:34Z</time>
      </trkpt>
      <trkpt lat="45.9998" lon="5.56593">
        <ele>831.2</ele>
        <time>2026-05-10T08:02:35Z</time>
      </trkpt>
      <trkpt lat="45.99981" lon="5.56589">
        <ele>831.2</ele>
        <time>2026-05-10T08:02:36Z</time>
      </trkpt>
      <trkpt lat="45.99983" lon="5.56584">
        <ele>831.8</ele>
        <time>2026-05-10T08:02:37Z</time>
      </trkpt>
      <trkpt lat="45.99985" lon="5.56578">
        <ele>831.8</ele>
        <time>2026-05-10T08:02:38Z</time>
      </trkpt>
      <trkpt lat="45.99987" lon="5.56573">
        <ele>831.8</ele>
        <time>2026-05-10T08:02:39Z</time>
      </trkpt>
      <trkpt lat="45.99989" lon="5.56568">
        <ele>831.8</ele>
        <time>2026-05-10T08:02:40Z</time>
      </trkpt>
      <trkpt lat="45.99992" lon="5.56563">
        <ele>831.4</ele>
        <time>2026-05-10T08:02:41Z</time>
      </trkpt>
      <trkpt lat="45.99994" lon="5.56558">
        <ele>831.6</ele>
        <time>2026-05-10T08:02:42Z</time>
      </trkpt>
      <trkpt lat="45.99996" lon="5.56551">
        <ele>831.6</ele>
        <time>2026-05-10T08:02:43Z</time>
      </trkpt>
      <trkpt lat="45.99997" lon="5.56545">
        <ele>831.6</ele>
        <time>2026-05-10T08:02:44Z</time>
      </trkpt>
      <trkpt lat="45.99999" lon="5.5654">
        <ele>831.6</ele>
        <time>2026-05-10T08:02:45Z</time>
      </trkpt>
      <trkpt lat="46.00001" lon="5.56535">
        <ele>831.6</ele>
        <time>2026-05-10T08:02:46Z</time>
      </trkpt>
      <trkpt lat="46.00003" lon="5.56529">
        <ele>831.4</ele>
        <time>2026-05-10T08:02:47Z</time>
      </trkpt>
      <trkpt lat="46.00005" lon="5.56522">
        <ele>831.2</ele>
        <time>2026-05-10T08:02:48Z</time>
      </trkpt>
      <trkpt lat="46.00007" lon="5.56516">
        <ele>831.4</ele>
        <time>2026-05-10T08:02:49Z</time>
      </trkpt>
      <trkpt lat="46.00009" lon="5.56511">
        <ele>831.8</ele>
        <time>2026-05-10T08:02:50Z</time>
      </trkpt>
      <trkpt lat="46.00011" lon="5.56505">
        <ele>831.8</ele>
        <time>2026-05-10T08:02:51Z</time>
      </trkpt>
      <trkpt lat="46.00013" lon="5.565">
        <ele>831.8</ele>
        <time>2026-05-10T08:02:52Z</time>
      </trkpt>
      <trkpt lat="46.00015" lon="5.56494">
        <ele>831.8</ele>
        <time>2026-05-10T08:02:53Z</time>
      </trkpt>
      <trkpt lat="46.00016" lon="5.56488">
        <ele>831.8</ele>
        <time>2026-05-10T08:02:54Z</time>
      </trkpt>
      <trkpt lat="46.00019" lon="5.56483">
        <ele>831.8</ele>
        <time>2026-05-10T08:02:55Z</time>
      </trkpt>
      <trkpt lat="46.00023" lon="5.56477">
        <ele>832.2</ele>
        <time>2026-05-10T08:02:56Z</time>
      </trkpt>
      <trkpt lat="46.00026" lon="5.56471">
        <ele>832.4</ele>
        <time>2026-05-10T08:02:57Z</time>
      </trkpt>
      <trkpt lat="46.00027" lon="5.56466">
        <ele>832.4</ele>
        <time>2026-05-10T08:02:58Z</time>
      </trkpt>
      <trkpt lat="46.00031" lon="5.56461">
        <ele>832.8</ele>
        <time>2026-05-10T08:02:59Z</time>
      </trkpt>
      <trkpt lat="46.00033" lon="5.56455">
        <ele>832.8</ele>
        <time>2026-05-10T08:03:00Z</time>
      </trkpt>
      <trkpt lat="46.00036" lon="5.5645">
        <ele>832.8</ele>
        <time>2026-05-10T08:03:01Z</time>
      </trkpt>
      <trkpt lat="46.00039" lon="5.56445">
        <ele>833</ele>
        <time>2026-05-10T08:03:02Z</time>
      </trkpt>
      <trkpt lat="46.0004" lon="5.56441">
        <ele>832.8</ele>
        <time>2026-05-10T08:03:03Z</time>
      </trkpt>
      <trkpt lat="46.00042" lon="5.56437">
        <ele>832.8</ele>
        <time>2026-05-10T08:03:04Z</time>
      </trkpt>
      <trkpt lat="46.00045" lon="5.56432">
        <ele>832.8</ele>
        <time>2026-05-10T08:03:05Z</time>
      </trkpt>
      <trkpt lat="46.00047" lon="5.56428">
        <ele>832.8</ele>
        <time>2026-05-10T08:03:06Z</time>
      </trkpt>
      <trkpt lat="46.00049" lon="5.56423">
        <ele>833</ele>
        <time>2026-05-10T08:03:07Z</time>
      </trkpt>
      <trkpt lat="46.00051" lon="5.56418">
        <ele>833</ele>
        <time>2026-05-10T08:03:08Z</time>
      </trkpt>
      <trkpt lat="46.00054" lon="5.56413">
        <ele>833.2</ele>
        <time>2026-05-10T08:03:09Z</time>
      </trkpt>
      <trkpt lat="46.00057" lon="5.56409">
        <ele>833.2</ele>
        <time>2026-05-10T08:03:10Z</time>
      </trkpt>
      <trkpt lat="46.00058" lon="5.56404">
        <ele>833.2</ele>
        <time>2026-05-10T08:03:11Z</time>
      </trkpt>
      <trkpt lat="46.00061" lon="5.564">
        <ele>833.2</ele>
        <time>2026-05-10T08:03:12Z</time>
      </trkpt>
      <trkpt lat="46.00063" lon="5.56395">
        <ele>833.6</ele>
        <time>2026-05-10T08:03:13Z</time>
      </trkpt>
      <trkpt lat="46.00065" lon="5.5639">
        <ele>833.6</ele>
        <time>2026-05-10T08:03:14Z</time>
      </trkpt>
      <trkpt lat="46.00067" lon="5.56386">
        <ele>833.8</ele>
        <time>2026-05-10T08:03:15Z</time>
      </trkpt>
      <trkpt lat="46.0007" lon="5.56381">
        <ele>834.2</ele>
        <time>2026-05-10T08:03:16Z</time>
      </trkpt>
      <trkpt lat="46.00072" lon="5.56378">
        <ele>834.4</ele>
        <time>2026-05-10T08:03:17Z</time>
      </trkpt>
      <trkpt lat="46.00074" lon="5.56374">
        <ele>834.4</ele>
        <time>2026-05-10T08:03:18Z</time>
      </trkpt>
      <trkpt lat="46.00077" lon="5.5637">
        <ele>834.6</ele>
        <time>2026-05-10T08:03:19Z</time>
      </trkpt>
      <trkpt lat="46.00079" lon="5.56367">
        <ele>834.6</ele>
        <time>2026-05-10T08:03:20Z</time>
      </trkpt>
      <trkpt lat="46.00082" lon="5.56362">
        <ele>834.6</ele>
        <time>2026-05-10T08:03:21Z</time>
      </trkpt>
      <trkpt lat="46.00084" lon="5.56358">
        <ele>834.6</ele>
        <time>2026-05-10T08:03:22Z</time>
      </trkpt>
      <trkpt lat="46.00087" lon="5.56354">
        <ele>834.8</ele>
        <time>2026-05-10T08:03:23Z</time>
      </trkpt>
      <trkpt lat="46.00089" lon="5.56351">
        <ele>834.8</ele>
        <time>2026-05-10T08:03:24Z</time>
      </trkpt>
      <trkpt lat="46.00092" lon="5.56347">
        <ele>835</ele>
        <time>2026-05-10T08:03:25Z</time>
      </trkpt>
      <trkpt lat="46.00094" lon="5.56343">
        <ele>835</ele>
        <time>2026-05-10T08:03:26Z</time>
      </trkpt>
      <trkpt lat="46.00096" lon="5.56339">
        <ele>835</ele>
        <time>2026-05-10T08:03:27Z</time>
      </trkpt>
      <trkpt lat="46.00099" lon="5.56335">
        <ele>835.4</ele>
        <time>2026-05-10T08:03:28Z</time>
      </trkpt>
      <trkpt lat="46.00101" lon="5.56331">
        <ele>835</ele>
        <time>2026-05-10T08:03:29Z</time>
      </trkpt>
      <trkpt lat="46.00103" lon="5.56327">
        <ele>835.4</ele>
        <time>2026-05-10T08:03:30Z</time>
      </trkpt>
      <trkpt lat="46.00105" lon="5.56324">
        <ele>835.4</ele>
        <time>2026-05-10T08:03:31Z</time>
      </trkpt>
      <trkpt lat="46.00108" lon="5.5632">
        <ele>835.8</ele>
        <time>2026-05-10T08:03:32Z</time>
      </trkpt>
      <trkpt lat="46.0011" lon="5.56316">
        <ele>835.8</ele>
        <time>2026-05-10T08:03:33Z</time>
      </trkpt>
      <trkpt lat="46.00112" lon="5.56313">
        <ele>836</ele>
        <time>2026-05-10T08:03:34Z</time>
      </trkpt>
      <trkpt lat="46.00114" lon="5.56309">
        <ele>836.6</ele>
        <time>2026-05-10T08:03:35Z</time>
      </trkpt>
      <trkpt lat="46.00116" lon="5.56305">
        <ele>836.6</ele>
        <time>2026-05-10T08:03:36Z</time>
      </trkpt>
      <trkpt lat="46.00118" lon="5.56301">
        <ele>836.8</ele>
        <time>2026-05-10T08:03:37Z</time>
      </trkpt>
      <trkpt lat="46.0012" lon="5.56297">
        <ele>836.8</ele>
        <time>2026-05-10T08:03:38Z</time>
      </trkpt>
      <trkpt lat="46.00123" lon="5.56294">
        <ele>836.8</ele>
        <time>2026-05-10T08:03:39Z</time>
      </trkpt>
      <trkpt lat="46.00124" lon="5.56291">
        <ele>837.2</ele>
        <time>2026-05-10T08:03:40Z</time>
      </trkpt>
      <trkpt lat="46.00126" lon="5.56287">
        <ele>837.2</ele>
        <time>2026-05-10T08:03:41Z</time>
      </trkpt>
      <trkpt lat="46.00127" lon="5.56284">
        <ele>837.4</ele>
        <time>2026-05-10T08:03:42Z</time>
      </trkpt>
      <trkpt lat="46.00129" lon="5.56281">
        <ele>837.8</ele>
        <time>2026-05-10T08:03:43Z</time>
      </trkpt>
      <trkpt lat="46.00131" lon="5.56277">
        <ele>837.8</ele>
        <time>2026-05-10T08:03:44Z</time>
      </trkpt>
      <trkpt lat="46.00133" lon="5.56274">
        <ele>838.4</ele>
        <time>2026-05-10T08:03:45Z</time>
      </trkpt>
      <trkpt lat="46.00135" lon="5.56271">
        <ele>838.6</ele>
        <time>2026-05-10T08:03:46Z</time>
      </trkpt>
      <trkpt lat="46.00137" lon="5.56268">
        <ele>838.8</ele>
        <time>2026-05-10T08:03:47Z</time>
      </trkpt>
      <trkpt lat="46.00138" lon="5.56266">
        <ele>839.2</ele>
        <time>2026-05-10T08:03:48Z</time>
      </trkpt>
      <trkpt lat="46.0014" lon="5.56264">
        <ele>839.6</ele>
        <time>2026-05-10T08:03:49Z</time>
      </trkpt>
      <trkpt lat="46.00141" lon="5.56262">
        <ele>839.6</ele>
        <time>2026-05-10T08:03:50Z</time>
      </trkpt>
      <trkpt lat="46.00142" lon="5.56261">
        <ele>839.8</ele>
        <time>2026-05-10T08:03:51Z</time>
      </trkpt>
      <trkpt lat="46.00144" lon="5.56258">
        <ele>839.8</ele>
        <time>2026-05-10T08:03:52Z</time>
      </trkpt>
      <trkpt lat="46.00146" lon="5.56256">
        <ele>840</ele>
        <time>2026-05-10T08:03:53Z</time>
      </trkpt>
      <trkpt lat="46.00148" lon="5.56255">
        <ele>840</ele>
        <time>2026-05-10T08:03:54Z</time>
      </trkpt>
      <trkpt lat="46.0015" lon="5.56253">
        <ele>840</ele>
        <time>2026-05-10T08:03:55Z</time>
      </trkpt>
      <trkpt lat="46.00152" lon="5.56252">
        <ele>840.4</ele>
        <time>2026-05-10T08:03:56Z</time>
      </trkpt>
      <trkpt lat="46.00155" lon="5.56251">
        <ele>840.4</ele>
        <time>2026-05-10T08:03:57Z</time>
      </trkpt>
      <trkpt lat="46.00157" lon="5.5625">
        <ele>840.8</ele>
        <time>2026-05-10T08:03:58Z</time>
      </trkpt>
      <trkpt lat="46.00158" lon="5.56249">
        <ele>840.8</ele>
        <time>2026-05-10T08:03:59Z</time>
      </trkpt>
      <trkpt lat="46.0016" lon="5.56249">
        <ele>840.8</ele>
        <time>2026-05-10T08:04:00Z</time>
      </trkpt>
      <trkpt lat="46.00162" lon="5.56248">
        <ele>841.4</ele>
        <time>2026-05-10T08:04:01Z</time>
      </trkpt>
      <trkpt lat="46.00165" lon="5.56248">
        <ele>841.6</ele>
        <time>2026-05-10T08:04:02Z</time>
      </trkpt>
      <trkpt lat="46.00167" lon="5.56249">
        <ele>841.6</ele>
        <time>2026-05-10T08:04:03Z</time>
      </trkpt>
      <trkpt lat="46.00169" lon="5.56248">
        <ele>842</ele>
        <time>2026-05-10T08:04:04Z</time>
      </trkpt>
      <trkpt lat="46.00171" lon="5.56247">
        <ele>842.2</ele>
        <time>2026-05-10T08:04:05Z</time>
      </trkpt>
      <trkpt lat="46.00172" lon="5.56245">
        <ele>842.2</ele>
        <time>2026-05-10T08:04:06Z</time>
      </trkpt>
      <trkpt lat="46.00174" lon="5.56244">
        <ele>842.8</ele>
        <time>2026-05-10T08:04:07Z</time>
      </trkpt>
      <trkpt lat="46.00175" lon="5.56242">
        <ele>843</ele>
        <time>2026-05-10T08:04:08Z</time>
      </trkpt>
      <trkpt lat="46.00177" lon="5.56242">
        <ele>843</ele>
        <time>2026-05-10T08:04:09Z</time>
      </trkpt>
      <trkpt lat="46.00179" lon="5.56242">
        <ele>843.4</ele>
        <time>2026-05-10T08:04:10Z</time>
      </trkpt>
      <trkpt lat="46.0018" lon="5.56242">
        <ele>843.4</ele>
        <time>2026-05-10T08:04:11Z</time>
      </trkpt>
      <trkpt lat="46.00181" lon="5.56242">
        <ele>843.6</ele>
        <time>2026-05-10T08:04:12Z</time>
      </trkpt>
      <trkpt lat="46.00183" lon="5.56242">
        <ele>843.8</ele>
        <time>2026-05-10T08:04:13Z</time>
      </trkpt>
      <trkpt lat="46.00185" lon="5.56241">
        <ele>844.2</ele>
        <time>2026-05-10T08:04:14Z</time>
      </trkpt>
      <trkpt lat="46.00188" lon="5.56241">
        <ele>844.2</ele>
        <time>2026-05-10T08:04:15Z</time>
      </trkpt>
      <trkpt lat="46.0019" lon="5.56241">
        <ele>844.6</ele>
        <time>2026-05-10T08:04:16Z</time>
      </trkpt>
      <trkpt lat="46.00191" lon="5.56241">
        <ele>844.8</ele>
        <time>2026-05-10T08:04:17Z</time>
      </trkpt>
      <trkpt lat="46.00194" lon="5.5624">
        <ele>845.2</ele>
        <time>2026-05-10T08:04:18Z</time>
      </trkpt>
      <trkpt lat="46.00196" lon="5.5624">
        <ele>845.2</ele>
        <time>2026-05-10T08:04:19Z</time>
      </trkpt>
      <trkpt lat="46.00198" lon="5.5624">
        <ele>845.6</ele>
        <time>2026-05-10T08:04:20Z</time>
      </trkpt>
      <trkpt lat="46.002" lon="5.56241">
        <ele>845.8</ele>
        <time>2026-05-10T08:04:21Z</time>
      </trkpt>
      <trkpt lat="46.00202" lon="5.56241">
        <ele>845.8</ele>
        <time>2026-05-10T08:04:22Z</time>
      </trkpt>
      <trkpt lat="46.00205" lon="5.56242">
        <ele>846.2</ele>
        <time>2026-05-10T08:04:23Z</time>
      </trkpt>
      <trkpt lat="46.00207" lon="5.56244">
        <ele>846.2</ele>
        <time>2026-05-10T08:04:24Z</time>
      </trkpt>
      <trkpt lat="46.00209" lon="5.56245">
        <ele>846.6</ele>
        <time>2026-05-10T08:04:25Z</time>
      </trkpt>
      <trkpt lat="46.00211" lon="5.56246">
        <ele>846.6</ele>
        <time>2026-05-10T08:04:26Z</time>
      </trkpt>
      <trkpt lat="46.00214" lon="5.56247">
        <ele>846.8</ele>
        <time>2026-05-10T08:04:27Z</time>
      </trkpt>
      <trkpt lat="46.00215" lon="5.56247">
        <ele>846.8</ele>
        <time>2026-05-10T08:04:28Z</time>
      </trkpt>
      <trkpt lat="46.00217" lon="5.56248">
        <ele>847.4</ele>
        <time>2026-05-10T08:04:29Z</time>
      </trkpt>
      <trkpt lat="46.00218" lon="5.56249">
        <ele>847.4</ele>
        <time>2026-05-10T08:04:30Z</time>
      </trkpt>
      <trkpt lat="46.00219" lon="5.56249">
        <ele>847.8</ele>
        <time>2026-05-10T08:04:31Z</time>
      </trkpt>
      <trkpt lat="46.0022" lon="5.56249">
        <ele>847.8</ele>
        <time>2026-05-10T08:04:32Z</time>
      </trkpt>
      <trkpt lat="46.0022" lon="5.56249">
        <ele>848.2</ele>
        <time>2026-05-10T08:04:33Z</time>
      </trkpt>
      <trkpt lat="46.0022" lon="5.56249">
        <ele>848.4</ele>
        <time>2026-05-10T08:04:34Z</time>
      </trkpt>
      <trkpt lat="46.0022" lon="5.56249">
        <ele>848.4</ele>
        <time>2026-05-10T08:04:35Z</time>
      </trkpt>
      <trkpt lat="46.00228" lon="5.56253">
        <ele>848.8</ele>
        <time>2026-05-10T08:04:36Z</time>
      </trkpt>
      <trkpt lat="46.0023" lon="5.56253">
        <ele>849</ele>
        <time>2026-05-10T08:04:37Z</time>
      </trkpt>
      <trkpt lat="46.00232" lon="5.56254">
        <ele>849.4</ele>
        <time>2026-05-10T08:04:38Z</time>
      </trkpt>
      <trkpt lat="46.00234" lon="5.56254">
        <ele>849.4</ele>
        <time>2026-05-10T08:04:39Z</time>
      </trkpt>
      <trkpt lat="46.00236" lon="5.56255">
        <ele>849.6</ele>
        <time>2026-05-10T08:04:40Z</time>
      </trkpt>
      <trkpt lat="46.00238" lon="5.56255">
        <ele>849.8</ele>
        <time>2026-05-10T08:04:41Z</time>
      </trkpt>
      <trkpt lat="46.0024" lon="5.56256">
        <ele>849.8</ele>
        <time>2026-05-10T08:04:42Z</time>
      </trkpt>
      <trkpt lat="46.00242" lon="5.56256">
        <ele>850.2</ele>
        <time>2026-05-10T08:04:43Z</time>
      </trkpt>
      <trkpt lat="46.00244" lon="5.56257">
        <ele>850.2</ele>
        <time>2026-05-10T08:04:44Z</time>
      </trkpt>
      <trkpt lat="46.00246" lon="5.56257">
        <ele>850.6</ele>
        <time>2026-05-10T08:04:45Z</time>
      </trkpt>
      <trkpt lat="46.00247" lon="5.56258">
        <ele>850.8</ele>
        <time>2026-05-10T08:04:46Z</time>
      </trkpt>
      <trkpt lat="46.0025" lon="5.56258">
        <ele>850.8</ele>
        <time>2026-05-10T08:04:47Z</time>
      </trkpt>
      <trkpt lat="46.00252" lon="5.56258">
        <ele>850.8</ele>
        <time>2026-05-10T08:04:48Z</time>
      </trkpt>
      <trkpt lat="46.00254" lon="5.56258">
        <ele>850.8</ele>
        <time>2026-05-10T08:04:49Z</time>
      </trkpt>
      <trkpt lat="46.00256" lon="5.56258">
        <ele>851.2</ele>
        <time>2026-05-10T08:04:50Z</time>
      </trkpt>
      <trkpt lat="46.00257" lon="5.56257">
        <ele>851.4</ele>
        <time>2026-05-10T08:04:51Z</time>
      </trkpt>
      <trkpt lat="46.00259" lon="5.56256">
        <ele>851.6</ele>
        <time>2026-05-10T08:04:52Z</time>
      </trkpt>
      <trkpt lat="46.0026" lon="5.56255">
        <ele>851.6</ele>
        <time>2026-05-10T08:04:53Z</time>
      </trkpt>
      <trkpt lat="46.00262" lon="5.56254">
        <ele>852</ele>
        <time>2026-05-10T08:04:54Z</time>
      </trkpt>
      <trkpt lat="46.00263" lon="5.56254">
        <ele>852</ele>
        <time>2026-05-10T08:04:55Z</time>
      </trkpt>
      <trkpt lat="46.00264" lon="5.56252">
        <ele>852</ele>
        <time>2026-05-10T08:04:56Z</time>
      </trkpt>
      <trkpt lat="46.00265" lon="5.56251">
        <ele>852.2</ele>
        <time>2026-05-10T08:04:57Z</time>
      </trkpt>
      <trkpt lat="46.00266" lon="5.56251">
        <ele>852.4</ele>
        <time>2026-05-10T08:04:58Z</time>
      </trkpt>
      <trkpt lat="46.00267" lon="5.56251">
        <ele>852.8</ele>
        <time>2026-05-10T08:04:59Z</time>
      </trkpt>
      <trkpt lat="46.00268" lon="5.56249">
        <ele>852.8</ele>
        <time>2026-05-10T08:05:00Z</time>
      </trkpt>
      <trkpt lat="46.00268" lon="5.56249">
        <ele>853</ele>
        <time>2026-05-10T08:05:01Z</time>
      </trkpt>
      <trkpt lat="46.00269" lon="5.56248">
        <ele>853.4</ele>
        <time>2026-05-10T08:05:02Z</time>
      </trkpt>
      <trkpt lat="46.00271" lon="5.56246">
        <ele>853.4</ele>
        <time>2026-05-10T08:05:03Z</time>
      </trkpt>
      <trkpt lat="46.00272" lon="5.56244">
        <ele>853.8</ele>
        <time>2026-05-10T08:05:04Z</time>
      </trkpt>
      <trkpt lat="46.00274" lon="5.56242">
        <ele>853.8</ele>
        <time>2026-05-10T08:05:05Z</time>
      </trkpt>
      <trkpt lat="46.00276" lon="5.56239">
        <ele>854.2</ele>
        <time>2026-05-10T08:05:06Z</time>
      </trkpt>
      <trkpt lat="46.00278" lon="5.56238">
        <ele>854.8</ele>
        <time>2026-05-10T08:05:07Z</time>
      </trkpt>
      <trkpt lat="46.00279" lon="5.56236">
        <ele>854.8</ele>
        <time>2026-05-10T08:05:08Z</time>
      </trkpt>
      <trkpt lat="46.0028" lon="5.56234">
        <ele>854.8</ele>
        <time>2026-05-10T08:05:09Z</time>
      </trkpt>
      <trkpt lat="46.00281" lon="5.56232">
        <ele>855</ele>
        <time>2026-05-10T08:05:10Z</time>
      </trkpt>
      <trkpt lat="46.00283" lon="5.56231">
        <ele>855.4</ele>
        <time>2026-05-10T08:05:11Z</time>
      </trkpt>
      <trkpt lat="46.00285" lon="5.56229">
        <ele>855.4</ele>
        <time>2026-05-10T08:05:12Z</time>
      </trkpt>
      <trkpt lat="46.00286" lon="5.56227">
        <ele>855.6</ele>
        <time>2026-05-10T08:05:13Z</time>
      </trkpt>
      <trkpt lat="46.00288" lon="5.56224">
        <ele>855.8</ele>
        <time>2026-05-10T08:05:14Z</time>
      </trkpt>
      <trkpt lat="46.0029" lon="5.56222">
        <ele>856.2</ele>
        <time>2026-05-10T08:05:15Z</time>
      </trkpt>
      <trkpt lat="46.00291" lon="5.56219">
        <ele>856.6</ele>
        <time>2026-05-10T08:05:16Z</time>
      </trkpt>
      <trkpt lat="46.00292" lon="5.56217">
        <ele>856.8</ele>
        <time>2026-05-10T08:05:17Z</time>
      </trkpt>
      <trkpt lat="46.00293" lon="5.56214">
        <ele>857</ele>
        <time>2026-05-10T08:05:18Z</time>
      </trkpt>
      <trkpt lat="46.00294" lon="5.56211">
        <ele>857</ele>
        <time>2026-05-10T08:05:19Z</time>
      </trkpt>
      <trkpt lat="46.00296" lon="5.56209">
        <ele>857</ele>
        <time>2026-05-10T08:05:20Z</time>
      </trkpt>
      <trkpt lat="46.00297" lon="5.56206">
        <ele>857</ele>
        <time>2026-05-10T08:05:21Z</time>
      </trkpt>
      <trkpt lat="46.00298" lon="5.56203">
        <ele>857.4</ele>
        <time>2026-05-10T08:05:22Z</time>
      </trkpt>
      <trkpt lat="46.00299" lon="5.56201">
        <ele>857.4</ele>
        <time>2026-05-10T08:05:23Z</time>
      </trkpt>
      <trkpt lat="46.003" lon="5.56198">
        <ele>857.6</ele>
        <time>2026-05-10T08:05:24Z</time>
      </trkpt>
      <trkpt lat="46.00301" lon="5.56195">
        <ele>857.6</ele>
        <time>2026-05-10T08:05:25Z</time>
      </trkpt>
      <trkpt lat="46.00302" lon="5.56192">
        <ele>857.6</ele>
        <time>2026-05-10T08:05:26Z</time>
      </trkpt>
      <trkpt lat="46.00303" lon="5.56189">
        <ele>857.8</ele>
        <time>2026-05-10T08:05:27Z</time>
      </trkpt>
      <trkpt lat="46.00304" lon="5.56186">
        <ele>858</ele>
        <time>2026-05-10T08:05:28Z</time>
      </trkpt>
      <trkpt lat="46.00305" lon="5.56183">
        <ele>858</ele>
        <time>2026-05-10T08:05:29Z</time>
      </trkpt>
      <trkpt lat="46.00306" lon="5.56179">
        <ele>858</ele>
        <time>2026-05-10T08:05:30Z</time>
      </trkpt>
      <trkpt lat="46.00306" lon="5.56176">
        <ele>858</ele>
        <time>2026-05-10T08:05:31Z</time>
      </trkpt>
      <trkpt lat="46.00307" lon="5.56172">
        <ele>858.2</ele>
        <time>2026-05-10T08:05:32Z</time>
      </trkpt>
      <trkpt lat="46.00307" lon="5.56169">
        <ele>858.2</ele>
        <time>2026-05-10T08:05:33Z</time>
      </trkpt>
      <trkpt lat="46.00307" lon="5.56166">
        <ele>858.6</ele>
        <time>2026-05-10T08:05:34Z</time>
      </trkpt>
      <trkpt lat="46.00307" lon="5.56164">
        <ele>858.6</ele>
        <time>2026-05-10T08:05:35Z</time>
      </trkpt>
      <trkpt lat="46.00307" lon="5.5616">
        <ele>858.6</ele>
        <time>2026-05-10T08:05:36Z</time>
      </trkpt>
      <trkpt lat="46.00307" lon="5.56156">
        <ele>858.6</ele>
        <time>2026-05-10T08:05:37Z</time>
      </trkpt>
      <trkpt lat="46.00306" lon="5.56152">
        <ele>858.8</ele>
        <time>2026-05-10T08:05:38Z</time>
      </trkpt>
      <trkpt lat="46.00306" lon="5.56148">
        <ele>858.8</ele>
        <time>2026-05-10T08:05:39Z</time>
      </trkpt>
      <trkpt lat="46.00305" lon="5.56144">
        <ele>858.4</ele>
        <time>2026-05-10T08:05:40Z</time>
      </trkpt>
      <trkpt lat="46.00303" lon="5.5614">
        <ele>858.4</ele>
        <time>2026-05-10T08:05:41Z</time>
      </trkpt>
      <trkpt lat="46.00302" lon="5.56135">
        <ele>858.8</ele>
        <time>2026-05-10T08:05:42Z</time>
      </trkpt>
      <trkpt lat="46.00301" lon="5.56131">
        <ele>858.8</ele>
        <time>2026-05-10T08:05:43Z</time>
      </trkpt>
      <trkpt lat="46.003" lon="5.56128">
        <ele>858.8</ele>
        <time>2026-05-10T08:05:44Z</time>
      </trkpt>
      <trkpt lat="46.00299" lon="5.56124">
        <ele>859</ele>
        <time>2026-05-10T08:05:45Z</time>
      </trkpt>
      <trkpt lat="46.00299" lon="5.5612">
        <ele>859</ele>
        <time>2026-05-10T08:05:46Z</time>
      </trkpt>
      <trkpt lat="46.00297" lon="5.56117">
        <ele>859</ele>
        <time>2026-05-10T08:05:47Z</time>
      </trkpt>
      <trkpt lat="46.00296" lon="5.56113">
        <ele>859.2</ele>
        <time>2026-05-10T08:05:48Z</time>
      </trkpt>
      <trkpt lat="46.00294" lon="5.56111">
        <ele>859.4</ele>
        <time>2026-05-10T08:05:49Z</time>
      </trkpt>
      <trkpt lat="46.00293" lon="5.56108">
        <ele>859.8</ele>
        <time>2026-05-10T08:05:50Z</time>
      </trkpt>
      <trkpt lat="46.00291" lon="5.56105">
        <ele>859.8</ele>
        <time>2026-05-10T08:05:51Z</time>
      </trkpt>
      <trkpt lat="46.00289" lon="5.56103">
        <ele>860</ele>
        <time>2026-05-10T08:05:52Z</time>
      </trkpt>
      <trkpt lat="46.00287" lon="5.561">
        <ele>860</ele>
        <time>2026-05-10T08:05:53Z</time>
      </trkpt>
      <trkpt lat="46.00285" lon="5.56097">
        <ele>860</ele>
        <time>2026-05-10T08:05:54Z</time>
      </trkpt>
      <trkpt lat="46.00283" lon="5.56094">
        <ele>860</ele>
        <time>2026-05-10T08:05:55Z</time>
      </trkpt>
      <trkpt lat="46.00281" lon="5.56092">
        <ele>860.4</ele>
        <time>2026-05-10T08:05:56Z</time>
      </trkpt>
      <trkpt lat="46.00279" lon="5.56089">
        <ele>860.4</ele>
        <time>2026-05-10T08:05:57Z</time>
      </trkpt>
      <trkpt lat="46.00277" lon="5.56087">
        <ele>860.6</ele>
        <time>2026-05-10T08:05:58Z</time>
      </trkpt>
      <trkpt lat="46.00276" lon="5.56084">
        <ele>860.6</ele>
        <time>2026-05-10T08:05:59Z</time>
      </trkpt>
      <trkpt lat="46.00275" lon="5.56081">
        <ele>860.8</ele>
        <time>2026-05-10T08:06:00Z</time>
      </trkpt>
      <trkpt lat="46.00274" lon="5.56078">
        <ele>860.8</ele>
        <time>2026-05-10T08:06:01Z</time>
      </trkpt>
      <trkpt lat="46.00272" lon="5.56075">
        <ele>860.8</ele>
        <time>2026-05-10T08:06:02Z</time>
      </trkpt>
      <trkpt lat="46.00272" lon="5.56072">
        <ele>861.2</ele>
        <time>2026-05-10T08:06:03Z</time>
      </trkpt>
      <trkpt lat="46.00272" lon="5.56069">
        <ele>861.2</ele>
        <time>2026-05-10T08:06:04Z</time>
      </trkpt>
      <trkpt lat="46.00271" lon="5.56065">
        <ele>861.4</ele>
        <time>2026-05-10T08:06:05Z</time>
      </trkpt>
      <trkpt lat="46.00271" lon="5.56062">
        <ele>861.4</ele>
        <time>2026-05-10T08:06:06Z</time>
      </trkpt>
      <trkpt lat="46.00271" lon="5.56058">
        <ele>861.6</ele>
        <time>2026-05-10T08:06:07Z</time>
      </trkpt>
      <trkpt lat="46.00271" lon="5.56055">
        <ele>861.6</ele>
        <time>2026-05-10T08:06:08Z</time>
      </trkpt>
      <trkpt lat="46.00272" lon="5.56051">
        <ele>861.6</ele>
        <time>2026-05-10T08:06:09Z</time>
      </trkpt>
      <trkpt lat="46.00272" lon="5.56048">
        <ele>862.2</ele>
        <time>2026-05-10T08:06:10Z</time>
      </trkpt>
      <trkpt lat="46.00272" lon="5.56044">
        <ele>862.4</ele>
        <time>2026-05-10T08:06:11Z</time>
      </trkpt>
      <trkpt lat="46.00273" lon="5.56041">
        <ele>862.4</ele>
        <time>2026-05-10T08:06:12Z</time>
      </trkpt>
      <trkpt lat="46.00274" lon="5.56037">
        <ele>862.4</ele>
        <time>2026-05-10T08:06:13Z</time>
      </trkpt>
      <trkpt lat="46.00275" lon="5.56034">
        <ele>862.4</ele>
        <time>2026-05-10T08:06:14Z</time>
      </trkpt>
      <trkpt lat="46.00277" lon="5.56031">
        <ele>862.6</ele>
        <time>2026-05-10T08:06:15Z</time>
      </trkpt>
      <trkpt lat="46.00278" lon="5.56028">
        <ele>862.6</ele>
        <time>2026-05-10T08:06:16Z</time>
      </trkpt>
      <trkpt lat="46.00279" lon="5.56025">
        <ele>862.6</ele>
        <time>2026-05-10T08:06:17Z</time>
      </trkpt>
      <trkpt lat="46.0028" lon="5.56021">
        <ele>862.6</ele>
        <time>2026-05-10T08:06:18Z</time>
      </trkpt>
      <trkpt lat="46.00282" lon="5.56018">
        <ele>862.6</ele>
        <time>2026-05-10T08:06:19Z</time>
      </trkpt>
      <trkpt lat="46.00283" lon="5.56015">
        <ele>863</ele>
        <time>2026-05-10T08:06:20Z</time>
      </trkpt>
      <trkpt lat="46.00283" lon="5.56015">
        <ele>863</ele>
        <time>2026-05-10T08:06:21Z</time>
      </trkpt>
      <trkpt lat="46.00286" lon="5.56009">
        <ele>863.4</ele>
        <time>2026-05-10T08:06:22Z</time>
      </trkpt>
      <trkpt lat="46.00288" lon="5.56006">
        <ele>863.4</ele>
        <time>2026-05-10T08:06:23Z</time>
      </trkpt>
      <trkpt lat="46.00289" lon="5.56002">
        <ele>863.2</ele>
        <time>2026-05-10T08:06:24Z</time>
      </trkpt>
      <trkpt lat="46.00291" lon="5.55998">
        <ele>863.2</ele>
        <time>2026-05-10T08:06:25Z</time>
      </trkpt>
      <trkpt lat="46.00292" lon="5.55994">
        <ele>863.2</ele>
        <time>2026-05-10T08:06:26Z</time>
      </trkpt>
      <trkpt lat="46.00294" lon="5.5599">
        <ele>863.2</ele>
        <time>2026-05-10T08:06:27Z</time>
      </trkpt>
      <trkpt lat="46.00295" lon="5.55987">
        <ele>863.2</ele>
        <time>2026-05-10T08:06:28Z</time>
      </trkpt>
      <trkpt lat="46.00297" lon="5.55983">
        <ele>863.2</ele>
        <time>2026-05-10T08:06:29Z</time>
      </trkpt>
      <trkpt lat="46.00299" lon="5.55979">
        <ele>863.2</ele>
        <time>2026-05-10T08:06:30Z</time>
      </trkpt>
      <trkpt lat="46.00301" lon="5.55975">
        <ele>863.2</ele>
        <time>2026-05-10T08:06:31Z</time>
      </trkpt>
      <trkpt lat="46.00304" lon="5.55972">
        <ele>863.2</ele>
        <time>2026-05-10T08:06:32Z</time>
      </trkpt>
      <trkpt lat="46.00306" lon="5.55968">
        <ele>863.2</ele>
        <time>2026-05-10T08:06:33Z</time>
      </trkpt>
      <trkpt lat="46.00308" lon="5.55964">
        <ele>863.2</ele>
        <time>2026-05-10T08:06:34Z</time>
      </trkpt>
      <trkpt lat="46.0031" lon="5.55961">
        <ele>863.2</ele>
        <time>2026-05-10T08:06:35Z</time>
      </trkpt>
      <trkpt lat="46.00311" lon="5.55958">
        <ele>863.2</ele>
        <time>2026-05-10T08:06:36Z</time>
      </trkpt>
      <trkpt lat="46.00313" lon="5.55953">
        <ele>863.4</ele>
        <time>2026-05-10T08:06:37Z</time>
      </trkpt>
      <trkpt lat="46.00315" lon="5.55949">
        <ele>863.4</ele>
        <time>2026-05-10T08:06:38Z</time>
      </trkpt>
      <trkpt lat="46.00316" lon="5.55944">
        <ele>863</ele>
        <time>2026-05-10T08:06:39Z</time>
      </trkpt>
      <trkpt lat="46.00318" lon="5.55941">
        <ele>862.8</ele>
        <time>2026-05-10T08:06:40Z</time>
      </trkpt>
      <trkpt lat="46.00318" lon="5.55938">
        <ele>862.8</ele>
        <time>2026-05-10T08:06:41Z</time>
      </trkpt>
      <trkpt lat="46.0032" lon="5.55929">
        <ele>862.6</ele>
        <time>2026-05-10T08:06:42Z</time>
      </trkpt>
      <trkpt lat="46.00321" lon="5.55924">
        <ele>862.4</ele>
        <time>2026-05-10T08:06:43Z</time>
      </trkpt>
      <trkpt lat="46.00323" lon="5.5592">
        <ele>862.4</ele>
        <time>2026-05-10T08:06:44Z</time>
      </trkpt>
      <trkpt lat="46.00325" lon="5.55913">
        <ele>862.4</ele>
        <time>2026-05-10T08:06:45Z</time>
      </trkpt>
      <trkpt lat="46.00327" lon="5.5591">
        <ele>862.2</ele>
        <time>2026-05-10T08:06:46Z</time>
      </trkpt>
      <trkpt lat="46.00326" lon="5.55904">
        <ele>862.2</ele>
        <time>2026-05-10T08:06:47Z</time>
      </trkpt>
      <trkpt lat="46.00329" lon="5.55898">
        <ele>862</ele>
        <time>2026-05-10T08:06:48Z</time>
      </trkpt>
      <trkpt lat="46.00331" lon="5.55892">
        <ele>862</ele>
        <time>2026-05-10T08:06:49Z</time>
      </trkpt>
      <trkpt lat="46.00334" lon="5.55889">
        <ele>861.2</ele>
        <time>2026-05-10T08:06:50Z</time>
      </trkpt>
      <trkpt lat="46.00333" lon="5.55882">
        <ele>860.8</ele>
        <time>2026-05-10T08:06:51Z</time>
      </trkpt>
      <trkpt lat="46.00333" lon="5.55876">
        <ele>860.4</ele>
        <time>2026-05-10T08:06:52Z</time>
      </trkpt>
      <trkpt lat="46.0034" lon="5.55867">
        <ele>860.4</ele>
        <time>2026-05-10T08:06:53Z</time>
      </trkpt>
      <trkpt lat="46.00343" lon="5.55861">
        <ele>860</ele>
        <time>2026-05-10T08:06:54Z</time>
      </trkpt>
      <trkpt lat="46.00348" lon="5.55857">
        <ele>859.8</ele>
        <time>2026-05-10T08:06:55Z</time>
      </trkpt>
      <trkpt lat="46.00351" lon="5.55853">
        <ele>859.8</ele>
        <time>2026-05-10T08:06:56Z</time>
      </trkpt>
      <trkpt lat="46.00355" lon="5.55849">
        <ele>859.8</ele>
        <time>2026-05-10T08:06:57Z</time>
      </trkpt>
      <trkpt lat="46.00361" lon="5.55853">
        <ele>859.2</ele>
        <time>2026-05-10T08:06:58Z</time>
      </trkpt>
      <trkpt lat="46.00365" lon="5.5585">
        <ele>859.2</ele>
        <time>2026-05-10T08:06:59Z</time>
      </trkpt>
      <trkpt lat="46.0037" lon="5.55851">
        <ele>859.2</ele>
        <time>2026-05-10T08:07:00Z</time>
      </trkpt>
      <trkpt lat="46.00374" lon="5.55853">
        <ele>859.6</ele>
        <time>2026-05-10T08:07:01Z</time>
      </trkpt>
      <trkpt lat="46.0038" lon="5.55857">
        <ele>860.4</ele>
        <time>2026-05-10T08:07:02Z</time>
      </trkpt>
      <trkpt lat="46.00384" lon="5.55857">
        <ele>860.4</ele>
        <time>2026-05-10T08:07:03Z</time>
      </trkpt>
      <trkpt lat="46.00388" lon="5.55858">
        <ele>860.4</ele>
        <time>2026-05-10T08:07:04Z</time>
      </trkpt>
      <trkpt lat="46.00396" lon="5.55856">
        <ele>860.4</ele>
        <time>2026-05-10T08:07:05Z</time>
      </trkpt>
      <trkpt lat="46.00398" lon="5.55859">
        <ele>860.4</ele>
        <time>2026-05-10T08:07:06Z</time>
      </trkpt>
      <trkpt lat="46.00404" lon="5.55858">
        <ele>860.6</ele>
        <time>2026-05-10T08:07:07Z</time>
      </trkpt>
      <trkpt lat="46.00406" lon="5.55859">
        <ele>860.6</ele>
        <time>2026-05-10T08:07:08Z</time>
      </trkpt>
      <trkpt lat="46.00411" lon="5.55859">
        <ele>860.8</ele>
        <time>2026-05-10T08:07:09Z</time>
      </trkpt>
      <trkpt lat="46.00415" lon="5.5586">
        <ele>861.4</ele>
        <time>2026-05-10T08:07:10Z</time>
      </trkpt>
      <trkpt lat="46.00418" lon="5.55861">
        <ele>861.4</ele>
        <time>2026-05-10T08:07:11Z</time>
      </trkpt>
      <trkpt lat="46.00423" lon="5.55861">
        <ele>861.8</ele>
        <time>2026-05-10T08:07:12Z</time>
      </trkpt>
      <trkpt lat="46.00426" lon="5.5586">
        <ele>861.8</ele>
        <time>2026-05-10T08:07:13Z</time>
      </trkpt>
      <trkpt lat="46.00429" lon="5.5586">
        <ele>861.6</ele>
        <time>2026-05-10T08:07:14Z</time>
      </trkpt>
      <trkpt lat="46.00431" lon="5.55859">
        <ele>861.6</ele>
        <time>2026-05-10T08:07:15Z</time>
      </trkpt>
      <trkpt lat="46.00435" lon="5.5586">
        <ele>861.8</ele>
        <time>2026-05-10T08:07:16Z</time>
      </trkpt>
      <trkpt lat="46.00438" lon="5.55862">
        <ele>861.8</ele>
        <time>2026-05-10T08:07:17Z</time>
      </trkpt>
      <trkpt lat="46.00442" lon="5.55862">
        <ele>862.2</ele>
        <time>2026-05-10T08:07:18Z</time>
      </trkpt>
      <trkpt lat="46.00446" lon="5.55863">
        <ele>862.2</ele>
        <time>2026-05-10T08:07:19Z</time>
      </trkpt>
      <trkpt lat="46.00449" lon="5.55863">
        <ele>862.6</ele>
        <time>2026-05-10T08:07:20Z</time>
      </trkpt>
      <trkpt lat="46.00449" lon="5.55863">
        <ele>862.6</ele>
        <time>2026-05-10T08:07:21Z</time>
      </trkpt>
      <trkpt lat="46.00453" lon="5.55864">
        <ele>862.8</ele>
        <time>2026-05-10T08:07:22Z</time>
      </trkpt>
      <trkpt lat="46.00457" lon="5.55865">
        <ele>862.8</ele>
        <time>2026-05-10T08:07:23Z</time>
      </trkpt>
      <trkpt lat="46.00461" lon="5.55865">
        <ele>862.8</ele>
        <time>2026-05-10T08:07:24Z</time>
      </trkpt>
      <trkpt lat="46.00465" lon="5.55865">
        <ele>863</ele>
        <time>2026-05-10T08:07:25Z</time>
      </trkpt>
      <trkpt lat="46.00468" lon="5.55866">
        <ele>863.4</ele>
        <time>2026-05-10T08:07:26Z</time>
      </trkpt>
      <trkpt lat="46.00471" lon="5.55867">
        <ele>863.4</ele>
        <time>2026-05-10T08:07:27Z</time>
      </trkpt>
      <trkpt lat="46.00474" lon="5.55868">
        <ele>863.6</ele>
        <time>2026-05-10T08:07:28Z</time>
      </trkpt>
      <trkpt lat="46.00478" lon="5.5587">
        <ele>863.6</ele>
        <time>2026-05-10T08:07:29Z</time>
      </trkpt>
      <trkpt lat="46.00481" lon="5.5587">
        <ele>863.6</ele>
        <time>2026-05-10T08:07:30Z</time>
      </trkpt>
      <trkpt lat="46.00485" lon="5.55871">
        <ele>863.8</ele>
        <time>2026-05-10T08:07:31Z</time>
      </trkpt>
      <trkpt lat="46.00488" lon="5.55872">
        <ele>863.8</ele>
        <time>2026-05-10T08:07:32Z</time>
      </trkpt>
      <trkpt lat="46.00492" lon="5.55873">
        <ele>864.4</ele>
        <time>2026-05-10T08:07:33Z</time>
      </trkpt>
      <trkpt lat="46.00495" lon="5.55874">
        <ele>864.4</ele>
        <time>2026-05-10T08:07:34Z</time>
      </trkpt>
      <trkpt lat="46.00499" lon="5.55875">
        <ele>864.8</ele>
        <time>2026-05-10T08:07:35Z</time>
      </trkpt>
      <trkpt lat="46.00502" lon="5.55875">
        <ele>864.8</ele>
        <time>2026-05-10T08:07:36Z</time>
      </trkpt>
      <trkpt lat="46.00505" lon="5.55875">
        <ele>864.8</ele>
        <time>2026-05-10T08:07:37Z</time>
      </trkpt>
      <trkpt lat="46.00508" lon="5.55876">
        <ele>864.8</ele>
        <time>2026-05-10T08:07:38Z</time>
      </trkpt>
      <trkpt lat="46.00511" lon="5.55876">
        <ele>864.8</ele>
        <time>2026-05-10T08:07:39Z</time>
      </trkpt>
      <trkpt lat="46.00515" lon="5.55876">
        <ele>864.8</ele>
        <time>2026-05-10T08:07:40Z</time>
      </trkpt>
      <trkpt lat="46.00519" lon="5.55876">
        <ele>865</ele>
        <time>2026-05-10T08:07:41Z</time>
      </trkpt>
      <trkpt lat="46.00524" lon="5.55876">
        <ele>865.4</ele>
        <time>2026-05-10T08:07:42Z</time>
      </trkpt>
      <trkpt lat="46.00528" lon="5.55876">
        <ele>865.4</ele>
        <time>2026-05-10T08:07:43Z</time>
      </trkpt>
      <trkpt lat="46.00532" lon="5.55876">
        <ele>865.4</ele>
        <time>2026-05-10T08:07:44Z</time>
      </trkpt>
      <trkpt lat="46.00536" lon="5.55877">
        <ele>865.4</ele>
        <time>2026-05-10T08:07:45Z</time>
      </trkpt>
      <trkpt lat="46.0054" lon="5.55877">
        <ele>865.6</ele>
        <time>2026-05-10T08:07:46Z</time>
      </trkpt>
      <trkpt lat="46.00543" lon="5.55877">
        <ele>865.6</ele>
        <time>2026-05-10T08:07:47Z</time>
      </trkpt>
      <trkpt lat="46.00547" lon="5.55877">
        <ele>865.8</ele>
        <time>2026-05-10T08:07:48Z</time>
      </trkpt>
      <trkpt lat="46.00551" lon="5.55877">
        <ele>865.6</ele>
        <time>2026-05-10T08:07:49Z</time>
      </trkpt>
      <trkpt lat="46.00555" lon="5.55877">
        <ele>865.8</ele>
        <time>2026-05-10T08:07:50Z</time>
      </trkpt>
      <trkpt lat="46.00559" lon="5.55877">
        <ele>865.8</ele>
        <time>2026-05-10T08:07:51Z</time>
      </trkpt>
      <trkpt lat="46.00562" lon="5.55877">
        <ele>866.2</ele>
        <time>2026-05-10T08:07:52Z</time>
      </trkpt>
      <trkpt lat="46.00566" lon="5.55877">
        <ele>866.2</ele>
        <time>2026-05-10T08:07:53Z</time>
      </trkpt>
      <trkpt lat="46.0057" lon="5.55877">
        <ele>866.4</ele>
        <time>2026-05-10T08:07:54Z</time>
      </trkpt>
      <trkpt lat="46.00574" lon="5.55877">
        <ele>866.4</ele>
        <time>2026-05-10T08:07:55Z</time>
      </trkpt>
      <trkpt lat="46.00578" lon="5.55876">
        <ele>866.4</ele>
        <time>2026-05-10T08:07:56Z</time>
      </trkpt>
      <trkpt lat="46.00582" lon="5.55876">
        <ele>866.4</ele>
        <time>2026-05-10T08:07:57Z</time>
      </trkpt>
      <trkpt lat="46.00586" lon="5.55876">
        <ele>866.4</ele>
        <time>2026-05-10T08:07:58Z</time>
      </trkpt>
      <trkpt lat="46.0059" lon="5.55876">
        <ele>866.8</ele>
        <time>2026-05-10T08:07:59Z</time>
      </trkpt>
      <trkpt lat="46.00593" lon="5.55876">
        <ele>866.8</ele>
        <time>2026-05-10T08:08:00Z</time>
      </trkpt>
      <trkpt lat="46.00596" lon="5.55876">
        <ele>866.8</ele>
        <time>2026-05-10T08:08:01Z</time>
      </trkpt>
      <trkpt lat="46.00599" lon="5.55877">
        <ele>866.8</ele>
        <time>2026-05-10T08:08:02Z</time>
      </trkpt>
      <trkpt lat="46.00601" lon="5.55878">
        <ele>866.8</ele>
        <time>2026-05-10T08:08:03Z</time>
      </trkpt>
      <trkpt lat="46.00605" lon="5.55879">
        <ele>866.8</ele>
        <time>2026-05-10T08:08:04Z</time>
      </trkpt>
      <trkpt lat="46.00611" lon="5.55878">
        <ele>867</ele>
        <time>2026-05-10T08:08:05Z</time>
      </trkpt>
      <trkpt lat="46.00614" lon="5.55879">
        <ele>867</ele>
        <time>2026-05-10T08:08:06Z</time>
      </trkpt>
      <trkpt lat="46.00618" lon="5.55879">
        <ele>867</ele>
        <time>2026-05-10T08:08:07Z</time>
      </trkpt>
      <trkpt lat="46.00623" lon="5.55876">
        <ele>867</ele>
        <time>2026-05-10T08:08:08Z</time>
      </trkpt>
      <trkpt lat="46.00626" lon="5.55877">
        <ele>866.6</ele>
        <time>2026-05-10T08:08:09Z</time>
      </trkpt>
      <trkpt lat="46.00631" lon="5.55877">
        <ele>866.6</ele>
        <time>2026-05-10T08:08:10Z</time>
      </trkpt>
      <trkpt lat="46.00634" lon="5.55877">
        <ele>866.2</ele>
        <time>2026-05-10T08:08:11Z</time>
      </trkpt>
      <trkpt lat="46.00638" lon="5.55878">
        <ele>866.2</ele>
        <time>2026-05-10T08:08:12Z</time>
      </trkpt>
      <trkpt lat="46.00644" lon="5.55879">
        <ele>865.8</ele>
        <time>2026-05-10T08:08:13Z</time>
      </trkpt>
      <trkpt lat="46.00649" lon="5.55878">
        <ele>865.8</ele>
        <time>2026-05-10T08:08:14Z</time>
      </trkpt>
      <trkpt lat="46.00653" lon="5.5588">
        <ele>865.4</ele>
        <time>2026-05-10T08:08:15Z</time>
      </trkpt>
      <trkpt lat="46.00657" lon="5.55881">
        <ele>865.2</ele>
        <time>2026-05-10T08:08:16Z</time>
      </trkpt>
      <trkpt lat="46.00661" lon="5.55883">
        <ele>864.8</ele>
        <time>2026-05-10T08:08:17Z</time>
      </trkpt>
      <trkpt lat="46.00668" lon="5.55884">
        <ele>864.8</ele>
        <time>2026-05-10T08:08:18Z</time>
      </trkpt>
      <trkpt lat="46.00673" lon="5.55885">
        <ele>864.2</ele>
        <time>2026-05-10T08:08:19Z</time>
      </trkpt>
      <trkpt lat="46.0068" lon="5.55889">
        <ele>863.6</ele>
        <time>2026-05-10T08:08:20Z</time>
      </trkpt>
      <trkpt lat="46.00686" lon="5.5589">
        <ele>863</ele>
        <time>2026-05-10T08:08:21Z</time>
      </trkpt>
      <trkpt lat="46.00693" lon="5.55892">
        <ele>862.4</ele>
        <time>2026-05-10T08:08:22Z</time>
      </trkpt>
      <trkpt lat="46.007" lon="5.55895">
        <ele>862.2</ele>
        <time>2026-05-10T08:08:23Z</time>
      </trkpt>
      <trkpt lat="46.00706" lon="5.55896">
        <ele>861.8</ele>
        <time>2026-05-10T08:08:24Z</time>
      </trkpt>
      <trkpt lat="46.00713" lon="5.55901">
        <ele>862</ele>
        <time>2026-05-10T08:08:25Z</time>
      </trkpt>
      <trkpt lat="46.00721" lon="5.55905">
        <ele>861.6</ele>
        <time>2026-05-10T08:08:26Z</time>
      </trkpt>
      <trkpt lat="46.00729" lon="5.55907">
        <ele>861.2</ele>
        <time>2026-05-10T08:08:27Z</time>
      </trkpt>
      <trkpt lat="46.00734" lon="5.55913">
        <ele>860.2</ele>
        <time>2026-05-10T08:08:28Z</time>
      </trkpt>
      <trkpt lat="46.0074" lon="5.55917">
        <ele>860.2</ele>
        <time>2026-05-10T08:08:29Z</time>
      </trkpt>
      <trkpt lat="46.00745" lon="5.5592">
        <ele>859.8</ele>
        <time>2026-05-10T08:08:30Z</time>
      </trkpt>
      <trkpt lat="46.00753" lon="5.55923">
        <ele>859.2</ele>
        <time>2026-05-10T08:08:31Z</time>
      </trkpt>
      <trkpt lat="46.00762" lon="5.55926">
        <ele>858.8</ele>
        <time>2026-05-10T08:08:32Z</time>
      </trkpt>
      <trkpt lat="46.0077" lon="5.55929">
        <ele>858.4</ele>
        <time>2026-05-10T08:08:33Z</time>
      </trkpt>
      <trkpt lat="46.00778" lon="5.55931">
        <ele>858.2</ele>
        <time>2026-05-10T08:08:34Z</time>
      </trkpt>
      <trkpt lat="46.00786" lon="5.55935">
        <ele>858</ele>
        <time>2026-05-10T08:08:35Z</time>
      </trkpt>
      <trkpt lat="46.00794" lon="5.55939">
        <ele>857.4</ele>
        <time>2026-05-10T08:08:36Z</time>
      </trkpt>
      <trkpt lat="46.00801" lon="5.55943">
        <ele>857</ele>
        <time>2026-05-10T08:08:37Z</time>
      </trkpt>
      <trkpt lat="46.00809" lon="5.55948">
        <ele>856.6</ele>
        <time>2026-05-10T08:08:38Z</time>
      </trkpt>
      <trkpt lat="46.00816" lon="5.55953">
        <ele>856.6</ele>
        <time>2026-05-10T08:08:39Z</time>
      </trkpt>
      <trkpt lat="46.00824" lon="5.55959">
        <ele>856.4</ele>
        <time>2026-05-10T08:08:40Z</time>
      </trkpt>
      <trkpt lat="46.00831" lon="5.55966">
        <ele>856</ele>
        <time>2026-05-10T08:08:41Z</time>
      </trkpt>
      <trkpt lat="46.00838" lon="5.55972">
        <ele>856</ele>
        <time>2026-05-10T08:08:42Z</time>
      </trkpt>
      <trkpt lat="46.00844" lon="5.55978">
        <ele>856.2</ele>
        <time>2026-05-10T08:08:43Z</time>
      </trkpt>
      <trkpt lat="46.00849" lon="5.55984">
        <ele>855.8</ele>
        <time>2026-05-10T08:08:44Z</time>
      </trkpt>
      <trkpt lat="46.00856" lon="5.55991">
        <ele>855.4</ele>
        <time>2026-05-10T08:08:45Z</time>
      </trkpt>
      <trkpt lat="46.00861" lon="5.55998">
        <ele>855.2</ele>
        <time>2026-05-10T08:08:46Z</time>
      </trkpt>
      <trkpt lat="46.00867" lon="5.56005">
        <ele>854.8</ele>
        <time>2026-05-10T08:08:47Z</time>
      </trkpt>
      <trkpt lat="46.00873" lon="5.56011">
        <ele>854.4</ele>
        <time>2026-05-10T08:08:48Z</time>
      </trkpt>
      <trkpt lat="46.0088" lon="5.56016">
        <ele>854.4</ele>
        <time>2026-05-10T08:08:49Z</time>
      </trkpt>
      <trkpt lat="46.00887" lon="5.56022">
        <ele>854</ele>
        <time>2026-05-10T08:08:50Z</time>
      </trkpt>
      <trkpt lat="46.00895" lon="5.56028">
        <ele>853.8</ele>
        <time>2026-05-10T08:08:51Z</time>
      </trkpt>
      <trkpt lat="46.00903" lon="5.56034">
        <ele>853.8</ele>
        <time>2026-05-10T08:08:52Z</time>
      </trkpt>
      <trkpt lat="46.0091" lon="5.56039">
        <ele>853.4</ele>
        <time>2026-05-10T08:08:53Z</time>
      </trkpt>
      <trkpt lat="46.00915" lon="5.56045">
        <ele>853</ele>
        <time>2026-05-10T08:08:54Z</time>
      </trkpt>
      <trkpt lat="46.00922" lon="5.56051">
        <ele>852.2</ele>
        <time>2026-05-10T08:08:55Z</time>
      </trkpt>
      <trkpt lat="46.00931" lon="5.56057">
        <ele>851.8</ele>
        <time>2026-05-10T08:08:56Z</time>
      </trkpt>
      <trkpt lat="46.00938" lon="5.56063">
        <ele>851.4</ele>
        <time>2026-05-10T08:08:57Z</time>
      </trkpt>
      <trkpt lat="46.00945" lon="5.56068">
        <ele>851</ele>
        <time>2026-05-10T08:08:58Z</time>
      </trkpt>
      <trkpt lat="46.00952" lon="5.56074">
        <ele>850.8</ele>
        <time>2026-05-10T08:08:59Z</time>
      </trkpt>
      <trkpt lat="46.00961" lon="5.56079">
        <ele>850.6</ele>
        <time>2026-05-10T08:09:00Z</time>
      </trkpt>
      <trkpt lat="46.00969" lon="5.56085">
        <ele>850.2</ele>
        <time>2026-05-10T08:09:01Z</time>
      </trkpt>
      <trkpt lat="46.00974" lon="5.56091">
        <ele>849.6</ele>
        <time>2026-05-10T08:09:02Z</time>
      </trkpt>
      <trkpt lat="46.00981" lon="5.56096">
        <ele>849.8</ele>
        <time>2026-05-10T08:09:03Z</time>
      </trkpt>
      <trkpt lat="46.00988" lon="5.56102">
        <ele>849.8</ele>
        <time>2026-05-10T08:09:04Z</time>
      </trkpt>
      <trkpt lat="46.00995" lon="5.56107">
        <ele>849.8</ele>
        <time>2026-05-10T08:09:05Z</time>
      </trkpt>
      <trkpt lat="46.01002" lon="5.56112">
        <ele>849.8</ele>
        <time>2026-05-10T08:09:06Z</time>
      </trkpt>
      <trkpt lat="46.01009" lon="5.56116">
        <ele>849.8</ele>
        <time>2026-05-10T08:09:07Z</time>
      </trkpt>
      <trkpt lat="46.01016" lon="5.5612">
        <ele>849.6</ele>
        <time>2026-05-10T08:09:08Z</time>
      </trkpt>
      <trkpt lat="46.01021" lon="5.56125">
        <ele>849.8</ele>
        <time>2026-05-10T08:09:09Z</time>
      </trkpt>
      <trkpt lat="46.01027" lon="5.56129">
        <ele>849.8</ele>
        <time>2026-05-10T08:09:10Z</time>
      </trkpt>
      <trkpt lat="46.01033" lon="5.56134">
        <ele>849.6</ele>
        <time>2026-05-10T08:09:11Z</time>
      </trkpt>
      <trkpt lat="46.01039" lon="5.56139">
        <ele>849.6</ele>
        <time>2026-05-10T08:09:12Z</time>
      </trkpt>
      <trkpt lat="46.01044" lon="5.56144">
        <ele>849.4</ele>
        <time>2026-05-10T08:09:13Z</time>
      </trkpt>
      <trkpt lat="46.01051" lon="5.56148">
        <ele>849.4</ele>
        <time>2026-05-10T08:09:14Z</time>
      </trkpt>
      <trkpt lat="46.01055" lon="5.56153">
        <ele>849</ele>
        <time>2026-05-10T08:09:15Z</time>
      </trkpt>
      <trkpt lat="46.01061" lon="5.56157">
        <ele>848.6</ele>
        <time>2026-05-10T08:09:16Z</time>
      </trkpt>
      <trkpt lat="46.01068" lon="5.56161">
        <ele>849</ele>
        <time>2026-05-10T08:09:17Z</time>
      </trkpt>
      <trkpt lat="46.01074" lon="5.56165">
        <ele>848.6</ele>
        <time>2026-05-10T08:09:18Z</time>
      </trkpt>
      <trkpt lat="46.0108" lon="5.56169">
        <ele>848.2</ele>
        <time>2026-05-10T08:09:19Z</time>
      </trkpt>
      <trkpt lat="46.01086" lon="5.56173">
        <ele>848.2</ele>
        <time>2026-05-10T08:09:20Z</time>
      </trkpt>
      <trkpt lat="46.01091" lon="5.56178">
        <ele>848.2</ele>
        <time>2026-05-10T08:09:21Z</time>
      </trkpt>
      <trkpt lat="46.01097" lon="5.56182">
        <ele>848.2</ele>
        <time>2026-05-10T08:09:22Z</time>
      </trkpt>
      <trkpt lat="46.01102" lon="5.56186">
        <ele>847.8</ele>
        <time>2026-05-10T08:09:23Z</time>
      </trkpt>
      <trkpt lat="46.01107" lon="5.5619">
        <ele>847.8</ele>
        <time>2026-05-10T08:09:24Z</time>
      </trkpt>
      <trkpt lat="46.01112" lon="5.56195">
        <ele>847.8</ele>
        <time>2026-05-10T08:09:25Z</time>
      </trkpt>
      <trkpt lat="46.01117" lon="5.56199">
        <ele>848.2</ele>
        <time>2026-05-10T08:09:26Z</time>
      </trkpt>
      <trkpt lat="46.01122" lon="5.56203">
        <ele>848.2</ele>
        <time>2026-05-10T08:09:27Z</time>
      </trkpt>
      <trkpt lat="46.01127" lon="5.56207">
        <ele>848.2</ele>
        <time>2026-05-10T08:09:28Z</time>
      </trkpt>
      <trkpt lat="46.01131" lon="5.56212">
        <ele>848.2</ele>
        <time>2026-05-10T08:09:29Z</time>
      </trkpt>
      <trkpt lat="46.01136" lon="5.56215">
        <ele>848.2</ele>
        <time>2026-05-10T08:09:30Z</time>
      </trkpt>
      <trkpt lat="46.01141" lon="5.5622">
        <ele>848.2</ele>
        <time>2026-05-10T08:09:31Z</time>
      </trkpt>
      <trkpt lat="46.01146" lon="5.56225">
        <ele>848.2</ele>
        <time>2026-05-10T08:09:32Z</time>
      </trkpt>
      <trkpt lat="46.01151" lon="5.5623">
        <ele>847.6</ele>
        <time>2026-05-10T08:09:33Z</time>
      </trkpt>
      <trkpt lat="46.01155" lon="5.56234">
        <ele>847.6</ele>
        <time>2026-05-10T08:09:34Z</time>
      </trkpt>
      <trkpt lat="46.0116" lon="5.5624">
        <ele>847.6</ele>
        <time>2026-05-10T08:09:35Z</time>
      </trkpt>
      <trkpt lat="46.01164" lon="5.56245">
        <ele>847.6</ele>
        <time>2026-05-10T08:09:36Z</time>
      </trkpt>
      <trkpt lat="46.01169" lon="5.5625">
        <ele>847.6</ele>
        <time>2026-05-10T08:09:37Z</time>
      </trkpt>
      <trkpt lat="46.01174" lon="5.56255">
        <ele>847.6</ele>
        <time>2026-05-10T08:09:38Z</time>
      </trkpt>
      <trkpt lat="46.01179" lon="5.56259">
        <ele>847.6</ele>
        <time>2026-05-10T08:09:39Z</time>
      </trkpt>
      <trkpt lat="46.01184" lon="5.56264">
        <ele>847.4</ele>
        <time>2026-05-10T08:09:40Z</time>
      </trkpt>
      <trkpt lat="46.01188" lon="5.56269">
        <ele>847.4</ele>
        <time>2026-05-10T08:09:41Z</time>
      </trkpt>
      <trkpt lat="46.01193" lon="5.56273">
        <ele>847.2</ele>
        <time>2026-05-10T08:09:42Z</time>
      </trkpt>
      <trkpt lat="46.01198" lon="5.56278">
        <ele>847.2</ele>
        <time>2026-05-10T08:09:43Z</time>
      </trkpt>
      <trkpt lat="46.01208" lon="5.56288">
        <ele>847.6</ele>
        <time>2026-05-10T08:09:44Z</time>
      </trkpt>
      <trkpt lat="46.01213" lon="5.56293">
        <ele>847.2</ele>
        <time>2026-05-10T08:09:45Z</time>
      </trkpt>
      <trkpt lat="46.01217" lon="5.56298">
        <ele>847.2</ele>
        <time>2026-05-10T08:09:46Z</time>
      </trkpt>
      <trkpt lat="46.01222" lon="5.56303">
        <ele>847.2</ele>
        <time>2026-05-10T08:09:47Z</time>
      </trkpt>
      <trkpt lat="46.01227" lon="5.56308">
        <ele>847.2</ele>
        <time>2026-05-10T08:09:48Z</time>
      </trkpt>
      <trkpt lat="46.01231" lon="5.56313">
        <ele>847.2</ele>
        <time>2026-05-10T08:09:49Z</time>
      </trkpt>
      <trkpt lat="46.01236" lon="5.56318">
        <ele>847.2</ele>
        <time>2026-05-10T08:09:50Z</time>
      </trkpt>
      <trkpt lat="46.01241" lon="5.56323">
        <ele>847.2</ele>
        <time>2026-05-10T08:09:51Z</time>
      </trkpt>
      <trkpt lat="46.01246" lon="5.56327">
        <ele>847.2</ele>
        <time>2026-05-10T08:09:52Z</time>
      </trkpt>
      <trkpt lat="46.0125" lon="5.56332">
        <ele>846.8</ele>
        <time>2026-05-10T08:09:53Z</time>
      </trkpt>
      <trkpt lat="46.01255" lon="5.56337">
        <ele>847.2</ele>
        <time>2026-05-10T08:09:54Z</time>
      </trkpt>
      <trkpt lat="46.0126" lon="5.56342">
        <ele>847.2</ele>
        <time>2026-05-10T08:09:55Z</time>
      </trkpt>
      <trkpt lat="46.01263" lon="5.56347">
        <ele>847.2</ele>
        <time>2026-05-10T08:09:56Z</time>
      </trkpt>
      <trkpt lat="46.0127" lon="5.56349">
        <ele>847.2</ele>
        <time>2026-05-10T08:09:57Z</time>
      </trkpt>
      <trkpt lat="46.01274" lon="5.56354">
        <ele>847.2</ele>
        <time>2026-05-10T08:09:58Z</time>
      </trkpt>
      <trkpt lat="46.01278" lon="5.56358">
        <ele>847</ele>
        <time>2026-05-10T08:09:59Z</time>
      </trkpt>
      <trkpt lat="46.01284" lon="5.56358">
        <ele>846.6</ele>
        <time>2026-05-10T08:10:00Z</time>
      </trkpt>
      <trkpt lat="46.01289" lon="5.56362">
        <ele>846.2</ele>
        <time>2026-05-10T08:10:01Z</time>
      </trkpt>
      <trkpt lat="46.01296" lon="5.56365">
        <ele>846.8</ele>
        <time>2026-05-10T08:10:02Z</time>
      </trkpt>
      <trkpt lat="46.01302" lon="5.56369">
        <ele>846.8</ele>
        <time>2026-05-10T08:10:03Z</time>
      </trkpt>
      <trkpt lat="46.01307" lon="5.56374">
        <ele>846.8</ele>
        <time>2026-05-10T08:10:04Z</time>
      </trkpt>
      <trkpt lat="46.01311" lon="5.56379">
        <ele>847</ele>
        <time>2026-05-10T08:10:05Z</time>
      </trkpt>
      <trkpt lat="46.01314" lon="5.56385">
        <ele>847</ele>
        <time>2026-05-10T08:10:06Z</time>
      </trkpt>
      <trkpt lat="46.01319" lon="5.5639">
        <ele>847</ele>
        <time>2026-05-10T08:10:07Z</time>
      </trkpt>
      <trkpt lat="46.01322" lon="5.56396">
        <ele>847</ele>
        <time>2026-05-10T08:10:08Z</time>
      </trkpt>
      <trkpt lat="46.01326" lon="5.56401">
        <ele>847</ele>
        <time>2026-05-10T08:10:09Z</time>
      </trkpt>
      <trkpt lat="46.01328" lon="5.56407">
        <ele>847</ele>
        <time>2026-05-10T08:10:10Z</time>
      </trkpt>
      <trkpt lat="46.01331" lon="5.56412">
        <ele>847.4</ele>
        <time>2026-05-10T08:10:11Z</time>
      </trkpt>
      <trkpt lat="46.01334" lon="5.56418">
        <ele>847.4</ele>
        <time>2026-05-10T08:10:12Z</time>
      </trkpt>
      <trkpt lat="46.01338" lon="5.56422">
        <ele>847.4</ele>
        <time>2026-05-10T08:10:13Z</time>
      </trkpt>
      <trkpt lat="46.01342" lon="5.56425">
        <ele>847.4</ele>
        <time>2026-05-10T08:10:14Z</time>
      </trkpt>
      <trkpt lat="46.01345" lon="5.5643">
        <ele>847.8</ele>
        <time>2026-05-10T08:10:15Z</time>
      </trkpt>
      <trkpt lat="46.01348" lon="5.56435">
        <ele>848</ele>
        <time>2026-05-10T08:10:16Z</time>
      </trkpt>
      <trkpt lat="46.01352" lon="5.56439">
        <ele>848</ele>
        <time>2026-05-10T08:10:17Z</time>
      </trkpt>
      <trkpt lat="46.01356" lon="5.56443">
        <ele>848</ele>
        <time>2026-05-10T08:10:18Z</time>
      </trkpt>
      <trkpt lat="46.01361" lon="5.56447">
        <ele>848</ele>
        <time>2026-05-10T08:10:19Z</time>
      </trkpt>
      <trkpt lat="46.01365" lon="5.56453">
        <ele>848</ele>
        <time>2026-05-10T08:10:20Z</time>
      </trkpt>
      <trkpt lat="46.01369" lon="5.56454">
        <ele>848</ele>
        <time>2026-05-10T08:10:21Z</time>
      </trkpt>
      <trkpt lat="46.01373" lon="5.56456">
        <ele>848.2</ele>
        <time>2026-05-10T08:10:22Z</time>
      </trkpt>
      <trkpt lat="46.01379" lon="5.56458">
        <ele>848.2</ele>
        <time>2026-05-10T08:10:23Z</time>
      </trkpt>
      <trkpt lat="46.01382" lon="5.56461">
        <ele>847.8</ele>
        <time>2026-05-10T08:10:24Z</time>
      </trkpt>
      <trkpt lat="46.01386" lon="5.56465">
        <ele>847.8</ele>
        <time>2026-05-10T08:10:25Z</time>
      </trkpt>
      <trkpt lat="46.0139" lon="5.56469">
        <ele>847.8</ele>
        <time>2026-05-10T08:10:26Z</time>
      </trkpt>
      <trkpt lat="46.01394" lon="5.56473">
        <ele>847.6</ele>
        <time>2026-05-10T08:10:27Z</time>
      </trkpt>
      <trkpt lat="46.01399" lon="5.56476">
        <ele>847.6</ele>
        <time>2026-05-10T08:10:28Z</time>
      </trkpt>
      <trkpt lat="46.01404" lon="5.56479">
        <ele>847.6</ele>
        <time>2026-05-10T08:10:29Z</time>
      </trkpt>
      <trkpt lat="46.01404" lon="5.56479">
        <ele>847.6</ele>
        <time>2026-05-10T08:10:30Z</time>
      </trkpt>
      <trkpt lat="46.01409" lon="5.56483">
        <ele>847.4</ele>
        <time>2026-05-10T08:10:31Z</time>
      </trkpt>
      <trkpt lat="46.01413" lon="5.56487">
        <ele>847.4</ele>
        <time>2026-05-10T08:10:32Z</time>
      </trkpt>
      <trkpt lat="46.01418" lon="5.56491">
        <ele>846.6</ele>
        <time>2026-05-10T08:10:33Z</time>
      </trkpt>
      <trkpt lat="46.01422" lon="5.56495">
        <ele>846.2</ele>
        <time>2026-05-10T08:10:34Z</time>
      </trkpt>
      <trkpt lat="46.01426" lon="5.56499">
        <ele>845.8</ele>
        <time>2026-05-10T08:10:35Z</time>
      </trkpt>
      <trkpt lat="46.01431" lon="5.56502">
        <ele>845.6</ele>
        <time>2026-05-10T08:10:36Z</time>
      </trkpt>
      <trkpt lat="46.01436" lon="5.56506">
        <ele>845.2</ele>
        <time>2026-05-10T08:10:37Z</time>
      </trkpt>
      <trkpt lat="46.0144" lon="5.5651">
        <ele>845.2</ele>
        <time>2026-05-10T08:10:38Z</time>
      </trkpt>
      <trkpt lat="46.01446" lon="5.56513">
        <ele>844.8</ele>
        <time>2026-05-10T08:10:39Z</time>
      </trkpt>
      <trkpt lat="46.0145" lon="5.56518">
        <ele>844.4</ele>
        <time>2026-05-10T08:10:40Z</time>
      </trkpt>
      <trkpt lat="46.01454" lon="5.56522">
        <ele>844.2</ele>
        <time>2026-05-10T08:10:41Z</time>
      </trkpt>
      <trkpt lat="46.01457" lon="5.56528">
        <ele>844.2</ele>
        <time>2026-05-10T08:10:42Z</time>
      </trkpt>
      <trkpt lat="46.01463" lon="5.56531">
        <ele>844.2</ele>
        <time>2026-05-10T08:10:43Z</time>
      </trkpt>
      <trkpt lat="46.0147" lon="5.56536">
        <ele>844.2</ele>
        <time>2026-05-10T08:10:44Z</time>
      </trkpt>
      <trkpt lat="46.01475" lon="5.56542">
        <ele>843.8</ele>
        <time>2026-05-10T08:10:45Z</time>
      </trkpt>
      <trkpt lat="46.01479" lon="5.56547">
        <ele>843.8</ele>
        <time>2026-05-10T08:10:46Z</time>
      </trkpt>
      <trkpt lat="46.01483" lon="5.56554">
        <ele>843.4</ele>
        <time>2026-05-10T08:10:47Z</time>
      </trkpt>
      <trkpt lat="46.0149" lon="5.56559">
        <ele>843.4</ele>
        <time>2026-05-10T08:10:48Z</time>
      </trkpt>
      <trkpt lat="46.01494" lon="5.56565">
        <ele>843</ele>
        <time>2026-05-10T08:10:49Z</time>
      </trkpt>
      <trkpt lat="46.015" lon="5.56571">
        <ele>843</ele>
        <time>2026-05-10T08:10:50Z</time>
      </trkpt>
      <trkpt lat="46.01506" lon="5.56577">
        <ele>843</ele>
        <time>2026-05-10T08:10:51Z</time>
      </trkpt>
      <trkpt lat="46.01509" lon="5.56584">
        <ele>843</ele>
        <time>2026-05-10T08:10:52Z</time>
      </trkpt>
      <trkpt lat="46.01515" lon="5.56589">
        <ele>842.6</ele>
        <time>2026-05-10T08:10:53Z</time>
      </trkpt>
      <trkpt lat="46.0152" lon="5.56595">
        <ele>842.4</ele>
        <time>2026-05-10T08:10:54Z</time>
      </trkpt>
      <trkpt lat="46.01525" lon="5.566">
        <ele>842.4</ele>
        <time>2026-05-10T08:10:55Z</time>
      </trkpt>
      <trkpt lat="46.01531" lon="5.56606">
        <ele>842.2</ele>
        <time>2026-05-10T08:10:56Z</time>
      </trkpt>
      <trkpt lat="46.01535" lon="5.56613">
        <ele>841.6</ele>
        <time>2026-05-10T08:10:57Z</time>
      </trkpt>
      <trkpt lat="46.0154" lon="5.56619">
        <ele>841.6</ele>
        <time>2026-05-10T08:10:58Z</time>
      </trkpt>
      <trkpt lat="46.01544" lon="5.56626">
        <ele>841.6</ele>
        <time>2026-05-10T08:10:59Z</time>
      </trkpt>
      <trkpt lat="46.01548" lon="5.56634">
        <ele>841</ele>
        <time>2026-05-10T08:11:00Z</time>
      </trkpt>
      <trkpt lat="46.01553" lon="5.56639">
        <ele>840.8</ele>
        <time>2026-05-10T08:11:01Z</time>
      </trkpt>
      <trkpt lat="46.01557" lon="5.56646">
        <ele>840.8</ele>
        <time>2026-05-10T08:11:02Z</time>
      </trkpt>
      <trkpt lat="46.0156" lon="5.56654">
        <ele>840.4</ele>
        <time>2026-05-10T08:11:03Z</time>
      </trkpt>
      <trkpt lat="46.01565" lon="5.5666">
        <ele>840</ele>
        <time>2026-05-10T08:11:04Z</time>
      </trkpt>
      <trkpt lat="46.01572" lon="5.56663">
        <ele>839.4</ele>
        <time>2026-05-10T08:11:05Z</time>
      </trkpt>
      <trkpt lat="46.01577" lon="5.56668">
        <ele>838.8</ele>
        <time>2026-05-10T08:11:06Z</time>
      </trkpt>
      <trkpt lat="46.01584" lon="5.56672">
        <ele>839.2</ele>
        <time>2026-05-10T08:11:07Z</time>
      </trkpt>
      <trkpt lat="46.01588" lon="5.56679">
        <ele>838.8</ele>
        <time>2026-05-10T08:11:08Z</time>
      </trkpt>
      <trkpt lat="46.01589" lon="5.56685">
        <ele>838.6</ele>
        <time>2026-05-10T08:11:09Z</time>
      </trkpt>
      <trkpt lat="46.01595" lon="5.56693">
        <ele>838.6</ele>
        <time>2026-05-10T08:11:10Z</time>
      </trkpt>
      <trkpt lat="46.01599" lon="5.567">
        <ele>838.6</ele>
        <time>2026-05-10T08:11:11Z</time>
      </trkpt>
      <trkpt lat="46.01603" lon="5.56709">
        <ele>838.6</ele>
        <time>2026-05-10T08:11:12Z</time>
      </trkpt>
      <trkpt lat="46.01607" lon="5.56719">
        <ele>838.6</ele>
        <time>2026-05-10T08:11:13Z</time>
      </trkpt>
      <trkpt lat="46.01609" lon="5.56728">
        <ele>838.6</ele>
        <time>2026-05-10T08:11:14Z</time>
      </trkpt>
      <trkpt lat="46.01612" lon="5.56738">
        <ele>838.4</ele>
        <time>2026-05-10T08:11:15Z</time>
      </trkpt>
      <trkpt lat="46.01615" lon="5.56746">
        <ele>838.4</ele>
        <time>2026-05-10T08:11:16Z</time>
      </trkpt>
      <trkpt lat="46.01616" lon="5.56753">
        <ele>838.4</ele>
        <time>2026-05-10T08:11:17Z</time>
      </trkpt>
      <trkpt lat="46.01618" lon="5.5676">
        <ele>838.4</ele>
        <time>2026-05-10T08:11:18Z</time>
      </trkpt>
      <trkpt lat="46.01621" lon="5.56767">
        <ele>838.4</ele>
        <time>2026-05-10T08:11:19Z</time>
      </trkpt>
      <trkpt lat="46.01624" lon="5.56772">
        <ele>838.4</ele>
        <time>2026-05-10T08:11:20Z</time>
      </trkpt>
      <trkpt lat="46.01628" lon="5.56775">
        <ele>838.8</ele>
        <time>2026-05-10T08:11:21Z</time>
      </trkpt>
      <trkpt lat="46.01632" lon="5.56778">
        <ele>838.8</ele>
        <time>2026-05-10T08:11:22Z</time>
      </trkpt>
      <trkpt lat="46.01635" lon="5.56781">
        <ele>838.4</ele>
        <time>2026-05-10T08:11:23Z</time>
      </trkpt>
      <trkpt lat="46.01638" lon="5.5678">
        <ele>838.4</ele>
        <time>2026-05-10T08:11:24Z</time>
      </trkpt>
      <trkpt lat="46.01642" lon="5.56783">
        <ele>838</ele>
        <time>2026-05-10T08:11:25Z</time>
      </trkpt>
      <trkpt lat="46.01645" lon="5.56786">
        <ele>838</ele>
        <time>2026-05-10T08:11:26Z</time>
      </trkpt>
      <trkpt lat="46.01649" lon="5.56788">
        <ele>838</ele>
        <time>2026-05-10T08:11:27Z</time>
      </trkpt>
      <trkpt lat="46.01652" lon="5.56792">
        <ele>838</ele>
        <time>2026-05-10T08:11:28Z</time>
      </trkpt>
      <trkpt lat="46.01655" lon="5.56795">
        <ele>838</ele>
        <time>2026-05-10T08:11:29Z</time>
      </trkpt>
      <trkpt lat="46.01659" lon="5.56797">
        <ele>838</ele>
        <time>2026-05-10T08:11:30Z</time>
      </trkpt>
      <trkpt lat="46.01661" lon="5.56799">
        <ele>838.8</ele>
        <time>2026-05-10T08:11:31Z</time>
      </trkpt>
      <trkpt lat="46.01663" lon="5.56802">
        <ele>839.2</ele>
        <time>2026-05-10T08:11:32Z</time>
      </trkpt>
      <trkpt lat="46.01666" lon="5.56804">
        <ele>839.6</ele>
        <time>2026-05-10T08:11:33Z</time>
      </trkpt>
      <trkpt lat="46.01668" lon="5.56805">
        <ele>839.6</ele>
        <time>2026-05-10T08:11:34Z</time>
      </trkpt>
      <trkpt lat="46.0167" lon="5.56806">
        <ele>840</ele>
        <time>2026-05-10T08:11:35Z</time>
      </trkpt>
      <trkpt lat="46.01672" lon="5.56807">
        <ele>840.4</ele>
        <time>2026-05-10T08:11:36Z</time>
      </trkpt>
      <trkpt lat="46.01675" lon="5.56808">
        <ele>840.4</ele>
        <time>2026-05-10T08:11:37Z</time>
      </trkpt>
      <trkpt lat="46.01677" lon="5.5681">
        <ele>840.4</ele>
        <time>2026-05-10T08:11:38Z</time>
      </trkpt>
      <trkpt lat="46.01679" lon="5.56812">
        <ele>840.4</ele>
        <time>2026-05-10T08:11:39Z</time>
      </trkpt>
      <trkpt lat="46.01681" lon="5.56813">
        <ele>840.8</ele>
        <time>2026-05-10T08:11:40Z</time>
      </trkpt>
      <trkpt lat="46.01683" lon="5.56815">
        <ele>840.8</ele>
        <time>2026-05-10T08:11:41Z</time>
      </trkpt>
      <trkpt lat="46.01685" lon="5.56816">
        <ele>840.8</ele>
        <time>2026-05-10T08:11:42Z</time>
      </trkpt>
      <trkpt lat="46.01688" lon="5.56817">
        <ele>841.2</ele>
        <time>2026-05-10T08:11:43Z</time>
      </trkpt>
      <trkpt lat="46.0169" lon="5.56818">
        <ele>841.2</ele>
        <time>2026-05-10T08:11:44Z</time>
      </trkpt>
      <trkpt lat="46.01692" lon="5.56819">
        <ele>841.4</ele>
        <time>2026-05-10T08:11:45Z</time>
      </trkpt>
      <trkpt lat="46.01695" lon="5.56821">
        <ele>841.8</ele>
        <time>2026-05-10T08:11:46Z</time>
      </trkpt>
      <trkpt lat="46.01696" lon="5.56822">
        <ele>841.8</ele>
        <time>2026-05-10T08:11:47Z</time>
      </trkpt>
      <trkpt lat="46.01698" lon="5.56823">
        <ele>842.2</ele>
        <time>2026-05-10T08:11:48Z</time>
      </trkpt>
      <trkpt lat="46.017" lon="5.56825">
        <ele>842.2</ele>
        <time>2026-05-10T08:11:49Z</time>
      </trkpt>
      <trkpt lat="46.01702" lon="5.56826">
        <ele>842.6</ele>
        <time>2026-05-10T08:11:50Z</time>
      </trkpt>
      <trkpt lat="46.01704" lon="5.56827">
        <ele>842.6</ele>
        <time>2026-05-10T08:11:51Z</time>
      </trkpt>
      <trkpt lat="46.01706" lon="5.56829">
        <ele>842.4</ele>
        <time>2026-05-10T08:11:52Z</time>
      </trkpt>
      <trkpt lat="46.01708" lon="5.5683">
        <ele>842.4</ele>
        <time>2026-05-10T08:11:53Z</time>
      </trkpt>
      <trkpt lat="46.0171" lon="5.56831">
        <ele>842.4</ele>
        <time>2026-05-10T08:11:54Z</time>
      </trkpt>
      <trkpt lat="46.01712" lon="5.56832">
        <ele>842.4</ele>
        <time>2026-05-10T08:11:55Z</time>
      </trkpt>
      <trkpt lat="46.01714" lon="5.56833">
        <ele>842.4</ele>
        <time>2026-05-10T08:11:56Z</time>
      </trkpt>
      <trkpt lat="46.01716" lon="5.56834">
        <ele>843</ele>
        <time>2026-05-10T08:11:57Z</time>
      </trkpt>
      <trkpt lat="46.01718" lon="5.56835">
        <ele>843</ele>
        <time>2026-05-10T08:11:58Z</time>
      </trkpt>
      <trkpt lat="46.01719" lon="5.56837">
        <ele>843</ele>
        <time>2026-05-10T08:11:59Z</time>
      </trkpt>
      <trkpt lat="46.0172" lon="5.56838">
        <ele>843.6</ele>
        <time>2026-05-10T08:12:00Z</time>
      </trkpt>
      <trkpt lat="46.01723" lon="5.5684">
        <ele>844</ele>
        <time>2026-05-10T08:12:01Z</time>
      </trkpt>
      <trkpt lat="46.01725" lon="5.56841">
        <ele>844</ele>
        <time>2026-05-10T08:12:02Z</time>
      </trkpt>
      <trkpt lat="46.01727" lon="5.56841">
        <ele>844.4</ele>
        <time>2026-05-10T08:12:03Z</time>
      </trkpt>
      <trkpt lat="46.0173" lon="5.56842">
        <ele>844.4</ele>
        <time>2026-05-10T08:12:04Z</time>
      </trkpt>
      <trkpt lat="46.01732" lon="5.56844">
        <ele>844.6</ele>
        <time>2026-05-10T08:12:05Z</time>
      </trkpt>
      <trkpt lat="46.01733" lon="5.56845">
        <ele>844.6</ele>
        <time>2026-05-10T08:12:06Z</time>
      </trkpt>
      <trkpt lat="46.01734" lon="5.56847">
        <ele>844.6</ele>
        <time>2026-05-10T08:12:07Z</time>
      </trkpt>
      <trkpt lat="46.01734" lon="5.56848">
        <ele>844.6</ele>
        <time>2026-05-10T08:12:08Z</time>
      </trkpt>
      <trkpt lat="46.01734" lon="5.56849">
        <ele>844.6</ele>
        <time>2026-05-10T08:12:09Z</time>
      </trkpt>
      <trkpt lat="46.01734" lon="5.56851">
        <ele>845.2</ele>
        <time>2026-05-10T08:12:10Z</time>
      </trkpt>
      <trkpt lat="46.01735" lon="5.56853">
        <ele>845.4</ele>
        <time>2026-05-10T08:12:11Z</time>
      </trkpt>
      <trkpt lat="46.01737" lon="5.56854">
        <ele>845.6</ele>
        <time>2026-05-10T08:12:12Z</time>
      </trkpt>
      <trkpt lat="46.01739" lon="5.56854">
        <ele>845.6</ele>
        <time>2026-05-10T08:12:13Z</time>
      </trkpt>
      <trkpt lat="46.01741" lon="5.56855">
        <ele>846</ele>
        <time>2026-05-10T08:12:14Z</time>
      </trkpt>
      <trkpt lat="46.01743" lon="5.56855">
        <ele>846</ele>
        <time>2026-05-10T08:12:15Z</time>
      </trkpt>
      <trkpt lat="46.01745" lon="5.56854">
        <ele>846.2</ele>
        <time>2026-05-10T08:12:16Z</time>
      </trkpt>
      <trkpt lat="46.01746" lon="5.56854">
        <ele>846.4</ele>
        <time>2026-05-10T08:12:17Z</time>
      </trkpt>
      <trkpt lat="46.01747" lon="5.56854">
        <ele>846.4</ele>
        <time>2026-05-10T08:12:18Z</time>
      </trkpt>
      <trkpt lat="46.01749" lon="5.56855">
        <ele>846.8</ele>
        <time>2026-05-10T08:12:19Z</time>
      </trkpt>
      <trkpt lat="46.01751" lon="5.56857">
        <ele>846.8</ele>
        <time>2026-05-10T08:12:20Z</time>
      </trkpt>
      <trkpt lat="46.01752" lon="5.56858">
        <ele>847.2</ele>
        <time>2026-05-10T08:12:21Z</time>
      </trkpt>
      <trkpt lat="46.01755" lon="5.56859">
        <ele>847.2</ele>
        <time>2026-05-10T08:12:22Z</time>
      </trkpt>
      <trkpt lat="46.01757" lon="5.5686">
        <ele>847.4</ele>
        <time>2026-05-10T08:12:23Z</time>
      </trkpt>
      <trkpt lat="46.01759" lon="5.56861">
        <ele>847.4</ele>
        <time>2026-05-10T08:12:24Z</time>
      </trkpt>
      <trkpt lat="46.01761" lon="5.56863">
        <ele>847.4</ele>
        <time>2026-05-10T08:12:25Z</time>
      </trkpt>
      <trkpt lat="46.01764" lon="5.56865">
        <ele>847.6</ele>
        <time>2026-05-10T08:12:26Z</time>
      </trkpt>
      <trkpt lat="46.01766" lon="5.56866">
        <ele>847.6</ele>
        <time>2026-05-10T08:12:27Z</time>
      </trkpt>
      <trkpt lat="46.01769" lon="5.56868">
        <ele>848</ele>
        <time>2026-05-10T08:12:28Z</time>
      </trkpt>
      <trkpt lat="46.01771" lon="5.56869">
        <ele>848.2</ele>
        <time>2026-05-10T08:12:29Z</time>
      </trkpt>
      <trkpt lat="46.01773" lon="5.5687">
        <ele>848.4</ele>
        <time>2026-05-10T08:12:30Z</time>
      </trkpt>
      <trkpt lat="46.01774" lon="5.56871">
        <ele>848.6</ele>
        <time>2026-05-10T08:12:31Z</time>
      </trkpt>
      <trkpt lat="46.01775" lon="5.56871">
        <ele>848.6</ele>
        <time>2026-05-10T08:12:32Z</time>
      </trkpt>
      <trkpt lat="46.01778" lon="5.56872">
        <ele>849</ele>
        <time>2026-05-10T08:12:33Z</time>
      </trkpt>
      <trkpt lat="46.0178" lon="5.56872">
        <ele>849.2</ele>
        <time>2026-05-10T08:12:34Z</time>
      </trkpt>
      <trkpt lat="46.01783" lon="5.56873">
        <ele>849.2</ele>
        <time>2026-05-10T08:12:35Z</time>
      </trkpt>
      <trkpt lat="46.01786" lon="5.56874">
        <ele>849.4</ele>
        <time>2026-05-10T08:12:36Z</time>
      </trkpt>
      <trkpt lat="46.01788" lon="5.56875">
        <ele>849.4</ele>
        <time>2026-05-10T08:12:37Z</time>
      </trkpt>
      <trkpt lat="46.01791" lon="5.56876">
        <ele>849.8</ele>
        <time>2026-05-10T08:12:38Z</time>
      </trkpt>
      <trkpt lat="46.01793" lon="5.56877">
        <ele>849.8</ele>
        <time>2026-05-10T08:12:39Z</time>
      </trkpt>
      <trkpt lat="46.01795" lon="5.56877">
        <ele>849.8</ele>
        <time>2026-05-10T08:12:40Z</time>
      </trkpt>
      <trkpt lat="46.01797" lon="5.56878">
        <ele>849.8</ele>
        <time>2026-05-10T08:12:41Z</time>
      </trkpt>
      <trkpt lat="46.01799" lon="5.56879">
        <ele>849.8</ele>
        <time>2026-05-10T08:12:42Z</time>
      </trkpt>
      <trkpt lat="46.01801" lon="5.5688">
        <ele>849.8</ele>
        <time>2026-05-10T08:12:43Z</time>
      </trkpt>
      <trkpt lat="46.01803" lon="5.5688">
        <ele>850.2</ele>
        <time>2026-05-10T08:12:44Z</time>
      </trkpt>
      <trkpt lat="46.01805" lon="5.56881">
        <ele>850.2</ele>
        <time>2026-05-10T08:12:45Z</time>
      </trkpt>
      <trkpt lat="46.01807" lon="5.56883">
        <ele>850.2</ele>
        <time>2026-05-10T08:12:46Z</time>
      </trkpt>
      <trkpt lat="46.01809" lon="5.56884">
        <ele>850.6</ele>
        <time>2026-05-10T08:12:47Z</time>
      </trkpt>
      <trkpt lat="46.01811" lon="5.56886">
        <ele>850.6</ele>
        <time>2026-05-10T08:12:48Z</time>
      </trkpt>
      <trkpt lat="46.01813" lon="5.56887">
        <ele>851</ele>
        <time>2026-05-10T08:12:49Z</time>
      </trkpt>
      <trkpt lat="46.01815" lon="5.56888">
        <ele>851</ele>
        <time>2026-05-10T08:12:50Z</time>
      </trkpt>
      <trkpt lat="46.01816" lon="5.56889">
        <ele>851.2</ele>
        <time>2026-05-10T08:12:51Z</time>
      </trkpt>
      <trkpt lat="46.01817" lon="5.56889">
        <ele>851.2</ele>
        <time>2026-05-10T08:12:52Z</time>
      </trkpt>
      <trkpt lat="46.01818" lon="5.56889">
        <ele>851.6</ele>
        <time>2026-05-10T08:12:53Z</time>
      </trkpt>
      <trkpt lat="46.01821" lon="5.56891">
        <ele>851.6</ele>
        <time>2026-05-10T08:12:54Z</time>
      </trkpt>
      <trkpt lat="46.01823" lon="5.56891">
        <ele>851.6</ele>
        <time>2026-05-10T08:12:55Z</time>
      </trkpt>
      <trkpt lat="46.01825" lon="5.56892">
        <ele>851.6</ele>
        <time>2026-05-10T08:12:56Z</time>
      </trkpt>
      <trkpt lat="46.01827" lon="5.56893">
        <ele>851.6</ele>
        <time>2026-05-10T08:12:57Z</time>
      </trkpt>
      <trkpt lat="46.01829" lon="5.56894">
        <ele>852.2</ele>
        <time>2026-05-10T08:12:58Z</time>
      </trkpt>
      <trkpt lat="46.01831" lon="5.56895">
        <ele>852.2</ele>
        <time>2026-05-10T08:12:59Z</time>
      </trkpt>
      <trkpt lat="46.01833" lon="5.56896">
        <ele>852.6</ele>
        <time>2026-05-10T08:13:00Z</time>
      </trkpt>
      <trkpt lat="46.01835" lon="5.56896">
        <ele>852.8</ele>
        <time>2026-05-10T08:13:01Z</time>
      </trkpt>
      <trkpt lat="46.01837" lon="5.56897">
        <ele>852.8</ele>
        <time>2026-05-10T08:13:02Z</time>
      </trkpt>
      <trkpt lat="46.01839" lon="5.56897">
        <ele>853.2</ele>
        <time>2026-05-10T08:13:03Z</time>
      </trkpt>
      <trkpt lat="46.01841" lon="5.56897">
        <ele>853.2</ele>
        <time>2026-05-10T08:13:04Z</time>
      </trkpt>
      <trkpt lat="46.01843" lon="5.56897">
        <ele>853.6</ele>
        <time>2026-05-10T08:13:05Z</time>
      </trkpt>
      <trkpt lat="46.01845" lon="5.56897">
        <ele>853.6</ele>
        <time>2026-05-10T08:13:06Z</time>
      </trkpt>
      <trkpt lat="46.01847" lon="5.56898">
        <ele>853.8</ele>
        <time>2026-05-10T08:13:07Z</time>
      </trkpt>
      <trkpt lat="46.0185" lon="5.56899">
        <ele>853.8</ele>
        <time>2026-05-10T08:13:08Z</time>
      </trkpt>
      <trkpt lat="46.01852" lon="5.569">
        <ele>853.8</ele>
        <time>2026-05-10T08:13:09Z</time>
      </trkpt>
      <trkpt lat="46.01854" lon="5.569">
        <ele>853.8</ele>
        <time>2026-05-10T08:13:10Z</time>
      </trkpt>
      <trkpt lat="46.01856" lon="5.569">
        <ele>853.8</ele>
        <time>2026-05-10T08:13:11Z</time>
      </trkpt>
      <trkpt lat="46.01858" lon="5.569">
        <ele>854.2</ele>
        <time>2026-05-10T08:13:12Z</time>
      </trkpt>
      <trkpt lat="46.0186" lon="5.569">
        <ele>854.6</ele>
        <time>2026-05-10T08:13:13Z</time>
      </trkpt>
      <trkpt lat="46.01862" lon="5.56901">
        <ele>854.8</ele>
        <time>2026-05-10T08:13:14Z</time>
      </trkpt>
      <trkpt lat="46.01864" lon="5.56903">
        <ele>854.8</ele>
        <time>2026-05-10T08:13:15Z</time>
      </trkpt>
      <trkpt lat="46.01866" lon="5.56904">
        <ele>855</ele>
        <time>2026-05-10T08:13:16Z</time>
      </trkpt>
      <trkpt lat="46.01869" lon="5.56906">
        <ele>855</ele>
        <time>2026-05-10T08:13:17Z</time>
      </trkpt>
      <trkpt lat="46.01871" lon="5.56907">
        <ele>855</ele>
        <time>2026-05-10T08:13:18Z</time>
      </trkpt>
      <trkpt lat="46.01873" lon="5.56909">
        <ele>855</ele>
        <time>2026-05-10T08:13:19Z</time>
      </trkpt>
      <trkpt lat="46.01876" lon="5.56911">
        <ele>855</ele>
        <time>2026-05-10T08:13:20Z</time>
      </trkpt>
      <trkpt lat="46.01878" lon="5.56913">
        <ele>855</ele>
        <time>2026-05-10T08:13:21Z</time>
      </trkpt>
      <trkpt lat="46.01881" lon="5.56915">
        <ele>855</ele>
        <time>2026-05-10T08:13:22Z</time>
      </trkpt>
      <trkpt lat="46.01883" lon="5.56916">
        <ele>855</ele>
        <time>2026-05-10T08:13:23Z</time>
      </trkpt>
      <trkpt lat="46.01885" lon="5.56918">
        <ele>855</ele>
        <time>2026-05-10T08:13:24Z</time>
      </trkpt>
      <trkpt lat="46.01888" lon="5.56919">
        <ele>855.4</ele>
        <time>2026-05-10T08:13:25Z</time>
      </trkpt>
      <trkpt lat="46.0189" lon="5.56921">
        <ele>855.4</ele>
        <time>2026-05-10T08:13:26Z</time>
      </trkpt>
      <trkpt lat="46.01892" lon="5.56922">
        <ele>855.2</ele>
        <time>2026-05-10T08:13:27Z</time>
      </trkpt>
      <trkpt lat="46.01895" lon="5.56924">
        <ele>855.2</ele>
        <time>2026-05-10T08:13:28Z</time>
      </trkpt>
      <trkpt lat="46.01899" lon="5.56927">
        <ele>854.8</ele>
        <time>2026-05-10T08:13:29Z</time>
      </trkpt>
      <trkpt lat="46.01903" lon="5.56928">
        <ele>854.8</ele>
        <time>2026-05-10T08:13:30Z</time>
      </trkpt>
      <trkpt lat="46.01908" lon="5.56931">
        <ele>854</ele>
        <time>2026-05-10T08:13:31Z</time>
      </trkpt>
      <trkpt lat="46.01912" lon="5.56933">
        <ele>853</ele>
        <time>2026-05-10T08:13:32Z</time>
      </trkpt>
      <trkpt lat="46.01917" lon="5.56935">
        <ele>852.6</ele>
        <time>2026-05-10T08:13:33Z</time>
      </trkpt>
      <trkpt lat="46.01921" lon="5.56937">
        <ele>852.6</ele>
        <time>2026-05-10T08:13:34Z</time>
      </trkpt>
      <trkpt lat="46.01923" lon="5.56943">
        <ele>852</ele>
        <time>2026-05-10T08:13:35Z</time>
      </trkpt>
      <trkpt lat="46.01927" lon="5.56948">
        <ele>852.4</ele>
        <time>2026-05-10T08:13:36Z</time>
      </trkpt>
      <trkpt lat="46.01932" lon="5.5695">
        <ele>852.4</ele>
        <time>2026-05-10T08:13:37Z</time>
      </trkpt>
      <trkpt lat="46.01937" lon="5.56955">
        <ele>851.2</ele>
        <time>2026-05-10T08:13:38Z</time>
      </trkpt>
      <trkpt lat="46.0194" lon="5.56959">
        <ele>850.8</ele>
        <time>2026-05-10T08:13:39Z</time>
      </trkpt>
      <trkpt lat="46.01944" lon="5.56962">
        <ele>850.8</ele>
        <time>2026-05-10T08:13:40Z</time>
      </trkpt>
      <trkpt lat="46.0195" lon="5.56966">
        <ele>852</ele>
        <time>2026-05-10T08:13:41Z</time>
      </trkpt>
      <trkpt lat="46.0195" lon="5.56966">
        <ele>851.2</ele>
        <time>2026-05-10T08:13:42Z</time>
      </trkpt>
      <trkpt lat="46.01956" lon="5.56969">
        <ele>851.2</ele>
        <time>2026-05-10T08:13:43Z</time>
      </trkpt>
      <trkpt lat="46.01963" lon="5.56971">
        <ele>851.6</ele>
        <time>2026-05-10T08:13:44Z</time>
      </trkpt>
      <trkpt lat="46.01967" lon="5.56975">
        <ele>852.2</ele>
        <time>2026-05-10T08:13:45Z</time>
      </trkpt>
      <trkpt lat="46.01973" lon="5.56977">
        <ele>852.2</ele>
        <time>2026-05-10T08:13:46Z</time>
      </trkpt>
      <trkpt lat="46.01978" lon="5.56977">
        <ele>851.4</ele>
        <time>2026-05-10T08:13:47Z</time>
      </trkpt>
      <trkpt lat="46.01983" lon="5.56977">
        <ele>850.4</ele>
        <time>2026-05-10T08:13:48Z</time>
      </trkpt>
      <trkpt lat="46.01992" lon="5.56975">
        <ele>850</ele>
        <time>2026-05-10T08:13:49Z</time>
      </trkpt>
      <trkpt lat="46.01995" lon="5.56978">
        <ele>849.8</ele>
        <time>2026-05-10T08:13:50Z</time>
      </trkpt>
      <trkpt lat="46.01997" lon="5.56981">
        <ele>849.8</ele>
        <time>2026-05-10T08:13:51Z</time>
      </trkpt>
      <trkpt lat="46.02002" lon="5.56983">
        <ele>849.8</ele>
        <time>2026-05-10T08:13:52Z</time>
      </trkpt>
      <trkpt lat="46.02007" lon="5.56988">
        <ele>849.8</ele>
        <time>2026-05-10T08:13:53Z</time>
      </trkpt>
      <trkpt lat="46.02013" lon="5.5699">
        <ele>849.4</ele>
        <time>2026-05-10T08:13:54Z</time>
      </trkpt>
      <trkpt lat="46.02016" lon="5.56991">
        <ele>848.8</ele>
        <time>2026-05-10T08:13:55Z</time>
      </trkpt>
      <trkpt lat="46.0202" lon="5.56993">
        <ele>848.8</ele>
        <time>2026-05-10T08:13:56Z</time>
      </trkpt>
      <trkpt lat="46.02027" lon="5.56995">
        <ele>848.2</ele>
        <time>2026-05-10T08:13:57Z</time>
      </trkpt>
      <trkpt lat="46.02033" lon="5.56997">
        <ele>847.6</ele>
        <time>2026-05-10T08:13:58Z</time>
      </trkpt>
      <trkpt lat="46.02036" lon="5.56998">
        <ele>847.6</ele>
        <time>2026-05-10T08:13:59Z</time>
      </trkpt>
      <trkpt lat="46.0204" lon="5.57001">
        <ele>846.8</ele>
        <time>2026-05-10T08:14:00Z</time>
      </trkpt>
      <trkpt lat="46.02046" lon="5.57002">
        <ele>846.4</ele>
        <time>2026-05-10T08:14:01Z</time>
      </trkpt>
      <trkpt lat="46.0205" lon="5.57005">
        <ele>846.4</ele>
        <time>2026-05-10T08:14:02Z</time>
      </trkpt>
      <trkpt lat="46.02054" lon="5.57007">
        <ele>846.2</ele>
        <time>2026-05-10T08:14:03Z</time>
      </trkpt>
      <trkpt lat="46.02061" lon="5.57007">
        <ele>847</ele>
        <time>2026-05-10T08:14:04Z</time>
      </trkpt>
      <trkpt lat="46.02066" lon="5.5701">
        <ele>845</ele>
        <time>2026-05-10T08:14:05Z</time>
      </trkpt>
      <trkpt lat="46.02072" lon="5.57012">
        <ele>844</ele>
        <time>2026-05-10T08:14:06Z</time>
      </trkpt>
      <trkpt lat="46.02075" lon="5.57016">
        <ele>844</ele>
        <time>2026-05-10T08:14:07Z</time>
      </trkpt>
      <trkpt lat="46.02079" lon="5.57018">
        <ele>843.8</ele>
        <time>2026-05-10T08:14:08Z</time>
      </trkpt>
      <trkpt lat="46.02085" lon="5.5702">
        <ele>843.6</ele>
        <time>2026-05-10T08:14:09Z</time>
      </trkpt>
      <trkpt lat="46.02089" lon="5.57023">
        <ele>843.2</ele>
        <time>2026-05-10T08:14:10Z</time>
      </trkpt>
      <trkpt lat="46.02093" lon="5.57027">
        <ele>842.6</ele>
        <time>2026-05-10T08:14:11Z</time>
      </trkpt>
      <trkpt lat="46.02097" lon="5.5703">
        <ele>841.6</ele>
        <time>2026-05-10T08:14:12Z</time>
      </trkpt>
      <trkpt lat="46.02101" lon="5.57032">
        <ele>840.8</ele>
        <time>2026-05-10T08:14:13Z</time>
      </trkpt>
      <trkpt lat="46.02106" lon="5.57035">
        <ele>840.8</ele>
        <time>2026-05-10T08:14:14Z</time>
      </trkpt>
      <trkpt lat="46.02111" lon="5.57037">
        <ele>839.4</ele>
        <time>2026-05-10T08:14:15Z</time>
      </trkpt>
      <trkpt lat="46.02116" lon="5.57039">
        <ele>838.4</ele>
        <time>2026-05-10T08:14:16Z</time>
      </trkpt>
      <trkpt lat="46.02122" lon="5.57041">
        <ele>837.2</ele>
        <time>2026-05-10T08:14:17Z</time>
      </trkpt>
      <trkpt lat="46.02129" lon="5.57045">
        <ele>836.2</ele>
        <time>2026-05-10T08:14:18Z</time>
      </trkpt>
      <trkpt lat="46.02134" lon="5.57047">
        <ele>835.2</ele>
        <time>2026-05-10T08:14:19Z</time>
      </trkpt>
      <trkpt lat="46.02139" lon="5.57048">
        <ele>835.2</ele>
        <time>2026-05-10T08:14:20Z</time>
      </trkpt>
      <trkpt lat="46.02143" lon="5.57049">
        <ele>834.8</ele>
        <time>2026-05-10T08:14:21Z</time>
      </trkpt>
      <trkpt lat="46.02145" lon="5.5705">
        <ele>834.8</ele>
        <time>2026-05-10T08:14:22Z</time>
      </trkpt>
      <trkpt lat="46.02146" lon="5.5705">
        <ele>834.6</ele>
        <time>2026-05-10T08:14:23Z</time>
      </trkpt>
      <trkpt lat="46.02146" lon="5.57049">
        <ele>834.6</ele>
        <time>2026-05-10T08:14:24Z</time>
      </trkpt>
      <trkpt lat="46.02148" lon="5.57049">
        <ele>834.6</ele>
        <time>2026-05-10T08:14:25Z</time>
      </trkpt>
      <trkpt lat="46.02148" lon="5.57048">
        <ele>834.6</ele>
        <time>2026-05-10T08:14:26Z</time>
      </trkpt>
      <trkpt lat="46.02149" lon="5.57047">
        <ele>834.4</ele>
        <time>2026-05-10T08:14:27Z</time>
      </trkpt>
      <trkpt lat="46.0215" lon="5.5705">
        <ele>833.6</ele>
        <time>2026-05-10T08:14:48Z</time>
      </trkpt>
      <trkpt lat="46.02151" lon="5.57049">
        <ele>833.6</ele>
        <time>2026-05-10T08:14:49Z</time>
      </trkpt>
      <trkpt lat="46.02152" lon="5.57048">
        <ele>833.6</ele>
        <time>2026-05-10T08:14:50Z</time>
      </trkpt>
      <trkpt lat="46.02155" lon="5.57049">
        <ele>833.6</ele>
        <time>2026-05-10T08:14:51Z</time>
      </trkpt>
      <trkpt lat="46.02159" lon="5.57049">
        <ele>833.2</ele>
        <time>2026-05-10T08:14:52Z</time>
      </trkpt>
      <trkpt lat="46.02162" lon="5.57048">
        <ele>833</ele>
        <time>2026-05-10T08:14:53Z</time>
      </trkpt>
      <trkpt lat="46.02166" lon="5.57048">
        <ele>833</ele>
        <time>2026-05-10T08:14:54Z</time>
      </trkpt>
      <trkpt lat="46.0217" lon="5.57047">
        <ele>832.6</ele>
        <time>2026-05-10T08:14:55Z</time>
      </trkpt>
      <trkpt lat="46.02175" lon="5.57048">
        <ele>832.2</ele>
        <time>2026-05-10T08:14:56Z</time>
      </trkpt>
      <trkpt lat="46.02179" lon="5.57048">
        <ele>832.2</ele>
        <time>2026-05-10T08:14:57Z</time>
      </trkpt>
      <trkpt lat="46.02184" lon="5.57048">
        <ele>832.2</ele>
        <time>2026-05-10T08:14:58Z</time>
      </trkpt>
      <trkpt lat="46.02188" lon="5.57048">
        <ele>832.4</ele>
        <time>2026-05-10T08:14:59Z</time>
      </trkpt>
      <trkpt lat="46.02192" lon="5.57048">
        <ele>832.4</ele>
        <time>2026-05-10T08:15:00Z</time>
      </trkpt>
      <trkpt lat="46.02196" lon="5.57048">
        <ele>832.2</ele>
        <time>2026-05-10T08:15:01Z</time>
      </trkpt>
      <trkpt lat="46.022" lon="5.57048">
        <ele>832.2</ele>
        <time>2026-05-10T08:15:02Z</time>
      </trkpt>
      <trkpt lat="46.02204" lon="5.57048">
        <ele>832.2</ele>
        <time>2026-05-10T08:15:03Z</time>
      </trkpt>
      <trkpt lat="46.02208" lon="5.57049">
        <ele>832.2</ele>
        <time>2026-05-10T08:15:04Z</time>
      </trkpt>
      <trkpt lat="46.02213" lon="5.57049">
        <ele>832.6</ele>
        <time>2026-05-10T08:15:05Z</time>
      </trkpt>
      <trkpt lat="46.02217" lon="5.57049">
        <ele>833</ele>
        <time>2026-05-10T08:15:06Z</time>
      </trkpt>
      <trkpt lat="46.0222" lon="5.57051">
        <ele>833</ele>
        <time>2026-05-10T08:15:07Z</time>
      </trkpt>
      <trkpt lat="46.02224" lon="5.57052">
        <ele>833</ele>
        <time>2026-05-10T08:15:08Z</time>
      </trkpt>
      <trkpt lat="46.02228" lon="5.57053">
        <ele>832.6</ele>
        <time>2026-05-10T08:15:09Z</time>
      </trkpt>
      <trkpt lat="46.02232" lon="5.57054">
        <ele>832.6</ele>
        <time>2026-05-10T08:15:10Z</time>
      </trkpt>
      <trkpt lat="46.02235" lon="5.57055">
        <ele>832.6</ele>
        <time>2026-05-10T08:15:11Z</time>
      </trkpt>
      <trkpt lat="46.02239" lon="5.57057">
        <ele>832.6</ele>
        <time>2026-05-10T08:15:12Z</time>
      </trkpt>
      <trkpt lat="46.02242" lon="5.57059">
        <ele>833</ele>
        <time>2026-05-10T08:15:13Z</time>
      </trkpt>
      <trkpt lat="46.02246" lon="5.57061">
        <ele>833.2</ele>
        <time>2026-05-10T08:15:14Z</time>
      </trkpt>
      <trkpt lat="46.0225" lon="5.57062">
        <ele>833.2</ele>
        <time>2026-05-10T08:15:15Z</time>
      </trkpt>
      <trkpt lat="46.02253" lon="5.57064">
        <ele>833.6</ele>
        <time>2026-05-10T08:15:16Z</time>
      </trkpt>
      <trkpt lat="46.02256" lon="5.57065">
        <ele>834</ele>
        <time>2026-05-10T08:15:17Z</time>
      </trkpt>
      <trkpt lat="46.0226" lon="5.57067">
        <ele>834.4</ele>
        <time>2026-05-10T08:15:18Z</time>
      </trkpt>
      <trkpt lat="46.02263" lon="5.57068">
        <ele>834.6</ele>
        <time>2026-05-10T08:15:19Z</time>
      </trkpt>
      <trkpt lat="46.02266" lon="5.5707">
        <ele>835.2</ele>
        <time>2026-05-10T08:15:20Z</time>
      </trkpt>
      <trkpt lat="46.0227" lon="5.57071">
        <ele>834.8</ele>
        <time>2026-05-10T08:15:21Z</time>
      </trkpt>
      <trkpt lat="46.02273" lon="5.57073">
        <ele>834.8</ele>
        <time>2026-05-10T08:15:22Z</time>
      </trkpt>
      <trkpt lat="46.02277" lon="5.57075">
        <ele>834.8</ele>
        <time>2026-05-10T08:15:23Z</time>
      </trkpt>
      <trkpt lat="46.0228" lon="5.57076">
        <ele>834.6</ele>
        <time>2026-05-10T08:15:24Z</time>
      </trkpt>
      <trkpt lat="46.0228" lon="5.57076">
        <ele>834.6</ele>
        <time>2026-05-10T08:15:25Z</time>
      </trkpt>
      <trkpt lat="46.0228" lon="5.57076">
        <ele>835.2</ele>
        <time>2026-05-10T08:15:26Z</time>
      </trkpt>
      <trkpt lat="46.02294" lon="5.57082">
        <ele>835.4</ele>
        <time>2026-05-10T08:15:28Z</time>
      </trkpt>
      <trkpt lat="46.02297" lon="5.57083">
        <ele>835.4</ele>
        <time>2026-05-10T08:15:29Z</time>
      </trkpt>
      <trkpt lat="46.023" lon="5.57085">
        <ele>835.6</ele>
        <time>2026-05-10T08:15:30Z</time>
      </trkpt>
      <trkpt lat="46.02304" lon="5.57085">
        <ele>835.6</ele>
        <time>2026-05-10T08:15:31Z</time>
      </trkpt>
      <trkpt lat="46.02307" lon="5.57087">
        <ele>836</ele>
        <time>2026-05-10T08:15:32Z</time>
      </trkpt>
      <trkpt lat="46.0231" lon="5.57088">
        <ele>836</ele>
        <time>2026-05-10T08:15:33Z</time>
      </trkpt>
      <trkpt lat="46.02313" lon="5.57089">
        <ele>836</ele>
        <time>2026-05-10T08:15:34Z</time>
      </trkpt>
      <trkpt lat="46.02316" lon="5.5709">
        <ele>836</ele>
        <time>2026-05-10T08:15:35Z</time>
      </trkpt>
      <trkpt lat="46.02319" lon="5.57091">
        <ele>836.2</ele>
        <time>2026-05-10T08:15:36Z</time>
      </trkpt>
      <trkpt lat="46.02322" lon="5.57092">
        <ele>836.4</ele>
        <time>2026-05-10T08:15:37Z</time>
      </trkpt>
      <trkpt lat="46.02325" lon="5.57094">
        <ele>836.6</ele>
        <time>2026-05-10T08:15:38Z</time>
      </trkpt>
      <trkpt lat="46.02328" lon="5.57095">
        <ele>837</ele>
        <time>2026-05-10T08:15:39Z</time>
      </trkpt>
      <trkpt lat="46.0233" lon="5.57096">
        <ele>837.2</ele>
        <time>2026-05-10T08:15:40Z</time>
      </trkpt>
      <trkpt lat="46.02333" lon="5.57097">
        <ele>837.4</ele>
        <time>2026-05-10T08:15:41Z</time>
      </trkpt>
      <trkpt lat="46.02335" lon="5.57098">
        <ele>837.6</ele>
        <time>2026-05-10T08:15:42Z</time>
      </trkpt>
      <trkpt lat="46.02338" lon="5.57099">
        <ele>837.8</ele>
        <time>2026-05-10T08:15:43Z</time>
      </trkpt>
      <trkpt lat="46.0234" lon="5.571">
        <ele>838.2</ele>
        <time>2026-05-10T08:15:44Z</time>
      </trkpt>
      <trkpt lat="46.02343" lon="5.57101">
        <ele>838.4</ele>
        <time>2026-05-10T08:15:45Z</time>
      </trkpt>
      <trkpt lat="46.02345" lon="5.57102">
        <ele>838.4</ele>
        <time>2026-05-10T08:15:46Z</time>
      </trkpt>
      <trkpt lat="46.02347" lon="5.57104">
        <ele>838.6</ele>
        <time>2026-05-10T08:15:47Z</time>
      </trkpt>
      <trkpt lat="46.0235" lon="5.57105">
        <ele>838.8</ele>
        <time>2026-05-10T08:15:48Z</time>
      </trkpt>
      <trkpt lat="46.02352" lon="5.57106">
        <ele>839.2</ele>
        <time>2026-05-10T08:15:49Z</time>
      </trkpt>
      <trkpt lat="46.02354" lon="5.57107">
        <ele>839.2</ele>
        <time>2026-05-10T08:15:50Z</time>
      </trkpt>
      <trkpt lat="46.02356" lon="5.57108">
        <ele>839.4</ele>
        <time>2026-05-10T08:15:51Z</time>
      </trkpt>
      <trkpt lat="46.02359" lon="5.5711">
        <ele>839.8</ele>
        <time>2026-05-10T08:15:52Z</time>
      </trkpt>
      <trkpt lat="46.02361" lon="5.57111">
        <ele>840</ele>
        <time>2026-05-10T08:15:53Z</time>
      </trkpt>
      <trkpt lat="46.02363" lon="5.57112">
        <ele>840</ele>
        <time>2026-05-10T08:15:54Z</time>
      </trkpt>
      <trkpt lat="46.02366" lon="5.57113">
        <ele>840.4</ele>
        <time>2026-05-10T08:15:55Z</time>
      </trkpt>
      <trkpt lat="46.02368" lon="5.57114">
        <ele>840.4</ele>
        <time>2026-05-10T08:15:56Z</time>
      </trkpt>
      <trkpt lat="46.0237" lon="5.57115">
        <ele>840.6</ele>
        <time>2026-05-10T08:15:57Z</time>
      </trkpt>
      <trkpt lat="46.02372" lon="5.57116">
        <ele>840.6</ele>
        <time>2026-05-10T08:15:58Z</time>
      </trkpt>
      <trkpt lat="46.02375" lon="5.57118">
        <ele>840.8</ele>
        <time>2026-05-10T08:15:59Z</time>
      </trkpt>
      <trkpt lat="46.02377" lon="5.57119">
        <ele>841</ele>
        <time>2026-05-10T08:16:00Z</time>
      </trkpt>
      <trkpt lat="46.0238" lon="5.57121">
        <ele>841</ele>
        <time>2026-05-10T08:16:01Z</time>
      </trkpt>
      <trkpt lat="46.02383" lon="5.57123">
        <ele>841</ele>
        <time>2026-05-10T08:16:02Z</time>
      </trkpt>
      <trkpt lat="46.02386" lon="5.57125">
        <ele>841.2</ele>
        <time>2026-05-10T08:16:03Z</time>
      </trkpt>
      <trkpt lat="46.02388" lon="5.57127">
        <ele>841.2</ele>
        <time>2026-05-10T08:16:04Z</time>
      </trkpt>
      <trkpt lat="46.02391" lon="5.57129">
        <ele>841.6</ele>
        <time>2026-05-10T08:16:05Z</time>
      </trkpt>
      <trkpt lat="46.02394" lon="5.57131">
        <ele>841.6</ele>
        <time>2026-05-10T08:16:06Z</time>
      </trkpt>
      <trkpt lat="46.02396" lon="5.57133">
        <ele>841.6</ele>
        <time>2026-05-10T08:16:07Z</time>
      </trkpt>
      <trkpt lat="46.02399" lon="5.57135">
        <ele>842</ele>
        <time>2026-05-10T08:16:08Z</time>
      </trkpt>
      <trkpt lat="46.02401" lon="5.57137">
        <ele>842</ele>
        <time>2026-05-10T08:16:09Z</time>
      </trkpt>
      <trkpt lat="46.02404" lon="5.57139">
        <ele>842.4</ele>
        <time>2026-05-10T08:16:10Z</time>
      </trkpt>
      <trkpt lat="46.02406" lon="5.57141">
        <ele>842.4</ele>
        <time>2026-05-10T08:16:11Z</time>
      </trkpt>
      <trkpt lat="46.02408" lon="5.57143">
        <ele>842.4</ele>
        <time>2026-05-10T08:16:12Z</time>
      </trkpt>
      <trkpt lat="46.02411" lon="5.57145">
        <ele>842.4</ele>
        <time>2026-05-10T08:16:13Z</time>
      </trkpt>
      <trkpt lat="46.02413" lon="5.57148">
        <ele>842.4</ele>
        <time>2026-05-10T08:16:14Z</time>
      </trkpt>
      <trkpt lat="46.02416" lon="5.57151">
        <ele>842.4</ele>
        <time>2026-05-10T08:16:15Z</time>
      </trkpt>
      <trkpt lat="46.02419" lon="5.57154">
        <ele>842.4</ele>
        <time>2026-05-10T08:16:16Z</time>
      </trkpt>
      <trkpt lat="46.02423" lon="5.57156">
        <ele>842.4</ele>
        <time>2026-05-10T08:16:17Z</time>
      </trkpt>
      <trkpt lat="46.02426" lon="5.57158">
        <ele>842.4</ele>
        <time>2026-05-10T08:16:18Z</time>
      </trkpt>
      <trkpt lat="46.02429" lon="5.5716">
        <ele>842.4</ele>
        <time>2026-05-10T08:16:19Z</time>
      </trkpt>
      <trkpt lat="46.02433" lon="5.57162">
        <ele>842.4</ele>
        <time>2026-05-10T08:16:20Z</time>
      </trkpt>
      <trkpt lat="46.02436" lon="5.57164">
        <ele>842.4</ele>
        <time>2026-05-10T08:16:21Z</time>
      </trkpt>
      <trkpt lat="46.02439" lon="5.57167">
        <ele>842.4</ele>
        <time>2026-05-10T08:16:22Z</time>
      </trkpt>
      <trkpt lat="46.02443" lon="5.57169">
        <ele>842.4</ele>
        <time>2026-05-10T08:16:23Z</time>
      </trkpt>
      <trkpt lat="46.02446" lon="5.57171">
        <ele>842.4</ele>
        <time>2026-05-10T08:16:24Z</time>
      </trkpt>
      <trkpt lat="46.02449" lon="5.57174">
        <ele>842.4</ele>
        <time>2026-05-10T08:16:25Z</time>
      </trkpt>
      <trkpt lat="46.02451" lon="5.57178">
        <ele>842.4</ele>
        <time>2026-05-10T08:16:26Z</time>
      </trkpt>
      <trkpt lat="46.02453" lon="5.57182">
        <ele>841.4</ele>
        <time>2026-05-10T08:16:27Z</time>
      </trkpt>
      <trkpt lat="46.02453" lon="5.57182">
        <ele>841.8</ele>
        <time>2026-05-10T08:16:28Z</time>
      </trkpt>
      <trkpt lat="46.02453" lon="5.57182">
        <ele>841.8</ele>
        <time>2026-05-10T08:16:29Z</time>
      </trkpt>
      <trkpt lat="46.02457" lon="5.57195">
        <ele>841.8</ele>
        <time>2026-05-10T08:16:30Z</time>
      </trkpt>
      <trkpt lat="46.02459" lon="5.57199">
        <ele>841.8</ele>
        <time>2026-05-10T08:16:31Z</time>
      </trkpt>
      <trkpt lat="46.02461" lon="5.57203">
        <ele>841.8</ele>
        <time>2026-05-10T08:16:32Z</time>
      </trkpt>
      <trkpt lat="46.02463" lon="5.57207">
        <ele>841.8</ele>
        <time>2026-05-10T08:16:33Z</time>
      </trkpt>
      <trkpt lat="46.02466" lon="5.5721">
        <ele>841.8</ele>
        <time>2026-05-10T08:16:34Z</time>
      </trkpt>
      <trkpt lat="46.0247" lon="5.57213">
        <ele>841.8</ele>
        <time>2026-05-10T08:16:35Z</time>
      </trkpt>
      <trkpt lat="46.02473" lon="5.57215">
        <ele>841.8</ele>
        <time>2026-05-10T08:16:36Z</time>
      </trkpt>
      <trkpt lat="46.02477" lon="5.57217">
        <ele>841.8</ele>
        <time>2026-05-10T08:16:37Z</time>
      </trkpt>
      <trkpt lat="46.0248" lon="5.5722">
        <ele>841.6</ele>
        <time>2026-05-10T08:16:38Z</time>
      </trkpt>
      <trkpt lat="46.02484" lon="5.57222">
        <ele>841.6</ele>
        <time>2026-05-10T08:16:39Z</time>
      </trkpt>
      <trkpt lat="46.02487" lon="5.57225">
        <ele>841.6</ele>
        <time>2026-05-10T08:16:40Z</time>
      </trkpt>
      <trkpt lat="46.02491" lon="5.57227">
        <ele>841.6</ele>
        <time>2026-05-10T08:16:41Z</time>
      </trkpt>
      <trkpt lat="46.02495" lon="5.57229">
        <ele>841.6</ele>
        <time>2026-05-10T08:16:42Z</time>
      </trkpt>
      <trkpt lat="46.02499" lon="5.57231">
        <ele>841.6</ele>
        <time>2026-05-10T08:16:43Z</time>
      </trkpt>
      <trkpt lat="46.02502" lon="5.57232">
        <ele>841.6</ele>
        <time>2026-05-10T08:16:44Z</time>
      </trkpt>
      <trkpt lat="46.02506" lon="5.57234">
        <ele>841.6</ele>
        <time>2026-05-10T08:16:45Z</time>
      </trkpt>
      <trkpt lat="46.0251" lon="5.57237">
        <ele>841.6</ele>
        <time>2026-05-10T08:16:46Z</time>
      </trkpt>
      <trkpt lat="46.02514" lon="5.57239">
        <ele>841.6</ele>
        <time>2026-05-10T08:16:47Z</time>
      </trkpt>
      <trkpt lat="46.02518" lon="5.5724">
        <ele>841.6</ele>
        <time>2026-05-10T08:16:48Z</time>
      </trkpt>
      <trkpt lat="46.02523" lon="5.57242">
        <ele>841.6</ele>
        <time>2026-05-10T08:16:49Z</time>
      </trkpt>
      <trkpt lat="46.02527" lon="5.57244">
        <ele>841.2</ele>
        <time>2026-05-10T08:16:50Z</time>
      </trkpt>
      <trkpt lat="46.02531" lon="5.57246">
        <ele>841.2</ele>
        <time>2026-05-10T08:16:51Z</time>
      </trkpt>
      <trkpt lat="46.02536" lon="5.57247">
        <ele>841.2</ele>
        <time>2026-05-10T08:16:52Z</time>
      </trkpt>
      <trkpt lat="46.02539" lon="5.57249">
        <ele>841.2</ele>
        <time>2026-05-10T08:16:53Z</time>
      </trkpt>
      <trkpt lat="46.02544" lon="5.57251">
        <ele>841.2</ele>
        <time>2026-05-10T08:16:54Z</time>
      </trkpt>
      <trkpt lat="46.02548" lon="5.57252">
        <ele>841.2</ele>
        <time>2026-05-10T08:16:55Z</time>
      </trkpt>
      <trkpt lat="46.02552" lon="5.57254">
        <ele>841.2</ele>
        <time>2026-05-10T08:16:56Z</time>
      </trkpt>
      <trkpt lat="46.02556" lon="5.57255">
        <ele>841</ele>
        <time>2026-05-10T08:16:57Z</time>
      </trkpt>
      <trkpt lat="46.0256" lon="5.57256">
        <ele>841</ele>
        <time>2026-05-10T08:16:58Z</time>
      </trkpt>
      <trkpt lat="46.02564" lon="5.57258">
        <ele>838.6</ele>
        <time>2026-05-10T08:16:59Z</time>
      </trkpt>
      <trkpt lat="46.02568" lon="5.5726">
        <ele>839.4</ele>
        <time>2026-05-10T08:17:00Z</time>
      </trkpt>
      <trkpt lat="46.02571" lon="5.57262">
        <ele>841</ele>
        <time>2026-05-10T08:17:01Z</time>
      </trkpt>
      <trkpt lat="46.02575" lon="5.57263">
        <ele>841.4</ele>
        <time>2026-05-10T08:17:02Z</time>
      </trkpt>
      <trkpt lat="46.02579" lon="5.57264">
        <ele>841.4</ele>
        <time>2026-05-10T08:17:03Z</time>
      </trkpt>
      <trkpt lat="46.02582" lon="5.57266">
        <ele>841.4</ele>
        <time>2026-05-10T08:17:04Z</time>
      </trkpt>
      <trkpt lat="46.02586" lon="5.57268">
        <ele>841.4</ele>
        <time>2026-05-10T08:17:05Z</time>
      </trkpt>
      <trkpt lat="46.0259" lon="5.5727">
        <ele>841.4</ele>
        <time>2026-05-10T08:17:06Z</time>
      </trkpt>
      <trkpt lat="46.02594" lon="5.57271">
        <ele>841.4</ele>
        <time>2026-05-10T08:17:07Z</time>
      </trkpt>
      <trkpt lat="46.02598" lon="5.57273">
        <ele>841.4</ele>
        <time>2026-05-10T08:17:08Z</time>
      </trkpt>
      <trkpt lat="46.02602" lon="5.57274">
        <ele>841.8</ele>
        <time>2026-05-10T08:17:09Z</time>
      </trkpt>
      <trkpt lat="46.02606" lon="5.57275">
        <ele>841.8</ele>
        <time>2026-05-10T08:17:10Z</time>
      </trkpt>
      <trkpt lat="46.0261" lon="5.57276">
        <ele>841.8</ele>
        <time>2026-05-10T08:17:11Z</time>
      </trkpt>
      <trkpt lat="46.02613" lon="5.57277">
        <ele>841.8</ele>
        <time>2026-05-10T08:17:12Z</time>
      </trkpt>
      <trkpt lat="46.02617" lon="5.57278">
        <ele>842.2</ele>
        <time>2026-05-10T08:17:13Z</time>
      </trkpt>
      <trkpt lat="46.02621" lon="5.57279">
        <ele>842.6</ele>
        <time>2026-05-10T08:17:14Z</time>
      </trkpt>
      <trkpt lat="46.02624" lon="5.5728">
        <ele>842.6</ele>
        <time>2026-05-10T08:17:15Z</time>
      </trkpt>
      <trkpt lat="46.02628" lon="5.57281">
        <ele>843</ele>
        <time>2026-05-10T08:17:16Z</time>
      </trkpt>
      <trkpt lat="46.02632" lon="5.57282">
        <ele>843</ele>
        <time>2026-05-10T08:17:17Z</time>
      </trkpt>
      <trkpt lat="46.02635" lon="5.57282">
        <ele>843</ele>
        <time>2026-05-10T08:17:18Z</time>
      </trkpt>
      <trkpt lat="46.02639" lon="5.57283">
        <ele>843</ele>
        <time>2026-05-10T08:17:19Z</time>
      </trkpt>
      <trkpt lat="46.02643" lon="5.57284">
        <ele>843</ele>
        <time>2026-05-10T08:17:20Z</time>
      </trkpt>
      <trkpt lat="46.02646" lon="5.57284">
        <ele>843.4</ele>
        <time>2026-05-10T08:17:21Z</time>
      </trkpt>
      <trkpt lat="46.0265" lon="5.57285">
        <ele>843.4</ele>
        <time>2026-05-10T08:17:22Z</time>
      </trkpt>
      <trkpt lat="46.02653" lon="5.57285">
        <ele>843.8</ele>
        <time>2026-05-10T08:17:23Z</time>
      </trkpt>
      <trkpt lat="46.02655" lon="5.57286">
        <ele>843.8</ele>
        <time>2026-05-10T08:17:24Z</time>
      </trkpt>
      <trkpt lat="46.02658" lon="5.57286">
        <ele>844.2</ele>
        <time>2026-05-10T08:17:25Z</time>
      </trkpt>
      <trkpt lat="46.02661" lon="5.57287">
        <ele>844.6</ele>
        <time>2026-05-10T08:17:26Z</time>
      </trkpt>
      <trkpt lat="46.02663" lon="5.57288">
        <ele>844.6</ele>
        <time>2026-05-10T08:17:27Z</time>
      </trkpt>
      <trkpt lat="46.02666" lon="5.57288">
        <ele>844.6</ele>
        <time>2026-05-10T08:17:28Z</time>
      </trkpt>
      <trkpt lat="46.02669" lon="5.57289">
        <ele>844.8</ele>
        <time>2026-05-10T08:17:29Z</time>
      </trkpt>
      <trkpt lat="46.02671" lon="5.57289">
        <ele>844.8</ele>
        <time>2026-05-10T08:17:30Z</time>
      </trkpt>
      <trkpt lat="46.02674" lon="5.57289">
        <ele>845</ele>
        <time>2026-05-10T08:17:31Z</time>
      </trkpt>
      <trkpt lat="46.02677" lon="5.5729">
        <ele>845.4</ele>
        <time>2026-05-10T08:17:32Z</time>
      </trkpt>
      <trkpt lat="46.02679" lon="5.57291">
        <ele>845.4</ele>
        <time>2026-05-10T08:17:33Z</time>
      </trkpt>
      <trkpt lat="46.02682" lon="5.57291">
        <ele>845.8</ele>
        <time>2026-05-10T08:17:34Z</time>
      </trkpt>
      <trkpt lat="46.02686" lon="5.57291">
        <ele>845.8</ele>
        <time>2026-05-10T08:17:35Z</time>
      </trkpt>
      <trkpt lat="46.02689" lon="5.57291">
        <ele>845.8</ele>
        <time>2026-05-10T08:17:36Z</time>
      </trkpt>
      <trkpt lat="46.02692" lon="5.57291">
        <ele>846.2</ele>
        <time>2026-05-10T08:17:37Z</time>
      </trkpt>
      <trkpt lat="46.02694" lon="5.57291">
        <ele>846.2</ele>
        <time>2026-05-10T08:17:38Z</time>
      </trkpt>
      <trkpt lat="46.02697" lon="5.57292">
        <ele>846.2</ele>
        <time>2026-05-10T08:17:39Z</time>
      </trkpt>
      <trkpt lat="46.027" lon="5.57292">
        <ele>846.6</ele>
        <time>2026-05-10T08:17:40Z</time>
      </trkpt>
      <trkpt lat="46.02703" lon="5.57292">
        <ele>846.8</ele>
        <time>2026-05-10T08:17:41Z</time>
      </trkpt>
      <trkpt lat="46.02706" lon="5.57293">
        <ele>846.8</ele>
        <time>2026-05-10T08:17:42Z</time>
      </trkpt>
      <trkpt lat="46.02709" lon="5.57293">
        <ele>847</ele>
        <time>2026-05-10T08:17:43Z</time>
      </trkpt>
      <trkpt lat="46.02712" lon="5.57294">
        <ele>847</ele>
        <time>2026-05-10T08:17:44Z</time>
      </trkpt>
      <trkpt lat="46.02715" lon="5.57294">
        <ele>847.4</ele>
        <time>2026-05-10T08:17:45Z</time>
      </trkpt>
      <trkpt lat="46.02718" lon="5.57294">
        <ele>847.6</ele>
        <time>2026-05-10T08:17:46Z</time>
      </trkpt>
      <trkpt lat="46.02721" lon="5.57295">
        <ele>847.6</ele>
        <time>2026-05-10T08:17:47Z</time>
      </trkpt>
      <trkpt lat="46.02724" lon="5.57295">
        <ele>847.6</ele>
        <time>2026-05-10T08:17:48Z</time>
      </trkpt>
      <trkpt lat="46.02726" lon="5.57296">
        <ele>848</ele>
        <time>2026-05-10T08:17:49Z</time>
      </trkpt>
      <trkpt lat="46.02729" lon="5.57296">
        <ele>848</ele>
        <time>2026-05-10T08:17:50Z</time>
      </trkpt>
      <trkpt lat="46.02731" lon="5.57296">
        <ele>848.2</ele>
        <time>2026-05-10T08:17:51Z</time>
      </trkpt>
      <trkpt lat="46.02733" lon="5.57296">
        <ele>848.2</ele>
        <time>2026-05-10T08:17:52Z</time>
      </trkpt>
      <trkpt lat="46.02736" lon="5.57296">
        <ele>848.6</ele>
        <time>2026-05-10T08:17:53Z</time>
      </trkpt>
      <trkpt lat="46.02738" lon="5.57297">
        <ele>848.6</ele>
        <time>2026-05-10T08:17:54Z</time>
      </trkpt>
      <trkpt lat="46.0274" lon="5.57298">
        <ele>849</ele>
        <time>2026-05-10T08:17:55Z</time>
      </trkpt>
      <trkpt lat="46.02743" lon="5.57299">
        <ele>849</ele>
        <time>2026-05-10T08:17:56Z</time>
      </trkpt>
      <trkpt lat="46.02745" lon="5.573">
        <ele>849</ele>
        <time>2026-05-10T08:17:57Z</time>
      </trkpt>
      <trkpt lat="46.02747" lon="5.57301">
        <ele>849.2</ele>
        <time>2026-05-10T08:17:58Z</time>
      </trkpt>
      <trkpt lat="46.0275" lon="5.57301">
        <ele>849.2</ele>
        <time>2026-05-10T08:17:59Z</time>
      </trkpt>
      <trkpt lat="46.02753" lon="5.57301">
        <ele>849.2</ele>
        <time>2026-05-10T08:18:00Z</time>
      </trkpt>
      <trkpt lat="46.02756" lon="5.573">
        <ele>849.2</ele>
        <time>2026-05-10T08:18:01Z</time>
      </trkpt>
      <trkpt lat="46.02759" lon="5.57301">
        <ele>849.2</ele>
        <time>2026-05-10T08:18:02Z</time>
      </trkpt>
      <trkpt lat="46.02763" lon="5.57302">
        <ele>849.2</ele>
        <time>2026-05-10T08:18:03Z</time>
      </trkpt>
      <trkpt lat="46.02768" lon="5.57303">
        <ele>849.2</ele>
        <time>2026-05-10T08:18:04Z</time>
      </trkpt>
      <trkpt lat="46.02772" lon="5.57304">
        <ele>848.8</ele>
        <time>2026-05-10T08:18:05Z</time>
      </trkpt>
      <trkpt lat="46.02776" lon="5.57305">
        <ele>848.8</ele>
        <time>2026-05-10T08:18:06Z</time>
      </trkpt>
      <trkpt lat="46.0278" lon="5.57306">
        <ele>848.6</ele>
        <time>2026-05-10T08:18:07Z</time>
      </trkpt>
      <trkpt lat="46.02782" lon="5.57307">
        <ele>848.6</ele>
        <time>2026-05-10T08:18:08Z</time>
      </trkpt>
      <trkpt lat="46.02784" lon="5.57307">
        <ele>848.6</ele>
        <time>2026-05-10T08:18:09Z</time>
      </trkpt>
      <trkpt lat="46.02785" lon="5.57308">
        <ele>848.6</ele>
        <time>2026-05-10T08:18:10Z</time>
      </trkpt>
      <trkpt lat="46.02787" lon="5.57308">
        <ele>848.6</ele>
        <time>2026-05-10T08:18:11Z</time>
      </trkpt>
      <trkpt lat="46.02787" lon="5.57309">
        <ele>848.4</ele>
        <time>2026-05-10T08:18:12Z</time>
      </trkpt>
      <trkpt lat="46.02787" lon="5.57309">
        <ele>848.4</ele>
        <time>2026-05-10T08:18:13Z</time>
      </trkpt>
      <trkpt lat="46.02786" lon="5.57309">
        <ele>847.8</ele>
        <time>2026-05-10T08:18:27Z</time>
      </trkpt>
      <trkpt lat="46.02785" lon="5.57308">
        <ele>847.8</ele>
        <time>2026-05-10T08:18:28Z</time>
      </trkpt>
      <trkpt lat="46.02785" lon="5.57307">
        <ele>847.8</ele>
        <time>2026-05-10T08:18:29Z</time>
      </trkpt>
      <trkpt lat="46.02783" lon="5.57307">
        <ele>847.8</ele>
        <time>2026-05-10T08:18:30Z</time>
      </trkpt>
      <trkpt lat="46.02781" lon="5.57308">
        <ele>848</ele>
        <time>2026-05-10T08:18:31Z</time>
      </trkpt>
      <trkpt lat="46.0278" lon="5.57309">
        <ele>848</ele>
        <time>2026-05-10T08:18:32Z</time>
      </trkpt>
      <trkpt lat="46.0278" lon="5.5731">
        <ele>848</ele>
        <time>2026-05-10T08:18:33Z</time>
      </trkpt>
      <trkpt lat="46.0278" lon="5.57311">
        <ele>848</ele>
        <time>2026-05-10T08:18:34Z</time>
      </trkpt>
      <trkpt lat="46.0278" lon="5.57311">
        <ele>848</ele>
        <time>2026-05-10T08:18:35Z</time>
      </trkpt>
      <trkpt lat="46.0278" lon="5.57309">
        <ele>848.2</ele>
        <time>2026-05-10T08:20:13Z</time>
      </trkpt>
      <trkpt lat="46.02781" lon="5.57309">
        <ele>848.2</ele>
        <time>2026-05-10T08:20:14Z</time>
      </trkpt>
      <trkpt lat="46.02781" lon="5.57309">
        <ele>848.2</ele>
        <time>2026-05-10T08:20:15Z</time>
      </trkpt>
      <trkpt lat="46.02782" lon="5.57308">
        <ele>848.2</ele>
        <time>2026-05-10T08:20:16Z</time>
      </trkpt>
      <trkpt lat="46.02783" lon="5.57308">
        <ele>848</ele>
        <time>2026-05-10T08:20:17Z</time>
      </trkpt>
      <trkpt lat="46.02783" lon="5.57308">
        <ele>848</ele>
        <time>2026-05-10T08:20:18Z</time>
      </trkpt>
      <trkpt lat="46.02783" lon="5.57308">
        <ele>848</ele>
        <time>2026-05-10T08:20:19Z</time>
      </trkpt>
      <trkpt lat="46.0278" lon="5.57309">
        <ele>848.4</ele>
        <time>2026-05-10T08:21:23Z</time>
      </trkpt>
      <trkpt lat="46.0278" lon="5.57309">
        <ele>848.4</ele>
        <time>2026-05-10T08:21:24Z</time>
      </trkpt>
      <trkpt lat="46.0278" lon="5.57309">
        <ele>848.4</ele>
        <time>2026-05-10T08:21:25Z</time>
      </trkpt>
      <trkpt lat="46.0278" lon="5.57309">
        <ele>848.4</ele>
        <time>2026-05-10T08:21:57Z</time>
      </trkpt>
      <trkpt lat="46.02781" lon="5.57309">
        <ele>848.4</ele>
        <time>2026-05-10T08:21:58Z</time>
      </trkpt>
      <trkpt lat="46.02782" lon="5.5731">
        <ele>848.4</ele>
        <time>2026-05-10T08:21:59Z</time>
      </trkpt>
      <trkpt lat="46.02784" lon="5.57311">
        <ele>848.4</ele>
        <time>2026-05-10T08:22:00Z</time>
      </trkpt>
      <trkpt lat="46.02786" lon="5.57311">
        <ele>848.2</ele>
        <time>2026-05-10T08:22:01Z</time>
      </trkpt>
      <trkpt lat="46.02789" lon="5.57312">
        <ele>848.2</ele>
        <time>2026-05-10T08:22:02Z</time>
      </trkpt>
      <trkpt lat="46.02792" lon="5.57311">
        <ele>848.2</ele>
        <time>2026-05-10T08:22:03Z</time>
      </trkpt>
      <trkpt lat="46.02795" lon="5.57311">
        <ele>848</ele>
        <time>2026-05-10T08:22:04Z</time>
      </trkpt>
      <trkpt lat="46.02799" lon="5.57311">
        <ele>847.6</ele>
        <time>2026-05-10T08:22:05Z</time>
      </trkpt>
      <trkpt lat="46.02804" lon="5.57311">
        <ele>847.4</ele>
        <time>2026-05-10T08:22:06Z</time>
      </trkpt>
      <trkpt lat="46.02809" lon="5.57312">
        <ele>847</ele>
        <time>2026-05-10T08:22:07Z</time>
      </trkpt>
      <trkpt lat="46.02814" lon="5.57313">
        <ele>846.8</ele>
        <time>2026-05-10T08:22:08Z</time>
      </trkpt>
      <trkpt lat="46.02818" lon="5.57314">
        <ele>846.8</ele>
        <time>2026-05-10T08:22:09Z</time>
      </trkpt>
      <trkpt lat="46.02823" lon="5.57315">
        <ele>846</ele>
        <time>2026-05-10T08:22:10Z</time>
      </trkpt>
      <trkpt lat="46.02829" lon="5.57316">
        <ele>845.6</ele>
        <time>2026-05-10T08:22:11Z</time>
      </trkpt>
      <trkpt lat="46.02833" lon="5.57316">
        <ele>845.2</ele>
        <time>2026-05-10T08:22:12Z</time>
      </trkpt>
      <trkpt lat="46.02838" lon="5.57317">
        <ele>844.8</ele>
        <time>2026-05-10T08:22:13Z</time>
      </trkpt>
      <trkpt lat="46.02843" lon="5.57319">
        <ele>844.8</ele>
        <time>2026-05-10T08:22:14Z</time>
      </trkpt>
      <trkpt lat="46.02848" lon="5.57321">
        <ele>844.4</ele>
        <time>2026-05-10T08:22:15Z</time>
      </trkpt>
      <trkpt lat="46.02852" lon="5.57323">
        <ele>844</ele>
        <time>2026-05-10T08:22:16Z</time>
      </trkpt>
      <trkpt lat="46.02857" lon="5.57326">
        <ele>843.8</ele>
        <time>2026-05-10T08:22:17Z</time>
      </trkpt>
      <trkpt lat="46.02862" lon="5.57328">
        <ele>843.4</ele>
        <time>2026-05-10T08:22:18Z</time>
      </trkpt>
      <trkpt lat="46.02867" lon="5.5733">
        <ele>843</ele>
        <time>2026-05-10T08:22:19Z</time>
      </trkpt>
      <trkpt lat="46.02872" lon="5.57331">
        <ele>843</ele>
        <time>2026-05-10T08:22:20Z</time>
      </trkpt>
      <trkpt lat="46.02877" lon="5.57332">
        <ele>842.6</ele>
        <time>2026-05-10T08:22:21Z</time>
      </trkpt>
      <trkpt lat="46.02882" lon="5.57333">
        <ele>842.4</ele>
        <time>2026-05-10T08:22:22Z</time>
      </trkpt>
      <trkpt lat="46.02888" lon="5.57333">
        <ele>842.2</ele>
        <time>2026-05-10T08:22:23Z</time>
      </trkpt>
      <trkpt lat="46.02893" lon="5.57333">
        <ele>841.8</ele>
        <time>2026-05-10T08:22:24Z</time>
      </trkpt>
      <trkpt lat="46.02899" lon="5.57332">
        <ele>841.8</ele>
        <time>2026-05-10T08:22:25Z</time>
      </trkpt>
      <trkpt lat="46.02905" lon="5.57331">
        <ele>841.2</ele>
        <time>2026-05-10T08:22:26Z</time>
      </trkpt>
      <trkpt lat="46.02911" lon="5.57329">
        <ele>840.8</ele>
        <time>2026-05-10T08:22:27Z</time>
      </trkpt>
      <trkpt lat="46.02917" lon="5.57326">
        <ele>840.4</ele>
        <time>2026-05-10T08:22:28Z</time>
      </trkpt>
      <trkpt lat="46.02923" lon="5.57323">
        <ele>840</ele>
        <time>2026-05-10T08:22:29Z</time>
      </trkpt>
      <trkpt lat="46.02929" lon="5.5732">
        <ele>839.8</ele>
        <time>2026-05-10T08:22:30Z</time>
      </trkpt>
      <trkpt lat="46.02935" lon="5.57316">
        <ele>839.4</ele>
        <time>2026-05-10T08:22:31Z</time>
      </trkpt>
      <trkpt lat="46.0294" lon="5.57312">
        <ele>839.4</ele>
        <time>2026-05-10T08:22:32Z</time>
      </trkpt>
      <trkpt lat="46.02946" lon="5.57309">
        <ele>839.4</ele>
        <time>2026-05-10T08:22:33Z</time>
      </trkpt>
      <trkpt lat="46.02952" lon="5.57306">
        <ele>839.4</ele>
        <time>2026-05-10T08:22:34Z</time>
      </trkpt>
      <trkpt lat="46.02957" lon="5.57303">
        <ele>839.4</ele>
        <time>2026-05-10T08:22:35Z</time>
      </trkpt>
      <trkpt lat="46.02963" lon="5.57303">
        <ele>839.4</ele>
        <time>2026-05-10T08:22:36Z</time>
      </trkpt>
      <trkpt lat="46.02968" lon="5.57303">
        <ele>839.4</ele>
        <time>2026-05-10T08:22:37Z</time>
      </trkpt>
      <trkpt lat="46.02973" lon="5.57303">
        <ele>839.6</ele>
        <time>2026-05-10T08:22:38Z</time>
      </trkpt>
      <trkpt lat="46.02977" lon="5.57305">
        <ele>839.8</ele>
        <time>2026-05-10T08:22:39Z</time>
      </trkpt>
      <trkpt lat="46.02982" lon="5.57307">
        <ele>840</ele>
        <time>2026-05-10T08:22:40Z</time>
      </trkpt>
      <trkpt lat="46.02986" lon="5.57308">
        <ele>840</ele>
        <time>2026-05-10T08:22:41Z</time>
      </trkpt>
      <trkpt lat="46.0299" lon="5.57309">
        <ele>840.2</ele>
        <time>2026-05-10T08:22:42Z</time>
      </trkpt>
      <trkpt lat="46.02994" lon="5.57309">
        <ele>840.2</ele>
        <time>2026-05-10T08:22:43Z</time>
      </trkpt>
      <trkpt lat="46.02998" lon="5.5731">
        <ele>840.8</ele>
        <time>2026-05-10T08:22:44Z</time>
      </trkpt>
      <trkpt lat="46.03002" lon="5.5731">
        <ele>841.2</ele>
        <time>2026-05-10T08:22:45Z</time>
      </trkpt>
      <trkpt lat="46.03005" lon="5.57309">
        <ele>841.2</ele>
        <time>2026-05-10T08:22:46Z</time>
      </trkpt>
      <trkpt lat="46.03009" lon="5.57309">
        <ele>841.6</ele>
        <time>2026-05-10T08:22:47Z</time>
      </trkpt>
      <trkpt lat="46.03012" lon="5.57309">
        <ele>841.8</ele>
        <time>2026-05-10T08:22:48Z</time>
      </trkpt>
      <trkpt lat="46.03015" lon="5.57309">
        <ele>842</ele>
        <time>2026-05-10T08:22:49Z</time>
      </trkpt>
      <trkpt lat="46.03018" lon="5.57308">
        <ele>842</ele>
        <time>2026-05-10T08:22:50Z</time>
      </trkpt>
      <trkpt lat="46.03021" lon="5.57308">
        <ele>842.4</ele>
        <time>2026-05-10T08:22:51Z</time>
      </trkpt>
      <trkpt lat="46.03025" lon="5.57308">
        <ele>842.4</ele>
        <time>2026-05-10T08:22:52Z</time>
      </trkpt>
      <trkpt lat="46.03028" lon="5.57308">
        <ele>842.8</ele>
        <time>2026-05-10T08:22:53Z</time>
      </trkpt>
      <trkpt lat="46.03031" lon="5.57308">
        <ele>842.8</ele>
        <time>2026-05-10T08:22:54Z</time>
      </trkpt>
      <trkpt lat="46.03034" lon="5.57309">
        <ele>843.4</ele>
        <time>2026-05-10T08:22:55Z</time>
      </trkpt>
      <trkpt lat="46.03037" lon="5.5731">
        <ele>843.4</ele>
        <time>2026-05-10T08:22:56Z</time>
      </trkpt>
      <trkpt lat="46.0304" lon="5.57311">
        <ele>843.8</ele>
        <time>2026-05-10T08:22:57Z</time>
      </trkpt>
      <trkpt lat="46.03043" lon="5.57312">
        <ele>843.8</ele>
        <time>2026-05-10T08:22:58Z</time>
      </trkpt>
      <trkpt lat="46.03047" lon="5.57313">
        <ele>844</ele>
        <time>2026-05-10T08:22:59Z</time>
      </trkpt>
      <trkpt lat="46.0305" lon="5.57315">
        <ele>844</ele>
        <time>2026-05-10T08:23:00Z</time>
      </trkpt>
      <trkpt lat="46.03053" lon="5.57316">
        <ele>844.2</ele>
        <time>2026-05-10T08:23:01Z</time>
      </trkpt>
      <trkpt lat="46.03056" lon="5.57317">
        <ele>844.2</ele>
        <time>2026-05-10T08:23:02Z</time>
      </trkpt>
      <trkpt lat="46.03059" lon="5.57319">
        <ele>844.6</ele>
        <time>2026-05-10T08:23:03Z</time>
      </trkpt>
      <trkpt lat="46.03062" lon="5.5732">
        <ele>844.6</ele>
        <time>2026-05-10T08:23:04Z</time>
      </trkpt>
      <trkpt lat="46.03065" lon="5.57321">
        <ele>845</ele>
        <time>2026-05-10T08:23:05Z</time>
      </trkpt>
      <trkpt lat="46.03068" lon="5.57323">
        <ele>845.2</ele>
        <time>2026-05-10T08:23:06Z</time>
      </trkpt>
      <trkpt lat="46.03071" lon="5.57324">
        <ele>845.2</ele>
        <time>2026-05-10T08:23:07Z</time>
      </trkpt>
      <trkpt lat="46.03074" lon="5.57326">
        <ele>845.6</ele>
        <time>2026-05-10T08:23:08Z</time>
      </trkpt>
      <trkpt lat="46.03077" lon="5.57326">
        <ele>845.6</ele>
        <time>2026-05-10T08:23:09Z</time>
      </trkpt>
      <trkpt lat="46.0308" lon="5.57327">
        <ele>846</ele>
        <time>2026-05-10T08:23:10Z</time>
      </trkpt>
      <trkpt lat="46.03083" lon="5.57328">
        <ele>846.4</ele>
        <time>2026-05-10T08:23:11Z</time>
      </trkpt>
      <trkpt lat="46.03086" lon="5.57329">
        <ele>846.6</ele>
        <time>2026-05-10T08:23:12Z</time>
      </trkpt>
      <trkpt lat="46.03089" lon="5.57329">
        <ele>847</ele>
        <time>2026-05-10T08:23:13Z</time>
      </trkpt>
      <trkpt lat="46.03093" lon="5.5733">
        <ele>847</ele>
        <time>2026-05-10T08:23:14Z</time>
      </trkpt>
      <trkpt lat="46.03096" lon="5.57331">
        <ele>847.4</ele>
        <time>2026-05-10T08:23:15Z</time>
      </trkpt>
      <trkpt lat="46.03098" lon="5.57332">
        <ele>847.4</ele>
        <time>2026-05-10T08:23:16Z</time>
      </trkpt>
      <trkpt lat="46.03101" lon="5.57334">
        <ele>847.6</ele>
        <time>2026-05-10T08:23:17Z</time>
      </trkpt>
      <trkpt lat="46.03104" lon="5.57335">
        <ele>847.8</ele>
        <time>2026-05-10T08:23:18Z</time>
      </trkpt>
      <trkpt lat="46.03106" lon="5.57336">
        <ele>848</ele>
        <time>2026-05-10T08:23:19Z</time>
      </trkpt>
      <trkpt lat="46.03109" lon="5.57338">
        <ele>848</ele>
        <time>2026-05-10T08:23:20Z</time>
      </trkpt>
      <trkpt lat="46.03112" lon="5.57339">
        <ele>848</ele>
        <time>2026-05-10T08:23:21Z</time>
      </trkpt>
      <trkpt lat="46.03114" lon="5.5734">
        <ele>848.4</ele>
        <time>2026-05-10T08:23:22Z</time>
      </trkpt>
      <trkpt lat="46.03118" lon="5.57342">
        <ele>848.4</ele>
        <time>2026-05-10T08:23:23Z</time>
      </trkpt>
      <trkpt lat="46.03121" lon="5.57343">
        <ele>848.4</ele>
        <time>2026-05-10T08:23:24Z</time>
      </trkpt>
      <trkpt lat="46.03124" lon="5.57343">
        <ele>848.4</ele>
        <time>2026-05-10T08:23:25Z</time>
      </trkpt>
      <trkpt lat="46.03128" lon="5.57344">
        <ele>848.4</ele>
        <time>2026-05-10T08:23:26Z</time>
      </trkpt>
      <trkpt lat="46.03131" lon="5.57345">
        <ele>848.4</ele>
        <time>2026-05-10T08:23:27Z</time>
      </trkpt>
      <trkpt lat="46.03134" lon="5.57347">
        <ele>848.2</ele>
        <time>2026-05-10T08:23:28Z</time>
      </trkpt>
      <trkpt lat="46.03138" lon="5.57348">
        <ele>848.2</ele>
        <time>2026-05-10T08:23:29Z</time>
      </trkpt>
      <trkpt lat="46.03142" lon="5.57349">
        <ele>847.8</ele>
        <time>2026-05-10T08:23:30Z</time>
      </trkpt>
      <trkpt lat="46.03146" lon="5.5735">
        <ele>847.4</ele>
        <time>2026-05-10T08:23:31Z</time>
      </trkpt>
      <trkpt lat="46.0315" lon="5.57352">
        <ele>847.2</ele>
        <time>2026-05-10T08:23:32Z</time>
      </trkpt>
      <trkpt lat="46.03154" lon="5.57354">
        <ele>847</ele>
        <time>2026-05-10T08:23:33Z</time>
      </trkpt>
      <trkpt lat="46.03158" lon="5.57355">
        <ele>846.4</ele>
        <time>2026-05-10T08:23:34Z</time>
      </trkpt>
      <trkpt lat="46.03164" lon="5.57356">
        <ele>846</ele>
        <time>2026-05-10T08:23:35Z</time>
      </trkpt>
      <trkpt lat="46.03169" lon="5.57357">
        <ele>846</ele>
        <time>2026-05-10T08:23:36Z</time>
      </trkpt>
      <trkpt lat="46.03174" lon="5.57358">
        <ele>845.6</ele>
        <time>2026-05-10T08:23:37Z</time>
      </trkpt>
      <trkpt lat="46.03179" lon="5.57359">
        <ele>845.4</ele>
        <time>2026-05-10T08:23:38Z</time>
      </trkpt>
      <trkpt lat="46.03185" lon="5.57359">
        <ele>845.4</ele>
        <time>2026-05-10T08:23:39Z</time>
      </trkpt>
      <trkpt lat="46.0319" lon="5.5736">
        <ele>845.2</ele>
        <time>2026-05-10T08:23:40Z</time>
      </trkpt>
      <trkpt lat="46.03195" lon="5.5736">
        <ele>845</ele>
        <time>2026-05-10T08:23:41Z</time>
      </trkpt>
      <trkpt lat="46.032" lon="5.57361">
        <ele>844.8</ele>
        <time>2026-05-10T08:23:42Z</time>
      </trkpt>
      <trkpt lat="46.03205" lon="5.5736">
        <ele>844.8</ele>
        <time>2026-05-10T08:23:43Z</time>
      </trkpt>
      <trkpt lat="46.0321" lon="5.5736">
        <ele>844.8</ele>
        <time>2026-05-10T08:23:44Z</time>
      </trkpt>
      <trkpt lat="46.03215" lon="5.57359">
        <ele>844.8</ele>
        <time>2026-05-10T08:23:45Z</time>
      </trkpt>
      <trkpt lat="46.0322" lon="5.57358">
        <ele>845</ele>
        <time>2026-05-10T08:23:46Z</time>
      </trkpt>
      <trkpt lat="46.03225" lon="5.57357">
        <ele>845</ele>
        <time>2026-05-10T08:23:47Z</time>
      </trkpt>
      <trkpt lat="46.0323" lon="5.57356">
        <ele>845.2</ele>
        <time>2026-05-10T08:23:48Z</time>
      </trkpt>
      <trkpt lat="46.03234" lon="5.57356">
        <ele>845.2</ele>
        <time>2026-05-10T08:23:49Z</time>
      </trkpt>
      <trkpt lat="46.03238" lon="5.57354">
        <ele>845.2</ele>
        <time>2026-05-10T08:23:50Z</time>
      </trkpt>
      <trkpt lat="46.03243" lon="5.57353">
        <ele>845.6</ele>
        <time>2026-05-10T08:23:51Z</time>
      </trkpt>
      <trkpt lat="46.03246" lon="5.57352">
        <ele>845.6</ele>
        <time>2026-05-10T08:23:52Z</time>
      </trkpt>
      <trkpt lat="46.0325" lon="5.57352">
        <ele>845.6</ele>
        <time>2026-05-10T08:23:53Z</time>
      </trkpt>
      <trkpt lat="46.03254" lon="5.57351">
        <ele>845.8</ele>
        <time>2026-05-10T08:23:54Z</time>
      </trkpt>
      <trkpt lat="46.03257" lon="5.57349">
        <ele>846</ele>
        <time>2026-05-10T08:23:55Z</time>
      </trkpt>
      <trkpt lat="46.0326" lon="5.57349">
        <ele>846</ele>
        <time>2026-05-10T08:23:56Z</time>
      </trkpt>
      <trkpt lat="46.03264" lon="5.57348">
        <ele>846.2</ele>
        <time>2026-05-10T08:23:57Z</time>
      </trkpt>
      <trkpt lat="46.03267" lon="5.57347">
        <ele>846.2</ele>
        <time>2026-05-10T08:23:58Z</time>
      </trkpt>
      <trkpt lat="46.0327" lon="5.57346">
        <ele>846.2</ele>
        <time>2026-05-10T08:23:59Z</time>
      </trkpt>
      <trkpt lat="46.03274" lon="5.57346">
        <ele>846.2</ele>
        <time>2026-05-10T08:24:00Z</time>
      </trkpt>
      <trkpt lat="46.03278" lon="5.57347">
        <ele>846.2</ele>
        <time>2026-05-10T08:24:01Z</time>
      </trkpt>
      <trkpt lat="46.03282" lon="5.57348">
        <ele>846.2</ele>
        <time>2026-05-10T08:24:02Z</time>
      </trkpt>
      <trkpt lat="46.03286" lon="5.5735">
        <ele>846.2</ele>
        <time>2026-05-10T08:24:03Z</time>
      </trkpt>
      <trkpt lat="46.0329" lon="5.57352">
        <ele>846.2</ele>
        <time>2026-05-10T08:24:04Z</time>
      </trkpt>
      <trkpt lat="46.03294" lon="5.57354">
        <ele>846</ele>
        <time>2026-05-10T08:24:05Z</time>
      </trkpt>
      <trkpt lat="46.03299" lon="5.57356">
        <ele>845.8</ele>
        <time>2026-05-10T08:24:06Z</time>
      </trkpt>
      <trkpt lat="46.03303" lon="5.57357">
        <ele>845.8</ele>
        <time>2026-05-10T08:24:07Z</time>
      </trkpt>
      <trkpt lat="46.03308" lon="5.57359">
        <ele>845.8</ele>
        <time>2026-05-10T08:24:08Z</time>
      </trkpt>
      <trkpt lat="46.03312" lon="5.57361">
        <ele>845.8</ele>
        <time>2026-05-10T08:24:09Z</time>
      </trkpt>
      <trkpt lat="46.03316" lon="5.57363">
        <ele>845.8</ele>
        <time>2026-05-10T08:24:10Z</time>
      </trkpt>
      <trkpt lat="46.0332" lon="5.57365">
        <ele>845.8</ele>
        <time>2026-05-10T08:24:11Z</time>
      </trkpt>
      <trkpt lat="46.03324" lon="5.57366">
        <ele>845.8</ele>
        <time>2026-05-10T08:24:12Z</time>
      </trkpt>
      <trkpt lat="46.03329" lon="5.57368">
        <ele>845.8</ele>
        <time>2026-05-10T08:24:13Z</time>
      </trkpt>
      <trkpt lat="46.03333" lon="5.5737">
        <ele>845.8</ele>
        <time>2026-05-10T08:24:14Z</time>
      </trkpt>
      <trkpt lat="46.03336" lon="5.57373">
        <ele>845.8</ele>
        <time>2026-05-10T08:24:15Z</time>
      </trkpt>
      <trkpt lat="46.03341" lon="5.57375">
        <ele>846.4</ele>
        <time>2026-05-10T08:24:16Z</time>
      </trkpt>
      <trkpt lat="46.03343" lon="5.57378">
        <ele>846.4</ele>
        <time>2026-05-10T08:24:17Z</time>
      </trkpt>
      <trkpt lat="46.03347" lon="5.57381">
        <ele>846.4</ele>
        <time>2026-05-10T08:24:18Z</time>
      </trkpt>
      <trkpt lat="46.0335" lon="5.57383">
        <ele>846</ele>
        <time>2026-05-10T08:24:19Z</time>
      </trkpt>
      <trkpt lat="46.03353" lon="5.57387">
        <ele>846</ele>
        <time>2026-05-10T08:24:20Z</time>
      </trkpt>
      <trkpt lat="46.03356" lon="5.5739">
        <ele>845.8</ele>
        <time>2026-05-10T08:24:21Z</time>
      </trkpt>
      <trkpt lat="46.0336" lon="5.57392">
        <ele>845.8</ele>
        <time>2026-05-10T08:24:22Z</time>
      </trkpt>
      <trkpt lat="46.03363" lon="5.57395">
        <ele>845.8</ele>
        <time>2026-05-10T08:24:23Z</time>
      </trkpt>
      <trkpt lat="46.03371" lon="5.574">
        <ele>845.8</ele>
        <time>2026-05-10T08:24:24Z</time>
      </trkpt>
      <trkpt lat="46.03374" lon="5.57402">
        <ele>845.8</ele>
        <time>2026-05-10T08:24:25Z</time>
      </trkpt>
      <trkpt lat="46.03378" lon="5.57404">
        <ele>845.8</ele>
        <time>2026-05-10T08:24:26Z</time>
      </trkpt>
      <trkpt lat="46.03382" lon="5.57406">
        <ele>845.8</ele>
        <time>2026-05-10T08:24:27Z</time>
      </trkpt>
      <trkpt lat="46.03386" lon="5.57407">
        <ele>845.8</ele>
        <time>2026-05-10T08:24:28Z</time>
      </trkpt>
      <trkpt lat="46.0339" lon="5.5741">
        <ele>845.8</ele>
        <time>2026-05-10T08:24:29Z</time>
      </trkpt>
      <trkpt lat="46.03393" lon="5.57412">
        <ele>845.8</ele>
        <time>2026-05-10T08:24:30Z</time>
      </trkpt>
      <trkpt lat="46.03396" lon="5.57414">
        <ele>845.8</ele>
        <time>2026-05-10T08:24:31Z</time>
      </trkpt>
      <trkpt lat="46.034" lon="5.57416">
        <ele>846</ele>
        <time>2026-05-10T08:24:32Z</time>
      </trkpt>
      <trkpt lat="46.03403" lon="5.57418">
        <ele>846</ele>
        <time>2026-05-10T08:24:33Z</time>
      </trkpt>
      <trkpt lat="46.03407" lon="5.5742">
        <ele>846</ele>
        <time>2026-05-10T08:24:34Z</time>
      </trkpt>
      <trkpt lat="46.03411" lon="5.57421">
        <ele>846</ele>
        <time>2026-05-10T08:24:35Z</time>
      </trkpt>
      <trkpt lat="46.03414" lon="5.57423">
        <ele>846</ele>
        <time>2026-05-10T08:24:36Z</time>
      </trkpt>
      <trkpt lat="46.03418" lon="5.57426">
        <ele>846</ele>
        <time>2026-05-10T08:24:37Z</time>
      </trkpt>
      <trkpt lat="46.03424" lon="5.57429">
        <ele>845.8</ele>
        <time>2026-05-10T08:24:38Z</time>
      </trkpt>
      <trkpt lat="46.03428" lon="5.57432">
        <ele>845.4</ele>
        <time>2026-05-10T08:24:39Z</time>
      </trkpt>
      <trkpt lat="46.03433" lon="5.57435">
        <ele>845.2</ele>
        <time>2026-05-10T08:24:40Z</time>
      </trkpt>
      <trkpt lat="46.03439" lon="5.57437">
        <ele>844.8</ele>
        <time>2026-05-10T08:24:41Z</time>
      </trkpt>
      <trkpt lat="46.03444" lon="5.57439">
        <ele>844.6</ele>
        <time>2026-05-10T08:24:42Z</time>
      </trkpt>
      <trkpt lat="46.0345" lon="5.57442">
        <ele>844.2</ele>
        <time>2026-05-10T08:24:43Z</time>
      </trkpt>
      <trkpt lat="46.03457" lon="5.57443">
        <ele>843.8</ele>
        <time>2026-05-10T08:24:44Z</time>
      </trkpt>
      <trkpt lat="46.03464" lon="5.57445">
        <ele>843.4</ele>
        <time>2026-05-10T08:24:45Z</time>
      </trkpt>
      <trkpt lat="46.0347" lon="5.57447">
        <ele>842.8</ele>
        <time>2026-05-10T08:24:46Z</time>
      </trkpt>
      <trkpt lat="46.03477" lon="5.57449">
        <ele>842.4</ele>
        <time>2026-05-10T08:24:47Z</time>
      </trkpt>
      <trkpt lat="46.03483" lon="5.57451">
        <ele>842.4</ele>
        <time>2026-05-10T08:24:48Z</time>
      </trkpt>
      <trkpt lat="46.0349" lon="5.57452">
        <ele>842.2</ele>
        <time>2026-05-10T08:24:49Z</time>
      </trkpt>
      <trkpt lat="46.03496" lon="5.57454">
        <ele>842.2</ele>
        <time>2026-05-10T08:24:50Z</time>
      </trkpt>
      <trkpt lat="46.03502" lon="5.57455">
        <ele>842</ele>
        <time>2026-05-10T08:24:51Z</time>
      </trkpt>
      <trkpt lat="46.03508" lon="5.57456">
        <ele>842</ele>
        <time>2026-05-10T08:24:52Z</time>
      </trkpt>
      <trkpt lat="46.03512" lon="5.57459">
        <ele>842</ele>
        <time>2026-05-10T08:24:53Z</time>
      </trkpt>
      <trkpt lat="46.03516" lon="5.57461">
        <ele>842.2</ele>
        <time>2026-05-10T08:24:54Z</time>
      </trkpt>
      <trkpt lat="46.0352" lon="5.57463">
        <ele>842.2</ele>
        <time>2026-05-10T08:24:55Z</time>
      </trkpt>
      <trkpt lat="46.03525" lon="5.57465">
        <ele>842.6</ele>
        <time>2026-05-10T08:24:56Z</time>
      </trkpt>
      <trkpt lat="46.03529" lon="5.57468">
        <ele>842.6</ele>
        <time>2026-05-10T08:24:57Z</time>
      </trkpt>
      <trkpt lat="46.03533" lon="5.57469">
        <ele>842.8</ele>
        <time>2026-05-10T08:24:58Z</time>
      </trkpt>
      <trkpt lat="46.03537" lon="5.57468">
        <ele>843.2</ele>
        <time>2026-05-10T08:24:59Z</time>
      </trkpt>
      <trkpt lat="46.0354" lon="5.57464">
        <ele>843.2</ele>
        <time>2026-05-10T08:25:00Z</time>
      </trkpt>
      <trkpt lat="46.03542" lon="5.57462">
        <ele>843.4</ele>
        <time>2026-05-10T08:25:01Z</time>
      </trkpt>
      <trkpt lat="46.03544" lon="5.57459">
        <ele>843.8</ele>
        <time>2026-05-10T08:25:02Z</time>
      </trkpt>
      <trkpt lat="46.03544" lon="5.57455">
        <ele>844</ele>
        <time>2026-05-10T08:25:03Z</time>
      </trkpt>
      <trkpt lat="46.03545" lon="5.57452">
        <ele>844.4</ele>
        <time>2026-05-10T08:25:04Z</time>
      </trkpt>
      <trkpt lat="46.03545" lon="5.57449">
        <ele>844.6</ele>
        <time>2026-05-10T08:25:05Z</time>
      </trkpt>
      <trkpt lat="46.03545" lon="5.57449">
        <ele>845</ele>
        <time>2026-05-10T08:25:06Z</time>
      </trkpt>
      <trkpt lat="46.03546" lon="5.57446">
        <ele>845.2</ele>
        <time>2026-05-10T08:25:07Z</time>
      </trkpt>
      <trkpt lat="46.03547" lon="5.57443">
        <ele>845.2</ele>
        <time>2026-05-10T08:25:08Z</time>
      </trkpt>
      <trkpt lat="46.03548" lon="5.57441">
        <ele>845.6</ele>
        <time>2026-05-10T08:25:09Z</time>
      </trkpt>
      <trkpt lat="46.0355" lon="5.57438">
        <ele>845.8</ele>
        <time>2026-05-10T08:25:10Z</time>
      </trkpt>
      <trkpt lat="46.03551" lon="5.57435">
        <ele>846</ele>
        <time>2026-05-10T08:25:11Z</time>
      </trkpt>
      <trkpt lat="46.03552" lon="5.57433">
        <ele>846.4</ele>
        <time>2026-05-10T08:25:12Z</time>
      </trkpt>
      <trkpt lat="46.03553" lon="5.5743">
        <ele>846.6</ele>
        <time>2026-05-10T08:25:13Z</time>
      </trkpt>
      <trkpt lat="46.03554" lon="5.57427">
        <ele>846.8</ele>
        <time>2026-05-10T08:25:14Z</time>
      </trkpt>
      <trkpt lat="46.03555" lon="5.57425">
        <ele>847</ele>
        <time>2026-05-10T08:25:15Z</time>
      </trkpt>
      <trkpt lat="46.03557" lon="5.57423">
        <ele>847.2</ele>
        <time>2026-05-10T08:25:16Z</time>
      </trkpt>
      <trkpt lat="46.03559" lon="5.57421">
        <ele>847.6</ele>
        <time>2026-05-10T08:25:17Z</time>
      </trkpt>
      <trkpt lat="46.03561" lon="5.5742">
        <ele>847.6</ele>
        <time>2026-05-10T08:25:18Z</time>
      </trkpt>
      <trkpt lat="46.03562" lon="5.57418">
        <ele>848</ele>
        <time>2026-05-10T08:25:19Z</time>
      </trkpt>
      <trkpt lat="46.03564" lon="5.57417">
        <ele>848.2</ele>
        <time>2026-05-10T08:25:20Z</time>
      </trkpt>
      <trkpt lat="46.03565" lon="5.57415">
        <ele>848.4</ele>
        <time>2026-05-10T08:25:21Z</time>
      </trkpt>
      <trkpt lat="46.03567" lon="5.57414">
        <ele>848.6</ele>
        <time>2026-05-10T08:25:22Z</time>
      </trkpt>
      <trkpt lat="46.03569" lon="5.57413">
        <ele>848.8</ele>
        <time>2026-05-10T08:25:23Z</time>
      </trkpt>
      <trkpt lat="46.0357" lon="5.57412">
        <ele>848.8</ele>
        <time>2026-05-10T08:25:24Z</time>
      </trkpt>
      <trkpt lat="46.03572" lon="5.5741">
        <ele>849.4</ele>
        <time>2026-05-10T08:25:25Z</time>
      </trkpt>
      <trkpt lat="46.03574" lon="5.57409">
        <ele>849.6</ele>
        <time>2026-05-10T08:25:26Z</time>
      </trkpt>
      <trkpt lat="46.03576" lon="5.57408">
        <ele>849.6</ele>
        <time>2026-05-10T08:25:27Z</time>
      </trkpt>
      <trkpt lat="46.03578" lon="5.57408">
        <ele>850</ele>
        <time>2026-05-10T08:25:28Z</time>
      </trkpt>
      <trkpt lat="46.03579" lon="5.57407">
        <ele>850.2</ele>
        <time>2026-05-10T08:25:29Z</time>
      </trkpt>
      <trkpt lat="46.03581" lon="5.57406">
        <ele>850.6</ele>
        <time>2026-05-10T08:25:30Z</time>
      </trkpt>
      <trkpt lat="46.03583" lon="5.57405">
        <ele>850.8</ele>
        <time>2026-05-10T08:25:31Z</time>
      </trkpt>
      <trkpt lat="46.03584" lon="5.57405">
        <ele>851</ele>
        <time>2026-05-10T08:25:32Z</time>
      </trkpt>
      <trkpt lat="46.03586" lon="5.57404">
        <ele>851.4</ele>
        <time>2026-05-10T08:25:33Z</time>
      </trkpt>
      <trkpt lat="46.03588" lon="5.57402">
        <ele>851.8</ele>
        <time>2026-05-10T08:25:34Z</time>
      </trkpt>
      <trkpt lat="46.0359" lon="5.574">
        <ele>851.8</ele>
        <time>2026-05-10T08:25:35Z</time>
      </trkpt>
      <trkpt lat="46.03591" lon="5.57399">
        <ele>852</ele>
        <time>2026-05-10T08:25:36Z</time>
      </trkpt>
      <trkpt lat="46.03593" lon="5.57398">
        <ele>852</ele>
        <time>2026-05-10T08:25:37Z</time>
      </trkpt>
      <trkpt lat="46.03594" lon="5.57397">
        <ele>852.4</ele>
        <time>2026-05-10T08:25:38Z</time>
      </trkpt>
      <trkpt lat="46.03596" lon="5.57397">
        <ele>852.6</ele>
        <time>2026-05-10T08:25:39Z</time>
      </trkpt>
      <trkpt lat="46.03598" lon="5.57396">
        <ele>852.6</ele>
        <time>2026-05-10T08:25:40Z</time>
      </trkpt>
      <trkpt lat="46.03599" lon="5.57396">
        <ele>853</ele>
        <time>2026-05-10T08:25:41Z</time>
      </trkpt>
      <trkpt lat="46.03601" lon="5.57395">
        <ele>853.2</ele>
        <time>2026-05-10T08:25:42Z</time>
      </trkpt>
      <trkpt lat="46.03603" lon="5.57394">
        <ele>853.2</ele>
        <time>2026-05-10T08:25:43Z</time>
      </trkpt>
      <trkpt lat="46.03605" lon="5.57393">
        <ele>853.2</ele>
        <time>2026-05-10T08:25:44Z</time>
      </trkpt>
      <trkpt lat="46.03605" lon="5.57393">
        <ele>853.4</ele>
        <time>2026-05-10T08:25:45Z</time>
      </trkpt>
      <trkpt lat="46.03605" lon="5.57393">
        <ele>853.4</ele>
        <time>2026-05-10T08:25:46Z</time>
      </trkpt>
      <trkpt lat="46.03605" lon="5.57393">
        <ele>853.4</ele>
        <time>2026-05-10T08:25:47Z</time>
      </trkpt>
      <trkpt lat="46.03612" lon="5.57393">
        <ele>853.8</ele>
        <time>2026-05-10T08:25:48Z</time>
      </trkpt>
      <trkpt lat="46.03614" lon="5.57393">
        <ele>853.8</ele>
        <time>2026-05-10T08:25:49Z</time>
      </trkpt>
      <trkpt lat="46.03616" lon="5.57393">
        <ele>854.2</ele>
        <time>2026-05-10T08:25:50Z</time>
      </trkpt>
      <trkpt lat="46.03617" lon="5.57393">
        <ele>854.2</ele>
        <time>2026-05-10T08:25:51Z</time>
      </trkpt>
      <trkpt lat="46.03619" lon="5.57393">
        <ele>854.4</ele>
        <time>2026-05-10T08:25:52Z</time>
      </trkpt>
      <trkpt lat="46.03621" lon="5.57393">
        <ele>854.4</ele>
        <time>2026-05-10T08:25:53Z</time>
      </trkpt>
      <trkpt lat="46.03623" lon="5.57394">
        <ele>854.8</ele>
        <time>2026-05-10T08:25:54Z</time>
      </trkpt>
      <trkpt lat="46.03625" lon="5.57396">
        <ele>854.8</ele>
        <time>2026-05-10T08:25:55Z</time>
      </trkpt>
      <trkpt lat="46.03627" lon="5.57397">
        <ele>854.8</ele>
        <time>2026-05-10T08:25:56Z</time>
      </trkpt>
      <trkpt lat="46.0363" lon="5.57397">
        <ele>855</ele>
        <time>2026-05-10T08:25:57Z</time>
      </trkpt>
      <trkpt lat="46.03632" lon="5.57398">
        <ele>855</ele>
        <time>2026-05-10T08:25:58Z</time>
      </trkpt>
      <trkpt lat="46.03634" lon="5.57398">
        <ele>855</ele>
        <time>2026-05-10T08:25:59Z</time>
      </trkpt>
      <trkpt lat="46.03636" lon="5.57399">
        <ele>855</ele>
        <time>2026-05-10T08:26:00Z</time>
      </trkpt>
      <trkpt lat="46.03638" lon="5.574">
        <ele>855</ele>
        <time>2026-05-10T08:26:01Z</time>
      </trkpt>
      <trkpt lat="46.0364" lon="5.57401">
        <ele>855</ele>
        <time>2026-05-10T08:26:02Z</time>
      </trkpt>
      <trkpt lat="46.03642" lon="5.57402">
        <ele>855.2</ele>
        <time>2026-05-10T08:26:03Z</time>
      </trkpt>
      <trkpt lat="46.03644" lon="5.57403">
        <ele>855.4</ele>
        <time>2026-05-10T08:26:04Z</time>
      </trkpt>
      <trkpt lat="46.03646" lon="5.57404">
        <ele>855.6</ele>
        <time>2026-05-10T08:26:05Z</time>
      </trkpt>
      <trkpt lat="46.03649" lon="5.57405">
        <ele>855.6</ele>
        <time>2026-05-10T08:26:06Z</time>
      </trkpt>
      <trkpt lat="46.03651" lon="5.57406">
        <ele>856</ele>
        <time>2026-05-10T08:26:07Z</time>
      </trkpt>
      <trkpt lat="46.03653" lon="5.57407">
        <ele>856</ele>
        <time>2026-05-10T08:26:08Z</time>
      </trkpt>
      <trkpt lat="46.03655" lon="5.57407">
        <ele>856</ele>
        <time>2026-05-10T08:26:09Z</time>
      </trkpt>
      <trkpt lat="46.03657" lon="5.57408">
        <ele>856</ele>
        <time>2026-05-10T08:26:10Z</time>
      </trkpt>
      <trkpt lat="46.03659" lon="5.57409">
        <ele>856</ele>
        <time>2026-05-10T08:26:11Z</time>
      </trkpt>
      <trkpt lat="46.03662" lon="5.5741">
        <ele>856</ele>
        <time>2026-05-10T08:26:12Z</time>
      </trkpt>
      <trkpt lat="46.03664" lon="5.5741">
        <ele>856.2</ele>
        <time>2026-05-10T08:26:13Z</time>
      </trkpt>
      <trkpt lat="46.03666" lon="5.5741">
        <ele>856.2</ele>
        <time>2026-05-10T08:26:14Z</time>
      </trkpt>
      <trkpt lat="46.03668" lon="5.57409">
        <ele>856.4</ele>
        <time>2026-05-10T08:26:15Z</time>
      </trkpt>
      <trkpt lat="46.0367" lon="5.57408">
        <ele>856.4</ele>
        <time>2026-05-10T08:26:16Z</time>
      </trkpt>
      <trkpt lat="46.03672" lon="5.57405">
        <ele>856.4</ele>
        <time>2026-05-10T08:26:17Z</time>
      </trkpt>
      <trkpt lat="46.03673" lon="5.57403">
        <ele>856.4</ele>
        <time>2026-05-10T08:26:18Z</time>
      </trkpt>
      <trkpt lat="46.03675" lon="5.574">
        <ele>856.6</ele>
        <time>2026-05-10T08:26:19Z</time>
      </trkpt>
      <trkpt lat="46.03676" lon="5.57397">
        <ele>856.6</ele>
        <time>2026-05-10T08:26:20Z</time>
      </trkpt>
      <trkpt lat="46.03676" lon="5.57394">
        <ele>857</ele>
        <time>2026-05-10T08:26:21Z</time>
      </trkpt>
      <trkpt lat="46.03677" lon="5.57392">
        <ele>857</ele>
        <time>2026-05-10T08:26:22Z</time>
      </trkpt>
      <trkpt lat="46.03678" lon="5.5739">
        <ele>857.2</ele>
        <time>2026-05-10T08:26:23Z</time>
      </trkpt>
      <trkpt lat="46.03679" lon="5.57388">
        <ele>857.6</ele>
        <time>2026-05-10T08:26:24Z</time>
      </trkpt>
      <trkpt lat="46.0368" lon="5.57385">
        <ele>857.6</ele>
        <time>2026-05-10T08:26:25Z</time>
      </trkpt>
      <trkpt lat="46.03681" lon="5.57383">
        <ele>858</ele>
        <time>2026-05-10T08:26:26Z</time>
      </trkpt>
      <trkpt lat="46.03682" lon="5.57381">
        <ele>858</ele>
        <time>2026-05-10T08:26:27Z</time>
      </trkpt>
      <trkpt lat="46.03683" lon="5.57379">
        <ele>858</ele>
        <time>2026-05-10T08:26:28Z</time>
      </trkpt>
      <trkpt lat="46.03684" lon="5.57377">
        <ele>858.4</ele>
        <time>2026-05-10T08:26:29Z</time>
      </trkpt>
      <trkpt lat="46.03684" lon="5.57377">
        <ele>858.4</ele>
        <time>2026-05-10T08:26:30Z</time>
      </trkpt>
      <trkpt lat="46.03687" lon="5.57374">
        <ele>859</ele>
        <time>2026-05-10T08:26:31Z</time>
      </trkpt>
      <trkpt lat="46.03689" lon="5.57373">
        <ele>859</ele>
        <time>2026-05-10T08:26:32Z</time>
      </trkpt>
      <trkpt lat="46.0369" lon="5.57372">
        <ele>859.2</ele>
        <time>2026-05-10T08:26:33Z</time>
      </trkpt>
      <trkpt lat="46.03692" lon="5.57372">
        <ele>859.2</ele>
        <time>2026-05-10T08:26:34Z</time>
      </trkpt>
      <trkpt lat="46.03693" lon="5.57371">
        <ele>859.8</ele>
        <time>2026-05-10T08:26:35Z</time>
      </trkpt>
      <trkpt lat="46.03695" lon="5.57371">
        <ele>859.8</ele>
        <time>2026-05-10T08:26:36Z</time>
      </trkpt>
      <trkpt lat="46.03697" lon="5.5737">
        <ele>860.4</ele>
        <time>2026-05-10T08:26:37Z</time>
      </trkpt>
      <trkpt lat="46.03699" lon="5.5737">
        <ele>860.8</ele>
        <time>2026-05-10T08:26:38Z</time>
      </trkpt>
      <trkpt lat="46.03701" lon="5.57369">
        <ele>860.8</ele>
        <time>2026-05-10T08:26:39Z</time>
      </trkpt>
      <trkpt lat="46.03703" lon="5.57369">
        <ele>861</ele>
        <time>2026-05-10T08:26:40Z</time>
      </trkpt>
      <trkpt lat="46.03704" lon="5.57369">
        <ele>861.4</ele>
        <time>2026-05-10T08:26:41Z</time>
      </trkpt>
      <trkpt lat="46.03706" lon="5.57369">
        <ele>861.4</ele>
        <time>2026-05-10T08:26:42Z</time>
      </trkpt>
      <trkpt lat="46.03708" lon="5.57368">
        <ele>861.8</ele>
        <time>2026-05-10T08:26:43Z</time>
      </trkpt>
      <trkpt lat="46.03709" lon="5.57368">
        <ele>861.8</ele>
        <time>2026-05-10T08:26:44Z</time>
      </trkpt>
      <trkpt lat="46.03711" lon="5.57367">
        <ele>862.2</ele>
        <time>2026-05-10T08:26:45Z</time>
      </trkpt>
      <trkpt lat="46.03712" lon="5.57367">
        <ele>862.4</ele>
        <time>2026-05-10T08:26:46Z</time>
      </trkpt>
      <trkpt lat="46.03714" lon="5.57367">
        <ele>862.4</ele>
        <time>2026-05-10T08:26:47Z</time>
      </trkpt>
      <trkpt lat="46.03716" lon="5.57367">
        <ele>863</ele>
        <time>2026-05-10T08:26:48Z</time>
      </trkpt>
      <trkpt lat="46.03717" lon="5.57367">
        <ele>863</ele>
        <time>2026-05-10T08:26:49Z</time>
      </trkpt>
      <trkpt lat="46.03719" lon="5.57367">
        <ele>863.4</ele>
        <time>2026-05-10T08:26:50Z</time>
      </trkpt>
      <trkpt lat="46.0372" lon="5.57366">
        <ele>863.8</ele>
        <time>2026-05-10T08:26:51Z</time>
      </trkpt>
      <trkpt lat="46.03721" lon="5.57366">
        <ele>864</ele>
        <time>2026-05-10T08:26:52Z</time>
      </trkpt>
      <trkpt lat="46.03723" lon="5.57366">
        <ele>864.4</ele>
        <time>2026-05-10T08:26:53Z</time>
      </trkpt>
      <trkpt lat="46.03724" lon="5.57367">
        <ele>864.4</ele>
        <time>2026-05-10T08:26:54Z</time>
      </trkpt>
      <trkpt lat="46.03725" lon="5.57366">
        <ele>864.8</ele>
        <time>2026-05-10T08:26:55Z</time>
      </trkpt>
      <trkpt lat="46.03727" lon="5.57366">
        <ele>865</ele>
        <time>2026-05-10T08:26:56Z</time>
      </trkpt>
      <trkpt lat="46.03727" lon="5.57366">
        <ele>865.2</ele>
        <time>2026-05-10T08:26:57Z</time>
      </trkpt>
      <trkpt lat="46.03729" lon="5.57366">
        <ele>865.2</ele>
        <time>2026-05-10T08:26:58Z</time>
      </trkpt>
      <trkpt lat="46.0373" lon="5.57366">
        <ele>865.2</ele>
        <time>2026-05-10T08:26:59Z</time>
      </trkpt>
      <trkpt lat="46.03731" lon="5.57366">
        <ele>865.6</ele>
        <time>2026-05-10T08:27:00Z</time>
      </trkpt>
      <trkpt lat="46.03733" lon="5.57366">
        <ele>866</ele>
        <time>2026-05-10T08:27:01Z</time>
      </trkpt>
      <trkpt lat="46.03734" lon="5.57366">
        <ele>866.2</ele>
        <time>2026-05-10T08:27:02Z</time>
      </trkpt>
      <trkpt lat="46.03735" lon="5.57365">
        <ele>866.2</ele>
        <time>2026-05-10T08:27:03Z</time>
      </trkpt>
      <trkpt lat="46.03737" lon="5.57365">
        <ele>866.6</ele>
        <time>2026-05-10T08:27:04Z</time>
      </trkpt>
      <trkpt lat="46.03738" lon="5.57365">
        <ele>866.6</ele>
        <time>2026-05-10T08:27:05Z</time>
      </trkpt>
      <trkpt lat="46.0374" lon="5.57364">
        <ele>867.2</ele>
        <time>2026-05-10T08:27:06Z</time>
      </trkpt>
      <trkpt lat="46.03741" lon="5.57363">
        <ele>867.4</ele>
        <time>2026-05-10T08:27:07Z</time>
      </trkpt>
      <trkpt lat="46.03742" lon="5.57361">
        <ele>867.4</ele>
        <time>2026-05-10T08:27:08Z</time>
      </trkpt>
      <trkpt lat="46.03743" lon="5.57359">
        <ele>867.6</ele>
        <time>2026-05-10T08:27:09Z</time>
      </trkpt>
      <trkpt lat="46.03744" lon="5.57358">
        <ele>868</ele>
        <time>2026-05-10T08:27:10Z</time>
      </trkpt>
      <trkpt lat="46.03746" lon="5.57357">
        <ele>868.2</ele>
        <time>2026-05-10T08:27:11Z</time>
      </trkpt>
      <trkpt lat="46.03747" lon="5.57356">
        <ele>868.6</ele>
        <time>2026-05-10T08:27:12Z</time>
      </trkpt>
      <trkpt lat="46.03748" lon="5.57355">
        <ele>868.8</ele>
        <time>2026-05-10T08:27:13Z</time>
      </trkpt>
      <trkpt lat="46.0375" lon="5.57354">
        <ele>869</ele>
        <time>2026-05-10T08:27:14Z</time>
      </trkpt>
      <trkpt lat="46.03751" lon="5.57353">
        <ele>869.4</ele>
        <time>2026-05-10T08:27:15Z</time>
      </trkpt>
      <trkpt lat="46.03752" lon="5.57353">
        <ele>869.4</ele>
        <time>2026-05-10T08:27:16Z</time>
      </trkpt>
      <trkpt lat="46.03753" lon="5.57352">
        <ele>869.8</ele>
        <time>2026-05-10T08:27:17Z</time>
      </trkpt>
      <trkpt lat="46.03754" lon="5.57352">
        <ele>869.8</ele>
        <time>2026-05-10T08:27:18Z</time>
      </trkpt>
      <trkpt lat="46.03756" lon="5.57351">
        <ele>870.2</ele>
        <time>2026-05-10T08:27:19Z</time>
      </trkpt>
      <trkpt lat="46.03757" lon="5.57351">
        <ele>870.4</ele>
        <time>2026-05-10T08:27:20Z</time>
      </trkpt>
      <trkpt lat="46.03758" lon="5.57351">
        <ele>870.4</ele>
        <time>2026-05-10T08:27:21Z</time>
      </trkpt>
      <trkpt lat="46.03759" lon="5.57351">
        <ele>870.4</ele>
        <time>2026-05-10T08:27:22Z</time>
      </trkpt>
      <trkpt lat="46.03761" lon="5.5735">
        <ele>870.6</ele>
        <time>2026-05-10T08:27:23Z</time>
      </trkpt>
      <trkpt lat="46.03762" lon="5.5735">
        <ele>870.6</ele>
        <time>2026-05-10T08:27:24Z</time>
      </trkpt>
      <trkpt lat="46.03763" lon="5.57349">
        <ele>870.6</ele>
        <time>2026-05-10T08:27:25Z</time>
      </trkpt>
      <trkpt lat="46.03764" lon="5.57349">
        <ele>871.2</ele>
        <time>2026-05-10T08:27:26Z</time>
      </trkpt>
      <trkpt lat="46.03765" lon="5.57349">
        <ele>871.4</ele>
        <time>2026-05-10T08:27:27Z</time>
      </trkpt>
      <trkpt lat="46.03766" lon="5.57349">
        <ele>871.4</ele>
        <time>2026-05-10T08:27:28Z</time>
      </trkpt>
      <trkpt lat="46.03767" lon="5.57348">
        <ele>871.8</ele>
        <time>2026-05-10T08:27:29Z</time>
      </trkpt>
      <trkpt lat="46.03768" lon="5.57348">
        <ele>872</ele>
        <time>2026-05-10T08:27:30Z</time>
      </trkpt>
      <trkpt lat="46.03769" lon="5.57348">
        <ele>872</ele>
        <time>2026-05-10T08:27:31Z</time>
      </trkpt>
      <trkpt lat="46.0377" lon="5.57347">
        <ele>872.4</ele>
        <time>2026-05-10T08:27:32Z</time>
      </trkpt>
      <trkpt lat="46.03771" lon="5.57347">
        <ele>872.4</ele>
        <time>2026-05-10T08:27:33Z</time>
      </trkpt>
      <trkpt lat="46.03772" lon="5.57346">
        <ele>872.8</ele>
        <time>2026-05-10T08:27:34Z</time>
      </trkpt>
      <trkpt lat="46.03773" lon="5.57346">
        <ele>872.8</ele>
        <time>2026-05-10T08:27:35Z</time>
      </trkpt>
      <trkpt lat="46.03774" lon="5.57345">
        <ele>873.2</ele>
        <time>2026-05-10T08:27:36Z</time>
      </trkpt>
      <trkpt lat="46.03775" lon="5.57345">
        <ele>873.4</ele>
        <time>2026-05-10T08:27:37Z</time>
      </trkpt>
      <trkpt lat="46.03776" lon="5.57344">
        <ele>873.4</ele>
        <time>2026-05-10T08:27:38Z</time>
      </trkpt>
      <trkpt lat="46.03778" lon="5.57344">
        <ele>873.8</ele>
        <time>2026-05-10T08:27:39Z</time>
      </trkpt>
      <trkpt lat="46.03779" lon="5.57343">
        <ele>874</ele>
        <time>2026-05-10T08:27:40Z</time>
      </trkpt>
      <trkpt lat="46.0378" lon="5.57342">
        <ele>874</ele>
        <time>2026-05-10T08:27:41Z</time>
      </trkpt>
      <trkpt lat="46.03781" lon="5.57341">
        <ele>874.4</ele>
        <time>2026-05-10T08:27:42Z</time>
      </trkpt>
      <trkpt lat="46.03782" lon="5.57341">
        <ele>874.4</ele>
        <time>2026-05-10T08:27:43Z</time>
      </trkpt>
      <trkpt lat="46.03783" lon="5.57341">
        <ele>874.6</ele>
        <time>2026-05-10T08:27:44Z</time>
      </trkpt>
      <trkpt lat="46.03784" lon="5.57341">
        <ele>874.6</ele>
        <time>2026-05-10T08:27:45Z</time>
      </trkpt>
      <trkpt lat="46.03785" lon="5.57341">
        <ele>875</ele>
        <time>2026-05-10T08:27:46Z</time>
      </trkpt>
      <trkpt lat="46.03786" lon="5.5734">
        <ele>875.2</ele>
        <time>2026-05-10T08:27:47Z</time>
      </trkpt>
      <trkpt lat="46.03787" lon="5.57339">
        <ele>875.6</ele>
        <time>2026-05-10T08:27:48Z</time>
      </trkpt>
      <trkpt lat="46.03788" lon="5.57339">
        <ele>875.6</ele>
        <time>2026-05-10T08:27:49Z</time>
      </trkpt>
      <trkpt lat="46.0379" lon="5.57339">
        <ele>876</ele>
        <time>2026-05-10T08:27:50Z</time>
      </trkpt>
      <trkpt lat="46.03791" lon="5.57338">
        <ele>876.2</ele>
        <time>2026-05-10T08:27:51Z</time>
      </trkpt>
      <trkpt lat="46.03793" lon="5.57338">
        <ele>876.2</ele>
        <time>2026-05-10T08:27:52Z</time>
      </trkpt>
      <trkpt lat="46.03795" lon="5.57339">
        <ele>876.6</ele>
        <time>2026-05-10T08:27:53Z</time>
      </trkpt>
      <trkpt lat="46.03796" lon="5.57339">
        <ele>876.8</ele>
        <time>2026-05-10T08:27:54Z</time>
      </trkpt>
      <trkpt lat="46.03797" lon="5.5734">
        <ele>876.8</ele>
        <time>2026-05-10T08:27:55Z</time>
      </trkpt>
      <trkpt lat="46.03798" lon="5.5734">
        <ele>877.2</ele>
        <time>2026-05-10T08:27:56Z</time>
      </trkpt>
      <trkpt lat="46.038" lon="5.5734">
        <ele>877.4</ele>
        <time>2026-05-10T08:27:57Z</time>
      </trkpt>
      <trkpt lat="46.03801" lon="5.5734">
        <ele>877.4</ele>
        <time>2026-05-10T08:27:58Z</time>
      </trkpt>
      <trkpt lat="46.03801" lon="5.5734">
        <ele>877.6</ele>
        <time>2026-05-10T08:27:59Z</time>
      </trkpt>
      <trkpt lat="46.03803" lon="5.5734">
        <ele>877.6</ele>
        <time>2026-05-10T08:28:00Z</time>
      </trkpt>
      <trkpt lat="46.03804" lon="5.5734">
        <ele>877.8</ele>
        <time>2026-05-10T08:28:01Z</time>
      </trkpt>
      <trkpt lat="46.03805" lon="5.57341">
        <ele>877.8</ele>
        <time>2026-05-10T08:28:02Z</time>
      </trkpt>
      <trkpt lat="46.03806" lon="5.57341">
        <ele>878</ele>
        <time>2026-05-10T08:28:03Z</time>
      </trkpt>
      <trkpt lat="46.03807" lon="5.57342">
        <ele>878</ele>
        <time>2026-05-10T08:28:04Z</time>
      </trkpt>
      <trkpt lat="46.03809" lon="5.57342">
        <ele>878.4</ele>
        <time>2026-05-10T08:28:05Z</time>
      </trkpt>
      <trkpt lat="46.0381" lon="5.57342">
        <ele>878.8</ele>
        <time>2026-05-10T08:28:06Z</time>
      </trkpt>
      <trkpt lat="46.03812" lon="5.57342">
        <ele>878.8</ele>
        <time>2026-05-10T08:28:07Z</time>
      </trkpt>
      <trkpt lat="46.03813" lon="5.57343">
        <ele>878.8</ele>
        <time>2026-05-10T08:28:08Z</time>
      </trkpt>
      <trkpt lat="46.03814" lon="5.57343">
        <ele>879.2</ele>
        <time>2026-05-10T08:28:09Z</time>
      </trkpt>
      <trkpt lat="46.03816" lon="5.57343">
        <ele>879.4</ele>
        <time>2026-05-10T08:28:10Z</time>
      </trkpt>
      <trkpt lat="46.03817" lon="5.57344">
        <ele>879.4</ele>
        <time>2026-05-10T08:28:11Z</time>
      </trkpt>
      <trkpt lat="46.03818" lon="5.57343">
        <ele>879.6</ele>
        <time>2026-05-10T08:28:12Z</time>
      </trkpt>
      <trkpt lat="46.03819" lon="5.57343">
        <ele>879.8</ele>
        <time>2026-05-10T08:28:13Z</time>
      </trkpt>
      <trkpt lat="46.0382" lon="5.57343">
        <ele>879.8</ele>
        <time>2026-05-10T08:28:14Z</time>
      </trkpt>
      <trkpt lat="46.03822" lon="5.57343">
        <ele>880</ele>
        <time>2026-05-10T08:28:15Z</time>
      </trkpt>
      <trkpt lat="46.03823" lon="5.57344">
        <ele>880</ele>
        <time>2026-05-10T08:28:16Z</time>
      </trkpt>
      <trkpt lat="46.03824" lon="5.57344">
        <ele>880</ele>
        <time>2026-05-10T08:28:17Z</time>
      </trkpt>
      <trkpt lat="46.03826" lon="5.57345">
        <ele>880.4</ele>
        <time>2026-05-10T08:28:18Z</time>
      </trkpt>
      <trkpt lat="46.03828" lon="5.57345">
        <ele>880.4</ele>
        <time>2026-05-10T08:28:19Z</time>
      </trkpt>
      <trkpt lat="46.03829" lon="5.57345">
        <ele>880.4</ele>
        <time>2026-05-10T08:28:20Z</time>
      </trkpt>
      <trkpt lat="46.03831" lon="5.57345">
        <ele>880.6</ele>
        <time>2026-05-10T08:28:21Z</time>
      </trkpt>
      <trkpt lat="46.03833" lon="5.57345">
        <ele>880.6</ele>
        <time>2026-05-10T08:28:22Z</time>
      </trkpt>
      <trkpt lat="46.03835" lon="5.57346">
        <ele>880.6</ele>
        <time>2026-05-10T08:28:23Z</time>
      </trkpt>
      <trkpt lat="46.03837" lon="5.57347">
        <ele>880.6</ele>
        <time>2026-05-10T08:28:24Z</time>
      </trkpt>
      <trkpt lat="46.03838" lon="5.57347">
        <ele>880.6</ele>
        <time>2026-05-10T08:28:25Z</time>
      </trkpt>
      <trkpt lat="46.0384" lon="5.57348">
        <ele>880.6</ele>
        <time>2026-05-10T08:28:26Z</time>
      </trkpt>
      <trkpt lat="46.03842" lon="5.57349">
        <ele>880.6</ele>
        <time>2026-05-10T08:28:27Z</time>
      </trkpt>
      <trkpt lat="46.03845" lon="5.57349">
        <ele>880.6</ele>
        <time>2026-05-10T08:28:28Z</time>
      </trkpt>
      <trkpt lat="46.03847" lon="5.57349">
        <ele>880.8</ele>
        <time>2026-05-10T08:28:29Z</time>
      </trkpt>
      <trkpt lat="46.03849" lon="5.57349">
        <ele>881</ele>
        <time>2026-05-10T08:28:30Z</time>
      </trkpt>
      <trkpt lat="46.03851" lon="5.57349">
        <ele>881</ele>
        <time>2026-05-10T08:28:31Z</time>
      </trkpt>
      <trkpt lat="46.03855" lon="5.57349">
        <ele>881.2</ele>
        <time>2026-05-10T08:28:32Z</time>
      </trkpt>
      <trkpt lat="46.03857" lon="5.57349">
        <ele>881.2</ele>
        <time>2026-05-10T08:28:33Z</time>
      </trkpt>
      <trkpt lat="46.03859" lon="5.57349">
        <ele>881.6</ele>
        <time>2026-05-10T08:28:34Z</time>
      </trkpt>
      <trkpt lat="46.03861" lon="5.57349">
        <ele>881.6</ele>
        <time>2026-05-10T08:28:35Z</time>
      </trkpt>
      <trkpt lat="46.03863" lon="5.57349">
        <ele>881.6</ele>
        <time>2026-05-10T08:28:36Z</time>
      </trkpt>
      <trkpt lat="46.03865" lon="5.57348">
        <ele>881.6</ele>
        <time>2026-05-10T08:28:37Z</time>
      </trkpt>
      <trkpt lat="46.03867" lon="5.57348">
        <ele>881.6</ele>
        <time>2026-05-10T08:28:38Z</time>
      </trkpt>
      <trkpt lat="46.03869" lon="5.57348">
        <ele>881.6</ele>
        <time>2026-05-10T08:28:39Z</time>
      </trkpt>
      <trkpt lat="46.03871" lon="5.57348">
        <ele>881.6</ele>
        <time>2026-05-10T08:28:40Z</time>
      </trkpt>
      <trkpt lat="46.03873" lon="5.57348">
        <ele>881.6</ele>
        <time>2026-05-10T08:28:41Z</time>
      </trkpt>
      <trkpt lat="46.03875" lon="5.57347">
        <ele>881.6</ele>
        <time>2026-05-10T08:28:42Z</time>
      </trkpt>
      <trkpt lat="46.03877" lon="5.57347">
        <ele>881.6</ele>
        <time>2026-05-10T08:28:43Z</time>
      </trkpt>
      <trkpt lat="46.0388" lon="5.57346">
        <ele>881.6</ele>
        <time>2026-05-10T08:28:44Z</time>
      </trkpt>
      <trkpt lat="46.03882" lon="5.57346">
        <ele>881.6</ele>
        <time>2026-05-10T08:28:45Z</time>
      </trkpt>
      <trkpt lat="46.03884" lon="5.57346">
        <ele>881.6</ele>
        <time>2026-05-10T08:28:46Z</time>
      </trkpt>
      <trkpt lat="46.03887" lon="5.57346">
        <ele>881.6</ele>
        <time>2026-05-10T08:28:47Z</time>
      </trkpt>
      <trkpt lat="46.03889" lon="5.57346">
        <ele>881.6</ele>
        <time>2026-05-10T08:28:48Z</time>
      </trkpt>
      <trkpt lat="46.03892" lon="5.57346">
        <ele>881.6</ele>
        <time>2026-05-10T08:28:49Z</time>
      </trkpt>
      <trkpt lat="46.03894" lon="5.57346">
        <ele>881.6</ele>
        <time>2026-05-10T08:28:50Z</time>
      </trkpt>
      <trkpt lat="46.03896" lon="5.57346">
        <ele>881.6</ele>
        <time>2026-05-10T08:28:51Z</time>
      </trkpt>
      <trkpt lat="46.03899" lon="5.57345">
        <ele>881.6</ele>
        <time>2026-05-10T08:28:52Z</time>
      </trkpt>
      <trkpt lat="46.03901" lon="5.57344">
        <ele>881.8</ele>
        <time>2026-05-10T08:28:53Z</time>
      </trkpt>
      <trkpt lat="46.03903" lon="5.57343">
        <ele>881.8</ele>
        <time>2026-05-10T08:28:54Z</time>
      </trkpt>
      <trkpt lat="46.03904" lon="5.57343">
        <ele>882</ele>
        <time>2026-05-10T08:28:55Z</time>
      </trkpt>
      <trkpt lat="46.03905" lon="5.57342">
        <ele>882</ele>
        <time>2026-05-10T08:28:56Z</time>
      </trkpt>
      <trkpt lat="46.03906" lon="5.57341">
        <ele>882.4</ele>
        <time>2026-05-10T08:28:57Z</time>
      </trkpt>
      <trkpt lat="46.03906" lon="5.57341">
        <ele>882.4</ele>
        <time>2026-05-10T08:28:58Z</time>
      </trkpt>
      <trkpt lat="46.03906" lon="5.5734">
        <ele>882.4</ele>
        <time>2026-05-10T08:28:59Z</time>
      </trkpt>
      <trkpt lat="46.03905" lon="5.5734">
        <ele>882.6</ele>
        <time>2026-05-10T08:29:00Z</time>
      </trkpt>
      <trkpt lat="46.03904" lon="5.57337">
        <ele>882.4</ele>
        <time>2026-05-10T08:29:11Z</time>
      </trkpt>
      <trkpt lat="46.03904" lon="5.57337">
        <ele>882.4</ele>
        <time>2026-05-10T08:29:12Z</time>
      </trkpt>
      <trkpt lat="46.03904" lon="5.57336">
        <ele>882.4</ele>
        <time>2026-05-10T08:29:13Z</time>
      </trkpt>
      <trkpt lat="46.03904" lon="5.57336">
        <ele>882.6</ele>
        <time>2026-05-10T08:29:14Z</time>
      </trkpt>
      <trkpt lat="46.03904" lon="5.57336">
        <ele>882.6</ele>
        <time>2026-05-10T08:29:15Z</time>
      </trkpt>
      <trkpt lat="46.03903" lon="5.57338">
        <ele>883</ele>
        <time>2026-05-10T08:30:57Z</time>
      </trkpt>
      <trkpt lat="46.03904" lon="5.57337">
        <ele>883</ele>
        <time>2026-05-10T08:30:58Z</time>
      </trkpt>
      <trkpt lat="46.03904" lon="5.57337">
        <ele>883</ele>
        <time>2026-05-10T08:30:59Z</time>
      </trkpt>
      <trkpt lat="46.03905" lon="5.57336">
        <ele>883</ele>
        <time>2026-05-10T08:31:00Z</time>
      </trkpt>
      <trkpt lat="46.03907" lon="5.57336">
        <ele>882.6</ele>
        <time>2026-05-10T08:31:12Z</time>
      </trkpt>
      <trkpt lat="46.03909" lon="5.57336">
        <ele>882.6</ele>
        <time>2026-05-10T08:31:13Z</time>
      </trkpt>
      <trkpt lat="46.03912" lon="5.57336">
        <ele>882.6</ele>
        <time>2026-05-10T08:31:14Z</time>
      </trkpt>
      <trkpt lat="46.03914" lon="5.57335">
        <ele>882.6</ele>
        <time>2026-05-10T08:31:15Z</time>
      </trkpt>
      <trkpt lat="46.03917" lon="5.57334">
        <ele>882.6</ele>
        <time>2026-05-10T08:31:16Z</time>
      </trkpt>
      <trkpt lat="46.03919" lon="5.57333">
        <ele>882.8</ele>
        <time>2026-05-10T08:31:17Z</time>
      </trkpt>
      <trkpt lat="46.03922" lon="5.57332">
        <ele>882.8</ele>
        <time>2026-05-10T08:31:18Z</time>
      </trkpt>
      <trkpt lat="46.03925" lon="5.5733">
        <ele>882.8</ele>
        <time>2026-05-10T08:31:19Z</time>
      </trkpt>
      <trkpt lat="46.03927" lon="5.57329">
        <ele>882.8</ele>
        <time>2026-05-10T08:31:20Z</time>
      </trkpt>
      <trkpt lat="46.0393" lon="5.57327">
        <ele>882.8</ele>
        <time>2026-05-10T08:31:21Z</time>
      </trkpt>
      <trkpt lat="46.03933" lon="5.57326">
        <ele>882.8</ele>
        <time>2026-05-10T08:31:22Z</time>
      </trkpt>
      <trkpt lat="46.03936" lon="5.57324">
        <ele>882.8</ele>
        <time>2026-05-10T08:31:23Z</time>
      </trkpt>
      <trkpt lat="46.03939" lon="5.57323">
        <ele>882.8</ele>
        <time>2026-05-10T08:31:24Z</time>
      </trkpt>
      <trkpt lat="46.03942" lon="5.57322">
        <ele>882.8</ele>
        <time>2026-05-10T08:31:25Z</time>
      </trkpt>
      <trkpt lat="46.03945" lon="5.5732">
        <ele>882.8</ele>
        <time>2026-05-10T08:31:26Z</time>
      </trkpt>
      <trkpt lat="46.03948" lon="5.57318">
        <ele>882.8</ele>
        <time>2026-05-10T08:31:27Z</time>
      </trkpt>
      <trkpt lat="46.03951" lon="5.57317">
        <ele>882.8</ele>
        <time>2026-05-10T08:31:28Z</time>
      </trkpt>
      <trkpt lat="46.03954" lon="5.57315">
        <ele>883.2</ele>
        <time>2026-05-10T08:31:29Z</time>
      </trkpt>
      <trkpt lat="46.03957" lon="5.57314">
        <ele>883.2</ele>
        <time>2026-05-10T08:31:30Z</time>
      </trkpt>
      <trkpt lat="46.0396" lon="5.57312">
        <ele>883.2</ele>
        <time>2026-05-10T08:31:31Z</time>
      </trkpt>
      <trkpt lat="46.03963" lon="5.5731">
        <ele>883.2</ele>
        <time>2026-05-10T08:31:32Z</time>
      </trkpt>
      <trkpt lat="46.03966" lon="5.57309">
        <ele>883.2</ele>
        <time>2026-05-10T08:31:33Z</time>
      </trkpt>
      <trkpt lat="46.0397" lon="5.57307">
        <ele>883.6</ele>
        <time>2026-05-10T08:31:34Z</time>
      </trkpt>
      <trkpt lat="46.03973" lon="5.57305">
        <ele>883.6</ele>
        <time>2026-05-10T08:31:35Z</time>
      </trkpt>
      <trkpt lat="46.03976" lon="5.57302">
        <ele>883.2</ele>
        <time>2026-05-10T08:31:36Z</time>
      </trkpt>
      <trkpt lat="46.03979" lon="5.573">
        <ele>883.2</ele>
        <time>2026-05-10T08:31:37Z</time>
      </trkpt>
      <trkpt lat="46.03981" lon="5.57296">
        <ele>882.8</ele>
        <time>2026-05-10T08:31:38Z</time>
      </trkpt>
      <trkpt lat="46.03984" lon="5.57293">
        <ele>882.8</ele>
        <time>2026-05-10T08:31:39Z</time>
      </trkpt>
      <trkpt lat="46.03987" lon="5.5729">
        <ele>882.8</ele>
        <time>2026-05-10T08:31:40Z</time>
      </trkpt>
      <trkpt lat="46.0399" lon="5.57286">
        <ele>882.8</ele>
        <time>2026-05-10T08:31:41Z</time>
      </trkpt>
      <trkpt lat="46.03993" lon="5.57283">
        <ele>882.6</ele>
        <time>2026-05-10T08:31:42Z</time>
      </trkpt>
      <trkpt lat="46.03995" lon="5.57279">
        <ele>882.6</ele>
        <time>2026-05-10T08:31:43Z</time>
      </trkpt>
      <trkpt lat="46.03998" lon="5.57276">
        <ele>882.6</ele>
        <time>2026-05-10T08:31:44Z</time>
      </trkpt>
      <trkpt lat="46.04001" lon="5.57273">
        <ele>882.6</ele>
        <time>2026-05-10T08:31:45Z</time>
      </trkpt>
      <trkpt lat="46.04004" lon="5.57271">
        <ele>882.6</ele>
        <time>2026-05-10T08:31:46Z</time>
      </trkpt>
      <trkpt lat="46.04008" lon="5.57268">
        <ele>882.6</ele>
        <time>2026-05-10T08:31:47Z</time>
      </trkpt>
      <trkpt lat="46.04011" lon="5.57267">
        <ele>882.6</ele>
        <time>2026-05-10T08:31:48Z</time>
      </trkpt>
      <trkpt lat="46.04014" lon="5.57266">
        <ele>883</ele>
        <time>2026-05-10T08:31:49Z</time>
      </trkpt>
      <trkpt lat="46.04017" lon="5.57265">
        <ele>883</ele>
        <time>2026-05-10T08:31:50Z</time>
      </trkpt>
      <trkpt lat="46.04021" lon="5.57264">
        <ele>883.2</ele>
        <time>2026-05-10T08:31:51Z</time>
      </trkpt>
      <trkpt lat="46.04024" lon="5.57264">
        <ele>883.2</ele>
        <time>2026-05-10T08:31:52Z</time>
      </trkpt>
      <trkpt lat="46.04027" lon="5.57263">
        <ele>883.6</ele>
        <time>2026-05-10T08:31:53Z</time>
      </trkpt>
      <trkpt lat="46.0403" lon="5.57263">
        <ele>883.8</ele>
        <time>2026-05-10T08:31:54Z</time>
      </trkpt>
      <trkpt lat="46.04032" lon="5.57263">
        <ele>884.2</ele>
        <time>2026-05-10T08:31:55Z</time>
      </trkpt>
      <trkpt lat="46.04035" lon="5.57262">
        <ele>884.6</ele>
        <time>2026-05-10T08:31:56Z</time>
      </trkpt>
      <trkpt lat="46.04038" lon="5.57262">
        <ele>884.6</ele>
        <time>2026-05-10T08:31:57Z</time>
      </trkpt>
      <trkpt lat="46.0404" lon="5.57262">
        <ele>885</ele>
        <time>2026-05-10T08:31:58Z</time>
      </trkpt>
      <trkpt lat="46.04043" lon="5.57261">
        <ele>885</ele>
        <time>2026-05-10T08:31:59Z</time>
      </trkpt>
      <trkpt lat="46.04046" lon="5.5726">
        <ele>885.4</ele>
        <time>2026-05-10T08:32:00Z</time>
      </trkpt>
      <trkpt lat="46.04048" lon="5.57259">
        <ele>885.8</ele>
        <time>2026-05-10T08:32:01Z</time>
      </trkpt>
      <trkpt lat="46.04051" lon="5.57259">
        <ele>885.8</ele>
        <time>2026-05-10T08:32:02Z</time>
      </trkpt>
      <trkpt lat="46.04053" lon="5.57258">
        <ele>886</ele>
        <time>2026-05-10T08:32:03Z</time>
      </trkpt>
      <trkpt lat="46.04056" lon="5.57258">
        <ele>886.2</ele>
        <time>2026-05-10T08:32:04Z</time>
      </trkpt>
      <trkpt lat="46.04059" lon="5.57258">
        <ele>886.4</ele>
        <time>2026-05-10T08:32:05Z</time>
      </trkpt>
      <trkpt lat="46.04061" lon="5.57258">
        <ele>886.4</ele>
        <time>2026-05-10T08:32:06Z</time>
      </trkpt>
      <trkpt lat="46.04064" lon="5.57258">
        <ele>886.8</ele>
        <time>2026-05-10T08:32:07Z</time>
      </trkpt>
      <trkpt lat="46.04067" lon="5.57257">
        <ele>886.8</ele>
        <time>2026-05-10T08:32:08Z</time>
      </trkpt>
      <trkpt lat="46.0407" lon="5.57257">
        <ele>886.8</ele>
        <time>2026-05-10T08:32:09Z</time>
      </trkpt>
      <trkpt lat="46.04073" lon="5.57256">
        <ele>886.8</ele>
        <time>2026-05-10T08:32:10Z</time>
      </trkpt>
      <trkpt lat="46.04076" lon="5.57256">
        <ele>886.8</ele>
        <time>2026-05-10T08:32:11Z</time>
      </trkpt>
      <trkpt lat="46.0408" lon="5.57256">
        <ele>886.6</ele>
        <time>2026-05-10T08:32:12Z</time>
      </trkpt>
      <trkpt lat="46.04084" lon="5.57255">
        <ele>886.6</ele>
        <time>2026-05-10T08:32:13Z</time>
      </trkpt>
      <trkpt lat="46.04088" lon="5.57255">
        <ele>886.6</ele>
        <time>2026-05-10T08:32:14Z</time>
      </trkpt>
      <trkpt lat="46.04092" lon="5.57255">
        <ele>886.6</ele>
        <time>2026-05-10T08:32:15Z</time>
      </trkpt>
      <trkpt lat="46.04096" lon="5.57255">
        <ele>886.6</ele>
        <time>2026-05-10T08:32:16Z</time>
      </trkpt>
      <trkpt lat="46.041" lon="5.57255">
        <ele>886.6</ele>
        <time>2026-05-10T08:32:17Z</time>
      </trkpt>
      <trkpt lat="46.04105" lon="5.57255">
        <ele>886.6</ele>
        <time>2026-05-10T08:32:18Z</time>
      </trkpt>
      <trkpt lat="46.04109" lon="5.57256">
        <ele>886.6</ele>
        <time>2026-05-10T08:32:19Z</time>
      </trkpt>
      <trkpt lat="46.04113" lon="5.57256">
        <ele>886.6</ele>
        <time>2026-05-10T08:32:20Z</time>
      </trkpt>
      <trkpt lat="46.04118" lon="5.57256">
        <ele>886.6</ele>
        <time>2026-05-10T08:32:21Z</time>
      </trkpt>
      <trkpt lat="46.04122" lon="5.57256">
        <ele>886.4</ele>
        <time>2026-05-10T08:32:22Z</time>
      </trkpt>
      <trkpt lat="46.04127" lon="5.57255">
        <ele>886.4</ele>
        <time>2026-05-10T08:32:23Z</time>
      </trkpt>
      <trkpt lat="46.04131" lon="5.57255">
        <ele>886.4</ele>
        <time>2026-05-10T08:32:24Z</time>
      </trkpt>
      <trkpt lat="46.04136" lon="5.57254">
        <ele>886.4</ele>
        <time>2026-05-10T08:32:25Z</time>
      </trkpt>
      <trkpt lat="46.0414" lon="5.57254">
        <ele>886.4</ele>
        <time>2026-05-10T08:32:26Z</time>
      </trkpt>
      <trkpt lat="46.04144" lon="5.57253">
        <ele>886.4</ele>
        <time>2026-05-10T08:32:27Z</time>
      </trkpt>
      <trkpt lat="46.04148" lon="5.57252">
        <ele>886.4</ele>
        <time>2026-05-10T08:32:28Z</time>
      </trkpt>
      <trkpt lat="46.04153" lon="5.57251">
        <ele>886.6</ele>
        <time>2026-05-10T08:32:29Z</time>
      </trkpt>
      <trkpt lat="46.04157" lon="5.5725">
        <ele>886.6</ele>
        <time>2026-05-10T08:32:30Z</time>
      </trkpt>
      <trkpt lat="46.04161" lon="5.5725">
        <ele>886.8</ele>
        <time>2026-05-10T08:32:31Z</time>
      </trkpt>
      <trkpt lat="46.04164" lon="5.5725">
        <ele>886.8</ele>
        <time>2026-05-10T08:32:32Z</time>
      </trkpt>
      <trkpt lat="46.04169" lon="5.5725">
        <ele>886.8</ele>
        <time>2026-05-10T08:32:33Z</time>
      </trkpt>
      <trkpt lat="46.04173" lon="5.5725">
        <ele>887</ele>
        <time>2026-05-10T08:32:34Z</time>
      </trkpt>
      <trkpt lat="46.04176" lon="5.5725">
        <ele>887</ele>
        <time>2026-05-10T08:32:35Z</time>
      </trkpt>
      <trkpt lat="46.0418" lon="5.5725">
        <ele>887</ele>
        <time>2026-05-10T08:32:36Z</time>
      </trkpt>
      <trkpt lat="46.04184" lon="5.57251">
        <ele>887</ele>
        <time>2026-05-10T08:32:37Z</time>
      </trkpt>
      <trkpt lat="46.04188" lon="5.57252">
        <ele>887</ele>
        <time>2026-05-10T08:32:38Z</time>
      </trkpt>
      <trkpt lat="46.04192" lon="5.57253">
        <ele>887.4</ele>
        <time>2026-05-10T08:32:39Z</time>
      </trkpt>
      <trkpt lat="46.04196" lon="5.57254">
        <ele>887.4</ele>
        <time>2026-05-10T08:32:40Z</time>
      </trkpt>
      <trkpt lat="46.042" lon="5.57256">
        <ele>887.4</ele>
        <time>2026-05-10T08:32:41Z</time>
      </trkpt>
      <trkpt lat="46.04204" lon="5.57257">
        <ele>887.4</ele>
        <time>2026-05-10T08:32:42Z</time>
      </trkpt>
      <trkpt lat="46.04208" lon="5.57258">
        <ele>887.6</ele>
        <time>2026-05-10T08:32:43Z</time>
      </trkpt>
      <trkpt lat="46.04212" lon="5.5726">
        <ele>887.6</ele>
        <time>2026-05-10T08:32:44Z</time>
      </trkpt>
      <trkpt lat="46.04216" lon="5.57261">
        <ele>887.6</ele>
        <time>2026-05-10T08:32:45Z</time>
      </trkpt>
      <trkpt lat="46.0422" lon="5.57263">
        <ele>887.8</ele>
        <time>2026-05-10T08:32:46Z</time>
      </trkpt>
      <trkpt lat="46.04224" lon="5.57264">
        <ele>888.2</ele>
        <time>2026-05-10T08:32:47Z</time>
      </trkpt>
      <trkpt lat="46.04228" lon="5.57265">
        <ele>888.2</ele>
        <time>2026-05-10T08:32:48Z</time>
      </trkpt>
      <trkpt lat="46.04234" lon="5.57267">
        <ele>888.4</ele>
        <time>2026-05-10T08:32:49Z</time>
      </trkpt>
      <trkpt lat="46.04238" lon="5.57268">
        <ele>888.6</ele>
        <time>2026-05-10T08:32:50Z</time>
      </trkpt>
      <trkpt lat="46.04241" lon="5.57269">
        <ele>888.6</ele>
        <time>2026-05-10T08:32:51Z</time>
      </trkpt>
      <trkpt lat="46.04243" lon="5.5727">
        <ele>889</ele>
        <time>2026-05-10T08:32:52Z</time>
      </trkpt>
      <trkpt lat="46.04246" lon="5.57271">
        <ele>889.4</ele>
        <time>2026-05-10T08:32:53Z</time>
      </trkpt>
      <trkpt lat="46.04248" lon="5.57273">
        <ele>889.6</ele>
        <time>2026-05-10T08:32:54Z</time>
      </trkpt>
      <trkpt lat="46.04251" lon="5.57274">
        <ele>890</ele>
        <time>2026-05-10T08:32:55Z</time>
      </trkpt>
      <trkpt lat="46.04253" lon="5.57275">
        <ele>890.2</ele>
        <time>2026-05-10T08:32:56Z</time>
      </trkpt>
      <trkpt lat="46.04255" lon="5.57275">
        <ele>890.6</ele>
        <time>2026-05-10T08:32:57Z</time>
      </trkpt>
      <trkpt lat="46.04256" lon="5.57276">
        <ele>890.8</ele>
        <time>2026-05-10T08:32:58Z</time>
      </trkpt>
      <trkpt lat="46.04258" lon="5.57277">
        <ele>891.2</ele>
        <time>2026-05-10T08:32:59Z</time>
      </trkpt>
      <trkpt lat="46.0426" lon="5.57278">
        <ele>891.4</ele>
        <time>2026-05-10T08:33:00Z</time>
      </trkpt>
      <trkpt lat="46.04261" lon="5.57279">
        <ele>891.8</ele>
        <time>2026-05-10T08:33:01Z</time>
      </trkpt>
      <trkpt lat="46.04263" lon="5.5728">
        <ele>891.8</ele>
        <time>2026-05-10T08:33:02Z</time>
      </trkpt>
      <trkpt lat="46.04266" lon="5.57281">
        <ele>892.2</ele>
        <time>2026-05-10T08:33:03Z</time>
      </trkpt>
      <trkpt lat="46.04268" lon="5.57282">
        <ele>892.4</ele>
        <time>2026-05-10T08:33:04Z</time>
      </trkpt>
      <trkpt lat="46.0427" lon="5.57284">
        <ele>892.4</ele>
        <time>2026-05-10T08:33:05Z</time>
      </trkpt>
      <trkpt lat="46.04272" lon="5.57285">
        <ele>892.8</ele>
        <time>2026-05-10T08:33:06Z</time>
      </trkpt>
      <trkpt lat="46.04275" lon="5.57286">
        <ele>892.8</ele>
        <time>2026-05-10T08:33:07Z</time>
      </trkpt>
      <trkpt lat="46.04277" lon="5.57287">
        <ele>893.2</ele>
        <time>2026-05-10T08:33:08Z</time>
      </trkpt>
      <trkpt lat="46.04279" lon="5.57288">
        <ele>893.2</ele>
        <time>2026-05-10T08:33:09Z</time>
      </trkpt>
      <trkpt lat="46.04281" lon="5.5729">
        <ele>893.4</ele>
        <time>2026-05-10T08:33:10Z</time>
      </trkpt>
      <trkpt lat="46.04283" lon="5.57291">
        <ele>893.8</ele>
        <time>2026-05-10T08:33:11Z</time>
      </trkpt>
      <trkpt lat="46.04285" lon="5.57292">
        <ele>893.8</ele>
        <time>2026-05-10T08:33:12Z</time>
      </trkpt>
      <trkpt lat="46.04287" lon="5.57294">
        <ele>894</ele>
        <time>2026-05-10T08:33:13Z</time>
      </trkpt>
      <trkpt lat="46.04289" lon="5.57295">
        <ele>894.2</ele>
        <time>2026-05-10T08:33:14Z</time>
      </trkpt>
      <trkpt lat="46.04291" lon="5.57296">
        <ele>894.2</ele>
        <time>2026-05-10T08:33:15Z</time>
      </trkpt>
      <trkpt lat="46.04293" lon="5.57297">
        <ele>894.6</ele>
        <time>2026-05-10T08:33:16Z</time>
      </trkpt>
      <trkpt lat="46.04295" lon="5.57298">
        <ele>894.6</ele>
        <time>2026-05-10T08:33:17Z</time>
      </trkpt>
      <trkpt lat="46.04297" lon="5.57299">
        <ele>894.8</ele>
        <time>2026-05-10T08:33:18Z</time>
      </trkpt>
      <trkpt lat="46.04299" lon="5.573">
        <ele>894.8</ele>
        <time>2026-05-10T08:33:19Z</time>
      </trkpt>
      <trkpt lat="46.04302" lon="5.57302">
        <ele>895</ele>
        <time>2026-05-10T08:33:20Z</time>
      </trkpt>
      <trkpt lat="46.04304" lon="5.57303">
        <ele>895</ele>
        <time>2026-05-10T08:33:21Z</time>
      </trkpt>
      <trkpt lat="46.04307" lon="5.57305">
        <ele>895</ele>
        <time>2026-05-10T08:33:22Z</time>
      </trkpt>
      <trkpt lat="46.04309" lon="5.57307">
        <ele>895</ele>
        <time>2026-05-10T08:33:23Z</time>
      </trkpt>
      <trkpt lat="46.04312" lon="5.57309">
        <ele>895</ele>
        <time>2026-05-10T08:33:24Z</time>
      </trkpt>
      <trkpt lat="46.04315" lon="5.57311">
        <ele>895</ele>
        <time>2026-05-10T08:33:25Z</time>
      </trkpt>
      <trkpt lat="46.04318" lon="5.57314">
        <ele>895</ele>
        <time>2026-05-10T08:33:26Z</time>
      </trkpt>
      <trkpt lat="46.04321" lon="5.57316">
        <ele>895</ele>
        <time>2026-05-10T08:33:27Z</time>
      </trkpt>
      <trkpt lat="46.04324" lon="5.57319">
        <ele>895</ele>
        <time>2026-05-10T08:33:28Z</time>
      </trkpt>
      <trkpt lat="46.04327" lon="5.57321">
        <ele>895</ele>
        <time>2026-05-10T08:33:29Z</time>
      </trkpt>
      <trkpt lat="46.0433" lon="5.57323">
        <ele>895</ele>
        <time>2026-05-10T08:33:30Z</time>
      </trkpt>
      <trkpt lat="46.04332" lon="5.57325">
        <ele>895</ele>
        <time>2026-05-10T08:33:31Z</time>
      </trkpt>
      <trkpt lat="46.04332" lon="5.57325">
        <ele>895.4</ele>
        <time>2026-05-10T08:33:32Z</time>
      </trkpt>
      <trkpt lat="46.04335" lon="5.57328">
        <ele>895.4</ele>
        <time>2026-05-10T08:33:33Z</time>
      </trkpt>
      <trkpt lat="46.04338" lon="5.57331">
        <ele>895.4</ele>
        <time>2026-05-10T08:33:34Z</time>
      </trkpt>
      <trkpt lat="46.04341" lon="5.57334">
        <ele>895.4</ele>
        <time>2026-05-10T08:33:35Z</time>
      </trkpt>
      <trkpt lat="46.04345" lon="5.57337">
        <ele>895.4</ele>
        <time>2026-05-10T08:33:36Z</time>
      </trkpt>
      <trkpt lat="46.04348" lon="5.5734">
        <ele>895.4</ele>
        <time>2026-05-10T08:33:37Z</time>
      </trkpt>
      <trkpt lat="46.04351" lon="5.57343">
        <ele>895.4</ele>
        <time>2026-05-10T08:33:38Z</time>
      </trkpt>
      <trkpt lat="46.04354" lon="5.57345">
        <ele>895.4</ele>
        <time>2026-05-10T08:33:39Z</time>
      </trkpt>
      <trkpt lat="46.04358" lon="5.57348">
        <ele>895.4</ele>
        <time>2026-05-10T08:33:40Z</time>
      </trkpt>
      <trkpt lat="46.04361" lon="5.5735">
        <ele>895.4</ele>
        <time>2026-05-10T08:33:41Z</time>
      </trkpt>
      <trkpt lat="46.04364" lon="5.57352">
        <ele>895.4</ele>
        <time>2026-05-10T08:33:42Z</time>
      </trkpt>
      <trkpt lat="46.04366" lon="5.57355">
        <ele>895.4</ele>
        <time>2026-05-10T08:33:43Z</time>
      </trkpt>
      <trkpt lat="46.04369" lon="5.57357">
        <ele>895.4</ele>
        <time>2026-05-10T08:33:44Z</time>
      </trkpt>
      <trkpt lat="46.04372" lon="5.57359">
        <ele>896</ele>
        <time>2026-05-10T08:33:45Z</time>
      </trkpt>
      <trkpt lat="46.04375" lon="5.57361">
        <ele>896</ele>
        <time>2026-05-10T08:33:46Z</time>
      </trkpt>
      <trkpt lat="46.04377" lon="5.57363">
        <ele>896</ele>
        <time>2026-05-10T08:33:47Z</time>
      </trkpt>
      <trkpt lat="46.0438" lon="5.57364">
        <ele>896.2</ele>
        <time>2026-05-10T08:33:48Z</time>
      </trkpt>
      <trkpt lat="46.04384" lon="5.57366">
        <ele>896.2</ele>
        <time>2026-05-10T08:33:49Z</time>
      </trkpt>
      <trkpt lat="46.04387" lon="5.57367">
        <ele>895.8</ele>
        <time>2026-05-10T08:33:50Z</time>
      </trkpt>
      <trkpt lat="46.04391" lon="5.57368">
        <ele>895.8</ele>
        <time>2026-05-10T08:33:51Z</time>
      </trkpt>
      <trkpt lat="46.04395" lon="5.57369">
        <ele>895.4</ele>
        <time>2026-05-10T08:33:52Z</time>
      </trkpt>
      <trkpt lat="46.044" lon="5.57369">
        <ele>895.4</ele>
        <time>2026-05-10T08:33:53Z</time>
      </trkpt>
      <trkpt lat="46.04404" lon="5.57369">
        <ele>895.4</ele>
        <time>2026-05-10T08:33:54Z</time>
      </trkpt>
      <trkpt lat="46.04407" lon="5.57369">
        <ele>895.4</ele>
        <time>2026-05-10T08:33:55Z</time>
      </trkpt>
      <trkpt lat="46.04411" lon="5.5737">
        <ele>895.4</ele>
        <time>2026-05-10T08:33:56Z</time>
      </trkpt>
      <trkpt lat="46.04415" lon="5.5737">
        <ele>895.4</ele>
        <time>2026-05-10T08:33:57Z</time>
      </trkpt>
      <trkpt lat="46.04419" lon="5.57371">
        <ele>895.4</ele>
        <time>2026-05-10T08:33:58Z</time>
      </trkpt>
      <trkpt lat="46.04423" lon="5.57371">
        <ele>895.4</ele>
        <time>2026-05-10T08:33:59Z</time>
      </trkpt>
      <trkpt lat="46.04426" lon="5.57372">
        <ele>895.6</ele>
        <time>2026-05-10T08:34:00Z</time>
      </trkpt>
      <trkpt lat="46.04429" lon="5.57373">
        <ele>895.6</ele>
        <time>2026-05-10T08:34:01Z</time>
      </trkpt>
      <trkpt lat="46.04432" lon="5.57374">
        <ele>895.6</ele>
        <time>2026-05-10T08:34:02Z</time>
      </trkpt>
      <trkpt lat="46.04435" lon="5.57375">
        <ele>895.2</ele>
        <time>2026-05-10T08:34:03Z</time>
      </trkpt>
      <trkpt lat="46.04438" lon="5.57376">
        <ele>895.8</ele>
        <time>2026-05-10T08:34:04Z</time>
      </trkpt>
      <trkpt lat="46.0444" lon="5.57377">
        <ele>895.8</ele>
        <time>2026-05-10T08:34:05Z</time>
      </trkpt>
      <trkpt lat="46.04442" lon="5.57378">
        <ele>896.2</ele>
        <time>2026-05-10T08:34:06Z</time>
      </trkpt>
      <trkpt lat="46.04445" lon="5.57379">
        <ele>896.4</ele>
        <time>2026-05-10T08:34:07Z</time>
      </trkpt>
      <trkpt lat="46.04447" lon="5.57379">
        <ele>896.6</ele>
        <time>2026-05-10T08:34:08Z</time>
      </trkpt>
      <trkpt lat="46.04449" lon="5.5738">
        <ele>896.8</ele>
        <time>2026-05-10T08:34:09Z</time>
      </trkpt>
      <trkpt lat="46.04451" lon="5.5738">
        <ele>896.8</ele>
        <time>2026-05-10T08:34:10Z</time>
      </trkpt>
      <trkpt lat="46.04454" lon="5.5738">
        <ele>897.2</ele>
        <time>2026-05-10T08:34:11Z</time>
      </trkpt>
      <trkpt lat="46.04456" lon="5.57381">
        <ele>897.2</ele>
        <time>2026-05-10T08:34:12Z</time>
      </trkpt>
      <trkpt lat="46.04458" lon="5.57382">
        <ele>897.2</ele>
        <time>2026-05-10T08:34:13Z</time>
      </trkpt>
      <trkpt lat="46.04461" lon="5.57384">
        <ele>897.2</ele>
        <time>2026-05-10T08:34:14Z</time>
      </trkpt>
      <trkpt lat="46.04464" lon="5.57385">
        <ele>897.4</ele>
        <time>2026-05-10T08:34:15Z</time>
      </trkpt>
      <trkpt lat="46.04467" lon="5.57386">
        <ele>897.4</ele>
        <time>2026-05-10T08:34:16Z</time>
      </trkpt>
      <trkpt lat="46.0447" lon="5.57387">
        <ele>897.6</ele>
        <time>2026-05-10T08:34:17Z</time>
      </trkpt>
      <trkpt lat="46.04473" lon="5.57388">
        <ele>897.6</ele>
        <time>2026-05-10T08:34:18Z</time>
      </trkpt>
      <trkpt lat="46.04476" lon="5.5739">
        <ele>897.6</ele>
        <time>2026-05-10T08:34:19Z</time>
      </trkpt>
      <trkpt lat="46.04479" lon="5.57392">
        <ele>897.6</ele>
        <time>2026-05-10T08:34:20Z</time>
      </trkpt>
      <trkpt lat="46.04481" lon="5.57394">
        <ele>897.8</ele>
        <time>2026-05-10T08:34:21Z</time>
      </trkpt>
      <trkpt lat="46.04483" lon="5.57397">
        <ele>897.8</ele>
        <time>2026-05-10T08:34:22Z</time>
      </trkpt>
      <trkpt lat="46.04486" lon="5.57401">
        <ele>897.8</ele>
        <time>2026-05-10T08:34:23Z</time>
      </trkpt>
      <trkpt lat="46.04488" lon="5.57404">
        <ele>897.8</ele>
        <time>2026-05-10T08:34:24Z</time>
      </trkpt>
      <trkpt lat="46.04491" lon="5.57408">
        <ele>897.6</ele>
        <time>2026-05-10T08:34:25Z</time>
      </trkpt>
      <trkpt lat="46.04492" lon="5.57412">
        <ele>897.4</ele>
        <time>2026-05-10T08:34:26Z</time>
      </trkpt>
      <trkpt lat="46.0449" lon="5.57422">
        <ele>897.2</ele>
        <time>2026-05-10T08:34:27Z</time>
      </trkpt>
      <trkpt lat="46.0449" lon="5.57427">
        <ele>897.2</ele>
        <time>2026-05-10T08:34:28Z</time>
      </trkpt>
      <trkpt lat="46.04493" lon="5.57433">
        <ele>897.2</ele>
        <time>2026-05-10T08:34:29Z</time>
      </trkpt>
      <trkpt lat="46.04494" lon="5.57438">
        <ele>897.2</ele>
        <time>2026-05-10T08:34:30Z</time>
      </trkpt>
      <trkpt lat="46.04498" lon="5.57439">
        <ele>897.2</ele>
        <time>2026-05-10T08:34:31Z</time>
      </trkpt>
      <trkpt lat="46.04501" lon="5.5744">
        <ele>897.4</ele>
        <time>2026-05-10T08:34:32Z</time>
      </trkpt>
      <trkpt lat="46.04504" lon="5.5744">
        <ele>897.8</ele>
        <time>2026-05-10T08:34:33Z</time>
      </trkpt>
      <trkpt lat="46.04506" lon="5.57441">
        <ele>898</ele>
        <time>2026-05-10T08:34:34Z</time>
      </trkpt>
      <trkpt lat="46.04508" lon="5.57441">
        <ele>898</ele>
        <time>2026-05-10T08:34:35Z</time>
      </trkpt>
      <trkpt lat="46.04509" lon="5.57442">
        <ele>898.2</ele>
        <time>2026-05-10T08:34:36Z</time>
      </trkpt>
      <trkpt lat="46.0451" lon="5.57443">
        <ele>898.6</ele>
        <time>2026-05-10T08:34:37Z</time>
      </trkpt>
      <trkpt lat="46.04512" lon="5.57445">
        <ele>899</ele>
        <time>2026-05-10T08:34:38Z</time>
      </trkpt>
      <trkpt lat="46.04513" lon="5.57446">
        <ele>899.2</ele>
        <time>2026-05-10T08:34:39Z</time>
      </trkpt>
      <trkpt lat="46.04513" lon="5.57447">
        <ele>899.6</ele>
        <time>2026-05-10T08:34:40Z</time>
      </trkpt>
      <trkpt lat="46.04514" lon="5.57449">
        <ele>899.8</ele>
        <time>2026-05-10T08:34:41Z</time>
      </trkpt>
      <trkpt lat="46.04516" lon="5.57451">
        <ele>900.2</ele>
        <time>2026-05-10T08:34:42Z</time>
      </trkpt>
      <trkpt lat="46.04517" lon="5.57453">
        <ele>900.4</ele>
        <time>2026-05-10T08:34:43Z</time>
      </trkpt>
      <trkpt lat="46.04518" lon="5.57454">
        <ele>900.8</ele>
        <time>2026-05-10T08:34:44Z</time>
      </trkpt>
      <trkpt lat="46.04519" lon="5.57456">
        <ele>901.2</ele>
        <time>2026-05-10T08:34:45Z</time>
      </trkpt>
      <trkpt lat="46.0452" lon="5.57458">
        <ele>901.4</ele>
        <time>2026-05-10T08:34:46Z</time>
      </trkpt>
      <trkpt lat="46.04521" lon="5.5746">
        <ele>901.8</ele>
        <time>2026-05-10T08:34:47Z</time>
      </trkpt>
      <trkpt lat="46.04522" lon="5.57462">
        <ele>902.2</ele>
        <time>2026-05-10T08:34:48Z</time>
      </trkpt>
      <trkpt lat="46.04524" lon="5.57463">
        <ele>902.4</ele>
        <time>2026-05-10T08:34:49Z</time>
      </trkpt>
      <trkpt lat="46.04524" lon="5.57465">
        <ele>902.8</ele>
        <time>2026-05-10T08:34:50Z</time>
      </trkpt>
      <trkpt lat="46.04525" lon="5.57466">
        <ele>903</ele>
        <time>2026-05-10T08:34:51Z</time>
      </trkpt>
      <trkpt lat="46.04527" lon="5.57468">
        <ele>903.4</ele>
        <time>2026-05-10T08:34:52Z</time>
      </trkpt>
      <trkpt lat="46.04528" lon="5.57469">
        <ele>903.4</ele>
        <time>2026-05-10T08:34:53Z</time>
      </trkpt>
      <trkpt lat="46.04529" lon="5.5747">
        <ele>904</ele>
        <time>2026-05-10T08:34:54Z</time>
      </trkpt>
      <trkpt lat="46.04531" lon="5.57471">
        <ele>904</ele>
        <time>2026-05-10T08:34:55Z</time>
      </trkpt>
      <trkpt lat="46.04532" lon="5.57473">
        <ele>904.6</ele>
        <time>2026-05-10T08:34:56Z</time>
      </trkpt>
      <trkpt lat="46.04533" lon="5.57474">
        <ele>904.8</ele>
        <time>2026-05-10T08:34:57Z</time>
      </trkpt>
      <trkpt lat="46.04534" lon="5.57475">
        <ele>904.8</ele>
        <time>2026-05-10T08:34:58Z</time>
      </trkpt>
      <trkpt lat="46.04535" lon="5.57476">
        <ele>904.8</ele>
        <time>2026-05-10T08:34:59Z</time>
      </trkpt>
      <trkpt lat="46.04536" lon="5.57477">
        <ele>905.2</ele>
        <time>2026-05-10T08:35:00Z</time>
      </trkpt>
      <trkpt lat="46.04537" lon="5.57478">
        <ele>905.6</ele>
        <time>2026-05-10T08:35:01Z</time>
      </trkpt>
      <trkpt lat="46.04538" lon="5.57479">
        <ele>905.6</ele>
        <time>2026-05-10T08:35:02Z</time>
      </trkpt>
      <trkpt lat="46.04539" lon="5.5748">
        <ele>905.8</ele>
        <time>2026-05-10T08:35:03Z</time>
      </trkpt>
      <trkpt lat="46.0454" lon="5.57481">
        <ele>906.2</ele>
        <time>2026-05-10T08:35:04Z</time>
      </trkpt>
      <trkpt lat="46.04542" lon="5.57482">
        <ele>906.6</ele>
        <time>2026-05-10T08:35:05Z</time>
      </trkpt>
      <trkpt lat="46.04543" lon="5.57484">
        <ele>907</ele>
        <time>2026-05-10T08:35:06Z</time>
      </trkpt>
      <trkpt lat="46.04543" lon="5.57485">
        <ele>907.2</ele>
        <time>2026-05-10T08:35:07Z</time>
      </trkpt>
      <trkpt lat="46.04544" lon="5.57486">
        <ele>907.4</ele>
        <time>2026-05-10T08:35:08Z</time>
      </trkpt>
      <trkpt lat="46.04545" lon="5.57487">
        <ele>908</ele>
        <time>2026-05-10T08:35:09Z</time>
      </trkpt>
      <trkpt lat="46.04546" lon="5.57488">
        <ele>908</ele>
        <time>2026-05-10T08:35:10Z</time>
      </trkpt>
      <trkpt lat="46.04547" lon="5.57489">
        <ele>908.4</ele>
        <time>2026-05-10T08:35:11Z</time>
      </trkpt>
      <trkpt lat="46.04547" lon="5.57491">
        <ele>908.4</ele>
        <time>2026-05-10T08:35:12Z</time>
      </trkpt>
      <trkpt lat="46.04548" lon="5.57494">
        <ele>908.4</ele>
        <time>2026-05-10T08:35:13Z</time>
      </trkpt>
      <trkpt lat="46.04549" lon="5.57497">
        <ele>908.4</ele>
        <time>2026-05-10T08:35:14Z</time>
      </trkpt>
      <trkpt lat="46.0455" lon="5.575">
        <ele>908.6</ele>
        <time>2026-05-10T08:35:15Z</time>
      </trkpt>
      <trkpt lat="46.04552" lon="5.57502">
        <ele>908.6</ele>
        <time>2026-05-10T08:35:16Z</time>
      </trkpt>
      <trkpt lat="46.04553" lon="5.57504">
        <ele>909</ele>
        <time>2026-05-10T08:35:17Z</time>
      </trkpt>
      <trkpt lat="46.04554" lon="5.57507">
        <ele>909</ele>
        <time>2026-05-10T08:35:18Z</time>
      </trkpt>
      <trkpt lat="46.04556" lon="5.57509">
        <ele>909.2</ele>
        <time>2026-05-10T08:35:19Z</time>
      </trkpt>
      <trkpt lat="46.04557" lon="5.57512">
        <ele>909.4</ele>
        <time>2026-05-10T08:35:20Z</time>
      </trkpt>
      <trkpt lat="46.04559" lon="5.57514">
        <ele>909.4</ele>
        <time>2026-05-10T08:35:21Z</time>
      </trkpt>
      <trkpt lat="46.0456" lon="5.57516">
        <ele>909.4</ele>
        <time>2026-05-10T08:35:22Z</time>
      </trkpt>
      <trkpt lat="46.04562" lon="5.57517">
        <ele>909.4</ele>
        <time>2026-05-10T08:35:23Z</time>
      </trkpt>
      <trkpt lat="46.04564" lon="5.57519">
        <ele>909.4</ele>
        <time>2026-05-10T08:35:24Z</time>
      </trkpt>
      <trkpt lat="46.04566" lon="5.57521">
        <ele>909.4</ele>
        <time>2026-05-10T08:35:25Z</time>
      </trkpt>
      <trkpt lat="46.04568" lon="5.57523">
        <ele>909.4</ele>
        <time>2026-05-10T08:35:26Z</time>
      </trkpt>
      <trkpt lat="46.04569" lon="5.57524">
        <ele>909.4</ele>
        <time>2026-05-10T08:35:27Z</time>
      </trkpt>
      <trkpt lat="46.04571" lon="5.57525">
        <ele>909.4</ele>
        <time>2026-05-10T08:35:28Z</time>
      </trkpt>
      <trkpt lat="46.04573" lon="5.57527">
        <ele>909.4</ele>
        <time>2026-05-10T08:35:29Z</time>
      </trkpt>
      <trkpt lat="46.04575" lon="5.57529">
        <ele>909.4</ele>
        <time>2026-05-10T08:35:30Z</time>
      </trkpt>
      <trkpt lat="46.04577" lon="5.5753">
        <ele>909.8</ele>
        <time>2026-05-10T08:35:31Z</time>
      </trkpt>
      <trkpt lat="46.04579" lon="5.57532">
        <ele>909.8</ele>
        <time>2026-05-10T08:35:32Z</time>
      </trkpt>
      <trkpt lat="46.04581" lon="5.57534">
        <ele>909.8</ele>
        <time>2026-05-10T08:35:33Z</time>
      </trkpt>
      <trkpt lat="46.04583" lon="5.57536">
        <ele>910</ele>
        <time>2026-05-10T08:35:34Z</time>
      </trkpt>
      <trkpt lat="46.04585" lon="5.57538">
        <ele>910</ele>
        <time>2026-05-10T08:35:35Z</time>
      </trkpt>
      <trkpt lat="46.04587" lon="5.5754">
        <ele>910</ele>
        <time>2026-05-10T08:35:36Z</time>
      </trkpt>
      <trkpt lat="46.04589" lon="5.57542">
        <ele>910</ele>
        <time>2026-05-10T08:35:37Z</time>
      </trkpt>
      <trkpt lat="46.0459" lon="5.57544">
        <ele>910</ele>
        <time>2026-05-10T08:35:38Z</time>
      </trkpt>
      <trkpt lat="46.04592" lon="5.57546">
        <ele>909.8</ele>
        <time>2026-05-10T08:35:39Z</time>
      </trkpt>
      <trkpt lat="46.04594" lon="5.57548">
        <ele>910.2</ele>
        <time>2026-05-10T08:35:40Z</time>
      </trkpt>
      <trkpt lat="46.04596" lon="5.57551">
        <ele>910.2</ele>
        <time>2026-05-10T08:35:41Z</time>
      </trkpt>
      <trkpt lat="46.04597" lon="5.57553">
        <ele>909.8</ele>
        <time>2026-05-10T08:35:42Z</time>
      </trkpt>
      <trkpt lat="46.04599" lon="5.57556">
        <ele>910</ele>
        <time>2026-05-10T08:35:43Z</time>
      </trkpt>
      <trkpt lat="46.04601" lon="5.57558">
        <ele>910</ele>
        <time>2026-05-10T08:35:44Z</time>
      </trkpt>
      <trkpt lat="46.04602" lon="5.5756">
        <ele>910.4</ele>
        <time>2026-05-10T08:35:45Z</time>
      </trkpt>
      <trkpt lat="46.04604" lon="5.57562">
        <ele>910.4</ele>
        <time>2026-05-10T08:35:46Z</time>
      </trkpt>
      <trkpt lat="46.04606" lon="5.57564">
        <ele>910.6</ele>
        <time>2026-05-10T08:35:47Z</time>
      </trkpt>
      <trkpt lat="46.04606" lon="5.57564">
        <ele>910.2</ele>
        <time>2026-05-10T08:35:48Z</time>
      </trkpt>
      <trkpt lat="46.04606" lon="5.57564">
        <ele>910.4</ele>
        <time>2026-05-10T08:35:49Z</time>
      </trkpt>
      <trkpt lat="46.04613" lon="5.57573">
        <ele>910.4</ele>
        <time>2026-05-10T08:35:51Z</time>
      </trkpt>
      <trkpt lat="46.04615" lon="5.57574">
        <ele>910.4</ele>
        <time>2026-05-10T08:35:52Z</time>
      </trkpt>
      <trkpt lat="46.04616" lon="5.57575">
        <ele>910.4</ele>
        <time>2026-05-10T08:35:53Z</time>
      </trkpt>
      <trkpt lat="46.04618" lon="5.57576">
        <ele>910.4</ele>
        <time>2026-05-10T08:35:54Z</time>
      </trkpt>
      <trkpt lat="46.0462" lon="5.57577">
        <ele>910.4</ele>
        <time>2026-05-10T08:35:55Z</time>
      </trkpt>
      <trkpt lat="46.04621" lon="5.57578">
        <ele>910.8</ele>
        <time>2026-05-10T08:35:56Z</time>
      </trkpt>
      <trkpt lat="46.04623" lon="5.57578">
        <ele>911.4</ele>
        <time>2026-05-10T08:35:57Z</time>
      </trkpt>
      <trkpt lat="46.04624" lon="5.57579">
        <ele>911.4</ele>
        <time>2026-05-10T08:35:58Z</time>
      </trkpt>
      <trkpt lat="46.04626" lon="5.57579">
        <ele>912</ele>
        <time>2026-05-10T08:35:59Z</time>
      </trkpt>
      <trkpt lat="46.04627" lon="5.57579">
        <ele>912.2</ele>
        <time>2026-05-10T08:36:00Z</time>
      </trkpt>
      <trkpt lat="46.04629" lon="5.5758">
        <ele>912.2</ele>
        <time>2026-05-10T08:36:01Z</time>
      </trkpt>
      <trkpt lat="46.04631" lon="5.57581">
        <ele>912.2</ele>
        <time>2026-05-10T08:36:02Z</time>
      </trkpt>
      <trkpt lat="46.04633" lon="5.57581">
        <ele>912.6</ele>
        <time>2026-05-10T08:36:03Z</time>
      </trkpt>
      <trkpt lat="46.04635" lon="5.57582">
        <ele>912.6</ele>
        <time>2026-05-10T08:36:04Z</time>
      </trkpt>
      <trkpt lat="46.04637" lon="5.57583">
        <ele>912.6</ele>
        <time>2026-05-10T08:36:05Z</time>
      </trkpt>
      <trkpt lat="46.04638" lon="5.57583">
        <ele>912.6</ele>
        <time>2026-05-10T08:36:06Z</time>
      </trkpt>
      <trkpt lat="46.04639" lon="5.57584">
        <ele>912.6</ele>
        <time>2026-05-10T08:36:07Z</time>
      </trkpt>
      <trkpt lat="46.04641" lon="5.57585">
        <ele>913.2</ele>
        <time>2026-05-10T08:36:08Z</time>
      </trkpt>
      <trkpt lat="46.04642" lon="5.57586">
        <ele>913.4</ele>
        <time>2026-05-10T08:36:09Z</time>
      </trkpt>
      <trkpt lat="46.04644" lon="5.57586">
        <ele>913.8</ele>
        <time>2026-05-10T08:36:10Z</time>
      </trkpt>
      <trkpt lat="46.04645" lon="5.57587">
        <ele>914.2</ele>
        <time>2026-05-10T08:36:11Z</time>
      </trkpt>
      <trkpt lat="46.04647" lon="5.57587">
        <ele>914.8</ele>
        <time>2026-05-10T08:36:12Z</time>
      </trkpt>
      <trkpt lat="46.04649" lon="5.57587">
        <ele>914.8</ele>
        <time>2026-05-10T08:36:13Z</time>
      </trkpt>
      <trkpt lat="46.0465" lon="5.57588">
        <ele>914.8</ele>
        <time>2026-05-10T08:36:14Z</time>
      </trkpt>
      <trkpt lat="46.0465" lon="5.57588">
        <ele>915.2</ele>
        <time>2026-05-10T08:36:15Z</time>
      </trkpt>
      <trkpt lat="46.04651" lon="5.57589">
        <ele>915.6</ele>
        <time>2026-05-10T08:36:16Z</time>
      </trkpt>
      <trkpt lat="46.04653" lon="5.57589">
        <ele>915.6</ele>
        <time>2026-05-10T08:36:17Z</time>
      </trkpt>
      <trkpt lat="46.04654" lon="5.5759">
        <ele>916</ele>
        <time>2026-05-10T08:36:18Z</time>
      </trkpt>
      <trkpt lat="46.04655" lon="5.5759">
        <ele>916.4</ele>
        <time>2026-05-10T08:36:19Z</time>
      </trkpt>
      <trkpt lat="46.04656" lon="5.57591">
        <ele>916.4</ele>
        <time>2026-05-10T08:36:20Z</time>
      </trkpt>
      <trkpt lat="46.04658" lon="5.57592">
        <ele>916.8</ele>
        <time>2026-05-10T08:36:21Z</time>
      </trkpt>
      <trkpt lat="46.04659" lon="5.57592">
        <ele>917</ele>
        <time>2026-05-10T08:36:22Z</time>
      </trkpt>
      <trkpt lat="46.04661" lon="5.57593">
        <ele>917.4</ele>
        <time>2026-05-10T08:36:23Z</time>
      </trkpt>
      <trkpt lat="46.04663" lon="5.57594">
        <ele>917.6</ele>
        <time>2026-05-10T08:36:24Z</time>
      </trkpt>
      <trkpt lat="46.04664" lon="5.57594">
        <ele>918</ele>
        <time>2026-05-10T08:36:25Z</time>
      </trkpt>
      <trkpt lat="46.04665" lon="5.57595">
        <ele>918.2</ele>
        <time>2026-05-10T08:36:26Z</time>
      </trkpt>
      <trkpt lat="46.04667" lon="5.57596">
        <ele>918.4</ele>
        <time>2026-05-10T08:36:27Z</time>
      </trkpt>
      <trkpt lat="46.04668" lon="5.57597">
        <ele>918.4</ele>
        <time>2026-05-10T08:36:28Z</time>
      </trkpt>
      <trkpt lat="46.0467" lon="5.57598">
        <ele>918.8</ele>
        <time>2026-05-10T08:36:29Z</time>
      </trkpt>
      <trkpt lat="46.04671" lon="5.57598">
        <ele>918.8</ele>
        <time>2026-05-10T08:36:30Z</time>
      </trkpt>
      <trkpt lat="46.04671" lon="5.57598">
        <ele>918.8</ele>
        <time>2026-05-10T08:36:31Z</time>
      </trkpt>
      <trkpt lat="46.04675" lon="5.57599">
        <ele>919.2</ele>
        <time>2026-05-10T08:36:32Z</time>
      </trkpt>
      <trkpt lat="46.04676" lon="5.57599">
        <ele>919.6</ele>
        <time>2026-05-10T08:36:33Z</time>
      </trkpt>
      <trkpt lat="46.04678" lon="5.57599">
        <ele>919.6</ele>
        <time>2026-05-10T08:36:34Z</time>
      </trkpt>
      <trkpt lat="46.04679" lon="5.57599">
        <ele>919.8</ele>
        <time>2026-05-10T08:36:35Z</time>
      </trkpt>
      <trkpt lat="46.0468" lon="5.57599">
        <ele>920</ele>
        <time>2026-05-10T08:36:36Z</time>
      </trkpt>
      <trkpt lat="46.04681" lon="5.57599">
        <ele>920.4</ele>
        <time>2026-05-10T08:36:37Z</time>
      </trkpt>
      <trkpt lat="46.04683" lon="5.57598">
        <ele>920.4</ele>
        <time>2026-05-10T08:36:38Z</time>
      </trkpt>
      <trkpt lat="46.04684" lon="5.57598">
        <ele>921</ele>
        <time>2026-05-10T08:36:39Z</time>
      </trkpt>
      <trkpt lat="46.04685" lon="5.57598">
        <ele>921</ele>
        <time>2026-05-10T08:36:40Z</time>
      </trkpt>
      <trkpt lat="46.04685" lon="5.57598">
        <ele>921.2</ele>
        <time>2026-05-10T08:36:41Z</time>
      </trkpt>
      <trkpt lat="46.04686" lon="5.57597">
        <ele>921.6</ele>
        <time>2026-05-10T08:36:42Z</time>
      </trkpt>
      <trkpt lat="46.04687" lon="5.57597">
        <ele>921.6</ele>
        <time>2026-05-10T08:36:43Z</time>
      </trkpt>
      <trkpt lat="46.04689" lon="5.57597">
        <ele>921.8</ele>
        <time>2026-05-10T08:36:44Z</time>
      </trkpt>
      <trkpt lat="46.0469" lon="5.57597">
        <ele>922</ele>
        <time>2026-05-10T08:36:45Z</time>
      </trkpt>
      <trkpt lat="46.04691" lon="5.57597">
        <ele>922</ele>
        <time>2026-05-10T08:36:46Z</time>
      </trkpt>
      <trkpt lat="46.04692" lon="5.57598">
        <ele>922</ele>
        <time>2026-05-10T08:36:47Z</time>
      </trkpt>
      <trkpt lat="46.04694" lon="5.57598">
        <ele>922</ele>
        <time>2026-05-10T08:36:48Z</time>
      </trkpt>
      <trkpt lat="46.04695" lon="5.57598">
        <ele>922.6</ele>
        <time>2026-05-10T08:36:49Z</time>
      </trkpt>
      <trkpt lat="46.04697" lon="5.57598">
        <ele>922.6</ele>
        <time>2026-05-10T08:36:50Z</time>
      </trkpt>
      <trkpt lat="46.04698" lon="5.57598">
        <ele>922.8</ele>
        <time>2026-05-10T08:36:51Z</time>
      </trkpt>
      <trkpt lat="46.047" lon="5.57599">
        <ele>922.8</ele>
        <time>2026-05-10T08:36:52Z</time>
      </trkpt>
      <trkpt lat="46.04701" lon="5.57599">
        <ele>922.8</ele>
        <time>2026-05-10T08:36:53Z</time>
      </trkpt>
      <trkpt lat="46.04703" lon="5.57599">
        <ele>923.2</ele>
        <time>2026-05-10T08:36:54Z</time>
      </trkpt>
      <trkpt lat="46.04704" lon="5.576">
        <ele>923.2</ele>
        <time>2026-05-10T08:36:55Z</time>
      </trkpt>
      <trkpt lat="46.04705" lon="5.576">
        <ele>923.2</ele>
        <time>2026-05-10T08:36:56Z</time>
      </trkpt>
      <trkpt lat="46.04707" lon="5.576">
        <ele>923.6</ele>
        <time>2026-05-10T08:36:57Z</time>
      </trkpt>
      <trkpt lat="46.04709" lon="5.576">
        <ele>924</ele>
        <time>2026-05-10T08:36:58Z</time>
      </trkpt>
      <trkpt lat="46.0471" lon="5.57601">
        <ele>924</ele>
        <time>2026-05-10T08:36:59Z</time>
      </trkpt>
      <trkpt lat="46.04712" lon="5.57601">
        <ele>924.2</ele>
        <time>2026-05-10T08:37:00Z</time>
      </trkpt>
      <trkpt lat="46.04713" lon="5.57602">
        <ele>924.6</ele>
        <time>2026-05-10T08:37:01Z</time>
      </trkpt>
      <trkpt lat="46.04715" lon="5.57603">
        <ele>924.6</ele>
        <time>2026-05-10T08:37:02Z</time>
      </trkpt>
      <trkpt lat="46.04716" lon="5.57605">
        <ele>924.8</ele>
        <time>2026-05-10T08:37:03Z</time>
      </trkpt>
      <trkpt lat="46.04717" lon="5.57606">
        <ele>925</ele>
        <time>2026-05-10T08:37:04Z</time>
      </trkpt>
      <trkpt lat="46.04718" lon="5.57608">
        <ele>925.2</ele>
        <time>2026-05-10T08:37:05Z</time>
      </trkpt>
      <trkpt lat="46.04719" lon="5.5761">
        <ele>925.2</ele>
        <time>2026-05-10T08:37:06Z</time>
      </trkpt>
      <trkpt lat="46.0472" lon="5.57611">
        <ele>925.2</ele>
        <time>2026-05-10T08:37:07Z</time>
      </trkpt>
      <trkpt lat="46.04721" lon="5.57612">
        <ele>925.6</ele>
        <time>2026-05-10T08:37:08Z</time>
      </trkpt>
      <trkpt lat="46.04722" lon="5.57612">
        <ele>925.8</ele>
        <time>2026-05-10T08:37:09Z</time>
      </trkpt>
      <trkpt lat="46.04724" lon="5.57613">
        <ele>925.8</ele>
        <time>2026-05-10T08:37:10Z</time>
      </trkpt>
      <trkpt lat="46.04725" lon="5.57614">
        <ele>926.4</ele>
        <time>2026-05-10T08:37:11Z</time>
      </trkpt>
      <trkpt lat="46.04726" lon="5.57616">
        <ele>926.6</ele>
        <time>2026-05-10T08:37:12Z</time>
      </trkpt>
      <trkpt lat="46.04728" lon="5.57617">
        <ele>926.6</ele>
        <time>2026-05-10T08:37:13Z</time>
      </trkpt>
      <trkpt lat="46.04729" lon="5.57618">
        <ele>926.6</ele>
        <time>2026-05-10T08:37:14Z</time>
      </trkpt>
      <trkpt lat="46.0473" lon="5.57619">
        <ele>926.6</ele>
        <time>2026-05-10T08:37:15Z</time>
      </trkpt>
      <trkpt lat="46.04731" lon="5.5762">
        <ele>926.6</ele>
        <time>2026-05-10T08:37:16Z</time>
      </trkpt>
      <trkpt lat="46.04731" lon="5.57621">
        <ele>926.6</ele>
        <time>2026-05-10T08:37:17Z</time>
      </trkpt>
      <trkpt lat="46.04732" lon="5.57622">
        <ele>926.6</ele>
        <time>2026-05-10T08:37:18Z</time>
      </trkpt>
      <trkpt lat="46.04732" lon="5.57622">
        <ele>926.6</ele>
        <time>2026-05-10T08:37:19Z</time>
      </trkpt>
      <trkpt lat="46.04732" lon="5.57622">
        <ele>926.6</ele>
        <time>2026-05-10T08:37:20Z</time>
      </trkpt>
      <trkpt lat="46.04734" lon="5.57626">
        <ele>926.8</ele>
        <time>2026-05-10T08:44:07Z</time>
      </trkpt>
      <trkpt lat="46.04736" lon="5.57628">
        <ele>926.8</ele>
        <time>2026-05-10T08:44:08Z</time>
      </trkpt>
      <trkpt lat="46.04737" lon="5.57631">
        <ele>926.8</ele>
        <time>2026-05-10T08:44:09Z</time>
      </trkpt>
      <trkpt lat="46.04738" lon="5.57634">
        <ele>926.8</ele>
        <time>2026-05-10T08:44:10Z</time>
      </trkpt>
      <trkpt lat="46.04739" lon="5.57637">
        <ele>926.8</ele>
        <time>2026-05-10T08:44:11Z</time>
      </trkpt>
      <trkpt lat="46.0474" lon="5.57639">
        <ele>926.8</ele>
        <time>2026-05-10T08:44:12Z</time>
      </trkpt>
      <trkpt lat="46.0474" lon="5.5764">
        <ele>926.6</ele>
        <time>2026-05-10T08:44:13Z</time>
      </trkpt>
      <trkpt lat="46.0474" lon="5.57642">
        <ele>926.6</ele>
        <time>2026-05-10T08:44:14Z</time>
      </trkpt>
      <trkpt lat="46.0474" lon="5.57644">
        <ele>926.6</ele>
        <time>2026-05-10T08:44:15Z</time>
      </trkpt>
      <trkpt lat="46.0474" lon="5.57646">
        <ele>926.6</ele>
        <time>2026-05-10T08:44:16Z</time>
      </trkpt>
      <trkpt lat="46.0474" lon="5.57645">
        <ele>926.4</ele>
        <time>2026-05-10T08:44:17Z</time>
      </trkpt>
      <trkpt lat="46.0474" lon="5.57645">
        <ele>926.2</ele>
        <time>2026-05-10T08:44:18Z</time>
      </trkpt>
      <trkpt lat="46.04739" lon="5.57655">
        <ele>925.8</ele>
        <time>2026-05-10T08:44:41Z</time>
      </trkpt>
      <trkpt lat="46.0474" lon="5.57658">
        <ele>925.8</ele>
        <time>2026-05-10T08:44:42Z</time>
      </trkpt>
      <trkpt lat="46.0474" lon="5.57661">
        <ele>925.8</ele>
        <time>2026-05-10T08:44:43Z</time>
      </trkpt>
      <trkpt lat="46.04741" lon="5.57665">
        <ele>925.8</ele>
        <time>2026-05-10T08:44:44Z</time>
      </trkpt>
      <trkpt lat="46.04743" lon="5.57669">
        <ele>925.8</ele>
        <time>2026-05-10T08:44:45Z</time>
      </trkpt>
      <trkpt lat="46.04744" lon="5.57673">
        <ele>925.6</ele>
        <time>2026-05-10T08:44:46Z</time>
      </trkpt>
      <trkpt lat="46.04746" lon="5.57678">
        <ele>925.4</ele>
        <time>2026-05-10T08:44:47Z</time>
      </trkpt>
      <trkpt lat="46.04748" lon="5.57682">
        <ele>925</ele>
        <time>2026-05-10T08:44:48Z</time>
      </trkpt>
      <trkpt lat="46.04753" lon="5.57686">
        <ele>924.6</ele>
        <time>2026-05-10T08:44:49Z</time>
      </trkpt>
      <trkpt lat="46.04756" lon="5.5769">
        <ele>924.4</ele>
        <time>2026-05-10T08:44:50Z</time>
      </trkpt>
      <trkpt lat="46.04759" lon="5.57696">
        <ele>924</ele>
        <time>2026-05-10T08:44:51Z</time>
      </trkpt>
      <trkpt lat="46.04762" lon="5.57696">
        <ele>923.8</ele>
        <time>2026-05-10T08:44:52Z</time>
      </trkpt>
      <trkpt lat="46.04766" lon="5.57699">
        <ele>923.4</ele>
        <time>2026-05-10T08:44:53Z</time>
      </trkpt>
      <trkpt lat="46.0477" lon="5.57702">
        <ele>923.2</ele>
        <time>2026-05-10T08:44:54Z</time>
      </trkpt>
      <trkpt lat="46.04774" lon="5.57704">
        <ele>923</ele>
        <time>2026-05-10T08:44:55Z</time>
      </trkpt>
      <trkpt lat="46.04778" lon="5.57705">
        <ele>922.6</ele>
        <time>2026-05-10T08:44:56Z</time>
      </trkpt>
      <trkpt lat="46.04782" lon="5.57708">
        <ele>922.4</ele>
        <time>2026-05-10T08:44:57Z</time>
      </trkpt>
      <trkpt lat="46.04787" lon="5.5771">
        <ele>922</ele>
        <time>2026-05-10T08:44:58Z</time>
      </trkpt>
      <trkpt lat="46.04791" lon="5.57711">
        <ele>921.8</ele>
        <time>2026-05-10T08:44:59Z</time>
      </trkpt>
      <trkpt lat="46.04796" lon="5.5771">
        <ele>921.6</ele>
        <time>2026-05-10T08:45:00Z</time>
      </trkpt>
      <trkpt lat="46.04801" lon="5.57711">
        <ele>921.4</ele>
        <time>2026-05-10T08:45:01Z</time>
      </trkpt>
      <trkpt lat="46.04807" lon="5.57712">
        <ele>921.4</ele>
        <time>2026-05-10T08:45:02Z</time>
      </trkpt>
      <trkpt lat="46.04813" lon="5.57713">
        <ele>921</ele>
        <time>2026-05-10T08:45:03Z</time>
      </trkpt>
      <trkpt lat="46.0482" lon="5.57715">
        <ele>921</ele>
        <time>2026-05-10T08:45:04Z</time>
      </trkpt>
      <trkpt lat="46.04827" lon="5.57716">
        <ele>920.6</ele>
        <time>2026-05-10T08:45:05Z</time>
      </trkpt>
      <trkpt lat="46.04833" lon="5.57721">
        <ele>920.2</ele>
        <time>2026-05-10T08:45:06Z</time>
      </trkpt>
      <trkpt lat="46.0484" lon="5.57727">
        <ele>919.6</ele>
        <time>2026-05-10T08:45:07Z</time>
      </trkpt>
      <trkpt lat="46.04846" lon="5.57734">
        <ele>919.2</ele>
        <time>2026-05-10T08:45:08Z</time>
      </trkpt>
      <trkpt lat="46.04852" lon="5.57741">
        <ele>918.6</ele>
        <time>2026-05-10T08:45:09Z</time>
      </trkpt>
      <trkpt lat="46.04859" lon="5.57748">
        <ele>918</ele>
        <time>2026-05-10T08:45:10Z</time>
      </trkpt>
      <trkpt lat="46.04865" lon="5.57757">
        <ele>917.6</ele>
        <time>2026-05-10T08:45:11Z</time>
      </trkpt>
      <trkpt lat="46.0487" lon="5.57764">
        <ele>917</ele>
        <time>2026-05-10T08:45:12Z</time>
      </trkpt>
      <trkpt lat="46.04877" lon="5.5777">
        <ele>916.2</ele>
        <time>2026-05-10T08:45:13Z</time>
      </trkpt>
      <trkpt lat="46.04886" lon="5.57776">
        <ele>915.6</ele>
        <time>2026-05-10T08:45:14Z</time>
      </trkpt>
      <trkpt lat="46.04892" lon="5.57782">
        <ele>915</ele>
        <time>2026-05-10T08:45:15Z</time>
      </trkpt>
      <trkpt lat="46.04899" lon="5.57785">
        <ele>914.4</ele>
        <time>2026-05-10T08:45:16Z</time>
      </trkpt>
      <trkpt lat="46.04906" lon="5.57789">
        <ele>914</ele>
        <time>2026-05-10T08:45:17Z</time>
      </trkpt>
      <trkpt lat="46.04914" lon="5.57791">
        <ele>913.4</ele>
        <time>2026-05-10T08:45:18Z</time>
      </trkpt>
      <trkpt lat="46.04914" lon="5.57791">
        <ele>913</ele>
        <time>2026-05-10T08:45:19Z</time>
      </trkpt>
      <trkpt lat="46.04922" lon="5.57792">
        <ele>912.4</ele>
        <time>2026-05-10T08:45:20Z</time>
      </trkpt>
      <trkpt lat="46.0493" lon="5.57795">
        <ele>912</ele>
        <time>2026-05-10T08:45:21Z</time>
      </trkpt>
      <trkpt lat="46.04938" lon="5.57797">
        <ele>911.2</ele>
        <time>2026-05-10T08:45:22Z</time>
      </trkpt>
      <trkpt lat="46.04946" lon="5.57802">
        <ele>910.6</ele>
        <time>2026-05-10T08:45:23Z</time>
      </trkpt>
      <trkpt lat="46.04955" lon="5.57806">
        <ele>909.8</ele>
        <time>2026-05-10T08:45:24Z</time>
      </trkpt>
      <trkpt lat="46.04963" lon="5.57813">
        <ele>909</ele>
        <time>2026-05-10T08:45:25Z</time>
      </trkpt>
      <trkpt lat="46.04971" lon="5.57819">
        <ele>908.2</ele>
        <time>2026-05-10T08:45:26Z</time>
      </trkpt>
      <trkpt lat="46.04979" lon="5.57825">
        <ele>907.8</ele>
        <time>2026-05-10T08:45:27Z</time>
      </trkpt>
      <trkpt lat="46.04987" lon="5.57831">
        <ele>907</ele>
        <time>2026-05-10T08:45:28Z</time>
      </trkpt>
      <trkpt lat="46.04995" lon="5.57837">
        <ele>906.4</ele>
        <time>2026-05-10T08:45:29Z</time>
      </trkpt>
      <trkpt lat="46.05004" lon="5.57845">
        <ele>905.6</ele>
        <time>2026-05-10T08:45:30Z</time>
      </trkpt>
      <trkpt lat="46.05012" lon="5.57853">
        <ele>905</ele>
        <time>2026-05-10T08:45:31Z</time>
      </trkpt>
      <trkpt lat="46.0502" lon="5.5786">
        <ele>904</ele>
        <time>2026-05-10T08:45:32Z</time>
      </trkpt>
      <trkpt lat="46.05029" lon="5.57868">
        <ele>903.2</ele>
        <time>2026-05-10T08:45:33Z</time>
      </trkpt>
      <trkpt lat="46.05037" lon="5.57875">
        <ele>902.8</ele>
        <time>2026-05-10T08:45:34Z</time>
      </trkpt>
      <trkpt lat="46.05047" lon="5.57884">
        <ele>902</ele>
        <time>2026-05-10T08:45:35Z</time>
      </trkpt>
      <trkpt lat="46.05055" lon="5.57892">
        <ele>901.4</ele>
        <time>2026-05-10T08:45:36Z</time>
      </trkpt>
      <trkpt lat="46.05063" lon="5.57901">
        <ele>900.8</ele>
        <time>2026-05-10T08:45:37Z</time>
      </trkpt>
      <trkpt lat="46.05071" lon="5.5791">
        <ele>899.8</ele>
        <time>2026-05-10T08:45:38Z</time>
      </trkpt>
      <trkpt lat="46.05079" lon="5.57919">
        <ele>899.2</ele>
        <time>2026-05-10T08:45:39Z</time>
      </trkpt>
      <trkpt lat="46.05087" lon="5.57927">
        <ele>898.8</ele>
        <time>2026-05-10T08:45:40Z</time>
      </trkpt>
      <trkpt lat="46.05096" lon="5.57935">
        <ele>898.2</ele>
        <time>2026-05-10T08:45:41Z</time>
      </trkpt>
      <trkpt lat="46.05104" lon="5.57944">
        <ele>897.6</ele>
        <time>2026-05-10T08:45:42Z</time>
      </trkpt>
      <trkpt lat="46.05112" lon="5.57953">
        <ele>897</ele>
        <time>2026-05-10T08:45:43Z</time>
      </trkpt>
      <trkpt lat="46.0512" lon="5.57961">
        <ele>896.4</ele>
        <time>2026-05-10T08:45:44Z</time>
      </trkpt>
      <trkpt lat="46.05127" lon="5.57972">
        <ele>895.8</ele>
        <time>2026-05-10T08:45:45Z</time>
      </trkpt>
      <trkpt lat="46.05133" lon="5.57984">
        <ele>895.6</ele>
        <time>2026-05-10T08:45:46Z</time>
      </trkpt>
      <trkpt lat="46.05139" lon="5.57996">
        <ele>895.2</ele>
        <time>2026-05-10T08:45:47Z</time>
      </trkpt>
      <trkpt lat="46.05145" lon="5.58007">
        <ele>894.6</ele>
        <time>2026-05-10T08:45:48Z</time>
      </trkpt>
      <trkpt lat="46.05151" lon="5.58019">
        <ele>894.2</ele>
        <time>2026-05-10T08:45:49Z</time>
      </trkpt>
      <trkpt lat="46.05156" lon="5.5803">
        <ele>894</ele>
        <time>2026-05-10T08:45:50Z</time>
      </trkpt>
      <trkpt lat="46.05162" lon="5.58042">
        <ele>893.6</ele>
        <time>2026-05-10T08:45:51Z</time>
      </trkpt>
      <trkpt lat="46.05168" lon="5.58053">
        <ele>893</ele>
        <time>2026-05-10T08:45:52Z</time>
      </trkpt>
      <trkpt lat="46.05174" lon="5.58065">
        <ele>892.6</ele>
        <time>2026-05-10T08:45:53Z</time>
      </trkpt>
      <trkpt lat="46.05179" lon="5.58076">
        <ele>892</ele>
        <time>2026-05-10T08:45:54Z</time>
      </trkpt>
      <trkpt lat="46.05185" lon="5.58087">
        <ele>892</ele>
        <time>2026-05-10T08:45:55Z</time>
      </trkpt>
      <trkpt lat="46.0519" lon="5.58097">
        <ele>892</ele>
        <time>2026-05-10T08:45:56Z</time>
      </trkpt>
      <trkpt lat="46.05196" lon="5.58108">
        <ele>891.8</ele>
        <time>2026-05-10T08:45:57Z</time>
      </trkpt>
      <trkpt lat="46.05201" lon="5.58118">
        <ele>891.4</ele>
        <time>2026-05-10T08:45:58Z</time>
      </trkpt>
      <trkpt lat="46.05207" lon="5.58127">
        <ele>891.4</ele>
        <time>2026-05-10T08:45:59Z</time>
      </trkpt>
      <trkpt lat="46.05213" lon="5.58136">
        <ele>891.4</ele>
        <time>2026-05-10T08:46:00Z</time>
      </trkpt>
      <trkpt lat="46.05219" lon="5.58144">
        <ele>891</ele>
        <time>2026-05-10T08:46:01Z</time>
      </trkpt>
      <trkpt lat="46.05226" lon="5.58152">
        <ele>890.2</ele>
        <time>2026-05-10T08:46:02Z</time>
      </trkpt>
      <trkpt lat="46.05233" lon="5.58159">
        <ele>889.8</ele>
        <time>2026-05-10T08:46:03Z</time>
      </trkpt>
      <trkpt lat="46.0524" lon="5.58167">
        <ele>889.4</ele>
        <time>2026-05-10T08:46:04Z</time>
      </trkpt>
      <trkpt lat="46.05247" lon="5.58174">
        <ele>888.8</ele>
        <time>2026-05-10T08:46:05Z</time>
      </trkpt>
      <trkpt lat="46.05254" lon="5.58182">
        <ele>888.4</ele>
        <time>2026-05-10T08:46:06Z</time>
      </trkpt>
      <trkpt lat="46.05261" lon="5.58189">
        <ele>888</ele>
        <time>2026-05-10T08:46:07Z</time>
      </trkpt>
      <trkpt lat="46.05268" lon="5.58198">
        <ele>887.6</ele>
        <time>2026-05-10T08:46:08Z</time>
      </trkpt>
      <trkpt lat="46.05274" lon="5.58206">
        <ele>886.8</ele>
        <time>2026-05-10T08:46:09Z</time>
      </trkpt>
      <trkpt lat="46.05281" lon="5.58215">
        <ele>886.2</ele>
        <time>2026-05-10T08:46:10Z</time>
      </trkpt>
      <trkpt lat="46.05288" lon="5.58225">
        <ele>885.6</ele>
        <time>2026-05-10T08:46:11Z</time>
      </trkpt>
      <trkpt lat="46.05294" lon="5.58236">
        <ele>885</ele>
        <time>2026-05-10T08:46:12Z</time>
      </trkpt>
      <trkpt lat="46.05299" lon="5.58247">
        <ele>884.4</ele>
        <time>2026-05-10T08:46:13Z</time>
      </trkpt>
      <trkpt lat="46.05303" lon="5.58259">
        <ele>883.8</ele>
        <time>2026-05-10T08:46:14Z</time>
      </trkpt>
      <trkpt lat="46.05307" lon="5.58271">
        <ele>883.2</ele>
        <time>2026-05-10T08:46:15Z</time>
      </trkpt>
      <trkpt lat="46.05311" lon="5.58284">
        <ele>882.8</ele>
        <time>2026-05-10T08:46:16Z</time>
      </trkpt>
      <trkpt lat="46.05316" lon="5.58297">
        <ele>882.8</ele>
        <time>2026-05-10T08:46:17Z</time>
      </trkpt>
      <trkpt lat="46.0532" lon="5.5831">
        <ele>882.2</ele>
        <time>2026-05-10T08:46:18Z</time>
      </trkpt>
      <trkpt lat="46.05324" lon="5.58323">
        <ele>881.6</ele>
        <time>2026-05-10T08:46:19Z</time>
      </trkpt>
      <trkpt lat="46.05329" lon="5.58336">
        <ele>880.8</ele>
        <time>2026-05-10T08:46:20Z</time>
      </trkpt>
      <trkpt lat="46.05333" lon="5.58349">
        <ele>880.2</ele>
        <time>2026-05-10T08:46:21Z</time>
      </trkpt>
      <trkpt lat="46.05338" lon="5.58361">
        <ele>879.6</ele>
        <time>2026-05-10T08:46:22Z</time>
      </trkpt>
      <trkpt lat="46.05343" lon="5.58374">
        <ele>879</ele>
        <time>2026-05-10T08:46:23Z</time>
      </trkpt>
      <trkpt lat="46.05348" lon="5.58387">
        <ele>877.8</ele>
        <time>2026-05-10T08:46:24Z</time>
      </trkpt>
      <trkpt lat="46.05353" lon="5.584">
        <ele>877.4</ele>
        <time>2026-05-10T08:46:25Z</time>
      </trkpt>
      <trkpt lat="46.05358" lon="5.58413">
        <ele>876.4</ele>
        <time>2026-05-10T08:46:26Z</time>
      </trkpt>
      <trkpt lat="46.05363" lon="5.58425">
        <ele>876</ele>
        <time>2026-05-10T08:46:27Z</time>
      </trkpt>
      <trkpt lat="46.05368" lon="5.58437">
        <ele>875.6</ele>
        <time>2026-05-10T08:46:28Z</time>
      </trkpt>
      <trkpt lat="46.05374" lon="5.5845">
        <ele>875.6</ele>
        <time>2026-05-10T08:46:29Z</time>
      </trkpt>
      <trkpt lat="46.0538" lon="5.58461">
        <ele>874.8</ele>
        <time>2026-05-10T08:46:30Z</time>
      </trkpt>
      <trkpt lat="46.05388" lon="5.58472">
        <ele>874.2</ele>
        <time>2026-05-10T08:46:31Z</time>
      </trkpt>
      <trkpt lat="46.05395" lon="5.58481">
        <ele>873.4</ele>
        <time>2026-05-10T08:46:32Z</time>
      </trkpt>
      <trkpt lat="46.05403" lon="5.5849">
        <ele>872.8</ele>
        <time>2026-05-10T08:46:33Z</time>
      </trkpt>
      <trkpt lat="46.05411" lon="5.58498">
        <ele>872.4</ele>
        <time>2026-05-10T08:46:34Z</time>
      </trkpt>
      <trkpt lat="46.0542" lon="5.58505">
        <ele>871.8</ele>
        <time>2026-05-10T08:46:35Z</time>
      </trkpt>
      <trkpt lat="46.05428" lon="5.58511">
        <ele>871.4</ele>
        <time>2026-05-10T08:46:36Z</time>
      </trkpt>
      <trkpt lat="46.05438" lon="5.58516">
        <ele>871.4</ele>
        <time>2026-05-10T08:46:37Z</time>
      </trkpt>
      <trkpt lat="46.05447" lon="5.5852">
        <ele>871</ele>
        <time>2026-05-10T08:46:38Z</time>
      </trkpt>
      <trkpt lat="46.05456" lon="5.58524">
        <ele>870.8</ele>
        <time>2026-05-10T08:46:39Z</time>
      </trkpt>
      <trkpt lat="46.05465" lon="5.58527">
        <ele>870.8</ele>
        <time>2026-05-10T08:46:40Z</time>
      </trkpt>
      <trkpt lat="46.05474" lon="5.58529">
        <ele>870.4</ele>
        <time>2026-05-10T08:46:41Z</time>
      </trkpt>
      <trkpt lat="46.05484" lon="5.58531">
        <ele>869.6</ele>
        <time>2026-05-10T08:46:42Z</time>
      </trkpt>
      <trkpt lat="46.05493" lon="5.58534">
        <ele>869.2</ele>
        <time>2026-05-10T08:46:43Z</time>
      </trkpt>
      <trkpt lat="46.05502" lon="5.5854">
        <ele>868.6</ele>
        <time>2026-05-10T08:46:44Z</time>
      </trkpt>
      <trkpt lat="46.05511" lon="5.58546">
        <ele>868.2</ele>
        <time>2026-05-10T08:46:45Z</time>
      </trkpt>
      <trkpt lat="46.05519" lon="5.58555">
        <ele>867.8</ele>
        <time>2026-05-10T08:46:46Z</time>
      </trkpt>
      <trkpt lat="46.05526" lon="5.58563">
        <ele>867.6</ele>
        <time>2026-05-10T08:46:47Z</time>
      </trkpt>
      <trkpt lat="46.05533" lon="5.58572">
        <ele>867.6</ele>
        <time>2026-05-10T08:46:48Z</time>
      </trkpt>
      <trkpt lat="46.0554" lon="5.5858">
        <ele>867.2</ele>
        <time>2026-05-10T08:46:49Z</time>
      </trkpt>
      <trkpt lat="46.05547" lon="5.58589">
        <ele>867.2</ele>
        <time>2026-05-10T08:46:50Z</time>
      </trkpt>
      <trkpt lat="46.05554" lon="5.58597">
        <ele>866.8</ele>
        <time>2026-05-10T08:46:51Z</time>
      </trkpt>
      <trkpt lat="46.05561" lon="5.58605">
        <ele>866.6</ele>
        <time>2026-05-10T08:46:52Z</time>
      </trkpt>
      <trkpt lat="46.05568" lon="5.58613">
        <ele>866</ele>
        <time>2026-05-10T08:46:53Z</time>
      </trkpt>
      <trkpt lat="46.05575" lon="5.58621">
        <ele>865.6</ele>
        <time>2026-05-10T08:46:54Z</time>
      </trkpt>
      <trkpt lat="46.05582" lon="5.5863">
        <ele>865.2</ele>
        <time>2026-05-10T08:46:55Z</time>
      </trkpt>
      <trkpt lat="46.05588" lon="5.58639">
        <ele>864.8</ele>
        <time>2026-05-10T08:46:56Z</time>
      </trkpt>
      <trkpt lat="46.05594" lon="5.58649">
        <ele>864.4</ele>
        <time>2026-05-10T08:46:57Z</time>
      </trkpt>
      <trkpt lat="46.05598" lon="5.58661">
        <ele>863.8</ele>
        <time>2026-05-10T08:46:58Z</time>
      </trkpt>
      <trkpt lat="46.05603" lon="5.58674">
        <ele>863.2</ele>
        <time>2026-05-10T08:46:59Z</time>
      </trkpt>
      <trkpt lat="46.05605" lon="5.58687">
        <ele>862.6</ele>
        <time>2026-05-10T08:47:00Z</time>
      </trkpt>
      <trkpt lat="46.05608" lon="5.58699">
        <ele>862.2</ele>
        <time>2026-05-10T08:47:01Z</time>
      </trkpt>
      <trkpt lat="46.05611" lon="5.58712">
        <ele>861.6</ele>
        <time>2026-05-10T08:47:02Z</time>
      </trkpt>
      <trkpt lat="46.05613" lon="5.58726">
        <ele>861</ele>
        <time>2026-05-10T08:47:03Z</time>
      </trkpt>
      <trkpt lat="46.05615" lon="5.58739">
        <ele>860.6</ele>
        <time>2026-05-10T08:47:04Z</time>
      </trkpt>
      <trkpt lat="46.05617" lon="5.58752">
        <ele>860.2</ele>
        <time>2026-05-10T08:47:05Z</time>
      </trkpt>
      <trkpt lat="46.05619" lon="5.58765">
        <ele>859.4</ele>
        <time>2026-05-10T08:47:06Z</time>
      </trkpt>
      <trkpt lat="46.05621" lon="5.58778">
        <ele>859</ele>
        <time>2026-05-10T08:47:07Z</time>
      </trkpt>
      <trkpt lat="46.05624" lon="5.58791">
        <ele>859</ele>
        <time>2026-05-10T08:47:08Z</time>
      </trkpt>
      <trkpt lat="46.05626" lon="5.58804">
        <ele>858.8</ele>
        <time>2026-05-10T08:47:09Z</time>
      </trkpt>
      <trkpt lat="46.05629" lon="5.58818">
        <ele>858.6</ele>
        <time>2026-05-10T08:47:10Z</time>
      </trkpt>
      <trkpt lat="46.05633" lon="5.58831">
        <ele>858.2</ele>
        <time>2026-05-10T08:47:11Z</time>
      </trkpt>
      <trkpt lat="46.05637" lon="5.58844">
        <ele>857.6</ele>
        <time>2026-05-10T08:47:12Z</time>
      </trkpt>
      <trkpt lat="46.05641" lon="5.58857">
        <ele>856.8</ele>
        <time>2026-05-10T08:47:13Z</time>
      </trkpt>
      <trkpt lat="46.05646" lon="5.58869">
        <ele>856.2</ele>
        <time>2026-05-10T08:47:14Z</time>
      </trkpt>
      <trkpt lat="46.05651" lon="5.58882">
        <ele>856.2</ele>
        <time>2026-05-10T08:47:15Z</time>
      </trkpt>
      <trkpt lat="46.05657" lon="5.58893">
        <ele>856.2</ele>
        <time>2026-05-10T08:47:16Z</time>
      </trkpt>
      <trkpt lat="46.05663" lon="5.58904">
        <ele>855.6</ele>
        <time>2026-05-10T08:47:17Z</time>
      </trkpt>
      <trkpt lat="46.05674" lon="5.58911">
        <ele>854.6</ele>
        <time>2026-05-10T08:47:18Z</time>
      </trkpt>
      <trkpt lat="46.05682" lon="5.58919">
        <ele>853.6</ele>
        <time>2026-05-10T08:47:19Z</time>
      </trkpt>
      <trkpt lat="46.0569" lon="5.58928">
        <ele>853</ele>
        <time>2026-05-10T08:47:20Z</time>
      </trkpt>
      <trkpt lat="46.05698" lon="5.58939">
        <ele>852</ele>
        <time>2026-05-10T08:47:21Z</time>
      </trkpt>
      <trkpt lat="46.05704" lon="5.58951">
        <ele>850.8</ele>
        <time>2026-05-10T08:47:22Z</time>
      </trkpt>
      <trkpt lat="46.0571" lon="5.58964">
        <ele>850.2</ele>
        <time>2026-05-10T08:47:23Z</time>
      </trkpt>
      <trkpt lat="46.05714" lon="5.58978">
        <ele>849.2</ele>
        <time>2026-05-10T08:47:24Z</time>
      </trkpt>
      <trkpt lat="46.05717" lon="5.58992">
        <ele>848.6</ele>
        <time>2026-05-10T08:47:25Z</time>
      </trkpt>
      <trkpt lat="46.05719" lon="5.59007">
        <ele>848</ele>
        <time>2026-05-10T08:47:26Z</time>
      </trkpt>
      <trkpt lat="46.0572" lon="5.59022">
        <ele>847.2</ele>
        <time>2026-05-10T08:47:27Z</time>
      </trkpt>
      <trkpt lat="46.0572" lon="5.59037">
        <ele>846.8</ele>
        <time>2026-05-10T08:47:28Z</time>
      </trkpt>
      <trkpt lat="46.0572" lon="5.59052">
        <ele>846.2</ele>
        <time>2026-05-10T08:47:29Z</time>
      </trkpt>
      <trkpt lat="46.0572" lon="5.59067">
        <ele>845.8</ele>
        <time>2026-05-10T08:47:30Z</time>
      </trkpt>
      <trkpt lat="46.0572" lon="5.59081">
        <ele>845.4</ele>
        <time>2026-05-10T08:47:31Z</time>
      </trkpt>
      <trkpt lat="46.05721" lon="5.59108">
        <ele>845.4</ele>
        <time>2026-05-10T08:47:32Z</time>
      </trkpt>
      <trkpt lat="46.05723" lon="5.59121">
        <ele>845</ele>
        <time>2026-05-10T08:47:33Z</time>
      </trkpt>
      <trkpt lat="46.05725" lon="5.59134">
        <ele>844.8</ele>
        <time>2026-05-10T08:47:34Z</time>
      </trkpt>
      <trkpt lat="46.05727" lon="5.59147">
        <ele>844.8</ele>
        <time>2026-05-10T08:47:35Z</time>
      </trkpt>
      <trkpt lat="46.0573" lon="5.59159">
        <ele>845.2</ele>
        <time>2026-05-10T08:47:36Z</time>
      </trkpt>
      <trkpt lat="46.05733" lon="5.59171">
        <ele>845.4</ele>
        <time>2026-05-10T08:47:37Z</time>
      </trkpt>
      <trkpt lat="46.05737" lon="5.59183">
        <ele>845.4</ele>
        <time>2026-05-10T08:47:38Z</time>
      </trkpt>
      <trkpt lat="46.0574" lon="5.59195">
        <ele>845.4</ele>
        <time>2026-05-10T08:47:39Z</time>
      </trkpt>
      <trkpt lat="46.05743" lon="5.59207">
        <ele>844.6</ele>
        <time>2026-05-10T08:47:40Z</time>
      </trkpt>
      <trkpt lat="46.05746" lon="5.59219">
        <ele>844</ele>
        <time>2026-05-10T08:47:41Z</time>
      </trkpt>
      <trkpt lat="46.05748" lon="5.59231">
        <ele>843.6</ele>
        <time>2026-05-10T08:47:42Z</time>
      </trkpt>
      <trkpt lat="46.05751" lon="5.59242">
        <ele>843.2</ele>
        <time>2026-05-10T08:47:43Z</time>
      </trkpt>
      <trkpt lat="46.05754" lon="5.59254">
        <ele>842.8</ele>
        <time>2026-05-10T08:47:44Z</time>
      </trkpt>
      <trkpt lat="46.05757" lon="5.59265">
        <ele>842.6</ele>
        <time>2026-05-10T08:47:45Z</time>
      </trkpt>
      <trkpt lat="46.0576" lon="5.59276">
        <ele>842.2</ele>
        <time>2026-05-10T08:47:46Z</time>
      </trkpt>
      <trkpt lat="46.05764" lon="5.59286">
        <ele>841.8</ele>
        <time>2026-05-10T08:47:47Z</time>
      </trkpt>
      <trkpt lat="46.05768" lon="5.59297">
        <ele>841.6</ele>
        <time>2026-05-10T08:47:48Z</time>
      </trkpt>
      <trkpt lat="46.05768" lon="5.59297">
        <ele>841.2</ele>
        <time>2026-05-10T08:47:49Z</time>
      </trkpt>
      <trkpt lat="46.05768" lon="5.59297">
        <ele>840.6</ele>
        <time>2026-05-10T08:47:50Z</time>
      </trkpt>
      <trkpt lat="46.05768" lon="5.59297">
        <ele>840.2</ele>
        <time>2026-05-10T08:47:51Z</time>
      </trkpt>
      <trkpt lat="46.05787" lon="5.59333">
        <ele>839.6</ele>
        <time>2026-05-10T08:47:53Z</time>
      </trkpt>
      <trkpt lat="46.05791" lon="5.59342">
        <ele>839.2</ele>
        <time>2026-05-10T08:47:54Z</time>
      </trkpt>
      <trkpt lat="46.05797" lon="5.59351">
        <ele>839</ele>
        <time>2026-05-10T08:47:55Z</time>
      </trkpt>
      <trkpt lat="46.05802" lon="5.59359">
        <ele>838.8</ele>
        <time>2026-05-10T08:47:56Z</time>
      </trkpt>
      <trkpt lat="46.05806" lon="5.59369">
        <ele>838.6</ele>
        <time>2026-05-10T08:47:57Z</time>
      </trkpt>
      <trkpt lat="46.05812" lon="5.59378">
        <ele>838.2</ele>
        <time>2026-05-10T08:47:58Z</time>
      </trkpt>
      <trkpt lat="46.05817" lon="5.59386">
        <ele>838</ele>
        <time>2026-05-10T08:47:59Z</time>
      </trkpt>
      <trkpt lat="46.05822" lon="5.59395">
        <ele>837.8</ele>
        <time>2026-05-10T08:48:00Z</time>
      </trkpt>
      <trkpt lat="46.05826" lon="5.59404">
        <ele>837.4</ele>
        <time>2026-05-10T08:48:01Z</time>
      </trkpt>
      <trkpt lat="46.05831" lon="5.59413">
        <ele>837</ele>
        <time>2026-05-10T08:48:02Z</time>
      </trkpt>
      <trkpt lat="46.05836" lon="5.59422">
        <ele>836.8</ele>
        <time>2026-05-10T08:48:03Z</time>
      </trkpt>
      <trkpt lat="46.0584" lon="5.59431">
        <ele>836.4</ele>
        <time>2026-05-10T08:48:04Z</time>
      </trkpt>
      <trkpt lat="46.05845" lon="5.5944">
        <ele>836.4</ele>
        <time>2026-05-10T08:48:05Z</time>
      </trkpt>
      <trkpt lat="46.05849" lon="5.59449">
        <ele>836</ele>
        <time>2026-05-10T08:48:06Z</time>
      </trkpt>
      <trkpt lat="46.05854" lon="5.59457">
        <ele>836</ele>
        <time>2026-05-10T08:48:07Z</time>
      </trkpt>
      <trkpt lat="46.05858" lon="5.59464">
        <ele>836</ele>
        <time>2026-05-10T08:48:08Z</time>
      </trkpt>
      <trkpt lat="46.05863" lon="5.59472">
        <ele>836</ele>
        <time>2026-05-10T08:48:09Z</time>
      </trkpt>
      <trkpt lat="46.05868" lon="5.59479">
        <ele>836</ele>
        <time>2026-05-10T08:48:10Z</time>
      </trkpt>
      <trkpt lat="46.05872" lon="5.59487">
        <ele>836</ele>
        <time>2026-05-10T08:48:11Z</time>
      </trkpt>
      <trkpt lat="46.05877" lon="5.59495">
        <ele>836</ele>
        <time>2026-05-10T08:48:12Z</time>
      </trkpt>
      <trkpt lat="46.05881" lon="5.59504">
        <ele>836</ele>
        <time>2026-05-10T08:48:13Z</time>
      </trkpt>
      <trkpt lat="46.05885" lon="5.59512">
        <ele>836</ele>
        <time>2026-05-10T08:48:14Z</time>
      </trkpt>
      <trkpt lat="46.05889" lon="5.5952">
        <ele>836</ele>
        <time>2026-05-10T08:48:15Z</time>
      </trkpt>
      <trkpt lat="46.05893" lon="5.59529">
        <ele>836</ele>
        <time>2026-05-10T08:48:16Z</time>
      </trkpt>
      <trkpt lat="46.05896" lon="5.59537">
        <ele>835.8</ele>
        <time>2026-05-10T08:48:17Z</time>
      </trkpt>
      <trkpt lat="46.059" lon="5.59545">
        <ele>835.8</ele>
        <time>2026-05-10T08:48:18Z</time>
      </trkpt>
      <trkpt lat="46.05902" lon="5.59553">
        <ele>836</ele>
        <time>2026-05-10T08:48:19Z</time>
      </trkpt>
      <trkpt lat="46.05905" lon="5.59562">
        <ele>836</ele>
        <time>2026-05-10T08:48:20Z</time>
      </trkpt>
      <trkpt lat="46.05908" lon="5.5957">
        <ele>836</ele>
        <time>2026-05-10T08:48:21Z</time>
      </trkpt>
      <trkpt lat="46.0591" lon="5.59578">
        <ele>836</ele>
        <time>2026-05-10T08:48:22Z</time>
      </trkpt>
      <trkpt lat="46.05912" lon="5.59585">
        <ele>836</ele>
        <time>2026-05-10T08:48:23Z</time>
      </trkpt>
      <trkpt lat="46.05914" lon="5.59593">
        <ele>836.2</ele>
        <time>2026-05-10T08:48:24Z</time>
      </trkpt>
      <trkpt lat="46.05918" lon="5.59606">
        <ele>836.2</ele>
        <time>2026-05-10T08:48:25Z</time>
      </trkpt>
      <trkpt lat="46.05919" lon="5.59613">
        <ele>836.6</ele>
        <time>2026-05-10T08:48:26Z</time>
      </trkpt>
      <trkpt lat="46.05921" lon="5.59619">
        <ele>836.6</ele>
        <time>2026-05-10T08:48:27Z</time>
      </trkpt>
      <trkpt lat="46.05924" lon="5.59625">
        <ele>836.6</ele>
        <time>2026-05-10T08:48:28Z</time>
      </trkpt>
      <trkpt lat="46.05925" lon="5.59631">
        <ele>836.6</ele>
        <time>2026-05-10T08:48:29Z</time>
      </trkpt>
      <trkpt lat="46.05927" lon="5.59637">
        <ele>836.6</ele>
        <time>2026-05-10T08:48:30Z</time>
      </trkpt>
      <trkpt lat="46.05929" lon="5.59642">
        <ele>836.8</ele>
        <time>2026-05-10T08:48:31Z</time>
      </trkpt>
      <trkpt lat="46.05931" lon="5.59649">
        <ele>836.8</ele>
        <time>2026-05-10T08:48:32Z</time>
      </trkpt>
      <trkpt lat="46.05931" lon="5.59649">
        <ele>836.8</ele>
        <time>2026-05-10T08:48:33Z</time>
      </trkpt>
      <trkpt lat="46.05931" lon="5.59649">
        <ele>836.8</ele>
        <time>2026-05-10T08:48:34Z</time>
      </trkpt>
      <trkpt lat="46.05933" lon="5.59659">
        <ele>836.8</ele>
        <time>2026-05-10T08:48:35Z</time>
      </trkpt>
      <trkpt lat="46.05933" lon="5.59665">
        <ele>837.2</ele>
        <time>2026-05-10T08:48:36Z</time>
      </trkpt>
      <trkpt lat="46.05935" lon="5.5967">
        <ele>837.2</ele>
        <time>2026-05-10T08:48:37Z</time>
      </trkpt>
      <trkpt lat="46.05936" lon="5.59675">
        <ele>837.4</ele>
        <time>2026-05-10T08:48:38Z</time>
      </trkpt>
      <trkpt lat="46.05936" lon="5.5968">
        <ele>837.4</ele>
        <time>2026-05-10T08:48:39Z</time>
      </trkpt>
      <trkpt lat="46.05937" lon="5.59686">
        <ele>837.8</ele>
        <time>2026-05-10T08:48:40Z</time>
      </trkpt>
      <trkpt lat="46.05937" lon="5.59692">
        <ele>837.8</ele>
        <time>2026-05-10T08:48:41Z</time>
      </trkpt>
      <trkpt lat="46.05938" lon="5.59698">
        <ele>837.6</ele>
        <time>2026-05-10T08:48:42Z</time>
      </trkpt>
      <trkpt lat="46.05938" lon="5.59704">
        <ele>837.8</ele>
        <time>2026-05-10T08:48:43Z</time>
      </trkpt>
      <trkpt lat="46.05939" lon="5.5971">
        <ele>837.4</ele>
        <time>2026-05-10T08:48:44Z</time>
      </trkpt>
      <trkpt lat="46.05939" lon="5.59716">
        <ele>837.4</ele>
        <time>2026-05-10T08:48:45Z</time>
      </trkpt>
      <trkpt lat="46.05939" lon="5.59722">
        <ele>837.4</ele>
        <time>2026-05-10T08:48:46Z</time>
      </trkpt>
      <trkpt lat="46.0594" lon="5.59728">
        <ele>837.4</ele>
        <time>2026-05-10T08:48:47Z</time>
      </trkpt>
      <trkpt lat="46.0594" lon="5.59734">
        <ele>837.4</ele>
        <time>2026-05-10T08:48:48Z</time>
      </trkpt>
      <trkpt lat="46.0594" lon="5.59739">
        <ele>837.4</ele>
        <time>2026-05-10T08:48:49Z</time>
      </trkpt>
      <trkpt lat="46.0594" lon="5.59744">
        <ele>837.8</ele>
        <time>2026-05-10T08:48:50Z</time>
      </trkpt>
      <trkpt lat="46.0594" lon="5.59749">
        <ele>837.6</ele>
        <time>2026-05-10T08:48:51Z</time>
      </trkpt>
      <trkpt lat="46.05939" lon="5.59754">
        <ele>837.6</ele>
        <time>2026-05-10T08:48:52Z</time>
      </trkpt>
      <trkpt lat="46.05939" lon="5.5976">
        <ele>837.6</ele>
        <time>2026-05-10T08:48:53Z</time>
      </trkpt>
      <trkpt lat="46.05939" lon="5.59765">
        <ele>837.6</ele>
        <time>2026-05-10T08:48:54Z</time>
      </trkpt>
      <trkpt lat="46.05939" lon="5.5977">
        <ele>838</ele>
        <time>2026-05-10T08:48:55Z</time>
      </trkpt>
      <trkpt lat="46.0594" lon="5.59775">
        <ele>837.8</ele>
        <time>2026-05-10T08:48:56Z</time>
      </trkpt>
      <trkpt lat="46.0594" lon="5.5978">
        <ele>837.8</ele>
        <time>2026-05-10T08:48:57Z</time>
      </trkpt>
      <trkpt lat="46.0594" lon="5.59785">
        <ele>837.8</ele>
        <time>2026-05-10T08:48:58Z</time>
      </trkpt>
      <trkpt lat="46.0594" lon="5.5979">
        <ele>837.8</ele>
        <time>2026-05-10T08:48:59Z</time>
      </trkpt>
      <trkpt lat="46.05939" lon="5.59795">
        <ele>837.8</ele>
        <time>2026-05-10T08:49:00Z</time>
      </trkpt>
      <trkpt lat="46.05939" lon="5.598">
        <ele>837.8</ele>
        <time>2026-05-10T08:49:01Z</time>
      </trkpt>
      <trkpt lat="46.05938" lon="5.59806">
        <ele>838</ele>
        <time>2026-05-10T08:49:02Z</time>
      </trkpt>
      <trkpt lat="46.05938" lon="5.59811">
        <ele>838</ele>
        <time>2026-05-10T08:49:03Z</time>
      </trkpt>
      <trkpt lat="46.05937" lon="5.59817">
        <ele>838</ele>
        <time>2026-05-10T08:49:04Z</time>
      </trkpt>
      <trkpt lat="46.05936" lon="5.59823">
        <ele>838</ele>
        <time>2026-05-10T08:49:05Z</time>
      </trkpt>
      <trkpt lat="46.05935" lon="5.59829">
        <ele>838</ele>
        <time>2026-05-10T08:49:06Z</time>
      </trkpt>
      <trkpt lat="46.05933" lon="5.59835">
        <ele>838</ele>
        <time>2026-05-10T08:49:07Z</time>
      </trkpt>
      <trkpt lat="46.05932" lon="5.5984">
        <ele>838</ele>
        <time>2026-05-10T08:49:08Z</time>
      </trkpt>
      <trkpt lat="46.05931" lon="5.59846">
        <ele>838</ele>
        <time>2026-05-10T08:49:09Z</time>
      </trkpt>
      <trkpt lat="46.05928" lon="5.59852">
        <ele>838</ele>
        <time>2026-05-10T08:49:10Z</time>
      </trkpt>
      <trkpt lat="46.05927" lon="5.59857">
        <ele>838.4</ele>
        <time>2026-05-10T08:49:11Z</time>
      </trkpt>
      <trkpt lat="46.05925" lon="5.59863">
        <ele>838.4</ele>
        <time>2026-05-10T08:49:12Z</time>
      </trkpt>
      <trkpt lat="46.05923" lon="5.59867">
        <ele>838.6</ele>
        <time>2026-05-10T08:49:13Z</time>
      </trkpt>
      <trkpt lat="46.0592" lon="5.59872">
        <ele>838.6</ele>
        <time>2026-05-10T08:49:14Z</time>
      </trkpt>
      <trkpt lat="46.05918" lon="5.59878">
        <ele>838.6</ele>
        <time>2026-05-10T08:49:15Z</time>
      </trkpt>
      <trkpt lat="46.05916" lon="5.59882">
        <ele>838.6</ele>
        <time>2026-05-10T08:49:16Z</time>
      </trkpt>
      <trkpt lat="46.05914" lon="5.59887">
        <ele>838.6</ele>
        <time>2026-05-10T08:49:17Z</time>
      </trkpt>
      <trkpt lat="46.05912" lon="5.59891">
        <ele>838.8</ele>
        <time>2026-05-10T08:49:18Z</time>
      </trkpt>
      <trkpt lat="46.0591" lon="5.59896">
        <ele>838.8</ele>
        <time>2026-05-10T08:49:19Z</time>
      </trkpt>
      <trkpt lat="46.05908" lon="5.599">
        <ele>839</ele>
        <time>2026-05-10T08:49:20Z</time>
      </trkpt>
      <trkpt lat="46.05906" lon="5.59904">
        <ele>839</ele>
        <time>2026-05-10T08:49:21Z</time>
      </trkpt>
      <trkpt lat="46.05903" lon="5.59909">
        <ele>839</ele>
        <time>2026-05-10T08:49:22Z</time>
      </trkpt>
      <trkpt lat="46.05901" lon="5.59913">
        <ele>839.4</ele>
        <time>2026-05-10T08:49:23Z</time>
      </trkpt>
      <trkpt lat="46.05899" lon="5.59917">
        <ele>839.4</ele>
        <time>2026-05-10T08:49:24Z</time>
      </trkpt>
      <trkpt lat="46.05897" lon="5.59922">
        <ele>839.4</ele>
        <time>2026-05-10T08:49:25Z</time>
      </trkpt>
      <trkpt lat="46.05895" lon="5.59926">
        <ele>839.6</ele>
        <time>2026-05-10T08:49:26Z</time>
      </trkpt>
      <trkpt lat="46.05893" lon="5.59929">
        <ele>839.6</ele>
        <time>2026-05-10T08:49:27Z</time>
      </trkpt>
      <trkpt lat="46.05891" lon="5.59933">
        <ele>839.6</ele>
        <time>2026-05-10T08:49:28Z</time>
      </trkpt>
      <trkpt lat="46.05889" lon="5.59937">
        <ele>840</ele>
        <time>2026-05-10T08:49:29Z</time>
      </trkpt>
      <trkpt lat="46.05887" lon="5.59941">
        <ele>840</ele>
        <time>2026-05-10T08:49:30Z</time>
      </trkpt>
      <trkpt lat="46.05885" lon="5.59945">
        <ele>840</ele>
        <time>2026-05-10T08:49:31Z</time>
      </trkpt>
      <trkpt lat="46.05883" lon="5.59949">
        <ele>840</ele>
        <time>2026-05-10T08:49:32Z</time>
      </trkpt>
      <trkpt lat="46.05882" lon="5.59953">
        <ele>840.2</ele>
        <time>2026-05-10T08:49:33Z</time>
      </trkpt>
      <trkpt lat="46.0588" lon="5.59957">
        <ele>840.2</ele>
        <time>2026-05-10T08:49:34Z</time>
      </trkpt>
      <trkpt lat="46.05878" lon="5.59961">
        <ele>840.2</ele>
        <time>2026-05-10T08:49:35Z</time>
      </trkpt>
      <trkpt lat="46.05877" lon="5.59965">
        <ele>840.6</ele>
        <time>2026-05-10T08:49:36Z</time>
      </trkpt>
      <trkpt lat="46.05875" lon="5.59968">
        <ele>840.6</ele>
        <time>2026-05-10T08:49:37Z</time>
      </trkpt>
      <trkpt lat="46.05873" lon="5.59972">
        <ele>840.8</ele>
        <time>2026-05-10T08:49:38Z</time>
      </trkpt>
      <trkpt lat="46.05872" lon="5.59976">
        <ele>841.2</ele>
        <time>2026-05-10T08:49:39Z</time>
      </trkpt>
      <trkpt lat="46.0587" lon="5.5998">
        <ele>841.2</ele>
        <time>2026-05-10T08:49:40Z</time>
      </trkpt>
      <trkpt lat="46.05868" lon="5.59984">
        <ele>841.4</ele>
        <time>2026-05-10T08:49:41Z</time>
      </trkpt>
      <trkpt lat="46.05866" lon="5.59988">
        <ele>841.4</ele>
        <time>2026-05-10T08:49:42Z</time>
      </trkpt>
      <trkpt lat="46.05864" lon="5.59991">
        <ele>841.4</ele>
        <time>2026-05-10T08:49:43Z</time>
      </trkpt>
      <trkpt lat="46.05862" lon="5.59995">
        <ele>841.4</ele>
        <time>2026-05-10T08:49:44Z</time>
      </trkpt>
      <trkpt lat="46.0586" lon="5.59998">
        <ele>841.4</ele>
        <time>2026-05-10T08:49:45Z</time>
      </trkpt>
      <trkpt lat="46.05858" lon="5.60002">
        <ele>841.4</ele>
        <time>2026-05-10T08:49:46Z</time>
      </trkpt>
      <trkpt lat="46.05856" lon="5.60006">
        <ele>841.4</ele>
        <time>2026-05-10T08:49:47Z</time>
      </trkpt>
      <trkpt lat="46.05854" lon="5.6001">
        <ele>841.8</ele>
        <time>2026-05-10T08:49:48Z</time>
      </trkpt>
      <trkpt lat="46.05851" lon="5.60013">
        <ele>841.8</ele>
        <time>2026-05-10T08:49:49Z</time>
      </trkpt>
      <trkpt lat="46.05849" lon="5.60017">
        <ele>841.8</ele>
        <time>2026-05-10T08:49:50Z</time>
      </trkpt>
      <trkpt lat="46.05847" lon="5.6002">
        <ele>842</ele>
        <time>2026-05-10T08:49:51Z</time>
      </trkpt>
      <trkpt lat="46.05844" lon="5.60024">
        <ele>842</ele>
        <time>2026-05-10T08:49:52Z</time>
      </trkpt>
      <trkpt lat="46.05842" lon="5.60027">
        <ele>842.2</ele>
        <time>2026-05-10T08:49:53Z</time>
      </trkpt>
      <trkpt lat="46.05839" lon="5.6003">
        <ele>842.4</ele>
        <time>2026-05-10T08:49:54Z</time>
      </trkpt>
      <trkpt lat="46.05837" lon="5.60033">
        <ele>842.4</ele>
        <time>2026-05-10T08:49:55Z</time>
      </trkpt>
      <trkpt lat="46.05834" lon="5.60036">
        <ele>842.4</ele>
        <time>2026-05-10T08:49:56Z</time>
      </trkpt>
      <trkpt lat="46.05829" lon="5.60042">
        <ele>842.4</ele>
        <time>2026-05-10T08:49:57Z</time>
      </trkpt>
      <trkpt lat="46.05826" lon="5.60046">
        <ele>842.4</ele>
        <time>2026-05-10T08:49:58Z</time>
      </trkpt>
      <trkpt lat="46.05824" lon="5.6005">
        <ele>842.4</ele>
        <time>2026-05-10T08:49:59Z</time>
      </trkpt>
      <trkpt lat="46.05822" lon="5.60053">
        <ele>842.6</ele>
        <time>2026-05-10T08:50:00Z</time>
      </trkpt>
      <trkpt lat="46.0582" lon="5.60057">
        <ele>842.6</ele>
        <time>2026-05-10T08:50:01Z</time>
      </trkpt>
      <trkpt lat="46.05817" lon="5.60061">
        <ele>842.6</ele>
        <time>2026-05-10T08:50:02Z</time>
      </trkpt>
      <trkpt lat="46.05815" lon="5.60065">
        <ele>842.6</ele>
        <time>2026-05-10T08:50:03Z</time>
      </trkpt>
      <trkpt lat="46.05813" lon="5.6007">
        <ele>842.6</ele>
        <time>2026-05-10T08:50:04Z</time>
      </trkpt>
      <trkpt lat="46.05811" lon="5.60074">
        <ele>842.6</ele>
        <time>2026-05-10T08:50:05Z</time>
      </trkpt>
      <trkpt lat="46.0581" lon="5.60079">
        <ele>843</ele>
        <time>2026-05-10T08:50:06Z</time>
      </trkpt>
      <trkpt lat="46.05808" lon="5.60084">
        <ele>843</ele>
        <time>2026-05-10T08:50:07Z</time>
      </trkpt>
      <trkpt lat="46.05807" lon="5.60089">
        <ele>843</ele>
        <time>2026-05-10T08:50:08Z</time>
      </trkpt>
      <trkpt lat="46.05805" lon="5.60094">
        <ele>842.6</ele>
        <time>2026-05-10T08:50:09Z</time>
      </trkpt>
      <trkpt lat="46.05804" lon="5.60099">
        <ele>842.6</ele>
        <time>2026-05-10T08:50:10Z</time>
      </trkpt>
      <trkpt lat="46.05802" lon="5.60104">
        <ele>842.6</ele>
        <time>2026-05-10T08:50:11Z</time>
      </trkpt>
      <trkpt lat="46.05801" lon="5.60109">
        <ele>843</ele>
        <time>2026-05-10T08:50:12Z</time>
      </trkpt>
      <trkpt lat="46.058" lon="5.60114">
        <ele>843</ele>
        <time>2026-05-10T08:50:13Z</time>
      </trkpt>
      <trkpt lat="46.05798" lon="5.60119">
        <ele>843</ele>
        <time>2026-05-10T08:50:14Z</time>
      </trkpt>
      <trkpt lat="46.05797" lon="5.60124">
        <ele>843</ele>
        <time>2026-05-10T08:50:15Z</time>
      </trkpt>
      <trkpt lat="46.05796" lon="5.6013">
        <ele>843</ele>
        <time>2026-05-10T08:50:16Z</time>
      </trkpt>
      <trkpt lat="46.05795" lon="5.60135">
        <ele>843</ele>
        <time>2026-05-10T08:50:17Z</time>
      </trkpt>
      <trkpt lat="46.05795" lon="5.6014">
        <ele>843.2</ele>
        <time>2026-05-10T08:50:18Z</time>
      </trkpt>
      <trkpt lat="46.05794" lon="5.60146">
        <ele>843.2</ele>
        <time>2026-05-10T08:50:19Z</time>
      </trkpt>
      <trkpt lat="46.05794" lon="5.60151">
        <ele>843.2</ele>
        <time>2026-05-10T08:50:20Z</time>
      </trkpt>
      <trkpt lat="46.05793" lon="5.60157">
        <ele>843.2</ele>
        <time>2026-05-10T08:50:21Z</time>
      </trkpt>
      <trkpt lat="46.05793" lon="5.60163">
        <ele>843.2</ele>
        <time>2026-05-10T08:50:22Z</time>
      </trkpt>
      <trkpt lat="46.05793" lon="5.60169">
        <ele>843.2</ele>
        <time>2026-05-10T08:50:23Z</time>
      </trkpt>
      <trkpt lat="46.05792" lon="5.60175">
        <ele>843.6</ele>
        <time>2026-05-10T08:50:24Z</time>
      </trkpt>
      <trkpt lat="46.05792" lon="5.60181">
        <ele>843.6</ele>
        <time>2026-05-10T08:50:25Z</time>
      </trkpt>
      <trkpt lat="46.05792" lon="5.60187">
        <ele>843.6</ele>
        <time>2026-05-10T08:50:26Z</time>
      </trkpt>
      <trkpt lat="46.05792" lon="5.60193">
        <ele>843.2</ele>
        <time>2026-05-10T08:50:27Z</time>
      </trkpt>
      <trkpt lat="46.05792" lon="5.60199">
        <ele>843.2</ele>
        <time>2026-05-10T08:50:28Z</time>
      </trkpt>
      <trkpt lat="46.05792" lon="5.60199">
        <ele>843.2</ele>
        <time>2026-05-10T08:50:29Z</time>
      </trkpt>
      <trkpt lat="46.05791" lon="5.60205">
        <ele>843.2</ele>
        <time>2026-05-10T08:50:30Z</time>
      </trkpt>
      <trkpt lat="46.05791" lon="5.60211">
        <ele>843.2</ele>
        <time>2026-05-10T08:50:31Z</time>
      </trkpt>
      <trkpt lat="46.0579" lon="5.60216">
        <ele>843.2</ele>
        <time>2026-05-10T08:50:32Z</time>
      </trkpt>
      <trkpt lat="46.05788" lon="5.60222">
        <ele>843</ele>
        <time>2026-05-10T08:50:33Z</time>
      </trkpt>
      <trkpt lat="46.05786" lon="5.60228">
        <ele>843</ele>
        <time>2026-05-10T08:50:34Z</time>
      </trkpt>
      <trkpt lat="46.05783" lon="5.60233">
        <ele>842.6</ele>
        <time>2026-05-10T08:50:35Z</time>
      </trkpt>
      <trkpt lat="46.05781" lon="5.60239">
        <ele>842.6</ele>
        <time>2026-05-10T08:50:36Z</time>
      </trkpt>
      <trkpt lat="46.05778" lon="5.60245">
        <ele>842.6</ele>
        <time>2026-05-10T08:50:37Z</time>
      </trkpt>
      <trkpt lat="46.05775" lon="5.60251">
        <ele>842.6</ele>
        <time>2026-05-10T08:50:38Z</time>
      </trkpt>
      <trkpt lat="46.05771" lon="5.60256">
        <ele>842.6</ele>
        <time>2026-05-10T08:50:39Z</time>
      </trkpt>
      <trkpt lat="46.05768" lon="5.60262">
        <ele>842.2</ele>
        <time>2026-05-10T08:50:40Z</time>
      </trkpt>
      <trkpt lat="46.05764" lon="5.60267">
        <ele>842.2</ele>
        <time>2026-05-10T08:50:41Z</time>
      </trkpt>
      <trkpt lat="46.0576" lon="5.60272">
        <ele>842.2</ele>
        <time>2026-05-10T08:50:42Z</time>
      </trkpt>
      <trkpt lat="46.05756" lon="5.60276">
        <ele>842.2</ele>
        <time>2026-05-10T08:50:43Z</time>
      </trkpt>
      <trkpt lat="46.05752" lon="5.6028">
        <ele>842.2</ele>
        <time>2026-05-10T08:50:44Z</time>
      </trkpt>
      <trkpt lat="46.05748" lon="5.60284">
        <ele>842.6</ele>
        <time>2026-05-10T08:50:45Z</time>
      </trkpt>
      <trkpt lat="46.05744" lon="5.60287">
        <ele>842.6</ele>
        <time>2026-05-10T08:50:46Z</time>
      </trkpt>
      <trkpt lat="46.0574" lon="5.60291">
        <ele>842.6</ele>
        <time>2026-05-10T08:50:47Z</time>
      </trkpt>
      <trkpt lat="46.05736" lon="5.60294">
        <ele>842.6</ele>
        <time>2026-05-10T08:50:48Z</time>
      </trkpt>
      <trkpt lat="46.05731" lon="5.60298">
        <ele>842.6</ele>
        <time>2026-05-10T08:50:49Z</time>
      </trkpt>
      <trkpt lat="46.05727" lon="5.60302">
        <ele>842.6</ele>
        <time>2026-05-10T08:50:50Z</time>
      </trkpt>
      <trkpt lat="46.05723" lon="5.60305">
        <ele>842.2</ele>
        <time>2026-05-10T08:50:51Z</time>
      </trkpt>
      <trkpt lat="46.05719" lon="5.60308">
        <ele>842.2</ele>
        <time>2026-05-10T08:50:52Z</time>
      </trkpt>
      <trkpt lat="46.05714" lon="5.60311">
        <ele>842.2</ele>
        <time>2026-05-10T08:50:53Z</time>
      </trkpt>
      <trkpt lat="46.05711" lon="5.60314">
        <ele>842.4</ele>
        <time>2026-05-10T08:50:54Z</time>
      </trkpt>
      <trkpt lat="46.05706" lon="5.60317">
        <ele>842.4</ele>
        <time>2026-05-10T08:50:55Z</time>
      </trkpt>
      <trkpt lat="46.05703" lon="5.6032">
        <ele>842.4</ele>
        <time>2026-05-10T08:50:56Z</time>
      </trkpt>
      <trkpt lat="46.05699" lon="5.60323">
        <ele>842.4</ele>
        <time>2026-05-10T08:50:57Z</time>
      </trkpt>
      <trkpt lat="46.05695" lon="5.60327">
        <ele>842.4</ele>
        <time>2026-05-10T08:50:58Z</time>
      </trkpt>
      <trkpt lat="46.05693" lon="5.60331">
        <ele>842.4</ele>
        <time>2026-05-10T08:50:59Z</time>
      </trkpt>
      <trkpt lat="46.05691" lon="5.60336">
        <ele>842.4</ele>
        <time>2026-05-10T08:51:00Z</time>
      </trkpt>
      <trkpt lat="46.05689" lon="5.60341">
        <ele>842.6</ele>
        <time>2026-05-10T08:51:01Z</time>
      </trkpt>
      <trkpt lat="46.05688" lon="5.60347">
        <ele>842.6</ele>
        <time>2026-05-10T08:51:02Z</time>
      </trkpt>
      <trkpt lat="46.05686" lon="5.60352">
        <ele>842.6</ele>
        <time>2026-05-10T08:51:03Z</time>
      </trkpt>
      <trkpt lat="46.05684" lon="5.60357">
        <ele>842.6</ele>
        <time>2026-05-10T08:51:04Z</time>
      </trkpt>
      <trkpt lat="46.05682" lon="5.60362">
        <ele>842.6</ele>
        <time>2026-05-10T08:51:05Z</time>
      </trkpt>
      <trkpt lat="46.0568" lon="5.60367">
        <ele>842.6</ele>
        <time>2026-05-10T08:51:06Z</time>
      </trkpt>
      <trkpt lat="46.05679" lon="5.60372">
        <ele>842.6</ele>
        <time>2026-05-10T08:51:07Z</time>
      </trkpt>
      <trkpt lat="46.05677" lon="5.60377">
        <ele>842.6</ele>
        <time>2026-05-10T08:51:08Z</time>
      </trkpt>
      <trkpt lat="46.05676" lon="5.60381">
        <ele>842.4</ele>
        <time>2026-05-10T08:51:09Z</time>
      </trkpt>
      <trkpt lat="46.05674" lon="5.60384">
        <ele>842.4</ele>
        <time>2026-05-10T08:51:10Z</time>
      </trkpt>
      <trkpt lat="46.0567" lon="5.60386">
        <ele>842.4</ele>
        <time>2026-05-10T08:51:11Z</time>
      </trkpt>
      <trkpt lat="46.05667" lon="5.60385">
        <ele>842.6</ele>
        <time>2026-05-10T08:51:12Z</time>
      </trkpt>
      <trkpt lat="46.05664" lon="5.60383">
        <ele>842.6</ele>
        <time>2026-05-10T08:51:13Z</time>
      </trkpt>
      <trkpt lat="46.05661" lon="5.60381">
        <ele>842.6</ele>
        <time>2026-05-10T08:51:14Z</time>
      </trkpt>
      <trkpt lat="46.05658" lon="5.60379">
        <ele>842.6</ele>
        <time>2026-05-10T08:51:15Z</time>
      </trkpt>
      <trkpt lat="46.05655" lon="5.60377">
        <ele>842.6</ele>
        <time>2026-05-10T08:51:16Z</time>
      </trkpt>
      <trkpt lat="46.05651" lon="5.60376">
        <ele>842.6</ele>
        <time>2026-05-10T08:51:17Z</time>
      </trkpt>
      <trkpt lat="46.05648" lon="5.60376">
        <ele>842.6</ele>
        <time>2026-05-10T08:51:18Z</time>
      </trkpt>
      <trkpt lat="46.05644" lon="5.60382">
        <ele>842.6</ele>
        <time>2026-05-10T08:51:19Z</time>
      </trkpt>
      <trkpt lat="46.05642" lon="5.60386">
        <ele>842.6</ele>
        <time>2026-05-10T08:51:20Z</time>
      </trkpt>
      <trkpt lat="46.05642" lon="5.6039">
        <ele>842.4</ele>
        <time>2026-05-10T08:51:21Z</time>
      </trkpt>
      <trkpt lat="46.05641" lon="5.60396">
        <ele>842.4</ele>
        <time>2026-05-10T08:51:22Z</time>
      </trkpt>
      <trkpt lat="46.0564" lon="5.60401">
        <ele>842.4</ele>
        <time>2026-05-10T08:51:23Z</time>
      </trkpt>
      <trkpt lat="46.0564" lon="5.60406">
        <ele>842.4</ele>
        <time>2026-05-10T08:51:24Z</time>
      </trkpt>
      <trkpt lat="46.05639" lon="5.60411">
        <ele>842.4</ele>
        <time>2026-05-10T08:51:25Z</time>
      </trkpt>
      <trkpt lat="46.05638" lon="5.60416">
        <ele>842.4</ele>
        <time>2026-05-10T08:51:26Z</time>
      </trkpt>
      <trkpt lat="46.05638" lon="5.60421">
        <ele>842.4</ele>
        <time>2026-05-10T08:51:27Z</time>
      </trkpt>
      <trkpt lat="46.05637" lon="5.60426">
        <ele>842.4</ele>
        <time>2026-05-10T08:51:28Z</time>
      </trkpt>
      <trkpt lat="46.05637" lon="5.60432">
        <ele>842.4</ele>
        <time>2026-05-10T08:51:29Z</time>
      </trkpt>
      <trkpt lat="46.05636" lon="5.60437">
        <ele>842.4</ele>
        <time>2026-05-10T08:51:30Z</time>
      </trkpt>
      <trkpt lat="46.05636" lon="5.60442">
        <ele>842.4</ele>
        <time>2026-05-10T08:51:31Z</time>
      </trkpt>
      <trkpt lat="46.05636" lon="5.60447">
        <ele>842.4</ele>
        <time>2026-05-10T08:51:32Z</time>
      </trkpt>
      <trkpt lat="46.05636" lon="5.60452">
        <ele>842.4</ele>
        <time>2026-05-10T08:51:33Z</time>
      </trkpt>
      <trkpt lat="46.05636" lon="5.60458">
        <ele>842.6</ele>
        <time>2026-05-10T08:51:34Z</time>
      </trkpt>
      <trkpt lat="46.05636" lon="5.60463">
        <ele>842.6</ele>
        <time>2026-05-10T08:51:35Z</time>
      </trkpt>
      <trkpt lat="46.05636" lon="5.60468">
        <ele>843</ele>
        <time>2026-05-10T08:51:36Z</time>
      </trkpt>
      <trkpt lat="46.05637" lon="5.60473">
        <ele>843</ele>
        <time>2026-05-10T08:51:37Z</time>
      </trkpt>
      <trkpt lat="46.05637" lon="5.60479">
        <ele>843</ele>
        <time>2026-05-10T08:51:38Z</time>
      </trkpt>
      <trkpt lat="46.05638" lon="5.60485">
        <ele>843</ele>
        <time>2026-05-10T08:51:39Z</time>
      </trkpt>
      <trkpt lat="46.05639" lon="5.6049">
        <ele>843</ele>
        <time>2026-05-10T08:51:40Z</time>
      </trkpt>
      <trkpt lat="46.0564" lon="5.60496">
        <ele>843</ele>
        <time>2026-05-10T08:51:41Z</time>
      </trkpt>
      <trkpt lat="46.05641" lon="5.60501">
        <ele>843</ele>
        <time>2026-05-10T08:51:42Z</time>
      </trkpt>
      <trkpt lat="46.05643" lon="5.60506">
        <ele>843</ele>
        <time>2026-05-10T08:51:43Z</time>
      </trkpt>
      <trkpt lat="46.05644" lon="5.60511">
        <ele>843</ele>
        <time>2026-05-10T08:51:44Z</time>
      </trkpt>
      <trkpt lat="46.05646" lon="5.60516">
        <ele>843</ele>
        <time>2026-05-10T08:51:45Z</time>
      </trkpt>
      <trkpt lat="46.05647" lon="5.60521">
        <ele>843.2</ele>
        <time>2026-05-10T08:51:46Z</time>
      </trkpt>
      <trkpt lat="46.05647" lon="5.60526">
        <ele>843.2</ele>
        <time>2026-05-10T08:51:47Z</time>
      </trkpt>
      <trkpt lat="46.05648" lon="5.60532">
        <ele>843.2</ele>
        <time>2026-05-10T08:51:48Z</time>
      </trkpt>
      <trkpt lat="46.05648" lon="5.60537">
        <ele>843.2</ele>
        <time>2026-05-10T08:51:49Z</time>
      </trkpt>
      <trkpt lat="46.05648" lon="5.60542">
        <ele>843.2</ele>
        <time>2026-05-10T08:51:50Z</time>
      </trkpt>
      <trkpt lat="46.05648" lon="5.60547">
        <ele>843.2</ele>
        <time>2026-05-10T08:51:51Z</time>
      </trkpt>
      <trkpt lat="46.05648" lon="5.60552">
        <ele>843.6</ele>
        <time>2026-05-10T08:51:52Z</time>
      </trkpt>
      <trkpt lat="46.05647" lon="5.60557">
        <ele>844.2</ele>
        <time>2026-05-10T08:51:53Z</time>
      </trkpt>
      <trkpt lat="46.05646" lon="5.60562">
        <ele>844.4</ele>
        <time>2026-05-10T08:51:54Z</time>
      </trkpt>
      <trkpt lat="46.05645" lon="5.60566">
        <ele>844.4</ele>
        <time>2026-05-10T08:51:55Z</time>
      </trkpt>
      <trkpt lat="46.05644" lon="5.60571">
        <ele>844.6</ele>
        <time>2026-05-10T08:51:56Z</time>
      </trkpt>
      <trkpt lat="46.05643" lon="5.60575">
        <ele>844.6</ele>
        <time>2026-05-10T08:51:57Z</time>
      </trkpt>
      <trkpt lat="46.05642" lon="5.60579">
        <ele>844.8</ele>
        <time>2026-05-10T08:51:58Z</time>
      </trkpt>
      <trkpt lat="46.05642" lon="5.60583">
        <ele>844.8</ele>
        <time>2026-05-10T08:51:59Z</time>
      </trkpt>
      <trkpt lat="46.05644" lon="5.60587">
        <ele>844.8</ele>
        <time>2026-05-10T08:52:00Z</time>
      </trkpt>
      <trkpt lat="46.05646" lon="5.6059">
        <ele>844.8</ele>
        <time>2026-05-10T08:52:01Z</time>
      </trkpt>
      <trkpt lat="46.05649" lon="5.60592">
        <ele>844.8</ele>
        <time>2026-05-10T08:52:02Z</time>
      </trkpt>
      <trkpt lat="46.05651" lon="5.60594">
        <ele>844.8</ele>
        <time>2026-05-10T08:52:03Z</time>
      </trkpt>
      <trkpt lat="46.05655" lon="5.60596">
        <ele>844.6</ele>
        <time>2026-05-10T08:52:04Z</time>
      </trkpt>
      <trkpt lat="46.05659" lon="5.60598">
        <ele>844.2</ele>
        <time>2026-05-10T08:52:05Z</time>
      </trkpt>
      <trkpt lat="46.05663" lon="5.606">
        <ele>844</ele>
        <time>2026-05-10T08:52:06Z</time>
      </trkpt>
      <trkpt lat="46.05667" lon="5.60602">
        <ele>844</ele>
        <time>2026-05-10T08:52:07Z</time>
      </trkpt>
      <trkpt lat="46.05672" lon="5.60603">
        <ele>843.6</ele>
        <time>2026-05-10T08:52:08Z</time>
      </trkpt>
      <trkpt lat="46.05676" lon="5.60606">
        <ele>843.6</ele>
        <time>2026-05-10T08:52:09Z</time>
      </trkpt>
      <trkpt lat="46.05681" lon="5.60609">
        <ele>843.4</ele>
        <time>2026-05-10T08:52:10Z</time>
      </trkpt>
      <trkpt lat="46.05686" lon="5.60612">
        <ele>843</ele>
        <time>2026-05-10T08:52:11Z</time>
      </trkpt>
      <trkpt lat="46.05689" lon="5.60616">
        <ele>842.8</ele>
        <time>2026-05-10T08:52:12Z</time>
      </trkpt>
      <trkpt lat="46.05694" lon="5.60619">
        <ele>842.4</ele>
        <time>2026-05-10T08:52:13Z</time>
      </trkpt>
      <trkpt lat="46.05699" lon="5.60623">
        <ele>842.4</ele>
        <time>2026-05-10T08:52:14Z</time>
      </trkpt>
      <trkpt lat="46.05703" lon="5.60629">
        <ele>842.2</ele>
        <time>2026-05-10T08:52:15Z</time>
      </trkpt>
      <trkpt lat="46.05707" lon="5.60634">
        <ele>842.2</ele>
        <time>2026-05-10T08:52:16Z</time>
      </trkpt>
      <trkpt lat="46.0571" lon="5.60639">
        <ele>842.2</ele>
        <time>2026-05-10T08:52:17Z</time>
      </trkpt>
      <trkpt lat="46.05714" lon="5.60644">
        <ele>842.2</ele>
        <time>2026-05-10T08:52:18Z</time>
      </trkpt>
      <trkpt lat="46.05718" lon="5.60649">
        <ele>842.2</ele>
        <time>2026-05-10T08:52:19Z</time>
      </trkpt>
      <trkpt lat="46.05719" lon="5.60656">
        <ele>842.2</ele>
        <time>2026-05-10T08:52:20Z</time>
      </trkpt>
      <trkpt lat="46.05722" lon="5.60661">
        <ele>842.2</ele>
        <time>2026-05-10T08:52:21Z</time>
      </trkpt>
      <trkpt lat="46.05725" lon="5.60666">
        <ele>842.2</ele>
        <time>2026-05-10T08:52:22Z</time>
      </trkpt>
      <trkpt lat="46.05728" lon="5.6067">
        <ele>842.2</ele>
        <time>2026-05-10T08:52:23Z</time>
      </trkpt>
      <trkpt lat="46.05731" lon="5.60675">
        <ele>842.2</ele>
        <time>2026-05-10T08:52:24Z</time>
      </trkpt>
      <trkpt lat="46.05732" lon="5.60681">
        <ele>842.2</ele>
        <time>2026-05-10T08:52:25Z</time>
      </trkpt>
      <trkpt lat="46.05735" lon="5.60684">
        <ele>842.4</ele>
        <time>2026-05-10T08:52:26Z</time>
      </trkpt>
      <trkpt lat="46.05737" lon="5.60689">
        <ele>842.6</ele>
        <time>2026-05-10T08:52:27Z</time>
      </trkpt>
      <trkpt lat="46.05739" lon="5.60693">
        <ele>842.6</ele>
        <time>2026-05-10T08:52:28Z</time>
      </trkpt>
      <trkpt lat="46.05741" lon="5.60698">
        <ele>842.8</ele>
        <time>2026-05-10T08:52:29Z</time>
      </trkpt>
      <trkpt lat="46.05744" lon="5.60702">
        <ele>843.2</ele>
        <time>2026-05-10T08:52:30Z</time>
      </trkpt>
      <trkpt lat="46.05746" lon="5.60706">
        <ele>843.2</ele>
        <time>2026-05-10T08:52:31Z</time>
      </trkpt>
      <trkpt lat="46.05748" lon="5.6071">
        <ele>843.4</ele>
        <time>2026-05-10T08:52:32Z</time>
      </trkpt>
      <trkpt lat="46.05751" lon="5.60714">
        <ele>843.8</ele>
        <time>2026-05-10T08:52:33Z</time>
      </trkpt>
      <trkpt lat="46.05753" lon="5.60718">
        <ele>844</ele>
        <time>2026-05-10T08:52:34Z</time>
      </trkpt>
      <trkpt lat="46.05755" lon="5.60722">
        <ele>844</ele>
        <time>2026-05-10T08:52:35Z</time>
      </trkpt>
      <trkpt lat="46.05757" lon="5.60727">
        <ele>844</ele>
        <time>2026-05-10T08:52:36Z</time>
      </trkpt>
      <trkpt lat="46.05759" lon="5.60731">
        <ele>844</ele>
        <time>2026-05-10T08:52:37Z</time>
      </trkpt>
      <trkpt lat="46.05761" lon="5.60734">
        <ele>844.2</ele>
        <time>2026-05-10T08:52:38Z</time>
      </trkpt>
      <trkpt lat="46.05763" lon="5.60738">
        <ele>844.2</ele>
        <time>2026-05-10T08:52:39Z</time>
      </trkpt>
      <trkpt lat="46.05766" lon="5.60742">
        <ele>844.2</ele>
        <time>2026-05-10T08:52:40Z</time>
      </trkpt>
      <trkpt lat="46.05768" lon="5.60746">
        <ele>844.6</ele>
        <time>2026-05-10T08:52:41Z</time>
      </trkpt>
      <trkpt lat="46.05769" lon="5.60749">
        <ele>844.6</ele>
        <time>2026-05-10T08:52:42Z</time>
      </trkpt>
      <trkpt lat="46.05771" lon="5.60753">
        <ele>845</ele>
        <time>2026-05-10T08:52:43Z</time>
      </trkpt>
      <trkpt lat="46.05774" lon="5.60757">
        <ele>845</ele>
        <time>2026-05-10T08:52:44Z</time>
      </trkpt>
      <trkpt lat="46.05776" lon="5.6076">
        <ele>845</ele>
        <time>2026-05-10T08:52:45Z</time>
      </trkpt>
      <trkpt lat="46.05779" lon="5.60763">
        <ele>845</ele>
        <time>2026-05-10T08:52:46Z</time>
      </trkpt>
      <trkpt lat="46.05782" lon="5.60766">
        <ele>845</ele>
        <time>2026-05-10T08:52:47Z</time>
      </trkpt>
      <trkpt lat="46.05785" lon="5.60768">
        <ele>845</ele>
        <time>2026-05-10T08:52:48Z</time>
      </trkpt>
      <trkpt lat="46.05788" lon="5.6077">
        <ele>845</ele>
        <time>2026-05-10T08:52:49Z</time>
      </trkpt>
      <trkpt lat="46.05791" lon="5.60771">
        <ele>845.4</ele>
        <time>2026-05-10T08:52:50Z</time>
      </trkpt>
      <trkpt lat="46.05794" lon="5.60772">
        <ele>845.6</ele>
        <time>2026-05-10T08:52:51Z</time>
      </trkpt>
      <trkpt lat="46.05797" lon="5.60773">
        <ele>845.6</ele>
        <time>2026-05-10T08:52:52Z</time>
      </trkpt>
      <trkpt lat="46.058" lon="5.60773">
        <ele>845.6</ele>
        <time>2026-05-10T08:52:53Z</time>
      </trkpt>
      <trkpt lat="46.05803" lon="5.60774">
        <ele>845.8</ele>
        <time>2026-05-10T08:52:54Z</time>
      </trkpt>
      <trkpt lat="46.05806" lon="5.60774">
        <ele>845.8</ele>
        <time>2026-05-10T08:52:55Z</time>
      </trkpt>
      <trkpt lat="46.05808" lon="5.60773">
        <ele>845.8</ele>
        <time>2026-05-10T08:52:56Z</time>
      </trkpt>
      <trkpt lat="46.05811" lon="5.60772">
        <ele>846.2</ele>
        <time>2026-05-10T08:52:57Z</time>
      </trkpt>
      <trkpt lat="46.05814" lon="5.60772">
        <ele>846.2</ele>
        <time>2026-05-10T08:52:58Z</time>
      </trkpt>
      <trkpt lat="46.05818" lon="5.60773">
        <ele>846.4</ele>
        <time>2026-05-10T08:52:59Z</time>
      </trkpt>
      <trkpt lat="46.0582" lon="5.60775">
        <ele>846.4</ele>
        <time>2026-05-10T08:53:00Z</time>
      </trkpt>
      <trkpt lat="46.05822" lon="5.60778">
        <ele>846.8</ele>
        <time>2026-05-10T08:53:01Z</time>
      </trkpt>
      <trkpt lat="46.05822" lon="5.6078">
        <ele>847</ele>
        <time>2026-05-10T08:53:02Z</time>
      </trkpt>
      <trkpt lat="46.05823" lon="5.60783">
        <ele>847.4</ele>
        <time>2026-05-10T08:53:03Z</time>
      </trkpt>
      <trkpt lat="46.05822" lon="5.60785">
        <ele>847.6</ele>
        <time>2026-05-10T08:53:04Z</time>
      </trkpt>
      <trkpt lat="46.05822" lon="5.60787">
        <ele>848</ele>
        <time>2026-05-10T08:53:05Z</time>
      </trkpt>
      <trkpt lat="46.05821" lon="5.60789">
        <ele>848</ele>
        <time>2026-05-10T08:53:06Z</time>
      </trkpt>
      <trkpt lat="46.0582" lon="5.60791">
        <ele>848.4</ele>
        <time>2026-05-10T08:53:07Z</time>
      </trkpt>
      <trkpt lat="46.05818" lon="5.60794">
        <ele>848.8</ele>
        <time>2026-05-10T08:53:08Z</time>
      </trkpt>
      <trkpt lat="46.05816" lon="5.60795">
        <ele>849.2</ele>
        <time>2026-05-10T08:53:09Z</time>
      </trkpt>
      <trkpt lat="46.05814" lon="5.60795">
        <ele>849.4</ele>
        <time>2026-05-10T08:53:10Z</time>
      </trkpt>
      <trkpt lat="46.05812" lon="5.60795">
        <ele>849.4</ele>
        <time>2026-05-10T08:53:11Z</time>
      </trkpt>
      <trkpt lat="46.05809" lon="5.60794">
        <ele>849.8</ele>
        <time>2026-05-10T08:53:12Z</time>
      </trkpt>
      <trkpt lat="46.05807" lon="5.60794">
        <ele>850</ele>
        <time>2026-05-10T08:53:13Z</time>
      </trkpt>
      <trkpt lat="46.05805" lon="5.60793">
        <ele>850</ele>
        <time>2026-05-10T08:53:14Z</time>
      </trkpt>
      <trkpt lat="46.05802" lon="5.60793">
        <ele>850</ele>
        <time>2026-05-10T08:53:15Z</time>
      </trkpt>
      <trkpt lat="46.058" lon="5.60792">
        <ele>850.2</ele>
        <time>2026-05-10T08:53:16Z</time>
      </trkpt>
      <trkpt lat="46.05798" lon="5.60792">
        <ele>850.2</ele>
        <time>2026-05-10T08:53:17Z</time>
      </trkpt>
      <trkpt lat="46.05796" lon="5.60791">
        <ele>850.2</ele>
        <time>2026-05-10T08:53:18Z</time>
      </trkpt>
      <trkpt lat="46.05794" lon="5.60791">
        <ele>850.6</ele>
        <time>2026-05-10T08:53:19Z</time>
      </trkpt>
      <trkpt lat="46.05792" lon="5.60792">
        <ele>850.6</ele>
        <time>2026-05-10T08:53:20Z</time>
      </trkpt>
      <trkpt lat="46.0579" lon="5.60792">
        <ele>851</ele>
        <time>2026-05-10T08:53:21Z</time>
      </trkpt>
      <trkpt lat="46.05789" lon="5.60794">
        <ele>851</ele>
        <time>2026-05-10T08:53:22Z</time>
      </trkpt>
      <trkpt lat="46.05787" lon="5.60796">
        <ele>851.2</ele>
        <time>2026-05-10T08:53:23Z</time>
      </trkpt>
      <trkpt lat="46.05787" lon="5.60798">
        <ele>851.2</ele>
        <time>2026-05-10T08:53:24Z</time>
      </trkpt>
      <trkpt lat="46.05786" lon="5.608">
        <ele>851.6</ele>
        <time>2026-05-10T08:53:25Z</time>
      </trkpt>
      <trkpt lat="46.05786" lon="5.60803">
        <ele>851.8</ele>
        <time>2026-05-10T08:53:26Z</time>
      </trkpt>
      <trkpt lat="46.05786" lon="5.60805">
        <ele>851.8</ele>
        <time>2026-05-10T08:53:27Z</time>
      </trkpt>
      <trkpt lat="46.05786" lon="5.60808">
        <ele>852</ele>
        <time>2026-05-10T08:53:28Z</time>
      </trkpt>
      <trkpt lat="46.05786" lon="5.6081">
        <ele>852</ele>
        <time>2026-05-10T08:53:29Z</time>
      </trkpt>
      <trkpt lat="46.05786" lon="5.60812">
        <ele>852.4</ele>
        <time>2026-05-10T08:53:30Z</time>
      </trkpt>
      <trkpt lat="46.05786" lon="5.60814">
        <ele>852.4</ele>
        <time>2026-05-10T08:53:31Z</time>
      </trkpt>
      <trkpt lat="46.05786" lon="5.60817">
        <ele>852.8</ele>
        <time>2026-05-10T08:53:32Z</time>
      </trkpt>
      <trkpt lat="46.05786" lon="5.60819">
        <ele>853.2</ele>
        <time>2026-05-10T08:53:33Z</time>
      </trkpt>
      <trkpt lat="46.05786" lon="5.60821">
        <ele>853.4</ele>
        <time>2026-05-10T08:53:34Z</time>
      </trkpt>
      <trkpt lat="46.05786" lon="5.60824">
        <ele>853.4</ele>
        <time>2026-05-10T08:53:35Z</time>
      </trkpt>
      <trkpt lat="46.05787" lon="5.60827">
        <ele>853.4</ele>
        <time>2026-05-10T08:53:36Z</time>
      </trkpt>
      <trkpt lat="46.05788" lon="5.60829">
        <ele>853.6</ele>
        <time>2026-05-10T08:53:37Z</time>
      </trkpt>
      <trkpt lat="46.0579" lon="5.60832">
        <ele>853.6</ele>
        <time>2026-05-10T08:53:38Z</time>
      </trkpt>
      <trkpt lat="46.05793" lon="5.60835">
        <ele>853.8</ele>
        <time>2026-05-10T08:53:39Z</time>
      </trkpt>
      <trkpt lat="46.05796" lon="5.60837">
        <ele>853.8</ele>
        <time>2026-05-10T08:53:40Z</time>
      </trkpt>
      <trkpt lat="46.05798" lon="5.60838">
        <ele>853.8</ele>
        <time>2026-05-10T08:53:41Z</time>
      </trkpt>
      <trkpt lat="46.058" lon="5.60838">
        <ele>853.8</ele>
        <time>2026-05-10T08:53:42Z</time>
      </trkpt>
      <trkpt lat="46.05802" lon="5.60839">
        <ele>853.8</ele>
        <time>2026-05-10T08:53:43Z</time>
      </trkpt>
      <trkpt lat="46.05804" lon="5.60839">
        <ele>853.8</ele>
        <time>2026-05-10T08:53:44Z</time>
      </trkpt>
      <trkpt lat="46.05807" lon="5.60839">
        <ele>853.8</ele>
        <time>2026-05-10T08:53:45Z</time>
      </trkpt>
      <trkpt lat="46.0581" lon="5.60839">
        <ele>853.8</ele>
        <time>2026-05-10T08:53:46Z</time>
      </trkpt>
      <trkpt lat="46.0581" lon="5.60839">
        <ele>853.8</ele>
        <time>2026-05-10T08:53:47Z</time>
      </trkpt>
      <trkpt lat="46.05813" lon="5.60839">
        <ele>853.8</ele>
        <time>2026-05-10T08:53:48Z</time>
      </trkpt>
      <trkpt lat="46.05816" lon="5.60839">
        <ele>853.8</ele>
        <time>2026-05-10T08:53:49Z</time>
      </trkpt>
      <trkpt lat="46.05819" lon="5.60838">
        <ele>853.6</ele>
        <time>2026-05-10T08:53:50Z</time>
      </trkpt>
      <trkpt lat="46.05822" lon="5.60838">
        <ele>853.6</ele>
        <time>2026-05-10T08:53:51Z</time>
      </trkpt>
      <trkpt lat="46.05824" lon="5.60837">
        <ele>853.6</ele>
        <time>2026-05-10T08:53:52Z</time>
      </trkpt>
      <trkpt lat="46.05827" lon="5.60836">
        <ele>853.6</ele>
        <time>2026-05-10T08:53:53Z</time>
      </trkpt>
      <trkpt lat="46.05831" lon="5.60835">
        <ele>853.6</ele>
        <time>2026-05-10T08:53:54Z</time>
      </trkpt>
      <trkpt lat="46.05834" lon="5.60834">
        <ele>853.6</ele>
        <time>2026-05-10T08:53:55Z</time>
      </trkpt>
      <trkpt lat="46.05837" lon="5.60834">
        <ele>853.6</ele>
        <time>2026-05-10T08:53:56Z</time>
      </trkpt>
      <trkpt lat="46.05841" lon="5.60833">
        <ele>853.6</ele>
        <time>2026-05-10T08:53:57Z</time>
      </trkpt>
      <trkpt lat="46.05844" lon="5.60832">
        <ele>853.6</ele>
        <time>2026-05-10T08:53:58Z</time>
      </trkpt>
      <trkpt lat="46.05847" lon="5.60832">
        <ele>853.6</ele>
        <time>2026-05-10T08:53:59Z</time>
      </trkpt>
      <trkpt lat="46.0585" lon="5.60831">
        <ele>854</ele>
        <time>2026-05-10T08:54:00Z</time>
      </trkpt>
      <trkpt lat="46.05853" lon="5.60831">
        <ele>854</ele>
        <time>2026-05-10T08:54:01Z</time>
      </trkpt>
      <trkpt lat="46.05856" lon="5.6083">
        <ele>854</ele>
        <time>2026-05-10T08:54:02Z</time>
      </trkpt>
      <trkpt lat="46.05859" lon="5.6083">
        <ele>854.2</ele>
        <time>2026-05-10T08:54:03Z</time>
      </trkpt>
      <trkpt lat="46.05862" lon="5.6083">
        <ele>854.2</ele>
        <time>2026-05-10T08:54:04Z</time>
      </trkpt>
      <trkpt lat="46.05864" lon="5.60831">
        <ele>854.6</ele>
        <time>2026-05-10T08:54:05Z</time>
      </trkpt>
      <trkpt lat="46.05866" lon="5.60831">
        <ele>854.6</ele>
        <time>2026-05-10T08:54:06Z</time>
      </trkpt>
      <trkpt lat="46.05868" lon="5.60831">
        <ele>854.6</ele>
        <time>2026-05-10T08:54:07Z</time>
      </trkpt>
      <trkpt lat="46.0587" lon="5.60831">
        <ele>854.8</ele>
        <time>2026-05-10T08:54:08Z</time>
      </trkpt>
      <trkpt lat="46.05873" lon="5.60831">
        <ele>854.8</ele>
        <time>2026-05-10T08:54:09Z</time>
      </trkpt>
      <trkpt lat="46.05876" lon="5.6083">
        <ele>854.8</ele>
        <time>2026-05-10T08:54:10Z</time>
      </trkpt>
      <trkpt lat="46.05879" lon="5.6083">
        <ele>854.8</ele>
        <time>2026-05-10T08:54:11Z</time>
      </trkpt>
      <trkpt lat="46.05882" lon="5.6083">
        <ele>854.8</ele>
        <time>2026-05-10T08:54:12Z</time>
      </trkpt>
      <trkpt lat="46.05886" lon="5.60831">
        <ele>854.8</ele>
        <time>2026-05-10T08:54:13Z</time>
      </trkpt>
      <trkpt lat="46.05889" lon="5.60831">
        <ele>855</ele>
        <time>2026-05-10T08:54:14Z</time>
      </trkpt>
      <trkpt lat="46.05892" lon="5.60831">
        <ele>855</ele>
        <time>2026-05-10T08:54:15Z</time>
      </trkpt>
      <trkpt lat="46.05896" lon="5.6083">
        <ele>855</ele>
        <time>2026-05-10T08:54:16Z</time>
      </trkpt>
      <trkpt lat="46.05899" lon="5.60829">
        <ele>855</ele>
        <time>2026-05-10T08:54:17Z</time>
      </trkpt>
      <trkpt lat="46.05902" lon="5.60828">
        <ele>855</ele>
        <time>2026-05-10T08:54:18Z</time>
      </trkpt>
      <trkpt lat="46.05906" lon="5.60826">
        <ele>854.8</ele>
        <time>2026-05-10T08:54:19Z</time>
      </trkpt>
      <trkpt lat="46.05909" lon="5.60824">
        <ele>854.8</ele>
        <time>2026-05-10T08:54:20Z</time>
      </trkpt>
      <trkpt lat="46.05913" lon="5.60822">
        <ele>854.8</ele>
        <time>2026-05-10T08:54:21Z</time>
      </trkpt>
      <trkpt lat="46.05917" lon="5.6082">
        <ele>854.8</ele>
        <time>2026-05-10T08:54:22Z</time>
      </trkpt>
      <trkpt lat="46.0592" lon="5.60817">
        <ele>854.4</ele>
        <time>2026-05-10T08:54:23Z</time>
      </trkpt>
      <trkpt lat="46.05926" lon="5.60816">
        <ele>854.2</ele>
        <time>2026-05-10T08:54:24Z</time>
      </trkpt>
      <trkpt lat="46.05929" lon="5.60815">
        <ele>854.2</ele>
        <time>2026-05-10T08:54:25Z</time>
      </trkpt>
      <trkpt lat="46.05932" lon="5.60816">
        <ele>853.8</ele>
        <time>2026-05-10T08:54:26Z</time>
      </trkpt>
      <trkpt lat="46.05935" lon="5.60816">
        <ele>853.4</ele>
        <time>2026-05-10T08:54:27Z</time>
      </trkpt>
      <trkpt lat="46.05937" lon="5.6082">
        <ele>853.2</ele>
        <time>2026-05-10T08:54:28Z</time>
      </trkpt>
      <trkpt lat="46.05937" lon="5.60826">
        <ele>852.8</ele>
        <time>2026-05-10T08:54:29Z</time>
      </trkpt>
      <trkpt lat="46.05936" lon="5.6083">
        <ele>852.6</ele>
        <time>2026-05-10T08:54:30Z</time>
      </trkpt>
      <trkpt lat="46.05934" lon="5.60835">
        <ele>852.6</ele>
        <time>2026-05-10T08:54:31Z</time>
      </trkpt>
      <trkpt lat="46.05932" lon="5.6084">
        <ele>852.4</ele>
        <time>2026-05-10T08:54:32Z</time>
      </trkpt>
      <trkpt lat="46.0593" lon="5.60845">
        <ele>852</ele>
        <time>2026-05-10T08:54:33Z</time>
      </trkpt>
      <trkpt lat="46.05927" lon="5.60851">
        <ele>851.8</ele>
        <time>2026-05-10T08:54:34Z</time>
      </trkpt>
      <trkpt lat="46.05923" lon="5.60856">
        <ele>851.4</ele>
        <time>2026-05-10T08:54:35Z</time>
      </trkpt>
      <trkpt lat="46.05919" lon="5.60862">
        <ele>851</ele>
        <time>2026-05-10T08:54:36Z</time>
      </trkpt>
      <trkpt lat="46.05915" lon="5.60867">
        <ele>850.8</ele>
        <time>2026-05-10T08:54:37Z</time>
      </trkpt>
      <trkpt lat="46.05912" lon="5.60872">
        <ele>850.8</ele>
        <time>2026-05-10T08:54:38Z</time>
      </trkpt>
      <trkpt lat="46.05908" lon="5.60876">
        <ele>850.8</ele>
        <time>2026-05-10T08:54:39Z</time>
      </trkpt>
      <trkpt lat="46.05906" lon="5.6088">
        <ele>850.4</ele>
        <time>2026-05-10T08:54:40Z</time>
      </trkpt>
      <trkpt lat="46.05905" lon="5.60887">
        <ele>850</ele>
        <time>2026-05-10T08:54:41Z</time>
      </trkpt>
      <trkpt lat="46.05907" lon="5.60891">
        <ele>850</ele>
        <time>2026-05-10T08:54:42Z</time>
      </trkpt>
      <trkpt lat="46.05908" lon="5.60894">
        <ele>850</ele>
        <time>2026-05-10T08:54:43Z</time>
      </trkpt>
      <trkpt lat="46.05909" lon="5.60896">
        <ele>850</ele>
        <time>2026-05-10T08:54:44Z</time>
      </trkpt>
      <trkpt lat="46.05911" lon="5.60897">
        <ele>850.2</ele>
        <time>2026-05-10T08:54:45Z</time>
      </trkpt>
      <trkpt lat="46.05912" lon="5.60898">
        <ele>850.2</ele>
        <time>2026-05-10T08:54:46Z</time>
      </trkpt>
      <trkpt lat="46.05915" lon="5.60899">
        <ele>850.2</ele>
        <time>2026-05-10T08:54:47Z</time>
      </trkpt>
      <trkpt lat="46.05917" lon="5.609">
        <ele>850.2</ele>
        <time>2026-05-10T08:54:48Z</time>
      </trkpt>
      <trkpt lat="46.0592" lon="5.60901">
        <ele>850.6</ele>
        <time>2026-05-10T08:54:49Z</time>
      </trkpt>
      <trkpt lat="46.05922" lon="5.60902">
        <ele>850.6</ele>
        <time>2026-05-10T08:54:50Z</time>
      </trkpt>
      <trkpt lat="46.05925" lon="5.60903">
        <ele>850.6</ele>
        <time>2026-05-10T08:54:51Z</time>
      </trkpt>
      <trkpt lat="46.0593" lon="5.60906">
        <ele>850.6</ele>
        <time>2026-05-10T08:54:52Z</time>
      </trkpt>
      <trkpt lat="46.05933" lon="5.60907">
        <ele>850.8</ele>
        <time>2026-05-10T08:54:53Z</time>
      </trkpt>
      <trkpt lat="46.05936" lon="5.60908">
        <ele>850.8</ele>
        <time>2026-05-10T08:54:54Z</time>
      </trkpt>
      <trkpt lat="46.05939" lon="5.60909">
        <ele>850.8</ele>
        <time>2026-05-10T08:54:55Z</time>
      </trkpt>
      <trkpt lat="46.05942" lon="5.6091">
        <ele>850.8</ele>
        <time>2026-05-10T08:54:56Z</time>
      </trkpt>
      <trkpt lat="46.05945" lon="5.60912">
        <ele>851.2</ele>
        <time>2026-05-10T08:54:57Z</time>
      </trkpt>
      <trkpt lat="46.05949" lon="5.60912">
        <ele>850.8</ele>
        <time>2026-05-10T08:54:58Z</time>
      </trkpt>
      <trkpt lat="46.05952" lon="5.60912">
        <ele>850.8</ele>
        <time>2026-05-10T08:54:59Z</time>
      </trkpt>
      <trkpt lat="46.05955" lon="5.60915">
        <ele>850.8</ele>
        <time>2026-05-10T08:55:00Z</time>
      </trkpt>
      <trkpt lat="46.05958" lon="5.60915">
        <ele>850.8</ele>
        <time>2026-05-10T08:55:01Z</time>
      </trkpt>
      <trkpt lat="46.05961" lon="5.60918">
        <ele>850.8</ele>
        <time>2026-05-10T08:55:02Z</time>
      </trkpt>
      <trkpt lat="46.05964" lon="5.60922">
        <ele>850.2</ele>
        <time>2026-05-10T08:55:03Z</time>
      </trkpt>
      <trkpt lat="46.05965" lon="5.60926">
        <ele>850</ele>
        <time>2026-05-10T08:55:04Z</time>
      </trkpt>
      <trkpt lat="46.05967" lon="5.6093">
        <ele>850</ele>
        <time>2026-05-10T08:55:05Z</time>
      </trkpt>
      <trkpt lat="46.05968" lon="5.60934">
        <ele>850.2</ele>
        <time>2026-05-10T08:55:06Z</time>
      </trkpt>
      <trkpt lat="46.0597" lon="5.60939">
        <ele>850.8</ele>
        <time>2026-05-10T08:55:07Z</time>
      </trkpt>
      <trkpt lat="46.05972" lon="5.60944">
        <ele>850.8</ele>
        <time>2026-05-10T08:55:08Z</time>
      </trkpt>
      <trkpt lat="46.05974" lon="5.60948">
        <ele>850.6</ele>
        <time>2026-05-10T08:55:09Z</time>
      </trkpt>
      <trkpt lat="46.05976" lon="5.60953">
        <ele>850.6</ele>
        <time>2026-05-10T08:55:10Z</time>
      </trkpt>
      <trkpt lat="46.05978" lon="5.60957">
        <ele>850.2</ele>
        <time>2026-05-10T08:55:11Z</time>
      </trkpt>
      <trkpt lat="46.0598" lon="5.60961">
        <ele>850.4</ele>
        <time>2026-05-10T08:55:12Z</time>
      </trkpt>
      <trkpt lat="46.05982" lon="5.60966">
        <ele>850.4</ele>
        <time>2026-05-10T08:55:13Z</time>
      </trkpt>
      <trkpt lat="46.05984" lon="5.60971">
        <ele>850.4</ele>
        <time>2026-05-10T08:55:14Z</time>
      </trkpt>
      <trkpt lat="46.05986" lon="5.60976">
        <ele>850.6</ele>
        <time>2026-05-10T08:55:15Z</time>
      </trkpt>
      <trkpt lat="46.05988" lon="5.60981">
        <ele>850.6</ele>
        <time>2026-05-10T08:55:16Z</time>
      </trkpt>
      <trkpt lat="46.05989" lon="5.60985">
        <ele>850.2</ele>
        <time>2026-05-10T08:55:17Z</time>
      </trkpt>
      <trkpt lat="46.0599" lon="5.60988">
        <ele>850.2</ele>
        <time>2026-05-10T08:55:18Z</time>
      </trkpt>
      <trkpt lat="46.0599" lon="5.60992">
        <ele>850.6</ele>
        <time>2026-05-10T08:55:19Z</time>
      </trkpt>
      <trkpt lat="46.0599" lon="5.60996">
        <ele>851.4</ele>
        <time>2026-05-10T08:55:20Z</time>
      </trkpt>
      <trkpt lat="46.0599" lon="5.60999">
        <ele>851.6</ele>
        <time>2026-05-10T08:55:21Z</time>
      </trkpt>
      <trkpt lat="46.0599" lon="5.61003">
        <ele>851.6</ele>
        <time>2026-05-10T08:55:22Z</time>
      </trkpt>
      <trkpt lat="46.05991" lon="5.61007">
        <ele>852</ele>
        <time>2026-05-10T08:55:23Z</time>
      </trkpt>
      <trkpt lat="46.05991" lon="5.61011">
        <ele>852</ele>
        <time>2026-05-10T08:55:24Z</time>
      </trkpt>
      <trkpt lat="46.05992" lon="5.61015">
        <ele>852.2</ele>
        <time>2026-05-10T08:55:25Z</time>
      </trkpt>
      <trkpt lat="46.05993" lon="5.61018">
        <ele>852.6</ele>
        <time>2026-05-10T08:55:26Z</time>
      </trkpt>
      <trkpt lat="46.05995" lon="5.61021">
        <ele>852.6</ele>
        <time>2026-05-10T08:55:27Z</time>
      </trkpt>
      <trkpt lat="46.05996" lon="5.61024">
        <ele>851.8</ele>
        <time>2026-05-10T08:55:28Z</time>
      </trkpt>
      <trkpt lat="46.05998" lon="5.61028">
        <ele>851.8</ele>
        <time>2026-05-10T08:55:29Z</time>
      </trkpt>
      <trkpt lat="46.06001" lon="5.61031">
        <ele>851.4</ele>
        <time>2026-05-10T08:55:30Z</time>
      </trkpt>
      <trkpt lat="46.06007" lon="5.61034">
        <ele>851.4</ele>
        <time>2026-05-10T08:55:31Z</time>
      </trkpt>
      <trkpt lat="46.06012" lon="5.61038">
        <ele>851</ele>
        <time>2026-05-10T08:55:32Z</time>
      </trkpt>
      <trkpt lat="46.06016" lon="5.61042">
        <ele>850.6</ele>
        <time>2026-05-10T08:55:33Z</time>
      </trkpt>
      <trkpt lat="46.06019" lon="5.61046">
        <ele>850.4</ele>
        <time>2026-05-10T08:55:34Z</time>
      </trkpt>
      <trkpt lat="46.06022" lon="5.61051">
        <ele>850.4</ele>
        <time>2026-05-10T08:55:35Z</time>
      </trkpt>
      <trkpt lat="46.06025" lon="5.61055">
        <ele>850.4</ele>
        <time>2026-05-10T08:55:36Z</time>
      </trkpt>
      <trkpt lat="46.06028" lon="5.61059">
        <ele>849.6</ele>
        <time>2026-05-10T08:55:37Z</time>
      </trkpt>
      <trkpt lat="46.06031" lon="5.61062">
        <ele>850</ele>
        <time>2026-05-10T08:55:38Z</time>
      </trkpt>
      <trkpt lat="46.06035" lon="5.61065">
        <ele>850</ele>
        <time>2026-05-10T08:55:39Z</time>
      </trkpt>
      <trkpt lat="46.06037" lon="5.61069">
        <ele>850</ele>
        <time>2026-05-10T08:55:40Z</time>
      </trkpt>
      <trkpt lat="46.0604" lon="5.61073">
        <ele>850</ele>
        <time>2026-05-10T08:55:41Z</time>
      </trkpt>
      <trkpt lat="46.06043" lon="5.61077">
        <ele>850.4</ele>
        <time>2026-05-10T08:55:42Z</time>
      </trkpt>
      <trkpt lat="46.06046" lon="5.6108">
        <ele>850.6</ele>
        <time>2026-05-10T08:55:43Z</time>
      </trkpt>
      <trkpt lat="46.06048" lon="5.61084">
        <ele>850.8</ele>
        <time>2026-05-10T08:55:44Z</time>
      </trkpt>
      <trkpt lat="46.0605" lon="5.61087">
        <ele>851.6</ele>
        <time>2026-05-10T08:55:45Z</time>
      </trkpt>
      <trkpt lat="46.06053" lon="5.6109">
        <ele>851.8</ele>
        <time>2026-05-10T08:55:46Z</time>
      </trkpt>
      <trkpt lat="46.06056" lon="5.61093">
        <ele>851</ele>
        <time>2026-05-10T08:55:47Z</time>
      </trkpt>
      <trkpt lat="46.06059" lon="5.61097">
        <ele>851.4</ele>
        <time>2026-05-10T08:55:48Z</time>
      </trkpt>
      <trkpt lat="46.06062" lon="5.611">
        <ele>851.6</ele>
        <time>2026-05-10T08:55:49Z</time>
      </trkpt>
      <trkpt lat="46.06065" lon="5.61103">
        <ele>851.6</ele>
        <time>2026-05-10T08:55:50Z</time>
      </trkpt>
      <trkpt lat="46.06068" lon="5.61106">
        <ele>852.2</ele>
        <time>2026-05-10T08:55:51Z</time>
      </trkpt>
      <trkpt lat="46.06071" lon="5.61108">
        <ele>852.2</ele>
        <time>2026-05-10T08:55:52Z</time>
      </trkpt>
      <trkpt lat="46.06073" lon="5.61111">
        <ele>852.2</ele>
        <time>2026-05-10T08:55:53Z</time>
      </trkpt>
      <trkpt lat="46.06076" lon="5.61114">
        <ele>852.2</ele>
        <time>2026-05-10T08:55:54Z</time>
      </trkpt>
      <trkpt lat="46.06079" lon="5.61117">
        <ele>852.4</ele>
        <time>2026-05-10T08:55:55Z</time>
      </trkpt>
      <trkpt lat="46.06082" lon="5.6112">
        <ele>852.4</ele>
        <time>2026-05-10T08:55:56Z</time>
      </trkpt>
      <trkpt lat="46.06085" lon="5.61123">
        <ele>852.4</ele>
        <time>2026-05-10T08:55:57Z</time>
      </trkpt>
      <trkpt lat="46.06088" lon="5.61125">
        <ele>852.4</ele>
        <time>2026-05-10T08:55:58Z</time>
      </trkpt>
      <trkpt lat="46.06091" lon="5.61127">
        <ele>852.6</ele>
        <time>2026-05-10T08:55:59Z</time>
      </trkpt>
      <trkpt lat="46.06094" lon="5.61129">
        <ele>852.6</ele>
        <time>2026-05-10T08:56:00Z</time>
      </trkpt>
      <trkpt lat="46.06097" lon="5.61131">
        <ele>852.6</ele>
        <time>2026-05-10T08:56:01Z</time>
      </trkpt>
      <trkpt lat="46.061" lon="5.61134">
        <ele>852.6</ele>
        <time>2026-05-10T08:56:02Z</time>
      </trkpt>
      <trkpt lat="46.06103" lon="5.61136">
        <ele>853.2</ele>
        <time>2026-05-10T08:56:03Z</time>
      </trkpt>
      <trkpt lat="46.06106" lon="5.61138">
        <ele>853.2</ele>
        <time>2026-05-10T08:56:04Z</time>
      </trkpt>
      <trkpt lat="46.06109" lon="5.61139">
        <ele>853.2</ele>
        <time>2026-05-10T08:56:05Z</time>
      </trkpt>
      <trkpt lat="46.06111" lon="5.61141">
        <ele>853.2</ele>
        <time>2026-05-10T08:56:06Z</time>
      </trkpt>
      <trkpt lat="46.06115" lon="5.61142">
        <ele>853.2</ele>
        <time>2026-05-10T08:56:07Z</time>
      </trkpt>
      <trkpt lat="46.06118" lon="5.61143">
        <ele>853.4</ele>
        <time>2026-05-10T08:56:08Z</time>
      </trkpt>
      <trkpt lat="46.06121" lon="5.61145">
        <ele>853.8</ele>
        <time>2026-05-10T08:56:09Z</time>
      </trkpt>
      <trkpt lat="46.06124" lon="5.61146">
        <ele>853.8</ele>
        <time>2026-05-10T08:56:10Z</time>
      </trkpt>
      <trkpt lat="46.06127" lon="5.61147">
        <ele>853.8</ele>
        <time>2026-05-10T08:56:11Z</time>
      </trkpt>
      <trkpt lat="46.06129" lon="5.61148">
        <ele>854.4</ele>
        <time>2026-05-10T08:56:12Z</time>
      </trkpt>
      <trkpt lat="46.06131" lon="5.6115">
        <ele>854.4</ele>
        <time>2026-05-10T08:56:13Z</time>
      </trkpt>
      <trkpt lat="46.06134" lon="5.61151">
        <ele>854.4</ele>
        <time>2026-05-10T08:56:14Z</time>
      </trkpt>
      <trkpt lat="46.06136" lon="5.61152">
        <ele>854.4</ele>
        <time>2026-05-10T08:56:15Z</time>
      </trkpt>
      <trkpt lat="46.06139" lon="5.61153">
        <ele>854.6</ele>
        <time>2026-05-10T08:56:16Z</time>
      </trkpt>
      <trkpt lat="46.06142" lon="5.61154">
        <ele>854.6</ele>
        <time>2026-05-10T08:56:17Z</time>
      </trkpt>
      <trkpt lat="46.06144" lon="5.61156">
        <ele>854.6</ele>
        <time>2026-05-10T08:56:18Z</time>
      </trkpt>
      <trkpt lat="46.06147" lon="5.61158">
        <ele>854.6</ele>
        <time>2026-05-10T08:56:19Z</time>
      </trkpt>
      <trkpt lat="46.0615" lon="5.61159">
        <ele>854.6</ele>
        <time>2026-05-10T08:56:20Z</time>
      </trkpt>
      <trkpt lat="46.06154" lon="5.61161">
        <ele>854.6</ele>
        <time>2026-05-10T08:56:21Z</time>
      </trkpt>
      <trkpt lat="46.06157" lon="5.61163">
        <ele>854.4</ele>
        <time>2026-05-10T08:56:22Z</time>
      </trkpt>
      <trkpt lat="46.0616" lon="5.61165">
        <ele>854.4</ele>
        <time>2026-05-10T08:56:23Z</time>
      </trkpt>
      <trkpt lat="46.06163" lon="5.61166">
        <ele>854</ele>
        <time>2026-05-10T08:56:24Z</time>
      </trkpt>
      <trkpt lat="46.06166" lon="5.61168">
        <ele>854</ele>
        <time>2026-05-10T08:56:25Z</time>
      </trkpt>
      <trkpt lat="46.06169" lon="5.61169">
        <ele>854</ele>
        <time>2026-05-10T08:56:26Z</time>
      </trkpt>
      <trkpt lat="46.06172" lon="5.61171">
        <ele>854</ele>
        <time>2026-05-10T08:56:27Z</time>
      </trkpt>
      <trkpt lat="46.06175" lon="5.61173">
        <ele>853.8</ele>
        <time>2026-05-10T08:56:28Z</time>
      </trkpt>
      <trkpt lat="46.06178" lon="5.61174">
        <ele>853.6</ele>
        <time>2026-05-10T08:56:29Z</time>
      </trkpt>
      <trkpt lat="46.06184" lon="5.61176">
        <ele>853.6</ele>
        <time>2026-05-10T08:56:30Z</time>
      </trkpt>
      <trkpt lat="46.06187" lon="5.61177">
        <ele>853.6</ele>
        <time>2026-05-10T08:56:31Z</time>
      </trkpt>
      <trkpt lat="46.06191" lon="5.61178">
        <ele>853.2</ele>
        <time>2026-05-10T08:56:32Z</time>
      </trkpt>
      <trkpt lat="46.06194" lon="5.61179">
        <ele>853.2</ele>
        <time>2026-05-10T08:56:33Z</time>
      </trkpt>
      <trkpt lat="46.06197" lon="5.61179">
        <ele>853.2</ele>
        <time>2026-05-10T08:56:34Z</time>
      </trkpt>
      <trkpt lat="46.062" lon="5.61179">
        <ele>853.2</ele>
        <time>2026-05-10T08:56:35Z</time>
      </trkpt>
      <trkpt lat="46.06203" lon="5.6118">
        <ele>853.2</ele>
        <time>2026-05-10T08:56:36Z</time>
      </trkpt>
      <trkpt lat="46.06206" lon="5.61181">
        <ele>853.2</ele>
        <time>2026-05-10T08:56:37Z</time>
      </trkpt>
      <trkpt lat="46.06209" lon="5.61182">
        <ele>853</ele>
        <time>2026-05-10T08:56:38Z</time>
      </trkpt>
      <trkpt lat="46.06212" lon="5.61184">
        <ele>853.2</ele>
        <time>2026-05-10T08:56:39Z</time>
      </trkpt>
      <trkpt lat="46.06215" lon="5.61185">
        <ele>852.8</ele>
        <time>2026-05-10T08:56:40Z</time>
      </trkpt>
      <trkpt lat="46.06218" lon="5.61186">
        <ele>852.8</ele>
        <time>2026-05-10T08:56:41Z</time>
      </trkpt>
      <trkpt lat="46.06221" lon="5.61187">
        <ele>853</ele>
        <time>2026-05-10T08:56:42Z</time>
      </trkpt>
      <trkpt lat="46.06224" lon="5.61188">
        <ele>853</ele>
        <time>2026-05-10T08:56:43Z</time>
      </trkpt>
      <trkpt lat="46.06227" lon="5.61189">
        <ele>853</ele>
        <time>2026-05-10T08:56:44Z</time>
      </trkpt>
      <trkpt lat="46.0623" lon="5.61191">
        <ele>853</ele>
        <time>2026-05-10T08:56:45Z</time>
      </trkpt>
      <trkpt lat="46.06234" lon="5.61192">
        <ele>853</ele>
        <time>2026-05-10T08:56:46Z</time>
      </trkpt>
      <trkpt lat="46.06237" lon="5.61192">
        <ele>852.8</ele>
        <time>2026-05-10T08:56:47Z</time>
      </trkpt>
      <trkpt lat="46.0624" lon="5.61193">
        <ele>852.8</ele>
        <time>2026-05-10T08:56:48Z</time>
      </trkpt>
      <trkpt lat="46.06244" lon="5.61193">
        <ele>851.8</ele>
        <time>2026-05-10T08:56:49Z</time>
      </trkpt>
      <trkpt lat="46.06247" lon="5.61193">
        <ele>851.8</ele>
        <time>2026-05-10T08:56:50Z</time>
      </trkpt>
      <trkpt lat="46.06251" lon="5.61194">
        <ele>851.8</ele>
        <time>2026-05-10T08:56:51Z</time>
      </trkpt>
      <trkpt lat="46.06255" lon="5.61196">
        <ele>851.4</ele>
        <time>2026-05-10T08:56:52Z</time>
      </trkpt>
      <trkpt lat="46.06258" lon="5.61198">
        <ele>851.2</ele>
        <time>2026-05-10T08:56:53Z</time>
      </trkpt>
      <trkpt lat="46.06262" lon="5.612">
        <ele>851.2</ele>
        <time>2026-05-10T08:56:54Z</time>
      </trkpt>
      <trkpt lat="46.06264" lon="5.61201">
        <ele>851.2</ele>
        <time>2026-05-10T08:56:55Z</time>
      </trkpt>
      <trkpt lat="46.06266" lon="5.61202">
        <ele>851.8</ele>
        <time>2026-05-10T08:56:56Z</time>
      </trkpt>
      <trkpt lat="46.0627" lon="5.61204">
        <ele>851.4</ele>
        <time>2026-05-10T08:56:57Z</time>
      </trkpt>
      <trkpt lat="46.06274" lon="5.61206">
        <ele>851.4</ele>
        <time>2026-05-10T08:56:58Z</time>
      </trkpt>
      <trkpt lat="46.06278" lon="5.61208">
        <ele>850.6</ele>
        <time>2026-05-10T08:56:59Z</time>
      </trkpt>
      <trkpt lat="46.06284" lon="5.61207">
        <ele>849.8</ele>
        <time>2026-05-10T08:57:00Z</time>
      </trkpt>
      <trkpt lat="46.06288" lon="5.61208">
        <ele>849.6</ele>
        <time>2026-05-10T08:57:01Z</time>
      </trkpt>
      <trkpt lat="46.06292" lon="5.61209">
        <ele>849.2</ele>
        <time>2026-05-10T08:57:02Z</time>
      </trkpt>
      <trkpt lat="46.06296" lon="5.61209">
        <ele>849.2</ele>
        <time>2026-05-10T08:57:03Z</time>
      </trkpt>
      <trkpt lat="46.063" lon="5.61211">
        <ele>849.2</ele>
        <time>2026-05-10T08:57:04Z</time>
      </trkpt>
      <trkpt lat="46.06304" lon="5.61214">
        <ele>849.2</ele>
        <time>2026-05-10T08:57:05Z</time>
      </trkpt>
      <trkpt lat="46.06309" lon="5.61218">
        <ele>848.2</ele>
        <time>2026-05-10T08:57:06Z</time>
      </trkpt>
      <trkpt lat="46.06313" lon="5.61223">
        <ele>848.2</ele>
        <time>2026-05-10T08:57:07Z</time>
      </trkpt>
      <trkpt lat="46.06315" lon="5.61228">
        <ele>847.8</ele>
        <time>2026-05-10T08:57:08Z</time>
      </trkpt>
      <trkpt lat="46.06317" lon="5.61233">
        <ele>848</ele>
        <time>2026-05-10T08:57:09Z</time>
      </trkpt>
      <trkpt lat="46.06317" lon="5.61233">
        <ele>848.4</ele>
        <time>2026-05-10T08:57:10Z</time>
      </trkpt>
      <trkpt lat="46.0632" lon="5.6124">
        <ele>848.4</ele>
        <time>2026-05-10T08:57:11Z</time>
      </trkpt>
      <trkpt lat="46.06322" lon="5.61245">
        <ele>848.4</ele>
        <time>2026-05-10T08:57:12Z</time>
      </trkpt>
      <trkpt lat="46.06324" lon="5.61251">
        <ele>847.4</ele>
        <time>2026-05-10T08:57:13Z</time>
      </trkpt>
      <trkpt lat="46.06326" lon="5.61257">
        <ele>847.8</ele>
        <time>2026-05-10T08:57:14Z</time>
      </trkpt>
      <trkpt lat="46.06326" lon="5.61262">
        <ele>847.6</ele>
        <time>2026-05-10T08:57:15Z</time>
      </trkpt>
      <trkpt lat="46.06328" lon="5.61267">
        <ele>847.8</ele>
        <time>2026-05-10T08:57:16Z</time>
      </trkpt>
      <trkpt lat="46.06328" lon="5.61272">
        <ele>847.8</ele>
        <time>2026-05-10T08:57:17Z</time>
      </trkpt>
      <trkpt lat="46.06329" lon="5.61276">
        <ele>847.8</ele>
        <time>2026-05-10T08:57:18Z</time>
      </trkpt>
      <trkpt lat="46.06329" lon="5.6128">
        <ele>848.2</ele>
        <time>2026-05-10T08:57:19Z</time>
      </trkpt>
      <trkpt lat="46.0633" lon="5.61287">
        <ele>848.8</ele>
        <time>2026-05-10T08:57:20Z</time>
      </trkpt>
      <trkpt lat="46.0633" lon="5.61292">
        <ele>848.8</ele>
        <time>2026-05-10T08:57:21Z</time>
      </trkpt>
      <trkpt lat="46.0633" lon="5.61297">
        <ele>848.8</ele>
        <time>2026-05-10T08:57:22Z</time>
      </trkpt>
      <trkpt lat="46.0633" lon="5.61303">
        <ele>848.4</ele>
        <time>2026-05-10T08:57:23Z</time>
      </trkpt>
      <trkpt lat="46.0633" lon="5.61308">
        <ele>848.4</ele>
        <time>2026-05-10T08:57:24Z</time>
      </trkpt>
      <trkpt lat="46.06329" lon="5.61314">
        <ele>848.6</ele>
        <time>2026-05-10T08:57:25Z</time>
      </trkpt>
      <trkpt lat="46.06328" lon="5.61319">
        <ele>848.6</ele>
        <time>2026-05-10T08:57:26Z</time>
      </trkpt>
      <trkpt lat="46.06327" lon="5.61323">
        <ele>848.6</ele>
        <time>2026-05-10T08:57:27Z</time>
      </trkpt>
      <trkpt lat="46.06327" lon="5.61326">
        <ele>848.6</ele>
        <time>2026-05-10T08:57:28Z</time>
      </trkpt>
      <trkpt lat="46.06326" lon="5.61329">
        <ele>849</ele>
        <time>2026-05-10T08:57:29Z</time>
      </trkpt>
      <trkpt lat="46.06327" lon="5.61332">
        <ele>849</ele>
        <time>2026-05-10T08:57:30Z</time>
      </trkpt>
      <trkpt lat="46.06328" lon="5.61335">
        <ele>849</ele>
        <time>2026-05-10T08:57:31Z</time>
      </trkpt>
      <trkpt lat="46.06329" lon="5.61338">
        <ele>849</ele>
        <time>2026-05-10T08:57:32Z</time>
      </trkpt>
      <trkpt lat="46.0633" lon="5.61342">
        <ele>849</ele>
        <time>2026-05-10T08:57:33Z</time>
      </trkpt>
      <trkpt lat="46.0633" lon="5.61345">
        <ele>849.2</ele>
        <time>2026-05-10T08:57:34Z</time>
      </trkpt>
      <trkpt lat="46.0633" lon="5.61349">
        <ele>849.6</ele>
        <time>2026-05-10T08:57:35Z</time>
      </trkpt>
      <trkpt lat="46.0633" lon="5.61353">
        <ele>849.6</ele>
        <time>2026-05-10T08:57:36Z</time>
      </trkpt>
      <trkpt lat="46.0633" lon="5.61357">
        <ele>850</ele>
        <time>2026-05-10T08:57:37Z</time>
      </trkpt>
      <trkpt lat="46.06329" lon="5.61361">
        <ele>850</ele>
        <time>2026-05-10T08:57:38Z</time>
      </trkpt>
      <trkpt lat="46.06329" lon="5.61364">
        <ele>850.4</ele>
        <time>2026-05-10T08:57:39Z</time>
      </trkpt>
      <trkpt lat="46.06329" lon="5.61367">
        <ele>850.4</ele>
        <time>2026-05-10T08:57:40Z</time>
      </trkpt>
      <trkpt lat="46.06329" lon="5.61369">
        <ele>850.4</ele>
        <time>2026-05-10T08:57:41Z</time>
      </trkpt>
      <trkpt lat="46.0633" lon="5.61371">
        <ele>850.4</ele>
        <time>2026-05-10T08:57:42Z</time>
      </trkpt>
      <trkpt lat="46.0633" lon="5.61373">
        <ele>850.8</ele>
        <time>2026-05-10T08:57:43Z</time>
      </trkpt>
      <trkpt lat="46.0633" lon="5.61375">
        <ele>850.8</ele>
        <time>2026-05-10T08:57:44Z</time>
      </trkpt>
      <trkpt lat="46.0633" lon="5.61378">
        <ele>851</ele>
        <time>2026-05-10T08:57:45Z</time>
      </trkpt>
      <trkpt lat="46.06331" lon="5.6138">
        <ele>851.4</ele>
        <time>2026-05-10T08:57:46Z</time>
      </trkpt>
      <trkpt lat="46.06332" lon="5.61382">
        <ele>851.8</ele>
        <time>2026-05-10T08:57:47Z</time>
      </trkpt>
      <trkpt lat="46.06332" lon="5.61385">
        <ele>852</ele>
        <time>2026-05-10T08:57:48Z</time>
      </trkpt>
      <trkpt lat="46.06333" lon="5.61387">
        <ele>852</ele>
        <time>2026-05-10T08:57:49Z</time>
      </trkpt>
      <trkpt lat="46.06333" lon="5.6139">
        <ele>852.4</ele>
        <time>2026-05-10T08:57:50Z</time>
      </trkpt>
      <trkpt lat="46.06334" lon="5.61392">
        <ele>852.4</ele>
        <time>2026-05-10T08:57:51Z</time>
      </trkpt>
      <trkpt lat="46.06334" lon="5.61392">
        <ele>852.6</ele>
        <time>2026-05-10T08:57:52Z</time>
      </trkpt>
      <trkpt lat="46.06334" lon="5.61392">
        <ele>852.6</ele>
        <time>2026-05-10T08:57:53Z</time>
      </trkpt>
      <trkpt lat="46.06335" lon="5.61402">
        <ele>852.8</ele>
        <time>2026-05-10T08:57:55Z</time>
      </trkpt>
      <trkpt lat="46.06335" lon="5.61404">
        <ele>853</ele>
        <time>2026-05-10T08:57:56Z</time>
      </trkpt>
      <trkpt lat="46.06336" lon="5.61406">
        <ele>853</ele>
        <time>2026-05-10T08:57:57Z</time>
      </trkpt>
      <trkpt lat="46.06336" lon="5.61408">
        <ele>853.6</ele>
        <time>2026-05-10T08:57:58Z</time>
      </trkpt>
      <trkpt lat="46.06336" lon="5.6141">
        <ele>853.6</ele>
        <time>2026-05-10T08:57:59Z</time>
      </trkpt>
      <trkpt lat="46.06336" lon="5.61412">
        <ele>854.4</ele>
        <time>2026-05-10T08:58:00Z</time>
      </trkpt>
      <trkpt lat="46.06337" lon="5.61415">
        <ele>854.4</ele>
        <time>2026-05-10T08:58:01Z</time>
      </trkpt>
      <trkpt lat="46.06338" lon="5.61417">
        <ele>854.4</ele>
        <time>2026-05-10T08:58:02Z</time>
      </trkpt>
      <trkpt lat="46.06339" lon="5.61419">
        <ele>854.8</ele>
        <time>2026-05-10T08:58:03Z</time>
      </trkpt>
      <trkpt lat="46.0634" lon="5.61421">
        <ele>854.8</ele>
        <time>2026-05-10T08:58:04Z</time>
      </trkpt>
      <trkpt lat="46.06341" lon="5.61423">
        <ele>855.2</ele>
        <time>2026-05-10T08:58:05Z</time>
      </trkpt>
      <trkpt lat="46.06343" lon="5.61424">
        <ele>855.6</ele>
        <time>2026-05-10T08:58:06Z</time>
      </trkpt>
      <trkpt lat="46.06344" lon="5.61425">
        <ele>855.6</ele>
        <time>2026-05-10T08:58:07Z</time>
      </trkpt>
      <trkpt lat="46.06346" lon="5.61426">
        <ele>855.6</ele>
        <time>2026-05-10T08:58:08Z</time>
      </trkpt>
      <trkpt lat="46.06348" lon="5.61428">
        <ele>856</ele>
        <time>2026-05-10T08:58:09Z</time>
      </trkpt>
      <trkpt lat="46.06349" lon="5.61429">
        <ele>856</ele>
        <time>2026-05-10T08:58:10Z</time>
      </trkpt>
      <trkpt lat="46.06351" lon="5.61429">
        <ele>856</ele>
        <time>2026-05-10T08:58:11Z</time>
      </trkpt>
      <trkpt lat="46.06354" lon="5.6143">
        <ele>856</ele>
        <time>2026-05-10T08:58:12Z</time>
      </trkpt>
      <trkpt lat="46.06355" lon="5.61431">
        <ele>856.4</ele>
        <time>2026-05-10T08:58:13Z</time>
      </trkpt>
      <trkpt lat="46.06357" lon="5.61432">
        <ele>856.8</ele>
        <time>2026-05-10T08:58:14Z</time>
      </trkpt>
      <trkpt lat="46.06358" lon="5.61433">
        <ele>857.2</ele>
        <time>2026-05-10T08:58:15Z</time>
      </trkpt>
      <trkpt lat="46.06359" lon="5.61434">
        <ele>857.4</ele>
        <time>2026-05-10T08:58:16Z</time>
      </trkpt>
      <trkpt lat="46.06361" lon="5.61435">
        <ele>857.4</ele>
        <time>2026-05-10T08:58:17Z</time>
      </trkpt>
      <trkpt lat="46.06363" lon="5.61436">
        <ele>857.8</ele>
        <time>2026-05-10T08:58:18Z</time>
      </trkpt>
      <trkpt lat="46.06364" lon="5.61436">
        <ele>857.8</ele>
        <time>2026-05-10T08:58:19Z</time>
      </trkpt>
      <trkpt lat="46.06366" lon="5.61437">
        <ele>858</ele>
        <time>2026-05-10T08:58:20Z</time>
      </trkpt>
      <trkpt lat="46.06368" lon="5.61437">
        <ele>858.2</ele>
        <time>2026-05-10T08:58:21Z</time>
      </trkpt>
      <trkpt lat="46.0637" lon="5.61437">
        <ele>858.6</ele>
        <time>2026-05-10T08:58:22Z</time>
      </trkpt>
      <trkpt lat="46.06372" lon="5.61437">
        <ele>858.6</ele>
        <time>2026-05-10T08:58:23Z</time>
      </trkpt>
      <trkpt lat="46.06374" lon="5.61437">
        <ele>859</ele>
        <time>2026-05-10T08:58:24Z</time>
      </trkpt>
      <trkpt lat="46.06376" lon="5.61436">
        <ele>859</ele>
        <time>2026-05-10T08:58:25Z</time>
      </trkpt>
      <trkpt lat="46.06378" lon="5.61435">
        <ele>859.2</ele>
        <time>2026-05-10T08:58:26Z</time>
      </trkpt>
      <trkpt lat="46.0638" lon="5.61434">
        <ele>859.2</ele>
        <time>2026-05-10T08:58:27Z</time>
      </trkpt>
      <trkpt lat="46.06383" lon="5.61432">
        <ele>859.2</ele>
        <time>2026-05-10T08:58:28Z</time>
      </trkpt>
      <trkpt lat="46.06385" lon="5.61431">
        <ele>859.2</ele>
        <time>2026-05-10T08:58:29Z</time>
      </trkpt>
      <trkpt lat="46.06387" lon="5.61429">
        <ele>859.2</ele>
        <time>2026-05-10T08:58:30Z</time>
      </trkpt>
      <trkpt lat="46.0639" lon="5.61427">
        <ele>859</ele>
        <time>2026-05-10T08:58:31Z</time>
      </trkpt>
      <trkpt lat="46.06392" lon="5.61425">
        <ele>859</ele>
        <time>2026-05-10T08:58:32Z</time>
      </trkpt>
      <trkpt lat="46.06394" lon="5.61424">
        <ele>859</ele>
        <time>2026-05-10T08:58:33Z</time>
      </trkpt>
      <trkpt lat="46.06396" lon="5.61422">
        <ele>859</ele>
        <time>2026-05-10T08:58:34Z</time>
      </trkpt>
      <trkpt lat="46.06398" lon="5.6142">
        <ele>859</ele>
        <time>2026-05-10T08:58:35Z</time>
      </trkpt>
      <trkpt lat="46.06401" lon="5.61418">
        <ele>859</ele>
        <time>2026-05-10T08:58:36Z</time>
      </trkpt>
      <trkpt lat="46.06403" lon="5.61416">
        <ele>859</ele>
        <time>2026-05-10T08:58:37Z</time>
      </trkpt>
      <trkpt lat="46.06406" lon="5.61414">
        <ele>859</ele>
        <time>2026-05-10T08:58:38Z</time>
      </trkpt>
      <trkpt lat="46.06408" lon="5.61412">
        <ele>859</ele>
        <time>2026-05-10T08:58:39Z</time>
      </trkpt>
      <trkpt lat="46.06411" lon="5.6141">
        <ele>859</ele>
        <time>2026-05-10T08:58:40Z</time>
      </trkpt>
      <trkpt lat="46.06414" lon="5.61407">
        <ele>859</ele>
        <time>2026-05-10T08:58:41Z</time>
      </trkpt>
      <trkpt lat="46.06417" lon="5.61405">
        <ele>859</ele>
        <time>2026-05-10T08:58:42Z</time>
      </trkpt>
      <trkpt lat="46.0642" lon="5.61403">
        <ele>859</ele>
        <time>2026-05-10T08:58:43Z</time>
      </trkpt>
      <trkpt lat="46.06423" lon="5.61402">
        <ele>859</ele>
        <time>2026-05-10T08:58:44Z</time>
      </trkpt>
      <trkpt lat="46.06426" lon="5.614">
        <ele>859</ele>
        <time>2026-05-10T08:58:45Z</time>
      </trkpt>
      <trkpt lat="46.0643" lon="5.61399">
        <ele>859</ele>
        <time>2026-05-10T08:58:46Z</time>
      </trkpt>
      <trkpt lat="46.06432" lon="5.61398">
        <ele>859</ele>
        <time>2026-05-10T08:58:47Z</time>
      </trkpt>
      <trkpt lat="46.06435" lon="5.61397">
        <ele>858.6</ele>
        <time>2026-05-10T08:58:48Z</time>
      </trkpt>
      <trkpt lat="46.06435" lon="5.61397">
        <ele>858.6</ele>
        <time>2026-05-10T08:58:49Z</time>
      </trkpt>
      <trkpt lat="46.06439" lon="5.61396">
        <ele>858.6</ele>
        <time>2026-05-10T08:58:50Z</time>
      </trkpt>
      <trkpt lat="46.06442" lon="5.61395">
        <ele>858.8</ele>
        <time>2026-05-10T08:58:51Z</time>
      </trkpt>
      <trkpt lat="46.06445" lon="5.61395">
        <ele>858.8</ele>
        <time>2026-05-10T08:58:52Z</time>
      </trkpt>
      <trkpt lat="46.06449" lon="5.61395">
        <ele>858.8</ele>
        <time>2026-05-10T08:58:53Z</time>
      </trkpt>
      <trkpt lat="46.06453" lon="5.61395">
        <ele>858.8</ele>
        <time>2026-05-10T08:58:54Z</time>
      </trkpt>
      <trkpt lat="46.06456" lon="5.61395">
        <ele>858.6</ele>
        <time>2026-05-10T08:58:55Z</time>
      </trkpt>
      <trkpt lat="46.0646" lon="5.61395">
        <ele>858.6</ele>
        <time>2026-05-10T08:58:56Z</time>
      </trkpt>
      <trkpt lat="46.06464" lon="5.61395">
        <ele>858.6</ele>
        <time>2026-05-10T08:58:57Z</time>
      </trkpt>
      <trkpt lat="46.06467" lon="5.61395">
        <ele>858.6</ele>
        <time>2026-05-10T08:58:58Z</time>
      </trkpt>
      <trkpt lat="46.0647" lon="5.61396">
        <ele>858.6</ele>
        <time>2026-05-10T08:58:59Z</time>
      </trkpt>
      <trkpt lat="46.06473" lon="5.61396">
        <ele>858.6</ele>
        <time>2026-05-10T08:59:00Z</time>
      </trkpt>
      <trkpt lat="46.06477" lon="5.61396">
        <ele>858.6</ele>
        <time>2026-05-10T08:59:01Z</time>
      </trkpt>
      <trkpt lat="46.0648" lon="5.61396">
        <ele>858.6</ele>
        <time>2026-05-10T08:59:02Z</time>
      </trkpt>
      <trkpt lat="46.06483" lon="5.61396">
        <ele>858.6</ele>
        <time>2026-05-10T08:59:03Z</time>
      </trkpt>
      <trkpt lat="46.06486" lon="5.61396">
        <ele>858.6</ele>
        <time>2026-05-10T08:59:04Z</time>
      </trkpt>
      <trkpt lat="46.06489" lon="5.61396">
        <ele>858.6</ele>
        <time>2026-05-10T08:59:05Z</time>
      </trkpt>
      <trkpt lat="46.06493" lon="5.61396">
        <ele>858.8</ele>
        <time>2026-05-10T08:59:06Z</time>
      </trkpt>
      <trkpt lat="46.06496" lon="5.61396">
        <ele>858.8</ele>
        <time>2026-05-10T08:59:07Z</time>
      </trkpt>
      <trkpt lat="46.06499" lon="5.61397">
        <ele>858.8</ele>
        <time>2026-05-10T08:59:08Z</time>
      </trkpt>
      <trkpt lat="46.06502" lon="5.61398">
        <ele>858.8</ele>
        <time>2026-05-10T08:59:09Z</time>
      </trkpt>
      <trkpt lat="46.06505" lon="5.61398">
        <ele>859.2</ele>
        <time>2026-05-10T08:59:10Z</time>
      </trkpt>
      <trkpt lat="46.06508" lon="5.61399">
        <ele>859.2</ele>
        <time>2026-05-10T08:59:11Z</time>
      </trkpt>
      <trkpt lat="46.06511" lon="5.61399">
        <ele>859.2</ele>
        <time>2026-05-10T08:59:12Z</time>
      </trkpt>
      <trkpt lat="46.06514" lon="5.61399">
        <ele>859.2</ele>
        <time>2026-05-10T08:59:13Z</time>
      </trkpt>
      <trkpt lat="46.06517" lon="5.61399">
        <ele>859.4</ele>
        <time>2026-05-10T08:59:14Z</time>
      </trkpt>
      <trkpt lat="46.0652" lon="5.614">
        <ele>859.4</ele>
        <time>2026-05-10T08:59:15Z</time>
      </trkpt>
      <trkpt lat="46.06524" lon="5.614">
        <ele>859.6</ele>
        <time>2026-05-10T08:59:16Z</time>
      </trkpt>
      <trkpt lat="46.06527" lon="5.61401">
        <ele>859.6</ele>
        <time>2026-05-10T08:59:17Z</time>
      </trkpt>
      <trkpt lat="46.06531" lon="5.61402">
        <ele>860</ele>
        <time>2026-05-10T08:59:18Z</time>
      </trkpt>
      <trkpt lat="46.06534" lon="5.61402">
        <ele>860</ele>
        <time>2026-05-10T08:59:19Z</time>
      </trkpt>
      <trkpt lat="46.06537" lon="5.61403">
        <ele>860.2</ele>
        <time>2026-05-10T08:59:20Z</time>
      </trkpt>
      <trkpt lat="46.06541" lon="5.61404">
        <ele>860.2</ele>
        <time>2026-05-10T08:59:21Z</time>
      </trkpt>
      <trkpt lat="46.06544" lon="5.61404">
        <ele>860.2</ele>
        <time>2026-05-10T08:59:22Z</time>
      </trkpt>
      <trkpt lat="46.06547" lon="5.61405">
        <ele>860.2</ele>
        <time>2026-05-10T08:59:23Z</time>
      </trkpt>
      <trkpt lat="46.06551" lon="5.61406">
        <ele>860.2</ele>
        <time>2026-05-10T08:59:24Z</time>
      </trkpt>
      <trkpt lat="46.06554" lon="5.61407">
        <ele>860.2</ele>
        <time>2026-05-10T08:59:25Z</time>
      </trkpt>
      <trkpt lat="46.06558" lon="5.61408">
        <ele>860.2</ele>
        <time>2026-05-10T08:59:26Z</time>
      </trkpt>
      <trkpt lat="46.06561" lon="5.61409">
        <ele>860.2</ele>
        <time>2026-05-10T08:59:27Z</time>
      </trkpt>
      <trkpt lat="46.06565" lon="5.61409">
        <ele>860</ele>
        <time>2026-05-10T08:59:28Z</time>
      </trkpt>
      <trkpt lat="46.06571" lon="5.6141">
        <ele>860</ele>
        <time>2026-05-10T08:59:29Z</time>
      </trkpt>
      <trkpt lat="46.06575" lon="5.6141">
        <ele>860</ele>
        <time>2026-05-10T08:59:30Z</time>
      </trkpt>
      <trkpt lat="46.06579" lon="5.61411">
        <ele>860</ele>
        <time>2026-05-10T08:59:31Z</time>
      </trkpt>
      <trkpt lat="46.06584" lon="5.6141">
        <ele>859.6</ele>
        <time>2026-05-10T08:59:32Z</time>
      </trkpt>
      <trkpt lat="46.0659" lon="5.61409">
        <ele>859.4</ele>
        <time>2026-05-10T08:59:33Z</time>
      </trkpt>
      <trkpt lat="46.06595" lon="5.61408">
        <ele>859.2</ele>
        <time>2026-05-10T08:59:34Z</time>
      </trkpt>
      <trkpt lat="46.06601" lon="5.61406">
        <ele>858.4</ele>
        <time>2026-05-10T08:59:35Z</time>
      </trkpt>
      <trkpt lat="46.06606" lon="5.61403">
        <ele>858.2</ele>
        <time>2026-05-10T08:59:36Z</time>
      </trkpt>
      <trkpt lat="46.06606" lon="5.61403">
        <ele>857.8</ele>
        <time>2026-05-10T08:59:37Z</time>
      </trkpt>
      <trkpt lat="46.06624" lon="5.61394">
        <ele>857.4</ele>
        <time>2026-05-10T08:59:38Z</time>
      </trkpt>
      <trkpt lat="46.0663" lon="5.61392">
        <ele>856.8</ele>
        <time>2026-05-10T08:59:39Z</time>
      </trkpt>
      <trkpt lat="46.06636" lon="5.6139">
        <ele>856.2</ele>
        <time>2026-05-10T08:59:40Z</time>
      </trkpt>
      <trkpt lat="46.06642" lon="5.61388">
        <ele>856.2</ele>
        <time>2026-05-10T08:59:41Z</time>
      </trkpt>
      <trkpt lat="46.0665" lon="5.61387">
        <ele>856</ele>
        <time>2026-05-10T08:59:42Z</time>
      </trkpt>
      <trkpt lat="46.06658" lon="5.61384">
        <ele>855.2</ele>
        <time>2026-05-10T08:59:43Z</time>
      </trkpt>
      <trkpt lat="46.06665" lon="5.61382">
        <ele>854.6</ele>
        <time>2026-05-10T08:59:44Z</time>
      </trkpt>
      <trkpt lat="46.06672" lon="5.61378">
        <ele>854.6</ele>
        <time>2026-05-10T08:59:45Z</time>
      </trkpt>
      <trkpt lat="46.06679" lon="5.61377">
        <ele>854.2</ele>
        <time>2026-05-10T08:59:46Z</time>
      </trkpt>
      <trkpt lat="46.06686" lon="5.61375">
        <ele>854.2</ele>
        <time>2026-05-10T08:59:47Z</time>
      </trkpt>
      <trkpt lat="46.06691" lon="5.61374">
        <ele>854.2</ele>
        <time>2026-05-10T08:59:48Z</time>
      </trkpt>
      <trkpt lat="46.06697" lon="5.61373">
        <ele>854.2</ele>
        <time>2026-05-10T08:59:49Z</time>
      </trkpt>
      <trkpt lat="46.06703" lon="5.61373">
        <ele>854.6</ele>
        <time>2026-05-10T08:59:50Z</time>
      </trkpt>
      <trkpt lat="46.06708" lon="5.61372">
        <ele>855</ele>
        <time>2026-05-10T08:59:51Z</time>
      </trkpt>
      <trkpt lat="46.06712" lon="5.6137">
        <ele>855.4</ele>
        <time>2026-05-10T08:59:52Z</time>
      </trkpt>
      <trkpt lat="46.06719" lon="5.61368">
        <ele>855.8</ele>
        <time>2026-05-10T08:59:53Z</time>
      </trkpt>
      <trkpt lat="46.06722" lon="5.61367">
        <ele>856.2</ele>
        <time>2026-05-10T08:59:54Z</time>
      </trkpt>
      <trkpt lat="46.06727" lon="5.61366">
        <ele>856.4</ele>
        <time>2026-05-10T08:59:55Z</time>
      </trkpt>
      <trkpt lat="46.06731" lon="5.61366">
        <ele>856.4</ele>
        <time>2026-05-10T08:59:56Z</time>
      </trkpt>
      <trkpt lat="46.06735" lon="5.61364">
        <ele>857</ele>
        <time>2026-05-10T08:59:57Z</time>
      </trkpt>
      <trkpt lat="46.06739" lon="5.61363">
        <ele>857.2</ele>
        <time>2026-05-10T08:59:58Z</time>
      </trkpt>
      <trkpt lat="46.06739" lon="5.61363">
        <ele>857.4</ele>
        <time>2026-05-10T08:59:59Z</time>
      </trkpt>
      <trkpt lat="46.06743" lon="5.61364">
        <ele>857.8</ele>
        <time>2026-05-10T09:00:00Z</time>
      </trkpt>
      <trkpt lat="46.06747" lon="5.61364">
        <ele>857.8</ele>
        <time>2026-05-10T09:00:01Z</time>
      </trkpt>
      <trkpt lat="46.06751" lon="5.61364">
        <ele>858</ele>
        <time>2026-05-10T09:00:02Z</time>
      </trkpt>
      <trkpt lat="46.06753" lon="5.61364">
        <ele>858.4</ele>
        <time>2026-05-10T09:00:03Z</time>
      </trkpt>
      <trkpt lat="46.06756" lon="5.61362">
        <ele>858.6</ele>
        <time>2026-05-10T09:00:04Z</time>
      </trkpt>
      <trkpt lat="46.06759" lon="5.61362">
        <ele>858.8</ele>
        <time>2026-05-10T09:00:05Z</time>
      </trkpt>
      <trkpt lat="46.06761" lon="5.61363">
        <ele>859.2</ele>
        <time>2026-05-10T09:00:06Z</time>
      </trkpt>
      <trkpt lat="46.06764" lon="5.61363">
        <ele>859.2</ele>
        <time>2026-05-10T09:00:07Z</time>
      </trkpt>
      <trkpt lat="46.06765" lon="5.61363">
        <ele>859.6</ele>
        <time>2026-05-10T09:00:08Z</time>
      </trkpt>
      <trkpt lat="46.06768" lon="5.61365">
        <ele>859.8</ele>
        <time>2026-05-10T09:00:09Z</time>
      </trkpt>
      <trkpt lat="46.0677" lon="5.61365">
        <ele>860</ele>
        <time>2026-05-10T09:00:10Z</time>
      </trkpt>
      <trkpt lat="46.06772" lon="5.61366">
        <ele>860.2</ele>
        <time>2026-05-10T09:00:11Z</time>
      </trkpt>
      <trkpt lat="46.06774" lon="5.61366">
        <ele>860.6</ele>
        <time>2026-05-10T09:00:12Z</time>
      </trkpt>
      <trkpt lat="46.06776" lon="5.61366">
        <ele>860.6</ele>
        <time>2026-05-10T09:00:13Z</time>
      </trkpt>
      <trkpt lat="46.06777" lon="5.61366">
        <ele>861</ele>
        <time>2026-05-10T09:00:14Z</time>
      </trkpt>
      <trkpt lat="46.06779" lon="5.61366">
        <ele>861</ele>
        <time>2026-05-10T09:00:15Z</time>
      </trkpt>
      <trkpt lat="46.06781" lon="5.61367">
        <ele>861.6</ele>
        <time>2026-05-10T09:00:16Z</time>
      </trkpt>
      <trkpt lat="46.06782" lon="5.61367">
        <ele>861.6</ele>
        <time>2026-05-10T09:00:17Z</time>
      </trkpt>
      <trkpt lat="46.06784" lon="5.61367">
        <ele>862</ele>
        <time>2026-05-10T09:00:18Z</time>
      </trkpt>
      <trkpt lat="46.06786" lon="5.61368">
        <ele>862.2</ele>
        <time>2026-05-10T09:00:19Z</time>
      </trkpt>
      <trkpt lat="46.06787" lon="5.61368">
        <ele>862.4</ele>
        <time>2026-05-10T09:00:20Z</time>
      </trkpt>
      <trkpt lat="46.06789" lon="5.61369">
        <ele>862.8</ele>
        <time>2026-05-10T09:00:21Z</time>
      </trkpt>
      <trkpt lat="46.06791" lon="5.61369">
        <ele>863</ele>
        <time>2026-05-10T09:00:22Z</time>
      </trkpt>
      <trkpt lat="46.06793" lon="5.61368">
        <ele>863.2</ele>
        <time>2026-05-10T09:00:23Z</time>
      </trkpt>
      <trkpt lat="46.06795" lon="5.61368">
        <ele>863.2</ele>
        <time>2026-05-10T09:00:24Z</time>
      </trkpt>
      <trkpt lat="46.06797" lon="5.61367">
        <ele>863.2</ele>
        <time>2026-05-10T09:00:25Z</time>
      </trkpt>
      <trkpt lat="46.06798" lon="5.61367">
        <ele>863.6</ele>
        <time>2026-05-10T09:00:26Z</time>
      </trkpt>
      <trkpt lat="46.068" lon="5.61367">
        <ele>863.8</ele>
        <time>2026-05-10T09:00:27Z</time>
      </trkpt>
      <trkpt lat="46.06802" lon="5.61367">
        <ele>864.2</ele>
        <time>2026-05-10T09:00:28Z</time>
      </trkpt>
      <trkpt lat="46.06804" lon="5.61367">
        <ele>864.2</ele>
        <time>2026-05-10T09:00:29Z</time>
      </trkpt>
      <trkpt lat="46.06805" lon="5.61367">
        <ele>864.6</ele>
        <time>2026-05-10T09:00:30Z</time>
      </trkpt>
      <trkpt lat="46.06807" lon="5.61367">
        <ele>864.6</ele>
        <time>2026-05-10T09:00:31Z</time>
      </trkpt>
      <trkpt lat="46.06808" lon="5.61367">
        <ele>864.8</ele>
        <time>2026-05-10T09:00:32Z</time>
      </trkpt>
      <trkpt lat="46.06809" lon="5.61367">
        <ele>864.8</ele>
        <time>2026-05-10T09:00:33Z</time>
      </trkpt>
      <trkpt lat="46.06811" lon="5.61367">
        <ele>865</ele>
        <time>2026-05-10T09:00:34Z</time>
      </trkpt>
      <trkpt lat="46.06813" lon="5.61367">
        <ele>865.4</ele>
        <time>2026-05-10T09:00:35Z</time>
      </trkpt>
      <trkpt lat="46.06814" lon="5.61367">
        <ele>865.6</ele>
        <time>2026-05-10T09:00:36Z</time>
      </trkpt>
      <trkpt lat="46.06815" lon="5.61367">
        <ele>865.6</ele>
        <time>2026-05-10T09:00:37Z</time>
      </trkpt>
      <trkpt lat="46.06817" lon="5.61367">
        <ele>865.8</ele>
        <time>2026-05-10T09:00:38Z</time>
      </trkpt>
      <trkpt lat="46.06819" lon="5.61368">
        <ele>865.8</ele>
        <time>2026-05-10T09:00:39Z</time>
      </trkpt>
      <trkpt lat="46.06821" lon="5.61367">
        <ele>866</ele>
        <time>2026-05-10T09:00:40Z</time>
      </trkpt>
      <trkpt lat="46.06822" lon="5.61367">
        <ele>866</ele>
        <time>2026-05-10T09:00:41Z</time>
      </trkpt>
      <trkpt lat="46.06824" lon="5.61366">
        <ele>866</ele>
        <time>2026-05-10T09:00:42Z</time>
      </trkpt>
      <trkpt lat="46.06826" lon="5.61366">
        <ele>866.4</ele>
        <time>2026-05-10T09:00:43Z</time>
      </trkpt>
      <trkpt lat="46.06828" lon="5.61365">
        <ele>866.4</ele>
        <time>2026-05-10T09:00:44Z</time>
      </trkpt>
      <trkpt lat="46.0683" lon="5.61364">
        <ele>866.6</ele>
        <time>2026-05-10T09:00:45Z</time>
      </trkpt>
      <trkpt lat="46.06831" lon="5.61362">
        <ele>866.8</ele>
        <time>2026-05-10T09:00:46Z</time>
      </trkpt>
      <trkpt lat="46.06833" lon="5.61361">
        <ele>867</ele>
        <time>2026-05-10T09:00:47Z</time>
      </trkpt>
      <trkpt lat="46.06835" lon="5.61359">
        <ele>867.4</ele>
        <time>2026-05-10T09:00:48Z</time>
      </trkpt>
      <trkpt lat="46.06836" lon="5.61358">
        <ele>867.4</ele>
        <time>2026-05-10T09:00:49Z</time>
      </trkpt>
      <trkpt lat="46.06838" lon="5.61357">
        <ele>867.8</ele>
        <time>2026-05-10T09:00:50Z</time>
      </trkpt>
      <trkpt lat="46.06839" lon="5.61355">
        <ele>867.8</ele>
        <time>2026-05-10T09:00:51Z</time>
      </trkpt>
      <trkpt lat="46.06841" lon="5.61354">
        <ele>868</ele>
        <time>2026-05-10T09:00:52Z</time>
      </trkpt>
      <trkpt lat="46.06842" lon="5.61353">
        <ele>868.2</ele>
        <time>2026-05-10T09:00:53Z</time>
      </trkpt>
      <trkpt lat="46.06844" lon="5.61352">
        <ele>868.2</ele>
        <time>2026-05-10T09:00:54Z</time>
      </trkpt>
      <trkpt lat="46.06846" lon="5.61351">
        <ele>868.6</ele>
        <time>2026-05-10T09:00:55Z</time>
      </trkpt>
      <trkpt lat="46.06848" lon="5.6135">
        <ele>868.6</ele>
        <time>2026-05-10T09:00:56Z</time>
      </trkpt>
      <trkpt lat="46.06849" lon="5.6135">
        <ele>868.8</ele>
        <time>2026-05-10T09:00:57Z</time>
      </trkpt>
      <trkpt lat="46.06851" lon="5.61349">
        <ele>869</ele>
        <time>2026-05-10T09:00:58Z</time>
      </trkpt>
      <trkpt lat="46.06853" lon="5.61348">
        <ele>869</ele>
        <time>2026-05-10T09:00:59Z</time>
      </trkpt>
      <trkpt lat="46.06854" lon="5.61348">
        <ele>869</ele>
        <time>2026-05-10T09:01:00Z</time>
      </trkpt>
      <trkpt lat="46.06856" lon="5.61347">
        <ele>869.2</ele>
        <time>2026-05-10T09:01:01Z</time>
      </trkpt>
      <trkpt lat="46.06858" lon="5.61346">
        <ele>869.2</ele>
        <time>2026-05-10T09:01:02Z</time>
      </trkpt>
      <trkpt lat="46.06859" lon="5.61345">
        <ele>869.2</ele>
        <time>2026-05-10T09:01:03Z</time>
      </trkpt>
      <trkpt lat="46.06861" lon="5.61344">
        <ele>869.6</ele>
        <time>2026-05-10T09:01:04Z</time>
      </trkpt>
      <trkpt lat="46.06863" lon="5.61344">
        <ele>869.8</ele>
        <time>2026-05-10T09:01:05Z</time>
      </trkpt>
      <trkpt lat="46.06865" lon="5.61343">
        <ele>869.8</ele>
        <time>2026-05-10T09:01:06Z</time>
      </trkpt>
      <trkpt lat="46.06866" lon="5.61342">
        <ele>870</ele>
        <time>2026-05-10T09:01:07Z</time>
      </trkpt>
      <trkpt lat="46.06868" lon="5.61342">
        <ele>870</ele>
        <time>2026-05-10T09:01:08Z</time>
      </trkpt>
      <trkpt lat="46.0687" lon="5.61341">
        <ele>870.2</ele>
        <time>2026-05-10T09:01:09Z</time>
      </trkpt>
      <trkpt lat="46.06871" lon="5.6134">
        <ele>870.2</ele>
        <time>2026-05-10T09:01:10Z</time>
      </trkpt>
      <trkpt lat="46.06873" lon="5.6134">
        <ele>870.2</ele>
        <time>2026-05-10T09:01:11Z</time>
      </trkpt>
      <trkpt lat="46.06874" lon="5.61339">
        <ele>870.6</ele>
        <time>2026-05-10T09:01:12Z</time>
      </trkpt>
      <trkpt lat="46.06876" lon="5.61339">
        <ele>870.6</ele>
        <time>2026-05-10T09:01:13Z</time>
      </trkpt>
      <trkpt lat="46.06877" lon="5.61338">
        <ele>871</ele>
        <time>2026-05-10T09:01:14Z</time>
      </trkpt>
      <trkpt lat="46.06879" lon="5.61338">
        <ele>871</ele>
        <time>2026-05-10T09:01:15Z</time>
      </trkpt>
      <trkpt lat="46.0688" lon="5.61337">
        <ele>871</ele>
        <time>2026-05-10T09:01:16Z</time>
      </trkpt>
      <trkpt lat="46.06882" lon="5.61336">
        <ele>871.2</ele>
        <time>2026-05-10T09:01:17Z</time>
      </trkpt>
      <trkpt lat="46.06884" lon="5.61335">
        <ele>871.2</ele>
        <time>2026-05-10T09:01:18Z</time>
      </trkpt>
      <trkpt lat="46.06886" lon="5.61335">
        <ele>871.6</ele>
        <time>2026-05-10T09:01:19Z</time>
      </trkpt>
      <trkpt lat="46.06888" lon="5.61334">
        <ele>871.6</ele>
        <time>2026-05-10T09:01:20Z</time>
      </trkpt>
      <trkpt lat="46.0689" lon="5.61334">
        <ele>871.6</ele>
        <time>2026-05-10T09:01:21Z</time>
      </trkpt>
      <trkpt lat="46.06892" lon="5.61334">
        <ele>871.6</ele>
        <time>2026-05-10T09:01:22Z</time>
      </trkpt>
      <trkpt lat="46.06893" lon="5.61334">
        <ele>871.8</ele>
        <time>2026-05-10T09:01:23Z</time>
      </trkpt>
      <trkpt lat="46.06895" lon="5.61334">
        <ele>871.8</ele>
        <time>2026-05-10T09:01:24Z</time>
      </trkpt>
      <trkpt lat="46.06897" lon="5.61333">
        <ele>871.8</ele>
        <time>2026-05-10T09:01:25Z</time>
      </trkpt>
      <trkpt lat="46.06899" lon="5.61332">
        <ele>872.2</ele>
        <time>2026-05-10T09:01:26Z</time>
      </trkpt>
      <trkpt lat="46.06902" lon="5.61332">
        <ele>872.2</ele>
        <time>2026-05-10T09:01:27Z</time>
      </trkpt>
      <trkpt lat="46.06904" lon="5.61332">
        <ele>872.2</ele>
        <time>2026-05-10T09:01:28Z</time>
      </trkpt>
      <trkpt lat="46.06906" lon="5.61331">
        <ele>872.4</ele>
        <time>2026-05-10T09:01:29Z</time>
      </trkpt>
      <trkpt lat="46.06908" lon="5.61331">
        <ele>872.4</ele>
        <time>2026-05-10T09:01:30Z</time>
      </trkpt>
      <trkpt lat="46.06911" lon="5.6133">
        <ele>872</ele>
        <time>2026-05-10T09:01:31Z</time>
      </trkpt>
      <trkpt lat="46.06914" lon="5.61329">
        <ele>872</ele>
        <time>2026-05-10T09:01:32Z</time>
      </trkpt>
      <trkpt lat="46.06917" lon="5.61329">
        <ele>871.6</ele>
        <time>2026-05-10T09:01:33Z</time>
      </trkpt>
      <trkpt lat="46.0692" lon="5.61328">
        <ele>871.6</ele>
        <time>2026-05-10T09:01:34Z</time>
      </trkpt>
      <trkpt lat="46.06924" lon="5.61329">
        <ele>871.4</ele>
        <time>2026-05-10T09:01:35Z</time>
      </trkpt>
      <trkpt lat="46.06927" lon="5.61329">
        <ele>871.2</ele>
        <time>2026-05-10T09:01:36Z</time>
      </trkpt>
      <trkpt lat="46.06931" lon="5.6133">
        <ele>871.2</ele>
        <time>2026-05-10T09:01:37Z</time>
      </trkpt>
      <trkpt lat="46.06935" lon="5.6133">
        <ele>870.8</ele>
        <time>2026-05-10T09:01:38Z</time>
      </trkpt>
      <trkpt lat="46.0694" lon="5.61332">
        <ele>870.8</ele>
        <time>2026-05-10T09:01:39Z</time>
      </trkpt>
      <trkpt lat="46.06944" lon="5.61333">
        <ele>870.4</ele>
        <time>2026-05-10T09:01:40Z</time>
      </trkpt>
      <trkpt lat="46.06948" lon="5.61334">
        <ele>870.4</ele>
        <time>2026-05-10T09:01:41Z</time>
      </trkpt>
      <trkpt lat="46.06952" lon="5.61336">
        <ele>870.4</ele>
        <time>2026-05-10T09:01:42Z</time>
      </trkpt>
      <trkpt lat="46.06956" lon="5.61338">
        <ele>870.4</ele>
        <time>2026-05-10T09:01:43Z</time>
      </trkpt>
      <trkpt lat="46.0696" lon="5.61339">
        <ele>870</ele>
        <time>2026-05-10T09:01:44Z</time>
      </trkpt>
      <trkpt lat="46.06963" lon="5.6134">
        <ele>870</ele>
        <time>2026-05-10T09:01:45Z</time>
      </trkpt>
      <trkpt lat="46.06967" lon="5.6134">
        <ele>870</ele>
        <time>2026-05-10T09:01:46Z</time>
      </trkpt>
      <trkpt lat="46.06972" lon="5.61342">
        <ele>870</ele>
        <time>2026-05-10T09:01:47Z</time>
      </trkpt>
      <trkpt lat="46.06975" lon="5.61342">
        <ele>870</ele>
        <time>2026-05-10T09:01:48Z</time>
      </trkpt>
      <trkpt lat="46.0698" lon="5.61344">
        <ele>870</ele>
        <time>2026-05-10T09:01:49Z</time>
      </trkpt>
      <trkpt lat="46.06983" lon="5.61345">
        <ele>870</ele>
        <time>2026-05-10T09:01:50Z</time>
      </trkpt>
      <trkpt lat="46.06987" lon="5.61347">
        <ele>870</ele>
        <time>2026-05-10T09:01:51Z</time>
      </trkpt>
      <trkpt lat="46.06991" lon="5.61348">
        <ele>870.2</ele>
        <time>2026-05-10T09:01:52Z</time>
      </trkpt>
      <trkpt lat="46.06995" lon="5.61348">
        <ele>870.2</ele>
        <time>2026-05-10T09:01:53Z</time>
      </trkpt>
      <trkpt lat="46.06998" lon="5.61349">
        <ele>870.2</ele>
        <time>2026-05-10T09:01:54Z</time>
      </trkpt>
      <trkpt lat="46.07002" lon="5.6135">
        <ele>870.4</ele>
        <time>2026-05-10T09:01:55Z</time>
      </trkpt>
      <trkpt lat="46.07006" lon="5.61352">
        <ele>870.4</ele>
        <time>2026-05-10T09:01:56Z</time>
      </trkpt>
      <trkpt lat="46.07009" lon="5.61353">
        <ele>870.4</ele>
        <time>2026-05-10T09:01:57Z</time>
      </trkpt>
      <trkpt lat="46.07013" lon="5.61353">
        <ele>870.6</ele>
        <time>2026-05-10T09:01:58Z</time>
      </trkpt>
      <trkpt lat="46.07016" lon="5.61354">
        <ele>870.6</ele>
        <time>2026-05-10T09:01:59Z</time>
      </trkpt>
      <trkpt lat="46.07019" lon="5.61355">
        <ele>870.6</ele>
        <time>2026-05-10T09:02:00Z</time>
      </trkpt>
      <trkpt lat="46.07022" lon="5.61356">
        <ele>870.6</ele>
        <time>2026-05-10T09:02:01Z</time>
      </trkpt>
      <trkpt lat="46.07026" lon="5.61357">
        <ele>870.6</ele>
        <time>2026-05-10T09:02:02Z</time>
      </trkpt>
      <trkpt lat="46.07029" lon="5.61358">
        <ele>871</ele>
        <time>2026-05-10T09:02:03Z</time>
      </trkpt>
      <trkpt lat="46.07032" lon="5.61359">
        <ele>871</ele>
        <time>2026-05-10T09:02:04Z</time>
      </trkpt>
      <trkpt lat="46.07036" lon="5.6136">
        <ele>871.2</ele>
        <time>2026-05-10T09:02:05Z</time>
      </trkpt>
      <trkpt lat="46.07039" lon="5.61361">
        <ele>871.2</ele>
        <time>2026-05-10T09:02:06Z</time>
      </trkpt>
      <trkpt lat="46.07042" lon="5.61363">
        <ele>871.4</ele>
        <time>2026-05-10T09:02:07Z</time>
      </trkpt>
      <trkpt lat="46.07045" lon="5.61364">
        <ele>871.4</ele>
        <time>2026-05-10T09:02:08Z</time>
      </trkpt>
      <trkpt lat="46.07048" lon="5.61365">
        <ele>872</ele>
        <time>2026-05-10T09:02:09Z</time>
      </trkpt>
      <trkpt lat="46.07051" lon="5.61366">
        <ele>872.2</ele>
        <time>2026-05-10T09:02:10Z</time>
      </trkpt>
      <trkpt lat="46.07054" lon="5.61367">
        <ele>872.4</ele>
        <time>2026-05-10T09:02:11Z</time>
      </trkpt>
      <trkpt lat="46.07057" lon="5.61368">
        <ele>872.4</ele>
        <time>2026-05-10T09:02:12Z</time>
      </trkpt>
      <trkpt lat="46.07062" lon="5.6137">
        <ele>872.6</ele>
        <time>2026-05-10T09:02:13Z</time>
      </trkpt>
      <trkpt lat="46.07065" lon="5.61371">
        <ele>872.6</ele>
        <time>2026-05-10T09:02:14Z</time>
      </trkpt>
      <trkpt lat="46.07067" lon="5.61372">
        <ele>872.6</ele>
        <time>2026-05-10T09:02:15Z</time>
      </trkpt>
      <trkpt lat="46.0707" lon="5.61373">
        <ele>873</ele>
        <time>2026-05-10T09:02:16Z</time>
      </trkpt>
      <trkpt lat="46.07072" lon="5.61375">
        <ele>873</ele>
        <time>2026-05-10T09:02:17Z</time>
      </trkpt>
      <trkpt lat="46.07075" lon="5.61376">
        <ele>873.2</ele>
        <time>2026-05-10T09:02:18Z</time>
      </trkpt>
      <trkpt lat="46.07078" lon="5.61378">
        <ele>873.2</ele>
        <time>2026-05-10T09:02:19Z</time>
      </trkpt>
      <trkpt lat="46.0708" lon="5.61379">
        <ele>873.2</ele>
        <time>2026-05-10T09:02:20Z</time>
      </trkpt>
      <trkpt lat="46.07083" lon="5.61381">
        <ele>873.4</ele>
        <time>2026-05-10T09:02:21Z</time>
      </trkpt>
      <trkpt lat="46.07086" lon="5.61382">
        <ele>873.4</ele>
        <time>2026-05-10T09:02:22Z</time>
      </trkpt>
      <trkpt lat="46.07089" lon="5.61383">
        <ele>873.4</ele>
        <time>2026-05-10T09:02:23Z</time>
      </trkpt>
      <trkpt lat="46.07093" lon="5.61383">
        <ele>873.4</ele>
        <time>2026-05-10T09:02:24Z</time>
      </trkpt>
      <trkpt lat="46.07095" lon="5.61384">
        <ele>873.8</ele>
        <time>2026-05-10T09:02:25Z</time>
      </trkpt>
      <trkpt lat="46.07098" lon="5.61384">
        <ele>874</ele>
        <time>2026-05-10T09:02:26Z</time>
      </trkpt>
      <trkpt lat="46.071" lon="5.61384">
        <ele>874</ele>
        <time>2026-05-10T09:02:27Z</time>
      </trkpt>
      <trkpt lat="46.07103" lon="5.61384">
        <ele>874</ele>
        <time>2026-05-10T09:02:28Z</time>
      </trkpt>
      <trkpt lat="46.07106" lon="5.61385">
        <ele>874.2</ele>
        <time>2026-05-10T09:02:29Z</time>
      </trkpt>
      <trkpt lat="46.07109" lon="5.61385">
        <ele>874.2</ele>
        <time>2026-05-10T09:02:30Z</time>
      </trkpt>
      <trkpt lat="46.07111" lon="5.61386">
        <ele>874.2</ele>
        <time>2026-05-10T09:02:31Z</time>
      </trkpt>
      <trkpt lat="46.07114" lon="5.61386">
        <ele>874.2</ele>
        <time>2026-05-10T09:02:32Z</time>
      </trkpt>
      <trkpt lat="46.07117" lon="5.61386">
        <ele>874.2</ele>
        <time>2026-05-10T09:02:33Z</time>
      </trkpt>
      <trkpt lat="46.0712" lon="5.61387">
        <ele>874.2</ele>
        <time>2026-05-10T09:02:34Z</time>
      </trkpt>
      <trkpt lat="46.07123" lon="5.61387">
        <ele>874.2</ele>
        <time>2026-05-10T09:02:35Z</time>
      </trkpt>
      <trkpt lat="46.07126" lon="5.61388">
        <ele>874.6</ele>
        <time>2026-05-10T09:02:36Z</time>
      </trkpt>
      <trkpt lat="46.07129" lon="5.61389">
        <ele>874.6</ele>
        <time>2026-05-10T09:02:37Z</time>
      </trkpt>
      <trkpt lat="46.07132" lon="5.6139">
        <ele>874.6</ele>
        <time>2026-05-10T09:02:38Z</time>
      </trkpt>
      <trkpt lat="46.07135" lon="5.61391">
        <ele>874.6</ele>
        <time>2026-05-10T09:02:39Z</time>
      </trkpt>
      <trkpt lat="46.07139" lon="5.61391">
        <ele>874.8</ele>
        <time>2026-05-10T09:02:40Z</time>
      </trkpt>
      <trkpt lat="46.07143" lon="5.61392">
        <ele>874.8</ele>
        <time>2026-05-10T09:02:41Z</time>
      </trkpt>
      <trkpt lat="46.07146" lon="5.61393">
        <ele>874.8</ele>
        <time>2026-05-10T09:02:42Z</time>
      </trkpt>
      <trkpt lat="46.07151" lon="5.61394">
        <ele>874.8</ele>
        <time>2026-05-10T09:02:43Z</time>
      </trkpt>
      <trkpt lat="46.07153" lon="5.61395">
        <ele>875</ele>
        <time>2026-05-10T09:02:44Z</time>
      </trkpt>
      <trkpt lat="46.07156" lon="5.61395">
        <ele>875</ele>
        <time>2026-05-10T09:02:45Z</time>
      </trkpt>
      <trkpt lat="46.07158" lon="5.61396">
        <ele>875</ele>
        <time>2026-05-10T09:02:46Z</time>
      </trkpt>
      <trkpt lat="46.07162" lon="5.61397">
        <ele>875</ele>
        <time>2026-05-10T09:02:47Z</time>
      </trkpt>
      <trkpt lat="46.07165" lon="5.61397">
        <ele>875</ele>
        <time>2026-05-10T09:02:48Z</time>
      </trkpt>
      <trkpt lat="46.07169" lon="5.61399">
        <ele>875</ele>
        <time>2026-05-10T09:02:49Z</time>
      </trkpt>
      <trkpt lat="46.07172" lon="5.614">
        <ele>875</ele>
        <time>2026-05-10T09:02:50Z</time>
      </trkpt>
      <trkpt lat="46.07176" lon="5.61401">
        <ele>875</ele>
        <time>2026-05-10T09:02:51Z</time>
      </trkpt>
      <trkpt lat="46.07176" lon="5.61401">
        <ele>874.8</ele>
        <time>2026-05-10T09:02:52Z</time>
      </trkpt>
      <trkpt lat="46.0718" lon="5.61401">
        <ele>874.8</ele>
        <time>2026-05-10T09:02:53Z</time>
      </trkpt>
      <trkpt lat="46.07183" lon="5.61401">
        <ele>874.8</ele>
        <time>2026-05-10T09:02:54Z</time>
      </trkpt>
      <trkpt lat="46.07185" lon="5.61401">
        <ele>874.8</ele>
        <time>2026-05-10T09:02:55Z</time>
      </trkpt>
      <trkpt lat="46.07187" lon="5.61402">
        <ele>875</ele>
        <time>2026-05-10T09:02:56Z</time>
      </trkpt>
      <trkpt lat="46.07189" lon="5.61402">
        <ele>875</ele>
        <time>2026-05-10T09:02:57Z</time>
      </trkpt>
      <trkpt lat="46.0719" lon="5.61403">
        <ele>875</ele>
        <time>2026-05-10T09:02:58Z</time>
      </trkpt>
      <trkpt lat="46.0719" lon="5.61403">
        <ele>875</ele>
        <time>2026-05-10T09:02:59Z</time>
      </trkpt>
      <trkpt lat="46.0719" lon="5.61403">
        <ele>875.4</ele>
        <time>2026-05-10T09:03:00Z</time>
      </trkpt>
      <trkpt lat="46.07189" lon="5.61402">
        <ele>875.4</ele>
        <time>2026-05-10T09:03:03Z</time>
      </trkpt>
      <trkpt lat="46.07188" lon="5.61401">
        <ele>875.4</ele>
        <time>2026-05-10T09:03:04Z</time>
      </trkpt>
      <trkpt lat="46.07186" lon="5.61401">
        <ele>875.4</ele>
        <time>2026-05-10T09:03:05Z</time>
      </trkpt>
      <trkpt lat="46.07185" lon="5.61401">
        <ele>875.4</ele>
        <time>2026-05-10T09:03:06Z</time>
      </trkpt>
      <trkpt lat="46.07184" lon="5.61402">
        <ele>875.4</ele>
        <time>2026-05-10T09:03:07Z</time>
      </trkpt>
      <trkpt lat="46.07184" lon="5.61403">
        <ele>875.4</ele>
        <time>2026-05-10T09:03:08Z</time>
      </trkpt>
      <trkpt lat="46.07184" lon="5.61403">
        <ele>876.2</ele>
        <time>2026-05-10T09:04:51Z</time>
      </trkpt>
      <trkpt lat="46.07185" lon="5.61403">
        <ele>876.2</ele>
        <time>2026-05-10T09:04:52Z</time>
      </trkpt>
      <trkpt lat="46.07185" lon="5.61403">
        <ele>875.8</ele>
        <time>2026-05-10T09:04:53Z</time>
      </trkpt>
      <trkpt lat="46.07186" lon="5.61403">
        <ele>875.8</ele>
        <time>2026-05-10T09:04:54Z</time>
      </trkpt>
      <trkpt lat="46.07186" lon="5.61403">
        <ele>875.8</ele>
        <time>2026-05-10T09:04:55Z</time>
      </trkpt>
      <trkpt lat="46.07188" lon="5.61403">
        <ele>875.6</ele>
        <time>2026-05-10T09:05:17Z</time>
      </trkpt>
      <trkpt lat="46.07189" lon="5.61404">
        <ele>875.6</ele>
        <time>2026-05-10T09:05:18Z</time>
      </trkpt>
      <trkpt lat="46.07191" lon="5.61405">
        <ele>875.6</ele>
        <time>2026-05-10T09:05:19Z</time>
      </trkpt>
      <trkpt lat="46.07192" lon="5.61405">
        <ele>875.6</ele>
        <time>2026-05-10T09:05:20Z</time>
      </trkpt>
      <trkpt lat="46.07194" lon="5.61404">
        <ele>875.4</ele>
        <time>2026-05-10T09:05:21Z</time>
      </trkpt>
      <trkpt lat="46.07197" lon="5.61404">
        <ele>875.2</ele>
        <time>2026-05-10T09:05:22Z</time>
      </trkpt>
      <trkpt lat="46.072" lon="5.61403">
        <ele>875.2</ele>
        <time>2026-05-10T09:05:23Z</time>
      </trkpt>
      <trkpt lat="46.07202" lon="5.61403">
        <ele>874.8</ele>
        <time>2026-05-10T09:05:24Z</time>
      </trkpt>
      <trkpt lat="46.07205" lon="5.61403">
        <ele>874.8</ele>
        <time>2026-05-10T09:05:25Z</time>
      </trkpt>
      <trkpt lat="46.07209" lon="5.61403">
        <ele>874.6</ele>
        <time>2026-05-10T09:05:26Z</time>
      </trkpt>
      <trkpt lat="46.07213" lon="5.61403">
        <ele>874.2</ele>
        <time>2026-05-10T09:05:27Z</time>
      </trkpt>
      <trkpt lat="46.07216" lon="5.61403">
        <ele>874.2</ele>
        <time>2026-05-10T09:05:28Z</time>
      </trkpt>
      <trkpt lat="46.07221" lon="5.61403">
        <ele>874.2</ele>
        <time>2026-05-10T09:05:29Z</time>
      </trkpt>
      <trkpt lat="46.07225" lon="5.61403">
        <ele>874</ele>
        <time>2026-05-10T09:05:30Z</time>
      </trkpt>
      <trkpt lat="46.07228" lon="5.61402">
        <ele>874</ele>
        <time>2026-05-10T09:05:31Z</time>
      </trkpt>
      <trkpt lat="46.07232" lon="5.61405">
        <ele>874</ele>
        <time>2026-05-10T09:05:32Z</time>
      </trkpt>
      <trkpt lat="46.07236" lon="5.61405">
        <ele>874</ele>
        <time>2026-05-10T09:05:33Z</time>
      </trkpt>
      <trkpt lat="46.07239" lon="5.61406">
        <ele>874</ele>
        <time>2026-05-10T09:05:34Z</time>
      </trkpt>
      <trkpt lat="46.07243" lon="5.61407">
        <ele>874</ele>
        <time>2026-05-10T09:05:35Z</time>
      </trkpt>
      <trkpt lat="46.07246" lon="5.61409">
        <ele>874</ele>
        <time>2026-05-10T09:05:36Z</time>
      </trkpt>
      <trkpt lat="46.0725" lon="5.6141">
        <ele>874</ele>
        <time>2026-05-10T09:05:37Z</time>
      </trkpt>
      <trkpt lat="46.07253" lon="5.61411">
        <ele>874</ele>
        <time>2026-05-10T09:05:38Z</time>
      </trkpt>
      <trkpt lat="46.07257" lon="5.61415">
        <ele>874</ele>
        <time>2026-05-10T09:05:39Z</time>
      </trkpt>
      <trkpt lat="46.0726" lon="5.61419">
        <ele>873.8</ele>
        <time>2026-05-10T09:05:40Z</time>
      </trkpt>
      <trkpt lat="46.07262" lon="5.61424">
        <ele>873.8</ele>
        <time>2026-05-10T09:05:41Z</time>
      </trkpt>
      <trkpt lat="46.07264" lon="5.61429">
        <ele>873.8</ele>
        <time>2026-05-10T09:05:42Z</time>
      </trkpt>
      <trkpt lat="46.07264" lon="5.61436">
        <ele>873.4</ele>
        <time>2026-05-10T09:05:43Z</time>
      </trkpt>
      <trkpt lat="46.07265" lon="5.61442">
        <ele>873.4</ele>
        <time>2026-05-10T09:05:44Z</time>
      </trkpt>
      <trkpt lat="46.07267" lon="5.61448">
        <ele>873.4</ele>
        <time>2026-05-10T09:05:45Z</time>
      </trkpt>
      <trkpt lat="46.07269" lon="5.61452">
        <ele>873.4</ele>
        <time>2026-05-10T09:05:46Z</time>
      </trkpt>
      <trkpt lat="46.0727" lon="5.61457">
        <ele>873.8</ele>
        <time>2026-05-10T09:05:47Z</time>
      </trkpt>
      <trkpt lat="46.07271" lon="5.61461">
        <ele>873.8</ele>
        <time>2026-05-10T09:05:48Z</time>
      </trkpt>
      <trkpt lat="46.07272" lon="5.61466">
        <ele>873.8</ele>
        <time>2026-05-10T09:05:49Z</time>
      </trkpt>
      <trkpt lat="46.07273" lon="5.61469">
        <ele>874</ele>
        <time>2026-05-10T09:05:50Z</time>
      </trkpt>
      <trkpt lat="46.07274" lon="5.61473">
        <ele>874</ele>
        <time>2026-05-10T09:05:51Z</time>
      </trkpt>
      <trkpt lat="46.07276" lon="5.61475">
        <ele>874.4</ele>
        <time>2026-05-10T09:05:52Z</time>
      </trkpt>
      <trkpt lat="46.07277" lon="5.61476">
        <ele>874.4</ele>
        <time>2026-05-10T09:05:53Z</time>
      </trkpt>
      <trkpt lat="46.07278" lon="5.61477">
        <ele>874.8</ele>
        <time>2026-05-10T09:05:54Z</time>
      </trkpt>
      <trkpt lat="46.07279" lon="5.61479">
        <ele>875</ele>
        <time>2026-05-10T09:05:55Z</time>
      </trkpt>
      <trkpt lat="46.0728" lon="5.6148">
        <ele>875.6</ele>
        <time>2026-05-10T09:05:56Z</time>
      </trkpt>
      <trkpt lat="46.07281" lon="5.61481">
        <ele>875.8</ele>
        <time>2026-05-10T09:05:57Z</time>
      </trkpt>
      <trkpt lat="46.07282" lon="5.61483">
        <ele>876.2</ele>
        <time>2026-05-10T09:05:58Z</time>
      </trkpt>
      <trkpt lat="46.07283" lon="5.61483">
        <ele>876.2</ele>
        <time>2026-05-10T09:05:59Z</time>
      </trkpt>
      <trkpt lat="46.07284" lon="5.61484">
        <ele>876.2</ele>
        <time>2026-05-10T09:06:00Z</time>
      </trkpt>
      <trkpt lat="46.07285" lon="5.61484">
        <ele>876.2</ele>
        <time>2026-05-10T09:06:01Z</time>
      </trkpt>
      <trkpt lat="46.07286" lon="5.61484">
        <ele>876.2</ele>
        <time>2026-05-10T09:06:02Z</time>
      </trkpt>
      <trkpt lat="46.07288" lon="5.61483">
        <ele>876.4</ele>
        <time>2026-05-10T09:06:03Z</time>
      </trkpt>
      <trkpt lat="46.07289" lon="5.6148">
        <ele>876.4</ele>
        <time>2026-05-10T09:06:04Z</time>
      </trkpt>
      <trkpt lat="46.0729" lon="5.61478">
        <ele>876.4</ele>
        <time>2026-05-10T09:06:05Z</time>
      </trkpt>
      <trkpt lat="46.07291" lon="5.61476">
        <ele>876.4</ele>
        <time>2026-05-10T09:06:06Z</time>
      </trkpt>
      <trkpt lat="46.07293" lon="5.61474">
        <ele>876.4</ele>
        <time>2026-05-10T09:06:07Z</time>
      </trkpt>
      <trkpt lat="46.07295" lon="5.61474">
        <ele>876.4</ele>
        <time>2026-05-10T09:06:08Z</time>
      </trkpt>
      <trkpt lat="46.07295" lon="5.61474">
        <ele>876.2</ele>
        <time>2026-05-10T09:06:09Z</time>
      </trkpt>
      <trkpt lat="46.07296" lon="5.61475">
        <ele>876.2</ele>
        <time>2026-05-10T09:06:10Z</time>
      </trkpt>
      <trkpt lat="46.07297" lon="5.61474">
        <ele>876.2</ele>
        <time>2026-05-10T09:06:11Z</time>
      </trkpt>
      <trkpt lat="46.07298" lon="5.61474">
        <ele>876.2</ele>
        <time>2026-05-10T09:06:12Z</time>
      </trkpt>
      <trkpt lat="46.07298" lon="5.61473">
        <ele>876.2</ele>
        <time>2026-05-10T09:06:13Z</time>
      </trkpt>
      <trkpt lat="46.07298" lon="5.61471">
        <ele>876.2</ele>
        <time>2026-05-10T09:06:14Z</time>
      </trkpt>
      <trkpt lat="46.07297" lon="5.61468">
        <ele>875.8</ele>
        <time>2026-05-10T09:06:15Z</time>
      </trkpt>
      <trkpt lat="46.07295" lon="5.61465">
        <ele>875.8</ele>
        <time>2026-05-10T09:06:16Z</time>
      </trkpt>
      <trkpt lat="46.07291" lon="5.61466">
        <ele>875.8</ele>
        <time>2026-05-10T09:06:17Z</time>
      </trkpt>
      <trkpt lat="46.07288" lon="5.61468">
        <ele>875.8</ele>
        <time>2026-05-10T09:06:18Z</time>
      </trkpt>
      <trkpt lat="46.07287" lon="5.61471">
        <ele>876.2</ele>
        <time>2026-05-10T09:06:19Z</time>
      </trkpt>
      <trkpt lat="46.07286" lon="5.61473">
        <ele>876.2</ele>
        <time>2026-05-10T09:06:20Z</time>
      </trkpt>
      <trkpt lat="46.07284" lon="5.61475">
        <ele>876.2</ele>
        <time>2026-05-10T09:06:21Z</time>
      </trkpt>
      <trkpt lat="46.07283" lon="5.61476">
        <ele>876.2</ele>
        <time>2026-05-10T09:06:22Z</time>
      </trkpt>
      <trkpt lat="46.07281" lon="5.61478">
        <ele>876.2</ele>
        <time>2026-05-10T09:06:23Z</time>
      </trkpt>
      <trkpt lat="46.07279" lon="5.6148">
        <ele>876.2</ele>
        <time>2026-05-10T09:06:24Z</time>
      </trkpt>
      <trkpt lat="46.07278" lon="5.61482">
        <ele>876.2</ele>
        <time>2026-05-10T09:06:25Z</time>
      </trkpt>
      <trkpt lat="46.07277" lon="5.61484">
        <ele>876.2</ele>
        <time>2026-05-10T09:06:26Z</time>
      </trkpt>
      <trkpt lat="46.07277" lon="5.61485">
        <ele>876.2</ele>
        <time>2026-05-10T09:06:27Z</time>
      </trkpt>
      <trkpt lat="46.07277" lon="5.61486">
        <ele>876.2</ele>
        <time>2026-05-10T09:06:28Z</time>
      </trkpt>
      <trkpt lat="46.07279" lon="5.61488">
        <ele>876.6</ele>
        <time>2026-05-10T09:07:43Z</time>
      </trkpt>
      <trkpt lat="46.0728" lon="5.61489">
        <ele>876.6</ele>
        <time>2026-05-10T09:07:44Z</time>
      </trkpt>
      <trkpt lat="46.07282" lon="5.6149">
        <ele>876.6</ele>
        <time>2026-05-10T09:07:45Z</time>
      </trkpt>
      <trkpt lat="46.07284" lon="5.6149">
        <ele>876.6</ele>
        <time>2026-05-10T09:07:46Z</time>
      </trkpt>
      <trkpt lat="46.07287" lon="5.61489">
        <ele>876.4</ele>
        <time>2026-05-10T09:07:47Z</time>
      </trkpt>
      <trkpt lat="46.07288" lon="5.61487">
        <ele>876.4</ele>
        <time>2026-05-10T09:07:48Z</time>
      </trkpt>
      <trkpt lat="46.07289" lon="5.61485">
        <ele>876.4</ele>
        <time>2026-05-10T09:07:49Z</time>
      </trkpt>
      <trkpt lat="46.0729" lon="5.61483">
        <ele>877.2</ele>
        <time>2026-05-10T09:07:50Z</time>
      </trkpt>
      <trkpt lat="46.07291" lon="5.61481">
        <ele>876.6</ele>
        <time>2026-05-10T09:07:51Z</time>
      </trkpt>
      <trkpt lat="46.07292" lon="5.61478">
        <ele>876.6</ele>
        <time>2026-05-10T09:07:52Z</time>
      </trkpt>
      <trkpt lat="46.07293" lon="5.61476">
        <ele>876.6</ele>
        <time>2026-05-10T09:07:53Z</time>
      </trkpt>
      <trkpt lat="46.07294" lon="5.61474">
        <ele>876.4</ele>
        <time>2026-05-10T09:07:54Z</time>
      </trkpt>
      <trkpt lat="46.07295" lon="5.61472">
        <ele>876.4</ele>
        <time>2026-05-10T09:07:55Z</time>
      </trkpt>
      <trkpt lat="46.07296" lon="5.6147">
        <ele>876.4</ele>
        <time>2026-05-10T09:07:56Z</time>
      </trkpt>
      <trkpt lat="46.07297" lon="5.61468">
        <ele>876.2</ele>
        <time>2026-05-10T09:07:57Z</time>
      </trkpt>
      <trkpt lat="46.07299" lon="5.61466">
        <ele>876.2</ele>
        <time>2026-05-10T09:07:58Z</time>
      </trkpt>
      <trkpt lat="46.073" lon="5.61463">
        <ele>876.2</ele>
        <time>2026-05-10T09:07:59Z</time>
      </trkpt>
      <trkpt lat="46.07303" lon="5.6146">
        <ele>876</ele>
        <time>2026-05-10T09:08:00Z</time>
      </trkpt>
      <trkpt lat="46.07305" lon="5.61457">
        <ele>876</ele>
        <time>2026-05-10T09:08:01Z</time>
      </trkpt>
      <trkpt lat="46.07308" lon="5.61453">
        <ele>876</ele>
        <time>2026-05-10T09:08:02Z</time>
      </trkpt>
      <trkpt lat="46.0731" lon="5.61449">
        <ele>876</ele>
        <time>2026-05-10T09:08:03Z</time>
      </trkpt>
      <trkpt lat="46.07313" lon="5.61446">
        <ele>875.6</ele>
        <time>2026-05-10T09:08:04Z</time>
      </trkpt>
      <trkpt lat="46.07315" lon="5.61444">
        <ele>875.6</ele>
        <time>2026-05-10T09:08:05Z</time>
      </trkpt>
      <trkpt lat="46.07318" lon="5.61443">
        <ele>875.6</ele>
        <time>2026-05-10T09:08:06Z</time>
      </trkpt>
      <trkpt lat="46.07321" lon="5.61441">
        <ele>875.6</ele>
        <time>2026-05-10T09:08:07Z</time>
      </trkpt>
      <trkpt lat="46.07323" lon="5.61439">
        <ele>875.6</ele>
        <time>2026-05-10T09:08:08Z</time>
      </trkpt>
      <trkpt lat="46.07325" lon="5.61437">
        <ele>875.6</ele>
        <time>2026-05-10T09:08:09Z</time>
      </trkpt>
      <trkpt lat="46.07326" lon="5.61436">
        <ele>876.4</ele>
        <time>2026-05-10T09:08:10Z</time>
      </trkpt>
      <trkpt lat="46.07327" lon="5.61436">
        <ele>877</ele>
        <time>2026-05-10T09:08:11Z</time>
      </trkpt>
      <trkpt lat="46.07329" lon="5.61435">
        <ele>877</ele>
        <time>2026-05-10T09:08:12Z</time>
      </trkpt>
      <trkpt lat="46.07331" lon="5.61435">
        <ele>877.2</ele>
        <time>2026-05-10T09:08:13Z</time>
      </trkpt>
      <trkpt lat="46.07332" lon="5.61434">
        <ele>877.2</ele>
        <time>2026-05-10T09:08:14Z</time>
      </trkpt>
      <trkpt lat="46.07333" lon="5.61433">
        <ele>877.8</ele>
        <time>2026-05-10T09:08:15Z</time>
      </trkpt>
      <trkpt lat="46.07334" lon="5.61432">
        <ele>877.8</ele>
        <time>2026-05-10T09:08:16Z</time>
      </trkpt>
      <trkpt lat="46.07335" lon="5.61431">
        <ele>878</ele>
        <time>2026-05-10T09:08:17Z</time>
      </trkpt>
      <trkpt lat="46.07336" lon="5.6143">
        <ele>878.4</ele>
        <time>2026-05-10T09:08:18Z</time>
      </trkpt>
      <trkpt lat="46.07337" lon="5.61428">
        <ele>878.4</ele>
        <time>2026-05-10T09:08:19Z</time>
      </trkpt>
      <trkpt lat="46.07338" lon="5.61426">
        <ele>878.6</ele>
        <time>2026-05-10T09:08:20Z</time>
      </trkpt>
      <trkpt lat="46.07339" lon="5.61425">
        <ele>878.8</ele>
        <time>2026-05-10T09:08:21Z</time>
      </trkpt>
      <trkpt lat="46.07341" lon="5.61423">
        <ele>878.8</ele>
        <time>2026-05-10T09:08:22Z</time>
      </trkpt>
      <trkpt lat="46.07343" lon="5.61422">
        <ele>878.8</ele>
        <time>2026-05-10T09:08:23Z</time>
      </trkpt>
      <trkpt lat="46.07344" lon="5.61419">
        <ele>879.2</ele>
        <time>2026-05-10T09:08:24Z</time>
      </trkpt>
      <trkpt lat="46.07346" lon="5.61418">
        <ele>879.2</ele>
        <time>2026-05-10T09:08:25Z</time>
      </trkpt>
      <trkpt lat="46.07348" lon="5.61418">
        <ele>879.2</ele>
        <time>2026-05-10T09:08:26Z</time>
      </trkpt>
      <trkpt lat="46.0735" lon="5.61418">
        <ele>879.8</ele>
        <time>2026-05-10T09:08:27Z</time>
      </trkpt>
      <trkpt lat="46.07352" lon="5.61419">
        <ele>879.8</ele>
        <time>2026-05-10T09:08:28Z</time>
      </trkpt>
      <trkpt lat="46.07354" lon="5.6142">
        <ele>880</ele>
        <time>2026-05-10T09:08:29Z</time>
      </trkpt>
      <trkpt lat="46.07355" lon="5.61419">
        <ele>880.4</ele>
        <time>2026-05-10T09:08:30Z</time>
      </trkpt>
      <trkpt lat="46.07357" lon="5.61419">
        <ele>880.8</ele>
        <time>2026-05-10T09:08:31Z</time>
      </trkpt>
      <trkpt lat="46.07358" lon="5.61418">
        <ele>881</ele>
        <time>2026-05-10T09:08:32Z</time>
      </trkpt>
      <trkpt lat="46.07358" lon="5.61418">
        <ele>881.2</ele>
        <time>2026-05-10T09:08:33Z</time>
      </trkpt>
      <trkpt lat="46.07358" lon="5.61418">
        <ele>881.2</ele>
        <time>2026-05-10T09:08:34Z</time>
      </trkpt>
      <trkpt lat="46.07358" lon="5.61417">
        <ele>881.6</ele>
        <time>2026-05-10T09:08:35Z</time>
      </trkpt>
      <trkpt lat="46.07357" lon="5.61416">
        <ele>881.6</ele>
        <time>2026-05-10T09:08:36Z</time>
      </trkpt>
      <trkpt lat="46.07357" lon="5.61415">
        <ele>882</ele>
        <time>2026-05-10T09:08:40Z</time>
      </trkpt>
      <trkpt lat="46.07358" lon="5.61415">
        <ele>882</ele>
        <time>2026-05-10T09:08:41Z</time>
      </trkpt>
      <trkpt lat="46.07359" lon="5.61415">
        <ele>882</ele>
        <time>2026-05-10T09:08:42Z</time>
      </trkpt>
      <trkpt lat="46.07359" lon="5.61415">
        <ele>882</ele>
        <time>2026-05-10T09:08:43Z</time>
      </trkpt>
      <trkpt lat="46.07358" lon="5.61415">
        <ele>882</ele>
        <time>2026-05-10T09:08:44Z</time>
      </trkpt>
      <trkpt lat="46.07358" lon="5.61415">
        <ele>882.4</ele>
        <time>2026-05-10T09:08:54Z</time>
      </trkpt>
      <trkpt lat="46.07359" lon="5.61416">
        <ele>882.4</ele>
        <time>2026-05-10T09:08:55Z</time>
      </trkpt>
      <trkpt lat="46.0736" lon="5.61416">
        <ele>882.4</ele>
        <time>2026-05-10T09:08:56Z</time>
      </trkpt>
      <trkpt lat="46.07362" lon="5.61416">
        <ele>882.4</ele>
        <time>2026-05-10T09:08:57Z</time>
      </trkpt>
      <trkpt lat="46.07363" lon="5.61416">
        <ele>882.8</ele>
        <time>2026-05-10T09:08:58Z</time>
      </trkpt>
      <trkpt lat="46.07364" lon="5.61416">
        <ele>883</ele>
        <time>2026-05-10T09:08:59Z</time>
      </trkpt>
      <trkpt lat="46.07366" lon="5.61416">
        <ele>883</ele>
        <time>2026-05-10T09:09:00Z</time>
      </trkpt>
      <trkpt lat="46.07366" lon="5.61415">
        <ele>883</ele>
        <time>2026-05-10T09:09:01Z</time>
      </trkpt>
      <trkpt lat="46.07367" lon="5.61414">
        <ele>883</ele>
        <time>2026-05-10T09:09:02Z</time>
      </trkpt>
      <trkpt lat="46.07367" lon="5.61413">
        <ele>883</ele>
        <time>2026-05-10T09:09:03Z</time>
      </trkpt>
      <trkpt lat="46.07368" lon="5.61412">
        <ele>883.4</ele>
        <time>2026-05-10T09:09:04Z</time>
      </trkpt>
      <trkpt lat="46.07369" lon="5.61412">
        <ele>883.4</ele>
        <time>2026-05-10T09:09:05Z</time>
      </trkpt>
      <trkpt lat="46.0737" lon="5.61412">
        <ele>883.8</ele>
        <time>2026-05-10T09:09:06Z</time>
      </trkpt>
      <trkpt lat="46.07371" lon="5.61412">
        <ele>884</ele>
        <time>2026-05-10T09:09:07Z</time>
      </trkpt>
      <trkpt lat="46.07372" lon="5.61412">
        <ele>884.2</ele>
        <time>2026-05-10T09:09:08Z</time>
      </trkpt>
      <trkpt lat="46.07373" lon="5.61411">
        <ele>884.2</ele>
        <time>2026-05-10T09:09:09Z</time>
      </trkpt>
      <trkpt lat="46.07374" lon="5.6141">
        <ele>884.6</ele>
        <time>2026-05-10T09:09:10Z</time>
      </trkpt>
      <trkpt lat="46.07374" lon="5.6141">
        <ele>884.8</ele>
        <time>2026-05-10T09:09:11Z</time>
      </trkpt>
      <trkpt lat="46.07373" lon="5.61408">
        <ele>884.8</ele>
        <time>2026-05-10T09:09:12Z</time>
      </trkpt>
      <trkpt lat="46.07376" lon="5.61404">
        <ele>885.4</ele>
        <time>2026-05-10T09:09:21Z</time>
      </trkpt>
      <trkpt lat="46.07377" lon="5.61404">
        <ele>885.8</ele>
        <time>2026-05-10T09:09:22Z</time>
      </trkpt>
      <trkpt lat="46.07378" lon="5.61404">
        <ele>885.8</ele>
        <time>2026-05-10T09:09:23Z</time>
      </trkpt>
      <trkpt lat="46.07379" lon="5.61403">
        <ele>885.8</ele>
        <time>2026-05-10T09:09:24Z</time>
      </trkpt>
      <trkpt lat="46.07379" lon="5.61403">
        <ele>885.8</ele>
        <time>2026-05-10T09:09:25Z</time>
      </trkpt>
      <trkpt lat="46.0738" lon="5.61402">
        <ele>885.8</ele>
        <time>2026-05-10T09:09:26Z</time>
      </trkpt>
      <trkpt lat="46.07381" lon="5.61402">
        <ele>886.2</ele>
        <time>2026-05-10T09:09:27Z</time>
      </trkpt>
      <trkpt lat="46.07381" lon="5.61401">
        <ele>886.4</ele>
        <time>2026-05-10T09:09:28Z</time>
      </trkpt>
      <trkpt lat="46.07382" lon="5.614">
        <ele>886.4</ele>
        <time>2026-05-10T09:09:29Z</time>
      </trkpt>
      <trkpt lat="46.07383" lon="5.61399">
        <ele>886.4</ele>
        <time>2026-05-10T09:09:30Z</time>
      </trkpt>
      <trkpt lat="46.07384" lon="5.61398">
        <ele>886.4</ele>
        <time>2026-05-10T09:09:31Z</time>
      </trkpt>
      <trkpt lat="46.07386" lon="5.61397">
        <ele>886.6</ele>
        <time>2026-05-10T09:09:32Z</time>
      </trkpt>
      <trkpt lat="46.07388" lon="5.61397">
        <ele>886.6</ele>
        <time>2026-05-10T09:09:33Z</time>
      </trkpt>
      <trkpt lat="46.0739" lon="5.61398">
        <ele>886.6</ele>
        <time>2026-05-10T09:09:34Z</time>
      </trkpt>
      <trkpt lat="46.07392" lon="5.61399">
        <ele>886.6</ele>
        <time>2026-05-10T09:09:35Z</time>
      </trkpt>
      <trkpt lat="46.07393" lon="5.61399">
        <ele>887.2</ele>
        <time>2026-05-10T09:09:36Z</time>
      </trkpt>
      <trkpt lat="46.07394" lon="5.61399">
        <ele>887.4</ele>
        <time>2026-05-10T09:09:37Z</time>
      </trkpt>
      <trkpt lat="46.07396" lon="5.614">
        <ele>887.6</ele>
        <time>2026-05-10T09:09:38Z</time>
      </trkpt>
      <trkpt lat="46.07398" lon="5.614">
        <ele>887.6</ele>
        <time>2026-05-10T09:09:39Z</time>
      </trkpt>
      <trkpt lat="46.07398" lon="5.614">
        <ele>887.6</ele>
        <time>2026-05-10T09:09:40Z</time>
      </trkpt>
      <trkpt lat="46.07399" lon="5.61401">
        <ele>888</ele>
        <time>2026-05-10T09:09:41Z</time>
      </trkpt>
      <trkpt lat="46.07401" lon="5.61401">
        <ele>888.2</ele>
        <time>2026-05-10T09:09:42Z</time>
      </trkpt>
      <trkpt lat="46.07403" lon="5.61402">
        <ele>888.2</ele>
        <time>2026-05-10T09:09:43Z</time>
      </trkpt>
      <trkpt lat="46.07404" lon="5.61401">
        <ele>888.2</ele>
        <time>2026-05-10T09:09:44Z</time>
      </trkpt>
      <trkpt lat="46.07405" lon="5.61401">
        <ele>888.6</ele>
        <time>2026-05-10T09:09:45Z</time>
      </trkpt>
      <trkpt lat="46.07406" lon="5.61399">
        <ele>888.6</ele>
        <time>2026-05-10T09:09:46Z</time>
      </trkpt>
      <trkpt lat="46.07407" lon="5.61398">
        <ele>888.6</ele>
        <time>2026-05-10T09:09:47Z</time>
      </trkpt>
      <trkpt lat="46.07407" lon="5.61397">
        <ele>888.6</ele>
        <time>2026-05-10T09:09:48Z</time>
      </trkpt>
      <trkpt lat="46.07408" lon="5.61396">
        <ele>888.6</ele>
        <time>2026-05-10T09:09:49Z</time>
      </trkpt>
      <trkpt lat="46.0741" lon="5.61394">
        <ele>888.8</ele>
        <time>2026-05-10T09:09:50Z</time>
      </trkpt>
      <trkpt lat="46.0741" lon="5.61393">
        <ele>888.8</ele>
        <time>2026-05-10T09:09:51Z</time>
      </trkpt>
      <trkpt lat="46.07411" lon="5.61392">
        <ele>888.8</ele>
        <time>2026-05-10T09:09:52Z</time>
      </trkpt>
      <trkpt lat="46.07411" lon="5.61391">
        <ele>888.8</ele>
        <time>2026-05-10T09:09:53Z</time>
      </trkpt>
      <trkpt lat="46.07412" lon="5.61391">
        <ele>888.8</ele>
        <time>2026-05-10T09:09:54Z</time>
      </trkpt>
      <trkpt lat="46.07412" lon="5.6139">
        <ele>889</ele>
        <time>2026-05-10T09:09:55Z</time>
      </trkpt>
      <trkpt lat="46.07413" lon="5.6139">
        <ele>889</ele>
        <time>2026-05-10T09:09:56Z</time>
      </trkpt>
      <trkpt lat="46.07414" lon="5.61389">
        <ele>889.2</ele>
        <time>2026-05-10T09:09:57Z</time>
      </trkpt>
      <trkpt lat="46.07415" lon="5.61388">
        <ele>889.2</ele>
        <time>2026-05-10T09:09:58Z</time>
      </trkpt>
      <trkpt lat="46.07416" lon="5.61389">
        <ele>889.8</ele>
        <time>2026-05-10T09:09:59Z</time>
      </trkpt>
      <trkpt lat="46.07417" lon="5.61389">
        <ele>889.8</ele>
        <time>2026-05-10T09:10:00Z</time>
      </trkpt>
      <trkpt lat="46.07418" lon="5.61389">
        <ele>890.2</ele>
        <time>2026-05-10T09:10:01Z</time>
      </trkpt>
      <trkpt lat="46.0742" lon="5.61388">
        <ele>890.4</ele>
        <time>2026-05-10T09:10:02Z</time>
      </trkpt>
      <trkpt lat="46.07421" lon="5.61386">
        <ele>890.4</ele>
        <time>2026-05-10T09:10:03Z</time>
      </trkpt>
      <trkpt lat="46.07422" lon="5.61385">
        <ele>890.8</ele>
        <time>2026-05-10T09:10:04Z</time>
      </trkpt>
      <trkpt lat="46.07423" lon="5.61384">
        <ele>891</ele>
        <time>2026-05-10T09:10:05Z</time>
      </trkpt>
      <trkpt lat="46.07424" lon="5.61383">
        <ele>891</ele>
        <time>2026-05-10T09:10:06Z</time>
      </trkpt>
      <trkpt lat="46.07426" lon="5.61382">
        <ele>891</ele>
        <time>2026-05-10T09:10:07Z</time>
      </trkpt>
      <trkpt lat="46.07427" lon="5.61381">
        <ele>891.2</ele>
        <time>2026-05-10T09:10:08Z</time>
      </trkpt>
      <trkpt lat="46.07428" lon="5.61381">
        <ele>891.6</ele>
        <time>2026-05-10T09:10:09Z</time>
      </trkpt>
      <trkpt lat="46.0743" lon="5.61381">
        <ele>891.8</ele>
        <time>2026-05-10T09:10:10Z</time>
      </trkpt>
      <trkpt lat="46.07431" lon="5.61381">
        <ele>892</ele>
        <time>2026-05-10T09:10:11Z</time>
      </trkpt>
      <trkpt lat="46.07431" lon="5.6138">
        <ele>892</ele>
        <time>2026-05-10T09:10:12Z</time>
      </trkpt>
      <trkpt lat="46.07433" lon="5.61379">
        <ele>892</ele>
        <time>2026-05-10T09:10:13Z</time>
      </trkpt>
      <trkpt lat="46.07434" lon="5.61378">
        <ele>892.4</ele>
        <time>2026-05-10T09:10:14Z</time>
      </trkpt>
      <trkpt lat="46.07435" lon="5.61377">
        <ele>892.4</ele>
        <time>2026-05-10T09:10:15Z</time>
      </trkpt>
      <trkpt lat="46.07436" lon="5.61377">
        <ele>892.6</ele>
        <time>2026-05-10T09:10:16Z</time>
      </trkpt>
      <trkpt lat="46.07437" lon="5.61376">
        <ele>892.8</ele>
        <time>2026-05-10T09:10:17Z</time>
      </trkpt>
      <trkpt lat="46.07437" lon="5.61376">
        <ele>893.4</ele>
        <time>2026-05-10T09:10:18Z</time>
      </trkpt>
      <trkpt lat="46.07437" lon="5.61376">
        <ele>893.4</ele>
        <time>2026-05-10T09:10:19Z</time>
      </trkpt>
      <trkpt lat="46.07438" lon="5.61376">
        <ele>893.8</ele>
        <time>2026-05-10T09:10:20Z</time>
      </trkpt>
      <trkpt lat="46.07438" lon="5.61375">
        <ele>894</ele>
        <time>2026-05-10T09:10:21Z</time>
      </trkpt>
      <trkpt lat="46.07439" lon="5.61375">
        <ele>894.4</ele>
        <time>2026-05-10T09:10:22Z</time>
      </trkpt>
      <trkpt lat="46.07439" lon="5.61375">
        <ele>894.4</ele>
        <time>2026-05-10T09:10:23Z</time>
      </trkpt>
      <trkpt lat="46.0744" lon="5.61374">
        <ele>894.8</ele>
        <time>2026-05-10T09:10:24Z</time>
      </trkpt>
      <trkpt lat="46.0744" lon="5.61373">
        <ele>894.8</ele>
        <time>2026-05-10T09:10:25Z</time>
      </trkpt>
      <trkpt lat="46.07439" lon="5.61372">
        <ele>894.8</ele>
        <time>2026-05-10T09:10:26Z</time>
      </trkpt>
      <trkpt lat="46.0744" lon="5.6137">
        <ele>895</ele>
        <time>2026-05-10T09:10:27Z</time>
      </trkpt>
      <trkpt lat="46.0744" lon="5.61369">
        <ele>895</ele>
        <time>2026-05-10T09:10:28Z</time>
      </trkpt>
      <trkpt lat="46.07441" lon="5.61368">
        <ele>895</ele>
        <time>2026-05-10T09:10:29Z</time>
      </trkpt>
      <trkpt lat="46.07443" lon="5.61369">
        <ele>895.4</ele>
        <time>2026-05-10T09:10:30Z</time>
      </trkpt>
      <trkpt lat="46.07443" lon="5.61369">
        <ele>895.4</ele>
        <time>2026-05-10T09:10:31Z</time>
      </trkpt>
      <trkpt lat="46.07444" lon="5.61369">
        <ele>895.6</ele>
        <time>2026-05-10T09:10:32Z</time>
      </trkpt>
      <trkpt lat="46.07447" lon="5.61367">
        <ele>895.8</ele>
        <time>2026-05-10T09:10:43Z</time>
      </trkpt>
      <trkpt lat="46.07449" lon="5.61366">
        <ele>895.8</ele>
        <time>2026-05-10T09:10:44Z</time>
      </trkpt>
      <trkpt lat="46.0745" lon="5.61365">
        <ele>896</ele>
        <time>2026-05-10T09:10:45Z</time>
      </trkpt>
      <trkpt lat="46.07451" lon="5.61364">
        <ele>896</ele>
        <time>2026-05-10T09:10:46Z</time>
      </trkpt>
      <trkpt lat="46.07453" lon="5.61363">
        <ele>896.2</ele>
        <time>2026-05-10T09:10:47Z</time>
      </trkpt>
      <trkpt lat="46.07454" lon="5.61362">
        <ele>896.2</ele>
        <time>2026-05-10T09:10:48Z</time>
      </trkpt>
      <trkpt lat="46.07456" lon="5.61362">
        <ele>896.2</ele>
        <time>2026-05-10T09:10:49Z</time>
      </trkpt>
      <trkpt lat="46.07458" lon="5.61361">
        <ele>896.6</ele>
        <time>2026-05-10T09:10:50Z</time>
      </trkpt>
      <trkpt lat="46.07459" lon="5.61361">
        <ele>897</ele>
        <time>2026-05-10T09:10:51Z</time>
      </trkpt>
      <trkpt lat="46.0746" lon="5.6136">
        <ele>897</ele>
        <time>2026-05-10T09:10:52Z</time>
      </trkpt>
      <trkpt lat="46.0746" lon="5.61361">
        <ele>897.4</ele>
        <time>2026-05-10T09:10:53Z</time>
      </trkpt>
      <trkpt lat="46.07461" lon="5.61361">
        <ele>897.6</ele>
        <time>2026-05-10T09:10:54Z</time>
      </trkpt>
      <trkpt lat="46.07464" lon="5.61359">
        <ele>898</ele>
        <time>2026-05-10T09:11:03Z</time>
      </trkpt>
      <trkpt lat="46.07466" lon="5.61358">
        <ele>898.4</ele>
        <time>2026-05-10T09:11:04Z</time>
      </trkpt>
      <trkpt lat="46.07467" lon="5.61357">
        <ele>898.4</ele>
        <time>2026-05-10T09:11:05Z</time>
      </trkpt>
      <trkpt lat="46.07468" lon="5.61357">
        <ele>898.4</ele>
        <time>2026-05-10T09:11:06Z</time>
      </trkpt>
      <trkpt lat="46.0747" lon="5.61355">
        <ele>898.4</ele>
        <time>2026-05-10T09:11:07Z</time>
      </trkpt>
      <trkpt lat="46.07472" lon="5.61354">
        <ele>898.4</ele>
        <time>2026-05-10T09:11:08Z</time>
      </trkpt>
      <trkpt lat="46.07475" lon="5.61353">
        <ele>898.4</ele>
        <time>2026-05-10T09:11:09Z</time>
      </trkpt>
      <trkpt lat="46.07476" lon="5.61353">
        <ele>898.4</ele>
        <time>2026-05-10T09:11:10Z</time>
      </trkpt>
      <trkpt lat="46.07476" lon="5.61352">
        <ele>898.6</ele>
        <time>2026-05-10T09:11:11Z</time>
      </trkpt>
      <trkpt lat="46.07477" lon="5.61352">
        <ele>898.6</ele>
        <time>2026-05-10T09:11:12Z</time>
      </trkpt>
      <trkpt lat="46.07479" lon="5.61352">
        <ele>898.8</ele>
        <time>2026-05-10T09:11:13Z</time>
      </trkpt>
      <trkpt lat="46.07481" lon="5.61351">
        <ele>898.8</ele>
        <time>2026-05-10T09:11:14Z</time>
      </trkpt>
      <trkpt lat="46.07483" lon="5.61349">
        <ele>898.8</ele>
        <time>2026-05-10T09:11:15Z</time>
      </trkpt>
      <trkpt lat="46.07485" lon="5.61347">
        <ele>898.8</ele>
        <time>2026-05-10T09:11:16Z</time>
      </trkpt>
      <trkpt lat="46.07486" lon="5.61345">
        <ele>899</ele>
        <time>2026-05-10T09:11:17Z</time>
      </trkpt>
      <trkpt lat="46.07487" lon="5.61344">
        <ele>899</ele>
        <time>2026-05-10T09:11:18Z</time>
      </trkpt>
      <trkpt lat="46.07488" lon="5.61343">
        <ele>899.6</ele>
        <time>2026-05-10T09:11:19Z</time>
      </trkpt>
      <trkpt lat="46.07489" lon="5.61343">
        <ele>899.8</ele>
        <time>2026-05-10T09:11:20Z</time>
      </trkpt>
      <trkpt lat="46.0749" lon="5.61343">
        <ele>900.2</ele>
        <time>2026-05-10T09:11:21Z</time>
      </trkpt>
      <trkpt lat="46.07491" lon="5.61343">
        <ele>900.4</ele>
        <time>2026-05-10T09:11:22Z</time>
      </trkpt>
      <trkpt lat="46.07491" lon="5.61342">
        <ele>900.4</ele>
        <time>2026-05-10T09:11:23Z</time>
      </trkpt>
      <trkpt lat="46.07493" lon="5.61341">
        <ele>900.8</ele>
        <time>2026-05-10T09:11:29Z</time>
      </trkpt>
      <trkpt lat="46.07494" lon="5.6134">
        <ele>901.2</ele>
        <time>2026-05-10T09:11:30Z</time>
      </trkpt>
      <trkpt lat="46.07494" lon="5.61339">
        <ele>901.2</ele>
        <time>2026-05-10T09:11:31Z</time>
      </trkpt>
      <trkpt lat="46.07501" lon="5.61334">
        <ele>902.8</ele>
        <time>2026-05-10T09:11:43Z</time>
      </trkpt>
      <trkpt lat="46.07502" lon="5.61333">
        <ele>902.8</ele>
        <time>2026-05-10T09:11:44Z</time>
      </trkpt>
      <trkpt lat="46.07502" lon="5.61333">
        <ele>902.8</ele>
        <time>2026-05-10T09:11:45Z</time>
      </trkpt>
      <trkpt lat="46.07504" lon="5.61332">
        <ele>903</ele>
        <time>2026-05-10T09:12:45Z</time>
      </trkpt>
      <trkpt lat="46.07505" lon="5.61331">
        <ele>903</ele>
        <time>2026-05-10T09:12:46Z</time>
      </trkpt>
      <trkpt lat="46.07506" lon="5.6133">
        <ele>903</ele>
        <time>2026-05-10T09:12:47Z</time>
      </trkpt>
      <trkpt lat="46.07507" lon="5.61329">
        <ele>903.2</ele>
        <time>2026-05-10T09:12:48Z</time>
      </trkpt>
      <trkpt lat="46.07507" lon="5.61328">
        <ele>903.4</ele>
        <time>2026-05-10T09:12:49Z</time>
      </trkpt>
      <trkpt lat="46.07508" lon="5.61328">
        <ele>903.4</ele>
        <time>2026-05-10T09:12:50Z</time>
      </trkpt>
      <trkpt lat="46.07509" lon="5.61327">
        <ele>903.6</ele>
        <time>2026-05-10T09:12:51Z</time>
      </trkpt>
      <trkpt lat="46.0751" lon="5.61327">
        <ele>904</ele>
        <time>2026-05-10T09:12:52Z</time>
      </trkpt>
      <trkpt lat="46.07511" lon="5.61327">
        <ele>904</ele>
        <time>2026-05-10T09:12:53Z</time>
      </trkpt>
      <trkpt lat="46.07512" lon="5.61327">
        <ele>904.6</ele>
        <time>2026-05-10T09:12:54Z</time>
      </trkpt>
      <trkpt lat="46.07514" lon="5.61327">
        <ele>904.8</ele>
        <time>2026-05-10T09:12:55Z</time>
      </trkpt>
      <trkpt lat="46.07515" lon="5.61327">
        <ele>905.2</ele>
        <time>2026-05-10T09:12:56Z</time>
      </trkpt>
      <trkpt lat="46.07515" lon="5.61327">
        <ele>905.4</ele>
        <time>2026-05-10T09:12:57Z</time>
      </trkpt>
      <trkpt lat="46.07516" lon="5.61326">
        <ele>905.6</ele>
        <time>2026-05-10T09:12:58Z</time>
      </trkpt>
      <trkpt lat="46.07517" lon="5.61325">
        <ele>905.8</ele>
        <time>2026-05-10T09:12:59Z</time>
      </trkpt>
      <trkpt lat="46.07518" lon="5.61324">
        <ele>906.2</ele>
        <time>2026-05-10T09:13:00Z</time>
      </trkpt>
      <trkpt lat="46.07519" lon="5.61324">
        <ele>906.4</ele>
        <time>2026-05-10T09:13:01Z</time>
      </trkpt>
      <trkpt lat="46.0752" lon="5.61323">
        <ele>906.8</ele>
        <time>2026-05-10T09:13:02Z</time>
      </trkpt>
      <trkpt lat="46.07521" lon="5.61322">
        <ele>906.8</ele>
        <time>2026-05-10T09:13:03Z</time>
      </trkpt>
      <trkpt lat="46.07521" lon="5.61321">
        <ele>907.2</ele>
        <time>2026-05-10T09:13:04Z</time>
      </trkpt>
      <trkpt lat="46.07521" lon="5.6132">
        <ele>907.2</ele>
        <time>2026-05-10T09:13:05Z</time>
      </trkpt>
      <trkpt lat="46.07522" lon="5.6132">
        <ele>907.6</ele>
        <time>2026-05-10T09:13:06Z</time>
      </trkpt>
      <trkpt lat="46.07522" lon="5.61318">
        <ele>907.6</ele>
        <time>2026-05-10T09:13:07Z</time>
      </trkpt>
      <trkpt lat="46.07522" lon="5.61317">
        <ele>908.2</ele>
        <time>2026-05-10T09:13:08Z</time>
      </trkpt>
      <trkpt lat="46.07523" lon="5.61317">
        <ele>908.2</ele>
        <time>2026-05-10T09:13:09Z</time>
      </trkpt>
      <trkpt lat="46.07524" lon="5.61316">
        <ele>908.2</ele>
        <time>2026-05-10T09:13:10Z</time>
      </trkpt>
      <trkpt lat="46.07526" lon="5.61316">
        <ele>908.4</ele>
        <time>2026-05-10T09:13:11Z</time>
      </trkpt>
      <trkpt lat="46.07528" lon="5.61315">
        <ele>908.4</ele>
        <time>2026-05-10T09:13:12Z</time>
      </trkpt>
      <trkpt lat="46.0753" lon="5.61315">
        <ele>908.8</ele>
        <time>2026-05-10T09:13:13Z</time>
      </trkpt>
      <trkpt lat="46.07532" lon="5.61315">
        <ele>909</ele>
        <time>2026-05-10T09:13:14Z</time>
      </trkpt>
      <trkpt lat="46.07533" lon="5.61314">
        <ele>909</ele>
        <time>2026-05-10T09:13:15Z</time>
      </trkpt>
      <trkpt lat="46.07534" lon="5.61313">
        <ele>909.4</ele>
        <time>2026-05-10T09:13:16Z</time>
      </trkpt>
      <trkpt lat="46.07535" lon="5.61313">
        <ele>909.4</ele>
        <time>2026-05-10T09:13:17Z</time>
      </trkpt>
      <trkpt lat="46.07535" lon="5.61312">
        <ele>909.4</ele>
        <time>2026-05-10T09:13:18Z</time>
      </trkpt>
      <trkpt lat="46.07535" lon="5.61311">
        <ele>909.8</ele>
        <time>2026-05-10T09:13:19Z</time>
      </trkpt>
      <trkpt lat="46.07535" lon="5.6131">
        <ele>910</ele>
        <time>2026-05-10T09:13:20Z</time>
      </trkpt>
      <trkpt lat="46.07535" lon="5.6131">
        <ele>910</ele>
        <time>2026-05-10T09:13:21Z</time>
      </trkpt>
      <trkpt lat="46.07537" lon="5.6131">
        <ele>910.8</ele>
        <time>2026-05-10T09:18:13Z</time>
      </trkpt>
      <trkpt lat="46.07537" lon="5.6131">
        <ele>910.8</ele>
        <time>2026-05-10T09:18:14Z</time>
      </trkpt>
      <trkpt lat="46.07537" lon="5.6131">
        <ele>910.8</ele>
        <time>2026-05-10T09:18:25Z</time>
      </trkpt>
      <trkpt lat="46.07537" lon="5.61309">
        <ele>910.8</ele>
        <time>2026-05-10T09:18:26Z</time>
      </trkpt>
      <trkpt lat="46.07537" lon="5.61309">
        <ele>910.8</ele>
        <time>2026-05-10T09:18:27Z</time>
      </trkpt>
      <trkpt lat="46.07539" lon="5.61307">
        <ele>912.2</ele>
        <time>2026-05-10T09:18:48Z</time>
      </trkpt>
      <trkpt lat="46.07541" lon="5.61306">
        <ele>912.2</ele>
        <time>2026-05-10T09:18:49Z</time>
      </trkpt>
      <trkpt lat="46.07543" lon="5.61305">
        <ele>912.2</ele>
        <time>2026-05-10T09:18:50Z</time>
      </trkpt>
      <trkpt lat="46.07545" lon="5.61304">
        <ele>912.4</ele>
        <time>2026-05-10T09:18:51Z</time>
      </trkpt>
      <trkpt lat="46.07546" lon="5.61302">
        <ele>912.6</ele>
        <time>2026-05-10T09:18:52Z</time>
      </trkpt>
      <trkpt lat="46.07548" lon="5.61301">
        <ele>912.6</ele>
        <time>2026-05-10T09:18:53Z</time>
      </trkpt>
      <trkpt lat="46.07549" lon="5.61299">
        <ele>912.6</ele>
        <time>2026-05-10T09:18:54Z</time>
      </trkpt>
      <trkpt lat="46.0755" lon="5.61299">
        <ele>912.6</ele>
        <time>2026-05-10T09:18:55Z</time>
      </trkpt>
      <trkpt lat="46.07551" lon="5.61299">
        <ele>912.8</ele>
        <time>2026-05-10T09:18:56Z</time>
      </trkpt>
      <trkpt lat="46.07552" lon="5.61299">
        <ele>912.8</ele>
        <time>2026-05-10T09:18:57Z</time>
      </trkpt>
      <trkpt lat="46.07554" lon="5.61298">
        <ele>912.8</ele>
        <time>2026-05-10T09:18:58Z</time>
      </trkpt>
      <trkpt lat="46.07555" lon="5.61297">
        <ele>913.2</ele>
        <time>2026-05-10T09:18:59Z</time>
      </trkpt>
      <trkpt lat="46.07558" lon="5.61296">
        <ele>913.6</ele>
        <time>2026-05-10T09:19:00Z</time>
      </trkpt>
      <trkpt lat="46.0756" lon="5.61295">
        <ele>913.6</ele>
        <time>2026-05-10T09:19:01Z</time>
      </trkpt>
      <trkpt lat="46.07562" lon="5.61294">
        <ele>913.8</ele>
        <time>2026-05-10T09:19:02Z</time>
      </trkpt>
      <trkpt lat="46.07564" lon="5.61293">
        <ele>913.8</ele>
        <time>2026-05-10T09:19:03Z</time>
      </trkpt>
      <trkpt lat="46.07565" lon="5.61293">
        <ele>914.2</ele>
        <time>2026-05-10T09:19:04Z</time>
      </trkpt>
      <trkpt lat="46.07567" lon="5.61292">
        <ele>914.2</ele>
        <time>2026-05-10T09:19:05Z</time>
      </trkpt>
      <trkpt lat="46.07568" lon="5.6129">
        <ele>914.6</ele>
        <time>2026-05-10T09:19:06Z</time>
      </trkpt>
      <trkpt lat="46.0757" lon="5.61287">
        <ele>914.6</ele>
        <time>2026-05-10T09:19:07Z</time>
      </trkpt>
      <trkpt lat="46.07571" lon="5.61285">
        <ele>914.6</ele>
        <time>2026-05-10T09:19:08Z</time>
      </trkpt>
      <trkpt lat="46.07573" lon="5.61283">
        <ele>914.6</ele>
        <time>2026-05-10T09:19:09Z</time>
      </trkpt>
      <trkpt lat="46.07575" lon="5.61281">
        <ele>914.6</ele>
        <time>2026-05-10T09:19:10Z</time>
      </trkpt>
      <trkpt lat="46.07577" lon="5.61278">
        <ele>914.6</ele>
        <time>2026-05-10T09:19:11Z</time>
      </trkpt>
      <trkpt lat="46.07579" lon="5.61275">
        <ele>914.6</ele>
        <time>2026-05-10T09:19:12Z</time>
      </trkpt>
      <trkpt lat="46.0758" lon="5.61273">
        <ele>915</ele>
        <time>2026-05-10T09:19:13Z</time>
      </trkpt>
      <trkpt lat="46.07581" lon="5.6127">
        <ele>915.2</ele>
        <time>2026-05-10T09:19:14Z</time>
      </trkpt>
      <trkpt lat="46.07582" lon="5.61268">
        <ele>915.4</ele>
        <time>2026-05-10T09:19:15Z</time>
      </trkpt>
      <trkpt lat="46.07583" lon="5.61266">
        <ele>915.4</ele>
        <time>2026-05-10T09:19:16Z</time>
      </trkpt>
      <trkpt lat="46.07584" lon="5.61264">
        <ele>915.8</ele>
        <time>2026-05-10T09:19:17Z</time>
      </trkpt>
      <trkpt lat="46.07585" lon="5.61263">
        <ele>915.8</ele>
        <time>2026-05-10T09:19:18Z</time>
      </trkpt>
      <trkpt lat="46.07587" lon="5.61261">
        <ele>915.8</ele>
        <time>2026-05-10T09:19:19Z</time>
      </trkpt>
      <trkpt lat="46.07589" lon="5.61259">
        <ele>915.8</ele>
        <time>2026-05-10T09:19:20Z</time>
      </trkpt>
      <trkpt lat="46.07591" lon="5.61258">
        <ele>916</ele>
        <time>2026-05-10T09:19:21Z</time>
      </trkpt>
      <trkpt lat="46.07591" lon="5.61257">
        <ele>916</ele>
        <time>2026-05-10T09:19:22Z</time>
      </trkpt>
      <trkpt lat="46.07592" lon="5.61255">
        <ele>916</ele>
        <time>2026-05-10T09:19:23Z</time>
      </trkpt>
      <trkpt lat="46.07593" lon="5.61253">
        <ele>916</ele>
        <time>2026-05-10T09:19:24Z</time>
      </trkpt>
      <trkpt lat="46.07595" lon="5.61248">
        <ele>915.8</ele>
        <time>2026-05-10T09:19:25Z</time>
      </trkpt>
      <trkpt lat="46.07596" lon="5.61244">
        <ele>915.8</ele>
        <time>2026-05-10T09:19:26Z</time>
      </trkpt>
      <trkpt lat="46.07597" lon="5.61241">
        <ele>915.4</ele>
        <time>2026-05-10T09:19:27Z</time>
      </trkpt>
      <trkpt lat="46.07598" lon="5.61238">
        <ele>915.2</ele>
        <time>2026-05-10T09:19:28Z</time>
      </trkpt>
      <trkpt lat="46.07598" lon="5.61238">
        <ele>915.2</ele>
        <time>2026-05-10T09:19:29Z</time>
      </trkpt>
      <trkpt lat="46.07598" lon="5.61238">
        <ele>915.2</ele>
        <time>2026-05-10T09:19:30Z</time>
      </trkpt>
      <trkpt lat="46.076" lon="5.61233">
        <ele>915.2</ele>
        <time>2026-05-10T09:19:32Z</time>
      </trkpt>
      <trkpt lat="46.07601" lon="5.61233">
        <ele>915.4</ele>
        <time>2026-05-10T09:19:33Z</time>
      </trkpt>
      <trkpt lat="46.07601" lon="5.61234">
        <ele>915.4</ele>
        <time>2026-05-10T09:19:36Z</time>
      </trkpt>
      <trkpt lat="46.07602" lon="5.61235">
        <ele>915.4</ele>
        <time>2026-05-10T09:19:37Z</time>
      </trkpt>
      <trkpt lat="46.07602" lon="5.61235">
        <ele>915.4</ele>
        <time>2026-05-10T09:19:38Z</time>
      </trkpt>
      <trkpt lat="46.07602" lon="5.61235">
        <ele>915.4</ele>
        <time>2026-05-10T09:19:39Z</time>
      </trkpt>
      <trkpt lat="46.07602" lon="5.61234">
        <ele>915.4</ele>
        <time>2026-05-10T09:19:40Z</time>
      </trkpt>
      <trkpt lat="46.07602" lon="5.61234">
        <ele>915.6</ele>
        <time>2026-05-10T09:19:41Z</time>
      </trkpt>
      <trkpt lat="46.07606" lon="5.61233">
        <ele>916.2</ele>
        <time>2026-05-10T09:19:53Z</time>
      </trkpt>
      <trkpt lat="46.07607" lon="5.61231">
        <ele>916.2</ele>
        <time>2026-05-10T09:19:54Z</time>
      </trkpt>
      <trkpt lat="46.07608" lon="5.61231">
        <ele>916.2</ele>
        <time>2026-05-10T09:19:55Z</time>
      </trkpt>
      <trkpt lat="46.0761" lon="5.61229">
        <ele>916.6</ele>
        <time>2026-05-10T09:19:56Z</time>
      </trkpt>
      <trkpt lat="46.07611" lon="5.61227">
        <ele>916.6</ele>
        <time>2026-05-10T09:19:57Z</time>
      </trkpt>
      <trkpt lat="46.07614" lon="5.61225">
        <ele>916.6</ele>
        <time>2026-05-10T09:19:58Z</time>
      </trkpt>
      <trkpt lat="46.07616" lon="5.61223">
        <ele>916.6</ele>
        <time>2026-05-10T09:19:59Z</time>
      </trkpt>
      <trkpt lat="46.07616" lon="5.61223">
        <ele>916.6</ele>
        <time>2026-05-10T09:20:00Z</time>
      </trkpt>
      <trkpt lat="46.07622" lon="5.61218">
        <ele>916.6</ele>
        <time>2026-05-10T09:20:01Z</time>
      </trkpt>
      <trkpt lat="46.07623" lon="5.61217">
        <ele>917.2</ele>
        <time>2026-05-10T09:20:02Z</time>
      </trkpt>
      <trkpt lat="46.07624" lon="5.61216">
        <ele>917.4</ele>
        <time>2026-05-10T09:20:03Z</time>
      </trkpt>
      <trkpt lat="46.07625" lon="5.61216">
        <ele>917.6</ele>
        <time>2026-05-10T09:20:04Z</time>
      </trkpt>
      <trkpt lat="46.07626" lon="5.61216">
        <ele>917.8</ele>
        <time>2026-05-10T09:20:05Z</time>
      </trkpt>
      <trkpt lat="46.07627" lon="5.61216">
        <ele>917.8</ele>
        <time>2026-05-10T09:20:06Z</time>
      </trkpt>
      <trkpt lat="46.07629" lon="5.61217">
        <ele>918.2</ele>
        <time>2026-05-10T09:20:07Z</time>
      </trkpt>
      <trkpt lat="46.07629" lon="5.61217">
        <ele>918.2</ele>
        <time>2026-05-10T09:20:08Z</time>
      </trkpt>
      <trkpt lat="46.07633" lon="5.61222">
        <ele>918.8</ele>
        <time>2026-05-10T09:20:13Z</time>
      </trkpt>
      <trkpt lat="46.07634" lon="5.61223">
        <ele>918.8</ele>
        <time>2026-05-10T09:20:14Z</time>
      </trkpt>
      <trkpt lat="46.07635" lon="5.61224">
        <ele>919.2</ele>
        <time>2026-05-10T09:20:15Z</time>
      </trkpt>
      <trkpt lat="46.07636" lon="5.61225">
        <ele>919.6</ele>
        <time>2026-05-10T09:20:16Z</time>
      </trkpt>
      <trkpt lat="46.07638" lon="5.61227">
        <ele>919.6</ele>
        <time>2026-05-10T09:20:17Z</time>
      </trkpt>
      <trkpt lat="46.07639" lon="5.61229">
        <ele>920</ele>
        <time>2026-05-10T09:20:18Z</time>
      </trkpt>
      <trkpt lat="46.0764" lon="5.6123">
        <ele>920</ele>
        <time>2026-05-10T09:20:19Z</time>
      </trkpt>
      <trkpt lat="46.07642" lon="5.61231">
        <ele>920.2</ele>
        <time>2026-05-10T09:20:20Z</time>
      </trkpt>
      <trkpt lat="46.07644" lon="5.61233">
        <ele>920.6</ele>
        <time>2026-05-10T09:20:21Z</time>
      </trkpt>
      <trkpt lat="46.07644" lon="5.61235">
        <ele>921.2</ele>
        <time>2026-05-10T09:20:22Z</time>
      </trkpt>
      <trkpt lat="46.07645" lon="5.61235">
        <ele>921.6</ele>
        <time>2026-05-10T09:20:23Z</time>
      </trkpt>
      <trkpt lat="46.07646" lon="5.61235">
        <ele>921.6</ele>
        <time>2026-05-10T09:20:24Z</time>
      </trkpt>
      <trkpt lat="46.07647" lon="5.61236">
        <ele>922</ele>
        <time>2026-05-10T09:20:25Z</time>
      </trkpt>
      <trkpt lat="46.07649" lon="5.61236">
        <ele>922.2</ele>
        <time>2026-05-10T09:20:26Z</time>
      </trkpt>
      <trkpt lat="46.07651" lon="5.61238">
        <ele>922.2</ele>
        <time>2026-05-10T09:20:27Z</time>
      </trkpt>
      <trkpt lat="46.07652" lon="5.61239">
        <ele>922.6</ele>
        <time>2026-05-10T09:20:28Z</time>
      </trkpt>
      <trkpt lat="46.07653" lon="5.61239">
        <ele>922.6</ele>
        <time>2026-05-10T09:20:29Z</time>
      </trkpt>
      <trkpt lat="46.07653" lon="5.61239">
        <ele>923</ele>
        <time>2026-05-10T09:20:30Z</time>
      </trkpt>
      <trkpt lat="46.07653" lon="5.6124">
        <ele>923.2</ele>
        <time>2026-05-10T09:20:31Z</time>
      </trkpt>
      <trkpt lat="46.07655" lon="5.6124">
        <ele>923.6</ele>
        <time>2026-05-10T09:20:32Z</time>
      </trkpt>
      <trkpt lat="46.07656" lon="5.6124">
        <ele>923.8</ele>
        <time>2026-05-10T09:20:33Z</time>
      </trkpt>
      <trkpt lat="46.07657" lon="5.6124">
        <ele>923.8</ele>
        <time>2026-05-10T09:20:34Z</time>
      </trkpt>
      <trkpt lat="46.07658" lon="5.61241">
        <ele>924.2</ele>
        <time>2026-05-10T09:20:35Z</time>
      </trkpt>
      <trkpt lat="46.07658" lon="5.61241">
        <ele>924.2</ele>
        <time>2026-05-10T09:20:36Z</time>
      </trkpt>
      <trkpt lat="46.07658" lon="5.6124">
        <ele>924.6</ele>
        <time>2026-05-10T09:20:37Z</time>
      </trkpt>
      <trkpt lat="46.07658" lon="5.61237">
        <ele>924.2</ele>
        <time>2026-05-10T09:20:45Z</time>
      </trkpt>
      <trkpt lat="46.07659" lon="5.61235">
        <ele>924</ele>
        <time>2026-05-10T09:20:46Z</time>
      </trkpt>
      <trkpt lat="46.07659" lon="5.61233">
        <ele>924</ele>
        <time>2026-05-10T09:20:47Z</time>
      </trkpt>
      <trkpt lat="46.07659" lon="5.61231">
        <ele>923.6</ele>
        <time>2026-05-10T09:20:48Z</time>
      </trkpt>
      <trkpt lat="46.0766" lon="5.61228">
        <ele>922.8</ele>
        <time>2026-05-10T09:20:49Z</time>
      </trkpt>
      <trkpt lat="46.07661" lon="5.61225">
        <ele>922.4</ele>
        <time>2026-05-10T09:20:50Z</time>
      </trkpt>
      <trkpt lat="46.07663" lon="5.61222">
        <ele>921.8</ele>
        <time>2026-05-10T09:20:51Z</time>
      </trkpt>
      <trkpt lat="46.07665" lon="5.61219">
        <ele>921</ele>
        <time>2026-05-10T09:20:52Z</time>
      </trkpt>
      <trkpt lat="46.07668" lon="5.61216">
        <ele>920.2</ele>
        <time>2026-05-10T09:20:53Z</time>
      </trkpt>
      <trkpt lat="46.07671" lon="5.61213">
        <ele>919.6</ele>
        <time>2026-05-10T09:20:54Z</time>
      </trkpt>
      <trkpt lat="46.07673" lon="5.6121">
        <ele>918.8</ele>
        <time>2026-05-10T09:20:55Z</time>
      </trkpt>
      <trkpt lat="46.07676" lon="5.61206">
        <ele>918.2</ele>
        <time>2026-05-10T09:20:56Z</time>
      </trkpt>
      <trkpt lat="46.07681" lon="5.61199">
        <ele>918.2</ele>
        <time>2026-05-10T09:20:57Z</time>
      </trkpt>
      <trkpt lat="46.07684" lon="5.61195">
        <ele>917.2</ele>
        <time>2026-05-10T09:20:58Z</time>
      </trkpt>
      <trkpt lat="46.07687" lon="5.61191">
        <ele>916.8</ele>
        <time>2026-05-10T09:20:59Z</time>
      </trkpt>
      <trkpt lat="46.0769" lon="5.61185">
        <ele>915.8</ele>
        <time>2026-05-10T09:21:00Z</time>
      </trkpt>
      <trkpt lat="46.07694" lon="5.6118">
        <ele>915.4</ele>
        <time>2026-05-10T09:21:01Z</time>
      </trkpt>
      <trkpt lat="46.07697" lon="5.61176">
        <ele>914.2</ele>
        <time>2026-05-10T09:21:02Z</time>
      </trkpt>
      <trkpt lat="46.07702" lon="5.61173">
        <ele>913.6</ele>
        <time>2026-05-10T09:21:03Z</time>
      </trkpt>
      <trkpt lat="46.07706" lon="5.61169">
        <ele>913</ele>
        <time>2026-05-10T09:21:04Z</time>
      </trkpt>
      <trkpt lat="46.07709" lon="5.61165">
        <ele>913</ele>
        <time>2026-05-10T09:21:05Z</time>
      </trkpt>
      <trkpt lat="46.07712" lon="5.6116">
        <ele>912.6</ele>
        <time>2026-05-10T09:21:06Z</time>
      </trkpt>
      <trkpt lat="46.07716" lon="5.61156">
        <ele>911.4</ele>
        <time>2026-05-10T09:21:07Z</time>
      </trkpt>
      <trkpt lat="46.0772" lon="5.61154">
        <ele>911</ele>
        <time>2026-05-10T09:21:08Z</time>
      </trkpt>
      <trkpt lat="46.07725" lon="5.61151">
        <ele>910</ele>
        <time>2026-05-10T09:21:09Z</time>
      </trkpt>
      <trkpt lat="46.07728" lon="5.6115">
        <ele>909.4</ele>
        <time>2026-05-10T09:21:10Z</time>
      </trkpt>
      <trkpt lat="46.07732" lon="5.61149">
        <ele>909</ele>
        <time>2026-05-10T09:21:11Z</time>
      </trkpt>
      <trkpt lat="46.07736" lon="5.61148">
        <ele>908.6</ele>
        <time>2026-05-10T09:21:12Z</time>
      </trkpt>
      <trkpt lat="46.07739" lon="5.61146">
        <ele>908.2</ele>
        <time>2026-05-10T09:21:13Z</time>
      </trkpt>
      <trkpt lat="46.07743" lon="5.61144">
        <ele>908.8</ele>
        <time>2026-05-10T09:21:14Z</time>
      </trkpt>
      <trkpt lat="46.07746" lon="5.61145">
        <ele>908.8</ele>
        <time>2026-05-10T09:21:15Z</time>
      </trkpt>
      <trkpt lat="46.0775" lon="5.61144">
        <ele>907.2</ele>
        <time>2026-05-10T09:21:16Z</time>
      </trkpt>
      <trkpt lat="46.07754" lon="5.61144">
        <ele>906.2</ele>
        <time>2026-05-10T09:21:17Z</time>
      </trkpt>
      <trkpt lat="46.07758" lon="5.61142">
        <ele>905.6</ele>
        <time>2026-05-10T09:21:18Z</time>
      </trkpt>
      <trkpt lat="46.07762" lon="5.61141">
        <ele>905.2</ele>
        <time>2026-05-10T09:21:19Z</time>
      </trkpt>
      <trkpt lat="46.07767" lon="5.61138">
        <ele>903.8</ele>
        <time>2026-05-10T09:21:20Z</time>
      </trkpt>
      <trkpt lat="46.07771" lon="5.61133">
        <ele>903.2</ele>
        <time>2026-05-10T09:21:21Z</time>
      </trkpt>
      <trkpt lat="46.07775" lon="5.61128">
        <ele>903.2</ele>
        <time>2026-05-10T09:21:22Z</time>
      </trkpt>
      <trkpt lat="46.07778" lon="5.61123">
        <ele>902.8</ele>
        <time>2026-05-10T09:21:23Z</time>
      </trkpt>
      <trkpt lat="46.07782" lon="5.61119">
        <ele>902</ele>
        <time>2026-05-10T09:21:24Z</time>
      </trkpt>
      <trkpt lat="46.07787" lon="5.61117">
        <ele>901.6</ele>
        <time>2026-05-10T09:21:25Z</time>
      </trkpt>
      <trkpt lat="46.07793" lon="5.61115">
        <ele>900.8</ele>
        <time>2026-05-10T09:21:26Z</time>
      </trkpt>
      <trkpt lat="46.07798" lon="5.61115">
        <ele>899.8</ele>
        <time>2026-05-10T09:21:27Z</time>
      </trkpt>
      <trkpt lat="46.07804" lon="5.61114">
        <ele>898.8</ele>
        <time>2026-05-10T09:21:28Z</time>
      </trkpt>
      <trkpt lat="46.0781" lon="5.61113">
        <ele>898.6</ele>
        <time>2026-05-10T09:21:29Z</time>
      </trkpt>
      <trkpt lat="46.07816" lon="5.61114">
        <ele>898.2</ele>
        <time>2026-05-10T09:21:30Z</time>
      </trkpt>
      <trkpt lat="46.07822" lon="5.61115">
        <ele>898.2</ele>
        <time>2026-05-10T09:21:31Z</time>
      </trkpt>
      <trkpt lat="46.07826" lon="5.61119">
        <ele>898.2</ele>
        <time>2026-05-10T09:21:32Z</time>
      </trkpt>
      <trkpt lat="46.07829" lon="5.61123">
        <ele>898.2</ele>
        <time>2026-05-10T09:21:33Z</time>
      </trkpt>
      <trkpt lat="46.07831" lon="5.61128">
        <ele>898.2</ele>
        <time>2026-05-10T09:21:34Z</time>
      </trkpt>
      <trkpt lat="46.07834" lon="5.61131">
        <ele>898.8</ele>
        <time>2026-05-10T09:21:35Z</time>
      </trkpt>
      <trkpt lat="46.07838" lon="5.61135">
        <ele>898.8</ele>
        <time>2026-05-10T09:21:36Z</time>
      </trkpt>
      <trkpt lat="46.0784" lon="5.61139">
        <ele>898.8</ele>
        <time>2026-05-10T09:21:37Z</time>
      </trkpt>
      <trkpt lat="46.07843" lon="5.61143">
        <ele>899</ele>
        <time>2026-05-10T09:21:38Z</time>
      </trkpt>
      <trkpt lat="46.07846" lon="5.61147">
        <ele>899</ele>
        <time>2026-05-10T09:21:39Z</time>
      </trkpt>
      <trkpt lat="46.07848" lon="5.6115">
        <ele>899.4</ele>
        <time>2026-05-10T09:21:40Z</time>
      </trkpt>
      <trkpt lat="46.07849" lon="5.61155">
        <ele>899.4</ele>
        <time>2026-05-10T09:21:41Z</time>
      </trkpt>
      <trkpt lat="46.07852" lon="5.61157">
        <ele>899.4</ele>
        <time>2026-05-10T09:21:42Z</time>
      </trkpt>
      <trkpt lat="46.07854" lon="5.6116">
        <ele>899.4</ele>
        <time>2026-05-10T09:21:43Z</time>
      </trkpt>
      <trkpt lat="46.07857" lon="5.61166">
        <ele>899.4</ele>
        <time>2026-05-10T09:21:44Z</time>
      </trkpt>
      <trkpt lat="46.07859" lon="5.61169">
        <ele>899.4</ele>
        <time>2026-05-10T09:21:45Z</time>
      </trkpt>
      <trkpt lat="46.07861" lon="5.61172">
        <ele>899.8</ele>
        <time>2026-05-10T09:21:46Z</time>
      </trkpt>
      <trkpt lat="46.07862" lon="5.61177">
        <ele>899.8</ele>
        <time>2026-05-10T09:21:47Z</time>
      </trkpt>
      <trkpt lat="46.07865" lon="5.6118">
        <ele>899.8</ele>
        <time>2026-05-10T09:21:48Z</time>
      </trkpt>
      <trkpt lat="46.07867" lon="5.61184">
        <ele>899.8</ele>
        <time>2026-05-10T09:21:49Z</time>
      </trkpt>
      <trkpt lat="46.0787" lon="5.61189">
        <ele>899.8</ele>
        <time>2026-05-10T09:21:50Z</time>
      </trkpt>
      <trkpt lat="46.07872" lon="5.61194">
        <ele>900</ele>
        <time>2026-05-10T09:21:51Z</time>
      </trkpt>
      <trkpt lat="46.07872" lon="5.61194">
        <ele>900.4</ele>
        <time>2026-05-10T09:21:52Z</time>
      </trkpt>
      <trkpt lat="46.07873" lon="5.61196">
        <ele>899.4</ele>
        <time>2026-05-10T09:21:53Z</time>
      </trkpt>
      <trkpt lat="46.07874" lon="5.61198">
        <ele>899.4</ele>
        <time>2026-05-10T09:21:54Z</time>
      </trkpt>
      <trkpt lat="46.07879" lon="5.61204">
        <ele>899.4</ele>
        <time>2026-05-10T09:21:55Z</time>
      </trkpt>
      <trkpt lat="46.07882" lon="5.61207">
        <ele>899.4</ele>
        <time>2026-05-10T09:21:56Z</time>
      </trkpt>
      <trkpt lat="46.07885" lon="5.61211">
        <ele>899.4</ele>
        <time>2026-05-10T09:21:57Z</time>
      </trkpt>
      <trkpt lat="46.0789" lon="5.61214">
        <ele>899.4</ele>
        <time>2026-05-10T09:21:58Z</time>
      </trkpt>
      <trkpt lat="46.07894" lon="5.61217">
        <ele>899.6</ele>
        <time>2026-05-10T09:21:59Z</time>
      </trkpt>
      <trkpt lat="46.07898" lon="5.6122">
        <ele>899.6</ele>
        <time>2026-05-10T09:22:00Z</time>
      </trkpt>
      <trkpt lat="46.07901" lon="5.61219">
        <ele>899.6</ele>
        <time>2026-05-10T09:22:01Z</time>
      </trkpt>
      <trkpt lat="46.07905" lon="5.61221">
        <ele>899.6</ele>
        <time>2026-05-10T09:22:02Z</time>
      </trkpt>
      <trkpt lat="46.07909" lon="5.61223">
        <ele>899.8</ele>
        <time>2026-05-10T09:22:03Z</time>
      </trkpt>
      <trkpt lat="46.07911" lon="5.61225">
        <ele>900.2</ele>
        <time>2026-05-10T09:22:04Z</time>
      </trkpt>
      <trkpt lat="46.07916" lon="5.6123">
        <ele>900.2</ele>
        <time>2026-05-10T09:22:05Z</time>
      </trkpt>
      <trkpt lat="46.07919" lon="5.61232">
        <ele>900.2</ele>
        <time>2026-05-10T09:22:06Z</time>
      </trkpt>
      <trkpt lat="46.07925" lon="5.61234">
        <ele>899.6</ele>
        <time>2026-05-10T09:22:07Z</time>
      </trkpt>
      <trkpt lat="46.07929" lon="5.61236">
        <ele>899.6</ele>
        <time>2026-05-10T09:22:08Z</time>
      </trkpt>
      <trkpt lat="46.07932" lon="5.61239">
        <ele>899.8</ele>
        <time>2026-05-10T09:22:09Z</time>
      </trkpt>
      <trkpt lat="46.07936" lon="5.61241">
        <ele>899.8</ele>
        <time>2026-05-10T09:22:10Z</time>
      </trkpt>
      <trkpt lat="46.07941" lon="5.61242">
        <ele>899.2</ele>
        <time>2026-05-10T09:22:11Z</time>
      </trkpt>
      <trkpt lat="46.07942" lon="5.61244">
        <ele>899.2</ele>
        <time>2026-05-10T09:22:12Z</time>
      </trkpt>
      <trkpt lat="46.07945" lon="5.61245">
        <ele>899.2</ele>
        <time>2026-05-10T09:22:13Z</time>
      </trkpt>
      <trkpt lat="46.07949" lon="5.61246">
        <ele>899.6</ele>
        <time>2026-05-10T09:22:14Z</time>
      </trkpt>
      <trkpt lat="46.07953" lon="5.61247">
        <ele>899.6</ele>
        <time>2026-05-10T09:22:15Z</time>
      </trkpt>
      <trkpt lat="46.07959" lon="5.61246">
        <ele>900</ele>
        <time>2026-05-10T09:22:16Z</time>
      </trkpt>
      <trkpt lat="46.07962" lon="5.61247">
        <ele>900</ele>
        <time>2026-05-10T09:22:17Z</time>
      </trkpt>
      <trkpt lat="46.07966" lon="5.61247">
        <ele>899.8</ele>
        <time>2026-05-10T09:22:18Z</time>
      </trkpt>
      <trkpt lat="46.0797" lon="5.61247">
        <ele>900</ele>
        <time>2026-05-10T09:22:19Z</time>
      </trkpt>
      <trkpt lat="46.07975" lon="5.61249">
        <ele>899.6</ele>
        <time>2026-05-10T09:22:20Z</time>
      </trkpt>
      <trkpt lat="46.07978" lon="5.61252">
        <ele>899.4</ele>
        <time>2026-05-10T09:22:21Z</time>
      </trkpt>
      <trkpt lat="46.07982" lon="5.61251">
        <ele>899.4</ele>
        <time>2026-05-10T09:22:22Z</time>
      </trkpt>
      <trkpt lat="46.07985" lon="5.61252">
        <ele>899.4</ele>
        <time>2026-05-10T09:22:23Z</time>
      </trkpt>
      <trkpt lat="46.07989" lon="5.61252">
        <ele>899.4</ele>
        <time>2026-05-10T09:22:24Z</time>
      </trkpt>
      <trkpt lat="46.07991" lon="5.61252">
        <ele>899.4</ele>
        <time>2026-05-10T09:22:25Z</time>
      </trkpt>
      <trkpt lat="46.07996" lon="5.61253">
        <ele>899.6</ele>
        <time>2026-05-10T09:22:26Z</time>
      </trkpt>
      <trkpt lat="46.07999" lon="5.61254">
        <ele>899.8</ele>
        <time>2026-05-10T09:22:27Z</time>
      </trkpt>
      <trkpt lat="46.08001" lon="5.61256">
        <ele>899.8</ele>
        <time>2026-05-10T09:22:28Z</time>
      </trkpt>
      <trkpt lat="46.08004" lon="5.61256">
        <ele>899.6</ele>
        <time>2026-05-10T09:22:29Z</time>
      </trkpt>
      <trkpt lat="46.08008" lon="5.61256">
        <ele>899.4</ele>
        <time>2026-05-10T09:22:30Z</time>
      </trkpt>
      <trkpt lat="46.08011" lon="5.61256">
        <ele>899.4</ele>
        <time>2026-05-10T09:22:31Z</time>
      </trkpt>
      <trkpt lat="46.08015" lon="5.61255">
        <ele>899.4</ele>
        <time>2026-05-10T09:22:32Z</time>
      </trkpt>
      <trkpt lat="46.08019" lon="5.61254">
        <ele>899.6</ele>
        <time>2026-05-10T09:22:33Z</time>
      </trkpt>
      <trkpt lat="46.08022" lon="5.61254">
        <ele>899.6</ele>
        <time>2026-05-10T09:22:34Z</time>
      </trkpt>
      <trkpt lat="46.08026" lon="5.61253">
        <ele>899.6</ele>
        <time>2026-05-10T09:22:35Z</time>
      </trkpt>
      <trkpt lat="46.0803" lon="5.61252">
        <ele>899.6</ele>
        <time>2026-05-10T09:22:36Z</time>
      </trkpt>
      <trkpt lat="46.08034" lon="5.61251">
        <ele>899.8</ele>
        <time>2026-05-10T09:22:37Z</time>
      </trkpt>
      <trkpt lat="46.08037" lon="5.61249">
        <ele>900.2</ele>
        <time>2026-05-10T09:22:38Z</time>
      </trkpt>
      <trkpt lat="46.08039" lon="5.61248">
        <ele>899.6</ele>
        <time>2026-05-10T09:22:39Z</time>
      </trkpt>
      <trkpt lat="46.0804" lon="5.61247">
        <ele>899.6</ele>
        <time>2026-05-10T09:22:40Z</time>
      </trkpt>
      <trkpt lat="46.08043" lon="5.61245">
        <ele>899.2</ele>
        <time>2026-05-10T09:22:41Z</time>
      </trkpt>
      <trkpt lat="46.08047" lon="5.61238">
        <ele>899.2</ele>
        <time>2026-05-10T09:22:42Z</time>
      </trkpt>
      <trkpt lat="46.08052" lon="5.61235">
        <ele>899</ele>
        <time>2026-05-10T09:22:43Z</time>
      </trkpt>
      <trkpt lat="46.08055" lon="5.6123">
        <ele>899</ele>
        <time>2026-05-10T09:22:44Z</time>
      </trkpt>
      <trkpt lat="46.08058" lon="5.61226">
        <ele>899</ele>
        <time>2026-05-10T09:22:45Z</time>
      </trkpt>
      <trkpt lat="46.08062" lon="5.61224">
        <ele>899.2</ele>
        <time>2026-05-10T09:22:46Z</time>
      </trkpt>
      <trkpt lat="46.08066" lon="5.61221">
        <ele>899.2</ele>
        <time>2026-05-10T09:22:47Z</time>
      </trkpt>
      <trkpt lat="46.08069" lon="5.61218">
        <ele>899.2</ele>
        <time>2026-05-10T09:22:48Z</time>
      </trkpt>
      <trkpt lat="46.08073" lon="5.61215">
        <ele>899.2</ele>
        <time>2026-05-10T09:22:49Z</time>
      </trkpt>
      <trkpt lat="46.08076" lon="5.61208">
        <ele>899.2</ele>
        <time>2026-05-10T09:22:50Z</time>
      </trkpt>
      <trkpt lat="46.08079" lon="5.61207">
        <ele>899.6</ele>
        <time>2026-05-10T09:22:51Z</time>
      </trkpt>
      <trkpt lat="46.0808" lon="5.61204">
        <ele>899.2</ele>
        <time>2026-05-10T09:22:52Z</time>
      </trkpt>
      <trkpt lat="46.08082" lon="5.61198">
        <ele>899.4</ele>
        <time>2026-05-10T09:22:53Z</time>
      </trkpt>
      <trkpt lat="46.08084" lon="5.61194">
        <ele>899.4</ele>
        <time>2026-05-10T09:22:54Z</time>
      </trkpt>
      <trkpt lat="46.08087" lon="5.61191">
        <ele>899.2</ele>
        <time>2026-05-10T09:22:55Z</time>
      </trkpt>
      <trkpt lat="46.08091" lon="5.61191">
        <ele>899.2</ele>
        <time>2026-05-10T09:22:56Z</time>
      </trkpt>
      <trkpt lat="46.08093" lon="5.61187">
        <ele>899.2</ele>
        <time>2026-05-10T09:22:57Z</time>
      </trkpt>
      <trkpt lat="46.08099" lon="5.61184">
        <ele>899.2</ele>
        <time>2026-05-10T09:22:58Z</time>
      </trkpt>
      <trkpt lat="46.08102" lon="5.61181">
        <ele>899.2</ele>
        <time>2026-05-10T09:22:59Z</time>
      </trkpt>
      <trkpt lat="46.08106" lon="5.61176">
        <ele>899.2</ele>
        <time>2026-05-10T09:23:00Z</time>
      </trkpt>
      <trkpt lat="46.08109" lon="5.61173">
        <ele>899.2</ele>
        <time>2026-05-10T09:23:01Z</time>
      </trkpt>
      <trkpt lat="46.08113" lon="5.61171">
        <ele>899.2</ele>
        <time>2026-05-10T09:23:02Z</time>
      </trkpt>
      <trkpt lat="46.08117" lon="5.6117">
        <ele>899.2</ele>
        <time>2026-05-10T09:23:03Z</time>
      </trkpt>
      <trkpt lat="46.08124" lon="5.61169">
        <ele>898.4</ele>
        <time>2026-05-10T09:23:04Z</time>
      </trkpt>
      <trkpt lat="46.08126" lon="5.61168">
        <ele>898.8</ele>
        <time>2026-05-10T09:23:05Z</time>
      </trkpt>
      <trkpt lat="46.08128" lon="5.61165">
        <ele>899</ele>
        <time>2026-05-10T09:23:06Z</time>
      </trkpt>
      <trkpt lat="46.08133" lon="5.61162">
        <ele>899.4</ele>
        <time>2026-05-10T09:23:07Z</time>
      </trkpt>
      <trkpt lat="46.08141" lon="5.61161">
        <ele>900</ele>
        <time>2026-05-10T09:23:08Z</time>
      </trkpt>
      <trkpt lat="46.08147" lon="5.6116">
        <ele>900</ele>
        <time>2026-05-10T09:23:09Z</time>
      </trkpt>
      <trkpt lat="46.08153" lon="5.6116">
        <ele>900</ele>
        <time>2026-05-10T09:23:10Z</time>
      </trkpt>
      <trkpt lat="46.08157" lon="5.61158">
        <ele>900</ele>
        <time>2026-05-10T09:23:11Z</time>
      </trkpt>
      <trkpt lat="46.08161" lon="5.61155">
        <ele>900</ele>
        <time>2026-05-10T09:23:12Z</time>
      </trkpt>
      <trkpt lat="46.08163" lon="5.61151">
        <ele>899.8</ele>
        <time>2026-05-10T09:23:13Z</time>
      </trkpt>
      <trkpt lat="46.08166" lon="5.61149">
        <ele>899.8</ele>
        <time>2026-05-10T09:23:14Z</time>
      </trkpt>
      <trkpt lat="46.0817" lon="5.61146">
        <ele>899.8</ele>
        <time>2026-05-10T09:23:15Z</time>
      </trkpt>
      <trkpt lat="46.08173" lon="5.61145">
        <ele>899.4</ele>
        <time>2026-05-10T09:23:16Z</time>
      </trkpt>
      <trkpt lat="46.08177" lon="5.61139">
        <ele>899.4</ele>
        <time>2026-05-10T09:23:17Z</time>
      </trkpt>
      <trkpt lat="46.08181" lon="5.61137">
        <ele>899.2</ele>
        <time>2026-05-10T09:23:18Z</time>
      </trkpt>
      <trkpt lat="46.08184" lon="5.61133">
        <ele>899.2</ele>
        <time>2026-05-10T09:23:19Z</time>
      </trkpt>
      <trkpt lat="46.08187" lon="5.6113">
        <ele>899.4</ele>
        <time>2026-05-10T09:23:20Z</time>
      </trkpt>
      <trkpt lat="46.0819" lon="5.61129">
        <ele>899.4</ele>
        <time>2026-05-10T09:23:21Z</time>
      </trkpt>
      <trkpt lat="46.08193" lon="5.61127">
        <ele>899.4</ele>
        <time>2026-05-10T09:23:22Z</time>
      </trkpt>
      <trkpt lat="46.082" lon="5.6113">
        <ele>899.4</ele>
        <time>2026-05-10T09:23:23Z</time>
      </trkpt>
      <trkpt lat="46.08202" lon="5.61126">
        <ele>899.8</ele>
        <time>2026-05-10T09:23:24Z</time>
      </trkpt>
      <trkpt lat="46.08204" lon="5.61125">
        <ele>899.8</ele>
        <time>2026-05-10T09:23:25Z</time>
      </trkpt>
      <trkpt lat="46.08207" lon="5.61124">
        <ele>899.8</ele>
        <time>2026-05-10T09:23:26Z</time>
      </trkpt>
      <trkpt lat="46.08209" lon="5.61121">
        <ele>899.8</ele>
        <time>2026-05-10T09:23:27Z</time>
      </trkpt>
      <trkpt lat="46.08212" lon="5.6112">
        <ele>899.8</ele>
        <time>2026-05-10T09:23:28Z</time>
      </trkpt>
      <trkpt lat="46.08216" lon="5.61119">
        <ele>899.8</ele>
        <time>2026-05-10T09:23:29Z</time>
      </trkpt>
      <trkpt lat="46.08219" lon="5.61122">
        <ele>899.8</ele>
        <time>2026-05-10T09:23:30Z</time>
      </trkpt>
      <trkpt lat="46.08222" lon="5.61123">
        <ele>899.8</ele>
        <time>2026-05-10T09:23:31Z</time>
      </trkpt>
      <trkpt lat="46.08227" lon="5.61124">
        <ele>900</ele>
        <time>2026-05-10T09:23:32Z</time>
      </trkpt>
      <trkpt lat="46.08231" lon="5.61127">
        <ele>900.4</ele>
        <time>2026-05-10T09:23:33Z</time>
      </trkpt>
      <trkpt lat="46.08234" lon="5.61129">
        <ele>900.4</ele>
        <time>2026-05-10T09:23:34Z</time>
      </trkpt>
      <trkpt lat="46.08239" lon="5.61131">
        <ele>900.4</ele>
        <time>2026-05-10T09:23:35Z</time>
      </trkpt>
      <trkpt lat="46.08244" lon="5.61135">
        <ele>900.4</ele>
        <time>2026-05-10T09:23:36Z</time>
      </trkpt>
      <trkpt lat="46.08249" lon="5.61138">
        <ele>900.4</ele>
        <time>2026-05-10T09:23:37Z</time>
      </trkpt>
      <trkpt lat="46.08248" lon="5.61137">
        <ele>900.4</ele>
        <time>2026-05-10T09:23:38Z</time>
      </trkpt>
      <trkpt lat="46.08252" lon="5.61138">
        <ele>900.4</ele>
        <time>2026-05-10T09:23:39Z</time>
      </trkpt>
      <trkpt lat="46.08255" lon="5.61141">
        <ele>900.4</ele>
        <time>2026-05-10T09:23:40Z</time>
      </trkpt>
      <trkpt lat="46.08259" lon="5.61142">
        <ele>900.6</ele>
        <time>2026-05-10T09:23:41Z</time>
      </trkpt>
      <trkpt lat="46.08265" lon="5.61147">
        <ele>900.6</ele>
        <time>2026-05-10T09:23:42Z</time>
      </trkpt>
      <trkpt lat="46.08267" lon="5.61146">
        <ele>900.6</ele>
        <time>2026-05-10T09:23:43Z</time>
      </trkpt>
      <trkpt lat="46.08272" lon="5.61149">
        <ele>900</ele>
        <time>2026-05-10T09:23:44Z</time>
      </trkpt>
      <trkpt lat="46.08276" lon="5.61152">
        <ele>900.2</ele>
        <time>2026-05-10T09:23:45Z</time>
      </trkpt>
      <trkpt lat="46.08282" lon="5.61153">
        <ele>900.2</ele>
        <time>2026-05-10T09:23:46Z</time>
      </trkpt>
      <trkpt lat="46.08286" lon="5.61153">
        <ele>899.8</ele>
        <time>2026-05-10T09:23:47Z</time>
      </trkpt>
      <trkpt lat="46.0829" lon="5.61153">
        <ele>900</ele>
        <time>2026-05-10T09:23:48Z</time>
      </trkpt>
      <trkpt lat="46.08294" lon="5.61152">
        <ele>900</ele>
        <time>2026-05-10T09:23:49Z</time>
      </trkpt>
      <trkpt lat="46.08299" lon="5.6115">
        <ele>899.6</ele>
        <time>2026-05-10T09:23:50Z</time>
      </trkpt>
      <trkpt lat="46.08302" lon="5.61149">
        <ele>900</ele>
        <time>2026-05-10T09:23:51Z</time>
      </trkpt>
      <trkpt lat="46.08307" lon="5.61149">
        <ele>900.2</ele>
        <time>2026-05-10T09:23:52Z</time>
      </trkpt>
      <trkpt lat="46.0831" lon="5.61146">
        <ele>900.2</ele>
        <time>2026-05-10T09:23:53Z</time>
      </trkpt>
      <trkpt lat="46.08315" lon="5.61146">
        <ele>900.6</ele>
        <time>2026-05-10T09:23:54Z</time>
      </trkpt>
      <trkpt lat="46.08319" lon="5.61146">
        <ele>901</ele>
        <time>2026-05-10T09:23:55Z</time>
      </trkpt>
      <trkpt lat="46.08322" lon="5.61143">
        <ele>901.4</ele>
        <time>2026-05-10T09:23:56Z</time>
      </trkpt>
      <trkpt lat="46.08325" lon="5.61142">
        <ele>901.4</ele>
        <time>2026-05-10T09:23:57Z</time>
      </trkpt>
      <trkpt lat="46.08329" lon="5.6114">
        <ele>901.4</ele>
        <time>2026-05-10T09:23:58Z</time>
      </trkpt>
      <trkpt lat="46.08332" lon="5.61138">
        <ele>901</ele>
        <time>2026-05-10T09:23:59Z</time>
      </trkpt>
      <trkpt lat="46.08335" lon="5.61136">
        <ele>901.4</ele>
        <time>2026-05-10T09:24:00Z</time>
      </trkpt>
      <trkpt lat="46.08339" lon="5.61133">
        <ele>901.6</ele>
        <time>2026-05-10T09:24:01Z</time>
      </trkpt>
      <trkpt lat="46.08343" lon="5.6113">
        <ele>901.4</ele>
        <time>2026-05-10T09:24:02Z</time>
      </trkpt>
      <trkpt lat="46.08346" lon="5.61128">
        <ele>901</ele>
        <time>2026-05-10T09:24:03Z</time>
      </trkpt>
      <trkpt lat="46.0835" lon="5.61126">
        <ele>900.8</ele>
        <time>2026-05-10T09:24:04Z</time>
      </trkpt>
      <trkpt lat="46.08353" lon="5.61124">
        <ele>900.6</ele>
        <time>2026-05-10T09:24:05Z</time>
      </trkpt>
      <trkpt lat="46.0836" lon="5.61121">
        <ele>900.8</ele>
        <time>2026-05-10T09:24:06Z</time>
      </trkpt>
      <trkpt lat="46.08364" lon="5.61118">
        <ele>900.8</ele>
        <time>2026-05-10T09:24:07Z</time>
      </trkpt>
      <trkpt lat="46.08368" lon="5.6112">
        <ele>901.8</ele>
        <time>2026-05-10T09:24:08Z</time>
      </trkpt>
      <trkpt lat="46.0837" lon="5.61119">
        <ele>901.8</ele>
        <time>2026-05-10T09:24:09Z</time>
      </trkpt>
      <trkpt lat="46.08375" lon="5.61118">
        <ele>901.8</ele>
        <time>2026-05-10T09:24:10Z</time>
      </trkpt>
      <trkpt lat="46.08379" lon="5.61116">
        <ele>901.4</ele>
        <time>2026-05-10T09:24:11Z</time>
      </trkpt>
      <trkpt lat="46.08382" lon="5.61115">
        <ele>901.8</ele>
        <time>2026-05-10T09:24:12Z</time>
      </trkpt>
      <trkpt lat="46.08385" lon="5.61113">
        <ele>901.4</ele>
        <time>2026-05-10T09:24:13Z</time>
      </trkpt>
      <trkpt lat="46.08388" lon="5.61111">
        <ele>901.4</ele>
        <time>2026-05-10T09:24:14Z</time>
      </trkpt>
      <trkpt lat="46.08391" lon="5.61109">
        <ele>901</ele>
        <time>2026-05-10T09:24:15Z</time>
      </trkpt>
      <trkpt lat="46.08393" lon="5.61108">
        <ele>901.4</ele>
        <time>2026-05-10T09:24:16Z</time>
      </trkpt>
      <trkpt lat="46.08396" lon="5.61105">
        <ele>901</ele>
        <time>2026-05-10T09:24:17Z</time>
      </trkpt>
      <trkpt lat="46.08399" lon="5.61101">
        <ele>901</ele>
        <time>2026-05-10T09:24:18Z</time>
      </trkpt>
      <trkpt lat="46.08401" lon="5.61097">
        <ele>901.4</ele>
        <time>2026-05-10T09:24:19Z</time>
      </trkpt>
      <trkpt lat="46.08405" lon="5.61092">
        <ele>901.4</ele>
        <time>2026-05-10T09:24:20Z</time>
      </trkpt>
      <trkpt lat="46.08407" lon="5.61088">
        <ele>901.8</ele>
        <time>2026-05-10T09:24:21Z</time>
      </trkpt>
      <trkpt lat="46.0841" lon="5.61084">
        <ele>901.8</ele>
        <time>2026-05-10T09:24:22Z</time>
      </trkpt>
      <trkpt lat="46.08412" lon="5.6108">
        <ele>901.8</ele>
        <time>2026-05-10T09:24:23Z</time>
      </trkpt>
      <trkpt lat="46.08414" lon="5.61077">
        <ele>902</ele>
        <time>2026-05-10T09:24:24Z</time>
      </trkpt>
      <trkpt lat="46.08417" lon="5.61073">
        <ele>902</ele>
        <time>2026-05-10T09:24:25Z</time>
      </trkpt>
      <trkpt lat="46.0842" lon="5.61069">
        <ele>902.2</ele>
        <time>2026-05-10T09:24:26Z</time>
      </trkpt>
      <trkpt lat="46.08422" lon="5.61066">
        <ele>902.2</ele>
        <time>2026-05-10T09:24:27Z</time>
      </trkpt>
      <trkpt lat="46.08425" lon="5.61063">
        <ele>902.2</ele>
        <time>2026-05-10T09:24:28Z</time>
      </trkpt>
      <trkpt lat="46.08428" lon="5.6106">
        <ele>902.2</ele>
        <time>2026-05-10T09:24:29Z</time>
      </trkpt>
      <trkpt lat="46.08431" lon="5.61058">
        <ele>902.2</ele>
        <time>2026-05-10T09:24:30Z</time>
      </trkpt>
      <trkpt lat="46.08434" lon="5.61057">
        <ele>902.6</ele>
        <time>2026-05-10T09:24:31Z</time>
      </trkpt>
      <trkpt lat="46.08436" lon="5.61057">
        <ele>903</ele>
        <time>2026-05-10T09:24:32Z</time>
      </trkpt>
      <trkpt lat="46.08439" lon="5.61056">
        <ele>903</ele>
        <time>2026-05-10T09:24:33Z</time>
      </trkpt>
      <trkpt lat="46.08442" lon="5.61055">
        <ele>902.8</ele>
        <time>2026-05-10T09:24:34Z</time>
      </trkpt>
      <trkpt lat="46.08444" lon="5.61054">
        <ele>902.6</ele>
        <time>2026-05-10T09:24:35Z</time>
      </trkpt>
      <trkpt lat="46.08447" lon="5.61052">
        <ele>902.6</ele>
        <time>2026-05-10T09:24:36Z</time>
      </trkpt>
      <trkpt lat="46.0845" lon="5.61051">
        <ele>902.6</ele>
        <time>2026-05-10T09:24:37Z</time>
      </trkpt>
      <trkpt lat="46.08453" lon="5.6105">
        <ele>902.6</ele>
        <time>2026-05-10T09:24:38Z</time>
      </trkpt>
      <trkpt lat="46.08456" lon="5.61048">
        <ele>902</ele>
        <time>2026-05-10T09:24:39Z</time>
      </trkpt>
      <trkpt lat="46.0846" lon="5.61046">
        <ele>902.2</ele>
        <time>2026-05-10T09:24:40Z</time>
      </trkpt>
      <trkpt lat="46.08465" lon="5.61044">
        <ele>902.2</ele>
        <time>2026-05-10T09:24:41Z</time>
      </trkpt>
      <trkpt lat="46.08468" lon="5.61043">
        <ele>902.2</ele>
        <time>2026-05-10T09:24:42Z</time>
      </trkpt>
      <trkpt lat="46.0847" lon="5.61042">
        <ele>902.2</ele>
        <time>2026-05-10T09:24:43Z</time>
      </trkpt>
      <trkpt lat="46.08473" lon="5.6104">
        <ele>902.2</ele>
        <time>2026-05-10T09:24:44Z</time>
      </trkpt>
      <trkpt lat="46.08477" lon="5.61039">
        <ele>902.2</ele>
        <time>2026-05-10T09:24:45Z</time>
      </trkpt>
      <trkpt lat="46.0848" lon="5.61038">
        <ele>902.2</ele>
        <time>2026-05-10T09:24:46Z</time>
      </trkpt>
      <trkpt lat="46.08484" lon="5.61038">
        <ele>902.2</ele>
        <time>2026-05-10T09:24:47Z</time>
      </trkpt>
      <trkpt lat="46.08489" lon="5.61038">
        <ele>903</ele>
        <time>2026-05-10T09:24:48Z</time>
      </trkpt>
      <trkpt lat="46.08493" lon="5.61037">
        <ele>903</ele>
        <time>2026-05-10T09:24:49Z</time>
      </trkpt>
      <trkpt lat="46.08493" lon="5.61037">
        <ele>903</ele>
        <time>2026-05-10T09:24:50Z</time>
      </trkpt>
      <trkpt lat="46.08497" lon="5.61036">
        <ele>903</ele>
        <time>2026-05-10T09:24:51Z</time>
      </trkpt>
      <trkpt lat="46.08501" lon="5.61035">
        <ele>902.6</ele>
        <time>2026-05-10T09:24:52Z</time>
      </trkpt>
      <trkpt lat="46.08505" lon="5.61034">
        <ele>902.6</ele>
        <time>2026-05-10T09:24:53Z</time>
      </trkpt>
      <trkpt lat="46.08511" lon="5.61025">
        <ele>903.2</ele>
        <time>2026-05-10T09:24:54Z</time>
      </trkpt>
      <trkpt lat="46.08514" lon="5.61022">
        <ele>902.8</ele>
        <time>2026-05-10T09:24:55Z</time>
      </trkpt>
      <trkpt lat="46.0852" lon="5.61024">
        <ele>902.8</ele>
        <time>2026-05-10T09:24:56Z</time>
      </trkpt>
      <trkpt lat="46.08524" lon="5.61023">
        <ele>902.8</ele>
        <time>2026-05-10T09:24:57Z</time>
      </trkpt>
      <trkpt lat="46.08526" lon="5.61023">
        <ele>902.8</ele>
        <time>2026-05-10T09:24:58Z</time>
      </trkpt>
      <trkpt lat="46.0853" lon="5.61022">
        <ele>902.8</ele>
        <time>2026-05-10T09:24:59Z</time>
      </trkpt>
      <trkpt lat="46.08533" lon="5.61018">
        <ele>903.2</ele>
        <time>2026-05-10T09:25:00Z</time>
      </trkpt>
      <trkpt lat="46.08538" lon="5.61019">
        <ele>903.2</ele>
        <time>2026-05-10T09:25:01Z</time>
      </trkpt>
      <trkpt lat="46.08541" lon="5.61017">
        <ele>903.4</ele>
        <time>2026-05-10T09:25:02Z</time>
      </trkpt>
      <trkpt lat="46.08544" lon="5.61016">
        <ele>903.8</ele>
        <time>2026-05-10T09:25:03Z</time>
      </trkpt>
      <trkpt lat="46.08546" lon="5.61015">
        <ele>903.8</ele>
        <time>2026-05-10T09:25:04Z</time>
      </trkpt>
      <trkpt lat="46.08549" lon="5.61015">
        <ele>903.6</ele>
        <time>2026-05-10T09:25:05Z</time>
      </trkpt>
      <trkpt lat="46.08552" lon="5.61015">
        <ele>903.6</ele>
        <time>2026-05-10T09:25:06Z</time>
      </trkpt>
      <trkpt lat="46.08555" lon="5.61015">
        <ele>903.6</ele>
        <time>2026-05-10T09:25:07Z</time>
      </trkpt>
      <trkpt lat="46.08558" lon="5.61015">
        <ele>903.4</ele>
        <time>2026-05-10T09:25:08Z</time>
      </trkpt>
      <trkpt lat="46.08562" lon="5.61014">
        <ele>903.8</ele>
        <time>2026-05-10T09:25:09Z</time>
      </trkpt>
      <trkpt lat="46.08566" lon="5.61014">
        <ele>903.8</ele>
        <time>2026-05-10T09:25:10Z</time>
      </trkpt>
      <trkpt lat="46.08569" lon="5.61013">
        <ele>903.8</ele>
        <time>2026-05-10T09:25:11Z</time>
      </trkpt>
      <trkpt lat="46.08571" lon="5.61013">
        <ele>904</ele>
        <time>2026-05-10T09:25:12Z</time>
      </trkpt>
      <trkpt lat="46.08572" lon="5.61013">
        <ele>903.8</ele>
        <time>2026-05-10T09:25:13Z</time>
      </trkpt>
      <trkpt lat="46.08575" lon="5.61014">
        <ele>903.8</ele>
        <time>2026-05-10T09:25:14Z</time>
      </trkpt>
      <trkpt lat="46.08579" lon="5.61014">
        <ele>903.8</ele>
        <time>2026-05-10T09:25:15Z</time>
      </trkpt>
      <trkpt lat="46.08583" lon="5.61014">
        <ele>903.2</ele>
        <time>2026-05-10T09:25:16Z</time>
      </trkpt>
      <trkpt lat="46.08587" lon="5.61015">
        <ele>903.4</ele>
        <time>2026-05-10T09:25:17Z</time>
      </trkpt>
      <trkpt lat="46.08591" lon="5.61015">
        <ele>903.6</ele>
        <time>2026-05-10T09:25:18Z</time>
      </trkpt>
      <trkpt lat="46.08595" lon="5.61015">
        <ele>904</ele>
        <time>2026-05-10T09:25:19Z</time>
      </trkpt>
      <trkpt lat="46.08599" lon="5.61015">
        <ele>904</ele>
        <time>2026-05-10T09:25:20Z</time>
      </trkpt>
      <trkpt lat="46.08603" lon="5.61014">
        <ele>903.6</ele>
        <time>2026-05-10T09:25:21Z</time>
      </trkpt>
      <trkpt lat="46.08607" lon="5.61013">
        <ele>903.6</ele>
        <time>2026-05-10T09:25:22Z</time>
      </trkpt>
      <trkpt lat="46.08611" lon="5.61013">
        <ele>903.6</ele>
        <time>2026-05-10T09:25:23Z</time>
      </trkpt>
      <trkpt lat="46.08614" lon="5.61013">
        <ele>903.8</ele>
        <time>2026-05-10T09:25:24Z</time>
      </trkpt>
      <trkpt lat="46.08617" lon="5.61014">
        <ele>903.4</ele>
        <time>2026-05-10T09:25:25Z</time>
      </trkpt>
      <trkpt lat="46.08621" lon="5.61016">
        <ele>903.8</ele>
        <time>2026-05-10T09:25:26Z</time>
      </trkpt>
      <trkpt lat="46.08624" lon="5.61018">
        <ele>903.8</ele>
        <time>2026-05-10T09:25:27Z</time>
      </trkpt>
      <trkpt lat="46.08626" lon="5.61019">
        <ele>903.8</ele>
        <time>2026-05-10T09:25:28Z</time>
      </trkpt>
      <trkpt lat="46.0863" lon="5.6102">
        <ele>903.8</ele>
        <time>2026-05-10T09:25:29Z</time>
      </trkpt>
      <trkpt lat="46.08633" lon="5.61022">
        <ele>904.4</ele>
        <time>2026-05-10T09:25:30Z</time>
      </trkpt>
      <trkpt lat="46.08637" lon="5.61024">
        <ele>904.4</ele>
        <time>2026-05-10T09:25:31Z</time>
      </trkpt>
      <trkpt lat="46.08641" lon="5.61025">
        <ele>904.4</ele>
        <time>2026-05-10T09:25:32Z</time>
      </trkpt>
      <trkpt lat="46.08643" lon="5.61028">
        <ele>904.4</ele>
        <time>2026-05-10T09:25:33Z</time>
      </trkpt>
      <trkpt lat="46.08646" lon="5.6103">
        <ele>904.8</ele>
        <time>2026-05-10T09:25:34Z</time>
      </trkpt>
      <trkpt lat="46.08649" lon="5.61032">
        <ele>904.8</ele>
        <time>2026-05-10T09:25:35Z</time>
      </trkpt>
      <trkpt lat="46.08653" lon="5.61034">
        <ele>904.4</ele>
        <time>2026-05-10T09:25:36Z</time>
      </trkpt>
      <trkpt lat="46.08657" lon="5.61036">
        <ele>904.4</ele>
        <time>2026-05-10T09:25:37Z</time>
      </trkpt>
      <trkpt lat="46.08661" lon="5.61037">
        <ele>904.4</ele>
        <time>2026-05-10T09:25:38Z</time>
      </trkpt>
      <trkpt lat="46.08665" lon="5.61039">
        <ele>904.4</ele>
        <time>2026-05-10T09:25:39Z</time>
      </trkpt>
      <trkpt lat="46.08668" lon="5.61039">
        <ele>904.8</ele>
        <time>2026-05-10T09:25:40Z</time>
      </trkpt>
      <trkpt lat="46.08672" lon="5.6104">
        <ele>904.8</ele>
        <time>2026-05-10T09:25:41Z</time>
      </trkpt>
      <trkpt lat="46.08676" lon="5.61041">
        <ele>904.4</ele>
        <time>2026-05-10T09:25:42Z</time>
      </trkpt>
      <trkpt lat="46.08679" lon="5.61041">
        <ele>904.4</ele>
        <time>2026-05-10T09:25:43Z</time>
      </trkpt>
      <trkpt lat="46.08681" lon="5.61042">
        <ele>904.4</ele>
        <time>2026-05-10T09:25:44Z</time>
      </trkpt>
      <trkpt lat="46.08685" lon="5.61042">
        <ele>904.4</ele>
        <time>2026-05-10T09:25:45Z</time>
      </trkpt>
      <trkpt lat="46.08688" lon="5.61041">
        <ele>904.4</ele>
        <time>2026-05-10T09:25:46Z</time>
      </trkpt>
      <trkpt lat="46.08691" lon="5.61041">
        <ele>904.4</ele>
        <time>2026-05-10T09:25:47Z</time>
      </trkpt>
      <trkpt lat="46.08693" lon="5.61041">
        <ele>904.4</ele>
        <time>2026-05-10T09:25:48Z</time>
      </trkpt>
      <trkpt lat="46.08696" lon="5.6104">
        <ele>904.4</ele>
        <time>2026-05-10T09:25:49Z</time>
      </trkpt>
      <trkpt lat="46.087" lon="5.61039">
        <ele>904.6</ele>
        <time>2026-05-10T09:25:50Z</time>
      </trkpt>
      <trkpt lat="46.08703" lon="5.61039">
        <ele>905</ele>
        <time>2026-05-10T09:25:51Z</time>
      </trkpt>
      <trkpt lat="46.08706" lon="5.61038">
        <ele>905</ele>
        <time>2026-05-10T09:25:52Z</time>
      </trkpt>
      <trkpt lat="46.08709" lon="5.61039">
        <ele>905</ele>
        <time>2026-05-10T09:25:53Z</time>
      </trkpt>
      <trkpt lat="46.08713" lon="5.6104">
        <ele>905</ele>
        <time>2026-05-10T09:25:54Z</time>
      </trkpt>
      <trkpt lat="46.08717" lon="5.61041">
        <ele>905</ele>
        <time>2026-05-10T09:25:55Z</time>
      </trkpt>
      <trkpt lat="46.08721" lon="5.61041">
        <ele>905</ele>
        <time>2026-05-10T09:25:56Z</time>
      </trkpt>
      <trkpt lat="46.08725" lon="5.61041">
        <ele>905</ele>
        <time>2026-05-10T09:25:57Z</time>
      </trkpt>
      <trkpt lat="46.08728" lon="5.6104">
        <ele>905</ele>
        <time>2026-05-10T09:25:58Z</time>
      </trkpt>
      <trkpt lat="46.08731" lon="5.61039">
        <ele>905.4</ele>
        <time>2026-05-10T09:25:59Z</time>
      </trkpt>
      <trkpt lat="46.08735" lon="5.61038">
        <ele>905.4</ele>
        <time>2026-05-10T09:26:00Z</time>
      </trkpt>
      <trkpt lat="46.08739" lon="5.61035">
        <ele>905.4</ele>
        <time>2026-05-10T09:26:01Z</time>
      </trkpt>
      <trkpt lat="46.08744" lon="5.61034">
        <ele>905.6</ele>
        <time>2026-05-10T09:26:02Z</time>
      </trkpt>
      <trkpt lat="46.08754" lon="5.61036">
        <ele>905.6</ele>
        <time>2026-05-10T09:26:03Z</time>
      </trkpt>
      <trkpt lat="46.08759" lon="5.61038">
        <ele>905.6</ele>
        <time>2026-05-10T09:26:04Z</time>
      </trkpt>
      <trkpt lat="46.0876" lon="5.61035">
        <ele>905.8</ele>
        <time>2026-05-10T09:26:05Z</time>
      </trkpt>
      <trkpt lat="46.08762" lon="5.61034">
        <ele>906.8</ele>
        <time>2026-05-10T09:26:06Z</time>
      </trkpt>
      <trkpt lat="46.08767" lon="5.61034">
        <ele>906.4</ele>
        <time>2026-05-10T09:26:07Z</time>
      </trkpt>
      <trkpt lat="46.0877" lon="5.61035">
        <ele>906.2</ele>
        <time>2026-05-10T09:26:08Z</time>
      </trkpt>
      <trkpt lat="46.08774" lon="5.61035">
        <ele>905.8</ele>
        <time>2026-05-10T09:26:09Z</time>
      </trkpt>
      <trkpt lat="46.08777" lon="5.61033">
        <ele>905.8</ele>
        <time>2026-05-10T09:26:10Z</time>
      </trkpt>
      <trkpt lat="46.0878" lon="5.61031">
        <ele>905.8</ele>
        <time>2026-05-10T09:26:11Z</time>
      </trkpt>
      <trkpt lat="46.08782" lon="5.61031">
        <ele>905</ele>
        <time>2026-05-10T09:26:12Z</time>
      </trkpt>
      <trkpt lat="46.08787" lon="5.61032">
        <ele>904.6</ele>
        <time>2026-05-10T09:26:13Z</time>
      </trkpt>
      <trkpt lat="46.0879" lon="5.61031">
        <ele>904.6</ele>
        <time>2026-05-10T09:26:14Z</time>
      </trkpt>
      <trkpt lat="46.08793" lon="5.61031">
        <ele>905.2</ele>
        <time>2026-05-10T09:26:15Z</time>
      </trkpt>
      <trkpt lat="46.08796" lon="5.61031">
        <ele>905.8</ele>
        <time>2026-05-10T09:26:16Z</time>
      </trkpt>
      <trkpt lat="46.088" lon="5.61031">
        <ele>906</ele>
        <time>2026-05-10T09:26:17Z</time>
      </trkpt>
      <trkpt lat="46.08803" lon="5.6103">
        <ele>906</ele>
        <time>2026-05-10T09:26:18Z</time>
      </trkpt>
      <trkpt lat="46.08807" lon="5.6103">
        <ele>906</ele>
        <time>2026-05-10T09:26:19Z</time>
      </trkpt>
      <trkpt lat="46.0881" lon="5.61029">
        <ele>905.6</ele>
        <time>2026-05-10T09:26:20Z</time>
      </trkpt>
      <trkpt lat="46.08813" lon="5.6103">
        <ele>906</ele>
        <time>2026-05-10T09:26:21Z</time>
      </trkpt>
      <trkpt lat="46.08818" lon="5.6103">
        <ele>906</ele>
        <time>2026-05-10T09:26:22Z</time>
      </trkpt>
      <trkpt lat="46.08822" lon="5.61031">
        <ele>906</ele>
        <time>2026-05-10T09:26:23Z</time>
      </trkpt>
      <trkpt lat="46.08827" lon="5.61031">
        <ele>906</ele>
        <time>2026-05-10T09:26:24Z</time>
      </trkpt>
      <trkpt lat="46.08831" lon="5.6103">
        <ele>906</ele>
        <time>2026-05-10T09:26:25Z</time>
      </trkpt>
      <trkpt lat="46.08835" lon="5.6103">
        <ele>906</ele>
        <time>2026-05-10T09:26:26Z</time>
      </trkpt>
      <trkpt lat="46.08839" lon="5.61031">
        <ele>906</ele>
        <time>2026-05-10T09:26:27Z</time>
      </trkpt>
      <trkpt lat="46.08843" lon="5.61031">
        <ele>906.2</ele>
        <time>2026-05-10T09:26:28Z</time>
      </trkpt>
      <trkpt lat="46.08847" lon="5.61031">
        <ele>906</ele>
        <time>2026-05-10T09:26:29Z</time>
      </trkpt>
      <trkpt lat="46.08851" lon="5.61031">
        <ele>906</ele>
        <time>2026-05-10T09:26:30Z</time>
      </trkpt>
      <trkpt lat="46.08855" lon="5.61031">
        <ele>906</ele>
        <time>2026-05-10T09:26:31Z</time>
      </trkpt>
      <trkpt lat="46.08859" lon="5.61032">
        <ele>906.6</ele>
        <time>2026-05-10T09:26:32Z</time>
      </trkpt>
      <trkpt lat="46.08863" lon="5.61032">
        <ele>905.6</ele>
        <time>2026-05-10T09:26:33Z</time>
      </trkpt>
      <trkpt lat="46.08866" lon="5.61032">
        <ele>905.8</ele>
        <time>2026-05-10T09:26:34Z</time>
      </trkpt>
      <trkpt lat="46.0887" lon="5.61033">
        <ele>905</ele>
        <time>2026-05-10T09:26:35Z</time>
      </trkpt>
      <trkpt lat="46.08873" lon="5.61033">
        <ele>905.6</ele>
        <time>2026-05-10T09:26:36Z</time>
      </trkpt>
      <trkpt lat="46.08878" lon="5.61034">
        <ele>905.6</ele>
        <time>2026-05-10T09:26:37Z</time>
      </trkpt>
      <trkpt lat="46.08882" lon="5.61035">
        <ele>905.8</ele>
        <time>2026-05-10T09:26:38Z</time>
      </trkpt>
      <trkpt lat="46.08886" lon="5.61036">
        <ele>905.8</ele>
        <time>2026-05-10T09:26:39Z</time>
      </trkpt>
      <trkpt lat="46.0889" lon="5.61038">
        <ele>906.2</ele>
        <time>2026-05-10T09:26:40Z</time>
      </trkpt>
      <trkpt lat="46.08893" lon="5.61039">
        <ele>906.2</ele>
        <time>2026-05-10T09:26:41Z</time>
      </trkpt>
      <trkpt lat="46.08897" lon="5.6104">
        <ele>905.8</ele>
        <time>2026-05-10T09:26:42Z</time>
      </trkpt>
      <trkpt lat="46.08901" lon="5.6104">
        <ele>905.8</ele>
        <time>2026-05-10T09:26:43Z</time>
      </trkpt>
      <trkpt lat="46.08904" lon="5.61041">
        <ele>905.8</ele>
        <time>2026-05-10T09:26:44Z</time>
      </trkpt>
      <trkpt lat="46.08906" lon="5.61041">
        <ele>906</ele>
        <time>2026-05-10T09:26:45Z</time>
      </trkpt>
      <trkpt lat="46.0891" lon="5.61041">
        <ele>906.4</ele>
        <time>2026-05-10T09:26:46Z</time>
      </trkpt>
      <trkpt lat="46.08914" lon="5.61043">
        <ele>906.4</ele>
        <time>2026-05-10T09:26:47Z</time>
      </trkpt>
      <trkpt lat="46.08919" lon="5.61044">
        <ele>906.4</ele>
        <time>2026-05-10T09:26:48Z</time>
      </trkpt>
      <trkpt lat="46.08923" lon="5.61045">
        <ele>905.6</ele>
        <time>2026-05-10T09:26:49Z</time>
      </trkpt>
      <trkpt lat="46.08926" lon="5.61046">
        <ele>905.8</ele>
        <time>2026-05-10T09:26:50Z</time>
      </trkpt>
      <trkpt lat="46.08928" lon="5.61047">
        <ele>905.8</ele>
        <time>2026-05-10T09:26:51Z</time>
      </trkpt>
      <trkpt lat="46.08931" lon="5.6105">
        <ele>906.2</ele>
        <time>2026-05-10T09:26:52Z</time>
      </trkpt>
      <trkpt lat="46.08935" lon="5.61052">
        <ele>906.2</ele>
        <time>2026-05-10T09:26:53Z</time>
      </trkpt>
      <trkpt lat="46.08941" lon="5.61057">
        <ele>906.6</ele>
        <time>2026-05-10T09:26:54Z</time>
      </trkpt>
      <trkpt lat="46.08945" lon="5.6106">
        <ele>907</ele>
        <time>2026-05-10T09:26:55Z</time>
      </trkpt>
      <trkpt lat="46.08948" lon="5.61065">
        <ele>907</ele>
        <time>2026-05-10T09:26:56Z</time>
      </trkpt>
      <trkpt lat="46.08951" lon="5.61069">
        <ele>907</ele>
        <time>2026-05-10T09:26:57Z</time>
      </trkpt>
      <trkpt lat="46.08953" lon="5.61073">
        <ele>907.4</ele>
        <time>2026-05-10T09:26:58Z</time>
      </trkpt>
      <trkpt lat="46.08955" lon="5.61077">
        <ele>907.4</ele>
        <time>2026-05-10T09:26:59Z</time>
      </trkpt>
      <trkpt lat="46.08959" lon="5.61081">
        <ele>907.4</ele>
        <time>2026-05-10T09:27:00Z</time>
      </trkpt>
      <trkpt lat="46.0896" lon="5.61085">
        <ele>907.4</ele>
        <time>2026-05-10T09:27:01Z</time>
      </trkpt>
      <trkpt lat="46.08963" lon="5.61087">
        <ele>907.4</ele>
        <time>2026-05-10T09:27:02Z</time>
      </trkpt>
      <trkpt lat="46.08966" lon="5.61091">
        <ele>907.8</ele>
        <time>2026-05-10T09:27:03Z</time>
      </trkpt>
      <trkpt lat="46.08969" lon="5.61093">
        <ele>907.4</ele>
        <time>2026-05-10T09:27:04Z</time>
      </trkpt>
      <trkpt lat="46.08971" lon="5.61095">
        <ele>907.4</ele>
        <time>2026-05-10T09:27:05Z</time>
      </trkpt>
      <trkpt lat="46.08975" lon="5.61099">
        <ele>907.8</ele>
        <time>2026-05-10T09:27:06Z</time>
      </trkpt>
      <trkpt lat="46.08979" lon="5.61103">
        <ele>907.8</ele>
        <time>2026-05-10T09:27:07Z</time>
      </trkpt>
      <trkpt lat="46.08981" lon="5.61104">
        <ele>908</ele>
        <time>2026-05-10T09:27:08Z</time>
      </trkpt>
      <trkpt lat="46.08984" lon="5.61105">
        <ele>908.4</ele>
        <time>2026-05-10T09:27:09Z</time>
      </trkpt>
      <trkpt lat="46.08986" lon="5.61105">
        <ele>908.4</ele>
        <time>2026-05-10T09:27:10Z</time>
      </trkpt>
      <trkpt lat="46.08988" lon="5.61105">
        <ele>909</ele>
        <time>2026-05-10T09:27:11Z</time>
      </trkpt>
      <trkpt lat="46.0899" lon="5.61106">
        <ele>909.4</ele>
        <time>2026-05-10T09:27:12Z</time>
      </trkpt>
      <trkpt lat="46.08993" lon="5.61107">
        <ele>909.4</ele>
        <time>2026-05-10T09:27:13Z</time>
      </trkpt>
      <trkpt lat="46.08995" lon="5.61108">
        <ele>909.4</ele>
        <time>2026-05-10T09:27:14Z</time>
      </trkpt>
      <trkpt lat="46.08996" lon="5.61108">
        <ele>909.8</ele>
        <time>2026-05-10T09:27:15Z</time>
      </trkpt>
      <trkpt lat="46.08998" lon="5.61109">
        <ele>909.8</ele>
        <time>2026-05-10T09:27:16Z</time>
      </trkpt>
      <trkpt lat="46.08999" lon="5.61109">
        <ele>910.2</ele>
        <time>2026-05-10T09:27:17Z</time>
      </trkpt>
      <trkpt lat="46.09001" lon="5.6111">
        <ele>910.4</ele>
        <time>2026-05-10T09:27:18Z</time>
      </trkpt>
      <trkpt lat="46.09002" lon="5.61111">
        <ele>910.4</ele>
        <time>2026-05-10T09:27:19Z</time>
      </trkpt>
      <trkpt lat="46.09004" lon="5.61111">
        <ele>910.6</ele>
        <time>2026-05-10T09:27:20Z</time>
      </trkpt>
      <trkpt lat="46.09006" lon="5.61112">
        <ele>910.6</ele>
        <time>2026-05-10T09:27:21Z</time>
      </trkpt>
      <trkpt lat="46.09007" lon="5.61112">
        <ele>911</ele>
        <time>2026-05-10T09:27:22Z</time>
      </trkpt>
      <trkpt lat="46.09008" lon="5.61113">
        <ele>911.2</ele>
        <time>2026-05-10T09:27:23Z</time>
      </trkpt>
      <trkpt lat="46.09009" lon="5.61114">
        <ele>911.2</ele>
        <time>2026-05-10T09:27:24Z</time>
      </trkpt>
      <trkpt lat="46.09011" lon="5.61114">
        <ele>911.2</ele>
        <time>2026-05-10T09:27:25Z</time>
      </trkpt>
      <trkpt lat="46.09013" lon="5.61115">
        <ele>911.4</ele>
        <time>2026-05-10T09:27:26Z</time>
      </trkpt>
      <trkpt lat="46.09015" lon="5.61116">
        <ele>911.4</ele>
        <time>2026-05-10T09:27:27Z</time>
      </trkpt>
      <trkpt lat="46.09017" lon="5.61117">
        <ele>912</ele>
        <time>2026-05-10T09:27:28Z</time>
      </trkpt>
      <trkpt lat="46.09019" lon="5.61117">
        <ele>912</ele>
        <time>2026-05-10T09:27:29Z</time>
      </trkpt>
      <trkpt lat="46.0902" lon="5.61117">
        <ele>912.6</ele>
        <time>2026-05-10T09:27:30Z</time>
      </trkpt>
      <trkpt lat="46.09023" lon="5.61118">
        <ele>913</ele>
        <time>2026-05-10T09:27:31Z</time>
      </trkpt>
      <trkpt lat="46.09027" lon="5.6112">
        <ele>913</ele>
        <time>2026-05-10T09:27:32Z</time>
      </trkpt>
      <trkpt lat="46.0903" lon="5.61122">
        <ele>913.4</ele>
        <time>2026-05-10T09:27:33Z</time>
      </trkpt>
      <trkpt lat="46.09032" lon="5.61124">
        <ele>913.4</ele>
        <time>2026-05-10T09:27:34Z</time>
      </trkpt>
      <trkpt lat="46.09034" lon="5.61126">
        <ele>913.4</ele>
        <time>2026-05-10T09:27:35Z</time>
      </trkpt>
      <trkpt lat="46.09035" lon="5.61127">
        <ele>913.8</ele>
        <time>2026-05-10T09:27:36Z</time>
      </trkpt>
      <trkpt lat="46.09037" lon="5.61128">
        <ele>913.8</ele>
        <time>2026-05-10T09:27:37Z</time>
      </trkpt>
      <trkpt lat="46.09039" lon="5.61129">
        <ele>914.2</ele>
        <time>2026-05-10T09:27:38Z</time>
      </trkpt>
      <trkpt lat="46.09041" lon="5.6113">
        <ele>914.4</ele>
        <time>2026-05-10T09:27:39Z</time>
      </trkpt>
      <trkpt lat="46.09043" lon="5.61131">
        <ele>914.4</ele>
        <time>2026-05-10T09:27:40Z</time>
      </trkpt>
      <trkpt lat="46.09045" lon="5.61132">
        <ele>914.6</ele>
        <time>2026-05-10T09:27:41Z</time>
      </trkpt>
      <trkpt lat="46.09046" lon="5.61133">
        <ele>914.8</ele>
        <time>2026-05-10T09:27:42Z</time>
      </trkpt>
      <trkpt lat="46.09048" lon="5.61133">
        <ele>915</ele>
        <time>2026-05-10T09:27:43Z</time>
      </trkpt>
      <trkpt lat="46.09049" lon="5.61133">
        <ele>915</ele>
        <time>2026-05-10T09:27:44Z</time>
      </trkpt>
      <trkpt lat="46.0905" lon="5.61133">
        <ele>915.4</ele>
        <time>2026-05-10T09:27:45Z</time>
      </trkpt>
      <trkpt lat="46.09052" lon="5.61133">
        <ele>915.6</ele>
        <time>2026-05-10T09:27:46Z</time>
      </trkpt>
      <trkpt lat="46.09054" lon="5.61133">
        <ele>915.6</ele>
        <time>2026-05-10T09:27:47Z</time>
      </trkpt>
      <trkpt lat="46.09056" lon="5.61133">
        <ele>916</ele>
        <time>2026-05-10T09:27:48Z</time>
      </trkpt>
      <trkpt lat="46.09058" lon="5.61133">
        <ele>916</ele>
        <time>2026-05-10T09:27:49Z</time>
      </trkpt>
      <trkpt lat="46.09059" lon="5.61135">
        <ele>916</ele>
        <time>2026-05-10T09:27:50Z</time>
      </trkpt>
      <trkpt lat="46.09061" lon="5.61136">
        <ele>916.2</ele>
        <time>2026-05-10T09:27:51Z</time>
      </trkpt>
      <trkpt lat="46.09063" lon="5.61137">
        <ele>916.2</ele>
        <time>2026-05-10T09:27:52Z</time>
      </trkpt>
      <trkpt lat="46.09064" lon="5.61138">
        <ele>916.6</ele>
        <time>2026-05-10T09:27:53Z</time>
      </trkpt>
      <trkpt lat="46.09066" lon="5.61139">
        <ele>916.8</ele>
        <time>2026-05-10T09:27:54Z</time>
      </trkpt>
      <trkpt lat="46.09068" lon="5.61141">
        <ele>916.8</ele>
        <time>2026-05-10T09:27:55Z</time>
      </trkpt>
      <trkpt lat="46.09069" lon="5.61142">
        <ele>917</ele>
        <time>2026-05-10T09:27:56Z</time>
      </trkpt>
      <trkpt lat="46.09071" lon="5.61143">
        <ele>917</ele>
        <time>2026-05-10T09:27:57Z</time>
      </trkpt>
      <trkpt lat="46.09073" lon="5.61144">
        <ele>917</ele>
        <time>2026-05-10T09:27:58Z</time>
      </trkpt>
      <trkpt lat="46.09075" lon="5.61145">
        <ele>917</ele>
        <time>2026-05-10T09:27:59Z</time>
      </trkpt>
      <trkpt lat="46.09076" lon="5.61144">
        <ele>917</ele>
        <time>2026-05-10T09:28:00Z</time>
      </trkpt>
      <trkpt lat="46.09078" lon="5.61145">
        <ele>917.4</ele>
        <time>2026-05-10T09:28:01Z</time>
      </trkpt>
      <trkpt lat="46.0908" lon="5.61145">
        <ele>917.6</ele>
        <time>2026-05-10T09:28:02Z</time>
      </trkpt>
      <trkpt lat="46.09081" lon="5.61146">
        <ele>917.6</ele>
        <time>2026-05-10T09:28:03Z</time>
      </trkpt>
      <trkpt lat="46.09083" lon="5.61147">
        <ele>917.6</ele>
        <time>2026-05-10T09:28:04Z</time>
      </trkpt>
      <trkpt lat="46.09084" lon="5.61148">
        <ele>918.4</ele>
        <time>2026-05-10T09:28:05Z</time>
      </trkpt>
      <trkpt lat="46.09086" lon="5.61149">
        <ele>918.6</ele>
        <time>2026-05-10T09:28:06Z</time>
      </trkpt>
      <trkpt lat="46.09087" lon="5.61151">
        <ele>918.6</ele>
        <time>2026-05-10T09:28:07Z</time>
      </trkpt>
      <trkpt lat="46.09089" lon="5.61152">
        <ele>919</ele>
        <time>2026-05-10T09:28:08Z</time>
      </trkpt>
      <trkpt lat="46.0909" lon="5.61154">
        <ele>919</ele>
        <time>2026-05-10T09:28:09Z</time>
      </trkpt>
      <trkpt lat="46.09092" lon="5.61155">
        <ele>919</ele>
        <time>2026-05-10T09:28:10Z</time>
      </trkpt>
      <trkpt lat="46.09093" lon="5.61155">
        <ele>919</ele>
        <time>2026-05-10T09:28:11Z</time>
      </trkpt>
      <trkpt lat="46.09095" lon="5.61155">
        <ele>919.2</ele>
        <time>2026-05-10T09:28:12Z</time>
      </trkpt>
      <trkpt lat="46.09097" lon="5.61156">
        <ele>919.4</ele>
        <time>2026-05-10T09:28:13Z</time>
      </trkpt>
      <trkpt lat="46.09098" lon="5.61156">
        <ele>919.8</ele>
        <time>2026-05-10T09:28:14Z</time>
      </trkpt>
      <trkpt lat="46.09099" lon="5.61157">
        <ele>919.8</ele>
        <time>2026-05-10T09:28:15Z</time>
      </trkpt>
      <trkpt lat="46.09101" lon="5.61159">
        <ele>920</ele>
        <time>2026-05-10T09:28:16Z</time>
      </trkpt>
      <trkpt lat="46.09102" lon="5.6116">
        <ele>920.2</ele>
        <time>2026-05-10T09:28:17Z</time>
      </trkpt>
      <trkpt lat="46.09104" lon="5.61162">
        <ele>920.2</ele>
        <time>2026-05-10T09:28:18Z</time>
      </trkpt>
      <trkpt lat="46.09105" lon="5.61163">
        <ele>920.2</ele>
        <time>2026-05-10T09:28:19Z</time>
      </trkpt>
      <trkpt lat="46.09105" lon="5.61163">
        <ele>920.6</ele>
        <time>2026-05-10T09:28:20Z</time>
      </trkpt>
      <trkpt lat="46.09106" lon="5.61165">
        <ele>920.6</ele>
        <time>2026-05-10T09:28:21Z</time>
      </trkpt>
      <trkpt lat="46.09108" lon="5.61166">
        <ele>921</ele>
        <time>2026-05-10T09:28:22Z</time>
      </trkpt>
      <trkpt lat="46.09109" lon="5.61169">
        <ele>921.4</ele>
        <time>2026-05-10T09:28:23Z</time>
      </trkpt>
      <trkpt lat="46.0911" lon="5.61171">
        <ele>921.4</ele>
        <time>2026-05-10T09:28:24Z</time>
      </trkpt>
      <trkpt lat="46.09112" lon="5.61173">
        <ele>921.4</ele>
        <time>2026-05-10T09:28:25Z</time>
      </trkpt>
      <trkpt lat="46.09113" lon="5.61175">
        <ele>921.8</ele>
        <time>2026-05-10T09:28:26Z</time>
      </trkpt>
      <trkpt lat="46.09115" lon="5.61177">
        <ele>921.8</ele>
        <time>2026-05-10T09:28:27Z</time>
      </trkpt>
      <trkpt lat="46.09116" lon="5.61179">
        <ele>922.2</ele>
        <time>2026-05-10T09:28:28Z</time>
      </trkpt>
      <trkpt lat="46.09118" lon="5.6118">
        <ele>922.2</ele>
        <time>2026-05-10T09:28:29Z</time>
      </trkpt>
      <trkpt lat="46.09119" lon="5.61182">
        <ele>922.4</ele>
        <time>2026-05-10T09:28:30Z</time>
      </trkpt>
      <trkpt lat="46.09121" lon="5.61184">
        <ele>922.4</ele>
        <time>2026-05-10T09:28:31Z</time>
      </trkpt>
      <trkpt lat="46.09122" lon="5.61186">
        <ele>922.8</ele>
        <time>2026-05-10T09:28:32Z</time>
      </trkpt>
      <trkpt lat="46.09123" lon="5.61188">
        <ele>922.8</ele>
        <time>2026-05-10T09:28:33Z</time>
      </trkpt>
      <trkpt lat="46.09125" lon="5.61189">
        <ele>922.8</ele>
        <time>2026-05-10T09:28:34Z</time>
      </trkpt>
      <trkpt lat="46.09127" lon="5.61191">
        <ele>923</ele>
        <time>2026-05-10T09:28:35Z</time>
      </trkpt>
      <trkpt lat="46.09128" lon="5.61192">
        <ele>922.6</ele>
        <time>2026-05-10T09:28:36Z</time>
      </trkpt>
      <trkpt lat="46.0913" lon="5.61193">
        <ele>923</ele>
        <time>2026-05-10T09:28:37Z</time>
      </trkpt>
      <trkpt lat="46.09131" lon="5.61193">
        <ele>923</ele>
        <time>2026-05-10T09:28:38Z</time>
      </trkpt>
      <trkpt lat="46.09132" lon="5.61193">
        <ele>923.4</ele>
        <time>2026-05-10T09:28:39Z</time>
      </trkpt>
      <trkpt lat="46.09133" lon="5.61194">
        <ele>923.4</ele>
        <time>2026-05-10T09:28:40Z</time>
      </trkpt>
      <trkpt lat="46.09134" lon="5.61195">
        <ele>923.8</ele>
        <time>2026-05-10T09:28:41Z</time>
      </trkpt>
      <trkpt lat="46.09135" lon="5.61195">
        <ele>923.8</ele>
        <time>2026-05-10T09:28:42Z</time>
      </trkpt>
      <trkpt lat="46.09136" lon="5.61196">
        <ele>924</ele>
        <time>2026-05-10T09:28:43Z</time>
      </trkpt>
      <trkpt lat="46.09137" lon="5.61197">
        <ele>924.4</ele>
        <time>2026-05-10T09:28:44Z</time>
      </trkpt>
      <trkpt lat="46.09138" lon="5.61197">
        <ele>924.4</ele>
        <time>2026-05-10T09:28:45Z</time>
      </trkpt>
      <trkpt lat="46.09139" lon="5.61198">
        <ele>924.4</ele>
        <time>2026-05-10T09:28:46Z</time>
      </trkpt>
      <trkpt lat="46.09141" lon="5.61199">
        <ele>924.4</ele>
        <time>2026-05-10T09:28:47Z</time>
      </trkpt>
      <trkpt lat="46.09142" lon="5.61201">
        <ele>924.4</ele>
        <time>2026-05-10T09:28:48Z</time>
      </trkpt>
      <trkpt lat="46.09143" lon="5.61202">
        <ele>924.4</ele>
        <time>2026-05-10T09:28:49Z</time>
      </trkpt>
      <trkpt lat="46.09144" lon="5.61204">
        <ele>924.8</ele>
        <time>2026-05-10T09:28:50Z</time>
      </trkpt>
      <trkpt lat="46.09145" lon="5.61205">
        <ele>925</ele>
        <time>2026-05-10T09:28:51Z</time>
      </trkpt>
      <trkpt lat="46.09147" lon="5.61207">
        <ele>925</ele>
        <time>2026-05-10T09:28:52Z</time>
      </trkpt>
      <trkpt lat="46.09149" lon="5.61208">
        <ele>925.2</ele>
        <time>2026-05-10T09:28:53Z</time>
      </trkpt>
      <trkpt lat="46.0915" lon="5.61209">
        <ele>925.2</ele>
        <time>2026-05-10T09:28:54Z</time>
      </trkpt>
      <trkpt lat="46.09152" lon="5.61211">
        <ele>925.6</ele>
        <time>2026-05-10T09:28:55Z</time>
      </trkpt>
      <trkpt lat="46.09153" lon="5.61213">
        <ele>925.6</ele>
        <time>2026-05-10T09:28:56Z</time>
      </trkpt>
      <trkpt lat="46.09154" lon="5.61214">
        <ele>925.6</ele>
        <time>2026-05-10T09:28:57Z</time>
      </trkpt>
      <trkpt lat="46.09156" lon="5.61216">
        <ele>925.8</ele>
        <time>2026-05-10T09:28:58Z</time>
      </trkpt>
      <trkpt lat="46.09157" lon="5.61219">
        <ele>925.8</ele>
        <time>2026-05-10T09:28:59Z</time>
      </trkpt>
      <trkpt lat="46.09159" lon="5.6122">
        <ele>925.8</ele>
        <time>2026-05-10T09:29:00Z</time>
      </trkpt>
      <trkpt lat="46.0916" lon="5.61222">
        <ele>926.4</ele>
        <time>2026-05-10T09:29:01Z</time>
      </trkpt>
      <trkpt lat="46.09162" lon="5.61223">
        <ele>926.4</ele>
        <time>2026-05-10T09:29:02Z</time>
      </trkpt>
      <trkpt lat="46.09164" lon="5.61224">
        <ele>926.8</ele>
        <time>2026-05-10T09:29:03Z</time>
      </trkpt>
      <trkpt lat="46.09166" lon="5.61225">
        <ele>926.8</ele>
        <time>2026-05-10T09:29:04Z</time>
      </trkpt>
      <trkpt lat="46.09167" lon="5.61226">
        <ele>926.8</ele>
        <time>2026-05-10T09:29:05Z</time>
      </trkpt>
      <trkpt lat="46.09168" lon="5.61227">
        <ele>926.8</ele>
        <time>2026-05-10T09:29:06Z</time>
      </trkpt>
      <trkpt lat="46.09169" lon="5.61227">
        <ele>927.2</ele>
        <time>2026-05-10T09:29:07Z</time>
      </trkpt>
      <trkpt lat="46.09171" lon="5.61227">
        <ele>927.4</ele>
        <time>2026-05-10T09:29:08Z</time>
      </trkpt>
      <trkpt lat="46.09172" lon="5.61227">
        <ele>927.4</ele>
        <time>2026-05-10T09:29:09Z</time>
      </trkpt>
      <trkpt lat="46.09173" lon="5.61228">
        <ele>927.4</ele>
        <time>2026-05-10T09:29:10Z</time>
      </trkpt>
      <trkpt lat="46.09175" lon="5.61229">
        <ele>928</ele>
        <time>2026-05-10T09:29:11Z</time>
      </trkpt>
      <trkpt lat="46.09176" lon="5.6123">
        <ele>928</ele>
        <time>2026-05-10T09:29:12Z</time>
      </trkpt>
      <trkpt lat="46.09178" lon="5.6123">
        <ele>928.4</ele>
        <time>2026-05-10T09:29:13Z</time>
      </trkpt>
      <trkpt lat="46.09179" lon="5.6123">
        <ele>928.6</ele>
        <time>2026-05-10T09:29:14Z</time>
      </trkpt>
      <trkpt lat="46.0918" lon="5.6123">
        <ele>928.8</ele>
        <time>2026-05-10T09:29:15Z</time>
      </trkpt>
      <trkpt lat="46.09181" lon="5.6123">
        <ele>929.2</ele>
        <time>2026-05-10T09:29:16Z</time>
      </trkpt>
      <trkpt lat="46.09183" lon="5.61232">
        <ele>929.2</ele>
        <time>2026-05-10T09:29:17Z</time>
      </trkpt>
      <trkpt lat="46.09185" lon="5.61233">
        <ele>929.4</ele>
        <time>2026-05-10T09:29:18Z</time>
      </trkpt>
      <trkpt lat="46.09187" lon="5.61233">
        <ele>929.4</ele>
        <time>2026-05-10T09:29:19Z</time>
      </trkpt>
      <trkpt lat="46.09188" lon="5.61233">
        <ele>930</ele>
        <time>2026-05-10T09:29:20Z</time>
      </trkpt>
      <trkpt lat="46.0919" lon="5.61232">
        <ele>930</ele>
        <time>2026-05-10T09:29:21Z</time>
      </trkpt>
      <trkpt lat="46.09192" lon="5.61232">
        <ele>930</ele>
        <time>2026-05-10T09:29:22Z</time>
      </trkpt>
      <trkpt lat="46.09193" lon="5.61231">
        <ele>930</ele>
        <time>2026-05-10T09:29:23Z</time>
      </trkpt>
      <trkpt lat="46.09194" lon="5.61231">
        <ele>930.4</ele>
        <time>2026-05-10T09:29:24Z</time>
      </trkpt>
      <trkpt lat="46.09196" lon="5.61231">
        <ele>930.8</ele>
        <time>2026-05-10T09:29:25Z</time>
      </trkpt>
      <trkpt lat="46.09198" lon="5.61232">
        <ele>930.8</ele>
        <time>2026-05-10T09:29:26Z</time>
      </trkpt>
      <trkpt lat="46.09199" lon="5.61232">
        <ele>931</ele>
        <time>2026-05-10T09:29:27Z</time>
      </trkpt>
      <trkpt lat="46.092" lon="5.61233">
        <ele>931</ele>
        <time>2026-05-10T09:29:28Z</time>
      </trkpt>
      <trkpt lat="46.09202" lon="5.61233">
        <ele>931</ele>
        <time>2026-05-10T09:29:29Z</time>
      </trkpt>
      <trkpt lat="46.09204" lon="5.61234">
        <ele>931</ele>
        <time>2026-05-10T09:29:30Z</time>
      </trkpt>
      <trkpt lat="46.09206" lon="5.61234">
        <ele>931.6</ele>
        <time>2026-05-10T09:29:31Z</time>
      </trkpt>
      <trkpt lat="46.09207" lon="5.61233">
        <ele>932</ele>
        <time>2026-05-10T09:29:32Z</time>
      </trkpt>
      <trkpt lat="46.09208" lon="5.61232">
        <ele>932</ele>
        <time>2026-05-10T09:29:33Z</time>
      </trkpt>
      <trkpt lat="46.0921" lon="5.61232">
        <ele>932</ele>
        <time>2026-05-10T09:29:34Z</time>
      </trkpt>
      <trkpt lat="46.09211" lon="5.61231">
        <ele>932.2</ele>
        <time>2026-05-10T09:29:35Z</time>
      </trkpt>
      <trkpt lat="46.09212" lon="5.61231">
        <ele>932.4</ele>
        <time>2026-05-10T09:29:36Z</time>
      </trkpt>
      <trkpt lat="46.09214" lon="5.6123">
        <ele>932.4</ele>
        <time>2026-05-10T09:29:37Z</time>
      </trkpt>
      <trkpt lat="46.09215" lon="5.6123">
        <ele>932.4</ele>
        <time>2026-05-10T09:29:38Z</time>
      </trkpt>
      <trkpt lat="46.09216" lon="5.6123">
        <ele>933</ele>
        <time>2026-05-10T09:29:39Z</time>
      </trkpt>
      <trkpt lat="46.09218" lon="5.61229">
        <ele>933</ele>
        <time>2026-05-10T09:29:40Z</time>
      </trkpt>
      <trkpt lat="46.09219" lon="5.6123">
        <ele>933</ele>
        <time>2026-05-10T09:29:41Z</time>
      </trkpt>
      <trkpt lat="46.09221" lon="5.61232">
        <ele>933.6</ele>
        <time>2026-05-10T09:29:42Z</time>
      </trkpt>
      <trkpt lat="46.09221" lon="5.61233">
        <ele>933.6</ele>
        <time>2026-05-10T09:29:43Z</time>
      </trkpt>
      <trkpt lat="46.09221" lon="5.61232">
        <ele>933.6</ele>
        <time>2026-05-10T09:29:44Z</time>
      </trkpt>
      <trkpt lat="46.09222" lon="5.61231">
        <ele>933.6</ele>
        <time>2026-05-10T09:29:45Z</time>
      </trkpt>
      <trkpt lat="46.09223" lon="5.61231">
        <ele>934</ele>
        <time>2026-05-10T09:29:46Z</time>
      </trkpt>
      <trkpt lat="46.09225" lon="5.61233">
        <ele>934</ele>
        <time>2026-05-10T09:29:47Z</time>
      </trkpt>
      <trkpt lat="46.09228" lon="5.61237">
        <ele>934.2</ele>
        <time>2026-05-10T09:29:48Z</time>
      </trkpt>
      <trkpt lat="46.0923" lon="5.61239">
        <ele>934.2</ele>
        <time>2026-05-10T09:29:49Z</time>
      </trkpt>
      <trkpt lat="46.09231" lon="5.61241">
        <ele>934.4</ele>
        <time>2026-05-10T09:29:50Z</time>
      </trkpt>
      <trkpt lat="46.09232" lon="5.61243">
        <ele>934.4</ele>
        <time>2026-05-10T09:29:51Z</time>
      </trkpt>
      <trkpt lat="46.09232" lon="5.61244">
        <ele>934.4</ele>
        <time>2026-05-10T09:29:52Z</time>
      </trkpt>
      <trkpt lat="46.09232" lon="5.61245">
        <ele>934.4</ele>
        <time>2026-05-10T09:29:53Z</time>
      </trkpt>
      <trkpt lat="46.09233" lon="5.61246">
        <ele>934.6</ele>
        <time>2026-05-10T09:29:54Z</time>
      </trkpt>
      <trkpt lat="46.09234" lon="5.61246">
        <ele>935</ele>
        <time>2026-05-10T09:29:55Z</time>
      </trkpt>
      <trkpt lat="46.09236" lon="5.61248">
        <ele>935</ele>
        <time>2026-05-10T09:29:56Z</time>
      </trkpt>
      <trkpt lat="46.09238" lon="5.6125">
        <ele>935.4</ele>
        <time>2026-05-10T09:29:57Z</time>
      </trkpt>
      <trkpt lat="46.0924" lon="5.61252">
        <ele>935.4</ele>
        <time>2026-05-10T09:29:58Z</time>
      </trkpt>
      <trkpt lat="46.09243" lon="5.61254">
        <ele>935.6</ele>
        <time>2026-05-10T09:29:59Z</time>
      </trkpt>
      <trkpt lat="46.09246" lon="5.61255">
        <ele>935.6</ele>
        <time>2026-05-10T09:30:00Z</time>
      </trkpt>
      <trkpt lat="46.09248" lon="5.61256">
        <ele>936</ele>
        <time>2026-05-10T09:30:01Z</time>
      </trkpt>
      <trkpt lat="46.09251" lon="5.61257">
        <ele>936</ele>
        <time>2026-05-10T09:30:02Z</time>
      </trkpt>
      <trkpt lat="46.09254" lon="5.61257">
        <ele>936.4</ele>
        <time>2026-05-10T09:30:03Z</time>
      </trkpt>
      <trkpt lat="46.09256" lon="5.61257">
        <ele>936.4</ele>
        <time>2026-05-10T09:30:04Z</time>
      </trkpt>
      <trkpt lat="46.09257" lon="5.61257">
        <ele>936.6</ele>
        <time>2026-05-10T09:30:05Z</time>
      </trkpt>
      <trkpt lat="46.09259" lon="5.61256">
        <ele>936.6</ele>
        <time>2026-05-10T09:30:06Z</time>
      </trkpt>
      <trkpt lat="46.09259" lon="5.61256">
        <ele>937.2</ele>
        <time>2026-05-10T09:30:07Z</time>
      </trkpt>
      <trkpt lat="46.0926" lon="5.61256">
        <ele>937.2</ele>
        <time>2026-05-10T09:30:08Z</time>
      </trkpt>
      <trkpt lat="46.09262" lon="5.61256">
        <ele>937.2</ele>
        <time>2026-05-10T09:30:09Z</time>
      </trkpt>
      <trkpt lat="46.09264" lon="5.61256">
        <ele>937.2</ele>
        <time>2026-05-10T09:30:10Z</time>
      </trkpt>
      <trkpt lat="46.09267" lon="5.61255">
        <ele>937.8</ele>
        <time>2026-05-10T09:30:11Z</time>
      </trkpt>
      <trkpt lat="46.09269" lon="5.61255">
        <ele>938</ele>
        <time>2026-05-10T09:30:12Z</time>
      </trkpt>
      <trkpt lat="46.09271" lon="5.61255">
        <ele>938</ele>
        <time>2026-05-10T09:30:13Z</time>
      </trkpt>
      <trkpt lat="46.09273" lon="5.61254">
        <ele>938.2</ele>
        <time>2026-05-10T09:30:14Z</time>
      </trkpt>
      <trkpt lat="46.09276" lon="5.61254">
        <ele>938.2</ele>
        <time>2026-05-10T09:30:15Z</time>
      </trkpt>
      <trkpt lat="46.09278" lon="5.61254">
        <ele>938.6</ele>
        <time>2026-05-10T09:30:16Z</time>
      </trkpt>
      <trkpt lat="46.09279" lon="5.61253">
        <ele>938.6</ele>
        <time>2026-05-10T09:30:17Z</time>
      </trkpt>
      <trkpt lat="46.09281" lon="5.61252">
        <ele>938.8</ele>
        <time>2026-05-10T09:30:18Z</time>
      </trkpt>
      <trkpt lat="46.09281" lon="5.61252">
        <ele>938.8</ele>
        <time>2026-05-10T09:30:19Z</time>
      </trkpt>
      <trkpt lat="46.09281" lon="5.61252">
        <ele>939</ele>
        <time>2026-05-10T09:30:20Z</time>
      </trkpt>
      <trkpt lat="46.09288" lon="5.61252">
        <ele>939</ele>
        <time>2026-05-10T09:30:22Z</time>
      </trkpt>
      <trkpt lat="46.09289" lon="5.61251">
        <ele>939.2</ele>
        <time>2026-05-10T09:30:23Z</time>
      </trkpt>
      <trkpt lat="46.0929" lon="5.61249">
        <ele>939.2</ele>
        <time>2026-05-10T09:30:24Z</time>
      </trkpt>
      <trkpt lat="46.09292" lon="5.61247">
        <ele>939.6</ele>
        <time>2026-05-10T09:30:25Z</time>
      </trkpt>
      <trkpt lat="46.09293" lon="5.61245">
        <ele>939.6</ele>
        <time>2026-05-10T09:30:26Z</time>
      </trkpt>
      <trkpt lat="46.09294" lon="5.61242">
        <ele>939.6</ele>
        <time>2026-05-10T09:30:27Z</time>
      </trkpt>
      <trkpt lat="46.09295" lon="5.61239">
        <ele>939.6</ele>
        <time>2026-05-10T09:30:28Z</time>
      </trkpt>
      <trkpt lat="46.09295" lon="5.61236">
        <ele>940</ele>
        <time>2026-05-10T09:30:29Z</time>
      </trkpt>
      <trkpt lat="46.09295" lon="5.61234">
        <ele>940.2</ele>
        <time>2026-05-10T09:30:30Z</time>
      </trkpt>
      <trkpt lat="46.09294" lon="5.6123">
        <ele>940.4</ele>
        <time>2026-05-10T09:30:31Z</time>
      </trkpt>
      <trkpt lat="46.09295" lon="5.61226">
        <ele>940.4</ele>
        <time>2026-05-10T09:30:32Z</time>
      </trkpt>
      <trkpt lat="46.09296" lon="5.61224">
        <ele>940.8</ele>
        <time>2026-05-10T09:30:33Z</time>
      </trkpt>
      <trkpt lat="46.09297" lon="5.61223">
        <ele>940.8</ele>
        <time>2026-05-10T09:30:34Z</time>
      </trkpt>
      <trkpt lat="46.09298" lon="5.61222">
        <ele>941.2</ele>
        <time>2026-05-10T09:30:35Z</time>
      </trkpt>
      <trkpt lat="46.093" lon="5.61222">
        <ele>941.2</ele>
        <time>2026-05-10T09:30:36Z</time>
      </trkpt>
      <trkpt lat="46.09302" lon="5.61222">
        <ele>941.6</ele>
        <time>2026-05-10T09:30:37Z</time>
      </trkpt>
      <trkpt lat="46.09305" lon="5.61223">
        <ele>941.8</ele>
        <time>2026-05-10T09:30:38Z</time>
      </trkpt>
      <trkpt lat="46.09308" lon="5.61225">
        <ele>941.8</ele>
        <time>2026-05-10T09:30:39Z</time>
      </trkpt>
      <trkpt lat="46.09311" lon="5.61226">
        <ele>941.8</ele>
        <time>2026-05-10T09:30:40Z</time>
      </trkpt>
      <trkpt lat="46.09313" lon="5.61226">
        <ele>941.8</ele>
        <time>2026-05-10T09:30:41Z</time>
      </trkpt>
      <trkpt lat="46.09314" lon="5.61227">
        <ele>941.8</ele>
        <time>2026-05-10T09:30:42Z</time>
      </trkpt>
      <trkpt lat="46.09315" lon="5.61226">
        <ele>941.8</ele>
        <time>2026-05-10T09:30:43Z</time>
      </trkpt>
      <trkpt lat="46.09318" lon="5.61225">
        <ele>942.2</ele>
        <time>2026-05-10T09:30:44Z</time>
      </trkpt>
      <trkpt lat="46.0932" lon="5.61225">
        <ele>942.2</ele>
        <time>2026-05-10T09:30:45Z</time>
      </trkpt>
      <trkpt lat="46.09323" lon="5.61225">
        <ele>942.2</ele>
        <time>2026-05-10T09:30:46Z</time>
      </trkpt>
      <trkpt lat="46.09324" lon="5.61225">
        <ele>942.4</ele>
        <time>2026-05-10T09:30:47Z</time>
      </trkpt>
      <trkpt lat="46.09326" lon="5.61224">
        <ele>942.6</ele>
        <time>2026-05-10T09:30:48Z</time>
      </trkpt>
      <trkpt lat="46.09326" lon="5.61222">
        <ele>942.6</ele>
        <time>2026-05-10T09:30:49Z</time>
      </trkpt>
      <trkpt lat="46.09327" lon="5.6122">
        <ele>943</ele>
        <time>2026-05-10T09:30:50Z</time>
      </trkpt>
      <trkpt lat="46.09328" lon="5.61219">
        <ele>943</ele>
        <time>2026-05-10T09:30:51Z</time>
      </trkpt>
      <trkpt lat="46.09329" lon="5.61218">
        <ele>943.4</ele>
        <time>2026-05-10T09:30:52Z</time>
      </trkpt>
      <trkpt lat="46.0933" lon="5.61217">
        <ele>943.4</ele>
        <time>2026-05-10T09:30:53Z</time>
      </trkpt>
      <trkpt lat="46.09331" lon="5.61216">
        <ele>943.6</ele>
        <time>2026-05-10T09:30:54Z</time>
      </trkpt>
      <trkpt lat="46.09331" lon="5.61215">
        <ele>944.2</ele>
        <time>2026-05-10T09:30:55Z</time>
      </trkpt>
      <trkpt lat="46.09332" lon="5.61213">
        <ele>944.2</ele>
        <time>2026-05-10T09:30:56Z</time>
      </trkpt>
      <trkpt lat="46.09333" lon="5.61212">
        <ele>944.4</ele>
        <time>2026-05-10T09:30:57Z</time>
      </trkpt>
      <trkpt lat="46.09334" lon="5.61211">
        <ele>944.4</ele>
        <time>2026-05-10T09:30:58Z</time>
      </trkpt>
      <trkpt lat="46.09336" lon="5.61211">
        <ele>945</ele>
        <time>2026-05-10T09:30:59Z</time>
      </trkpt>
      <trkpt lat="46.09336" lon="5.61211">
        <ele>945</ele>
        <time>2026-05-10T09:31:00Z</time>
      </trkpt>
      <trkpt lat="46.09341" lon="5.61213">
        <ele>945</ele>
        <time>2026-05-10T09:31:01Z</time>
      </trkpt>
      <trkpt lat="46.09342" lon="5.61213">
        <ele>945</ele>
        <time>2026-05-10T09:31:02Z</time>
      </trkpt>
      <trkpt lat="46.09344" lon="5.61212">
        <ele>945.2</ele>
        <time>2026-05-10T09:31:03Z</time>
      </trkpt>
      <trkpt lat="46.09347" lon="5.61212">
        <ele>945.2</ele>
        <time>2026-05-10T09:31:04Z</time>
      </trkpt>
      <trkpt lat="46.09348" lon="5.61212">
        <ele>945.2</ele>
        <time>2026-05-10T09:31:05Z</time>
      </trkpt>
      <trkpt lat="46.09348" lon="5.61212">
        <ele>945.8</ele>
        <time>2026-05-10T09:31:06Z</time>
      </trkpt>
      <trkpt lat="46.0935" lon="5.61212">
        <ele>945.8</ele>
        <time>2026-05-10T09:31:07Z</time>
      </trkpt>
      <trkpt lat="46.09352" lon="5.61213">
        <ele>945.8</ele>
        <time>2026-05-10T09:31:08Z</time>
      </trkpt>
      <trkpt lat="46.09353" lon="5.61213">
        <ele>946.2</ele>
        <time>2026-05-10T09:31:09Z</time>
      </trkpt>
      <trkpt lat="46.09354" lon="5.61212">
        <ele>946.6</ele>
        <time>2026-05-10T09:31:10Z</time>
      </trkpt>
      <trkpt lat="46.09356" lon="5.61212">
        <ele>946.6</ele>
        <time>2026-05-10T09:31:11Z</time>
      </trkpt>
      <trkpt lat="46.09357" lon="5.61212">
        <ele>947</ele>
        <time>2026-05-10T09:31:12Z</time>
      </trkpt>
      <trkpt lat="46.09359" lon="5.61213">
        <ele>947</ele>
        <time>2026-05-10T09:31:13Z</time>
      </trkpt>
      <trkpt lat="46.09361" lon="5.61214">
        <ele>947.2</ele>
        <time>2026-05-10T09:31:14Z</time>
      </trkpt>
      <trkpt lat="46.09362" lon="5.61215">
        <ele>947.2</ele>
        <time>2026-05-10T09:31:15Z</time>
      </trkpt>
      <trkpt lat="46.09364" lon="5.61215">
        <ele>947.4</ele>
        <time>2026-05-10T09:31:16Z</time>
      </trkpt>
      <trkpt lat="46.09365" lon="5.61216">
        <ele>947.8</ele>
        <time>2026-05-10T09:31:17Z</time>
      </trkpt>
      <trkpt lat="46.09367" lon="5.61217">
        <ele>947.8</ele>
        <time>2026-05-10T09:31:18Z</time>
      </trkpt>
      <trkpt lat="46.09367" lon="5.61217">
        <ele>948</ele>
        <time>2026-05-10T09:31:19Z</time>
      </trkpt>
      <trkpt lat="46.09369" lon="5.61218">
        <ele>948</ele>
        <time>2026-05-10T09:31:20Z</time>
      </trkpt>
      <trkpt lat="46.09371" lon="5.61218">
        <ele>948.4</ele>
        <time>2026-05-10T09:31:21Z</time>
      </trkpt>
      <trkpt lat="46.09372" lon="5.61218">
        <ele>948.8</ele>
        <time>2026-05-10T09:31:22Z</time>
      </trkpt>
      <trkpt lat="46.09373" lon="5.61219">
        <ele>948.8</ele>
        <time>2026-05-10T09:31:23Z</time>
      </trkpt>
      <trkpt lat="46.09375" lon="5.61221">
        <ele>949.2</ele>
        <time>2026-05-10T09:31:24Z</time>
      </trkpt>
      <trkpt lat="46.09375" lon="5.61221">
        <ele>949.2</ele>
        <time>2026-05-10T09:31:25Z</time>
      </trkpt>
      <trkpt lat="46.09376" lon="5.61221">
        <ele>949.2</ele>
        <time>2026-05-10T09:31:26Z</time>
      </trkpt>
      <trkpt lat="46.09377" lon="5.61222">
        <ele>949.2</ele>
        <time>2026-05-10T09:31:27Z</time>
      </trkpt>
      <trkpt lat="46.09379" lon="5.61223">
        <ele>949.2</ele>
        <time>2026-05-10T09:31:28Z</time>
      </trkpt>
      <trkpt lat="46.0938" lon="5.61224">
        <ele>949.4</ele>
        <time>2026-05-10T09:31:29Z</time>
      </trkpt>
      <trkpt lat="46.09382" lon="5.61225">
        <ele>949.4</ele>
        <time>2026-05-10T09:31:30Z</time>
      </trkpt>
      <trkpt lat="46.09384" lon="5.61225">
        <ele>949.4</ele>
        <time>2026-05-10T09:31:31Z</time>
      </trkpt>
      <trkpt lat="46.09384" lon="5.61225">
        <ele>949.8</ele>
        <time>2026-05-10T09:31:32Z</time>
      </trkpt>
      <trkpt lat="46.09386" lon="5.61225">
        <ele>950.2</ele>
        <time>2026-05-10T09:31:33Z</time>
      </trkpt>
      <trkpt lat="46.09388" lon="5.61226">
        <ele>950.4</ele>
        <time>2026-05-10T09:31:34Z</time>
      </trkpt>
      <trkpt lat="46.09389" lon="5.61227">
        <ele>950.4</ele>
        <time>2026-05-10T09:31:35Z</time>
      </trkpt>
      <trkpt lat="46.0939" lon="5.61227">
        <ele>950.8</ele>
        <time>2026-05-10T09:31:36Z</time>
      </trkpt>
      <trkpt lat="46.09391" lon="5.61228">
        <ele>951</ele>
        <time>2026-05-10T09:31:37Z</time>
      </trkpt>
      <trkpt lat="46.09393" lon="5.61229">
        <ele>950.6</ele>
        <time>2026-05-10T09:31:38Z</time>
      </trkpt>
      <trkpt lat="46.09394" lon="5.6123">
        <ele>950.6</ele>
        <time>2026-05-10T09:31:39Z</time>
      </trkpt>
      <trkpt lat="46.09396" lon="5.61231">
        <ele>951</ele>
        <time>2026-05-10T09:31:40Z</time>
      </trkpt>
      <trkpt lat="46.09398" lon="5.61232">
        <ele>951.4</ele>
        <time>2026-05-10T09:31:41Z</time>
      </trkpt>
      <trkpt lat="46.09399" lon="5.61233">
        <ele>951.6</ele>
        <time>2026-05-10T09:31:42Z</time>
      </trkpt>
      <trkpt lat="46.09401" lon="5.61234">
        <ele>951.6</ele>
        <time>2026-05-10T09:31:43Z</time>
      </trkpt>
      <trkpt lat="46.09402" lon="5.61235">
        <ele>952</ele>
        <time>2026-05-10T09:31:44Z</time>
      </trkpt>
      <trkpt lat="46.09404" lon="5.61237">
        <ele>952</ele>
        <time>2026-05-10T09:31:45Z</time>
      </trkpt>
      <trkpt lat="46.09407" lon="5.61239">
        <ele>952.2</ele>
        <time>2026-05-10T09:31:46Z</time>
      </trkpt>
      <trkpt lat="46.09409" lon="5.6124">
        <ele>952.2</ele>
        <time>2026-05-10T09:31:47Z</time>
      </trkpt>
      <trkpt lat="46.09411" lon="5.61241">
        <ele>952</ele>
        <time>2026-05-10T09:31:48Z</time>
      </trkpt>
      <trkpt lat="46.09412" lon="5.61241">
        <ele>952.2</ele>
        <time>2026-05-10T09:31:49Z</time>
      </trkpt>
      <trkpt lat="46.09414" lon="5.61242">
        <ele>952.2</ele>
        <time>2026-05-10T09:31:50Z</time>
      </trkpt>
      <trkpt lat="46.09416" lon="5.61242">
        <ele>952.6</ele>
        <time>2026-05-10T09:31:51Z</time>
      </trkpt>
      <trkpt lat="46.09417" lon="5.61243">
        <ele>953</ele>
        <time>2026-05-10T09:31:52Z</time>
      </trkpt>
      <trkpt lat="46.09419" lon="5.61244">
        <ele>953.4</ele>
        <time>2026-05-10T09:31:53Z</time>
      </trkpt>
      <trkpt lat="46.0942" lon="5.61244">
        <ele>953.4</ele>
        <time>2026-05-10T09:31:54Z</time>
      </trkpt>
      <trkpt lat="46.09421" lon="5.61246">
        <ele>953.6</ele>
        <time>2026-05-10T09:31:55Z</time>
      </trkpt>
      <trkpt lat="46.09422" lon="5.61247">
        <ele>954</ele>
        <time>2026-05-10T09:31:56Z</time>
      </trkpt>
      <trkpt lat="46.09423" lon="5.61248">
        <ele>954.2</ele>
        <time>2026-05-10T09:31:57Z</time>
      </trkpt>
      <trkpt lat="46.09424" lon="5.6125">
        <ele>954.2</ele>
        <time>2026-05-10T09:31:58Z</time>
      </trkpt>
      <trkpt lat="46.09425" lon="5.61252">
        <ele>954.4</ele>
        <time>2026-05-10T09:31:59Z</time>
      </trkpt>
      <trkpt lat="46.09426" lon="5.61254">
        <ele>954.4</ele>
        <time>2026-05-10T09:32:00Z</time>
      </trkpt>
      <trkpt lat="46.09428" lon="5.61255">
        <ele>954</ele>
        <time>2026-05-10T09:32:01Z</time>
      </trkpt>
      <trkpt lat="46.09429" lon="5.61256">
        <ele>954.4</ele>
        <time>2026-05-10T09:32:02Z</time>
      </trkpt>
      <trkpt lat="46.0943" lon="5.61257">
        <ele>954.4</ele>
        <time>2026-05-10T09:32:03Z</time>
      </trkpt>
      <trkpt lat="46.09431" lon="5.61258">
        <ele>954.8</ele>
        <time>2026-05-10T09:32:04Z</time>
      </trkpt>
      <trkpt lat="46.09431" lon="5.6126">
        <ele>955.2</ele>
        <time>2026-05-10T09:32:05Z</time>
      </trkpt>
      <trkpt lat="46.09432" lon="5.61262">
        <ele>955.2</ele>
        <time>2026-05-10T09:32:06Z</time>
      </trkpt>
      <trkpt lat="46.09433" lon="5.61265">
        <ele>955.6</ele>
        <time>2026-05-10T09:32:07Z</time>
      </trkpt>
      <trkpt lat="46.09435" lon="5.61268">
        <ele>955.6</ele>
        <time>2026-05-10T09:32:08Z</time>
      </trkpt>
      <trkpt lat="46.09436" lon="5.6127">
        <ele>955.8</ele>
        <time>2026-05-10T09:32:09Z</time>
      </trkpt>
      <trkpt lat="46.09437" lon="5.61272">
        <ele>955.8</ele>
        <time>2026-05-10T09:32:10Z</time>
      </trkpt>
      <trkpt lat="46.09439" lon="5.61274">
        <ele>956.2</ele>
        <time>2026-05-10T09:32:11Z</time>
      </trkpt>
      <trkpt lat="46.0944" lon="5.61277">
        <ele>956.4</ele>
        <time>2026-05-10T09:32:12Z</time>
      </trkpt>
      <trkpt lat="46.0944" lon="5.61279">
        <ele>956.4</ele>
        <time>2026-05-10T09:32:13Z</time>
      </trkpt>
      <trkpt lat="46.09441" lon="5.61281">
        <ele>956.4</ele>
        <time>2026-05-10T09:32:14Z</time>
      </trkpt>
      <trkpt lat="46.09441" lon="5.61284">
        <ele>956.4</ele>
        <time>2026-05-10T09:32:15Z</time>
      </trkpt>
      <trkpt lat="46.09442" lon="5.61286">
        <ele>957</ele>
        <time>2026-05-10T09:32:16Z</time>
      </trkpt>
      <trkpt lat="46.09443" lon="5.61289">
        <ele>957</ele>
        <time>2026-05-10T09:32:17Z</time>
      </trkpt>
      <trkpt lat="46.09443" lon="5.61291">
        <ele>957.4</ele>
        <time>2026-05-10T09:32:18Z</time>
      </trkpt>
      <trkpt lat="46.09444" lon="5.61292">
        <ele>957.4</ele>
        <time>2026-05-10T09:32:19Z</time>
      </trkpt>
      <trkpt lat="46.09444" lon="5.61294">
        <ele>957.4</ele>
        <time>2026-05-10T09:32:20Z</time>
      </trkpt>
      <trkpt lat="46.09444" lon="5.61297">
        <ele>957.4</ele>
        <time>2026-05-10T09:32:21Z</time>
      </trkpt>
      <trkpt lat="46.09444" lon="5.613">
        <ele>957.6</ele>
        <time>2026-05-10T09:32:22Z</time>
      </trkpt>
      <trkpt lat="46.09445" lon="5.61303">
        <ele>957.6</ele>
        <time>2026-05-10T09:32:23Z</time>
      </trkpt>
      <trkpt lat="46.09445" lon="5.61306">
        <ele>957.8</ele>
        <time>2026-05-10T09:32:24Z</time>
      </trkpt>
      <trkpt lat="46.09446" lon="5.61308">
        <ele>957.8</ele>
        <time>2026-05-10T09:32:25Z</time>
      </trkpt>
      <trkpt lat="46.09446" lon="5.61311">
        <ele>957.8</ele>
        <time>2026-05-10T09:32:26Z</time>
      </trkpt>
      <trkpt lat="46.09446" lon="5.61314">
        <ele>958.4</ele>
        <time>2026-05-10T09:32:27Z</time>
      </trkpt>
      <trkpt lat="46.09447" lon="5.61316">
        <ele>958.4</ele>
        <time>2026-05-10T09:32:28Z</time>
      </trkpt>
      <trkpt lat="46.09447" lon="5.61319">
        <ele>958.4</ele>
        <time>2026-05-10T09:32:29Z</time>
      </trkpt>
      <trkpt lat="46.09447" lon="5.61321">
        <ele>958.4</ele>
        <time>2026-05-10T09:32:30Z</time>
      </trkpt>
      <trkpt lat="46.09447" lon="5.61324">
        <ele>958.4</ele>
        <time>2026-05-10T09:32:31Z</time>
      </trkpt>
      <trkpt lat="46.09448" lon="5.61326">
        <ele>958.8</ele>
        <time>2026-05-10T09:32:32Z</time>
      </trkpt>
      <trkpt lat="46.09449" lon="5.61329">
        <ele>959</ele>
        <time>2026-05-10T09:32:33Z</time>
      </trkpt>
      <trkpt lat="46.09449" lon="5.61332">
        <ele>959</ele>
        <time>2026-05-10T09:32:34Z</time>
      </trkpt>
      <trkpt lat="46.09449" lon="5.61335">
        <ele>959</ele>
        <time>2026-05-10T09:32:35Z</time>
      </trkpt>
      <trkpt lat="46.09449" lon="5.61338">
        <ele>959.6</ele>
        <time>2026-05-10T09:32:36Z</time>
      </trkpt>
      <trkpt lat="46.09449" lon="5.6134">
        <ele>959.6</ele>
        <time>2026-05-10T09:32:37Z</time>
      </trkpt>
      <trkpt lat="46.09449" lon="5.61342">
        <ele>960</ele>
        <time>2026-05-10T09:32:38Z</time>
      </trkpt>
      <trkpt lat="46.09449" lon="5.61345">
        <ele>960.2</ele>
        <time>2026-05-10T09:32:39Z</time>
      </trkpt>
      <trkpt lat="46.09448" lon="5.61347">
        <ele>960.2</ele>
        <time>2026-05-10T09:32:40Z</time>
      </trkpt>
      <trkpt lat="46.09448" lon="5.61349">
        <ele>960.2</ele>
        <time>2026-05-10T09:32:41Z</time>
      </trkpt>
      <trkpt lat="46.09448" lon="5.61351">
        <ele>960.4</ele>
        <time>2026-05-10T09:32:42Z</time>
      </trkpt>
      <trkpt lat="46.09448" lon="5.61354">
        <ele>960.4</ele>
        <time>2026-05-10T09:32:43Z</time>
      </trkpt>
      <trkpt lat="46.09448" lon="5.61358">
        <ele>960.4</ele>
        <time>2026-05-10T09:32:44Z</time>
      </trkpt>
      <trkpt lat="46.09449" lon="5.61359">
        <ele>960.8</ele>
        <time>2026-05-10T09:32:45Z</time>
      </trkpt>
      <trkpt lat="46.09449" lon="5.61362">
        <ele>961</ele>
        <time>2026-05-10T09:32:46Z</time>
      </trkpt>
      <trkpt lat="46.0945" lon="5.61364">
        <ele>961</ele>
        <time>2026-05-10T09:32:47Z</time>
      </trkpt>
      <trkpt lat="46.09451" lon="5.61366">
        <ele>961.4</ele>
        <time>2026-05-10T09:32:48Z</time>
      </trkpt>
      <trkpt lat="46.09452" lon="5.61368">
        <ele>961.4</ele>
        <time>2026-05-10T09:32:49Z</time>
      </trkpt>
      <trkpt lat="46.09453" lon="5.6137">
        <ele>961.8</ele>
        <time>2026-05-10T09:32:50Z</time>
      </trkpt>
      <trkpt lat="46.09454" lon="5.61373">
        <ele>961.8</ele>
        <time>2026-05-10T09:32:51Z</time>
      </trkpt>
      <trkpt lat="46.09455" lon="5.61374">
        <ele>962</ele>
        <time>2026-05-10T09:32:52Z</time>
      </trkpt>
      <trkpt lat="46.09456" lon="5.61376">
        <ele>962.2</ele>
        <time>2026-05-10T09:32:53Z</time>
      </trkpt>
      <trkpt lat="46.09456" lon="5.61377">
        <ele>962.2</ele>
        <time>2026-05-10T09:32:54Z</time>
      </trkpt>
      <trkpt lat="46.09457" lon="5.61379">
        <ele>962.2</ele>
        <time>2026-05-10T09:32:55Z</time>
      </trkpt>
      <trkpt lat="46.09458" lon="5.61381">
        <ele>962.4</ele>
        <time>2026-05-10T09:32:56Z</time>
      </trkpt>
      <trkpt lat="46.09459" lon="5.61382">
        <ele>962.4</ele>
        <time>2026-05-10T09:32:57Z</time>
      </trkpt>
      <trkpt lat="46.09459" lon="5.61382">
        <ele>962.6</ele>
        <time>2026-05-10T09:32:58Z</time>
      </trkpt>
      <trkpt lat="46.09461" lon="5.61382">
        <ele>963</ele>
        <time>2026-05-10T09:32:59Z</time>
      </trkpt>
      <trkpt lat="46.09462" lon="5.61383">
        <ele>963</ele>
        <time>2026-05-10T09:33:00Z</time>
      </trkpt>
      <trkpt lat="46.09463" lon="5.61385">
        <ele>963.2</ele>
        <time>2026-05-10T09:33:01Z</time>
      </trkpt>
      <trkpt lat="46.09463" lon="5.61385">
        <ele>963.2</ele>
        <time>2026-05-10T09:33:02Z</time>
      </trkpt>
      <trkpt lat="46.09464" lon="5.61386">
        <ele>963.6</ele>
        <time>2026-05-10T09:33:03Z</time>
      </trkpt>
      <trkpt lat="46.09466" lon="5.61387">
        <ele>963.6</ele>
        <time>2026-05-10T09:33:04Z</time>
      </trkpt>
      <trkpt lat="46.09468" lon="5.61387">
        <ele>963.8</ele>
        <time>2026-05-10T09:33:05Z</time>
      </trkpt>
      <trkpt lat="46.09469" lon="5.61387">
        <ele>963.8</ele>
        <time>2026-05-10T09:33:06Z</time>
      </trkpt>
      <trkpt lat="46.09471" lon="5.61387">
        <ele>963.8</ele>
        <time>2026-05-10T09:33:07Z</time>
      </trkpt>
      <trkpt lat="46.09473" lon="5.61388">
        <ele>964.2</ele>
        <time>2026-05-10T09:33:08Z</time>
      </trkpt>
      <trkpt lat="46.09475" lon="5.6139">
        <ele>964.2</ele>
        <time>2026-05-10T09:33:09Z</time>
      </trkpt>
      <trkpt lat="46.09476" lon="5.61391">
        <ele>964.2</ele>
        <time>2026-05-10T09:33:10Z</time>
      </trkpt>
      <trkpt lat="46.09478" lon="5.61391">
        <ele>964.6</ele>
        <time>2026-05-10T09:33:11Z</time>
      </trkpt>
      <trkpt lat="46.0948" lon="5.61391">
        <ele>964.6</ele>
        <time>2026-05-10T09:33:12Z</time>
      </trkpt>
      <trkpt lat="46.09481" lon="5.61391">
        <ele>965</ele>
        <time>2026-05-10T09:33:13Z</time>
      </trkpt>
      <trkpt lat="46.09482" lon="5.61391">
        <ele>965</ele>
        <time>2026-05-10T09:33:14Z</time>
      </trkpt>
      <trkpt lat="46.09483" lon="5.61392">
        <ele>965</ele>
        <time>2026-05-10T09:33:15Z</time>
      </trkpt>
      <trkpt lat="46.09484" lon="5.61392">
        <ele>965.2</ele>
        <time>2026-05-10T09:33:16Z</time>
      </trkpt>
      <trkpt lat="46.09486" lon="5.61392">
        <ele>965.2</ele>
        <time>2026-05-10T09:33:17Z</time>
      </trkpt>
      <trkpt lat="46.09487" lon="5.61391">
        <ele>965.6</ele>
        <time>2026-05-10T09:33:18Z</time>
      </trkpt>
      <trkpt lat="46.09488" lon="5.6139">
        <ele>965.8</ele>
        <time>2026-05-10T09:33:19Z</time>
      </trkpt>
      <trkpt lat="46.09489" lon="5.6139">
        <ele>966</ele>
        <time>2026-05-10T09:33:20Z</time>
      </trkpt>
      <trkpt lat="46.09491" lon="5.61391">
        <ele>966</ele>
        <time>2026-05-10T09:33:21Z</time>
      </trkpt>
      <trkpt lat="46.09493" lon="5.61391">
        <ele>966</ele>
        <time>2026-05-10T09:33:22Z</time>
      </trkpt>
      <trkpt lat="46.09495" lon="5.6139">
        <ele>966.4</ele>
        <time>2026-05-10T09:33:23Z</time>
      </trkpt>
      <trkpt lat="46.09496" lon="5.61389">
        <ele>966.6</ele>
        <time>2026-05-10T09:33:24Z</time>
      </trkpt>
      <trkpt lat="46.09498" lon="5.61388">
        <ele>966.6</ele>
        <time>2026-05-10T09:33:25Z</time>
      </trkpt>
      <trkpt lat="46.09499" lon="5.61387">
        <ele>966.6</ele>
        <time>2026-05-10T09:33:26Z</time>
      </trkpt>
      <trkpt lat="46.09501" lon="5.61386">
        <ele>966.6</ele>
        <time>2026-05-10T09:33:27Z</time>
      </trkpt>
      <trkpt lat="46.09503" lon="5.61386">
        <ele>966.4</ele>
        <time>2026-05-10T09:33:28Z</time>
      </trkpt>
      <trkpt lat="46.09505" lon="5.61386">
        <ele>966.8</ele>
        <time>2026-05-10T09:33:29Z</time>
      </trkpt>
      <trkpt lat="46.09506" lon="5.61386">
        <ele>966.8</ele>
        <time>2026-05-10T09:33:30Z</time>
      </trkpt>
      <trkpt lat="46.09508" lon="5.61387">
        <ele>966.8</ele>
        <time>2026-05-10T09:33:31Z</time>
      </trkpt>
      <trkpt lat="46.0951" lon="5.61387">
        <ele>966.8</ele>
        <time>2026-05-10T09:33:32Z</time>
      </trkpt>
      <trkpt lat="46.09511" lon="5.61387">
        <ele>967.2</ele>
        <time>2026-05-10T09:33:33Z</time>
      </trkpt>
      <trkpt lat="46.09512" lon="5.61387">
        <ele>967.2</ele>
        <time>2026-05-10T09:33:34Z</time>
      </trkpt>
      <trkpt lat="46.09514" lon="5.61387">
        <ele>967.4</ele>
        <time>2026-05-10T09:33:35Z</time>
      </trkpt>
      <trkpt lat="46.09515" lon="5.61386">
        <ele>967.4</ele>
        <time>2026-05-10T09:33:36Z</time>
      </trkpt>
      <trkpt lat="46.09517" lon="5.61386">
        <ele>967.4</ele>
        <time>2026-05-10T09:33:37Z</time>
      </trkpt>
      <trkpt lat="46.09519" lon="5.61386">
        <ele>967.4</ele>
        <time>2026-05-10T09:33:38Z</time>
      </trkpt>
      <trkpt lat="46.0952" lon="5.61387">
        <ele>967.4</ele>
        <time>2026-05-10T09:33:39Z</time>
      </trkpt>
      <trkpt lat="46.09522" lon="5.61387">
        <ele>967.6</ele>
        <time>2026-05-10T09:33:40Z</time>
      </trkpt>
      <trkpt lat="46.09524" lon="5.61387">
        <ele>967.6</ele>
        <time>2026-05-10T09:33:41Z</time>
      </trkpt>
      <trkpt lat="46.09526" lon="5.61387">
        <ele>967.6</ele>
        <time>2026-05-10T09:33:42Z</time>
      </trkpt>
      <trkpt lat="46.09528" lon="5.61388">
        <ele>968</ele>
        <time>2026-05-10T09:33:43Z</time>
      </trkpt>
      <trkpt lat="46.0953" lon="5.61389">
        <ele>968</ele>
        <time>2026-05-10T09:33:44Z</time>
      </trkpt>
      <trkpt lat="46.09533" lon="5.61389">
        <ele>968</ele>
        <time>2026-05-10T09:33:45Z</time>
      </trkpt>
      <trkpt lat="46.09534" lon="5.61389">
        <ele>968</ele>
        <time>2026-05-10T09:33:46Z</time>
      </trkpt>
      <trkpt lat="46.09535" lon="5.61389">
        <ele>968</ele>
        <time>2026-05-10T09:33:47Z</time>
      </trkpt>
      <trkpt lat="46.09537" lon="5.6139">
        <ele>968</ele>
        <time>2026-05-10T09:33:48Z</time>
      </trkpt>
      <trkpt lat="46.09538" lon="5.6139">
        <ele>968.2</ele>
        <time>2026-05-10T09:33:49Z</time>
      </trkpt>
      <trkpt lat="46.0954" lon="5.61391">
        <ele>968.2</ele>
        <time>2026-05-10T09:33:50Z</time>
      </trkpt>
      <trkpt lat="46.09541" lon="5.61392">
        <ele>968.2</ele>
        <time>2026-05-10T09:33:51Z</time>
      </trkpt>
      <trkpt lat="46.09543" lon="5.61394">
        <ele>968.2</ele>
        <time>2026-05-10T09:33:52Z</time>
      </trkpt>
      <trkpt lat="46.09543" lon="5.61395">
        <ele>968.2</ele>
        <time>2026-05-10T09:33:53Z</time>
      </trkpt>
      <trkpt lat="46.09543" lon="5.61396">
        <ele>968.2</ele>
        <time>2026-05-10T09:34:00Z</time>
      </trkpt>
      <trkpt lat="46.09543" lon="5.61396">
        <ele>968.2</ele>
        <time>2026-05-10T09:34:01Z</time>
      </trkpt>
      <trkpt lat="46.09542" lon="5.61397">
        <ele>968.2</ele>
        <time>2026-05-10T09:34:02Z</time>
      </trkpt>
      <trkpt lat="46.09541" lon="5.61398">
        <ele>968.2</ele>
        <time>2026-05-10T09:34:03Z</time>
      </trkpt>
      <trkpt lat="46.0954" lon="5.61398">
        <ele>968.2</ele>
        <time>2026-05-10T09:34:04Z</time>
      </trkpt>
      <trkpt lat="46.09541" lon="5.61398">
        <ele>968.2</ele>
        <time>2026-05-10T09:34:05Z</time>
      </trkpt>
      <trkpt lat="46.09544" lon="5.6141">
        <ele>968.4</ele>
        <time>2026-05-10T09:50:42Z</time>
      </trkpt>
      <trkpt lat="46.09544" lon="5.61411">
        <ele>968.4</ele>
        <time>2026-05-10T09:50:43Z</time>
      </trkpt>
      <trkpt lat="46.09544" lon="5.61411">
        <ele>968.4</ele>
        <time>2026-05-10T09:50:44Z</time>
      </trkpt>
      <trkpt lat="46.09544" lon="5.61411">
        <ele>968.4</ele>
        <time>2026-05-10T09:50:45Z</time>
      </trkpt>
      <trkpt lat="46.09545" lon="5.61408">
        <ele>968.4</ele>
        <time>2026-05-10T09:50:46Z</time>
      </trkpt>
      <trkpt lat="46.09546" lon="5.61402">
        <ele>968.4</ele>
        <time>2026-05-10T09:51:05Z</time>
      </trkpt>
      <trkpt lat="46.09547" lon="5.61402">
        <ele>968.2</ele>
        <time>2026-05-10T09:51:06Z</time>
      </trkpt>
      <trkpt lat="46.09547" lon="5.61402">
        <ele>968.2</ele>
        <time>2026-05-10T09:51:07Z</time>
      </trkpt>
      <trkpt lat="46.09548" lon="5.61403">
        <ele>968.2</ele>
        <time>2026-05-10T09:51:08Z</time>
      </trkpt>
      <trkpt lat="46.0955" lon="5.61404">
        <ele>968.2</ele>
        <time>2026-05-10T09:51:09Z</time>
      </trkpt>
      <trkpt lat="46.09551" lon="5.61404">
        <ele>968.2</ele>
        <time>2026-05-10T09:51:10Z</time>
      </trkpt>
      <trkpt lat="46.09552" lon="5.61404">
        <ele>968.2</ele>
        <time>2026-05-10T09:51:11Z</time>
      </trkpt>
      <trkpt lat="46.09553" lon="5.61404">
        <ele>968.2</ele>
        <time>2026-05-10T09:51:12Z</time>
      </trkpt>
      <trkpt lat="46.09554" lon="5.61404">
        <ele>968.2</ele>
        <time>2026-05-10T09:51:13Z</time>
      </trkpt>
      <trkpt lat="46.09556" lon="5.61404">
        <ele>968.2</ele>
        <time>2026-05-10T09:51:14Z</time>
      </trkpt>
      <trkpt lat="46.09557" lon="5.61404">
        <ele>968.2</ele>
        <time>2026-05-10T09:51:15Z</time>
      </trkpt>
      <trkpt lat="46.09559" lon="5.61404">
        <ele>968.2</ele>
        <time>2026-05-10T09:51:16Z</time>
      </trkpt>
      <trkpt lat="46.09561" lon="5.61404">
        <ele>968.2</ele>
        <time>2026-05-10T09:51:17Z</time>
      </trkpt>
      <trkpt lat="46.09562" lon="5.61404">
        <ele>968.2</ele>
        <time>2026-05-10T09:51:18Z</time>
      </trkpt>
      <trkpt lat="46.09565" lon="5.61405">
        <ele>968.4</ele>
        <time>2026-05-10T09:51:19Z</time>
      </trkpt>
      <trkpt lat="46.09567" lon="5.61405">
        <ele>968.4</ele>
        <time>2026-05-10T09:51:20Z</time>
      </trkpt>
      <trkpt lat="46.09569" lon="5.61405">
        <ele>968.4</ele>
        <time>2026-05-10T09:51:21Z</time>
      </trkpt>
      <trkpt lat="46.09571" lon="5.61405">
        <ele>968.4</ele>
        <time>2026-05-10T09:51:22Z</time>
      </trkpt>
      <trkpt lat="46.09573" lon="5.61406">
        <ele>968.4</ele>
        <time>2026-05-10T09:51:23Z</time>
      </trkpt>
      <trkpt lat="46.09575" lon="5.61406">
        <ele>968.2</ele>
        <time>2026-05-10T09:51:24Z</time>
      </trkpt>
      <trkpt lat="46.09577" lon="5.61407">
        <ele>968.2</ele>
        <time>2026-05-10T09:51:25Z</time>
      </trkpt>
      <trkpt lat="46.0958" lon="5.61409">
        <ele>968.2</ele>
        <time>2026-05-10T09:51:26Z</time>
      </trkpt>
      <trkpt lat="46.09583" lon="5.6141">
        <ele>968.4</ele>
        <time>2026-05-10T09:51:27Z</time>
      </trkpt>
      <trkpt lat="46.09585" lon="5.61411">
        <ele>968.2</ele>
        <time>2026-05-10T09:51:28Z</time>
      </trkpt>
      <trkpt lat="46.09588" lon="5.61412">
        <ele>968.2</ele>
        <time>2026-05-10T09:51:29Z</time>
      </trkpt>
      <trkpt lat="46.09591" lon="5.61413">
        <ele>968</ele>
        <time>2026-05-10T09:51:30Z</time>
      </trkpt>
      <trkpt lat="46.09594" lon="5.61415">
        <ele>968</ele>
        <time>2026-05-10T09:51:31Z</time>
      </trkpt>
      <trkpt lat="46.09597" lon="5.61417">
        <ele>968.2</ele>
        <time>2026-05-10T09:51:32Z</time>
      </trkpt>
      <trkpt lat="46.096" lon="5.61419">
        <ele>967.8</ele>
        <time>2026-05-10T09:51:33Z</time>
      </trkpt>
      <trkpt lat="46.09603" lon="5.6142">
        <ele>968</ele>
        <time>2026-05-10T09:51:34Z</time>
      </trkpt>
      <trkpt lat="46.09606" lon="5.6142">
        <ele>968</ele>
        <time>2026-05-10T09:51:35Z</time>
      </trkpt>
      <trkpt lat="46.09609" lon="5.6142">
        <ele>968</ele>
        <time>2026-05-10T09:51:36Z</time>
      </trkpt>
      <trkpt lat="46.09612" lon="5.61419">
        <ele>968</ele>
        <time>2026-05-10T09:51:37Z</time>
      </trkpt>
      <trkpt lat="46.09615" lon="5.6142">
        <ele>968</ele>
        <time>2026-05-10T09:51:38Z</time>
      </trkpt>
      <trkpt lat="46.09617" lon="5.6142">
        <ele>967</ele>
        <time>2026-05-10T09:51:39Z</time>
      </trkpt>
      <trkpt lat="46.0962" lon="5.6142">
        <ele>967.6</ele>
        <time>2026-05-10T09:51:40Z</time>
      </trkpt>
      <trkpt lat="46.09623" lon="5.6142">
        <ele>967.8</ele>
        <time>2026-05-10T09:51:41Z</time>
      </trkpt>
      <trkpt lat="46.09626" lon="5.61419">
        <ele>967.8</ele>
        <time>2026-05-10T09:51:42Z</time>
      </trkpt>
      <trkpt lat="46.09629" lon="5.61419">
        <ele>967.8</ele>
        <time>2026-05-10T09:51:43Z</time>
      </trkpt>
      <trkpt lat="46.09632" lon="5.6142">
        <ele>967.8</ele>
        <time>2026-05-10T09:51:44Z</time>
      </trkpt>
      <trkpt lat="46.09636" lon="5.61421">
        <ele>967.8</ele>
        <time>2026-05-10T09:51:45Z</time>
      </trkpt>
      <trkpt lat="46.09639" lon="5.61423">
        <ele>967.8</ele>
        <time>2026-05-10T09:51:46Z</time>
      </trkpt>
      <trkpt lat="46.09642" lon="5.61426">
        <ele>967.8</ele>
        <time>2026-05-10T09:51:47Z</time>
      </trkpt>
      <trkpt lat="46.09645" lon="5.6143">
        <ele>968</ele>
        <time>2026-05-10T09:51:48Z</time>
      </trkpt>
      <trkpt lat="46.09648" lon="5.61433">
        <ele>968</ele>
        <time>2026-05-10T09:51:49Z</time>
      </trkpt>
      <trkpt lat="46.09651" lon="5.61437">
        <ele>967.8</ele>
        <time>2026-05-10T09:51:50Z</time>
      </trkpt>
      <trkpt lat="46.09654" lon="5.61438">
        <ele>967.8</ele>
        <time>2026-05-10T09:51:51Z</time>
      </trkpt>
      <trkpt lat="46.09657" lon="5.6144">
        <ele>967.8</ele>
        <time>2026-05-10T09:51:52Z</time>
      </trkpt>
      <trkpt lat="46.0966" lon="5.61441">
        <ele>967.6</ele>
        <time>2026-05-10T09:51:53Z</time>
      </trkpt>
      <trkpt lat="46.09664" lon="5.61442">
        <ele>967.6</ele>
        <time>2026-05-10T09:51:54Z</time>
      </trkpt>
      <trkpt lat="46.09669" lon="5.61445">
        <ele>967.6</ele>
        <time>2026-05-10T09:51:55Z</time>
      </trkpt>
      <trkpt lat="46.09672" lon="5.61447">
        <ele>967.6</ele>
        <time>2026-05-10T09:51:56Z</time>
      </trkpt>
      <trkpt lat="46.09676" lon="5.61446">
        <ele>967.6</ele>
        <time>2026-05-10T09:51:57Z</time>
      </trkpt>
      <trkpt lat="46.0968" lon="5.61445">
        <ele>967.6</ele>
        <time>2026-05-10T09:51:58Z</time>
      </trkpt>
      <trkpt lat="46.09683" lon="5.61445">
        <ele>967.6</ele>
        <time>2026-05-10T09:51:59Z</time>
      </trkpt>
      <trkpt lat="46.09683" lon="5.61445">
        <ele>967.6</ele>
        <time>2026-05-10T09:52:00Z</time>
      </trkpt>
      <trkpt lat="46.0969" lon="5.61443">
        <ele>967.6</ele>
        <time>2026-05-10T09:52:01Z</time>
      </trkpt>
      <trkpt lat="46.09693" lon="5.61441">
        <ele>967.6</ele>
        <time>2026-05-10T09:52:02Z</time>
      </trkpt>
      <trkpt lat="46.09697" lon="5.6144">
        <ele>967.2</ele>
        <time>2026-05-10T09:52:03Z</time>
      </trkpt>
      <trkpt lat="46.09701" lon="5.61441">
        <ele>967</ele>
        <time>2026-05-10T09:52:04Z</time>
      </trkpt>
      <trkpt lat="46.09704" lon="5.61442">
        <ele>967.4</ele>
        <time>2026-05-10T09:52:05Z</time>
      </trkpt>
      <trkpt lat="46.09708" lon="5.61442">
        <ele>967.4</ele>
        <time>2026-05-10T09:52:06Z</time>
      </trkpt>
      <trkpt lat="46.09712" lon="5.61442">
        <ele>967.4</ele>
        <time>2026-05-10T09:52:07Z</time>
      </trkpt>
      <trkpt lat="46.09716" lon="5.61443">
        <ele>967.4</ele>
        <time>2026-05-10T09:52:08Z</time>
      </trkpt>
      <trkpt lat="46.0972" lon="5.61444">
        <ele>967</ele>
        <time>2026-05-10T09:52:09Z</time>
      </trkpt>
      <trkpt lat="46.09724" lon="5.61446">
        <ele>967</ele>
        <time>2026-05-10T09:52:10Z</time>
      </trkpt>
      <trkpt lat="46.09728" lon="5.61449">
        <ele>967</ele>
        <time>2026-05-10T09:52:11Z</time>
      </trkpt>
      <trkpt lat="46.09731" lon="5.61452">
        <ele>967</ele>
        <time>2026-05-10T09:52:12Z</time>
      </trkpt>
      <trkpt lat="46.09734" lon="5.61456">
        <ele>966.6</ele>
        <time>2026-05-10T09:52:13Z</time>
      </trkpt>
      <trkpt lat="46.09737" lon="5.61461">
        <ele>966.6</ele>
        <time>2026-05-10T09:52:14Z</time>
      </trkpt>
      <trkpt lat="46.0974" lon="5.61465">
        <ele>966.4</ele>
        <time>2026-05-10T09:52:15Z</time>
      </trkpt>
      <trkpt lat="46.09743" lon="5.61468">
        <ele>966.6</ele>
        <time>2026-05-10T09:52:16Z</time>
      </trkpt>
      <trkpt lat="46.09748" lon="5.61472">
        <ele>966.2</ele>
        <time>2026-05-10T09:52:17Z</time>
      </trkpt>
      <trkpt lat="46.09751" lon="5.61473">
        <ele>966.2</ele>
        <time>2026-05-10T09:52:18Z</time>
      </trkpt>
      <trkpt lat="46.09754" lon="5.61475">
        <ele>966.2</ele>
        <time>2026-05-10T09:52:19Z</time>
      </trkpt>
      <trkpt lat="46.09758" lon="5.61475">
        <ele>966.2</ele>
        <time>2026-05-10T09:52:20Z</time>
      </trkpt>
      <trkpt lat="46.09761" lon="5.61476">
        <ele>966.4</ele>
        <time>2026-05-10T09:52:21Z</time>
      </trkpt>
      <trkpt lat="46.09765" lon="5.61476">
        <ele>966.4</ele>
        <time>2026-05-10T09:52:22Z</time>
      </trkpt>
      <trkpt lat="46.09769" lon="5.61474">
        <ele>966.2</ele>
        <time>2026-05-10T09:52:23Z</time>
      </trkpt>
      <trkpt lat="46.09773" lon="5.61471">
        <ele>966.6</ele>
        <time>2026-05-10T09:52:24Z</time>
      </trkpt>
      <trkpt lat="46.09776" lon="5.61472">
        <ele>966.4</ele>
        <time>2026-05-10T09:52:25Z</time>
      </trkpt>
      <trkpt lat="46.0978" lon="5.61467">
        <ele>966.6</ele>
        <time>2026-05-10T09:52:26Z</time>
      </trkpt>
      <trkpt lat="46.09783" lon="5.61464">
        <ele>965.8</ele>
        <time>2026-05-10T09:52:27Z</time>
      </trkpt>
      <trkpt lat="46.09785" lon="5.6146">
        <ele>965.8</ele>
        <time>2026-05-10T09:52:28Z</time>
      </trkpt>
      <trkpt lat="46.09787" lon="5.61455">
        <ele>965.8</ele>
        <time>2026-05-10T09:52:29Z</time>
      </trkpt>
      <trkpt lat="46.09788" lon="5.61449">
        <ele>965.8</ele>
        <time>2026-05-10T09:52:30Z</time>
      </trkpt>
      <trkpt lat="46.09788" lon="5.61444">
        <ele>965.8</ele>
        <time>2026-05-10T09:52:31Z</time>
      </trkpt>
      <trkpt lat="46.09789" lon="5.61434">
        <ele>965.8</ele>
        <time>2026-05-10T09:52:32Z</time>
      </trkpt>
      <trkpt lat="46.09789" lon="5.61429">
        <ele>965.8</ele>
        <time>2026-05-10T09:52:33Z</time>
      </trkpt>
      <trkpt lat="46.09789" lon="5.61423">
        <ele>965.8</ele>
        <time>2026-05-10T09:52:34Z</time>
      </trkpt>
      <trkpt lat="46.09791" lon="5.61416">
        <ele>965.4</ele>
        <time>2026-05-10T09:52:35Z</time>
      </trkpt>
      <trkpt lat="46.09792" lon="5.6141">
        <ele>965</ele>
        <time>2026-05-10T09:52:36Z</time>
      </trkpt>
      <trkpt lat="46.09797" lon="5.61407">
        <ele>965</ele>
        <time>2026-05-10T09:52:37Z</time>
      </trkpt>
      <trkpt lat="46.09799" lon="5.61402">
        <ele>965.2</ele>
        <time>2026-05-10T09:52:38Z</time>
      </trkpt>
      <trkpt lat="46.09802" lon="5.61399">
        <ele>965.2</ele>
        <time>2026-05-10T09:52:39Z</time>
      </trkpt>
      <trkpt lat="46.09804" lon="5.61392">
        <ele>964.6</ele>
        <time>2026-05-10T09:52:40Z</time>
      </trkpt>
      <trkpt lat="46.09806" lon="5.61389">
        <ele>965.4</ele>
        <time>2026-05-10T09:52:41Z</time>
      </trkpt>
      <trkpt lat="46.09809" lon="5.61383">
        <ele>965.8</ele>
        <time>2026-05-10T09:52:42Z</time>
      </trkpt>
      <trkpt lat="46.09812" lon="5.61379">
        <ele>965.6</ele>
        <time>2026-05-10T09:52:43Z</time>
      </trkpt>
      <trkpt lat="46.09815" lon="5.61376">
        <ele>965.2</ele>
        <time>2026-05-10T09:52:44Z</time>
      </trkpt>
      <trkpt lat="46.09819" lon="5.61372">
        <ele>965</ele>
        <time>2026-05-10T09:52:45Z</time>
      </trkpt>
      <trkpt lat="46.09822" lon="5.61371">
        <ele>965</ele>
        <time>2026-05-10T09:52:46Z</time>
      </trkpt>
      <trkpt lat="46.09825" lon="5.61369">
        <ele>964.4</ele>
        <time>2026-05-10T09:52:47Z</time>
      </trkpt>
      <trkpt lat="46.0983" lon="5.61368">
        <ele>964.4</ele>
        <time>2026-05-10T09:52:48Z</time>
      </trkpt>
      <trkpt lat="46.09833" lon="5.61368">
        <ele>964.2</ele>
        <time>2026-05-10T09:52:49Z</time>
      </trkpt>
      <trkpt lat="46.09837" lon="5.61369">
        <ele>963.8</ele>
        <time>2026-05-10T09:52:50Z</time>
      </trkpt>
      <trkpt lat="46.09841" lon="5.61369">
        <ele>964.2</ele>
        <time>2026-05-10T09:52:51Z</time>
      </trkpt>
      <trkpt lat="46.09844" lon="5.61374">
        <ele>964.8</ele>
        <time>2026-05-10T09:52:52Z</time>
      </trkpt>
      <trkpt lat="46.09848" lon="5.61375">
        <ele>964.8</ele>
        <time>2026-05-10T09:52:53Z</time>
      </trkpt>
      <trkpt lat="46.09852" lon="5.61378">
        <ele>964.8</ele>
        <time>2026-05-10T09:52:54Z</time>
      </trkpt>
      <trkpt lat="46.09856" lon="5.61378">
        <ele>964.6</ele>
        <time>2026-05-10T09:52:55Z</time>
      </trkpt>
      <trkpt lat="46.0986" lon="5.61379">
        <ele>964.4</ele>
        <time>2026-05-10T09:52:56Z</time>
      </trkpt>
      <trkpt lat="46.09864" lon="5.61382">
        <ele>964.4</ele>
        <time>2026-05-10T09:52:57Z</time>
      </trkpt>
      <trkpt lat="46.09867" lon="5.61381">
        <ele>964.4</ele>
        <time>2026-05-10T09:52:58Z</time>
      </trkpt>
      <trkpt lat="46.09871" lon="5.61381">
        <ele>964.4</ele>
        <time>2026-05-10T09:52:59Z</time>
      </trkpt>
      <trkpt lat="46.09875" lon="5.6138">
        <ele>964.6</ele>
        <time>2026-05-10T09:53:00Z</time>
      </trkpt>
      <trkpt lat="46.09878" lon="5.61379">
        <ele>964.6</ele>
        <time>2026-05-10T09:53:01Z</time>
      </trkpt>
      <trkpt lat="46.09882" lon="5.61378">
        <ele>964.4</ele>
        <time>2026-05-10T09:53:02Z</time>
      </trkpt>
      <trkpt lat="46.09886" lon="5.61378">
        <ele>964</ele>
        <time>2026-05-10T09:53:03Z</time>
      </trkpt>
      <trkpt lat="46.09889" lon="5.61376">
        <ele>964</ele>
        <time>2026-05-10T09:53:04Z</time>
      </trkpt>
      <trkpt lat="46.09894" lon="5.61376">
        <ele>964</ele>
        <time>2026-05-10T09:53:05Z</time>
      </trkpt>
      <trkpt lat="46.09898" lon="5.61376">
        <ele>964</ele>
        <time>2026-05-10T09:53:06Z</time>
      </trkpt>
      <trkpt lat="46.09902" lon="5.61378">
        <ele>963.6</ele>
        <time>2026-05-10T09:53:07Z</time>
      </trkpt>
      <trkpt lat="46.09906" lon="5.61381">
        <ele>963.6</ele>
        <time>2026-05-10T09:53:08Z</time>
      </trkpt>
      <trkpt lat="46.0991" lon="5.61383">
        <ele>963.4</ele>
        <time>2026-05-10T09:53:09Z</time>
      </trkpt>
      <trkpt lat="46.09915" lon="5.61384">
        <ele>963.2</ele>
        <time>2026-05-10T09:53:10Z</time>
      </trkpt>
      <trkpt lat="46.09919" lon="5.6139">
        <ele>963.4</ele>
        <time>2026-05-10T09:53:11Z</time>
      </trkpt>
      <trkpt lat="46.09924" lon="5.61391">
        <ele>963.4</ele>
        <time>2026-05-10T09:53:12Z</time>
      </trkpt>
      <trkpt lat="46.09928" lon="5.61394">
        <ele>963.4</ele>
        <time>2026-05-10T09:53:13Z</time>
      </trkpt>
      <trkpt lat="46.09928" lon="5.61394">
        <ele>963.4</ele>
        <time>2026-05-10T09:53:14Z</time>
      </trkpt>
      <trkpt lat="46.09932" lon="5.61396">
        <ele>963.4</ele>
        <time>2026-05-10T09:53:15Z</time>
      </trkpt>
      <trkpt lat="46.09937" lon="5.61398">
        <ele>963.4</ele>
        <time>2026-05-10T09:53:16Z</time>
      </trkpt>
      <trkpt lat="46.09941" lon="5.61398">
        <ele>963.4</ele>
        <time>2026-05-10T09:53:17Z</time>
      </trkpt>
      <trkpt lat="46.09945" lon="5.61399">
        <ele>963.4</ele>
        <time>2026-05-10T09:53:18Z</time>
      </trkpt>
      <trkpt lat="46.09949" lon="5.61399">
        <ele>963.4</ele>
        <time>2026-05-10T09:53:19Z</time>
      </trkpt>
      <trkpt lat="46.09953" lon="5.61398">
        <ele>963.4</ele>
        <time>2026-05-10T09:53:20Z</time>
      </trkpt>
      <trkpt lat="46.09956" lon="5.61397">
        <ele>963.4</ele>
        <time>2026-05-10T09:53:21Z</time>
      </trkpt>
      <trkpt lat="46.09958" lon="5.61396">
        <ele>963.4</ele>
        <time>2026-05-10T09:53:22Z</time>
      </trkpt>
      <trkpt lat="46.09963" lon="5.61393">
        <ele>963.2</ele>
        <time>2026-05-10T09:53:23Z</time>
      </trkpt>
      <trkpt lat="46.09966" lon="5.6139">
        <ele>963</ele>
        <time>2026-05-10T09:53:24Z</time>
      </trkpt>
      <trkpt lat="46.0997" lon="5.61389">
        <ele>963</ele>
        <time>2026-05-10T09:53:25Z</time>
      </trkpt>
      <trkpt lat="46.09972" lon="5.61388">
        <ele>963.2</ele>
        <time>2026-05-10T09:53:26Z</time>
      </trkpt>
      <trkpt lat="46.09975" lon="5.61386">
        <ele>963.2</ele>
        <time>2026-05-10T09:53:27Z</time>
      </trkpt>
      <trkpt lat="46.09978" lon="5.61385">
        <ele>963.2</ele>
        <time>2026-05-10T09:53:28Z</time>
      </trkpt>
      <trkpt lat="46.0998" lon="5.61384">
        <ele>963.2</ele>
        <time>2026-05-10T09:53:29Z</time>
      </trkpt>
      <trkpt lat="46.09983" lon="5.61382">
        <ele>963.2</ele>
        <time>2026-05-10T09:53:30Z</time>
      </trkpt>
      <trkpt lat="46.09985" lon="5.6138">
        <ele>963.2</ele>
        <time>2026-05-10T09:53:31Z</time>
      </trkpt>
      <trkpt lat="46.09988" lon="5.61378">
        <ele>963.2</ele>
        <time>2026-05-10T09:53:32Z</time>
      </trkpt>
      <trkpt lat="46.09991" lon="5.61376">
        <ele>963.2</ele>
        <time>2026-05-10T09:53:33Z</time>
      </trkpt>
      <trkpt lat="46.09995" lon="5.61374">
        <ele>963.2</ele>
        <time>2026-05-10T09:53:34Z</time>
      </trkpt>
      <trkpt lat="46.09999" lon="5.61371">
        <ele>963.2</ele>
        <time>2026-05-10T09:53:35Z</time>
      </trkpt>
      <trkpt lat="46.10003" lon="5.61369">
        <ele>963.2</ele>
        <time>2026-05-10T09:53:36Z</time>
      </trkpt>
      <trkpt lat="46.10007" lon="5.61367">
        <ele>962.8</ele>
        <time>2026-05-10T09:53:37Z</time>
      </trkpt>
      <trkpt lat="46.1001" lon="5.61365">
        <ele>962.8</ele>
        <time>2026-05-10T09:53:38Z</time>
      </trkpt>
      <trkpt lat="46.10014" lon="5.61363">
        <ele>962.8</ele>
        <time>2026-05-10T09:53:39Z</time>
      </trkpt>
      <trkpt lat="46.10017" lon="5.61362">
        <ele>962.4</ele>
        <time>2026-05-10T09:53:40Z</time>
      </trkpt>
      <trkpt lat="46.10021" lon="5.61361">
        <ele>962.4</ele>
        <time>2026-05-10T09:53:41Z</time>
      </trkpt>
      <trkpt lat="46.10026" lon="5.6136">
        <ele>962.4</ele>
        <time>2026-05-10T09:53:42Z</time>
      </trkpt>
      <trkpt lat="46.1003" lon="5.6136">
        <ele>962.4</ele>
        <time>2026-05-10T09:53:43Z</time>
      </trkpt>
      <trkpt lat="46.10034" lon="5.61361">
        <ele>962.8</ele>
        <time>2026-05-10T09:53:44Z</time>
      </trkpt>
      <trkpt lat="46.10038" lon="5.61363">
        <ele>962.8</ele>
        <time>2026-05-10T09:53:45Z</time>
      </trkpt>
      <trkpt lat="46.10042" lon="5.61365">
        <ele>962.8</ele>
        <time>2026-05-10T09:53:46Z</time>
      </trkpt>
      <trkpt lat="46.10047" lon="5.61368">
        <ele>962.8</ele>
        <time>2026-05-10T09:53:47Z</time>
      </trkpt>
      <trkpt lat="46.10051" lon="5.6137">
        <ele>962.8</ele>
        <time>2026-05-10T09:53:48Z</time>
      </trkpt>
      <trkpt lat="46.10056" lon="5.61373">
        <ele>962.8</ele>
        <time>2026-05-10T09:53:49Z</time>
      </trkpt>
      <trkpt lat="46.1006" lon="5.61375">
        <ele>963</ele>
        <time>2026-05-10T09:53:50Z</time>
      </trkpt>
      <trkpt lat="46.10065" lon="5.61378">
        <ele>963</ele>
        <time>2026-05-10T09:53:51Z</time>
      </trkpt>
      <trkpt lat="46.10069" lon="5.6138">
        <ele>963</ele>
        <time>2026-05-10T09:53:52Z</time>
      </trkpt>
      <trkpt lat="46.10073" lon="5.61383">
        <ele>963</ele>
        <time>2026-05-10T09:53:53Z</time>
      </trkpt>
      <trkpt lat="46.10078" lon="5.61386">
        <ele>963</ele>
        <time>2026-05-10T09:53:54Z</time>
      </trkpt>
      <trkpt lat="46.10082" lon="5.61389">
        <ele>962.8</ele>
        <time>2026-05-10T09:53:55Z</time>
      </trkpt>
      <trkpt lat="46.10086" lon="5.61392">
        <ele>962.8</ele>
        <time>2026-05-10T09:53:56Z</time>
      </trkpt>
      <trkpt lat="46.1009" lon="5.61395">
        <ele>962.8</ele>
        <time>2026-05-10T09:53:57Z</time>
      </trkpt>
      <trkpt lat="46.10095" lon="5.61398">
        <ele>962.4</ele>
        <time>2026-05-10T09:53:58Z</time>
      </trkpt>
      <trkpt lat="46.10099" lon="5.614">
        <ele>962.2</ele>
        <time>2026-05-10T09:53:59Z</time>
      </trkpt>
      <trkpt lat="46.10103" lon="5.61403">
        <ele>962.2</ele>
        <time>2026-05-10T09:54:00Z</time>
      </trkpt>
      <trkpt lat="46.10108" lon="5.61406">
        <ele>961.8</ele>
        <time>2026-05-10T09:54:01Z</time>
      </trkpt>
      <trkpt lat="46.10112" lon="5.61409">
        <ele>961.8</ele>
        <time>2026-05-10T09:54:02Z</time>
      </trkpt>
      <trkpt lat="46.10117" lon="5.61412">
        <ele>961.8</ele>
        <time>2026-05-10T09:54:03Z</time>
      </trkpt>
      <trkpt lat="46.10122" lon="5.61414">
        <ele>961.8</ele>
        <time>2026-05-10T09:54:04Z</time>
      </trkpt>
      <trkpt lat="46.10126" lon="5.61416">
        <ele>961.8</ele>
        <time>2026-05-10T09:54:05Z</time>
      </trkpt>
      <trkpt lat="46.1013" lon="5.61419">
        <ele>961.8</ele>
        <time>2026-05-10T09:54:06Z</time>
      </trkpt>
      <trkpt lat="46.10134" lon="5.61421">
        <ele>961.8</ele>
        <time>2026-05-10T09:54:07Z</time>
      </trkpt>
      <trkpt lat="46.1014" lon="5.61424">
        <ele>961.8</ele>
        <time>2026-05-10T09:54:08Z</time>
      </trkpt>
      <trkpt lat="46.10144" lon="5.61427">
        <ele>961.8</ele>
        <time>2026-05-10T09:54:09Z</time>
      </trkpt>
      <trkpt lat="46.10149" lon="5.61429">
        <ele>961.8</ele>
        <time>2026-05-10T09:54:10Z</time>
      </trkpt>
      <trkpt lat="46.10154" lon="5.61431">
        <ele>961.6</ele>
        <time>2026-05-10T09:54:11Z</time>
      </trkpt>
      <trkpt lat="46.10159" lon="5.61433">
        <ele>961.6</ele>
        <time>2026-05-10T09:54:12Z</time>
      </trkpt>
      <trkpt lat="46.10164" lon="5.61435">
        <ele>961.6</ele>
        <time>2026-05-10T09:54:13Z</time>
      </trkpt>
      <trkpt lat="46.10168" lon="5.61436">
        <ele>961.6</ele>
        <time>2026-05-10T09:54:14Z</time>
      </trkpt>
      <trkpt lat="46.10173" lon="5.61437">
        <ele>961.2</ele>
        <time>2026-05-10T09:54:15Z</time>
      </trkpt>
      <trkpt lat="46.10178" lon="5.61438">
        <ele>961.2</ele>
        <time>2026-05-10T09:54:16Z</time>
      </trkpt>
      <trkpt lat="46.10183" lon="5.61439">
        <ele>961</ele>
        <time>2026-05-10T09:54:17Z</time>
      </trkpt>
      <trkpt lat="46.10187" lon="5.6144">
        <ele>961</ele>
        <time>2026-05-10T09:54:18Z</time>
      </trkpt>
      <trkpt lat="46.10192" lon="5.61441">
        <ele>961.2</ele>
        <time>2026-05-10T09:54:19Z</time>
      </trkpt>
      <trkpt lat="46.10196" lon="5.61442">
        <ele>961.8</ele>
        <time>2026-05-10T09:54:20Z</time>
      </trkpt>
      <trkpt lat="46.10201" lon="5.61443">
        <ele>961.6</ele>
        <time>2026-05-10T09:54:21Z</time>
      </trkpt>
      <trkpt lat="46.10205" lon="5.61445">
        <ele>961.6</ele>
        <time>2026-05-10T09:54:22Z</time>
      </trkpt>
      <trkpt lat="46.10209" lon="5.61446">
        <ele>962</ele>
        <time>2026-05-10T09:54:23Z</time>
      </trkpt>
      <trkpt lat="46.10214" lon="5.61447">
        <ele>962.4</ele>
        <time>2026-05-10T09:54:24Z</time>
      </trkpt>
      <trkpt lat="46.10219" lon="5.61449">
        <ele>962.4</ele>
        <time>2026-05-10T09:54:25Z</time>
      </trkpt>
      <trkpt lat="46.10223" lon="5.6145">
        <ele>962.4</ele>
        <time>2026-05-10T09:54:26Z</time>
      </trkpt>
      <trkpt lat="46.10228" lon="5.61452">
        <ele>962.4</ele>
        <time>2026-05-10T09:54:27Z</time>
      </trkpt>
      <trkpt lat="46.10233" lon="5.61453">
        <ele>961.8</ele>
        <time>2026-05-10T09:54:28Z</time>
      </trkpt>
      <trkpt lat="46.10238" lon="5.61454">
        <ele>961.8</ele>
        <time>2026-05-10T09:54:29Z</time>
      </trkpt>
      <trkpt lat="46.10243" lon="5.61455">
        <ele>961.6</ele>
        <time>2026-05-10T09:54:30Z</time>
      </trkpt>
      <trkpt lat="46.10248" lon="5.61456">
        <ele>961.6</ele>
        <time>2026-05-10T09:54:31Z</time>
      </trkpt>
      <trkpt lat="46.10254" lon="5.61458">
        <ele>962</ele>
        <time>2026-05-10T09:54:32Z</time>
      </trkpt>
      <trkpt lat="46.10258" lon="5.61458">
        <ele>962</ele>
        <time>2026-05-10T09:54:33Z</time>
      </trkpt>
      <trkpt lat="46.10262" lon="5.6146">
        <ele>962</ele>
        <time>2026-05-10T09:54:34Z</time>
      </trkpt>
      <trkpt lat="46.10266" lon="5.61461">
        <ele>962</ele>
        <time>2026-05-10T09:54:35Z</time>
      </trkpt>
      <trkpt lat="46.1027" lon="5.61463">
        <ele>962</ele>
        <time>2026-05-10T09:54:36Z</time>
      </trkpt>
      <trkpt lat="46.10275" lon="5.61463">
        <ele>962.4</ele>
        <time>2026-05-10T09:54:37Z</time>
      </trkpt>
      <trkpt lat="46.10274" lon="5.61461">
        <ele>962.6</ele>
        <time>2026-05-10T09:54:38Z</time>
      </trkpt>
      <trkpt lat="46.10275" lon="5.61459">
        <ele>962.8</ele>
        <time>2026-05-10T09:54:39Z</time>
      </trkpt>
      <trkpt lat="46.10276" lon="5.6146">
        <ele>962.8</ele>
        <time>2026-05-10T09:54:40Z</time>
      </trkpt>
      <trkpt lat="46.10277" lon="5.61459">
        <ele>963.2</ele>
        <time>2026-05-10T09:54:41Z</time>
      </trkpt>
      <trkpt lat="46.10277" lon="5.61459">
        <ele>963.2</ele>
        <time>2026-05-10T09:54:42Z</time>
      </trkpt>
      <trkpt lat="46.10277" lon="5.61459">
        <ele>963.6</ele>
        <time>2026-05-10T09:54:43Z</time>
      </trkpt>
      <trkpt lat="46.10274" lon="5.61461">
        <ele>963.8</ele>
        <time>2026-05-10T09:55:26Z</time>
      </trkpt>
      <trkpt lat="46.10274" lon="5.61461">
        <ele>963.8</ele>
        <time>2026-05-10T09:55:27Z</time>
      </trkpt>
      <trkpt lat="46.10279" lon="5.6146">
        <ele>963.8</ele>
        <time>2026-05-10T09:57:06Z</time>
      </trkpt>
      <trkpt lat="46.10279" lon="5.61461">
        <ele>963.8</ele>
        <time>2026-05-10T09:57:07Z</time>
      </trkpt>
      <trkpt lat="46.1028" lon="5.61462">
        <ele>963.8</ele>
        <time>2026-05-10T09:57:08Z</time>
      </trkpt>
      <trkpt lat="46.10281" lon="5.61463">
        <ele>963.8</ele>
        <time>2026-05-10T09:57:09Z</time>
      </trkpt>
      <trkpt lat="46.10282" lon="5.61463">
        <ele>964</ele>
        <time>2026-05-10T09:57:10Z</time>
      </trkpt>
      <trkpt lat="46.10284" lon="5.61464">
        <ele>964</ele>
        <time>2026-05-10T09:57:11Z</time>
      </trkpt>
      <trkpt lat="46.10285" lon="5.61464">
        <ele>964</ele>
        <time>2026-05-10T09:57:12Z</time>
      </trkpt>
      <trkpt lat="46.10286" lon="5.61464">
        <ele>964</ele>
        <time>2026-05-10T09:57:13Z</time>
      </trkpt>
      <trkpt lat="46.10287" lon="5.61464">
        <ele>964.4</ele>
        <time>2026-05-10T09:57:14Z</time>
      </trkpt>
      <trkpt lat="46.10288" lon="5.61465">
        <ele>964.4</ele>
        <time>2026-05-10T09:57:15Z</time>
      </trkpt>
      <trkpt lat="46.1029" lon="5.61466">
        <ele>964.4</ele>
        <time>2026-05-10T09:57:16Z</time>
      </trkpt>
      <trkpt lat="46.10292" lon="5.61467">
        <ele>964.6</ele>
        <time>2026-05-10T09:57:17Z</time>
      </trkpt>
      <trkpt lat="46.10294" lon="5.61467">
        <ele>964.6</ele>
        <time>2026-05-10T09:57:18Z</time>
      </trkpt>
      <trkpt lat="46.10296" lon="5.61468">
        <ele>964.6</ele>
        <time>2026-05-10T09:57:19Z</time>
      </trkpt>
      <trkpt lat="46.10298" lon="5.61469">
        <ele>964.6</ele>
        <time>2026-05-10T09:57:20Z</time>
      </trkpt>
      <trkpt lat="46.10299" lon="5.61469">
        <ele>964.8</ele>
        <time>2026-05-10T09:57:21Z</time>
      </trkpt>
      <trkpt lat="46.103" lon="5.61469">
        <ele>964.8</ele>
        <time>2026-05-10T09:57:22Z</time>
      </trkpt>
      <trkpt lat="46.103" lon="5.61469">
        <ele>964.8</ele>
        <time>2026-05-10T09:57:23Z</time>
      </trkpt>
      <trkpt lat="46.10301" lon="5.61469">
        <ele>965.2</ele>
        <time>2026-05-10T09:57:24Z</time>
      </trkpt>
      <trkpt lat="46.10302" lon="5.61469">
        <ele>965.2</ele>
        <time>2026-05-10T09:57:25Z</time>
      </trkpt>
      <trkpt lat="46.10303" lon="5.61469">
        <ele>965.2</ele>
        <time>2026-05-10T09:57:26Z</time>
      </trkpt>
      <trkpt lat="46.10303" lon="5.61468">
        <ele>965.2</ele>
        <time>2026-05-10T09:57:27Z</time>
      </trkpt>
      <trkpt lat="46.10303" lon="5.61467">
        <ele>965.2</ele>
        <time>2026-05-10T09:57:28Z</time>
      </trkpt>
      <trkpt lat="46.10302" lon="5.61466">
        <ele>965.2</ele>
        <time>2026-05-10T09:57:29Z</time>
      </trkpt>
      <trkpt lat="46.10301" lon="5.61466">
        <ele>965.2</ele>
        <time>2026-05-10T09:57:30Z</time>
      </trkpt>
      <trkpt lat="46.10301" lon="5.61465">
        <ele>965.2</ele>
        <time>2026-05-10T09:57:31Z</time>
      </trkpt>
      <trkpt lat="46.103" lon="5.61466">
        <ele>965.2</ele>
        <time>2026-05-10T09:57:32Z</time>
      </trkpt>
      <trkpt lat="46.103" lon="5.61466">
        <ele>965.2</ele>
        <time>2026-05-10T09:57:33Z</time>
      </trkpt>
      <trkpt lat="46.10298" lon="5.61472">
        <ele>965.2</ele>
        <time>2026-05-10T10:03:59Z</time>
      </trkpt>
      <trkpt lat="46.10298" lon="5.61473">
        <ele>965.2</ele>
        <time>2026-05-10T10:04:00Z</time>
      </trkpt>
      <trkpt lat="46.10298" lon="5.61473">
        <ele>965.2</ele>
        <time>2026-05-10T10:04:01Z</time>
      </trkpt>
      <trkpt lat="46.10298" lon="5.61473">
        <ele>965</ele>
        <time>2026-05-10T10:04:02Z</time>
      </trkpt>
      <trkpt lat="46.10302" lon="5.61472">
        <ele>964.8</ele>
        <time>2026-05-10T10:04:09Z</time>
      </trkpt>
      <trkpt lat="46.10304" lon="5.61473">
        <ele>964.8</ele>
        <time>2026-05-10T10:04:10Z</time>
      </trkpt>
      <trkpt lat="46.10307" lon="5.61474">
        <ele>964.8</ele>
        <time>2026-05-10T10:04:11Z</time>
      </trkpt>
      <trkpt lat="46.10308" lon="5.61475">
        <ele>964.8</ele>
        <time>2026-05-10T10:04:12Z</time>
      </trkpt>
      <trkpt lat="46.1031" lon="5.61474">
        <ele>964.8</ele>
        <time>2026-05-10T10:04:13Z</time>
      </trkpt>
      <trkpt lat="46.10313" lon="5.61475">
        <ele>964.8</ele>
        <time>2026-05-10T10:04:14Z</time>
      </trkpt>
      <trkpt lat="46.10315" lon="5.61476">
        <ele>965</ele>
        <time>2026-05-10T10:04:15Z</time>
      </trkpt>
      <trkpt lat="46.10317" lon="5.61476">
        <ele>965</ele>
        <time>2026-05-10T10:04:16Z</time>
      </trkpt>
      <trkpt lat="46.1032" lon="5.61476">
        <ele>965</ele>
        <time>2026-05-10T10:04:17Z</time>
      </trkpt>
      <trkpt lat="46.10322" lon="5.61476">
        <ele>965</ele>
        <time>2026-05-10T10:04:18Z</time>
      </trkpt>
      <trkpt lat="46.10325" lon="5.61476">
        <ele>965</ele>
        <time>2026-05-10T10:04:19Z</time>
      </trkpt>
      <trkpt lat="46.10329" lon="5.61476">
        <ele>965</ele>
        <time>2026-05-10T10:04:20Z</time>
      </trkpt>
      <trkpt lat="46.10331" lon="5.61477">
        <ele>965</ele>
        <time>2026-05-10T10:04:21Z</time>
      </trkpt>
      <trkpt lat="46.10334" lon="5.61478">
        <ele>965</ele>
        <time>2026-05-10T10:04:22Z</time>
      </trkpt>
      <trkpt lat="46.10337" lon="5.61479">
        <ele>965</ele>
        <time>2026-05-10T10:04:23Z</time>
      </trkpt>
      <trkpt lat="46.10341" lon="5.61481">
        <ele>965</ele>
        <time>2026-05-10T10:04:24Z</time>
      </trkpt>
      <trkpt lat="46.10344" lon="5.61482">
        <ele>965</ele>
        <time>2026-05-10T10:04:25Z</time>
      </trkpt>
      <trkpt lat="46.10348" lon="5.61483">
        <ele>965</ele>
        <time>2026-05-10T10:04:26Z</time>
      </trkpt>
      <trkpt lat="46.10351" lon="5.61484">
        <ele>965.2</ele>
        <time>2026-05-10T10:04:27Z</time>
      </trkpt>
      <trkpt lat="46.10354" lon="5.61485">
        <ele>965.2</ele>
        <time>2026-05-10T10:04:28Z</time>
      </trkpt>
      <trkpt lat="46.10358" lon="5.61487">
        <ele>965.2</ele>
        <time>2026-05-10T10:04:29Z</time>
      </trkpt>
      <trkpt lat="46.10361" lon="5.61487">
        <ele>965.2</ele>
        <time>2026-05-10T10:04:30Z</time>
      </trkpt>
      <trkpt lat="46.10364" lon="5.61487">
        <ele>964.8</ele>
        <time>2026-05-10T10:04:31Z</time>
      </trkpt>
      <trkpt lat="46.10367" lon="5.61488">
        <ele>964.8</ele>
        <time>2026-05-10T10:04:32Z</time>
      </trkpt>
      <trkpt lat="46.10371" lon="5.61489">
        <ele>964.8</ele>
        <time>2026-05-10T10:04:33Z</time>
      </trkpt>
      <trkpt lat="46.10374" lon="5.61491">
        <ele>964.8</ele>
        <time>2026-05-10T10:04:34Z</time>
      </trkpt>
      <trkpt lat="46.10377" lon="5.61492">
        <ele>964.8</ele>
        <time>2026-05-10T10:04:35Z</time>
      </trkpt>
      <trkpt lat="46.10381" lon="5.61493">
        <ele>964.8</ele>
        <time>2026-05-10T10:04:36Z</time>
      </trkpt>
      <trkpt lat="46.10384" lon="5.61494">
        <ele>964.8</ele>
        <time>2026-05-10T10:04:37Z</time>
      </trkpt>
      <trkpt lat="46.10388" lon="5.61495">
        <ele>964.8</ele>
        <time>2026-05-10T10:04:38Z</time>
      </trkpt>
      <trkpt lat="46.10392" lon="5.61495">
        <ele>964.8</ele>
        <time>2026-05-10T10:04:39Z</time>
      </trkpt>
      <trkpt lat="46.10395" lon="5.61495">
        <ele>964.8</ele>
        <time>2026-05-10T10:04:40Z</time>
      </trkpt>
      <trkpt lat="46.10398" lon="5.61495">
        <ele>964.8</ele>
        <time>2026-05-10T10:04:41Z</time>
      </trkpt>
      <trkpt lat="46.10402" lon="5.61494">
        <ele>964.8</ele>
        <time>2026-05-10T10:04:42Z</time>
      </trkpt>
      <trkpt lat="46.10405" lon="5.61494">
        <ele>964.8</ele>
        <time>2026-05-10T10:04:43Z</time>
      </trkpt>
      <trkpt lat="46.10408" lon="5.61493">
        <ele>964.8</ele>
        <time>2026-05-10T10:04:44Z</time>
      </trkpt>
      <trkpt lat="46.10411" lon="5.61492">
        <ele>964.8</ele>
        <time>2026-05-10T10:04:45Z</time>
      </trkpt>
      <trkpt lat="46.10415" lon="5.6149">
        <ele>964.8</ele>
        <time>2026-05-10T10:04:46Z</time>
      </trkpt>
      <trkpt lat="46.10419" lon="5.61489">
        <ele>964.4</ele>
        <time>2026-05-10T10:04:47Z</time>
      </trkpt>
      <trkpt lat="46.10423" lon="5.61488">
        <ele>964.4</ele>
        <time>2026-05-10T10:04:48Z</time>
      </trkpt>
      <trkpt lat="46.10428" lon="5.61487">
        <ele>964.8</ele>
        <time>2026-05-10T10:04:49Z</time>
      </trkpt>
      <trkpt lat="46.10432" lon="5.61486">
        <ele>964.8</ele>
        <time>2026-05-10T10:04:50Z</time>
      </trkpt>
      <trkpt lat="46.10438" lon="5.61486">
        <ele>964.4</ele>
        <time>2026-05-10T10:04:51Z</time>
      </trkpt>
      <trkpt lat="46.10442" lon="5.61486">
        <ele>964.4</ele>
        <time>2026-05-10T10:04:52Z</time>
      </trkpt>
      <trkpt lat="46.10448" lon="5.61485">
        <ele>964.4</ele>
        <time>2026-05-10T10:04:53Z</time>
      </trkpt>
      <trkpt lat="46.10452" lon="5.61484">
        <ele>964.4</ele>
        <time>2026-05-10T10:04:54Z</time>
      </trkpt>
      <trkpt lat="46.10456" lon="5.61484">
        <ele>964.4</ele>
        <time>2026-05-10T10:04:55Z</time>
      </trkpt>
      <trkpt lat="46.10461" lon="5.61484">
        <ele>964.2</ele>
        <time>2026-05-10T10:04:56Z</time>
      </trkpt>
      <trkpt lat="46.10465" lon="5.61484">
        <ele>963.8</ele>
        <time>2026-05-10T10:04:57Z</time>
      </trkpt>
      <trkpt lat="46.1047" lon="5.61483">
        <ele>963.8</ele>
        <time>2026-05-10T10:04:58Z</time>
      </trkpt>
      <trkpt lat="46.10475" lon="5.61484">
        <ele>963.8</ele>
        <time>2026-05-10T10:04:59Z</time>
      </trkpt>
      <trkpt lat="46.10479" lon="5.61483">
        <ele>963.4</ele>
        <time>2026-05-10T10:05:00Z</time>
      </trkpt>
      <trkpt lat="46.10488" lon="5.61481">
        <ele>963.4</ele>
        <time>2026-05-10T10:05:01Z</time>
      </trkpt>
      <trkpt lat="46.10492" lon="5.6148">
        <ele>963.4</ele>
        <time>2026-05-10T10:05:02Z</time>
      </trkpt>
      <trkpt lat="46.10497" lon="5.61481">
        <ele>963.4</ele>
        <time>2026-05-10T10:05:03Z</time>
      </trkpt>
      <trkpt lat="46.105" lon="5.61479">
        <ele>963.4</ele>
        <time>2026-05-10T10:05:04Z</time>
      </trkpt>
      <trkpt lat="46.10504" lon="5.61479">
        <ele>963.4</ele>
        <time>2026-05-10T10:05:05Z</time>
      </trkpt>
      <trkpt lat="46.10507" lon="5.61479">
        <ele>963.4</ele>
        <time>2026-05-10T10:05:06Z</time>
      </trkpt>
      <trkpt lat="46.10511" lon="5.61479">
        <ele>963.2</ele>
        <time>2026-05-10T10:05:07Z</time>
      </trkpt>
      <trkpt lat="46.10516" lon="5.6148">
        <ele>962.8</ele>
        <time>2026-05-10T10:05:08Z</time>
      </trkpt>
      <trkpt lat="46.1052" lon="5.6148">
        <ele>962.8</ele>
        <time>2026-05-10T10:05:09Z</time>
      </trkpt>
      <trkpt lat="46.10524" lon="5.61479">
        <ele>962.8</ele>
        <time>2026-05-10T10:05:10Z</time>
      </trkpt>
      <trkpt lat="46.10529" lon="5.61479">
        <ele>962.8</ele>
        <time>2026-05-10T10:05:11Z</time>
      </trkpt>
      <trkpt lat="46.10533" lon="5.61478">
        <ele>963</ele>
        <time>2026-05-10T10:05:12Z</time>
      </trkpt>
      <trkpt lat="46.10539" lon="5.61479">
        <ele>963</ele>
        <time>2026-05-10T10:05:13Z</time>
      </trkpt>
      <trkpt lat="46.10544" lon="5.61478">
        <ele>963</ele>
        <time>2026-05-10T10:05:14Z</time>
      </trkpt>
      <trkpt lat="46.10548" lon="5.61479">
        <ele>963</ele>
        <time>2026-05-10T10:05:15Z</time>
      </trkpt>
      <trkpt lat="46.10552" lon="5.61478">
        <ele>963</ele>
        <time>2026-05-10T10:05:16Z</time>
      </trkpt>
      <trkpt lat="46.10557" lon="5.61479">
        <ele>963</ele>
        <time>2026-05-10T10:05:17Z</time>
      </trkpt>
      <trkpt lat="46.10561" lon="5.61478">
        <ele>963</ele>
        <time>2026-05-10T10:05:18Z</time>
      </trkpt>
      <trkpt lat="46.10565" lon="5.61478">
        <ele>963</ele>
        <time>2026-05-10T10:05:19Z</time>
      </trkpt>
      <trkpt lat="46.10569" lon="5.61476">
        <ele>963.4</ele>
        <time>2026-05-10T10:05:20Z</time>
      </trkpt>
      <trkpt lat="46.10572" lon="5.61476">
        <ele>963.4</ele>
        <time>2026-05-10T10:05:21Z</time>
      </trkpt>
      <trkpt lat="46.10576" lon="5.61476">
        <ele>963.6</ele>
        <time>2026-05-10T10:05:22Z</time>
      </trkpt>
      <trkpt lat="46.1058" lon="5.61477">
        <ele>963.6</ele>
        <time>2026-05-10T10:05:23Z</time>
      </trkpt>
      <trkpt lat="46.10583" lon="5.61477">
        <ele>963.6</ele>
        <time>2026-05-10T10:05:24Z</time>
      </trkpt>
      <trkpt lat="46.10587" lon="5.61476">
        <ele>963.8</ele>
        <time>2026-05-10T10:05:25Z</time>
      </trkpt>
      <trkpt lat="46.10591" lon="5.61477">
        <ele>963.8</ele>
        <time>2026-05-10T10:05:26Z</time>
      </trkpt>
      <trkpt lat="46.10595" lon="5.61477">
        <ele>963.4</ele>
        <time>2026-05-10T10:05:27Z</time>
      </trkpt>
      <trkpt lat="46.10598" lon="5.61477">
        <ele>963.8</ele>
        <time>2026-05-10T10:05:28Z</time>
      </trkpt>
      <trkpt lat="46.10602" lon="5.61477">
        <ele>963.8</ele>
        <time>2026-05-10T10:05:29Z</time>
      </trkpt>
      <trkpt lat="46.10605" lon="5.61478">
        <ele>964</ele>
        <time>2026-05-10T10:05:30Z</time>
      </trkpt>
      <trkpt lat="46.10609" lon="5.61478">
        <ele>964</ele>
        <time>2026-05-10T10:05:31Z</time>
      </trkpt>
      <trkpt lat="46.10613" lon="5.61478">
        <ele>964</ele>
        <time>2026-05-10T10:05:32Z</time>
      </trkpt>
      <trkpt lat="46.10616" lon="5.61479">
        <ele>964.4</ele>
        <time>2026-05-10T10:05:33Z</time>
      </trkpt>
      <trkpt lat="46.1062" lon="5.61478">
        <ele>964.4</ele>
        <time>2026-05-10T10:05:34Z</time>
      </trkpt>
      <trkpt lat="46.10623" lon="5.61478">
        <ele>964.8</ele>
        <time>2026-05-10T10:05:35Z</time>
      </trkpt>
      <trkpt lat="46.10627" lon="5.61478">
        <ele>965</ele>
        <time>2026-05-10T10:05:36Z</time>
      </trkpt>
      <trkpt lat="46.10631" lon="5.61478">
        <ele>965</ele>
        <time>2026-05-10T10:05:37Z</time>
      </trkpt>
      <trkpt lat="46.10634" lon="5.61478">
        <ele>965</ele>
        <time>2026-05-10T10:05:38Z</time>
      </trkpt>
      <trkpt lat="46.10637" lon="5.61478">
        <ele>965</ele>
        <time>2026-05-10T10:05:39Z</time>
      </trkpt>
      <trkpt lat="46.10641" lon="5.61478">
        <ele>965</ele>
        <time>2026-05-10T10:05:40Z</time>
      </trkpt>
      <trkpt lat="46.10645" lon="5.61478">
        <ele>964.6</ele>
        <time>2026-05-10T10:05:41Z</time>
      </trkpt>
      <trkpt lat="46.10648" lon="5.61478">
        <ele>964.8</ele>
        <time>2026-05-10T10:05:42Z</time>
      </trkpt>
      <trkpt lat="46.10652" lon="5.61478">
        <ele>964.8</ele>
        <time>2026-05-10T10:05:43Z</time>
      </trkpt>
      <trkpt lat="46.10656" lon="5.61477">
        <ele>964.8</ele>
        <time>2026-05-10T10:05:44Z</time>
      </trkpt>
      <trkpt lat="46.1066" lon="5.61477">
        <ele>964.4</ele>
        <time>2026-05-10T10:05:45Z</time>
      </trkpt>
      <trkpt lat="46.10664" lon="5.61477">
        <ele>964.4</ele>
        <time>2026-05-10T10:05:46Z</time>
      </trkpt>
      <trkpt lat="46.10664" lon="5.61477">
        <ele>964.4</ele>
        <time>2026-05-10T10:05:47Z</time>
      </trkpt>
      <trkpt lat="46.10667" lon="5.61476">
        <ele>964.4</ele>
        <time>2026-05-10T10:05:48Z</time>
      </trkpt>
      <trkpt lat="46.10671" lon="5.61476">
        <ele>963.8</ele>
        <time>2026-05-10T10:05:49Z</time>
      </trkpt>
      <trkpt lat="46.10674" lon="5.61476">
        <ele>963.8</ele>
        <time>2026-05-10T10:05:50Z</time>
      </trkpt>
      <trkpt lat="46.10678" lon="5.61477">
        <ele>964.6</ele>
        <time>2026-05-10T10:05:51Z</time>
      </trkpt>
      <trkpt lat="46.10682" lon="5.61476">
        <ele>964.6</ele>
        <time>2026-05-10T10:05:52Z</time>
      </trkpt>
      <trkpt lat="46.10685" lon="5.61476">
        <ele>964.2</ele>
        <time>2026-05-10T10:05:53Z</time>
      </trkpt>
      <trkpt lat="46.10688" lon="5.61474">
        <ele>964.2</ele>
        <time>2026-05-10T10:05:54Z</time>
      </trkpt>
      <trkpt lat="46.10692" lon="5.61473">
        <ele>964.2</ele>
        <time>2026-05-10T10:05:55Z</time>
      </trkpt>
      <trkpt lat="46.10695" lon="5.61472">
        <ele>964.2</ele>
        <time>2026-05-10T10:05:56Z</time>
      </trkpt>
      <trkpt lat="46.10699" lon="5.61471">
        <ele>964.2</ele>
        <time>2026-05-10T10:05:57Z</time>
      </trkpt>
      <trkpt lat="46.10703" lon="5.6147">
        <ele>964.2</ele>
        <time>2026-05-10T10:05:58Z</time>
      </trkpt>
      <trkpt lat="46.10707" lon="5.61468">
        <ele>964.2</ele>
        <time>2026-05-10T10:05:59Z</time>
      </trkpt>
      <trkpt lat="46.10711" lon="5.61467">
        <ele>964</ele>
        <time>2026-05-10T10:06:00Z</time>
      </trkpt>
      <trkpt lat="46.10715" lon="5.61466">
        <ele>964</ele>
        <time>2026-05-10T10:06:01Z</time>
      </trkpt>
      <trkpt lat="46.10719" lon="5.61466">
        <ele>963.8</ele>
        <time>2026-05-10T10:06:02Z</time>
      </trkpt>
      <trkpt lat="46.10723" lon="5.61465">
        <ele>963.8</ele>
        <time>2026-05-10T10:06:03Z</time>
      </trkpt>
      <trkpt lat="46.10727" lon="5.61465">
        <ele>963.8</ele>
        <time>2026-05-10T10:06:04Z</time>
      </trkpt>
      <trkpt lat="46.10731" lon="5.61465">
        <ele>963.8</ele>
        <time>2026-05-10T10:06:05Z</time>
      </trkpt>
      <trkpt lat="46.10735" lon="5.61465">
        <ele>963.8</ele>
        <time>2026-05-10T10:06:06Z</time>
      </trkpt>
      <trkpt lat="46.10739" lon="5.61464">
        <ele>963.8</ele>
        <time>2026-05-10T10:06:07Z</time>
      </trkpt>
      <trkpt lat="46.10744" lon="5.61463">
        <ele>963.4</ele>
        <time>2026-05-10T10:06:08Z</time>
      </trkpt>
      <trkpt lat="46.10749" lon="5.61464">
        <ele>963.2</ele>
        <time>2026-05-10T10:06:09Z</time>
      </trkpt>
      <trkpt lat="46.10753" lon="5.61463">
        <ele>963.2</ele>
        <time>2026-05-10T10:06:10Z</time>
      </trkpt>
      <trkpt lat="46.10758" lon="5.61464">
        <ele>962.6</ele>
        <time>2026-05-10T10:06:11Z</time>
      </trkpt>
      <trkpt lat="46.10762" lon="5.61464">
        <ele>962.6</ele>
        <time>2026-05-10T10:06:12Z</time>
      </trkpt>
      <trkpt lat="46.10767" lon="5.61465">
        <ele>962.6</ele>
        <time>2026-05-10T10:06:13Z</time>
      </trkpt>
      <trkpt lat="46.10772" lon="5.61466">
        <ele>962.2</ele>
        <time>2026-05-10T10:06:14Z</time>
      </trkpt>
      <trkpt lat="46.10776" lon="5.61468">
        <ele>962.2</ele>
        <time>2026-05-10T10:06:15Z</time>
      </trkpt>
      <trkpt lat="46.10781" lon="5.6147">
        <ele>962.2</ele>
        <time>2026-05-10T10:06:16Z</time>
      </trkpt>
      <trkpt lat="46.10786" lon="5.61472">
        <ele>962.4</ele>
        <time>2026-05-10T10:06:17Z</time>
      </trkpt>
      <trkpt lat="46.1079" lon="5.61475">
        <ele>962.4</ele>
        <time>2026-05-10T10:06:18Z</time>
      </trkpt>
      <trkpt lat="46.10794" lon="5.61479">
        <ele>962</ele>
        <time>2026-05-10T10:06:19Z</time>
      </trkpt>
      <trkpt lat="46.10797" lon="5.61483">
        <ele>961.6</ele>
        <time>2026-05-10T10:06:20Z</time>
      </trkpt>
      <trkpt lat="46.108" lon="5.61486">
        <ele>961.6</ele>
        <time>2026-05-10T10:06:21Z</time>
      </trkpt>
      <trkpt lat="46.10804" lon="5.61489">
        <ele>960.8</ele>
        <time>2026-05-10T10:06:22Z</time>
      </trkpt>
      <trkpt lat="46.10807" lon="5.61493">
        <ele>960.8</ele>
        <time>2026-05-10T10:06:23Z</time>
      </trkpt>
      <trkpt lat="46.1081" lon="5.61496">
        <ele>961</ele>
        <time>2026-05-10T10:06:24Z</time>
      </trkpt>
      <trkpt lat="46.10813" lon="5.615">
        <ele>961</ele>
        <time>2026-05-10T10:06:25Z</time>
      </trkpt>
      <trkpt lat="46.10816" lon="5.61504">
        <ele>961</ele>
        <time>2026-05-10T10:06:26Z</time>
      </trkpt>
      <trkpt lat="46.10819" lon="5.61508">
        <ele>961</ele>
        <time>2026-05-10T10:06:27Z</time>
      </trkpt>
      <trkpt lat="46.10822" lon="5.61512">
        <ele>960.6</ele>
        <time>2026-05-10T10:06:28Z</time>
      </trkpt>
      <trkpt lat="46.10825" lon="5.61517">
        <ele>960.6</ele>
        <time>2026-05-10T10:06:29Z</time>
      </trkpt>
      <trkpt lat="46.10828" lon="5.6152">
        <ele>960.6</ele>
        <time>2026-05-10T10:06:30Z</time>
      </trkpt>
      <trkpt lat="46.10832" lon="5.61523">
        <ele>960.6</ele>
        <time>2026-05-10T10:06:31Z</time>
      </trkpt>
      <trkpt lat="46.10835" lon="5.61527">
        <ele>960.6</ele>
        <time>2026-05-10T10:06:32Z</time>
      </trkpt>
      <trkpt lat="46.10838" lon="5.61531">
        <ele>961</ele>
        <time>2026-05-10T10:06:33Z</time>
      </trkpt>
      <trkpt lat="46.10841" lon="5.61535">
        <ele>961</ele>
        <time>2026-05-10T10:06:34Z</time>
      </trkpt>
      <trkpt lat="46.10844" lon="5.61539">
        <ele>961</ele>
        <time>2026-05-10T10:06:35Z</time>
      </trkpt>
      <trkpt lat="46.10847" lon="5.61545">
        <ele>961</ele>
        <time>2026-05-10T10:06:36Z</time>
      </trkpt>
      <trkpt lat="46.1085" lon="5.61549">
        <ele>960.6</ele>
        <time>2026-05-10T10:06:37Z</time>
      </trkpt>
      <trkpt lat="46.10854" lon="5.61554">
        <ele>960.6</ele>
        <time>2026-05-10T10:06:38Z</time>
      </trkpt>
      <trkpt lat="46.10858" lon="5.61558">
        <ele>960.6</ele>
        <time>2026-05-10T10:06:39Z</time>
      </trkpt>
      <trkpt lat="46.10861" lon="5.61563">
        <ele>960.8</ele>
        <time>2026-05-10T10:06:40Z</time>
      </trkpt>
      <trkpt lat="46.10864" lon="5.61567">
        <ele>960.8</ele>
        <time>2026-05-10T10:06:41Z</time>
      </trkpt>
      <trkpt lat="46.10867" lon="5.61573">
        <ele>961.6</ele>
        <time>2026-05-10T10:06:42Z</time>
      </trkpt>
      <trkpt lat="46.1087" lon="5.61577">
        <ele>961.6</ele>
        <time>2026-05-10T10:06:43Z</time>
      </trkpt>
      <trkpt lat="46.10873" lon="5.61581">
        <ele>961.2</ele>
        <time>2026-05-10T10:06:44Z</time>
      </trkpt>
      <trkpt lat="46.10876" lon="5.61585">
        <ele>960.8</ele>
        <time>2026-05-10T10:06:45Z</time>
      </trkpt>
      <trkpt lat="46.10878" lon="5.6159">
        <ele>960.6</ele>
        <time>2026-05-10T10:06:46Z</time>
      </trkpt>
      <trkpt lat="46.10881" lon="5.61593">
        <ele>960.6</ele>
        <time>2026-05-10T10:06:47Z</time>
      </trkpt>
      <trkpt lat="46.10884" lon="5.61598">
        <ele>960.6</ele>
        <time>2026-05-10T10:06:48Z</time>
      </trkpt>
      <trkpt lat="46.10887" lon="5.61603">
        <ele>960.6</ele>
        <time>2026-05-10T10:06:49Z</time>
      </trkpt>
      <trkpt lat="46.10889" lon="5.61606">
        <ele>960.8</ele>
        <time>2026-05-10T10:06:50Z</time>
      </trkpt>
      <trkpt lat="46.10892" lon="5.6161">
        <ele>960.2</ele>
        <time>2026-05-10T10:06:51Z</time>
      </trkpt>
      <trkpt lat="46.10895" lon="5.61613">
        <ele>960.6</ele>
        <time>2026-05-10T10:06:52Z</time>
      </trkpt>
      <trkpt lat="46.10897" lon="5.61616">
        <ele>960.6</ele>
        <time>2026-05-10T10:06:53Z</time>
      </trkpt>
      <trkpt lat="46.109" lon="5.6162">
        <ele>960.8</ele>
        <time>2026-05-10T10:06:54Z</time>
      </trkpt>
      <trkpt lat="46.10903" lon="5.61624">
        <ele>960.8</ele>
        <time>2026-05-10T10:06:55Z</time>
      </trkpt>
      <trkpt lat="46.10906" lon="5.61627">
        <ele>960.8</ele>
        <time>2026-05-10T10:06:56Z</time>
      </trkpt>
      <trkpt lat="46.10909" lon="5.61629">
        <ele>960.8</ele>
        <time>2026-05-10T10:06:57Z</time>
      </trkpt>
      <trkpt lat="46.10913" lon="5.61631">
        <ele>960.6</ele>
        <time>2026-05-10T10:06:58Z</time>
      </trkpt>
      <trkpt lat="46.10916" lon="5.61632">
        <ele>960.8</ele>
        <time>2026-05-10T10:06:59Z</time>
      </trkpt>
      <trkpt lat="46.1092" lon="5.61634">
        <ele>960.8</ele>
        <time>2026-05-10T10:07:00Z</time>
      </trkpt>
      <trkpt lat="46.10923" lon="5.61634">
        <ele>961</ele>
        <time>2026-05-10T10:07:01Z</time>
      </trkpt>
      <trkpt lat="46.10925" lon="5.61634">
        <ele>961</ele>
        <time>2026-05-10T10:07:02Z</time>
      </trkpt>
      <trkpt lat="46.1093" lon="5.61636">
        <ele>960.8</ele>
        <time>2026-05-10T10:07:03Z</time>
      </trkpt>
      <trkpt lat="46.10934" lon="5.61635">
        <ele>960.6</ele>
        <time>2026-05-10T10:07:04Z</time>
      </trkpt>
      <trkpt lat="46.10939" lon="5.61636">
        <ele>960.6</ele>
        <time>2026-05-10T10:07:05Z</time>
      </trkpt>
      <trkpt lat="46.10944" lon="5.61636">
        <ele>960.6</ele>
        <time>2026-05-10T10:07:06Z</time>
      </trkpt>
      <trkpt lat="46.10948" lon="5.61637">
        <ele>960.2</ele>
        <time>2026-05-10T10:07:07Z</time>
      </trkpt>
      <trkpt lat="46.10953" lon="5.61637">
        <ele>960.4</ele>
        <time>2026-05-10T10:07:08Z</time>
      </trkpt>
      <trkpt lat="46.10957" lon="5.61637">
        <ele>960.4</ele>
        <time>2026-05-10T10:07:09Z</time>
      </trkpt>
      <trkpt lat="46.10962" lon="5.61635">
        <ele>960.2</ele>
        <time>2026-05-10T10:07:10Z</time>
      </trkpt>
      <trkpt lat="46.10966" lon="5.61636">
        <ele>960.2</ele>
        <time>2026-05-10T10:07:11Z</time>
      </trkpt>
      <trkpt lat="46.1097" lon="5.61635">
        <ele>959.8</ele>
        <time>2026-05-10T10:07:12Z</time>
      </trkpt>
      <trkpt lat="46.10975" lon="5.61636">
        <ele>959.8</ele>
        <time>2026-05-10T10:07:13Z</time>
      </trkpt>
      <trkpt lat="46.10979" lon="5.61636">
        <ele>959.4</ele>
        <time>2026-05-10T10:07:14Z</time>
      </trkpt>
      <trkpt lat="46.10985" lon="5.61638">
        <ele>959.2</ele>
        <time>2026-05-10T10:07:15Z</time>
      </trkpt>
      <trkpt lat="46.10989" lon="5.61639">
        <ele>959.2</ele>
        <time>2026-05-10T10:07:16Z</time>
      </trkpt>
      <trkpt lat="46.10993" lon="5.6164">
        <ele>959</ele>
        <time>2026-05-10T10:07:17Z</time>
      </trkpt>
      <trkpt lat="46.10997" lon="5.61641">
        <ele>959</ele>
        <time>2026-05-10T10:07:18Z</time>
      </trkpt>
      <trkpt lat="46.11003" lon="5.61642">
        <ele>958.6</ele>
        <time>2026-05-10T10:07:19Z</time>
      </trkpt>
      <trkpt lat="46.11008" lon="5.61641">
        <ele>958.6</ele>
        <time>2026-05-10T10:07:20Z</time>
      </trkpt>
      <trkpt lat="46.11013" lon="5.61641">
        <ele>958.8</ele>
        <time>2026-05-10T10:07:21Z</time>
      </trkpt>
      <trkpt lat="46.11017" lon="5.61641">
        <ele>958.8</ele>
        <time>2026-05-10T10:07:22Z</time>
      </trkpt>
      <trkpt lat="46.1102" lon="5.61642">
        <ele>958.2</ele>
        <time>2026-05-10T10:07:23Z</time>
      </trkpt>
      <trkpt lat="46.11024" lon="5.61643">
        <ele>958.2</ele>
        <time>2026-05-10T10:07:24Z</time>
      </trkpt>
      <trkpt lat="46.11027" lon="5.61643">
        <ele>958.2</ele>
        <time>2026-05-10T10:07:25Z</time>
      </trkpt>
      <trkpt lat="46.11034" lon="5.61646">
        <ele>958.2</ele>
        <time>2026-05-10T10:07:26Z</time>
      </trkpt>
      <trkpt lat="46.11039" lon="5.61647">
        <ele>958.2</ele>
        <time>2026-05-10T10:07:27Z</time>
      </trkpt>
      <trkpt lat="46.11044" lon="5.61648">
        <ele>958.2</ele>
        <time>2026-05-10T10:07:28Z</time>
      </trkpt>
      <trkpt lat="46.11049" lon="5.6165">
        <ele>958.2</ele>
        <time>2026-05-10T10:07:29Z</time>
      </trkpt>
      <trkpt lat="46.11053" lon="5.6165">
        <ele>958.2</ele>
        <time>2026-05-10T10:07:30Z</time>
      </trkpt>
      <trkpt lat="46.11059" lon="5.61654">
        <ele>958.6</ele>
        <time>2026-05-10T10:07:31Z</time>
      </trkpt>
      <trkpt lat="46.11064" lon="5.61658">
        <ele>958</ele>
        <time>2026-05-10T10:07:32Z</time>
      </trkpt>
      <trkpt lat="46.1107" lon="5.6166">
        <ele>957.6</ele>
        <time>2026-05-10T10:07:33Z</time>
      </trkpt>
      <trkpt lat="46.11074" lon="5.61664">
        <ele>957.6</ele>
        <time>2026-05-10T10:07:34Z</time>
      </trkpt>
      <trkpt lat="46.11078" lon="5.61667">
        <ele>957.6</ele>
        <time>2026-05-10T10:07:35Z</time>
      </trkpt>
      <trkpt lat="46.11082" lon="5.61671">
        <ele>957</ele>
        <time>2026-05-10T10:07:36Z</time>
      </trkpt>
      <trkpt lat="46.11086" lon="5.61674">
        <ele>957</ele>
        <time>2026-05-10T10:07:37Z</time>
      </trkpt>
      <trkpt lat="46.11088" lon="5.61677">
        <ele>957.2</ele>
        <time>2026-05-10T10:07:38Z</time>
      </trkpt>
      <trkpt lat="46.11091" lon="5.61681">
        <ele>956.8</ele>
        <time>2026-05-10T10:07:39Z</time>
      </trkpt>
      <trkpt lat="46.11095" lon="5.61686">
        <ele>956.8</ele>
        <time>2026-05-10T10:07:40Z</time>
      </trkpt>
      <trkpt lat="46.11098" lon="5.6169">
        <ele>956.8</ele>
        <time>2026-05-10T10:07:41Z</time>
      </trkpt>
      <trkpt lat="46.11101" lon="5.61695">
        <ele>956.8</ele>
        <time>2026-05-10T10:07:42Z</time>
      </trkpt>
      <trkpt lat="46.11108" lon="5.617">
        <ele>957</ele>
        <time>2026-05-10T10:07:43Z</time>
      </trkpt>
      <trkpt lat="46.11113" lon="5.61703">
        <ele>957</ele>
        <time>2026-05-10T10:07:44Z</time>
      </trkpt>
      <trkpt lat="46.11116" lon="5.61708">
        <ele>957</ele>
        <time>2026-05-10T10:07:45Z</time>
      </trkpt>
      <trkpt lat="46.11117" lon="5.6171">
        <ele>957</ele>
        <time>2026-05-10T10:07:46Z</time>
      </trkpt>
      <trkpt lat="46.11123" lon="5.61713">
        <ele>957</ele>
        <time>2026-05-10T10:07:47Z</time>
      </trkpt>
      <trkpt lat="46.11128" lon="5.61718">
        <ele>957</ele>
        <time>2026-05-10T10:07:48Z</time>
      </trkpt>
      <trkpt lat="46.11132" lon="5.61723">
        <ele>957</ele>
        <time>2026-05-10T10:07:49Z</time>
      </trkpt>
      <trkpt lat="46.11133" lon="5.61726">
        <ele>956.6</ele>
        <time>2026-05-10T10:07:50Z</time>
      </trkpt>
      <trkpt lat="46.11136" lon="5.61732">
        <ele>956.2</ele>
        <time>2026-05-10T10:07:51Z</time>
      </trkpt>
      <trkpt lat="46.11139" lon="5.61739">
        <ele>956.2</ele>
        <time>2026-05-10T10:07:52Z</time>
      </trkpt>
      <trkpt lat="46.11142" lon="5.61743">
        <ele>956.2</ele>
        <time>2026-05-10T10:07:53Z</time>
      </trkpt>
      <trkpt lat="46.11144" lon="5.6175">
        <ele>956</ele>
        <time>2026-05-10T10:07:54Z</time>
      </trkpt>
      <trkpt lat="46.11146" lon="5.61758">
        <ele>956</ele>
        <time>2026-05-10T10:07:55Z</time>
      </trkpt>
      <trkpt lat="46.11147" lon="5.61765">
        <ele>956</ele>
        <time>2026-05-10T10:07:56Z</time>
      </trkpt>
      <trkpt lat="46.1115" lon="5.6177">
        <ele>955.8</ele>
        <time>2026-05-10T10:07:57Z</time>
      </trkpt>
      <trkpt lat="46.11153" lon="5.61778">
        <ele>955.8</ele>
        <time>2026-05-10T10:07:58Z</time>
      </trkpt>
      <trkpt lat="46.11154" lon="5.61783">
        <ele>955.2</ele>
        <time>2026-05-10T10:07:59Z</time>
      </trkpt>
      <trkpt lat="46.11158" lon="5.61789">
        <ele>955</ele>
        <time>2026-05-10T10:08:00Z</time>
      </trkpt>
      <trkpt lat="46.11161" lon="5.61794">
        <ele>955.6</ele>
        <time>2026-05-10T10:08:01Z</time>
      </trkpt>
      <trkpt lat="46.11163" lon="5.618">
        <ele>955.6</ele>
        <time>2026-05-10T10:08:02Z</time>
      </trkpt>
      <trkpt lat="46.11168" lon="5.61806">
        <ele>955.2</ele>
        <time>2026-05-10T10:08:03Z</time>
      </trkpt>
      <trkpt lat="46.11171" lon="5.6181">
        <ele>955.2</ele>
        <time>2026-05-10T10:08:04Z</time>
      </trkpt>
      <trkpt lat="46.11174" lon="5.61812">
        <ele>955.8</ele>
        <time>2026-05-10T10:08:05Z</time>
      </trkpt>
      <trkpt lat="46.11176" lon="5.61817">
        <ele>955.6</ele>
        <time>2026-05-10T10:08:06Z</time>
      </trkpt>
      <trkpt lat="46.11178" lon="5.61821">
        <ele>955.2</ele>
        <time>2026-05-10T10:08:07Z</time>
      </trkpt>
      <trkpt lat="46.11184" lon="5.61825">
        <ele>955.2</ele>
        <time>2026-05-10T10:08:08Z</time>
      </trkpt>
      <trkpt lat="46.11188" lon="5.6183">
        <ele>955.2</ele>
        <time>2026-05-10T10:08:09Z</time>
      </trkpt>
      <trkpt lat="46.11191" lon="5.61833">
        <ele>955.6</ele>
        <time>2026-05-10T10:08:10Z</time>
      </trkpt>
      <trkpt lat="46.11196" lon="5.61837">
        <ele>955.6</ele>
        <time>2026-05-10T10:08:11Z</time>
      </trkpt>
      <trkpt lat="46.11198" lon="5.61842">
        <ele>955.6</ele>
        <time>2026-05-10T10:08:12Z</time>
      </trkpt>
      <trkpt lat="46.11198" lon="5.61848">
        <ele>956</ele>
        <time>2026-05-10T10:08:13Z</time>
      </trkpt>
      <trkpt lat="46.11203" lon="5.6185">
        <ele>956</ele>
        <time>2026-05-10T10:08:14Z</time>
      </trkpt>
      <trkpt lat="46.11204" lon="5.61853">
        <ele>956.8</ele>
        <time>2026-05-10T10:08:15Z</time>
      </trkpt>
      <trkpt lat="46.11207" lon="5.61857">
        <ele>957</ele>
        <time>2026-05-10T10:08:16Z</time>
      </trkpt>
      <trkpt lat="46.11209" lon="5.6186">
        <ele>956.4</ele>
        <time>2026-05-10T10:08:17Z</time>
      </trkpt>
      <trkpt lat="46.11211" lon="5.61864">
        <ele>956.6</ele>
        <time>2026-05-10T10:08:18Z</time>
      </trkpt>
      <trkpt lat="46.11212" lon="5.61866">
        <ele>957.2</ele>
        <time>2026-05-10T10:08:19Z</time>
      </trkpt>
      <trkpt lat="46.11212" lon="5.61868">
        <ele>957.4</ele>
        <time>2026-05-10T10:08:20Z</time>
      </trkpt>
      <trkpt lat="46.11212" lon="5.61871">
        <ele>958</ele>
        <time>2026-05-10T10:08:21Z</time>
      </trkpt>
      <trkpt lat="46.11213" lon="5.61873">
        <ele>958.2</ele>
        <time>2026-05-10T10:08:22Z</time>
      </trkpt>
      <trkpt lat="46.11214" lon="5.61874">
        <ele>958.2</ele>
        <time>2026-05-10T10:08:23Z</time>
      </trkpt>
      <trkpt lat="46.11216" lon="5.61877">
        <ele>958.6</ele>
        <time>2026-05-10T10:08:24Z</time>
      </trkpt>
      <trkpt lat="46.11219" lon="5.6188">
        <ele>958.6</ele>
        <time>2026-05-10T10:08:25Z</time>
      </trkpt>
      <trkpt lat="46.11221" lon="5.61882">
        <ele>959</ele>
        <time>2026-05-10T10:08:26Z</time>
      </trkpt>
      <trkpt lat="46.11223" lon="5.61883">
        <ele>959.2</ele>
        <time>2026-05-10T10:08:27Z</time>
      </trkpt>
      <trkpt lat="46.11226" lon="5.61885">
        <ele>959.2</ele>
        <time>2026-05-10T10:08:28Z</time>
      </trkpt>
      <trkpt lat="46.11229" lon="5.61887">
        <ele>959.4</ele>
        <time>2026-05-10T10:08:29Z</time>
      </trkpt>
      <trkpt lat="46.11232" lon="5.61889">
        <ele>959.4</ele>
        <time>2026-05-10T10:08:30Z</time>
      </trkpt>
      <trkpt lat="46.11235" lon="5.61891">
        <ele>959.4</ele>
        <time>2026-05-10T10:08:31Z</time>
      </trkpt>
      <trkpt lat="46.11238" lon="5.61892">
        <ele>959.8</ele>
        <time>2026-05-10T10:08:32Z</time>
      </trkpt>
      <trkpt lat="46.11241" lon="5.61894">
        <ele>959.8</ele>
        <time>2026-05-10T10:08:33Z</time>
      </trkpt>
      <trkpt lat="46.11244" lon="5.61896">
        <ele>960.2</ele>
        <time>2026-05-10T10:08:34Z</time>
      </trkpt>
      <trkpt lat="46.11246" lon="5.61897">
        <ele>960.2</ele>
        <time>2026-05-10T10:08:35Z</time>
      </trkpt>
      <trkpt lat="46.11249" lon="5.61899">
        <ele>960.2</ele>
        <time>2026-05-10T10:08:36Z</time>
      </trkpt>
      <trkpt lat="46.11251" lon="5.619">
        <ele>960.2</ele>
        <time>2026-05-10T10:08:37Z</time>
      </trkpt>
      <trkpt lat="46.11254" lon="5.61901">
        <ele>960.8</ele>
        <time>2026-05-10T10:08:38Z</time>
      </trkpt>
      <trkpt lat="46.11257" lon="5.61902">
        <ele>960.8</ele>
        <time>2026-05-10T10:08:39Z</time>
      </trkpt>
      <trkpt lat="46.1126" lon="5.61904">
        <ele>960.8</ele>
        <time>2026-05-10T10:08:40Z</time>
      </trkpt>
      <trkpt lat="46.11262" lon="5.61905">
        <ele>961</ele>
        <time>2026-05-10T10:08:41Z</time>
      </trkpt>
      <trkpt lat="46.11265" lon="5.61907">
        <ele>961.2</ele>
        <time>2026-05-10T10:08:42Z</time>
      </trkpt>
      <trkpt lat="46.11267" lon="5.61909">
        <ele>961.6</ele>
        <time>2026-05-10T10:08:43Z</time>
      </trkpt>
      <trkpt lat="46.11268" lon="5.61911">
        <ele>961.6</ele>
        <time>2026-05-10T10:08:44Z</time>
      </trkpt>
      <trkpt lat="46.11269" lon="5.61913">
        <ele>961.6</ele>
        <time>2026-05-10T10:08:45Z</time>
      </trkpt>
      <trkpt lat="46.11271" lon="5.61914">
        <ele>962</ele>
        <time>2026-05-10T10:08:46Z</time>
      </trkpt>
      <trkpt lat="46.11272" lon="5.61915">
        <ele>962</ele>
        <time>2026-05-10T10:08:47Z</time>
      </trkpt>
      <trkpt lat="46.11274" lon="5.61916">
        <ele>962.2</ele>
        <time>2026-05-10T10:08:48Z</time>
      </trkpt>
      <trkpt lat="46.11275" lon="5.61917">
        <ele>962.6</ele>
        <time>2026-05-10T10:08:49Z</time>
      </trkpt>
      <trkpt lat="46.11277" lon="5.61918">
        <ele>962.8</ele>
        <time>2026-05-10T10:08:50Z</time>
      </trkpt>
      <trkpt lat="46.11278" lon="5.6192">
        <ele>962.8</ele>
        <time>2026-05-10T10:08:51Z</time>
      </trkpt>
      <trkpt lat="46.1128" lon="5.61922">
        <ele>962.8</ele>
        <time>2026-05-10T10:08:52Z</time>
      </trkpt>
      <trkpt lat="46.11281" lon="5.61923">
        <ele>963.2</ele>
        <time>2026-05-10T10:08:53Z</time>
      </trkpt>
      <trkpt lat="46.11282" lon="5.61925">
        <ele>963.2</ele>
        <time>2026-05-10T10:08:54Z</time>
      </trkpt>
      <trkpt lat="46.11284" lon="5.61926">
        <ele>963.4</ele>
        <time>2026-05-10T10:08:55Z</time>
      </trkpt>
      <trkpt lat="46.11286" lon="5.61927">
        <ele>963.6</ele>
        <time>2026-05-10T10:08:56Z</time>
      </trkpt>
      <trkpt lat="46.11287" lon="5.61928">
        <ele>963.6</ele>
        <time>2026-05-10T10:08:57Z</time>
      </trkpt>
      <trkpt lat="46.11288" lon="5.61929">
        <ele>963.6</ele>
        <time>2026-05-10T10:08:58Z</time>
      </trkpt>
      <trkpt lat="46.11288" lon="5.61929">
        <ele>964</ele>
        <time>2026-05-10T10:08:59Z</time>
      </trkpt>
      <trkpt lat="46.1129" lon="5.6193">
        <ele>964.2</ele>
        <time>2026-05-10T10:09:00Z</time>
      </trkpt>
      <trkpt lat="46.1129" lon="5.61932">
        <ele>964.4</ele>
        <time>2026-05-10T10:09:01Z</time>
      </trkpt>
      <trkpt lat="46.11292" lon="5.61933">
        <ele>964.4</ele>
        <time>2026-05-10T10:09:02Z</time>
      </trkpt>
      <trkpt lat="46.11293" lon="5.61934">
        <ele>964.4</ele>
        <time>2026-05-10T10:09:03Z</time>
      </trkpt>
      <trkpt lat="46.11294" lon="5.61934">
        <ele>964.4</ele>
        <time>2026-05-10T10:09:04Z</time>
      </trkpt>
      <trkpt lat="46.11295" lon="5.61935">
        <ele>964.4</ele>
        <time>2026-05-10T10:09:05Z</time>
      </trkpt>
      <trkpt lat="46.11297" lon="5.61937">
        <ele>964.4</ele>
        <time>2026-05-10T10:09:06Z</time>
      </trkpt>
      <trkpt lat="46.11299" lon="5.61939">
        <ele>964.4</ele>
        <time>2026-05-10T10:09:07Z</time>
      </trkpt>
      <trkpt lat="46.113" lon="5.61941">
        <ele>964.4</ele>
        <time>2026-05-10T10:09:08Z</time>
      </trkpt>
      <trkpt lat="46.11302" lon="5.61943">
        <ele>964.4</ele>
        <time>2026-05-10T10:09:09Z</time>
      </trkpt>
      <trkpt lat="46.11303" lon="5.61944">
        <ele>964.6</ele>
        <time>2026-05-10T10:09:10Z</time>
      </trkpt>
      <trkpt lat="46.11305" lon="5.61945">
        <ele>964.6</ele>
        <time>2026-05-10T10:09:11Z</time>
      </trkpt>
      <trkpt lat="46.11306" lon="5.61947">
        <ele>964.6</ele>
        <time>2026-05-10T10:09:12Z</time>
      </trkpt>
      <trkpt lat="46.11309" lon="5.61949">
        <ele>964.4</ele>
        <time>2026-05-10T10:09:13Z</time>
      </trkpt>
      <trkpt lat="46.11312" lon="5.61953">
        <ele>964.4</ele>
        <time>2026-05-10T10:09:14Z</time>
      </trkpt>
      <trkpt lat="46.11315" lon="5.61957">
        <ele>963.8</ele>
        <time>2026-05-10T10:09:15Z</time>
      </trkpt>
      <trkpt lat="46.11317" lon="5.6196">
        <ele>963.8</ele>
        <time>2026-05-10T10:09:16Z</time>
      </trkpt>
      <trkpt lat="46.1132" lon="5.61964">
        <ele>963.8</ele>
        <time>2026-05-10T10:09:17Z</time>
      </trkpt>
      <trkpt lat="46.11322" lon="5.61968">
        <ele>963.8</ele>
        <time>2026-05-10T10:09:18Z</time>
      </trkpt>
      <trkpt lat="46.11324" lon="5.61971">
        <ele>963.8</ele>
        <time>2026-05-10T10:09:19Z</time>
      </trkpt>
      <trkpt lat="46.11326" lon="5.61974">
        <ele>964.2</ele>
        <time>2026-05-10T10:09:20Z</time>
      </trkpt>
      <trkpt lat="46.11328" lon="5.61979">
        <ele>964.2</ele>
        <time>2026-05-10T10:09:21Z</time>
      </trkpt>
      <trkpt lat="46.1133" lon="5.61984">
        <ele>963.4</ele>
        <time>2026-05-10T10:09:22Z</time>
      </trkpt>
      <trkpt lat="46.11337" lon="5.6199">
        <ele>962.8</ele>
        <time>2026-05-10T10:09:23Z</time>
      </trkpt>
      <trkpt lat="46.11343" lon="5.61992">
        <ele>962.2</ele>
        <time>2026-05-10T10:09:24Z</time>
      </trkpt>
      <trkpt lat="46.11348" lon="5.61994">
        <ele>962</ele>
        <time>2026-05-10T10:09:25Z</time>
      </trkpt>
      <trkpt lat="46.11354" lon="5.61997">
        <ele>962</ele>
        <time>2026-05-10T10:09:26Z</time>
      </trkpt>
      <trkpt lat="46.11359" lon="5.62">
        <ele>962</ele>
        <time>2026-05-10T10:09:27Z</time>
      </trkpt>
      <trkpt lat="46.11366" lon="5.61998">
        <ele>961.6</ele>
        <time>2026-05-10T10:09:28Z</time>
      </trkpt>
      <trkpt lat="46.11372" lon="5.61999">
        <ele>961.6</ele>
        <time>2026-05-10T10:09:29Z</time>
      </trkpt>
      <trkpt lat="46.11378" lon="5.62">
        <ele>961</ele>
        <time>2026-05-10T10:09:30Z</time>
      </trkpt>
      <trkpt lat="46.11385" lon="5.62001">
        <ele>960.6</ele>
        <time>2026-05-10T10:09:31Z</time>
      </trkpt>
      <trkpt lat="46.11391" lon="5.61998">
        <ele>959.8</ele>
        <time>2026-05-10T10:09:32Z</time>
      </trkpt>
      <trkpt lat="46.11398" lon="5.61997">
        <ele>959.2</ele>
        <time>2026-05-10T10:09:33Z</time>
      </trkpt>
      <trkpt lat="46.11404" lon="5.61996">
        <ele>959.6</ele>
        <time>2026-05-10T10:09:34Z</time>
      </trkpt>
      <trkpt lat="46.1141" lon="5.61995">
        <ele>959</ele>
        <time>2026-05-10T10:09:35Z</time>
      </trkpt>
      <trkpt lat="46.11418" lon="5.61995">
        <ele>958</ele>
        <time>2026-05-10T10:09:36Z</time>
      </trkpt>
      <trkpt lat="46.11424" lon="5.61993">
        <ele>957.6</ele>
        <time>2026-05-10T10:09:37Z</time>
      </trkpt>
      <trkpt lat="46.11431" lon="5.61991">
        <ele>956.8</ele>
        <time>2026-05-10T10:09:38Z</time>
      </trkpt>
      <trkpt lat="46.11437" lon="5.61988">
        <ele>956.4</ele>
        <time>2026-05-10T10:09:39Z</time>
      </trkpt>
      <trkpt lat="46.11446" lon="5.61983">
        <ele>956.2</ele>
        <time>2026-05-10T10:09:40Z</time>
      </trkpt>
      <trkpt lat="46.11451" lon="5.61979">
        <ele>955.8</ele>
        <time>2026-05-10T10:09:41Z</time>
      </trkpt>
      <trkpt lat="46.11455" lon="5.61973">
        <ele>954.8</ele>
        <time>2026-05-10T10:09:42Z</time>
      </trkpt>
      <trkpt lat="46.11461" lon="5.61969">
        <ele>954.8</ele>
        <time>2026-05-10T10:09:43Z</time>
      </trkpt>
      <trkpt lat="46.11467" lon="5.61963">
        <ele>954.8</ele>
        <time>2026-05-10T10:09:44Z</time>
      </trkpt>
      <trkpt lat="46.11473" lon="5.6196">
        <ele>954.2</ele>
        <time>2026-05-10T10:09:45Z</time>
      </trkpt>
      <trkpt lat="46.11481" lon="5.61959">
        <ele>954.2</ele>
        <time>2026-05-10T10:09:46Z</time>
      </trkpt>
      <trkpt lat="46.11487" lon="5.61959">
        <ele>954.2</ele>
        <time>2026-05-10T10:09:47Z</time>
      </trkpt>
      <trkpt lat="46.11495" lon="5.61964">
        <ele>954</ele>
        <time>2026-05-10T10:09:48Z</time>
      </trkpt>
      <trkpt lat="46.11501" lon="5.61968">
        <ele>953.8</ele>
        <time>2026-05-10T10:09:49Z</time>
      </trkpt>
      <trkpt lat="46.11504" lon="5.61974">
        <ele>954.2</ele>
        <time>2026-05-10T10:09:50Z</time>
      </trkpt>
      <trkpt lat="46.11507" lon="5.61982">
        <ele>953.6</ele>
        <time>2026-05-10T10:09:51Z</time>
      </trkpt>
      <trkpt lat="46.11511" lon="5.61989">
        <ele>953.6</ele>
        <time>2026-05-10T10:09:52Z</time>
      </trkpt>
      <trkpt lat="46.11515" lon="5.61994">
        <ele>953.6</ele>
        <time>2026-05-10T10:09:53Z</time>
      </trkpt>
      <trkpt lat="46.11519" lon="5.61998">
        <ele>953.6</ele>
        <time>2026-05-10T10:09:54Z</time>
      </trkpt>
      <trkpt lat="46.11523" lon="5.62002">
        <ele>953.4</ele>
        <time>2026-05-10T10:09:55Z</time>
      </trkpt>
      <trkpt lat="46.11526" lon="5.62006">
        <ele>953</ele>
        <time>2026-05-10T10:09:56Z</time>
      </trkpt>
      <trkpt lat="46.1153" lon="5.6201">
        <ele>952.8</ele>
        <time>2026-05-10T10:09:57Z</time>
      </trkpt>
      <trkpt lat="46.11535" lon="5.62016">
        <ele>952.8</ele>
        <time>2026-05-10T10:09:58Z</time>
      </trkpt>
      <trkpt lat="46.11541" lon="5.62018">
        <ele>952.8</ele>
        <time>2026-05-10T10:09:59Z</time>
      </trkpt>
      <trkpt lat="46.11546" lon="5.62021">
        <ele>952.8</ele>
        <time>2026-05-10T10:10:00Z</time>
      </trkpt>
      <trkpt lat="46.11552" lon="5.62024">
        <ele>952.4</ele>
        <time>2026-05-10T10:10:01Z</time>
      </trkpt>
      <trkpt lat="46.1156" lon="5.62027">
        <ele>952.4</ele>
        <time>2026-05-10T10:10:02Z</time>
      </trkpt>
      <trkpt lat="46.11569" lon="5.62031">
        <ele>952.4</ele>
        <time>2026-05-10T10:10:03Z</time>
      </trkpt>
      <trkpt lat="46.11575" lon="5.62036">
        <ele>952.4</ele>
        <time>2026-05-10T10:10:04Z</time>
      </trkpt>
      <trkpt lat="46.11578" lon="5.62036">
        <ele>952.6</ele>
        <time>2026-05-10T10:10:05Z</time>
      </trkpt>
      <trkpt lat="46.11583" lon="5.62037">
        <ele>952.6</ele>
        <time>2026-05-10T10:10:06Z</time>
      </trkpt>
      <trkpt lat="46.11588" lon="5.62038">
        <ele>953</ele>
        <time>2026-05-10T10:10:07Z</time>
      </trkpt>
      <trkpt lat="46.11593" lon="5.62041">
        <ele>953</ele>
        <time>2026-05-10T10:10:08Z</time>
      </trkpt>
      <trkpt lat="46.11597" lon="5.6204">
        <ele>953</ele>
        <time>2026-05-10T10:10:09Z</time>
      </trkpt>
      <trkpt lat="46.116" lon="5.62039">
        <ele>953</ele>
        <time>2026-05-10T10:10:10Z</time>
      </trkpt>
      <trkpt lat="46.11605" lon="5.6204">
        <ele>953.4</ele>
        <time>2026-05-10T10:10:11Z</time>
      </trkpt>
      <trkpt lat="46.11609" lon="5.6204">
        <ele>953</ele>
        <time>2026-05-10T10:10:12Z</time>
      </trkpt>
      <trkpt lat="46.11614" lon="5.6204">
        <ele>953</ele>
        <time>2026-05-10T10:10:13Z</time>
      </trkpt>
      <trkpt lat="46.11617" lon="5.62039">
        <ele>953</ele>
        <time>2026-05-10T10:10:14Z</time>
      </trkpt>
      <trkpt lat="46.11622" lon="5.6204">
        <ele>953.8</ele>
        <time>2026-05-10T10:10:15Z</time>
      </trkpt>
      <trkpt lat="46.11626" lon="5.62041">
        <ele>953.8</ele>
        <time>2026-05-10T10:10:16Z</time>
      </trkpt>
      <trkpt lat="46.11628" lon="5.6204">
        <ele>953.8</ele>
        <time>2026-05-10T10:10:17Z</time>
      </trkpt>
      <trkpt lat="46.11633" lon="5.62042">
        <ele>954</ele>
        <time>2026-05-10T10:10:18Z</time>
      </trkpt>
      <trkpt lat="46.11636" lon="5.62044">
        <ele>954</ele>
        <time>2026-05-10T10:10:19Z</time>
      </trkpt>
      <trkpt lat="46.11639" lon="5.62047">
        <ele>954.6</ele>
        <time>2026-05-10T10:10:20Z</time>
      </trkpt>
      <trkpt lat="46.11643" lon="5.62049">
        <ele>954.6</ele>
        <time>2026-05-10T10:10:21Z</time>
      </trkpt>
      <trkpt lat="46.11647" lon="5.62052">
        <ele>955</ele>
        <time>2026-05-10T10:10:22Z</time>
      </trkpt>
      <trkpt lat="46.1165" lon="5.62055">
        <ele>954.8</ele>
        <time>2026-05-10T10:10:23Z</time>
      </trkpt>
      <trkpt lat="46.11653" lon="5.62058">
        <ele>954.8</ele>
        <time>2026-05-10T10:10:24Z</time>
      </trkpt>
      <trkpt lat="46.11657" lon="5.62061">
        <ele>955.2</ele>
        <time>2026-05-10T10:10:25Z</time>
      </trkpt>
      <trkpt lat="46.11659" lon="5.62062">
        <ele>955.2</ele>
        <time>2026-05-10T10:10:26Z</time>
      </trkpt>
      <trkpt lat="46.1166" lon="5.62066">
        <ele>955.8</ele>
        <time>2026-05-10T10:10:27Z</time>
      </trkpt>
      <trkpt lat="46.11662" lon="5.6207">
        <ele>955.8</ele>
        <time>2026-05-10T10:10:28Z</time>
      </trkpt>
      <trkpt lat="46.11666" lon="5.62073">
        <ele>955.8</ele>
        <time>2026-05-10T10:10:29Z</time>
      </trkpt>
      <trkpt lat="46.11666" lon="5.62075">
        <ele>956.4</ele>
        <time>2026-05-10T10:10:30Z</time>
      </trkpt>
      <trkpt lat="46.1167" lon="5.62079">
        <ele>956.4</ele>
        <time>2026-05-10T10:10:31Z</time>
      </trkpt>
      <trkpt lat="46.11675" lon="5.62082">
        <ele>956</ele>
        <time>2026-05-10T10:10:32Z</time>
      </trkpt>
      <trkpt lat="46.11677" lon="5.62086">
        <ele>956</ele>
        <time>2026-05-10T10:10:33Z</time>
      </trkpt>
      <trkpt lat="46.11679" lon="5.62087">
        <ele>956.2</ele>
        <time>2026-05-10T10:10:34Z</time>
      </trkpt>
      <trkpt lat="46.1168" lon="5.62087">
        <ele>956.2</ele>
        <time>2026-05-10T10:10:35Z</time>
      </trkpt>
      <trkpt lat="46.11681" lon="5.62088">
        <ele>956.2</ele>
        <time>2026-05-10T10:10:36Z</time>
      </trkpt>
      <trkpt lat="46.11682" lon="5.62089">
        <ele>956.4</ele>
        <time>2026-05-10T10:10:37Z</time>
      </trkpt>
      <trkpt lat="46.11685" lon="5.62092">
        <ele>956.8</ele>
        <time>2026-05-10T10:10:38Z</time>
      </trkpt>
      <trkpt lat="46.11688" lon="5.62096">
        <ele>957</ele>
        <time>2026-05-10T10:10:39Z</time>
      </trkpt>
      <trkpt lat="46.1169" lon="5.62099">
        <ele>957.6</ele>
        <time>2026-05-10T10:10:40Z</time>
      </trkpt>
      <trkpt lat="46.11693" lon="5.62103">
        <ele>957.6</ele>
        <time>2026-05-10T10:10:41Z</time>
      </trkpt>
      <trkpt lat="46.11695" lon="5.62106">
        <ele>957.6</ele>
        <time>2026-05-10T10:10:42Z</time>
      </trkpt>
      <trkpt lat="46.11697" lon="5.62109">
        <ele>957.6</ele>
        <time>2026-05-10T10:10:43Z</time>
      </trkpt>
      <trkpt lat="46.117" lon="5.62112">
        <ele>958</ele>
        <time>2026-05-10T10:10:44Z</time>
      </trkpt>
      <trkpt lat="46.11702" lon="5.62119">
        <ele>958.2</ele>
        <time>2026-05-10T10:10:45Z</time>
      </trkpt>
      <trkpt lat="46.11704" lon="5.62122">
        <ele>958.4</ele>
        <time>2026-05-10T10:10:46Z</time>
      </trkpt>
      <trkpt lat="46.11707" lon="5.62125">
        <ele>958.4</ele>
        <time>2026-05-10T10:10:47Z</time>
      </trkpt>
      <trkpt lat="46.1171" lon="5.62128">
        <ele>958.4</ele>
        <time>2026-05-10T10:10:48Z</time>
      </trkpt>
      <trkpt lat="46.11713" lon="5.62132">
        <ele>958.8</ele>
        <time>2026-05-10T10:10:49Z</time>
      </trkpt>
      <trkpt lat="46.11715" lon="5.62134">
        <ele>958.8</ele>
        <time>2026-05-10T10:10:50Z</time>
      </trkpt>
      <trkpt lat="46.11717" lon="5.62136">
        <ele>958.8</ele>
        <time>2026-05-10T10:10:51Z</time>
      </trkpt>
      <trkpt lat="46.1172" lon="5.62139">
        <ele>958.4</ele>
        <time>2026-05-10T10:10:52Z</time>
      </trkpt>
      <trkpt lat="46.11723" lon="5.62141">
        <ele>958.8</ele>
        <time>2026-05-10T10:10:53Z</time>
      </trkpt>
      <trkpt lat="46.11726" lon="5.62144">
        <ele>959.4</ele>
        <time>2026-05-10T10:10:54Z</time>
      </trkpt>
      <trkpt lat="46.11729" lon="5.62146">
        <ele>959.4</ele>
        <time>2026-05-10T10:10:55Z</time>
      </trkpt>
      <trkpt lat="46.11731" lon="5.62148">
        <ele>959.4</ele>
        <time>2026-05-10T10:10:56Z</time>
      </trkpt>
      <trkpt lat="46.11733" lon="5.62151">
        <ele>959.4</ele>
        <time>2026-05-10T10:10:57Z</time>
      </trkpt>
      <trkpt lat="46.11735" lon="5.62152">
        <ele>959.6</ele>
        <time>2026-05-10T10:10:58Z</time>
      </trkpt>
      <trkpt lat="46.11737" lon="5.62154">
        <ele>960</ele>
        <time>2026-05-10T10:10:59Z</time>
      </trkpt>
      <trkpt lat="46.11739" lon="5.62154">
        <ele>960.2</ele>
        <time>2026-05-10T10:11:00Z</time>
      </trkpt>
      <trkpt lat="46.11741" lon="5.62156">
        <ele>960.8</ele>
        <time>2026-05-10T10:11:01Z</time>
      </trkpt>
      <trkpt lat="46.11744" lon="5.62156">
        <ele>961</ele>
        <time>2026-05-10T10:11:02Z</time>
      </trkpt>
      <trkpt lat="46.11747" lon="5.62157">
        <ele>961</ele>
        <time>2026-05-10T10:11:03Z</time>
      </trkpt>
      <trkpt lat="46.11749" lon="5.62158">
        <ele>961</ele>
        <time>2026-05-10T10:11:04Z</time>
      </trkpt>
      <trkpt lat="46.11751" lon="5.6216">
        <ele>961</ele>
        <time>2026-05-10T10:11:05Z</time>
      </trkpt>
      <trkpt lat="46.11754" lon="5.62162">
        <ele>961.4</ele>
        <time>2026-05-10T10:11:06Z</time>
      </trkpt>
      <trkpt lat="46.11756" lon="5.62164">
        <ele>961.4</ele>
        <time>2026-05-10T10:11:07Z</time>
      </trkpt>
      <trkpt lat="46.11759" lon="5.62165">
        <ele>961.4</ele>
        <time>2026-05-10T10:11:08Z</time>
      </trkpt>
      <trkpt lat="46.11761" lon="5.62166">
        <ele>961.4</ele>
        <time>2026-05-10T10:11:09Z</time>
      </trkpt>
      <trkpt lat="46.11764" lon="5.62167">
        <ele>961.6</ele>
        <time>2026-05-10T10:11:10Z</time>
      </trkpt>
      <trkpt lat="46.11766" lon="5.62169">
        <ele>961.6</ele>
        <time>2026-05-10T10:11:11Z</time>
      </trkpt>
      <trkpt lat="46.11769" lon="5.62171">
        <ele>961.6</ele>
        <time>2026-05-10T10:11:12Z</time>
      </trkpt>
      <trkpt lat="46.11772" lon="5.62172">
        <ele>961.6</ele>
        <time>2026-05-10T10:11:13Z</time>
      </trkpt>
      <trkpt lat="46.11774" lon="5.62173">
        <ele>961.6</ele>
        <time>2026-05-10T10:11:14Z</time>
      </trkpt>
      <trkpt lat="46.11777" lon="5.62175">
        <ele>961.6</ele>
        <time>2026-05-10T10:11:15Z</time>
      </trkpt>
      <trkpt lat="46.1178" lon="5.62176">
        <ele>961.6</ele>
        <time>2026-05-10T10:11:16Z</time>
      </trkpt>
      <trkpt lat="46.11782" lon="5.62177">
        <ele>961.6</ele>
        <time>2026-05-10T10:11:17Z</time>
      </trkpt>
      <trkpt lat="46.11783" lon="5.62178">
        <ele>961.6</ele>
        <time>2026-05-10T10:11:18Z</time>
      </trkpt>
      <trkpt lat="46.11785" lon="5.62179">
        <ele>962.2</ele>
        <time>2026-05-10T10:11:19Z</time>
      </trkpt>
      <trkpt lat="46.11785" lon="5.62179">
        <ele>962.2</ele>
        <time>2026-05-10T10:11:20Z</time>
      </trkpt>
      <trkpt lat="46.11786" lon="5.62181">
        <ele>962.6</ele>
        <time>2026-05-10T10:11:21Z</time>
      </trkpt>
      <trkpt lat="46.11789" lon="5.62182">
        <ele>962.6</ele>
        <time>2026-05-10T10:11:22Z</time>
      </trkpt>
      <trkpt lat="46.1179" lon="5.62184">
        <ele>962.6</ele>
        <time>2026-05-10T10:11:23Z</time>
      </trkpt>
      <trkpt lat="46.11792" lon="5.62185">
        <ele>962.6</ele>
        <time>2026-05-10T10:11:24Z</time>
      </trkpt>
      <trkpt lat="46.11793" lon="5.62187">
        <ele>962.6</ele>
        <time>2026-05-10T10:11:25Z</time>
      </trkpt>
      <trkpt lat="46.11796" lon="5.62188">
        <ele>962.6</ele>
        <time>2026-05-10T10:11:26Z</time>
      </trkpt>
      <trkpt lat="46.11798" lon="5.62187">
        <ele>962.6</ele>
        <time>2026-05-10T10:11:27Z</time>
      </trkpt>
      <trkpt lat="46.118" lon="5.62187">
        <ele>962.6</ele>
        <time>2026-05-10T10:11:28Z</time>
      </trkpt>
      <trkpt lat="46.11803" lon="5.62188">
        <ele>962.6</ele>
        <time>2026-05-10T10:11:29Z</time>
      </trkpt>
      <trkpt lat="46.11804" lon="5.6219">
        <ele>963</ele>
        <time>2026-05-10T10:11:30Z</time>
      </trkpt>
      <trkpt lat="46.11806" lon="5.62192">
        <ele>963.2</ele>
        <time>2026-05-10T10:11:31Z</time>
      </trkpt>
      <trkpt lat="46.11808" lon="5.62193">
        <ele>963.2</ele>
        <time>2026-05-10T10:11:32Z</time>
      </trkpt>
      <trkpt lat="46.1181" lon="5.62195">
        <ele>963.2</ele>
        <time>2026-05-10T10:11:33Z</time>
      </trkpt>
      <trkpt lat="46.11813" lon="5.62196">
        <ele>963.6</ele>
        <time>2026-05-10T10:11:34Z</time>
      </trkpt>
      <trkpt lat="46.11816" lon="5.62198">
        <ele>963.6</ele>
        <time>2026-05-10T10:11:35Z</time>
      </trkpt>
      <trkpt lat="46.11818" lon="5.622">
        <ele>963.6</ele>
        <time>2026-05-10T10:11:36Z</time>
      </trkpt>
      <trkpt lat="46.11821" lon="5.62203">
        <ele>963.8</ele>
        <time>2026-05-10T10:11:37Z</time>
      </trkpt>
      <trkpt lat="46.11824" lon="5.62204">
        <ele>964.2</ele>
        <time>2026-05-10T10:11:38Z</time>
      </trkpt>
      <trkpt lat="46.11826" lon="5.62206">
        <ele>964.2</ele>
        <time>2026-05-10T10:11:39Z</time>
      </trkpt>
      <trkpt lat="46.11827" lon="5.62207">
        <ele>964.2</ele>
        <time>2026-05-10T10:11:40Z</time>
      </trkpt>
      <trkpt lat="46.11829" lon="5.62209">
        <ele>964.2</ele>
        <time>2026-05-10T10:11:41Z</time>
      </trkpt>
      <trkpt lat="46.11832" lon="5.6221">
        <ele>964.4</ele>
        <time>2026-05-10T10:11:42Z</time>
      </trkpt>
      <trkpt lat="46.11835" lon="5.62211">
        <ele>964.6</ele>
        <time>2026-05-10T10:11:43Z</time>
      </trkpt>
      <trkpt lat="46.11838" lon="5.62212">
        <ele>964.6</ele>
        <time>2026-05-10T10:11:44Z</time>
      </trkpt>
      <trkpt lat="46.11841" lon="5.62214">
        <ele>965</ele>
        <time>2026-05-10T10:11:45Z</time>
      </trkpt>
      <trkpt lat="46.11844" lon="5.62215">
        <ele>965.2</ele>
        <time>2026-05-10T10:11:46Z</time>
      </trkpt>
      <trkpt lat="46.11846" lon="5.62217">
        <ele>965.2</ele>
        <time>2026-05-10T10:11:47Z</time>
      </trkpt>
      <trkpt lat="46.11849" lon="5.62218">
        <ele>965.2</ele>
        <time>2026-05-10T10:11:48Z</time>
      </trkpt>
      <trkpt lat="46.11851" lon="5.6222">
        <ele>965.6</ele>
        <time>2026-05-10T10:11:49Z</time>
      </trkpt>
      <trkpt lat="46.11854" lon="5.62221">
        <ele>965.6</ele>
        <time>2026-05-10T10:11:50Z</time>
      </trkpt>
      <trkpt lat="46.11856" lon="5.62222">
        <ele>966</ele>
        <time>2026-05-10T10:11:51Z</time>
      </trkpt>
      <trkpt lat="46.11858" lon="5.62224">
        <ele>966.2</ele>
        <time>2026-05-10T10:11:52Z</time>
      </trkpt>
      <trkpt lat="46.1186" lon="5.62224">
        <ele>966.6</ele>
        <time>2026-05-10T10:11:53Z</time>
      </trkpt>
      <trkpt lat="46.11862" lon="5.62225">
        <ele>966.6</ele>
        <time>2026-05-10T10:11:54Z</time>
      </trkpt>
      <trkpt lat="46.11865" lon="5.62226">
        <ele>966.6</ele>
        <time>2026-05-10T10:11:55Z</time>
      </trkpt>
      <trkpt lat="46.11867" lon="5.62228">
        <ele>966.6</ele>
        <time>2026-05-10T10:11:56Z</time>
      </trkpt>
      <trkpt lat="46.11868" lon="5.6223">
        <ele>966.6</ele>
        <time>2026-05-10T10:11:57Z</time>
      </trkpt>
      <trkpt lat="46.11869" lon="5.62232">
        <ele>966.6</ele>
        <time>2026-05-10T10:11:58Z</time>
      </trkpt>
      <trkpt lat="46.11871" lon="5.62234">
        <ele>966.6</ele>
        <time>2026-05-10T10:11:59Z</time>
      </trkpt>
      <trkpt lat="46.11872" lon="5.62236">
        <ele>966.8</ele>
        <time>2026-05-10T10:12:00Z</time>
      </trkpt>
      <trkpt lat="46.11873" lon="5.62239">
        <ele>966.8</ele>
        <time>2026-05-10T10:12:01Z</time>
      </trkpt>
      <trkpt lat="46.11874" lon="5.62241">
        <ele>967.4</ele>
        <time>2026-05-10T10:12:02Z</time>
      </trkpt>
      <trkpt lat="46.11875" lon="5.62243">
        <ele>967.4</ele>
        <time>2026-05-10T10:12:03Z</time>
      </trkpt>
      <trkpt lat="46.11877" lon="5.62245">
        <ele>967.8</ele>
        <time>2026-05-10T10:12:04Z</time>
      </trkpt>
      <trkpt lat="46.1188" lon="5.62247">
        <ele>967.2</ele>
        <time>2026-05-10T10:12:05Z</time>
      </trkpt>
      <trkpt lat="46.11882" lon="5.6225">
        <ele>967.6</ele>
        <time>2026-05-10T10:12:06Z</time>
      </trkpt>
      <trkpt lat="46.11884" lon="5.62253">
        <ele>967.6</ele>
        <time>2026-05-10T10:12:07Z</time>
      </trkpt>
      <trkpt lat="46.11886" lon="5.62255">
        <ele>967.8</ele>
        <time>2026-05-10T10:12:08Z</time>
      </trkpt>
      <trkpt lat="46.11889" lon="5.62258">
        <ele>968</ele>
        <time>2026-05-10T10:12:09Z</time>
      </trkpt>
      <trkpt lat="46.11891" lon="5.62259">
        <ele>968</ele>
        <time>2026-05-10T10:12:10Z</time>
      </trkpt>
      <trkpt lat="46.11893" lon="5.6226">
        <ele>968</ele>
        <time>2026-05-10T10:12:11Z</time>
      </trkpt>
      <trkpt lat="46.11896" lon="5.62262">
        <ele>968.4</ele>
        <time>2026-05-10T10:12:12Z</time>
      </trkpt>
      <trkpt lat="46.11897" lon="5.62263">
        <ele>969</ele>
        <time>2026-05-10T10:12:13Z</time>
      </trkpt>
      <trkpt lat="46.11899" lon="5.62264">
        <ele>969</ele>
        <time>2026-05-10T10:12:14Z</time>
      </trkpt>
      <trkpt lat="46.11901" lon="5.62266">
        <ele>969</ele>
        <time>2026-05-10T10:12:15Z</time>
      </trkpt>
      <trkpt lat="46.11903" lon="5.62267">
        <ele>969.2</ele>
        <time>2026-05-10T10:12:16Z</time>
      </trkpt>
      <trkpt lat="46.11905" lon="5.62268">
        <ele>969.2</ele>
        <time>2026-05-10T10:12:17Z</time>
      </trkpt>
      <trkpt lat="46.11907" lon="5.6227">
        <ele>969</ele>
        <time>2026-05-10T10:12:18Z</time>
      </trkpt>
      <trkpt lat="46.11908" lon="5.62271">
        <ele>969</ele>
        <time>2026-05-10T10:12:19Z</time>
      </trkpt>
      <trkpt lat="46.1191" lon="5.62272">
        <ele>969.4</ele>
        <time>2026-05-10T10:12:20Z</time>
      </trkpt>
      <trkpt lat="46.11913" lon="5.62273">
        <ele>969.4</ele>
        <time>2026-05-10T10:12:21Z</time>
      </trkpt>
      <trkpt lat="46.11915" lon="5.62274">
        <ele>969.8</ele>
        <time>2026-05-10T10:12:22Z</time>
      </trkpt>
      <trkpt lat="46.11917" lon="5.62275">
        <ele>969.8</ele>
        <time>2026-05-10T10:12:23Z</time>
      </trkpt>
      <trkpt lat="46.11919" lon="5.62276">
        <ele>969.8</ele>
        <time>2026-05-10T10:12:24Z</time>
      </trkpt>
      <trkpt lat="46.11921" lon="5.62277">
        <ele>969.8</ele>
        <time>2026-05-10T10:12:25Z</time>
      </trkpt>
      <trkpt lat="46.11923" lon="5.62279">
        <ele>970.2</ele>
        <time>2026-05-10T10:12:26Z</time>
      </trkpt>
      <trkpt lat="46.11925" lon="5.6228">
        <ele>970.2</ele>
        <time>2026-05-10T10:12:27Z</time>
      </trkpt>
      <trkpt lat="46.11927" lon="5.62281">
        <ele>970.4</ele>
        <time>2026-05-10T10:12:28Z</time>
      </trkpt>
      <trkpt lat="46.11928" lon="5.62282">
        <ele>970.4</ele>
        <time>2026-05-10T10:12:29Z</time>
      </trkpt>
      <trkpt lat="46.1193" lon="5.62283">
        <ele>970.4</ele>
        <time>2026-05-10T10:12:30Z</time>
      </trkpt>
      <trkpt lat="46.11932" lon="5.62284">
        <ele>970.4</ele>
        <time>2026-05-10T10:12:31Z</time>
      </trkpt>
      <trkpt lat="46.11934" lon="5.62285">
        <ele>970.8</ele>
        <time>2026-05-10T10:12:32Z</time>
      </trkpt>
      <trkpt lat="46.11936" lon="5.62287">
        <ele>970.8</ele>
        <time>2026-05-10T10:12:33Z</time>
      </trkpt>
      <trkpt lat="46.11938" lon="5.62288">
        <ele>971</ele>
        <time>2026-05-10T10:12:34Z</time>
      </trkpt>
      <trkpt lat="46.11939" lon="5.62289">
        <ele>971</ele>
        <time>2026-05-10T10:12:35Z</time>
      </trkpt>
      <trkpt lat="46.11941" lon="5.62289">
        <ele>971.4</ele>
        <time>2026-05-10T10:12:36Z</time>
      </trkpt>
      <trkpt lat="46.11942" lon="5.62289">
        <ele>971.6</ele>
        <time>2026-05-10T10:12:37Z</time>
      </trkpt>
      <trkpt lat="46.11944" lon="5.6229">
        <ele>971.6</ele>
        <time>2026-05-10T10:12:38Z</time>
      </trkpt>
      <trkpt lat="46.11946" lon="5.6229">
        <ele>971.6</ele>
        <time>2026-05-10T10:12:39Z</time>
      </trkpt>
      <trkpt lat="46.11949" lon="5.62291">
        <ele>971.6</ele>
        <time>2026-05-10T10:12:40Z</time>
      </trkpt>
      <trkpt lat="46.11951" lon="5.62291">
        <ele>971.6</ele>
        <time>2026-05-10T10:12:41Z</time>
      </trkpt>
      <trkpt lat="46.11953" lon="5.62292">
        <ele>971.8</ele>
        <time>2026-05-10T10:12:42Z</time>
      </trkpt>
      <trkpt lat="46.11955" lon="5.62293">
        <ele>971.8</ele>
        <time>2026-05-10T10:12:43Z</time>
      </trkpt>
      <trkpt lat="46.11956" lon="5.62294">
        <ele>972.2</ele>
        <time>2026-05-10T10:12:44Z</time>
      </trkpt>
      <trkpt lat="46.11957" lon="5.62296">
        <ele>972.2</ele>
        <time>2026-05-10T10:12:45Z</time>
      </trkpt>
      <trkpt lat="46.1196" lon="5.62299">
        <ele>972.2</ele>
        <time>2026-05-10T10:12:46Z</time>
      </trkpt>
      <trkpt lat="46.11962" lon="5.62301">
        <ele>972.8</ele>
        <time>2026-05-10T10:12:47Z</time>
      </trkpt>
      <trkpt lat="46.11964" lon="5.62303">
        <ele>972.8</ele>
        <time>2026-05-10T10:12:48Z</time>
      </trkpt>
      <trkpt lat="46.11966" lon="5.62304">
        <ele>973.2</ele>
        <time>2026-05-10T10:12:49Z</time>
      </trkpt>
      <trkpt lat="46.11967" lon="5.62306">
        <ele>973.2</ele>
        <time>2026-05-10T10:12:50Z</time>
      </trkpt>
      <trkpt lat="46.11969" lon="5.62306">
        <ele>973.2</ele>
        <time>2026-05-10T10:12:51Z</time>
      </trkpt>
      <trkpt lat="46.1197" lon="5.62308">
        <ele>973.2</ele>
        <time>2026-05-10T10:12:52Z</time>
      </trkpt>
      <trkpt lat="46.11972" lon="5.62309">
        <ele>973.2</ele>
        <time>2026-05-10T10:12:53Z</time>
      </trkpt>
      <trkpt lat="46.11974" lon="5.62311">
        <ele>973.6</ele>
        <time>2026-05-10T10:12:54Z</time>
      </trkpt>
      <trkpt lat="46.11977" lon="5.62313">
        <ele>973.6</ele>
        <time>2026-05-10T10:12:55Z</time>
      </trkpt>
      <trkpt lat="46.11979" lon="5.62314">
        <ele>973.6</ele>
        <time>2026-05-10T10:12:56Z</time>
      </trkpt>
      <trkpt lat="46.11981" lon="5.62316">
        <ele>973.8</ele>
        <time>2026-05-10T10:12:57Z</time>
      </trkpt>
      <trkpt lat="46.11983" lon="5.62317">
        <ele>973.8</ele>
        <time>2026-05-10T10:12:58Z</time>
      </trkpt>
      <trkpt lat="46.11985" lon="5.62319">
        <ele>974</ele>
        <time>2026-05-10T10:12:59Z</time>
      </trkpt>
      <trkpt lat="46.11986" lon="5.62321">
        <ele>974</ele>
        <time>2026-05-10T10:13:00Z</time>
      </trkpt>
      <trkpt lat="46.11988" lon="5.62322">
        <ele>974.6</ele>
        <time>2026-05-10T10:13:01Z</time>
      </trkpt>
      <trkpt lat="46.1199" lon="5.62323">
        <ele>974.6</ele>
        <time>2026-05-10T10:13:02Z</time>
      </trkpt>
      <trkpt lat="46.11992" lon="5.62324">
        <ele>975</ele>
        <time>2026-05-10T10:13:03Z</time>
      </trkpt>
      <trkpt lat="46.11995" lon="5.62326">
        <ele>975</ele>
        <time>2026-05-10T10:13:04Z</time>
      </trkpt>
      <trkpt lat="46.11997" lon="5.62327">
        <ele>975</ele>
        <time>2026-05-10T10:13:05Z</time>
      </trkpt>
      <trkpt lat="46.11999" lon="5.62328">
        <ele>975.2</ele>
        <time>2026-05-10T10:13:06Z</time>
      </trkpt>
      <trkpt lat="46.12001" lon="5.62329">
        <ele>975.2</ele>
        <time>2026-05-10T10:13:07Z</time>
      </trkpt>
      <trkpt lat="46.12002" lon="5.62329">
        <ele>975.2</ele>
        <time>2026-05-10T10:13:08Z</time>
      </trkpt>
      <trkpt lat="46.12004" lon="5.62329">
        <ele>975.6</ele>
        <time>2026-05-10T10:13:09Z</time>
      </trkpt>
      <trkpt lat="46.12007" lon="5.6233">
        <ele>975.6</ele>
        <time>2026-05-10T10:13:10Z</time>
      </trkpt>
      <trkpt lat="46.12008" lon="5.62331">
        <ele>975.6</ele>
        <time>2026-05-10T10:13:11Z</time>
      </trkpt>
      <trkpt lat="46.1201" lon="5.62332">
        <ele>976</ele>
        <time>2026-05-10T10:13:12Z</time>
      </trkpt>
      <trkpt lat="46.12012" lon="5.62333">
        <ele>976</ele>
        <time>2026-05-10T10:13:13Z</time>
      </trkpt>
      <trkpt lat="46.12014" lon="5.62334">
        <ele>976.4</ele>
        <time>2026-05-10T10:13:14Z</time>
      </trkpt>
      <trkpt lat="46.12016" lon="5.62335">
        <ele>976.4</ele>
        <time>2026-05-10T10:13:15Z</time>
      </trkpt>
      <trkpt lat="46.12018" lon="5.62336">
        <ele>976.6</ele>
        <time>2026-05-10T10:13:16Z</time>
      </trkpt>
      <trkpt lat="46.1202" lon="5.62336">
        <ele>976.8</ele>
        <time>2026-05-10T10:13:17Z</time>
      </trkpt>
      <trkpt lat="46.12021" lon="5.62336">
        <ele>976.8</ele>
        <time>2026-05-10T10:13:18Z</time>
      </trkpt>
      <trkpt lat="46.12023" lon="5.62337">
        <ele>977.2</ele>
        <time>2026-05-10T10:13:19Z</time>
      </trkpt>
      <trkpt lat="46.12025" lon="5.62337">
        <ele>977.6</ele>
        <time>2026-05-10T10:13:20Z</time>
      </trkpt>
      <trkpt lat="46.12027" lon="5.62337">
        <ele>977.6</ele>
        <time>2026-05-10T10:13:21Z</time>
      </trkpt>
      <trkpt lat="46.12029" lon="5.62338">
        <ele>977.6</ele>
        <time>2026-05-10T10:13:22Z</time>
      </trkpt>
      <trkpt lat="46.12031" lon="5.62339">
        <ele>977.6</ele>
        <time>2026-05-10T10:13:23Z</time>
      </trkpt>
      <trkpt lat="46.12032" lon="5.62339">
        <ele>978.2</ele>
        <time>2026-05-10T10:13:24Z</time>
      </trkpt>
      <trkpt lat="46.12033" lon="5.6234">
        <ele>978.2</ele>
        <time>2026-05-10T10:13:25Z</time>
      </trkpt>
      <trkpt lat="46.12034" lon="5.62341">
        <ele>978.2</ele>
        <time>2026-05-10T10:13:26Z</time>
      </trkpt>
      <trkpt lat="46.12036" lon="5.62342">
        <ele>978.2</ele>
        <time>2026-05-10T10:13:27Z</time>
      </trkpt>
      <trkpt lat="46.12038" lon="5.62343">
        <ele>978.2</ele>
        <time>2026-05-10T10:13:28Z</time>
      </trkpt>
      <trkpt lat="46.12039" lon="5.62345">
        <ele>978.6</ele>
        <time>2026-05-10T10:13:29Z</time>
      </trkpt>
      <trkpt lat="46.12041" lon="5.62346">
        <ele>979</ele>
        <time>2026-05-10T10:13:30Z</time>
      </trkpt>
      <trkpt lat="46.12042" lon="5.62347">
        <ele>979.2</ele>
        <time>2026-05-10T10:13:31Z</time>
      </trkpt>
      <trkpt lat="46.12043" lon="5.62347">
        <ele>979.2</ele>
        <time>2026-05-10T10:13:32Z</time>
      </trkpt>
      <trkpt lat="46.12045" lon="5.62348">
        <ele>979.2</ele>
        <time>2026-05-10T10:13:33Z</time>
      </trkpt>
      <trkpt lat="46.12047" lon="5.62349">
        <ele>979.2</ele>
        <time>2026-05-10T10:13:34Z</time>
      </trkpt>
      <trkpt lat="46.12049" lon="5.62349">
        <ele>979.4</ele>
        <time>2026-05-10T10:13:35Z</time>
      </trkpt>
      <trkpt lat="46.12051" lon="5.62351">
        <ele>979.4</ele>
        <time>2026-05-10T10:13:36Z</time>
      </trkpt>
      <trkpt lat="46.12054" lon="5.62354">
        <ele>979.4</ele>
        <time>2026-05-10T10:13:37Z</time>
      </trkpt>
      <trkpt lat="46.12055" lon="5.62355">
        <ele>979.8</ele>
        <time>2026-05-10T10:13:38Z</time>
      </trkpt>
      <trkpt lat="46.12056" lon="5.62357">
        <ele>979.8</ele>
        <time>2026-05-10T10:13:39Z</time>
      </trkpt>
      <trkpt lat="46.12057" lon="5.62358">
        <ele>980</ele>
        <time>2026-05-10T10:13:40Z</time>
      </trkpt>
      <trkpt lat="46.12058" lon="5.6236">
        <ele>979.6</ele>
        <time>2026-05-10T10:13:41Z</time>
      </trkpt>
      <trkpt lat="46.12059" lon="5.62361">
        <ele>979.8</ele>
        <time>2026-05-10T10:13:42Z</time>
      </trkpt>
      <trkpt lat="46.1206" lon="5.62363">
        <ele>980</ele>
        <time>2026-05-10T10:13:43Z</time>
      </trkpt>
      <trkpt lat="46.12062" lon="5.62365">
        <ele>980.4</ele>
        <time>2026-05-10T10:13:44Z</time>
      </trkpt>
      <trkpt lat="46.12063" lon="5.62366">
        <ele>980.4</ele>
        <time>2026-05-10T10:13:45Z</time>
      </trkpt>
      <trkpt lat="46.12065" lon="5.62367">
        <ele>980.6</ele>
        <time>2026-05-10T10:13:46Z</time>
      </trkpt>
      <trkpt lat="46.12066" lon="5.62369">
        <ele>980.6</ele>
        <time>2026-05-10T10:13:47Z</time>
      </trkpt>
      <trkpt lat="46.12068" lon="5.6237">
        <ele>980.4</ele>
        <time>2026-05-10T10:13:48Z</time>
      </trkpt>
      <trkpt lat="46.12069" lon="5.62371">
        <ele>980.4</ele>
        <time>2026-05-10T10:13:49Z</time>
      </trkpt>
      <trkpt lat="46.12071" lon="5.62373">
        <ele>980.4</ele>
        <time>2026-05-10T10:13:50Z</time>
      </trkpt>
      <trkpt lat="46.12072" lon="5.62374">
        <ele>980.6</ele>
        <time>2026-05-10T10:13:51Z</time>
      </trkpt>
      <trkpt lat="46.12073" lon="5.62374">
        <ele>980.6</ele>
        <time>2026-05-10T10:13:52Z</time>
      </trkpt>
      <trkpt lat="46.12075" lon="5.62375">
        <ele>981</ele>
        <time>2026-05-10T10:13:53Z</time>
      </trkpt>
      <trkpt lat="46.12076" lon="5.62377">
        <ele>981.2</ele>
        <time>2026-05-10T10:13:54Z</time>
      </trkpt>
      <trkpt lat="46.12077" lon="5.62378">
        <ele>981.4</ele>
        <time>2026-05-10T10:13:55Z</time>
      </trkpt>
      <trkpt lat="46.12078" lon="5.62379">
        <ele>981.4</ele>
        <time>2026-05-10T10:13:56Z</time>
      </trkpt>
      <trkpt lat="46.12079" lon="5.6238">
        <ele>981.8</ele>
        <time>2026-05-10T10:13:57Z</time>
      </trkpt>
      <trkpt lat="46.1208" lon="5.6238">
        <ele>982.2</ele>
        <time>2026-05-10T10:13:58Z</time>
      </trkpt>
      <trkpt lat="46.12081" lon="5.62381">
        <ele>982.4</ele>
        <time>2026-05-10T10:13:59Z</time>
      </trkpt>
      <trkpt lat="46.12083" lon="5.62382">
        <ele>982.4</ele>
        <time>2026-05-10T10:14:00Z</time>
      </trkpt>
      <trkpt lat="46.12085" lon="5.62383">
        <ele>982.8</ele>
        <time>2026-05-10T10:14:01Z</time>
      </trkpt>
      <trkpt lat="46.12086" lon="5.62384">
        <ele>983</ele>
        <time>2026-05-10T10:14:02Z</time>
      </trkpt>
      <trkpt lat="46.12088" lon="5.62386">
        <ele>983</ele>
        <time>2026-05-10T10:14:03Z</time>
      </trkpt>
      <trkpt lat="46.12089" lon="5.62387">
        <ele>983.4</ele>
        <time>2026-05-10T10:14:04Z</time>
      </trkpt>
      <trkpt lat="46.12091" lon="5.62388">
        <ele>983.4</ele>
        <time>2026-05-10T10:14:05Z</time>
      </trkpt>
      <trkpt lat="46.12093" lon="5.6239">
        <ele>983.6</ele>
        <time>2026-05-10T10:14:06Z</time>
      </trkpt>
      <trkpt lat="46.12094" lon="5.62391">
        <ele>983.6</ele>
        <time>2026-05-10T10:14:07Z</time>
      </trkpt>
      <trkpt lat="46.12095" lon="5.62393">
        <ele>983.6</ele>
        <time>2026-05-10T10:14:08Z</time>
      </trkpt>
      <trkpt lat="46.12097" lon="5.62395">
        <ele>983.6</ele>
        <time>2026-05-10T10:14:09Z</time>
      </trkpt>
      <trkpt lat="46.12099" lon="5.62397">
        <ele>984</ele>
        <time>2026-05-10T10:14:10Z</time>
      </trkpt>
      <trkpt lat="46.121" lon="5.62398">
        <ele>984.2</ele>
        <time>2026-05-10T10:14:11Z</time>
      </trkpt>
      <trkpt lat="46.12101" lon="5.62398">
        <ele>984.2</ele>
        <time>2026-05-10T10:14:12Z</time>
      </trkpt>
      <trkpt lat="46.12103" lon="5.62399">
        <ele>984.6</ele>
        <time>2026-05-10T10:14:13Z</time>
      </trkpt>
      <trkpt lat="46.12104" lon="5.624">
        <ele>984.6</ele>
        <time>2026-05-10T10:14:14Z</time>
      </trkpt>
      <trkpt lat="46.12105" lon="5.62401">
        <ele>984.8</ele>
        <time>2026-05-10T10:14:15Z</time>
      </trkpt>
      <trkpt lat="46.12107" lon="5.62403">
        <ele>984.8</ele>
        <time>2026-05-10T10:14:16Z</time>
      </trkpt>
      <trkpt lat="46.12109" lon="5.62404">
        <ele>984.8</ele>
        <time>2026-05-10T10:14:17Z</time>
      </trkpt>
      <trkpt lat="46.1211" lon="5.62405">
        <ele>985</ele>
        <time>2026-05-10T10:14:18Z</time>
      </trkpt>
      <trkpt lat="46.12112" lon="5.62405">
        <ele>985</ele>
        <time>2026-05-10T10:14:19Z</time>
      </trkpt>
      <trkpt lat="46.12114" lon="5.62406">
        <ele>985</ele>
        <time>2026-05-10T10:14:20Z</time>
      </trkpt>
      <trkpt lat="46.12116" lon="5.62407">
        <ele>985</ele>
        <time>2026-05-10T10:14:21Z</time>
      </trkpt>
      <trkpt lat="46.12118" lon="5.62409">
        <ele>985</ele>
        <time>2026-05-10T10:14:22Z</time>
      </trkpt>
      <trkpt lat="46.1212" lon="5.6241">
        <ele>985.4</ele>
        <time>2026-05-10T10:14:23Z</time>
      </trkpt>
      <trkpt lat="46.12122" lon="5.62412">
        <ele>985.4</ele>
        <time>2026-05-10T10:14:24Z</time>
      </trkpt>
      <trkpt lat="46.12124" lon="5.62413">
        <ele>985.4</ele>
        <time>2026-05-10T10:14:25Z</time>
      </trkpt>
      <trkpt lat="46.12125" lon="5.62414">
        <ele>985.4</ele>
        <time>2026-05-10T10:14:26Z</time>
      </trkpt>
      <trkpt lat="46.12127" lon="5.62415">
        <ele>985.4</ele>
        <time>2026-05-10T10:14:27Z</time>
      </trkpt>
      <trkpt lat="46.12129" lon="5.62416">
        <ele>985.4</ele>
        <time>2026-05-10T10:14:28Z</time>
      </trkpt>
      <trkpt lat="46.12131" lon="5.62416">
        <ele>985.4</ele>
        <time>2026-05-10T10:14:29Z</time>
      </trkpt>
      <trkpt lat="46.12131" lon="5.62416">
        <ele>985.6</ele>
        <time>2026-05-10T10:14:30Z</time>
      </trkpt>
      <trkpt lat="46.12133" lon="5.62417">
        <ele>985.6</ele>
        <time>2026-05-10T10:14:31Z</time>
      </trkpt>
      <trkpt lat="46.12134" lon="5.62418">
        <ele>985.6</ele>
        <time>2026-05-10T10:14:32Z</time>
      </trkpt>
      <trkpt lat="46.12136" lon="5.6242">
        <ele>985.6</ele>
        <time>2026-05-10T10:14:33Z</time>
      </trkpt>
      <trkpt lat="46.12138" lon="5.62421">
        <ele>985.6</ele>
        <time>2026-05-10T10:14:34Z</time>
      </trkpt>
      <trkpt lat="46.1214" lon="5.62422">
        <ele>985.6</ele>
        <time>2026-05-10T10:14:35Z</time>
      </trkpt>
      <trkpt lat="46.12142" lon="5.62424">
        <ele>985.6</ele>
        <time>2026-05-10T10:14:36Z</time>
      </trkpt>
      <trkpt lat="46.12145" lon="5.62426">
        <ele>985.6</ele>
        <time>2026-05-10T10:14:37Z</time>
      </trkpt>
      <trkpt lat="46.12147" lon="5.62428">
        <ele>985.6</ele>
        <time>2026-05-10T10:14:38Z</time>
      </trkpt>
      <trkpt lat="46.12149" lon="5.62429">
        <ele>985.6</ele>
        <time>2026-05-10T10:14:39Z</time>
      </trkpt>
      <trkpt lat="46.12152" lon="5.6243">
        <ele>986</ele>
        <time>2026-05-10T10:14:40Z</time>
      </trkpt>
      <trkpt lat="46.12155" lon="5.62431">
        <ele>986</ele>
        <time>2026-05-10T10:14:41Z</time>
      </trkpt>
      <trkpt lat="46.12157" lon="5.62432">
        <ele>986</ele>
        <time>2026-05-10T10:14:42Z</time>
      </trkpt>
      <trkpt lat="46.1216" lon="5.62434">
        <ele>986</ele>
        <time>2026-05-10T10:14:43Z</time>
      </trkpt>
      <trkpt lat="46.12162" lon="5.62436">
        <ele>986</ele>
        <time>2026-05-10T10:14:44Z</time>
      </trkpt>
      <trkpt lat="46.12163" lon="5.62438">
        <ele>986</ele>
        <time>2026-05-10T10:14:45Z</time>
      </trkpt>
      <trkpt lat="46.12164" lon="5.62441">
        <ele>986.2</ele>
        <time>2026-05-10T10:14:46Z</time>
      </trkpt>
      <trkpt lat="46.12165" lon="5.62445">
        <ele>986.2</ele>
        <time>2026-05-10T10:14:47Z</time>
      </trkpt>
      <trkpt lat="46.12167" lon="5.62447">
        <ele>986.2</ele>
        <time>2026-05-10T10:14:48Z</time>
      </trkpt>
      <trkpt lat="46.12169" lon="5.62449">
        <ele>986.2</ele>
        <time>2026-05-10T10:14:49Z</time>
      </trkpt>
      <trkpt lat="46.12171" lon="5.62451">
        <ele>986.2</ele>
        <time>2026-05-10T10:14:50Z</time>
      </trkpt>
      <trkpt lat="46.12172" lon="5.62453">
        <ele>986.4</ele>
        <time>2026-05-10T10:14:51Z</time>
      </trkpt>
      <trkpt lat="46.12174" lon="5.62456">
        <ele>986.4</ele>
        <time>2026-05-10T10:14:52Z</time>
      </trkpt>
      <trkpt lat="46.12176" lon="5.62459">
        <ele>986.4</ele>
        <time>2026-05-10T10:14:53Z</time>
      </trkpt>
      <trkpt lat="46.12177" lon="5.62461">
        <ele>986.8</ele>
        <time>2026-05-10T10:14:54Z</time>
      </trkpt>
      <trkpt lat="46.12178" lon="5.62463">
        <ele>986.8</ele>
        <time>2026-05-10T10:14:55Z</time>
      </trkpt>
      <trkpt lat="46.1218" lon="5.62466">
        <ele>986.8</ele>
        <time>2026-05-10T10:14:56Z</time>
      </trkpt>
      <trkpt lat="46.12182" lon="5.62469">
        <ele>986.8</ele>
        <time>2026-05-10T10:14:57Z</time>
      </trkpt>
      <trkpt lat="46.12184" lon="5.62471">
        <ele>986.8</ele>
        <time>2026-05-10T10:14:58Z</time>
      </trkpt>
      <trkpt lat="46.12186" lon="5.62473">
        <ele>986.8</ele>
        <time>2026-05-10T10:14:59Z</time>
      </trkpt>
      <trkpt lat="46.12188" lon="5.62475">
        <ele>986.8</ele>
        <time>2026-05-10T10:15:00Z</time>
      </trkpt>
      <trkpt lat="46.1219" lon="5.62476">
        <ele>986.8</ele>
        <time>2026-05-10T10:15:01Z</time>
      </trkpt>
      <trkpt lat="46.12192" lon="5.62479">
        <ele>986.8</ele>
        <time>2026-05-10T10:15:02Z</time>
      </trkpt>
      <trkpt lat="46.12193" lon="5.62482">
        <ele>987</ele>
        <time>2026-05-10T10:15:03Z</time>
      </trkpt>
      <trkpt lat="46.12195" lon="5.62484">
        <ele>987</ele>
        <time>2026-05-10T10:15:04Z</time>
      </trkpt>
      <trkpt lat="46.12197" lon="5.62486">
        <ele>987</ele>
        <time>2026-05-10T10:15:05Z</time>
      </trkpt>
      <trkpt lat="46.12198" lon="5.62488">
        <ele>987</ele>
        <time>2026-05-10T10:15:06Z</time>
      </trkpt>
      <trkpt lat="46.12199" lon="5.62491">
        <ele>987</ele>
        <time>2026-05-10T10:15:07Z</time>
      </trkpt>
      <trkpt lat="46.12201" lon="5.62495">
        <ele>987.4</ele>
        <time>2026-05-10T10:15:08Z</time>
      </trkpt>
      <trkpt lat="46.12202" lon="5.62497">
        <ele>987.4</ele>
        <time>2026-05-10T10:15:09Z</time>
      </trkpt>
      <trkpt lat="46.12204" lon="5.62499">
        <ele>987.6</ele>
        <time>2026-05-10T10:15:10Z</time>
      </trkpt>
      <trkpt lat="46.12207" lon="5.62501">
        <ele>987.6</ele>
        <time>2026-05-10T10:15:11Z</time>
      </trkpt>
      <trkpt lat="46.12209" lon="5.62503">
        <ele>987.6</ele>
        <time>2026-05-10T10:15:12Z</time>
      </trkpt>
      <trkpt lat="46.12211" lon="5.62506">
        <ele>987.6</ele>
        <time>2026-05-10T10:15:13Z</time>
      </trkpt>
      <trkpt lat="46.12212" lon="5.62508">
        <ele>987.6</ele>
        <time>2026-05-10T10:15:14Z</time>
      </trkpt>
      <trkpt lat="46.12214" lon="5.6251">
        <ele>987.6</ele>
        <time>2026-05-10T10:15:15Z</time>
      </trkpt>
      <trkpt lat="46.12217" lon="5.62513">
        <ele>987.8</ele>
        <time>2026-05-10T10:15:16Z</time>
      </trkpt>
      <trkpt lat="46.12221" lon="5.62515">
        <ele>987.8</ele>
        <time>2026-05-10T10:15:17Z</time>
      </trkpt>
      <trkpt lat="46.12223" lon="5.62517">
        <ele>988.2</ele>
        <time>2026-05-10T10:15:18Z</time>
      </trkpt>
      <trkpt lat="46.12225" lon="5.62519">
        <ele>988.2</ele>
        <time>2026-05-10T10:15:19Z</time>
      </trkpt>
      <trkpt lat="46.12226" lon="5.62521">
        <ele>988.2</ele>
        <time>2026-05-10T10:15:20Z</time>
      </trkpt>
      <trkpt lat="46.12228" lon="5.62524">
        <ele>988.2</ele>
        <time>2026-05-10T10:15:21Z</time>
      </trkpt>
      <trkpt lat="46.12229" lon="5.62525">
        <ele>988.2</ele>
        <time>2026-05-10T10:15:22Z</time>
      </trkpt>
      <trkpt lat="46.1223" lon="5.62526">
        <ele>988.2</ele>
        <time>2026-05-10T10:15:23Z</time>
      </trkpt>
      <trkpt lat="46.12232" lon="5.62528">
        <ele>988</ele>
        <time>2026-05-10T10:15:24Z</time>
      </trkpt>
      <trkpt lat="46.12233" lon="5.62531">
        <ele>988</ele>
        <time>2026-05-10T10:15:25Z</time>
      </trkpt>
      <trkpt lat="46.12235" lon="5.62534">
        <ele>988.4</ele>
        <time>2026-05-10T10:15:26Z</time>
      </trkpt>
      <trkpt lat="46.12237" lon="5.62537">
        <ele>988.4</ele>
        <time>2026-05-10T10:15:27Z</time>
      </trkpt>
      <trkpt lat="46.12239" lon="5.62539">
        <ele>988.6</ele>
        <time>2026-05-10T10:15:28Z</time>
      </trkpt>
      <trkpt lat="46.1224" lon="5.62541">
        <ele>988.6</ele>
        <time>2026-05-10T10:15:29Z</time>
      </trkpt>
      <trkpt lat="46.12241" lon="5.62543">
        <ele>988.6</ele>
        <time>2026-05-10T10:15:30Z</time>
      </trkpt>
      <trkpt lat="46.12243" lon="5.62544">
        <ele>988.6</ele>
        <time>2026-05-10T10:15:31Z</time>
      </trkpt>
      <trkpt lat="46.12244" lon="5.62547">
        <ele>989</ele>
        <time>2026-05-10T10:15:32Z</time>
      </trkpt>
      <trkpt lat="46.12245" lon="5.62549">
        <ele>989</ele>
        <time>2026-05-10T10:15:33Z</time>
      </trkpt>
      <trkpt lat="46.12246" lon="5.62551">
        <ele>989</ele>
        <time>2026-05-10T10:15:34Z</time>
      </trkpt>
      <trkpt lat="46.12247" lon="5.62553">
        <ele>989.4</ele>
        <time>2026-05-10T10:15:35Z</time>
      </trkpt>
      <trkpt lat="46.12248" lon="5.62555">
        <ele>989.4</ele>
        <time>2026-05-10T10:15:36Z</time>
      </trkpt>
      <trkpt lat="46.1225" lon="5.62558">
        <ele>989.4</ele>
        <time>2026-05-10T10:15:37Z</time>
      </trkpt>
      <trkpt lat="46.12252" lon="5.6256">
        <ele>989.6</ele>
        <time>2026-05-10T10:15:38Z</time>
      </trkpt>
      <trkpt lat="46.12254" lon="5.62563">
        <ele>989.6</ele>
        <time>2026-05-10T10:15:39Z</time>
      </trkpt>
      <trkpt lat="46.12257" lon="5.62565">
        <ele>989.6</ele>
        <time>2026-05-10T10:15:40Z</time>
      </trkpt>
      <trkpt lat="46.1226" lon="5.62568">
        <ele>990</ele>
        <time>2026-05-10T10:15:41Z</time>
      </trkpt>
      <trkpt lat="46.12262" lon="5.62571">
        <ele>990</ele>
        <time>2026-05-10T10:15:42Z</time>
      </trkpt>
      <trkpt lat="46.12264" lon="5.62573">
        <ele>990.2</ele>
        <time>2026-05-10T10:15:43Z</time>
      </trkpt>
      <trkpt lat="46.12266" lon="5.62575">
        <ele>990.2</ele>
        <time>2026-05-10T10:15:44Z</time>
      </trkpt>
      <trkpt lat="46.12268" lon="5.62577">
        <ele>990.2</ele>
        <time>2026-05-10T10:15:45Z</time>
      </trkpt>
      <trkpt lat="46.12269" lon="5.62578">
        <ele>990.6</ele>
        <time>2026-05-10T10:15:46Z</time>
      </trkpt>
      <trkpt lat="46.1227" lon="5.62579">
        <ele>990.8</ele>
        <time>2026-05-10T10:15:47Z</time>
      </trkpt>
      <trkpt lat="46.12272" lon="5.62581">
        <ele>990.8</ele>
        <time>2026-05-10T10:15:48Z</time>
      </trkpt>
      <trkpt lat="46.12274" lon="5.62582">
        <ele>991</ele>
        <time>2026-05-10T10:15:49Z</time>
      </trkpt>
      <trkpt lat="46.12276" lon="5.62583">
        <ele>991</ele>
        <time>2026-05-10T10:15:50Z</time>
      </trkpt>
      <trkpt lat="46.12278" lon="5.62585">
        <ele>991.2</ele>
        <time>2026-05-10T10:15:51Z</time>
      </trkpt>
      <trkpt lat="46.1228" lon="5.62587">
        <ele>991.2</ele>
        <time>2026-05-10T10:15:52Z</time>
      </trkpt>
      <trkpt lat="46.12282" lon="5.62589">
        <ele>991.6</ele>
        <time>2026-05-10T10:15:53Z</time>
      </trkpt>
      <trkpt lat="46.12284" lon="5.62591">
        <ele>991.6</ele>
        <time>2026-05-10T10:15:54Z</time>
      </trkpt>
      <trkpt lat="46.12286" lon="5.62593">
        <ele>991.6</ele>
        <time>2026-05-10T10:15:55Z</time>
      </trkpt>
      <trkpt lat="46.12288" lon="5.62594">
        <ele>991.6</ele>
        <time>2026-05-10T10:15:56Z</time>
      </trkpt>
      <trkpt lat="46.12291" lon="5.62596">
        <ele>991.8</ele>
        <time>2026-05-10T10:15:57Z</time>
      </trkpt>
      <trkpt lat="46.12293" lon="5.62598">
        <ele>991.8</ele>
        <time>2026-05-10T10:15:58Z</time>
      </trkpt>
      <trkpt lat="46.12294" lon="5.62599">
        <ele>991.8</ele>
        <time>2026-05-10T10:15:59Z</time>
      </trkpt>
      <trkpt lat="46.12296" lon="5.62602">
        <ele>992</ele>
        <time>2026-05-10T10:16:00Z</time>
      </trkpt>
      <trkpt lat="46.12297" lon="5.62604">
        <ele>992</ele>
        <time>2026-05-10T10:16:01Z</time>
      </trkpt>
      <trkpt lat="46.12299" lon="5.62607">
        <ele>992.4</ele>
        <time>2026-05-10T10:16:02Z</time>
      </trkpt>
      <trkpt lat="46.123" lon="5.62609">
        <ele>992.4</ele>
        <time>2026-05-10T10:16:03Z</time>
      </trkpt>
      <trkpt lat="46.12302" lon="5.62611">
        <ele>992.8</ele>
        <time>2026-05-10T10:16:04Z</time>
      </trkpt>
      <trkpt lat="46.12303" lon="5.62613">
        <ele>992.8</ele>
        <time>2026-05-10T10:16:05Z</time>
      </trkpt>
      <trkpt lat="46.12304" lon="5.62615">
        <ele>992.8</ele>
        <time>2026-05-10T10:16:06Z</time>
      </trkpt>
      <trkpt lat="46.12305" lon="5.62617">
        <ele>992.8</ele>
        <time>2026-05-10T10:16:07Z</time>
      </trkpt>
      <trkpt lat="46.12307" lon="5.62619">
        <ele>993</ele>
        <time>2026-05-10T10:16:08Z</time>
      </trkpt>
      <trkpt lat="46.12309" lon="5.62621">
        <ele>993.2</ele>
        <time>2026-05-10T10:16:09Z</time>
      </trkpt>
      <trkpt lat="46.12311" lon="5.62623">
        <ele>993.2</ele>
        <time>2026-05-10T10:16:10Z</time>
      </trkpt>
      <trkpt lat="46.12313" lon="5.62625">
        <ele>993.2</ele>
        <time>2026-05-10T10:16:11Z</time>
      </trkpt>
      <trkpt lat="46.12315" lon="5.62628">
        <ele>993.4</ele>
        <time>2026-05-10T10:16:12Z</time>
      </trkpt>
      <trkpt lat="46.12318" lon="5.62631">
        <ele>993.4</ele>
        <time>2026-05-10T10:16:13Z</time>
      </trkpt>
      <trkpt lat="46.12321" lon="5.62634">
        <ele>993.4</ele>
        <time>2026-05-10T10:16:14Z</time>
      </trkpt>
      <trkpt lat="46.12323" lon="5.62636">
        <ele>993.8</ele>
        <time>2026-05-10T10:16:15Z</time>
      </trkpt>
      <trkpt lat="46.12325" lon="5.62638">
        <ele>993.8</ele>
        <time>2026-05-10T10:16:16Z</time>
      </trkpt>
      <trkpt lat="46.12326" lon="5.6264">
        <ele>993.8</ele>
        <time>2026-05-10T10:16:17Z</time>
      </trkpt>
      <trkpt lat="46.12328" lon="5.62642">
        <ele>994</ele>
        <time>2026-05-10T10:16:18Z</time>
      </trkpt>
      <trkpt lat="46.12329" lon="5.62645">
        <ele>994</ele>
        <time>2026-05-10T10:16:19Z</time>
      </trkpt>
      <trkpt lat="46.12329" lon="5.62647">
        <ele>994</ele>
        <time>2026-05-10T10:16:20Z</time>
      </trkpt>
      <trkpt lat="46.1233" lon="5.62648">
        <ele>994.2</ele>
        <time>2026-05-10T10:16:21Z</time>
      </trkpt>
      <trkpt lat="46.12331" lon="5.62651">
        <ele>994.2</ele>
        <time>2026-05-10T10:16:22Z</time>
      </trkpt>
      <trkpt lat="46.12333" lon="5.62653">
        <ele>994.2</ele>
        <time>2026-05-10T10:16:23Z</time>
      </trkpt>
      <trkpt lat="46.12335" lon="5.62655">
        <ele>994.2</ele>
        <time>2026-05-10T10:16:24Z</time>
      </trkpt>
      <trkpt lat="46.12337" lon="5.62656">
        <ele>994.6</ele>
        <time>2026-05-10T10:16:25Z</time>
      </trkpt>
      <trkpt lat="46.12339" lon="5.62659">
        <ele>994.6</ele>
        <time>2026-05-10T10:16:26Z</time>
      </trkpt>
      <trkpt lat="46.12341" lon="5.62661">
        <ele>994.2</ele>
        <time>2026-05-10T10:16:27Z</time>
      </trkpt>
      <trkpt lat="46.12344" lon="5.62664">
        <ele>994.2</ele>
        <time>2026-05-10T10:16:28Z</time>
      </trkpt>
      <trkpt lat="46.12345" lon="5.62665">
        <ele>994.8</ele>
        <time>2026-05-10T10:16:29Z</time>
      </trkpt>
      <trkpt lat="46.12347" lon="5.62667">
        <ele>994.8</ele>
        <time>2026-05-10T10:16:30Z</time>
      </trkpt>
      <trkpt lat="46.12349" lon="5.62668">
        <ele>995.2</ele>
        <time>2026-05-10T10:16:31Z</time>
      </trkpt>
      <trkpt lat="46.12351" lon="5.62669">
        <ele>995.2</ele>
        <time>2026-05-10T10:16:32Z</time>
      </trkpt>
      <trkpt lat="46.12353" lon="5.6267">
        <ele>995.6</ele>
        <time>2026-05-10T10:16:33Z</time>
      </trkpt>
      <trkpt lat="46.12355" lon="5.62671">
        <ele>995.6</ele>
        <time>2026-05-10T10:16:34Z</time>
      </trkpt>
      <trkpt lat="46.12357" lon="5.62673">
        <ele>995.6</ele>
        <time>2026-05-10T10:16:35Z</time>
      </trkpt>
      <trkpt lat="46.12359" lon="5.62676">
        <ele>996</ele>
        <time>2026-05-10T10:16:36Z</time>
      </trkpt>
      <trkpt lat="46.12361" lon="5.62677">
        <ele>996</ele>
        <time>2026-05-10T10:16:37Z</time>
      </trkpt>
      <trkpt lat="46.12363" lon="5.62679">
        <ele>996</ele>
        <time>2026-05-10T10:16:38Z</time>
      </trkpt>
      <trkpt lat="46.12365" lon="5.62681">
        <ele>996</ele>
        <time>2026-05-10T10:16:39Z</time>
      </trkpt>
      <trkpt lat="46.12367" lon="5.62683">
        <ele>996</ele>
        <time>2026-05-10T10:16:40Z</time>
      </trkpt>
      <trkpt lat="46.12369" lon="5.62685">
        <ele>996</ele>
        <time>2026-05-10T10:16:41Z</time>
      </trkpt>
      <trkpt lat="46.12371" lon="5.62687">
        <ele>996</ele>
        <time>2026-05-10T10:16:42Z</time>
      </trkpt>
      <trkpt lat="46.12373" lon="5.62689">
        <ele>996</ele>
        <time>2026-05-10T10:16:43Z</time>
      </trkpt>
      <trkpt lat="46.12375" lon="5.6269">
        <ele>996.4</ele>
        <time>2026-05-10T10:16:44Z</time>
      </trkpt>
      <trkpt lat="46.12377" lon="5.62692">
        <ele>997.2</ele>
        <time>2026-05-10T10:16:45Z</time>
      </trkpt>
      <trkpt lat="46.12379" lon="5.62694">
        <ele>997.2</ele>
        <time>2026-05-10T10:16:46Z</time>
      </trkpt>
      <trkpt lat="46.12381" lon="5.62696">
        <ele>997.2</ele>
        <time>2026-05-10T10:16:47Z</time>
      </trkpt>
      <trkpt lat="46.12383" lon="5.62699">
        <ele>997.6</ele>
        <time>2026-05-10T10:16:48Z</time>
      </trkpt>
      <trkpt lat="46.12385" lon="5.627">
        <ele>997.6</ele>
        <time>2026-05-10T10:16:49Z</time>
      </trkpt>
      <trkpt lat="46.12387" lon="5.62702">
        <ele>997.6</ele>
        <time>2026-05-10T10:16:50Z</time>
      </trkpt>
      <trkpt lat="46.12389" lon="5.62704">
        <ele>997.6</ele>
        <time>2026-05-10T10:16:51Z</time>
      </trkpt>
      <trkpt lat="46.12391" lon="5.62706">
        <ele>997.6</ele>
        <time>2026-05-10T10:16:52Z</time>
      </trkpt>
      <trkpt lat="46.12393" lon="5.62709">
        <ele>997.6</ele>
        <time>2026-05-10T10:16:53Z</time>
      </trkpt>
      <trkpt lat="46.12394" lon="5.6271">
        <ele>997.6</ele>
        <time>2026-05-10T10:16:54Z</time>
      </trkpt>
      <trkpt lat="46.12395" lon="5.62712">
        <ele>997.2</ele>
        <time>2026-05-10T10:16:55Z</time>
      </trkpt>
      <trkpt lat="46.12396" lon="5.62714">
        <ele>997.4</ele>
        <time>2026-05-10T10:16:56Z</time>
      </trkpt>
      <trkpt lat="46.12397" lon="5.62717">
        <ele>997.4</ele>
        <time>2026-05-10T10:16:57Z</time>
      </trkpt>
      <trkpt lat="46.12398" lon="5.62721">
        <ele>997.6</ele>
        <time>2026-05-10T10:16:58Z</time>
      </trkpt>
      <trkpt lat="46.124" lon="5.62724">
        <ele>997.6</ele>
        <time>2026-05-10T10:16:59Z</time>
      </trkpt>
      <trkpt lat="46.12401" lon="5.62727">
        <ele>997.6</ele>
        <time>2026-05-10T10:17:00Z</time>
      </trkpt>
      <trkpt lat="46.12403" lon="5.6273">
        <ele>998</ele>
        <time>2026-05-10T10:17:01Z</time>
      </trkpt>
      <trkpt lat="46.12404" lon="5.62733">
        <ele>998.2</ele>
        <time>2026-05-10T10:17:02Z</time>
      </trkpt>
      <trkpt lat="46.12405" lon="5.62736">
        <ele>998.2</ele>
        <time>2026-05-10T10:17:03Z</time>
      </trkpt>
      <trkpt lat="46.12407" lon="5.62742">
        <ele>998.6</ele>
        <time>2026-05-10T10:17:04Z</time>
      </trkpt>
      <trkpt lat="46.12407" lon="5.62744">
        <ele>998.6</ele>
        <time>2026-05-10T10:17:05Z</time>
      </trkpt>
      <trkpt lat="46.12408" lon="5.62748">
        <ele>999</ele>
        <time>2026-05-10T10:17:06Z</time>
      </trkpt>
      <trkpt lat="46.12409" lon="5.62751">
        <ele>999</ele>
        <time>2026-05-10T10:17:07Z</time>
      </trkpt>
      <trkpt lat="46.12409" lon="5.62753">
        <ele>999</ele>
        <time>2026-05-10T10:17:08Z</time>
      </trkpt>
      <trkpt lat="46.12409" lon="5.62756">
        <ele>999.4</ele>
        <time>2026-05-10T10:17:09Z</time>
      </trkpt>
      <trkpt lat="46.12409" lon="5.62758">
        <ele>999.4</ele>
        <time>2026-05-10T10:17:10Z</time>
      </trkpt>
      <trkpt lat="46.1241" lon="5.62761">
        <ele>999.6</ele>
        <time>2026-05-10T10:17:11Z</time>
      </trkpt>
      <trkpt lat="46.12411" lon="5.62763">
        <ele>999.6</ele>
        <time>2026-05-10T10:17:12Z</time>
      </trkpt>
      <trkpt lat="46.12412" lon="5.62765">
        <ele>1000</ele>
        <time>2026-05-10T10:17:13Z</time>
      </trkpt>
      <trkpt lat="46.12413" lon="5.62768">
        <ele>1000</ele>
        <time>2026-05-10T10:17:14Z</time>
      </trkpt>
      <trkpt lat="46.12414" lon="5.62771">
        <ele>1000</ele>
        <time>2026-05-10T10:17:15Z</time>
      </trkpt>
      <trkpt lat="46.12416" lon="5.62775">
        <ele>1000.2</ele>
        <time>2026-05-10T10:17:16Z</time>
      </trkpt>
      <trkpt lat="46.12417" lon="5.62778">
        <ele>1000.2</ele>
        <time>2026-05-10T10:17:17Z</time>
      </trkpt>
      <trkpt lat="46.12418" lon="5.62781">
        <ele>1000.6</ele>
        <time>2026-05-10T10:17:18Z</time>
      </trkpt>
      <trkpt lat="46.12419" lon="5.62783">
        <ele>1000.6</ele>
        <time>2026-05-10T10:17:19Z</time>
      </trkpt>
      <trkpt lat="46.1242" lon="5.62786">
        <ele>1000.6</ele>
        <time>2026-05-10T10:17:20Z</time>
      </trkpt>
      <trkpt lat="46.1242" lon="5.62788">
        <ele>1000.6</ele>
        <time>2026-05-10T10:17:21Z</time>
      </trkpt>
      <trkpt lat="46.1242" lon="5.6279">
        <ele>1000.6</ele>
        <time>2026-05-10T10:17:22Z</time>
      </trkpt>
      <trkpt lat="46.1242" lon="5.62793">
        <ele>1000.6</ele>
        <time>2026-05-10T10:17:23Z</time>
      </trkpt>
      <trkpt lat="46.12421" lon="5.62796">
        <ele>1001</ele>
        <time>2026-05-10T10:17:24Z</time>
      </trkpt>
      <trkpt lat="46.12421" lon="5.62799">
        <ele>1001.4</ele>
        <time>2026-05-10T10:17:25Z</time>
      </trkpt>
      <trkpt lat="46.12422" lon="5.62802">
        <ele>1001.4</ele>
        <time>2026-05-10T10:17:26Z</time>
      </trkpt>
      <trkpt lat="46.12424" lon="5.62806">
        <ele>1001.4</ele>
        <time>2026-05-10T10:17:27Z</time>
      </trkpt>
      <trkpt lat="46.12425" lon="5.6281">
        <ele>1001.4</ele>
        <time>2026-05-10T10:17:28Z</time>
      </trkpt>
      <trkpt lat="46.12426" lon="5.62813">
        <ele>1001.4</ele>
        <time>2026-05-10T10:17:29Z</time>
      </trkpt>
      <trkpt lat="46.12427" lon="5.62816">
        <ele>1001.4</ele>
        <time>2026-05-10T10:17:30Z</time>
      </trkpt>
      <trkpt lat="46.12428" lon="5.62819">
        <ele>1001.6</ele>
        <time>2026-05-10T10:17:31Z</time>
      </trkpt>
      <trkpt lat="46.12429" lon="5.62822">
        <ele>1001.6</ele>
        <time>2026-05-10T10:17:32Z</time>
      </trkpt>
      <trkpt lat="46.12429" lon="5.62825">
        <ele>1001.6</ele>
        <time>2026-05-10T10:17:33Z</time>
      </trkpt>
      <trkpt lat="46.12429" lon="5.62828">
        <ele>1001.6</ele>
        <time>2026-05-10T10:17:34Z</time>
      </trkpt>
      <trkpt lat="46.1243" lon="5.62831">
        <ele>1001.8</ele>
        <time>2026-05-10T10:17:35Z</time>
      </trkpt>
      <trkpt lat="46.12432" lon="5.62834">
        <ele>1001.8</ele>
        <time>2026-05-10T10:17:36Z</time>
      </trkpt>
      <trkpt lat="46.12434" lon="5.62837">
        <ele>1001.8</ele>
        <time>2026-05-10T10:17:37Z</time>
      </trkpt>
      <trkpt lat="46.12437" lon="5.62839">
        <ele>1002</ele>
        <time>2026-05-10T10:17:38Z</time>
      </trkpt>
      <trkpt lat="46.12438" lon="5.62842">
        <ele>1002</ele>
        <time>2026-05-10T10:17:39Z</time>
      </trkpt>
      <trkpt lat="46.12439" lon="5.62845">
        <ele>1002.4</ele>
        <time>2026-05-10T10:17:40Z</time>
      </trkpt>
      <trkpt lat="46.1244" lon="5.62848">
        <ele>1002.6</ele>
        <time>2026-05-10T10:17:41Z</time>
      </trkpt>
      <trkpt lat="46.12441" lon="5.62851">
        <ele>1002.6</ele>
        <time>2026-05-10T10:17:42Z</time>
      </trkpt>
      <trkpt lat="46.12441" lon="5.62853">
        <ele>1002.8</ele>
        <time>2026-05-10T10:17:43Z</time>
      </trkpt>
      <trkpt lat="46.12441" lon="5.62853">
        <ele>1002.8</ele>
        <time>2026-05-10T10:17:44Z</time>
      </trkpt>
      <trkpt lat="46.12442" lon="5.62856">
        <ele>1002.8</ele>
        <time>2026-05-10T10:17:45Z</time>
      </trkpt>
      <trkpt lat="46.12444" lon="5.62859">
        <ele>1003</ele>
        <time>2026-05-10T10:17:46Z</time>
      </trkpt>
      <trkpt lat="46.12445" lon="5.62862">
        <ele>1003</ele>
        <time>2026-05-10T10:17:47Z</time>
      </trkpt>
      <trkpt lat="46.12447" lon="5.62865">
        <ele>1003.2</ele>
        <time>2026-05-10T10:17:48Z</time>
      </trkpt>
      <trkpt lat="46.12449" lon="5.62868">
        <ele>1003.2</ele>
        <time>2026-05-10T10:17:49Z</time>
      </trkpt>
      <trkpt lat="46.12451" lon="5.6287">
        <ele>1003.2</ele>
        <time>2026-05-10T10:17:50Z</time>
      </trkpt>
      <trkpt lat="46.12452" lon="5.62871">
        <ele>1003.4</ele>
        <time>2026-05-10T10:17:51Z</time>
      </trkpt>
      <trkpt lat="46.12453" lon="5.62874">
        <ele>1003.4</ele>
        <time>2026-05-10T10:17:52Z</time>
      </trkpt>
      <trkpt lat="46.12453" lon="5.62876">
        <ele>1003.4</ele>
        <time>2026-05-10T10:17:53Z</time>
      </trkpt>
      <trkpt lat="46.12454" lon="5.62879">
        <ele>1003.8</ele>
        <time>2026-05-10T10:17:54Z</time>
      </trkpt>
      <trkpt lat="46.12455" lon="5.62882">
        <ele>1003.8</ele>
        <time>2026-05-10T10:17:55Z</time>
      </trkpt>
      <trkpt lat="46.12457" lon="5.62885">
        <ele>1004</ele>
        <time>2026-05-10T10:17:56Z</time>
      </trkpt>
      <trkpt lat="46.12458" lon="5.62889">
        <ele>1004</ele>
        <time>2026-05-10T10:17:57Z</time>
      </trkpt>
      <trkpt lat="46.12459" lon="5.62892">
        <ele>1004</ele>
        <time>2026-05-10T10:17:58Z</time>
      </trkpt>
      <trkpt lat="46.1246" lon="5.62896">
        <ele>1004.4</ele>
        <time>2026-05-10T10:17:59Z</time>
      </trkpt>
      <trkpt lat="46.1246" lon="5.62899">
        <ele>1004.4</ele>
        <time>2026-05-10T10:18:00Z</time>
      </trkpt>
      <trkpt lat="46.12461" lon="5.62903">
        <ele>1004.4</ele>
        <time>2026-05-10T10:18:01Z</time>
      </trkpt>
      <trkpt lat="46.12461" lon="5.62907">
        <ele>1004.4</ele>
        <time>2026-05-10T10:18:02Z</time>
      </trkpt>
      <trkpt lat="46.12462" lon="5.62911">
        <ele>1004.4</ele>
        <time>2026-05-10T10:18:03Z</time>
      </trkpt>
      <trkpt lat="46.12463" lon="5.62915">
        <ele>1004.4</ele>
        <time>2026-05-10T10:18:04Z</time>
      </trkpt>
      <trkpt lat="46.12463" lon="5.62919">
        <ele>1004.4</ele>
        <time>2026-05-10T10:18:05Z</time>
      </trkpt>
      <trkpt lat="46.12464" lon="5.62922">
        <ele>1004.4</ele>
        <time>2026-05-10T10:18:06Z</time>
      </trkpt>
      <trkpt lat="46.12464" lon="5.62926">
        <ele>1004.4</ele>
        <time>2026-05-10T10:18:07Z</time>
      </trkpt>
      <trkpt lat="46.12464" lon="5.62928">
        <ele>1004.4</ele>
        <time>2026-05-10T10:18:08Z</time>
      </trkpt>
      <trkpt lat="46.12464" lon="5.62931">
        <ele>1004.4</ele>
        <time>2026-05-10T10:18:09Z</time>
      </trkpt>
      <trkpt lat="46.12464" lon="5.62934">
        <ele>1004.4</ele>
        <time>2026-05-10T10:18:10Z</time>
      </trkpt>
      <trkpt lat="46.12464" lon="5.62938">
        <ele>1004.6</ele>
        <time>2026-05-10T10:18:11Z</time>
      </trkpt>
      <trkpt lat="46.12464" lon="5.62941">
        <ele>1004.6</ele>
        <time>2026-05-10T10:18:12Z</time>
      </trkpt>
      <trkpt lat="46.12464" lon="5.62945">
        <ele>1004.4</ele>
        <time>2026-05-10T10:18:13Z</time>
      </trkpt>
      <trkpt lat="46.12464" lon="5.62947">
        <ele>1004.8</ele>
        <time>2026-05-10T10:18:14Z</time>
      </trkpt>
      <trkpt lat="46.12464" lon="5.62951">
        <ele>1004.8</ele>
        <time>2026-05-10T10:18:15Z</time>
      </trkpt>
      <trkpt lat="46.12465" lon="5.62954">
        <ele>1005</ele>
        <time>2026-05-10T10:18:16Z</time>
      </trkpt>
      <trkpt lat="46.12464" lon="5.62956">
        <ele>1005</ele>
        <time>2026-05-10T10:18:17Z</time>
      </trkpt>
      <trkpt lat="46.12465" lon="5.62958">
        <ele>1005</ele>
        <time>2026-05-10T10:18:18Z</time>
      </trkpt>
      <trkpt lat="46.12465" lon="5.62961">
        <ele>1005.4</ele>
        <time>2026-05-10T10:18:19Z</time>
      </trkpt>
      <trkpt lat="46.12466" lon="5.62964">
        <ele>1005.4</ele>
        <time>2026-05-10T10:18:20Z</time>
      </trkpt>
      <trkpt lat="46.12467" lon="5.62967">
        <ele>1005.6</ele>
        <time>2026-05-10T10:18:21Z</time>
      </trkpt>
      <trkpt lat="46.12467" lon="5.6297">
        <ele>1005.8</ele>
        <time>2026-05-10T10:18:22Z</time>
      </trkpt>
      <trkpt lat="46.12467" lon="5.62972">
        <ele>1005.8</ele>
        <time>2026-05-10T10:18:23Z</time>
      </trkpt>
      <trkpt lat="46.12468" lon="5.62975">
        <ele>1005.8</ele>
        <time>2026-05-10T10:18:24Z</time>
      </trkpt>
      <trkpt lat="46.12469" lon="5.62978">
        <ele>1005.8</ele>
        <time>2026-05-10T10:18:25Z</time>
      </trkpt>
      <trkpt lat="46.12469" lon="5.62981">
        <ele>1006.2</ele>
        <time>2026-05-10T10:18:26Z</time>
      </trkpt>
      <trkpt lat="46.1247" lon="5.62984">
        <ele>1006.2</ele>
        <time>2026-05-10T10:18:27Z</time>
      </trkpt>
      <trkpt lat="46.12471" lon="5.62987">
        <ele>1006.2</ele>
        <time>2026-05-10T10:18:28Z</time>
      </trkpt>
      <trkpt lat="46.12471" lon="5.62991">
        <ele>1006.6</ele>
        <time>2026-05-10T10:18:29Z</time>
      </trkpt>
      <trkpt lat="46.12472" lon="5.62994">
        <ele>1006.6</ele>
        <time>2026-05-10T10:18:30Z</time>
      </trkpt>
      <trkpt lat="46.12473" lon="5.62997">
        <ele>1006.6</ele>
        <time>2026-05-10T10:18:31Z</time>
      </trkpt>
      <trkpt lat="46.12473" lon="5.63">
        <ele>1006.6</ele>
        <time>2026-05-10T10:18:32Z</time>
      </trkpt>
      <trkpt lat="46.12474" lon="5.63004">
        <ele>1006.6</ele>
        <time>2026-05-10T10:18:33Z</time>
      </trkpt>
      <trkpt lat="46.12475" lon="5.63007">
        <ele>1006.8</ele>
        <time>2026-05-10T10:18:34Z</time>
      </trkpt>
      <trkpt lat="46.12475" lon="5.63009">
        <ele>1006.8</ele>
        <time>2026-05-10T10:18:35Z</time>
      </trkpt>
      <trkpt lat="46.12475" lon="5.63012">
        <ele>1007.2</ele>
        <time>2026-05-10T10:18:36Z</time>
      </trkpt>
      <trkpt lat="46.12476" lon="5.63014">
        <ele>1007.2</ele>
        <time>2026-05-10T10:18:37Z</time>
      </trkpt>
      <trkpt lat="46.12476" lon="5.63017">
        <ele>1007.2</ele>
        <time>2026-05-10T10:18:38Z</time>
      </trkpt>
      <trkpt lat="46.12477" lon="5.6302">
        <ele>1007.2</ele>
        <time>2026-05-10T10:18:39Z</time>
      </trkpt>
      <trkpt lat="46.12477" lon="5.63023">
        <ele>1007.2</ele>
        <time>2026-05-10T10:18:40Z</time>
      </trkpt>
      <trkpt lat="46.12477" lon="5.63026">
        <ele>1007.4</ele>
        <time>2026-05-10T10:18:41Z</time>
      </trkpt>
      <trkpt lat="46.12477" lon="5.63028">
        <ele>1007.4</ele>
        <time>2026-05-10T10:18:42Z</time>
      </trkpt>
      <trkpt lat="46.12479" lon="5.63032">
        <ele>1007.4</ele>
        <time>2026-05-10T10:18:43Z</time>
      </trkpt>
      <trkpt lat="46.1248" lon="5.63034">
        <ele>1007.4</ele>
        <time>2026-05-10T10:18:44Z</time>
      </trkpt>
      <trkpt lat="46.12481" lon="5.63037">
        <ele>1007.8</ele>
        <time>2026-05-10T10:18:45Z</time>
      </trkpt>
      <trkpt lat="46.12481" lon="5.63041">
        <ele>1007.8</ele>
        <time>2026-05-10T10:18:46Z</time>
      </trkpt>
      <trkpt lat="46.12481" lon="5.63046">
        <ele>1007.8</ele>
        <time>2026-05-10T10:18:47Z</time>
      </trkpt>
      <trkpt lat="46.12482" lon="5.6305">
        <ele>1007.8</ele>
        <time>2026-05-10T10:18:48Z</time>
      </trkpt>
      <trkpt lat="46.12483" lon="5.63054">
        <ele>1008</ele>
        <time>2026-05-10T10:18:49Z</time>
      </trkpt>
      <trkpt lat="46.12483" lon="5.63057">
        <ele>1008</ele>
        <time>2026-05-10T10:18:50Z</time>
      </trkpt>
      <trkpt lat="46.12484" lon="5.63061">
        <ele>1008</ele>
        <time>2026-05-10T10:18:51Z</time>
      </trkpt>
      <trkpt lat="46.12485" lon="5.63066">
        <ele>1008.2</ele>
        <time>2026-05-10T10:18:52Z</time>
      </trkpt>
      <trkpt lat="46.12485" lon="5.6307">
        <ele>1008.2</ele>
        <time>2026-05-10T10:18:53Z</time>
      </trkpt>
      <trkpt lat="46.12486" lon="5.63074">
        <ele>1008.2</ele>
        <time>2026-05-10T10:18:54Z</time>
      </trkpt>
      <trkpt lat="46.12486" lon="5.63078">
        <ele>1008.2</ele>
        <time>2026-05-10T10:18:55Z</time>
      </trkpt>
      <trkpt lat="46.12486" lon="5.63082">
        <ele>1008.2</ele>
        <time>2026-05-10T10:18:56Z</time>
      </trkpt>
      <trkpt lat="46.12486" lon="5.63086">
        <ele>1008.8</ele>
        <time>2026-05-10T10:18:57Z</time>
      </trkpt>
      <trkpt lat="46.12486" lon="5.6309">
        <ele>1008.8</ele>
        <time>2026-05-10T10:18:58Z</time>
      </trkpt>
      <trkpt lat="46.12485" lon="5.63094">
        <ele>1008.6</ele>
        <time>2026-05-10T10:18:59Z</time>
      </trkpt>
      <trkpt lat="46.12485" lon="5.63098">
        <ele>1008.6</ele>
        <time>2026-05-10T10:19:00Z</time>
      </trkpt>
      <trkpt lat="46.12485" lon="5.63101">
        <ele>1008.6</ele>
        <time>2026-05-10T10:19:01Z</time>
      </trkpt>
      <trkpt lat="46.12485" lon="5.63104">
        <ele>1008.4</ele>
        <time>2026-05-10T10:19:02Z</time>
      </trkpt>
      <trkpt lat="46.12484" lon="5.63108">
        <ele>1008.4</ele>
        <time>2026-05-10T10:19:03Z</time>
      </trkpt>
      <trkpt lat="46.12484" lon="5.63112">
        <ele>1008.4</ele>
        <time>2026-05-10T10:19:04Z</time>
      </trkpt>
      <trkpt lat="46.12484" lon="5.63116">
        <ele>1008.8</ele>
        <time>2026-05-10T10:19:05Z</time>
      </trkpt>
      <trkpt lat="46.12485" lon="5.6312">
        <ele>1009.2</ele>
        <time>2026-05-10T10:19:06Z</time>
      </trkpt>
      <trkpt lat="46.12485" lon="5.63123">
        <ele>1009.2</ele>
        <time>2026-05-10T10:19:07Z</time>
      </trkpt>
      <trkpt lat="46.12485" lon="5.63127">
        <ele>1009.2</ele>
        <time>2026-05-10T10:19:08Z</time>
      </trkpt>
      <trkpt lat="46.12485" lon="5.63131">
        <ele>1009.4</ele>
        <time>2026-05-10T10:19:09Z</time>
      </trkpt>
      <trkpt lat="46.12486" lon="5.63134">
        <ele>1009.4</ele>
        <time>2026-05-10T10:19:10Z</time>
      </trkpt>
      <trkpt lat="46.12485" lon="5.63138">
        <ele>1009.4</ele>
        <time>2026-05-10T10:19:11Z</time>
      </trkpt>
      <trkpt lat="46.12485" lon="5.63141">
        <ele>1009.8</ele>
        <time>2026-05-10T10:19:12Z</time>
      </trkpt>
      <trkpt lat="46.12485" lon="5.63144">
        <ele>1009.8</ele>
        <time>2026-05-10T10:19:13Z</time>
      </trkpt>
      <trkpt lat="46.12485" lon="5.63148">
        <ele>1009.8</ele>
        <time>2026-05-10T10:19:14Z</time>
      </trkpt>
      <trkpt lat="46.12485" lon="5.63151">
        <ele>1010.2</ele>
        <time>2026-05-10T10:19:15Z</time>
      </trkpt>
      <trkpt lat="46.12485" lon="5.63155">
        <ele>1010.4</ele>
        <time>2026-05-10T10:19:16Z</time>
      </trkpt>
      <trkpt lat="46.12485" lon="5.63159">
        <ele>1010.4</ele>
        <time>2026-05-10T10:19:17Z</time>
      </trkpt>
      <trkpt lat="46.12486" lon="5.63162">
        <ele>1010.4</ele>
        <time>2026-05-10T10:19:18Z</time>
      </trkpt>
      <trkpt lat="46.12486" lon="5.63166">
        <ele>1010.4</ele>
        <time>2026-05-10T10:19:19Z</time>
      </trkpt>
      <trkpt lat="46.12485" lon="5.6317">
        <ele>1010.4</ele>
        <time>2026-05-10T10:19:20Z</time>
      </trkpt>
      <trkpt lat="46.12485" lon="5.63173">
        <ele>1010.8</ele>
        <time>2026-05-10T10:19:21Z</time>
      </trkpt>
      <trkpt lat="46.12484" lon="5.63177">
        <ele>1010.8</ele>
        <time>2026-05-10T10:19:22Z</time>
      </trkpt>
      <trkpt lat="46.12484" lon="5.63177">
        <ele>1010.8</ele>
        <time>2026-05-10T10:19:23Z</time>
      </trkpt>
      <trkpt lat="46.12482" lon="5.63187">
        <ele>1010.8</ele>
        <time>2026-05-10T10:19:24Z</time>
      </trkpt>
      <trkpt lat="46.12482" lon="5.6319">
        <ele>1011</ele>
        <time>2026-05-10T10:19:25Z</time>
      </trkpt>
      <trkpt lat="46.12481" lon="5.63193">
        <ele>1011</ele>
        <time>2026-05-10T10:19:26Z</time>
      </trkpt>
      <trkpt lat="46.12481" lon="5.63195">
        <ele>1011</ele>
        <time>2026-05-10T10:19:27Z</time>
      </trkpt>
      <trkpt lat="46.1248" lon="5.63197">
        <ele>1011</ele>
        <time>2026-05-10T10:19:28Z</time>
      </trkpt>
      <trkpt lat="46.12478" lon="5.63199">
        <ele>1011</ele>
        <time>2026-05-10T10:19:29Z</time>
      </trkpt>
      <trkpt lat="46.12477" lon="5.63202">
        <ele>1011</ele>
        <time>2026-05-10T10:19:30Z</time>
      </trkpt>
      <trkpt lat="46.12476" lon="5.63205">
        <ele>1011</ele>
        <time>2026-05-10T10:19:31Z</time>
      </trkpt>
      <trkpt lat="46.12475" lon="5.63209">
        <ele>1010.8</ele>
        <time>2026-05-10T10:19:32Z</time>
      </trkpt>
      <trkpt lat="46.12474" lon="5.63212">
        <ele>1010.8</ele>
        <time>2026-05-10T10:19:33Z</time>
      </trkpt>
      <trkpt lat="46.12474" lon="5.63216">
        <ele>1010.8</ele>
        <time>2026-05-10T10:19:34Z</time>
      </trkpt>
      <trkpt lat="46.12473" lon="5.6322">
        <ele>1010.6</ele>
        <time>2026-05-10T10:19:35Z</time>
      </trkpt>
      <trkpt lat="46.12474" lon="5.63223">
        <ele>1010.8</ele>
        <time>2026-05-10T10:19:36Z</time>
      </trkpt>
      <trkpt lat="46.12474" lon="5.63226">
        <ele>1010.8</ele>
        <time>2026-05-10T10:19:37Z</time>
      </trkpt>
      <trkpt lat="46.12474" lon="5.63229">
        <ele>1010.8</ele>
        <time>2026-05-10T10:19:38Z</time>
      </trkpt>
      <trkpt lat="46.12474" lon="5.63229">
        <ele>1010.8</ele>
        <time>2026-05-10T10:19:39Z</time>
      </trkpt>
      <trkpt lat="46.12473" lon="5.63233">
        <ele>1010.4</ele>
        <time>2026-05-10T10:19:40Z</time>
      </trkpt>
      <trkpt lat="46.12472" lon="5.63238">
        <ele>1010</ele>
        <time>2026-05-10T10:19:41Z</time>
      </trkpt>
      <trkpt lat="46.12472" lon="5.63242">
        <ele>1010</ele>
        <time>2026-05-10T10:19:42Z</time>
      </trkpt>
      <trkpt lat="46.12473" lon="5.63245">
        <ele>1009.6</ele>
        <time>2026-05-10T10:19:43Z</time>
      </trkpt>
      <trkpt lat="46.12473" lon="5.6325">
        <ele>1009.2</ele>
        <time>2026-05-10T10:19:44Z</time>
      </trkpt>
      <trkpt lat="46.12473" lon="5.63254">
        <ele>1009</ele>
        <time>2026-05-10T10:19:45Z</time>
      </trkpt>
      <trkpt lat="46.12473" lon="5.63259">
        <ele>1008.6</ele>
        <time>2026-05-10T10:19:46Z</time>
      </trkpt>
      <trkpt lat="46.12473" lon="5.63264">
        <ele>1008.8</ele>
        <time>2026-05-10T10:19:47Z</time>
      </trkpt>
      <trkpt lat="46.12472" lon="5.63269">
        <ele>1008.8</ele>
        <time>2026-05-10T10:19:48Z</time>
      </trkpt>
      <trkpt lat="46.12471" lon="5.63281">
        <ele>1008.2</ele>
        <time>2026-05-10T10:19:49Z</time>
      </trkpt>
      <trkpt lat="46.12469" lon="5.63286">
        <ele>1007.8</ele>
        <time>2026-05-10T10:19:50Z</time>
      </trkpt>
      <trkpt lat="46.12469" lon="5.63292">
        <ele>1007.8</ele>
        <time>2026-05-10T10:19:51Z</time>
      </trkpt>
      <trkpt lat="46.12469" lon="5.63294">
        <ele>1007</ele>
        <time>2026-05-10T10:19:52Z</time>
      </trkpt>
      <trkpt lat="46.12468" lon="5.63299">
        <ele>1007</ele>
        <time>2026-05-10T10:19:53Z</time>
      </trkpt>
      <trkpt lat="46.12467" lon="5.63306">
        <ele>1006.8</ele>
        <time>2026-05-10T10:19:54Z</time>
      </trkpt>
      <trkpt lat="46.12466" lon="5.63313">
        <ele>1006.8</ele>
        <time>2026-05-10T10:19:55Z</time>
      </trkpt>
      <trkpt lat="46.12466" lon="5.63324">
        <ele>1006.2</ele>
        <time>2026-05-10T10:19:56Z</time>
      </trkpt>
      <trkpt lat="46.12465" lon="5.6333">
        <ele>1006.2</ele>
        <time>2026-05-10T10:19:57Z</time>
      </trkpt>
      <trkpt lat="46.12465" lon="5.63339">
        <ele>1005.6</ele>
        <time>2026-05-10T10:19:58Z</time>
      </trkpt>
      <trkpt lat="46.12464" lon="5.63348">
        <ele>1005.8</ele>
        <time>2026-05-10T10:19:59Z</time>
      </trkpt>
      <trkpt lat="46.12464" lon="5.63348">
        <ele>1005.4</ele>
        <time>2026-05-10T10:20:00Z</time>
      </trkpt>
      <trkpt lat="46.12465" lon="5.63373">
        <ele>1005</ele>
        <time>2026-05-10T10:20:01Z</time>
      </trkpt>
      <trkpt lat="46.12465" lon="5.6338">
        <ele>1005</ele>
        <time>2026-05-10T10:20:02Z</time>
      </trkpt>
      <trkpt lat="46.12466" lon="5.63388">
        <ele>1005.2</ele>
        <time>2026-05-10T10:20:03Z</time>
      </trkpt>
      <trkpt lat="46.12466" lon="5.63396">
        <ele>1005.2</ele>
        <time>2026-05-10T10:20:04Z</time>
      </trkpt>
      <trkpt lat="46.12467" lon="5.63403">
        <ele>1005</ele>
        <time>2026-05-10T10:20:05Z</time>
      </trkpt>
      <trkpt lat="46.12469" lon="5.63411">
        <ele>1005</ele>
        <time>2026-05-10T10:20:06Z</time>
      </trkpt>
      <trkpt lat="46.1247" lon="5.63419">
        <ele>1004.6</ele>
        <time>2026-05-10T10:20:07Z</time>
      </trkpt>
      <trkpt lat="46.12472" lon="5.63426">
        <ele>1004.6</ele>
        <time>2026-05-10T10:20:08Z</time>
      </trkpt>
      <trkpt lat="46.12475" lon="5.63432">
        <ele>1004.4</ele>
        <time>2026-05-10T10:20:09Z</time>
      </trkpt>
      <trkpt lat="46.12476" lon="5.63439">
        <ele>1004.4</ele>
        <time>2026-05-10T10:20:10Z</time>
      </trkpt>
      <trkpt lat="46.12476" lon="5.63439">
        <ele>1004.4</ele>
        <time>2026-05-10T10:20:11Z</time>
      </trkpt>
      <trkpt lat="46.12477" lon="5.63446">
        <ele>1004.2</ele>
        <time>2026-05-10T10:20:12Z</time>
      </trkpt>
      <trkpt lat="46.12479" lon="5.63453">
        <ele>1004.4</ele>
        <time>2026-05-10T10:20:13Z</time>
      </trkpt>
      <trkpt lat="46.1248" lon="5.6346">
        <ele>1004.4</ele>
        <time>2026-05-10T10:20:14Z</time>
      </trkpt>
      <trkpt lat="46.12483" lon="5.63466">
        <ele>1004.2</ele>
        <time>2026-05-10T10:20:15Z</time>
      </trkpt>
      <trkpt lat="46.12485" lon="5.63472">
        <ele>1004</ele>
        <time>2026-05-10T10:20:16Z</time>
      </trkpt>
      <trkpt lat="46.12488" lon="5.63478">
        <ele>1003.4</ele>
        <time>2026-05-10T10:20:17Z</time>
      </trkpt>
      <trkpt lat="46.12491" lon="5.63483">
        <ele>1003.4</ele>
        <time>2026-05-10T10:20:18Z</time>
      </trkpt>
      <trkpt lat="46.12494" lon="5.63489">
        <ele>1003.4</ele>
        <time>2026-05-10T10:20:19Z</time>
      </trkpt>
      <trkpt lat="46.12497" lon="5.63494">
        <ele>1003.4</ele>
        <time>2026-05-10T10:20:20Z</time>
      </trkpt>
      <trkpt lat="46.12499" lon="5.635">
        <ele>1002.8</ele>
        <time>2026-05-10T10:20:21Z</time>
      </trkpt>
      <trkpt lat="46.12503" lon="5.63505">
        <ele>1002.8</ele>
        <time>2026-05-10T10:20:22Z</time>
      </trkpt>
      <trkpt lat="46.12506" lon="5.6351">
        <ele>1002.8</ele>
        <time>2026-05-10T10:20:23Z</time>
      </trkpt>
      <trkpt lat="46.12508" lon="5.63516">
        <ele>1002.8</ele>
        <time>2026-05-10T10:20:24Z</time>
      </trkpt>
      <trkpt lat="46.12511" lon="5.63521">
        <ele>1002.2</ele>
        <time>2026-05-10T10:20:25Z</time>
      </trkpt>
      <trkpt lat="46.12513" lon="5.63527">
        <ele>1002</ele>
        <time>2026-05-10T10:20:26Z</time>
      </trkpt>
      <trkpt lat="46.12516" lon="5.63532">
        <ele>1001.8</ele>
        <time>2026-05-10T10:20:27Z</time>
      </trkpt>
      <trkpt lat="46.12519" lon="5.63536">
        <ele>1002.4</ele>
        <time>2026-05-10T10:20:28Z</time>
      </trkpt>
      <trkpt lat="46.12522" lon="5.63538">
        <ele>1002</ele>
        <time>2026-05-10T10:20:29Z</time>
      </trkpt>
      <trkpt lat="46.12525" lon="5.63545">
        <ele>1002.2</ele>
        <time>2026-05-10T10:20:30Z</time>
      </trkpt>
      <trkpt lat="46.12529" lon="5.63549">
        <ele>1001.8</ele>
        <time>2026-05-10T10:20:31Z</time>
      </trkpt>
      <trkpt lat="46.12532" lon="5.63554">
        <ele>1001.6</ele>
        <time>2026-05-10T10:20:32Z</time>
      </trkpt>
      <trkpt lat="46.12536" lon="5.63559">
        <ele>1001.6</ele>
        <time>2026-05-10T10:20:33Z</time>
      </trkpt>
      <trkpt lat="46.1254" lon="5.63564">
        <ele>1000</ele>
        <time>2026-05-10T10:20:34Z</time>
      </trkpt>
      <trkpt lat="46.12544" lon="5.63568">
        <ele>999</ele>
        <time>2026-05-10T10:20:35Z</time>
      </trkpt>
      <trkpt lat="46.12549" lon="5.63575">
        <ele>997.2</ele>
        <time>2026-05-10T10:20:36Z</time>
      </trkpt>
      <trkpt lat="46.12553" lon="5.63579">
        <ele>997.6</ele>
        <time>2026-05-10T10:20:37Z</time>
      </trkpt>
      <trkpt lat="46.12559" lon="5.63584">
        <ele>997.2</ele>
        <time>2026-05-10T10:20:38Z</time>
      </trkpt>
      <trkpt lat="46.12565" lon="5.63592">
        <ele>996.2</ele>
        <time>2026-05-10T10:20:39Z</time>
      </trkpt>
      <trkpt lat="46.12571" lon="5.63599">
        <ele>995.8</ele>
        <time>2026-05-10T10:20:40Z</time>
      </trkpt>
      <trkpt lat="46.12577" lon="5.63606">
        <ele>995.4</ele>
        <time>2026-05-10T10:20:41Z</time>
      </trkpt>
      <trkpt lat="46.12582" lon="5.63614">
        <ele>994.6</ele>
        <time>2026-05-10T10:20:42Z</time>
      </trkpt>
      <trkpt lat="46.12588" lon="5.63622">
        <ele>994.2</ele>
        <time>2026-05-10T10:20:43Z</time>
      </trkpt>
      <trkpt lat="46.12593" lon="5.6363">
        <ele>992.6</ele>
        <time>2026-05-10T10:20:44Z</time>
      </trkpt>
      <trkpt lat="46.12597" lon="5.63638">
        <ele>992.2</ele>
        <time>2026-05-10T10:20:45Z</time>
      </trkpt>
      <trkpt lat="46.12601" lon="5.63646">
        <ele>991.4</ele>
        <time>2026-05-10T10:20:46Z</time>
      </trkpt>
      <trkpt lat="46.12606" lon="5.63654">
        <ele>991.4</ele>
        <time>2026-05-10T10:20:47Z</time>
      </trkpt>
      <trkpt lat="46.1261" lon="5.63661">
        <ele>991.4</ele>
        <time>2026-05-10T10:20:48Z</time>
      </trkpt>
      <trkpt lat="46.12615" lon="5.63667">
        <ele>990.6</ele>
        <time>2026-05-10T10:20:49Z</time>
      </trkpt>
      <trkpt lat="46.12619" lon="5.63673">
        <ele>990.4</ele>
        <time>2026-05-10T10:20:50Z</time>
      </trkpt>
      <trkpt lat="46.12622" lon="5.6368">
        <ele>990.4</ele>
        <time>2026-05-10T10:20:51Z</time>
      </trkpt>
      <trkpt lat="46.12624" lon="5.63686">
        <ele>990</ele>
        <time>2026-05-10T10:20:52Z</time>
      </trkpt>
      <trkpt lat="46.12627" lon="5.6369">
        <ele>990</ele>
        <time>2026-05-10T10:20:53Z</time>
      </trkpt>
      <trkpt lat="46.12629" lon="5.63692">
        <ele>989.8</ele>
        <time>2026-05-10T10:20:54Z</time>
      </trkpt>
      <trkpt lat="46.1263" lon="5.63692">
        <ele>989.8</ele>
        <time>2026-05-10T10:20:55Z</time>
      </trkpt>
      <trkpt lat="46.12632" lon="5.63693">
        <ele>989.4</ele>
        <time>2026-05-10T10:20:56Z</time>
      </trkpt>
      <trkpt lat="46.12634" lon="5.63695">
        <ele>989.4</ele>
        <time>2026-05-10T10:20:57Z</time>
      </trkpt>
      <trkpt lat="46.12636" lon="5.63697">
        <ele>989.2</ele>
        <time>2026-05-10T10:20:58Z</time>
      </trkpt>
      <trkpt lat="46.12639" lon="5.637">
        <ele>989</ele>
        <time>2026-05-10T10:20:59Z</time>
      </trkpt>
      <trkpt lat="46.12643" lon="5.63703">
        <ele>989</ele>
        <time>2026-05-10T10:21:00Z</time>
      </trkpt>
      <trkpt lat="46.12646" lon="5.63707">
        <ele>988.4</ele>
        <time>2026-05-10T10:21:01Z</time>
      </trkpt>
      <trkpt lat="46.1265" lon="5.63711">
        <ele>988</ele>
        <time>2026-05-10T10:21:02Z</time>
      </trkpt>
      <trkpt lat="46.12655" lon="5.63715">
        <ele>987.6</ele>
        <time>2026-05-10T10:21:03Z</time>
      </trkpt>
      <trkpt lat="46.1266" lon="5.6372">
        <ele>987.6</ele>
        <time>2026-05-10T10:21:04Z</time>
      </trkpt>
      <trkpt lat="46.12665" lon="5.63724">
        <ele>987.2</ele>
        <time>2026-05-10T10:21:05Z</time>
      </trkpt>
      <trkpt lat="46.12671" lon="5.63729">
        <ele>987</ele>
        <time>2026-05-10T10:21:06Z</time>
      </trkpt>
      <trkpt lat="46.12676" lon="5.63733">
        <ele>986.8</ele>
        <time>2026-05-10T10:21:07Z</time>
      </trkpt>
      <trkpt lat="46.12681" lon="5.63738">
        <ele>986.8</ele>
        <time>2026-05-10T10:21:08Z</time>
      </trkpt>
      <trkpt lat="46.12686" lon="5.63743">
        <ele>986.2</ele>
        <time>2026-05-10T10:21:09Z</time>
      </trkpt>
      <trkpt lat="46.12691" lon="5.63747">
        <ele>986</ele>
        <time>2026-05-10T10:21:10Z</time>
      </trkpt>
      <trkpt lat="46.12696" lon="5.63752">
        <ele>986</ele>
        <time>2026-05-10T10:21:11Z</time>
      </trkpt>
      <trkpt lat="46.127" lon="5.63757">
        <ele>985.8</ele>
        <time>2026-05-10T10:21:12Z</time>
      </trkpt>
      <trkpt lat="46.12703" lon="5.63764">
        <ele>985.6</ele>
        <time>2026-05-10T10:21:13Z</time>
      </trkpt>
      <trkpt lat="46.12704" lon="5.63772">
        <ele>985.6</ele>
        <time>2026-05-10T10:21:14Z</time>
      </trkpt>
      <trkpt lat="46.12705" lon="5.63778">
        <ele>985.8</ele>
        <time>2026-05-10T10:21:15Z</time>
      </trkpt>
      <trkpt lat="46.12705" lon="5.63783">
        <ele>986.2</ele>
        <time>2026-05-10T10:21:16Z</time>
      </trkpt>
      <trkpt lat="46.12707" lon="5.63786">
        <ele>986.2</ele>
        <time>2026-05-10T10:21:17Z</time>
      </trkpt>
      <trkpt lat="46.12708" lon="5.63788">
        <ele>986.6</ele>
        <time>2026-05-10T10:21:18Z</time>
      </trkpt>
      <trkpt lat="46.12711" lon="5.63789">
        <ele>986.6</ele>
        <time>2026-05-10T10:21:19Z</time>
      </trkpt>
      <trkpt lat="46.12713" lon="5.63789">
        <ele>987</ele>
        <time>2026-05-10T10:21:20Z</time>
      </trkpt>
      <trkpt lat="46.12715" lon="5.63791">
        <ele>987</ele>
        <time>2026-05-10T10:21:21Z</time>
      </trkpt>
      <trkpt lat="46.12718" lon="5.63791">
        <ele>987</ele>
        <time>2026-05-10T10:21:22Z</time>
      </trkpt>
      <trkpt lat="46.12721" lon="5.63793">
        <ele>987</ele>
        <time>2026-05-10T10:21:23Z</time>
      </trkpt>
      <trkpt lat="46.12724" lon="5.63795">
        <ele>986.6</ele>
        <time>2026-05-10T10:21:24Z</time>
      </trkpt>
      <trkpt lat="46.12728" lon="5.63796">
        <ele>986.2</ele>
        <time>2026-05-10T10:21:25Z</time>
      </trkpt>
      <trkpt lat="46.12732" lon="5.63797">
        <ele>986.2</ele>
        <time>2026-05-10T10:21:26Z</time>
      </trkpt>
      <trkpt lat="46.12736" lon="5.63798">
        <ele>986.2</ele>
        <time>2026-05-10T10:21:27Z</time>
      </trkpt>
      <trkpt lat="46.1274" lon="5.63799">
        <ele>986</ele>
        <time>2026-05-10T10:21:28Z</time>
      </trkpt>
      <trkpt lat="46.12743" lon="5.63801">
        <ele>986</ele>
        <time>2026-05-10T10:21:29Z</time>
      </trkpt>
      <trkpt lat="46.12747" lon="5.63802">
        <ele>985.8</ele>
        <time>2026-05-10T10:21:30Z</time>
      </trkpt>
      <trkpt lat="46.12751" lon="5.63803">
        <ele>985.4</ele>
        <time>2026-05-10T10:21:31Z</time>
      </trkpt>
      <trkpt lat="46.12756" lon="5.63804">
        <ele>985.2</ele>
        <time>2026-05-10T10:21:32Z</time>
      </trkpt>
      <trkpt lat="46.1276" lon="5.63806">
        <ele>985.2</ele>
        <time>2026-05-10T10:21:33Z</time>
      </trkpt>
      <trkpt lat="46.12764" lon="5.63807">
        <ele>984.8</ele>
        <time>2026-05-10T10:21:34Z</time>
      </trkpt>
      <trkpt lat="46.12768" lon="5.63809">
        <ele>984.6</ele>
        <time>2026-05-10T10:21:35Z</time>
      </trkpt>
      <trkpt lat="46.12772" lon="5.63812">
        <ele>984.6</ele>
        <time>2026-05-10T10:21:36Z</time>
      </trkpt>
      <trkpt lat="46.12775" lon="5.63813">
        <ele>984.6</ele>
        <time>2026-05-10T10:21:37Z</time>
      </trkpt>
      <trkpt lat="46.12776" lon="5.63813">
        <ele>984.2</ele>
        <time>2026-05-10T10:21:38Z</time>
      </trkpt>
      <trkpt lat="46.12778" lon="5.63815">
        <ele>983.2</ele>
        <time>2026-05-10T10:21:39Z</time>
      </trkpt>
      <trkpt lat="46.12783" lon="5.63817">
        <ele>983.6</ele>
        <time>2026-05-10T10:21:40Z</time>
      </trkpt>
      <trkpt lat="46.12787" lon="5.63819">
        <ele>983.4</ele>
        <time>2026-05-10T10:21:41Z</time>
      </trkpt>
      <trkpt lat="46.12792" lon="5.63819">
        <ele>983.4</ele>
        <time>2026-05-10T10:21:42Z</time>
      </trkpt>
      <trkpt lat="46.12796" lon="5.6382">
        <ele>983</ele>
        <time>2026-05-10T10:21:43Z</time>
      </trkpt>
      <trkpt lat="46.12799" lon="5.63822">
        <ele>983</ele>
        <time>2026-05-10T10:21:44Z</time>
      </trkpt>
      <trkpt lat="46.12802" lon="5.63823">
        <ele>983</ele>
        <time>2026-05-10T10:21:45Z</time>
      </trkpt>
      <trkpt lat="46.12806" lon="5.63824">
        <ele>983</ele>
        <time>2026-05-10T10:21:46Z</time>
      </trkpt>
      <trkpt lat="46.12809" lon="5.63825">
        <ele>982.8</ele>
        <time>2026-05-10T10:21:47Z</time>
      </trkpt>
      <trkpt lat="46.1281" lon="5.63825">
        <ele>982.8</ele>
        <time>2026-05-10T10:21:48Z</time>
      </trkpt>
      <trkpt lat="46.12814" lon="5.63825">
        <ele>982.8</ele>
        <time>2026-05-10T10:21:49Z</time>
      </trkpt>
      <trkpt lat="46.12816" lon="5.63826">
        <ele>982.8</ele>
        <time>2026-05-10T10:21:50Z</time>
      </trkpt>
      <trkpt lat="46.12817" lon="5.63826">
        <ele>982.8</ele>
        <time>2026-05-10T10:21:51Z</time>
      </trkpt>
      <trkpt lat="46.12819" lon="5.63826">
        <ele>982.8</ele>
        <time>2026-05-10T10:21:52Z</time>
      </trkpt>
      <trkpt lat="46.12821" lon="5.63828">
        <ele>982.8</ele>
        <time>2026-05-10T10:21:53Z</time>
      </trkpt>
      <trkpt lat="46.12823" lon="5.6383">
        <ele>982.8</ele>
        <time>2026-05-10T10:21:54Z</time>
      </trkpt>
      <trkpt lat="46.12824" lon="5.63831">
        <ele>982.8</ele>
        <time>2026-05-10T10:21:55Z</time>
      </trkpt>
      <trkpt lat="46.12823" lon="5.6383">
        <ele>982.8</ele>
        <time>2026-05-10T10:21:56Z</time>
      </trkpt>
      <trkpt lat="46.12823" lon="5.6383">
        <ele>982.8</ele>
        <time>2026-05-10T10:21:57Z</time>
      </trkpt>
      <trkpt lat="46.12824" lon="5.63831">
        <ele>982.8</ele>
        <time>2026-05-10T10:21:58Z</time>
      </trkpt>
      <trkpt lat="46.12825" lon="5.63831">
        <ele>982.8</ele>
        <time>2026-05-10T10:21:59Z</time>
      </trkpt>
      <trkpt lat="46.12825" lon="5.63832">
        <ele>983</ele>
        <time>2026-05-10T10:22:00Z</time>
      </trkpt>
      <trkpt lat="46.12826" lon="5.63834">
        <ele>983</ele>
        <time>2026-05-10T10:22:01Z</time>
      </trkpt>
      <trkpt lat="46.12827" lon="5.63835">
        <ele>983.4</ele>
        <time>2026-05-10T10:22:02Z</time>
      </trkpt>
      <trkpt lat="46.12828" lon="5.63837">
        <ele>983.4</ele>
        <time>2026-05-10T10:22:03Z</time>
      </trkpt>
      <trkpt lat="46.12828" lon="5.63837">
        <ele>983.6</ele>
        <time>2026-05-10T10:22:04Z</time>
      </trkpt>
      <trkpt lat="46.12828" lon="5.63838">
        <ele>983.6</ele>
        <time>2026-05-10T10:22:05Z</time>
      </trkpt>
      <trkpt lat="46.12829" lon="5.63838">
        <ele>983.8</ele>
        <time>2026-05-10T10:22:06Z</time>
      </trkpt>
      <trkpt lat="46.1283" lon="5.63839">
        <ele>983.8</ele>
        <time>2026-05-10T10:22:07Z</time>
      </trkpt>
      <trkpt lat="46.1283" lon="5.63839">
        <ele>983.8</ele>
        <time>2026-05-10T10:22:08Z</time>
      </trkpt>
      <trkpt lat="46.12831" lon="5.63839">
        <ele>983.8</ele>
        <time>2026-05-10T10:22:09Z</time>
      </trkpt>
      <trkpt lat="46.12833" lon="5.6384">
        <ele>983.8</ele>
        <time>2026-05-10T10:22:10Z</time>
      </trkpt>
      <trkpt lat="46.12835" lon="5.6384">
        <ele>983.8</ele>
        <time>2026-05-10T10:22:11Z</time>
      </trkpt>
      <trkpt lat="46.12836" lon="5.6384">
        <ele>984.2</ele>
        <time>2026-05-10T10:22:12Z</time>
      </trkpt>
      <trkpt lat="46.12838" lon="5.63839">
        <ele>984.2</ele>
        <time>2026-05-10T10:22:13Z</time>
      </trkpt>
      <trkpt lat="46.1284" lon="5.63839">
        <ele>984.2</ele>
        <time>2026-05-10T10:22:14Z</time>
      </trkpt>
      <trkpt lat="46.12841" lon="5.63839">
        <ele>984.2</ele>
        <time>2026-05-10T10:22:15Z</time>
      </trkpt>
      <trkpt lat="46.12842" lon="5.63839">
        <ele>984.2</ele>
        <time>2026-05-10T10:22:16Z</time>
      </trkpt>
      <trkpt lat="46.12844" lon="5.63839">
        <ele>984.6</ele>
        <time>2026-05-10T10:22:17Z</time>
      </trkpt>
      <trkpt lat="46.12847" lon="5.6384">
        <ele>984.6</ele>
        <time>2026-05-10T10:22:18Z</time>
      </trkpt>
      <trkpt lat="46.12849" lon="5.63841">
        <ele>985</ele>
        <time>2026-05-10T10:22:19Z</time>
      </trkpt>
      <trkpt lat="46.12852" lon="5.63842">
        <ele>985.8</ele>
        <time>2026-05-10T10:22:20Z</time>
      </trkpt>
      <trkpt lat="46.12853" lon="5.63842">
        <ele>985.8</ele>
        <time>2026-05-10T10:22:21Z</time>
      </trkpt>
      <trkpt lat="46.12855" lon="5.63843">
        <ele>986</ele>
        <time>2026-05-10T10:22:22Z</time>
      </trkpt>
      <trkpt lat="46.12856" lon="5.63844">
        <ele>986.2</ele>
        <time>2026-05-10T10:22:23Z</time>
      </trkpt>
      <trkpt lat="46.12857" lon="5.63845">
        <ele>986.2</ele>
        <time>2026-05-10T10:22:24Z</time>
      </trkpt>
      <trkpt lat="46.12859" lon="5.63846">
        <ele>986.4</ele>
        <time>2026-05-10T10:22:25Z</time>
      </trkpt>
      <trkpt lat="46.12861" lon="5.63848">
        <ele>986.6</ele>
        <time>2026-05-10T10:22:26Z</time>
      </trkpt>
      <trkpt lat="46.12863" lon="5.6385">
        <ele>986.8</ele>
        <time>2026-05-10T10:22:27Z</time>
      </trkpt>
      <trkpt lat="46.12864" lon="5.63851">
        <ele>986.8</ele>
        <time>2026-05-10T10:22:28Z</time>
      </trkpt>
      <trkpt lat="46.12865" lon="5.63852">
        <ele>987.2</ele>
        <time>2026-05-10T10:22:29Z</time>
      </trkpt>
      <trkpt lat="46.12866" lon="5.63854">
        <ele>987.6</ele>
        <time>2026-05-10T10:22:30Z</time>
      </trkpt>
      <trkpt lat="46.12867" lon="5.63855">
        <ele>987.6</ele>
        <time>2026-05-10T10:22:31Z</time>
      </trkpt>
      <trkpt lat="46.12868" lon="5.63856">
        <ele>988</ele>
        <time>2026-05-10T10:22:32Z</time>
      </trkpt>
      <trkpt lat="46.12869" lon="5.63857">
        <ele>988.2</ele>
        <time>2026-05-10T10:22:33Z</time>
      </trkpt>
      <trkpt lat="46.1287" lon="5.63859">
        <ele>988.2</ele>
        <time>2026-05-10T10:22:34Z</time>
      </trkpt>
      <trkpt lat="46.12871" lon="5.6386">
        <ele>988.4</ele>
        <time>2026-05-10T10:22:35Z</time>
      </trkpt>
      <trkpt lat="46.12872" lon="5.63862">
        <ele>988.4</ele>
        <time>2026-05-10T10:22:36Z</time>
      </trkpt>
      <trkpt lat="46.12874" lon="5.63864">
        <ele>988.4</ele>
        <time>2026-05-10T10:22:37Z</time>
      </trkpt>
      <trkpt lat="46.12875" lon="5.63866">
        <ele>988.4</ele>
        <time>2026-05-10T10:22:38Z</time>
      </trkpt>
      <trkpt lat="46.12876" lon="5.63869">
        <ele>988.8</ele>
        <time>2026-05-10T10:22:39Z</time>
      </trkpt>
      <trkpt lat="46.12877" lon="5.63872">
        <ele>988.8</ele>
        <time>2026-05-10T10:22:40Z</time>
      </trkpt>
      <trkpt lat="46.12878" lon="5.63874">
        <ele>988.4</ele>
        <time>2026-05-10T10:22:41Z</time>
      </trkpt>
      <trkpt lat="46.12879" lon="5.63877">
        <ele>988.8</ele>
        <time>2026-05-10T10:22:42Z</time>
      </trkpt>
      <trkpt lat="46.12881" lon="5.63879">
        <ele>988.8</ele>
        <time>2026-05-10T10:22:43Z</time>
      </trkpt>
      <trkpt lat="46.12882" lon="5.6388">
        <ele>989.4</ele>
        <time>2026-05-10T10:22:44Z</time>
      </trkpt>
      <trkpt lat="46.12884" lon="5.63882">
        <ele>989.6</ele>
        <time>2026-05-10T10:22:45Z</time>
      </trkpt>
      <trkpt lat="46.12885" lon="5.63885">
        <ele>989.6</ele>
        <time>2026-05-10T10:22:46Z</time>
      </trkpt>
      <trkpt lat="46.12886" lon="5.63887">
        <ele>989.6</ele>
        <time>2026-05-10T10:22:47Z</time>
      </trkpt>
      <trkpt lat="46.12887" lon="5.6389">
        <ele>989.6</ele>
        <time>2026-05-10T10:22:48Z</time>
      </trkpt>
      <trkpt lat="46.12887" lon="5.63892">
        <ele>990</ele>
        <time>2026-05-10T10:22:49Z</time>
      </trkpt>
      <trkpt lat="46.12888" lon="5.63894">
        <ele>990</ele>
        <time>2026-05-10T10:22:50Z</time>
      </trkpt>
      <trkpt lat="46.1289" lon="5.63896">
        <ele>990.2</ele>
        <time>2026-05-10T10:22:51Z</time>
      </trkpt>
      <trkpt lat="46.1289" lon="5.63897">
        <ele>990.8</ele>
        <time>2026-05-10T10:22:52Z</time>
      </trkpt>
      <trkpt lat="46.12891" lon="5.63899">
        <ele>990.8</ele>
        <time>2026-05-10T10:22:53Z</time>
      </trkpt>
      <trkpt lat="46.12892" lon="5.639">
        <ele>990.8</ele>
        <time>2026-05-10T10:22:54Z</time>
      </trkpt>
      <trkpt lat="46.12893" lon="5.63903">
        <ele>990.8</ele>
        <time>2026-05-10T10:22:55Z</time>
      </trkpt>
      <trkpt lat="46.12894" lon="5.63906">
        <ele>990.8</ele>
        <time>2026-05-10T10:22:56Z</time>
      </trkpt>
      <trkpt lat="46.12895" lon="5.63908">
        <ele>990.8</ele>
        <time>2026-05-10T10:22:57Z</time>
      </trkpt>
      <trkpt lat="46.12896" lon="5.63909">
        <ele>991</ele>
        <time>2026-05-10T10:22:58Z</time>
      </trkpt>
      <trkpt lat="46.12897" lon="5.63911">
        <ele>991</ele>
        <time>2026-05-10T10:22:59Z</time>
      </trkpt>
      <trkpt lat="46.12897" lon="5.63912">
        <ele>991</ele>
        <time>2026-05-10T10:23:00Z</time>
      </trkpt>
      <trkpt lat="46.12897" lon="5.63914">
        <ele>991</ele>
        <time>2026-05-10T10:23:01Z</time>
      </trkpt>
      <trkpt lat="46.12898" lon="5.63916">
        <ele>991</ele>
        <time>2026-05-10T10:23:02Z</time>
      </trkpt>
      <trkpt lat="46.12898" lon="5.63917">
        <ele>991</ele>
        <time>2026-05-10T10:23:03Z</time>
      </trkpt>
      <trkpt lat="46.12898" lon="5.63919">
        <ele>991</ele>
        <time>2026-05-10T10:23:04Z</time>
      </trkpt>
      <trkpt lat="46.12897" lon="5.63921">
        <ele>991.4</ele>
        <time>2026-05-10T10:23:05Z</time>
      </trkpt>
      <trkpt lat="46.12896" lon="5.63924">
        <ele>991.4</ele>
        <time>2026-05-10T10:23:06Z</time>
      </trkpt>
      <trkpt lat="46.12895" lon="5.63926">
        <ele>991.4</ele>
        <time>2026-05-10T10:23:07Z</time>
      </trkpt>
      <trkpt lat="46.12895" lon="5.63928">
        <ele>991.4</ele>
        <time>2026-05-10T10:23:08Z</time>
      </trkpt>
      <trkpt lat="46.12896" lon="5.6393">
        <ele>991.6</ele>
        <time>2026-05-10T10:23:09Z</time>
      </trkpt>
      <trkpt lat="46.12897" lon="5.63933">
        <ele>991.6</ele>
        <time>2026-05-10T10:23:10Z</time>
      </trkpt>
      <trkpt lat="46.12898" lon="5.63934">
        <ele>991.6</ele>
        <time>2026-05-10T10:23:11Z</time>
      </trkpt>
      <trkpt lat="46.129" lon="5.63935">
        <ele>991.6</ele>
        <time>2026-05-10T10:23:12Z</time>
      </trkpt>
      <trkpt lat="46.12903" lon="5.63937">
        <ele>992</ele>
        <time>2026-05-10T10:23:13Z</time>
      </trkpt>
      <trkpt lat="46.12905" lon="5.63939">
        <ele>992</ele>
        <time>2026-05-10T10:23:14Z</time>
      </trkpt>
      <trkpt lat="46.12906" lon="5.63941">
        <ele>992</ele>
        <time>2026-05-10T10:23:15Z</time>
      </trkpt>
      <trkpt lat="46.12907" lon="5.63944">
        <ele>992</ele>
        <time>2026-05-10T10:23:16Z</time>
      </trkpt>
      <trkpt lat="46.12908" lon="5.63946">
        <ele>992</ele>
        <time>2026-05-10T10:23:17Z</time>
      </trkpt>
      <trkpt lat="46.12909" lon="5.63949">
        <ele>992</ele>
        <time>2026-05-10T10:23:18Z</time>
      </trkpt>
      <trkpt lat="46.12909" lon="5.6395">
        <ele>992</ele>
        <time>2026-05-10T10:23:19Z</time>
      </trkpt>
      <trkpt lat="46.1291" lon="5.63953">
        <ele>992.2</ele>
        <time>2026-05-10T10:23:20Z</time>
      </trkpt>
      <trkpt lat="46.12911" lon="5.63956">
        <ele>992.4</ele>
        <time>2026-05-10T10:23:21Z</time>
      </trkpt>
      <trkpt lat="46.12912" lon="5.63958">
        <ele>992.4</ele>
        <time>2026-05-10T10:23:22Z</time>
      </trkpt>
      <trkpt lat="46.12913" lon="5.6396">
        <ele>992.6</ele>
        <time>2026-05-10T10:23:23Z</time>
      </trkpt>
      <trkpt lat="46.12914" lon="5.63962">
        <ele>992.6</ele>
        <time>2026-05-10T10:23:24Z</time>
      </trkpt>
      <trkpt lat="46.12915" lon="5.63965">
        <ele>992.8</ele>
        <time>2026-05-10T10:23:25Z</time>
      </trkpt>
      <trkpt lat="46.12916" lon="5.63967">
        <ele>992.8</ele>
        <time>2026-05-10T10:23:26Z</time>
      </trkpt>
      <trkpt lat="46.12917" lon="5.63968">
        <ele>993</ele>
        <time>2026-05-10T10:23:27Z</time>
      </trkpt>
      <trkpt lat="46.12918" lon="5.63969">
        <ele>993.4</ele>
        <time>2026-05-10T10:23:28Z</time>
      </trkpt>
      <trkpt lat="46.1292" lon="5.63972">
        <ele>993.4</ele>
        <time>2026-05-10T10:23:29Z</time>
      </trkpt>
      <trkpt lat="46.12921" lon="5.63974">
        <ele>993.6</ele>
        <time>2026-05-10T10:23:30Z</time>
      </trkpt>
      <trkpt lat="46.12922" lon="5.63976">
        <ele>993.6</ele>
        <time>2026-05-10T10:23:31Z</time>
      </trkpt>
      <trkpt lat="46.12922" lon="5.63978">
        <ele>993.8</ele>
        <time>2026-05-10T10:23:32Z</time>
      </trkpt>
      <trkpt lat="46.12923" lon="5.63981">
        <ele>993.8</ele>
        <time>2026-05-10T10:23:33Z</time>
      </trkpt>
      <trkpt lat="46.12924" lon="5.63983">
        <ele>994.4</ele>
        <time>2026-05-10T10:23:34Z</time>
      </trkpt>
      <trkpt lat="46.12926" lon="5.63984">
        <ele>994.4</ele>
        <time>2026-05-10T10:23:35Z</time>
      </trkpt>
      <trkpt lat="46.12928" lon="5.63985">
        <ele>994.4</ele>
        <time>2026-05-10T10:23:36Z</time>
      </trkpt>
      <trkpt lat="46.1293" lon="5.63985">
        <ele>994.6</ele>
        <time>2026-05-10T10:23:37Z</time>
      </trkpt>
      <trkpt lat="46.12932" lon="5.63986">
        <ele>994.6</ele>
        <time>2026-05-10T10:23:38Z</time>
      </trkpt>
      <trkpt lat="46.12934" lon="5.63987">
        <ele>995.2</ele>
        <time>2026-05-10T10:23:39Z</time>
      </trkpt>
      <trkpt lat="46.12936" lon="5.63989">
        <ele>995.2</ele>
        <time>2026-05-10T10:23:40Z</time>
      </trkpt>
      <trkpt lat="46.12937" lon="5.63991">
        <ele>995.2</ele>
        <time>2026-05-10T10:23:41Z</time>
      </trkpt>
      <trkpt lat="46.12938" lon="5.63995">
        <ele>995.4</ele>
        <time>2026-05-10T10:23:42Z</time>
      </trkpt>
      <trkpt lat="46.1294" lon="5.63997">
        <ele>995.4</ele>
        <time>2026-05-10T10:23:43Z</time>
      </trkpt>
      <trkpt lat="46.12941" lon="5.64">
        <ele>995.4</ele>
        <time>2026-05-10T10:23:44Z</time>
      </trkpt>
      <trkpt lat="46.12942" lon="5.64002">
        <ele>995.4</ele>
        <time>2026-05-10T10:23:45Z</time>
      </trkpt>
      <trkpt lat="46.12943" lon="5.64003">
        <ele>995.4</ele>
        <time>2026-05-10T10:23:46Z</time>
      </trkpt>
      <trkpt lat="46.12945" lon="5.64004">
        <ele>995.4</ele>
        <time>2026-05-10T10:23:47Z</time>
      </trkpt>
      <trkpt lat="46.12946" lon="5.64005">
        <ele>995.4</ele>
        <time>2026-05-10T10:23:48Z</time>
      </trkpt>
      <trkpt lat="46.12948" lon="5.64007">
        <ele>995.6</ele>
        <time>2026-05-10T10:23:49Z</time>
      </trkpt>
      <trkpt lat="46.12949" lon="5.64009">
        <ele>995.6</ele>
        <time>2026-05-10T10:23:50Z</time>
      </trkpt>
      <trkpt lat="46.1295" lon="5.64011">
        <ele>996</ele>
        <time>2026-05-10T10:23:51Z</time>
      </trkpt>
      <trkpt lat="46.12952" lon="5.64012">
        <ele>996.4</ele>
        <time>2026-05-10T10:23:52Z</time>
      </trkpt>
      <trkpt lat="46.12953" lon="5.64013">
        <ele>996.4</ele>
        <time>2026-05-10T10:23:53Z</time>
      </trkpt>
      <trkpt lat="46.12955" lon="5.64014">
        <ele>996.4</ele>
        <time>2026-05-10T10:23:54Z</time>
      </trkpt>
      <trkpt lat="46.12956" lon="5.64016">
        <ele>996.8</ele>
        <time>2026-05-10T10:23:55Z</time>
      </trkpt>
      <trkpt lat="46.12957" lon="5.64017">
        <ele>996.8</ele>
        <time>2026-05-10T10:23:56Z</time>
      </trkpt>
      <trkpt lat="46.12957" lon="5.6402">
        <ele>996.8</ele>
        <time>2026-05-10T10:23:57Z</time>
      </trkpt>
      <trkpt lat="46.12958" lon="5.64024">
        <ele>997</ele>
        <time>2026-05-10T10:23:58Z</time>
      </trkpt>
      <trkpt lat="46.12959" lon="5.64027">
        <ele>997</ele>
        <time>2026-05-10T10:23:59Z</time>
      </trkpt>
      <trkpt lat="46.1296" lon="5.64029">
        <ele>997</ele>
        <time>2026-05-10T10:24:00Z</time>
      </trkpt>
      <trkpt lat="46.12961" lon="5.64032">
        <ele>997</ele>
        <time>2026-05-10T10:24:01Z</time>
      </trkpt>
      <trkpt lat="46.12962" lon="5.64034">
        <ele>997</ele>
        <time>2026-05-10T10:24:02Z</time>
      </trkpt>
      <trkpt lat="46.12963" lon="5.64037">
        <ele>997.2</ele>
        <time>2026-05-10T10:24:03Z</time>
      </trkpt>
      <trkpt lat="46.12963" lon="5.64039">
        <ele>997.4</ele>
        <time>2026-05-10T10:24:04Z</time>
      </trkpt>
      <trkpt lat="46.12964" lon="5.64041">
        <ele>997.4</ele>
        <time>2026-05-10T10:24:05Z</time>
      </trkpt>
      <trkpt lat="46.12964" lon="5.64042">
        <ele>997.4</ele>
        <time>2026-05-10T10:24:06Z</time>
      </trkpt>
      <trkpt lat="46.12964" lon="5.64043">
        <ele>997.4</ele>
        <time>2026-05-10T10:24:07Z</time>
      </trkpt>
      <trkpt lat="46.12964" lon="5.64043">
        <ele>997.8</ele>
        <time>2026-05-10T10:24:08Z</time>
      </trkpt>
      <trkpt lat="46.12964" lon="5.64044">
        <ele>997.8</ele>
        <time>2026-05-10T10:24:09Z</time>
      </trkpt>
      <trkpt lat="46.12963" lon="5.64046">
        <ele>998.2</ele>
        <time>2026-05-10T10:24:10Z</time>
      </trkpt>
      <trkpt lat="46.12963" lon="5.64046">
        <ele>998.4</ele>
        <time>2026-05-10T10:24:11Z</time>
      </trkpt>
      <trkpt lat="46.12963" lon="5.64047">
        <ele>998.4</ele>
        <time>2026-05-10T10:24:12Z</time>
      </trkpt>
      <trkpt lat="46.12963" lon="5.64048">
        <ele>998.8</ele>
        <time>2026-05-10T10:24:13Z</time>
      </trkpt>
      <trkpt lat="46.12964" lon="5.64048">
        <ele>998.8</ele>
        <time>2026-05-10T10:24:14Z</time>
      </trkpt>
      <trkpt lat="46.12963" lon="5.64048">
        <ele>998.8</ele>
        <time>2026-05-10T10:24:15Z</time>
      </trkpt>
      <trkpt lat="46.12963" lon="5.64048">
        <ele>998.8</ele>
        <time>2026-05-10T10:24:16Z</time>
      </trkpt>
      <trkpt lat="46.12964" lon="5.64049">
        <ele>998.8</ele>
        <time>2026-05-10T10:24:17Z</time>
      </trkpt>
      <trkpt lat="46.12965" lon="5.64056">
        <ele>998.8</ele>
        <time>2026-05-10T10:24:25Z</time>
      </trkpt>
      <trkpt lat="46.12965" lon="5.64059">
        <ele>998.8</ele>
        <time>2026-05-10T10:24:26Z</time>
      </trkpt>
      <trkpt lat="46.12966" lon="5.64062">
        <ele>998.8</ele>
        <time>2026-05-10T10:24:27Z</time>
      </trkpt>
      <trkpt lat="46.12966" lon="5.64064">
        <ele>998.8</ele>
        <time>2026-05-10T10:24:28Z</time>
      </trkpt>
      <trkpt lat="46.12967" lon="5.64065">
        <ele>998.8</ele>
        <time>2026-05-10T10:24:29Z</time>
      </trkpt>
      <trkpt lat="46.12968" lon="5.64067">
        <ele>999</ele>
        <time>2026-05-10T10:24:30Z</time>
      </trkpt>
      <trkpt lat="46.12969" lon="5.64069">
        <ele>999.2</ele>
        <time>2026-05-10T10:24:31Z</time>
      </trkpt>
      <trkpt lat="46.1297" lon="5.6407">
        <ele>999.2</ele>
        <time>2026-05-10T10:24:32Z</time>
      </trkpt>
      <trkpt lat="46.1297" lon="5.64072">
        <ele>999.4</ele>
        <time>2026-05-10T10:24:33Z</time>
      </trkpt>
      <trkpt lat="46.1297" lon="5.64074">
        <ele>999.4</ele>
        <time>2026-05-10T10:24:34Z</time>
      </trkpt>
      <trkpt lat="46.12971" lon="5.64076">
        <ele>999.8</ele>
        <time>2026-05-10T10:24:35Z</time>
      </trkpt>
      <trkpt lat="46.12972" lon="5.64078">
        <ele>1000.2</ele>
        <time>2026-05-10T10:24:36Z</time>
      </trkpt>
      <trkpt lat="46.12972" lon="5.6408">
        <ele>1000.4</ele>
        <time>2026-05-10T10:24:37Z</time>
      </trkpt>
      <trkpt lat="46.12972" lon="5.6408">
        <ele>1000.4</ele>
        <time>2026-05-10T10:24:38Z</time>
      </trkpt>
      <trkpt lat="46.12973" lon="5.64081">
        <ele>1000.8</ele>
        <time>2026-05-10T10:24:39Z</time>
      </trkpt>
      <trkpt lat="46.12973" lon="5.64081">
        <ele>1000.8</ele>
        <time>2026-05-10T10:24:40Z</time>
      </trkpt>
      <trkpt lat="46.12973" lon="5.64083">
        <ele>1000.8</ele>
        <time>2026-05-10T10:24:41Z</time>
      </trkpt>
      <trkpt lat="46.12974" lon="5.64085">
        <ele>1000.8</ele>
        <time>2026-05-10T10:24:42Z</time>
      </trkpt>
      <trkpt lat="46.12974" lon="5.64087">
        <ele>1000.8</ele>
        <time>2026-05-10T10:24:43Z</time>
      </trkpt>
      <trkpt lat="46.12974" lon="5.64089">
        <ele>1001</ele>
        <time>2026-05-10T10:24:44Z</time>
      </trkpt>
      <trkpt lat="46.12975" lon="5.6409">
        <ele>1001</ele>
        <time>2026-05-10T10:24:45Z</time>
      </trkpt>
      <trkpt lat="46.12976" lon="5.64092">
        <ele>1001.2</ele>
        <time>2026-05-10T10:24:46Z</time>
      </trkpt>
      <trkpt lat="46.12977" lon="5.64093">
        <ele>1001.6</ele>
        <time>2026-05-10T10:24:47Z</time>
      </trkpt>
      <trkpt lat="46.12979" lon="5.64094">
        <ele>1001.6</ele>
        <time>2026-05-10T10:24:48Z</time>
      </trkpt>
      <trkpt lat="46.1298" lon="5.64096">
        <ele>1001.6</ele>
        <time>2026-05-10T10:24:49Z</time>
      </trkpt>
      <trkpt lat="46.12979" lon="5.64096">
        <ele>1001.2</ele>
        <time>2026-05-10T10:24:50Z</time>
      </trkpt>
      <trkpt lat="46.12979" lon="5.64096">
        <ele>1001.4</ele>
        <time>2026-05-10T10:24:51Z</time>
      </trkpt>
      <trkpt lat="46.12979" lon="5.64098">
        <ele>1001.6</ele>
        <time>2026-05-10T10:24:52Z</time>
      </trkpt>
      <trkpt lat="46.12979" lon="5.641">
        <ele>1001.6</ele>
        <time>2026-05-10T10:24:53Z</time>
      </trkpt>
      <trkpt lat="46.12979" lon="5.64102">
        <ele>1002</ele>
        <time>2026-05-10T10:24:54Z</time>
      </trkpt>
      <trkpt lat="46.12979" lon="5.64104">
        <ele>1002</ele>
        <time>2026-05-10T10:24:55Z</time>
      </trkpt>
      <trkpt lat="46.12979" lon="5.64105">
        <ele>1002.4</ele>
        <time>2026-05-10T10:24:56Z</time>
      </trkpt>
      <trkpt lat="46.1298" lon="5.64106">
        <ele>1002.8</ele>
        <time>2026-05-10T10:24:57Z</time>
      </trkpt>
      <trkpt lat="46.1298" lon="5.64107">
        <ele>1003</ele>
        <time>2026-05-10T10:24:58Z</time>
      </trkpt>
      <trkpt lat="46.12981" lon="5.64109">
        <ele>1003</ele>
        <time>2026-05-10T10:24:59Z</time>
      </trkpt>
      <trkpt lat="46.12981" lon="5.64111">
        <ele>1003.2</ele>
        <time>2026-05-10T10:25:00Z</time>
      </trkpt>
      <trkpt lat="46.12982" lon="5.64111">
        <ele>1003.2</ele>
        <time>2026-05-10T10:25:01Z</time>
      </trkpt>
      <trkpt lat="46.12982" lon="5.64113">
        <ele>1003.6</ele>
        <time>2026-05-10T10:25:02Z</time>
      </trkpt>
      <trkpt lat="46.12982" lon="5.64114">
        <ele>1003.8</ele>
        <time>2026-05-10T10:25:03Z</time>
      </trkpt>
      <trkpt lat="46.12982" lon="5.64115">
        <ele>1003.8</ele>
        <time>2026-05-10T10:25:04Z</time>
      </trkpt>
      <trkpt lat="46.12983" lon="5.64116">
        <ele>1004</ele>
        <time>2026-05-10T10:25:05Z</time>
      </trkpt>
      <trkpt lat="46.12983" lon="5.64117">
        <ele>1004</ele>
        <time>2026-05-10T10:25:06Z</time>
      </trkpt>
      <trkpt lat="46.12984" lon="5.64118">
        <ele>1004.4</ele>
        <time>2026-05-10T10:25:07Z</time>
      </trkpt>
      <trkpt lat="46.12984" lon="5.64119">
        <ele>1004.6</ele>
        <time>2026-05-10T10:25:08Z</time>
      </trkpt>
      <trkpt lat="46.12984" lon="5.6412">
        <ele>1004.8</ele>
        <time>2026-05-10T10:25:09Z</time>
      </trkpt>
      <trkpt lat="46.12984" lon="5.64121">
        <ele>1004.8</ele>
        <time>2026-05-10T10:25:10Z</time>
      </trkpt>
      <trkpt lat="46.12985" lon="5.64123">
        <ele>1005.2</ele>
        <time>2026-05-10T10:25:11Z</time>
      </trkpt>
      <trkpt lat="46.12985" lon="5.64124">
        <ele>1005.4</ele>
        <time>2026-05-10T10:25:12Z</time>
      </trkpt>
      <trkpt lat="46.12985" lon="5.64124">
        <ele>1005.4</ele>
        <time>2026-05-10T10:25:13Z</time>
      </trkpt>
      <trkpt lat="46.12985" lon="5.64125">
        <ele>1005.8</ele>
        <time>2026-05-10T10:25:14Z</time>
      </trkpt>
      <trkpt lat="46.12986" lon="5.64126">
        <ele>1005.8</ele>
        <time>2026-05-10T10:25:15Z</time>
      </trkpt>
      <trkpt lat="46.12986" lon="5.64127">
        <ele>1005.8</ele>
        <time>2026-05-10T10:25:16Z</time>
      </trkpt>
      <trkpt lat="46.12986" lon="5.64128">
        <ele>1006</ele>
        <time>2026-05-10T10:25:17Z</time>
      </trkpt>
      <trkpt lat="46.12987" lon="5.64129">
        <ele>1006</ele>
        <time>2026-05-10T10:25:18Z</time>
      </trkpt>
      <trkpt lat="46.12987" lon="5.6413">
        <ele>1006</ele>
        <time>2026-05-10T10:25:19Z</time>
      </trkpt>
      <trkpt lat="46.12987" lon="5.64131">
        <ele>1006.4</ele>
        <time>2026-05-10T10:25:20Z</time>
      </trkpt>
      <trkpt lat="46.12988" lon="5.64132">
        <ele>1006.4</ele>
        <time>2026-05-10T10:25:21Z</time>
      </trkpt>
      <trkpt lat="46.12988" lon="5.64133">
        <ele>1006.6</ele>
        <time>2026-05-10T10:25:22Z</time>
      </trkpt>
      <trkpt lat="46.12989" lon="5.64133">
        <ele>1006.6</ele>
        <time>2026-05-10T10:25:23Z</time>
      </trkpt>
      <trkpt lat="46.12989" lon="5.64134">
        <ele>1007</ele>
        <time>2026-05-10T10:25:24Z</time>
      </trkpt>
      <trkpt lat="46.1299" lon="5.64135">
        <ele>1007.2</ele>
        <time>2026-05-10T10:25:25Z</time>
      </trkpt>
      <trkpt lat="46.1299" lon="5.64135">
        <ele>1007.2</ele>
        <time>2026-05-10T10:25:26Z</time>
      </trkpt>
      <trkpt lat="46.1299" lon="5.64135">
        <ele>1007.6</ele>
        <time>2026-05-10T10:25:27Z</time>
      </trkpt>
      <trkpt lat="46.12991" lon="5.64135">
        <ele>1007.6</ele>
        <time>2026-05-10T10:25:28Z</time>
      </trkpt>
      <trkpt lat="46.12992" lon="5.64134">
        <ele>1007.6</ele>
        <time>2026-05-10T10:25:29Z</time>
      </trkpt>
      <trkpt lat="46.12992" lon="5.64134">
        <ele>1007.6</ele>
        <time>2026-05-10T10:25:30Z</time>
      </trkpt>
      <trkpt lat="46.12992" lon="5.64134">
        <ele>1007.6</ele>
        <time>2026-05-10T10:25:31Z</time>
      </trkpt>
      <trkpt lat="46.12991" lon="5.64135">
        <ele>1007.6</ele>
        <time>2026-05-10T10:25:32Z</time>
      </trkpt>
      <trkpt lat="46.1299" lon="5.64136">
        <ele>1007.6</ele>
        <time>2026-05-10T10:25:33Z</time>
      </trkpt>
      <trkpt lat="46.1299" lon="5.64136">
        <ele>1007.6</ele>
        <time>2026-05-10T10:25:34Z</time>
      </trkpt>
      <trkpt lat="46.12988" lon="5.64135">
        <ele>1008</ele>
        <time>2026-05-10T10:27:10Z</time>
      </trkpt>
      <trkpt lat="46.12988" lon="5.64136">
        <ele>1008.2</ele>
        <time>2026-05-10T10:27:11Z</time>
      </trkpt>
      <trkpt lat="46.12989" lon="5.64137">
        <ele>1008.2</ele>
        <time>2026-05-10T10:27:12Z</time>
      </trkpt>
      <trkpt lat="46.12989" lon="5.64138">
        <ele>1008.4</ele>
        <time>2026-05-10T10:27:13Z</time>
      </trkpt>
      <trkpt lat="46.1299" lon="5.64139">
        <ele>1008.4</ele>
        <time>2026-05-10T10:27:14Z</time>
      </trkpt>
      <trkpt lat="46.1299" lon="5.6414">
        <ele>1008.8</ele>
        <time>2026-05-10T10:27:15Z</time>
      </trkpt>
      <trkpt lat="46.12991" lon="5.64141">
        <ele>1009.2</ele>
        <time>2026-05-10T10:27:16Z</time>
      </trkpt>
      <trkpt lat="46.12991" lon="5.64142">
        <ele>1009.2</ele>
        <time>2026-05-10T10:27:17Z</time>
      </trkpt>
      <trkpt lat="46.12991" lon="5.64142">
        <ele>1009.6</ele>
        <time>2026-05-10T10:27:18Z</time>
      </trkpt>
      <trkpt lat="46.12992" lon="5.64143">
        <ele>1009.8</ele>
        <time>2026-05-10T10:27:19Z</time>
      </trkpt>
      <trkpt lat="46.12992" lon="5.64144">
        <ele>1010</ele>
        <time>2026-05-10T10:27:20Z</time>
      </trkpt>
      <trkpt lat="46.12993" lon="5.64145">
        <ele>1011</ele>
        <time>2026-05-10T10:27:27Z</time>
      </trkpt>
      <trkpt lat="46.12994" lon="5.64146">
        <ele>1011</ele>
        <time>2026-05-10T10:27:28Z</time>
      </trkpt>
      <trkpt lat="46.12994" lon="5.64146">
        <ele>1011.4</ele>
        <time>2026-05-10T10:27:29Z</time>
      </trkpt>
      <trkpt lat="46.12994" lon="5.64147">
        <ele>1011.4</ele>
        <time>2026-05-10T10:27:33Z</time>
      </trkpt>
      <trkpt lat="46.12994" lon="5.64147">
        <ele>1011.4</ele>
        <time>2026-05-10T10:27:34Z</time>
      </trkpt>
      <trkpt lat="46.12994" lon="5.64148">
        <ele>1011.4</ele>
        <time>2026-05-10T10:27:35Z</time>
      </trkpt>
      <trkpt lat="46.12994" lon="5.64147">
        <ele>1011.4</ele>
        <time>2026-05-10T10:27:36Z</time>
      </trkpt>
      <trkpt lat="46.12993" lon="5.64147">
        <ele>1011.4</ele>
        <time>2026-05-10T10:27:37Z</time>
      </trkpt>
      <trkpt lat="46.12992" lon="5.64148">
        <ele>1012</ele>
        <time>2026-05-10T10:29:16Z</time>
      </trkpt>
      <trkpt lat="46.12992" lon="5.64148">
        <ele>1012</ele>
        <time>2026-05-10T10:29:17Z</time>
      </trkpt>
      <trkpt lat="46.12993" lon="5.64151">
        <ele>1012</ele>
        <time>2026-05-10T10:29:20Z</time>
      </trkpt>
      <trkpt lat="46.12994" lon="5.64153">
        <ele>1012</ele>
        <time>2026-05-10T10:29:21Z</time>
      </trkpt>
      <trkpt lat="46.12994" lon="5.64154">
        <ele>1012</ele>
        <time>2026-05-10T10:29:22Z</time>
      </trkpt>
      <trkpt lat="46.12994" lon="5.64155">
        <ele>1012</ele>
        <time>2026-05-10T10:29:23Z</time>
      </trkpt>
      <trkpt lat="46.12995" lon="5.64157">
        <ele>1012</ele>
        <time>2026-05-10T10:29:24Z</time>
      </trkpt>
      <trkpt lat="46.12995" lon="5.64158">
        <ele>1012</ele>
        <time>2026-05-10T10:29:25Z</time>
      </trkpt>
      <trkpt lat="46.12995" lon="5.64157">
        <ele>1012</ele>
        <time>2026-05-10T10:29:26Z</time>
      </trkpt>
      <trkpt lat="46.12995" lon="5.64159">
        <ele>1012.2</ele>
        <time>2026-05-10T10:29:40Z</time>
      </trkpt>
      <trkpt lat="46.12995" lon="5.64161">
        <ele>1012.2</ele>
        <time>2026-05-10T10:29:41Z</time>
      </trkpt>
      <trkpt lat="46.12996" lon="5.64161">
        <ele>1012.2</ele>
        <time>2026-05-10T10:29:42Z</time>
      </trkpt>
      <trkpt lat="46.12996" lon="5.64162">
        <ele>1012.2</ele>
        <time>2026-05-10T10:29:43Z</time>
      </trkpt>
      <trkpt lat="46.12998" lon="5.64164">
        <ele>1012.2</ele>
        <time>2026-05-10T10:29:44Z</time>
      </trkpt>
      <trkpt lat="46.12999" lon="5.64165">
        <ele>1012.2</ele>
        <time>2026-05-10T10:29:45Z</time>
      </trkpt>
      <trkpt lat="46.13" lon="5.64166">
        <ele>1012.2</ele>
        <time>2026-05-10T10:29:46Z</time>
      </trkpt>
      <trkpt lat="46.13001" lon="5.64167">
        <ele>1012.2</ele>
        <time>2026-05-10T10:29:47Z</time>
      </trkpt>
      <trkpt lat="46.13003" lon="5.64168">
        <ele>1012.2</ele>
        <time>2026-05-10T10:29:48Z</time>
      </trkpt>
      <trkpt lat="46.13005" lon="5.64168">
        <ele>1012.2</ele>
        <time>2026-05-10T10:29:49Z</time>
      </trkpt>
      <trkpt lat="46.13006" lon="5.64169">
        <ele>1012.6</ele>
        <time>2026-05-10T10:29:50Z</time>
      </trkpt>
      <trkpt lat="46.13006" lon="5.64169">
        <ele>1012.6</ele>
        <time>2026-05-10T10:29:51Z</time>
      </trkpt>
      <trkpt lat="46.13006" lon="5.64169">
        <ele>1012.6</ele>
        <time>2026-05-10T10:29:52Z</time>
      </trkpt>
      <trkpt lat="46.13005" lon="5.64167">
        <ele>1012.6</ele>
        <time>2026-05-10T10:29:59Z</time>
      </trkpt>
      <trkpt lat="46.13005" lon="5.64168">
        <ele>1013</ele>
        <time>2026-05-10T10:30:00Z</time>
      </trkpt>
      <trkpt lat="46.13005" lon="5.6417">
        <ele>1013</ele>
        <time>2026-05-10T10:30:01Z</time>
      </trkpt>
      <trkpt lat="46.13005" lon="5.64172">
        <ele>1013</ele>
        <time>2026-05-10T10:30:02Z</time>
      </trkpt>
      <trkpt lat="46.13006" lon="5.64173">
        <ele>1013</ele>
        <time>2026-05-10T10:30:03Z</time>
      </trkpt>
      <trkpt lat="46.13007" lon="5.64175">
        <ele>1013</ele>
        <time>2026-05-10T10:30:04Z</time>
      </trkpt>
      <trkpt lat="46.13007" lon="5.64177">
        <ele>1013</ele>
        <time>2026-05-10T10:30:05Z</time>
      </trkpt>
      <trkpt lat="46.13007" lon="5.64179">
        <ele>1013.4</ele>
        <time>2026-05-10T10:30:06Z</time>
      </trkpt>
      <trkpt lat="46.13008" lon="5.6418">
        <ele>1013</ele>
        <time>2026-05-10T10:30:07Z</time>
      </trkpt>
      <trkpt lat="46.13009" lon="5.64181">
        <ele>1013.4</ele>
        <time>2026-05-10T10:30:08Z</time>
      </trkpt>
      <trkpt lat="46.1301" lon="5.64183">
        <ele>1013.6</ele>
        <time>2026-05-10T10:30:09Z</time>
      </trkpt>
      <trkpt lat="46.13012" lon="5.64186">
        <ele>1013.8</ele>
        <time>2026-05-10T10:30:10Z</time>
      </trkpt>
      <trkpt lat="46.13012" lon="5.64189">
        <ele>1013.8</ele>
        <time>2026-05-10T10:30:11Z</time>
      </trkpt>
      <trkpt lat="46.13013" lon="5.64192">
        <ele>1013.8</ele>
        <time>2026-05-10T10:30:12Z</time>
      </trkpt>
      <trkpt lat="46.13013" lon="5.64194">
        <ele>1013.8</ele>
        <time>2026-05-10T10:30:13Z</time>
      </trkpt>
      <trkpt lat="46.13013" lon="5.64197">
        <ele>1014</ele>
        <time>2026-05-10T10:30:14Z</time>
      </trkpt>
      <trkpt lat="46.13013" lon="5.64199">
        <ele>1014</ele>
        <time>2026-05-10T10:30:15Z</time>
      </trkpt>
      <trkpt lat="46.13013" lon="5.64202">
        <ele>1014.4</ele>
        <time>2026-05-10T10:30:16Z</time>
      </trkpt>
      <trkpt lat="46.13012" lon="5.64204">
        <ele>1014.4</ele>
        <time>2026-05-10T10:30:17Z</time>
      </trkpt>
      <trkpt lat="46.1301" lon="5.64206">
        <ele>1014.4</ele>
        <time>2026-05-10T10:30:18Z</time>
      </trkpt>
      <trkpt lat="46.13008" lon="5.64208">
        <ele>1014.4</ele>
        <time>2026-05-10T10:30:19Z</time>
      </trkpt>
      <trkpt lat="46.13007" lon="5.64209">
        <ele>1014.8</ele>
        <time>2026-05-10T10:30:20Z</time>
      </trkpt>
      <trkpt lat="46.13006" lon="5.64211">
        <ele>1014.8</ele>
        <time>2026-05-10T10:30:21Z</time>
      </trkpt>
      <trkpt lat="46.13005" lon="5.64212">
        <ele>1014.8</ele>
        <time>2026-05-10T10:30:22Z</time>
      </trkpt>
      <trkpt lat="46.13005" lon="5.64215">
        <ele>1014.8</ele>
        <time>2026-05-10T10:30:23Z</time>
      </trkpt>
      <trkpt lat="46.13004" lon="5.64218">
        <ele>1014.8</ele>
        <time>2026-05-10T10:30:24Z</time>
      </trkpt>
      <trkpt lat="46.13003" lon="5.64221">
        <ele>1014.4</ele>
        <time>2026-05-10T10:30:25Z</time>
      </trkpt>
      <trkpt lat="46.13002" lon="5.64224">
        <ele>1014.4</ele>
        <time>2026-05-10T10:30:26Z</time>
      </trkpt>
      <trkpt lat="46.13001" lon="5.64227">
        <ele>1014.8</ele>
        <time>2026-05-10T10:30:27Z</time>
      </trkpt>
      <trkpt lat="46.13001" lon="5.6423">
        <ele>1014.8</ele>
        <time>2026-05-10T10:30:28Z</time>
      </trkpt>
      <trkpt lat="46.13001" lon="5.64232">
        <ele>1014.8</ele>
        <time>2026-05-10T10:30:29Z</time>
      </trkpt>
      <trkpt lat="46.13001" lon="5.64234">
        <ele>1014.8</ele>
        <time>2026-05-10T10:30:30Z</time>
      </trkpt>
      <trkpt lat="46.13" lon="5.64237">
        <ele>1014.8</ele>
        <time>2026-05-10T10:30:31Z</time>
      </trkpt>
      <trkpt lat="46.13" lon="5.6424">
        <ele>1014.8</ele>
        <time>2026-05-10T10:30:32Z</time>
      </trkpt>
      <trkpt lat="46.13" lon="5.64243">
        <ele>1014.8</ele>
        <time>2026-05-10T10:30:33Z</time>
      </trkpt>
      <trkpt lat="46.12999" lon="5.64245">
        <ele>1014.8</ele>
        <time>2026-05-10T10:30:34Z</time>
      </trkpt>
      <trkpt lat="46.12999" lon="5.64247">
        <ele>1014.8</ele>
        <time>2026-05-10T10:30:35Z</time>
      </trkpt>
      <trkpt lat="46.12999" lon="5.64247">
        <ele>1015</ele>
        <time>2026-05-10T10:30:36Z</time>
      </trkpt>
      <trkpt lat="46.12999" lon="5.64247">
        <ele>1015</ele>
        <time>2026-05-10T10:30:37Z</time>
      </trkpt>
      <trkpt lat="46.12999" lon="5.64247">
        <ele>1015.4</ele>
        <time>2026-05-10T10:30:38Z</time>
      </trkpt>
      <trkpt lat="46.12994" lon="5.64255">
        <ele>1015.6</ele>
        <time>2026-05-10T10:30:39Z</time>
      </trkpt>
      <trkpt lat="46.12993" lon="5.64256">
        <ele>1015.8</ele>
        <time>2026-05-10T10:30:40Z</time>
      </trkpt>
      <trkpt lat="46.12991" lon="5.64258">
        <ele>1016</ele>
        <time>2026-05-10T10:30:41Z</time>
      </trkpt>
      <trkpt lat="46.1299" lon="5.64259">
        <ele>1016</ele>
        <time>2026-05-10T10:30:42Z</time>
      </trkpt>
      <trkpt lat="46.12989" lon="5.64261">
        <ele>1016.2</ele>
        <time>2026-05-10T10:30:43Z</time>
      </trkpt>
      <trkpt lat="46.12987" lon="5.64263">
        <ele>1016.2</ele>
        <time>2026-05-10T10:30:44Z</time>
      </trkpt>
      <trkpt lat="46.12986" lon="5.64265">
        <ele>1016.6</ele>
        <time>2026-05-10T10:30:45Z</time>
      </trkpt>
      <trkpt lat="46.12986" lon="5.64268">
        <ele>1016.6</ele>
        <time>2026-05-10T10:30:46Z</time>
      </trkpt>
      <trkpt lat="46.12985" lon="5.6427">
        <ele>1016.6</ele>
        <time>2026-05-10T10:30:47Z</time>
      </trkpt>
      <trkpt lat="46.12985" lon="5.64272">
        <ele>1016.6</ele>
        <time>2026-05-10T10:30:48Z</time>
      </trkpt>
      <trkpt lat="46.12984" lon="5.64273">
        <ele>1017</ele>
        <time>2026-05-10T10:30:49Z</time>
      </trkpt>
      <trkpt lat="46.12982" lon="5.64275">
        <ele>1017</ele>
        <time>2026-05-10T10:30:50Z</time>
      </trkpt>
      <trkpt lat="46.12981" lon="5.64275">
        <ele>1017.4</ele>
        <time>2026-05-10T10:30:51Z</time>
      </trkpt>
      <trkpt lat="46.12981" lon="5.64276">
        <ele>1017.6</ele>
        <time>2026-05-10T10:30:52Z</time>
      </trkpt>
      <trkpt lat="46.12979" lon="5.64279">
        <ele>1018</ele>
        <time>2026-05-10T10:30:57Z</time>
      </trkpt>
      <trkpt lat="46.12979" lon="5.6428">
        <ele>1018</ele>
        <time>2026-05-10T10:30:58Z</time>
      </trkpt>
      <trkpt lat="46.12978" lon="5.64281">
        <ele>1018</ele>
        <time>2026-05-10T10:30:59Z</time>
      </trkpt>
      <trkpt lat="46.12977" lon="5.64281">
        <ele>1018.2</ele>
        <time>2026-05-10T10:31:00Z</time>
      </trkpt>
      <trkpt lat="46.12976" lon="5.64282">
        <ele>1018.2</ele>
        <time>2026-05-10T10:31:01Z</time>
      </trkpt>
      <trkpt lat="46.12976" lon="5.64282">
        <ele>1018.2</ele>
        <time>2026-05-10T10:31:02Z</time>
      </trkpt>
      <trkpt lat="46.12976" lon="5.64283">
        <ele>1018.6</ele>
        <time>2026-05-10T10:31:03Z</time>
      </trkpt>
      <trkpt lat="46.12976" lon="5.64284">
        <ele>1019</ele>
        <time>2026-05-10T10:31:04Z</time>
      </trkpt>
      <trkpt lat="46.12975" lon="5.64285">
        <ele>1019</ele>
        <time>2026-05-10T10:31:05Z</time>
      </trkpt>
      <trkpt lat="46.12975" lon="5.64286">
        <ele>1019.4</ele>
        <time>2026-05-10T10:31:06Z</time>
      </trkpt>
      <trkpt lat="46.12974" lon="5.64287">
        <ele>1019.6</ele>
        <time>2026-05-10T10:31:07Z</time>
      </trkpt>
      <trkpt lat="46.12974" lon="5.64288">
        <ele>1020</ele>
        <time>2026-05-10T10:31:08Z</time>
      </trkpt>
      <trkpt lat="46.12975" lon="5.64289">
        <ele>1020</ele>
        <time>2026-05-10T10:31:09Z</time>
      </trkpt>
      <trkpt lat="46.12975" lon="5.6429">
        <ele>1020.2</ele>
        <time>2026-05-10T10:31:10Z</time>
      </trkpt>
      <trkpt lat="46.12975" lon="5.6429">
        <ele>1020.6</ele>
        <time>2026-05-10T10:31:11Z</time>
      </trkpt>
      <trkpt lat="46.12976" lon="5.64291">
        <ele>1020.8</ele>
        <time>2026-05-10T10:31:12Z</time>
      </trkpt>
      <trkpt lat="46.12976" lon="5.64291">
        <ele>1020.8</ele>
        <time>2026-05-10T10:31:13Z</time>
      </trkpt>
      <trkpt lat="46.12977" lon="5.64291">
        <ele>1021.2</ele>
        <time>2026-05-10T10:31:14Z</time>
      </trkpt>
      <trkpt lat="46.12977" lon="5.64292">
        <ele>1021.2</ele>
        <time>2026-05-10T10:31:15Z</time>
      </trkpt>
      <trkpt lat="46.12977" lon="5.64292">
        <ele>1021.6</ele>
        <time>2026-05-10T10:31:16Z</time>
      </trkpt>
      <trkpt lat="46.12977" lon="5.64293">
        <ele>1021.6</ele>
        <time>2026-05-10T10:31:17Z</time>
      </trkpt>
      <trkpt lat="46.12976" lon="5.64294">
        <ele>1021.8</ele>
        <time>2026-05-10T10:31:18Z</time>
      </trkpt>
      <trkpt lat="46.12976" lon="5.64295">
        <ele>1021.8</ele>
        <time>2026-05-10T10:31:19Z</time>
      </trkpt>
      <trkpt lat="46.12975" lon="5.64296">
        <ele>1022.2</ele>
        <time>2026-05-10T10:31:20Z</time>
      </trkpt>
      <trkpt lat="46.12975" lon="5.64297">
        <ele>1022.4</ele>
        <time>2026-05-10T10:31:21Z</time>
      </trkpt>
      <trkpt lat="46.12974" lon="5.64298">
        <ele>1022.8</ele>
        <time>2026-05-10T10:31:22Z</time>
      </trkpt>
      <trkpt lat="46.12974" lon="5.64299">
        <ele>1023</ele>
        <time>2026-05-10T10:31:23Z</time>
      </trkpt>
      <trkpt lat="46.12974" lon="5.643">
        <ele>1023</ele>
        <time>2026-05-10T10:31:24Z</time>
      </trkpt>
      <trkpt lat="46.12974" lon="5.64301">
        <ele>1023</ele>
        <time>2026-05-10T10:31:25Z</time>
      </trkpt>
      <trkpt lat="46.12973" lon="5.64302">
        <ele>1023</ele>
        <time>2026-05-10T10:31:26Z</time>
      </trkpt>
      <trkpt lat="46.12973" lon="5.64303">
        <ele>1023.4</ele>
        <time>2026-05-10T10:31:27Z</time>
      </trkpt>
      <trkpt lat="46.12972" lon="5.64304">
        <ele>1023.6</ele>
        <time>2026-05-10T10:31:28Z</time>
      </trkpt>
      <trkpt lat="46.12972" lon="5.64305">
        <ele>1023.6</ele>
        <time>2026-05-10T10:31:29Z</time>
      </trkpt>
      <trkpt lat="46.12972" lon="5.64306">
        <ele>1024</ele>
        <time>2026-05-10T10:31:30Z</time>
      </trkpt>
      <trkpt lat="46.12971" lon="5.64308">
        <ele>1024</ele>
        <time>2026-05-10T10:31:31Z</time>
      </trkpt>
      <trkpt lat="46.1297" lon="5.64308">
        <ele>1024</ele>
        <time>2026-05-10T10:31:32Z</time>
      </trkpt>
      <trkpt lat="46.1297" lon="5.64309">
        <ele>1024.2</ele>
        <time>2026-05-10T10:31:33Z</time>
      </trkpt>
      <trkpt lat="46.12969" lon="5.6431">
        <ele>1024.2</ele>
        <time>2026-05-10T10:31:34Z</time>
      </trkpt>
      <trkpt lat="46.12968" lon="5.6431">
        <ele>1024.4</ele>
        <time>2026-05-10T10:31:35Z</time>
      </trkpt>
      <trkpt lat="46.12968" lon="5.64311">
        <ele>1024.4</ele>
        <time>2026-05-10T10:31:36Z</time>
      </trkpt>
      <trkpt lat="46.12968" lon="5.64311">
        <ele>1024.6</ele>
        <time>2026-05-10T10:31:37Z</time>
      </trkpt>
      <trkpt lat="46.12967" lon="5.64312">
        <ele>1024.6</ele>
        <time>2026-05-10T10:31:42Z</time>
      </trkpt>
      <trkpt lat="46.12965" lon="5.64312">
        <ele>1024.6</ele>
        <time>2026-05-10T10:31:43Z</time>
      </trkpt>
      <trkpt lat="46.12965" lon="5.64312">
        <ele>1024.6</ele>
        <time>2026-05-10T10:31:44Z</time>
      </trkpt>
      <trkpt lat="46.12965" lon="5.64312">
        <ele>1024.6</ele>
        <time>2026-05-10T10:31:45Z</time>
      </trkpt>
      <trkpt lat="46.12965" lon="5.64311">
        <ele>1024.4</ele>
        <time>2026-05-10T10:31:46Z</time>
      </trkpt>
      <trkpt lat="46.12963" lon="5.64312">
        <ele>1024.2</ele>
        <time>2026-05-10T10:31:47Z</time>
      </trkpt>
      <trkpt lat="46.12961" lon="5.64313">
        <ele>1024.2</ele>
        <time>2026-05-10T10:31:48Z</time>
      </trkpt>
      <trkpt lat="46.12959" lon="5.64313">
        <ele>1023.8</ele>
        <time>2026-05-10T10:31:49Z</time>
      </trkpt>
      <trkpt lat="46.12958" lon="5.64315">
        <ele>1023.8</ele>
        <time>2026-05-10T10:31:50Z</time>
      </trkpt>
      <trkpt lat="46.12956" lon="5.64317">
        <ele>1023.4</ele>
        <time>2026-05-10T10:31:51Z</time>
      </trkpt>
      <trkpt lat="46.12954" lon="5.6432">
        <ele>1023.4</ele>
        <time>2026-05-10T10:31:52Z</time>
      </trkpt>
      <trkpt lat="46.12953" lon="5.64323">
        <ele>1023.2</ele>
        <time>2026-05-10T10:31:53Z</time>
      </trkpt>
      <trkpt lat="46.12953" lon="5.64325">
        <ele>1023.2</ele>
        <time>2026-05-10T10:31:54Z</time>
      </trkpt>
      <trkpt lat="46.12952" lon="5.6433">
        <ele>1022.4</ele>
        <time>2026-05-10T10:31:55Z</time>
      </trkpt>
      <trkpt lat="46.12952" lon="5.64334">
        <ele>1021.8</ele>
        <time>2026-05-10T10:31:56Z</time>
      </trkpt>
      <trkpt lat="46.12952" lon="5.64338">
        <ele>1021.4</ele>
        <time>2026-05-10T10:31:57Z</time>
      </trkpt>
      <trkpt lat="46.12952" lon="5.64341">
        <ele>1020.6</ele>
        <time>2026-05-10T10:31:58Z</time>
      </trkpt>
      <trkpt lat="46.12952" lon="5.64343">
        <ele>1020.2</ele>
        <time>2026-05-10T10:31:59Z</time>
      </trkpt>
      <trkpt lat="46.12951" lon="5.64346">
        <ele>1019.4</ele>
        <time>2026-05-10T10:32:00Z</time>
      </trkpt>
      <trkpt lat="46.1295" lon="5.64349">
        <ele>1018.6</ele>
        <time>2026-05-10T10:32:01Z</time>
      </trkpt>
      <trkpt lat="46.1295" lon="5.64353">
        <ele>1017.8</ele>
        <time>2026-05-10T10:32:02Z</time>
      </trkpt>
      <trkpt lat="46.12951" lon="5.64358">
        <ele>1017.2</ele>
        <time>2026-05-10T10:32:03Z</time>
      </trkpt>
      <trkpt lat="46.12952" lon="5.64364">
        <ele>1016.6</ele>
        <time>2026-05-10T10:32:04Z</time>
      </trkpt>
      <trkpt lat="46.12954" lon="5.64379">
        <ele>1016.6</ele>
        <time>2026-05-10T10:32:05Z</time>
      </trkpt>
      <trkpt lat="46.12953" lon="5.64388">
        <ele>1016.4</ele>
        <time>2026-05-10T10:32:06Z</time>
      </trkpt>
      <trkpt lat="46.12953" lon="5.64392">
        <ele>1016.8</ele>
        <time>2026-05-10T10:32:07Z</time>
      </trkpt>
      <trkpt lat="46.12953" lon="5.64397">
        <ele>1016.8</ele>
        <time>2026-05-10T10:32:08Z</time>
      </trkpt>
      <trkpt lat="46.12954" lon="5.64402">
        <ele>1016.8</ele>
        <time>2026-05-10T10:32:09Z</time>
      </trkpt>
      <trkpt lat="46.12953" lon="5.64406">
        <ele>1016.8</ele>
        <time>2026-05-10T10:32:10Z</time>
      </trkpt>
      <trkpt lat="46.12953" lon="5.6441">
        <ele>1016.8</ele>
        <time>2026-05-10T10:32:11Z</time>
      </trkpt>
      <trkpt lat="46.12951" lon="5.64414">
        <ele>1016.8</ele>
        <time>2026-05-10T10:32:12Z</time>
      </trkpt>
      <trkpt lat="46.1295" lon="5.64418">
        <ele>1016.8</ele>
        <time>2026-05-10T10:32:13Z</time>
      </trkpt>
      <trkpt lat="46.12949" lon="5.64423">
        <ele>1016.6</ele>
        <time>2026-05-10T10:32:14Z</time>
      </trkpt>
      <trkpt lat="46.12947" lon="5.64429">
        <ele>1016.2</ele>
        <time>2026-05-10T10:32:15Z</time>
      </trkpt>
      <trkpt lat="46.12946" lon="5.64435">
        <ele>1015.6</ele>
        <time>2026-05-10T10:32:16Z</time>
      </trkpt>
      <trkpt lat="46.12945" lon="5.6444">
        <ele>1015.6</ele>
        <time>2026-05-10T10:32:17Z</time>
      </trkpt>
      <trkpt lat="46.12943" lon="5.64445">
        <ele>1015</ele>
        <time>2026-05-10T10:32:18Z</time>
      </trkpt>
      <trkpt lat="46.1294" lon="5.64448">
        <ele>1014.6</ele>
        <time>2026-05-10T10:32:19Z</time>
      </trkpt>
      <trkpt lat="46.12938" lon="5.64453">
        <ele>1014.2</ele>
        <time>2026-05-10T10:32:20Z</time>
      </trkpt>
      <trkpt lat="46.12934" lon="5.64456">
        <ele>1013.8</ele>
        <time>2026-05-10T10:32:21Z</time>
      </trkpt>
      <trkpt lat="46.12933" lon="5.64459">
        <ele>1013.6</ele>
        <time>2026-05-10T10:32:22Z</time>
      </trkpt>
      <trkpt lat="46.12929" lon="5.64462">
        <ele>1012.6</ele>
        <time>2026-05-10T10:32:23Z</time>
      </trkpt>
      <trkpt lat="46.12926" lon="5.64465">
        <ele>1012.6</ele>
        <time>2026-05-10T10:32:24Z</time>
      </trkpt>
      <trkpt lat="46.12923" lon="5.64468">
        <ele>1012.6</ele>
        <time>2026-05-10T10:32:25Z</time>
      </trkpt>
      <trkpt lat="46.1292" lon="5.6447">
        <ele>1012.2</ele>
        <time>2026-05-10T10:32:26Z</time>
      </trkpt>
      <trkpt lat="46.12918" lon="5.64474">
        <ele>1012</ele>
        <time>2026-05-10T10:32:27Z</time>
      </trkpt>
      <trkpt lat="46.12917" lon="5.64478">
        <ele>1010.8</ele>
        <time>2026-05-10T10:32:28Z</time>
      </trkpt>
      <trkpt lat="46.12915" lon="5.64482">
        <ele>1010.2</ele>
        <time>2026-05-10T10:32:29Z</time>
      </trkpt>
      <trkpt lat="46.12913" lon="5.64486">
        <ele>1009.6</ele>
        <time>2026-05-10T10:32:30Z</time>
      </trkpt>
      <trkpt lat="46.12913" lon="5.64488">
        <ele>1009.2</ele>
        <time>2026-05-10T10:32:31Z</time>
      </trkpt>
      <trkpt lat="46.12912" lon="5.64491">
        <ele>1008.8</ele>
        <time>2026-05-10T10:32:32Z</time>
      </trkpt>
      <trkpt lat="46.1291" lon="5.64495">
        <ele>1008.2</ele>
        <time>2026-05-10T10:32:33Z</time>
      </trkpt>
      <trkpt lat="46.12907" lon="5.64499">
        <ele>1007.4</ele>
        <time>2026-05-10T10:32:34Z</time>
      </trkpt>
      <trkpt lat="46.12904" lon="5.64503">
        <ele>1006.6</ele>
        <time>2026-05-10T10:32:35Z</time>
      </trkpt>
      <trkpt lat="46.12901" lon="5.64508">
        <ele>1006</ele>
        <time>2026-05-10T10:32:36Z</time>
      </trkpt>
      <trkpt lat="46.12897" lon="5.64511">
        <ele>1005.2</ele>
        <time>2026-05-10T10:32:37Z</time>
      </trkpt>
      <trkpt lat="46.12895" lon="5.64514">
        <ele>1004.6</ele>
        <time>2026-05-10T10:32:38Z</time>
      </trkpt>
      <trkpt lat="46.12892" lon="5.64516">
        <ele>1004</ele>
        <time>2026-05-10T10:32:39Z</time>
      </trkpt>
      <trkpt lat="46.12889" lon="5.64519">
        <ele>1004</ele>
        <time>2026-05-10T10:32:40Z</time>
      </trkpt>
      <trkpt lat="46.12886" lon="5.64522">
        <ele>1003.4</ele>
        <time>2026-05-10T10:32:41Z</time>
      </trkpt>
      <trkpt lat="46.12882" lon="5.64525">
        <ele>1002.4</ele>
        <time>2026-05-10T10:32:42Z</time>
      </trkpt>
      <trkpt lat="46.12879" lon="5.64528">
        <ele>1002</ele>
        <time>2026-05-10T10:32:43Z</time>
      </trkpt>
      <trkpt lat="46.12878" lon="5.64531">
        <ele>1001.6</ele>
        <time>2026-05-10T10:32:44Z</time>
      </trkpt>
      <trkpt lat="46.12877" lon="5.64534">
        <ele>1001.4</ele>
        <time>2026-05-10T10:32:45Z</time>
      </trkpt>
      <trkpt lat="46.12876" lon="5.64536">
        <ele>1001.4</ele>
        <time>2026-05-10T10:32:46Z</time>
      </trkpt>
      <trkpt lat="46.12876" lon="5.64539">
        <ele>1000.8</ele>
        <time>2026-05-10T10:32:47Z</time>
      </trkpt>
      <trkpt lat="46.12877" lon="5.64542">
        <ele>1000.4</ele>
        <time>2026-05-10T10:32:48Z</time>
      </trkpt>
      <trkpt lat="46.12879" lon="5.64544">
        <ele>1000.4</ele>
        <time>2026-05-10T10:32:49Z</time>
      </trkpt>
      <trkpt lat="46.12881" lon="5.64547">
        <ele>1000.4</ele>
        <time>2026-05-10T10:32:50Z</time>
      </trkpt>
      <trkpt lat="46.12883" lon="5.64548">
        <ele>1000.4</ele>
        <time>2026-05-10T10:32:51Z</time>
      </trkpt>
      <trkpt lat="46.12885" lon="5.64548">
        <ele>1000</ele>
        <time>2026-05-10T10:32:52Z</time>
      </trkpt>
      <trkpt lat="46.12887" lon="5.64547">
        <ele>1000</ele>
        <time>2026-05-10T10:32:53Z</time>
      </trkpt>
      <trkpt lat="46.1289" lon="5.64545">
        <ele>1000</ele>
        <time>2026-05-10T10:32:54Z</time>
      </trkpt>
      <trkpt lat="46.12893" lon="5.64544">
        <ele>1000</ele>
        <time>2026-05-10T10:32:55Z</time>
      </trkpt>
      <trkpt lat="46.12896" lon="5.64543">
        <ele>1000.6</ele>
        <time>2026-05-10T10:32:56Z</time>
      </trkpt>
      <trkpt lat="46.12899" lon="5.64543">
        <ele>1000.6</ele>
        <time>2026-05-10T10:32:57Z</time>
      </trkpt>
      <trkpt lat="46.12901" lon="5.64542">
        <ele>1000.6</ele>
        <time>2026-05-10T10:32:58Z</time>
      </trkpt>
      <trkpt lat="46.12904" lon="5.64542">
        <ele>1000.6</ele>
        <time>2026-05-10T10:32:59Z</time>
      </trkpt>
      <trkpt lat="46.12906" lon="5.64542">
        <ele>1000.8</ele>
        <time>2026-05-10T10:33:00Z</time>
      </trkpt>
      <trkpt lat="46.12909" lon="5.64542">
        <ele>1000.8</ele>
        <time>2026-05-10T10:33:01Z</time>
      </trkpt>
      <trkpt lat="46.12911" lon="5.64542">
        <ele>1001</ele>
        <time>2026-05-10T10:33:02Z</time>
      </trkpt>
      <trkpt lat="46.12913" lon="5.64543">
        <ele>1000.8</ele>
        <time>2026-05-10T10:33:03Z</time>
      </trkpt>
      <trkpt lat="46.12916" lon="5.64544">
        <ele>1000.8</ele>
        <time>2026-05-10T10:33:04Z</time>
      </trkpt>
      <trkpt lat="46.12919" lon="5.64546">
        <ele>1000.8</ele>
        <time>2026-05-10T10:33:05Z</time>
      </trkpt>
      <trkpt lat="46.12922" lon="5.64547">
        <ele>1001</ele>
        <time>2026-05-10T10:33:06Z</time>
      </trkpt>
      <trkpt lat="46.12924" lon="5.64549">
        <ele>1001</ele>
        <time>2026-05-10T10:33:07Z</time>
      </trkpt>
      <trkpt lat="46.12928" lon="5.6455">
        <ele>1000.8</ele>
        <time>2026-05-10T10:33:08Z</time>
      </trkpt>
      <trkpt lat="46.12932" lon="5.64552">
        <ele>1000.6</ele>
        <time>2026-05-10T10:33:09Z</time>
      </trkpt>
      <trkpt lat="46.12936" lon="5.64554">
        <ele>1000.6</ele>
        <time>2026-05-10T10:33:10Z</time>
      </trkpt>
      <trkpt lat="46.12939" lon="5.64556">
        <ele>1000.6</ele>
        <time>2026-05-10T10:33:11Z</time>
      </trkpt>
      <trkpt lat="46.12943" lon="5.64559">
        <ele>1000.2</ele>
        <time>2026-05-10T10:33:12Z</time>
      </trkpt>
      <trkpt lat="46.12946" lon="5.64564">
        <ele>1000.4</ele>
        <time>2026-05-10T10:33:13Z</time>
      </trkpt>
      <trkpt lat="46.12948" lon="5.64567">
        <ele>1000.4</ele>
        <time>2026-05-10T10:33:14Z</time>
      </trkpt>
      <trkpt lat="46.1295" lon="5.64569">
        <ele>1000.4</ele>
        <time>2026-05-10T10:33:15Z</time>
      </trkpt>
      <trkpt lat="46.12951" lon="5.64571">
        <ele>1000.4</ele>
        <time>2026-05-10T10:33:16Z</time>
      </trkpt>
      <trkpt lat="46.12952" lon="5.64573">
        <ele>1000.4</ele>
        <time>2026-05-10T10:33:17Z</time>
      </trkpt>
      <trkpt lat="46.12953" lon="5.64574">
        <ele>1000.8</ele>
        <time>2026-05-10T10:33:18Z</time>
      </trkpt>
      <trkpt lat="46.12954" lon="5.64576">
        <ele>1000.8</ele>
        <time>2026-05-10T10:33:19Z</time>
      </trkpt>
      <trkpt lat="46.12956" lon="5.64577">
        <ele>1001.2</ele>
        <time>2026-05-10T10:33:20Z</time>
      </trkpt>
      <trkpt lat="46.12958" lon="5.64577">
        <ele>1001.4</ele>
        <time>2026-05-10T10:33:21Z</time>
      </trkpt>
      <trkpt lat="46.12959" lon="5.64578">
        <ele>1001.4</ele>
        <time>2026-05-10T10:33:22Z</time>
      </trkpt>
      <trkpt lat="46.1296" lon="5.64579">
        <ele>1001.4</ele>
        <time>2026-05-10T10:33:23Z</time>
      </trkpt>
      <trkpt lat="46.12963" lon="5.64581">
        <ele>1001.8</ele>
        <time>2026-05-10T10:33:24Z</time>
      </trkpt>
      <trkpt lat="46.12965" lon="5.64582">
        <ele>1001.8</ele>
        <time>2026-05-10T10:33:25Z</time>
      </trkpt>
      <trkpt lat="46.12967" lon="5.64584">
        <ele>1002.2</ele>
        <time>2026-05-10T10:33:26Z</time>
      </trkpt>
      <trkpt lat="46.12968" lon="5.64586">
        <ele>1002.2</ele>
        <time>2026-05-10T10:33:27Z</time>
      </trkpt>
      <trkpt lat="46.12969" lon="5.64588">
        <ele>1002.6</ele>
        <time>2026-05-10T10:33:28Z</time>
      </trkpt>
      <trkpt lat="46.1297" lon="5.6459">
        <ele>1003</ele>
        <time>2026-05-10T10:33:29Z</time>
      </trkpt>
      <trkpt lat="46.12972" lon="5.64592">
        <ele>1003</ele>
        <time>2026-05-10T10:33:30Z</time>
      </trkpt>
      <trkpt lat="46.12973" lon="5.64594">
        <ele>1003.2</ele>
        <time>2026-05-10T10:33:31Z</time>
      </trkpt>
      <trkpt lat="46.12974" lon="5.64597">
        <ele>1003.6</ele>
        <time>2026-05-10T10:33:32Z</time>
      </trkpt>
      <trkpt lat="46.12975" lon="5.64599">
        <ele>1003.6</ele>
        <time>2026-05-10T10:33:33Z</time>
      </trkpt>
      <trkpt lat="46.12976" lon="5.64602">
        <ele>1003.8</ele>
        <time>2026-05-10T10:33:34Z</time>
      </trkpt>
      <trkpt lat="46.12976" lon="5.64603">
        <ele>1003.8</ele>
        <time>2026-05-10T10:33:35Z</time>
      </trkpt>
      <trkpt lat="46.12975" lon="5.64604">
        <ele>1003.8</ele>
        <time>2026-05-10T10:33:36Z</time>
      </trkpt>
      <trkpt lat="46.12974" lon="5.64607">
        <ele>1004.2</ele>
        <time>2026-05-10T10:33:37Z</time>
      </trkpt>
      <trkpt lat="46.12973" lon="5.6461">
        <ele>1004.6</ele>
        <time>2026-05-10T10:33:38Z</time>
      </trkpt>
      <trkpt lat="46.12973" lon="5.64613">
        <ele>1004.6</ele>
        <time>2026-05-10T10:33:39Z</time>
      </trkpt>
      <trkpt lat="46.12974" lon="5.64616">
        <ele>1004.2</ele>
        <time>2026-05-10T10:33:40Z</time>
      </trkpt>
      <trkpt lat="46.12975" lon="5.64618">
        <ele>1004.6</ele>
        <time>2026-05-10T10:33:41Z</time>
      </trkpt>
      <trkpt lat="46.12976" lon="5.64619">
        <ele>1004.8</ele>
        <time>2026-05-10T10:33:42Z</time>
      </trkpt>
      <trkpt lat="46.12978" lon="5.64622">
        <ele>1004.8</ele>
        <time>2026-05-10T10:33:43Z</time>
      </trkpt>
      <trkpt lat="46.12981" lon="5.64624">
        <ele>1005.2</ele>
        <time>2026-05-10T10:33:44Z</time>
      </trkpt>
      <trkpt lat="46.12983" lon="5.64626">
        <ele>1005.2</ele>
        <time>2026-05-10T10:33:45Z</time>
      </trkpt>
      <trkpt lat="46.12984" lon="5.64627">
        <ele>1005.6</ele>
        <time>2026-05-10T10:33:46Z</time>
      </trkpt>
      <trkpt lat="46.12986" lon="5.64627">
        <ele>1006.2</ele>
        <time>2026-05-10T10:33:47Z</time>
      </trkpt>
      <trkpt lat="46.12987" lon="5.64627">
        <ele>1006.2</ele>
        <time>2026-05-10T10:33:48Z</time>
      </trkpt>
      <trkpt lat="46.12989" lon="5.64627">
        <ele>1006.4</ele>
        <time>2026-05-10T10:33:49Z</time>
      </trkpt>
      <trkpt lat="46.1299" lon="5.64627">
        <ele>1006.4</ele>
        <time>2026-05-10T10:33:50Z</time>
      </trkpt>
      <trkpt lat="46.12991" lon="5.64627">
        <ele>1006.8</ele>
        <time>2026-05-10T10:33:51Z</time>
      </trkpt>
      <trkpt lat="46.12993" lon="5.64626">
        <ele>1006.8</ele>
        <time>2026-05-10T10:33:52Z</time>
      </trkpt>
      <trkpt lat="46.12994" lon="5.64625">
        <ele>1006.8</ele>
        <time>2026-05-10T10:33:53Z</time>
      </trkpt>
      <trkpt lat="46.12996" lon="5.64624">
        <ele>1006.8</ele>
        <time>2026-05-10T10:33:54Z</time>
      </trkpt>
      <trkpt lat="46.12998" lon="5.64623">
        <ele>1007.2</ele>
        <time>2026-05-10T10:33:55Z</time>
      </trkpt>
      <trkpt lat="46.13" lon="5.64622">
        <ele>1007.6</ele>
        <time>2026-05-10T10:33:56Z</time>
      </trkpt>
      <trkpt lat="46.13002" lon="5.64621">
        <ele>1007.6</ele>
        <time>2026-05-10T10:33:57Z</time>
      </trkpt>
      <trkpt lat="46.13004" lon="5.64621">
        <ele>1007.6</ele>
        <time>2026-05-10T10:33:58Z</time>
      </trkpt>
      <trkpt lat="46.13006" lon="5.6462">
        <ele>1008</ele>
        <time>2026-05-10T10:33:59Z</time>
      </trkpt>
      <trkpt lat="46.13007" lon="5.64619">
        <ele>1008.2</ele>
        <time>2026-05-10T10:34:00Z</time>
      </trkpt>
      <trkpt lat="46.13009" lon="5.64617">
        <ele>1008.2</ele>
        <time>2026-05-10T10:34:01Z</time>
      </trkpt>
      <trkpt lat="46.1301" lon="5.64616">
        <ele>1008.2</ele>
        <time>2026-05-10T10:34:02Z</time>
      </trkpt>
      <trkpt lat="46.13012" lon="5.64616">
        <ele>1008.2</ele>
        <time>2026-05-10T10:34:03Z</time>
      </trkpt>
      <trkpt lat="46.13014" lon="5.64615">
        <ele>1008.6</ele>
        <time>2026-05-10T10:34:04Z</time>
      </trkpt>
      <trkpt lat="46.13015" lon="5.64615">
        <ele>1008.6</ele>
        <time>2026-05-10T10:34:05Z</time>
      </trkpt>
      <trkpt lat="46.13017" lon="5.64614">
        <ele>1009</ele>
        <time>2026-05-10T10:34:06Z</time>
      </trkpt>
      <trkpt lat="46.13018" lon="5.64614">
        <ele>1009</ele>
        <time>2026-05-10T10:34:07Z</time>
      </trkpt>
      <trkpt lat="46.13019" lon="5.64613">
        <ele>1009</ele>
        <time>2026-05-10T10:34:08Z</time>
      </trkpt>
      <trkpt lat="46.1302" lon="5.64613">
        <ele>1009.2</ele>
        <time>2026-05-10T10:34:09Z</time>
      </trkpt>
      <trkpt lat="46.13021" lon="5.64613">
        <ele>1009.2</ele>
        <time>2026-05-10T10:34:10Z</time>
      </trkpt>
      <trkpt lat="46.13023" lon="5.64613">
        <ele>1009.4</ele>
        <time>2026-05-10T10:34:11Z</time>
      </trkpt>
      <trkpt lat="46.13024" lon="5.64614">
        <ele>1009.6</ele>
        <time>2026-05-10T10:34:12Z</time>
      </trkpt>
      <trkpt lat="46.13026" lon="5.64615">
        <ele>1009.6</ele>
        <time>2026-05-10T10:34:13Z</time>
      </trkpt>
      <trkpt lat="46.13027" lon="5.64616">
        <ele>1010</ele>
        <time>2026-05-10T10:34:14Z</time>
      </trkpt>
      <trkpt lat="46.13028" lon="5.64616">
        <ele>1010.4</ele>
        <time>2026-05-10T10:34:15Z</time>
      </trkpt>
      <trkpt lat="46.1303" lon="5.64617">
        <ele>1010.4</ele>
        <time>2026-05-10T10:34:16Z</time>
      </trkpt>
      <trkpt lat="46.13032" lon="5.64618">
        <ele>1010.8</ele>
        <time>2026-05-10T10:34:17Z</time>
      </trkpt>
      <trkpt lat="46.13033" lon="5.6462">
        <ele>1010.8</ele>
        <time>2026-05-10T10:34:18Z</time>
      </trkpt>
      <trkpt lat="46.13035" lon="5.64622">
        <ele>1011</ele>
        <time>2026-05-10T10:34:19Z</time>
      </trkpt>
      <trkpt lat="46.13035" lon="5.64623">
        <ele>1011</ele>
        <time>2026-05-10T10:34:20Z</time>
      </trkpt>
      <trkpt lat="46.13036" lon="5.64625">
        <ele>1011.4</ele>
        <time>2026-05-10T10:34:21Z</time>
      </trkpt>
      <trkpt lat="46.13037" lon="5.64627">
        <ele>1011.4</ele>
        <time>2026-05-10T10:34:22Z</time>
      </trkpt>
      <trkpt lat="46.13038" lon="5.64629">
        <ele>1011.6</ele>
        <time>2026-05-10T10:34:23Z</time>
      </trkpt>
      <trkpt lat="46.13037" lon="5.64631">
        <ele>1011.6</ele>
        <time>2026-05-10T10:34:24Z</time>
      </trkpt>
      <trkpt lat="46.13037" lon="5.64633">
        <ele>1011.6</ele>
        <time>2026-05-10T10:34:25Z</time>
      </trkpt>
      <trkpt lat="46.13037" lon="5.64635">
        <ele>1011.8</ele>
        <time>2026-05-10T10:34:26Z</time>
      </trkpt>
      <trkpt lat="46.13038" lon="5.64637">
        <ele>1012.2</ele>
        <time>2026-05-10T10:34:27Z</time>
      </trkpt>
      <trkpt lat="46.13039" lon="5.64639">
        <ele>1012.2</ele>
        <time>2026-05-10T10:34:28Z</time>
      </trkpt>
      <trkpt lat="46.13039" lon="5.64641">
        <ele>1012.4</ele>
        <time>2026-05-10T10:34:29Z</time>
      </trkpt>
      <trkpt lat="46.1304" lon="5.64644">
        <ele>1012.4</ele>
        <time>2026-05-10T10:34:30Z</time>
      </trkpt>
      <trkpt lat="46.1304" lon="5.64645">
        <ele>1012.8</ele>
        <time>2026-05-10T10:34:31Z</time>
      </trkpt>
      <trkpt lat="46.1304" lon="5.64647">
        <ele>1012.8</ele>
        <time>2026-05-10T10:34:32Z</time>
      </trkpt>
      <trkpt lat="46.1304" lon="5.6465">
        <ele>1012.8</ele>
        <time>2026-05-10T10:34:33Z</time>
      </trkpt>
      <trkpt lat="46.1304" lon="5.64652">
        <ele>1013</ele>
        <time>2026-05-10T10:34:34Z</time>
      </trkpt>
      <trkpt lat="46.13041" lon="5.64654">
        <ele>1013</ele>
        <time>2026-05-10T10:34:35Z</time>
      </trkpt>
      <trkpt lat="46.13041" lon="5.64657">
        <ele>1013</ele>
        <time>2026-05-10T10:34:36Z</time>
      </trkpt>
      <trkpt lat="46.13041" lon="5.64659">
        <ele>1013</ele>
        <time>2026-05-10T10:34:37Z</time>
      </trkpt>
      <trkpt lat="46.13041" lon="5.64662">
        <ele>1013.4</ele>
        <time>2026-05-10T10:34:38Z</time>
      </trkpt>
      <trkpt lat="46.13041" lon="5.64664">
        <ele>1013.6</ele>
        <time>2026-05-10T10:34:39Z</time>
      </trkpt>
      <trkpt lat="46.13041" lon="5.64667">
        <ele>1013.8</ele>
        <time>2026-05-10T10:34:40Z</time>
      </trkpt>
      <trkpt lat="46.13042" lon="5.64669">
        <ele>1013.8</ele>
        <time>2026-05-10T10:34:41Z</time>
      </trkpt>
      <trkpt lat="46.13042" lon="5.64671">
        <ele>1014</ele>
        <time>2026-05-10T10:34:42Z</time>
      </trkpt>
      <trkpt lat="46.13042" lon="5.64673">
        <ele>1014.4</ele>
        <time>2026-05-10T10:34:43Z</time>
      </trkpt>
      <trkpt lat="46.13042" lon="5.64676">
        <ele>1014.6</ele>
        <time>2026-05-10T10:34:44Z</time>
      </trkpt>
      <trkpt lat="46.13042" lon="5.6468">
        <ele>1014.6</ele>
        <time>2026-05-10T10:34:45Z</time>
      </trkpt>
      <trkpt lat="46.13043" lon="5.64683">
        <ele>1014.8</ele>
        <time>2026-05-10T10:34:46Z</time>
      </trkpt>
      <trkpt lat="46.13044" lon="5.64686">
        <ele>1014.8</ele>
        <time>2026-05-10T10:34:47Z</time>
      </trkpt>
      <trkpt lat="46.13044" lon="5.64689">
        <ele>1015</ele>
        <time>2026-05-10T10:34:48Z</time>
      </trkpt>
      <trkpt lat="46.13044" lon="5.64692">
        <ele>1015.2</ele>
        <time>2026-05-10T10:34:49Z</time>
      </trkpt>
      <trkpt lat="46.13044" lon="5.64694">
        <ele>1015.6</ele>
        <time>2026-05-10T10:34:50Z</time>
      </trkpt>
      <trkpt lat="46.13044" lon="5.64697">
        <ele>1015.8</ele>
        <time>2026-05-10T10:34:51Z</time>
      </trkpt>
      <trkpt lat="46.13044" lon="5.64699">
        <ele>1015.8</ele>
        <time>2026-05-10T10:34:52Z</time>
      </trkpt>
      <trkpt lat="46.13044" lon="5.64702">
        <ele>1016.2</ele>
        <time>2026-05-10T10:34:53Z</time>
      </trkpt>
      <trkpt lat="46.13044" lon="5.64704">
        <ele>1016.2</ele>
        <time>2026-05-10T10:34:54Z</time>
      </trkpt>
      <trkpt lat="46.13044" lon="5.64706">
        <ele>1016.2</ele>
        <time>2026-05-10T10:34:55Z</time>
      </trkpt>
      <trkpt lat="46.13043" lon="5.64708">
        <ele>1016.2</ele>
        <time>2026-05-10T10:34:56Z</time>
      </trkpt>
      <trkpt lat="46.13043" lon="5.64709">
        <ele>1016.6</ele>
        <time>2026-05-10T10:34:57Z</time>
      </trkpt>
      <trkpt lat="46.13044" lon="5.64712">
        <ele>1016.6</ele>
        <time>2026-05-10T10:34:58Z</time>
      </trkpt>
      <trkpt lat="46.13044" lon="5.64714">
        <ele>1017</ele>
        <time>2026-05-10T10:34:59Z</time>
      </trkpt>
      <trkpt lat="46.13045" lon="5.64716">
        <ele>1017</ele>
        <time>2026-05-10T10:35:00Z</time>
      </trkpt>
      <trkpt lat="46.13045" lon="5.64718">
        <ele>1017</ele>
        <time>2026-05-10T10:35:01Z</time>
      </trkpt>
      <trkpt lat="46.13045" lon="5.64721">
        <ele>1017.4</ele>
        <time>2026-05-10T10:35:02Z</time>
      </trkpt>
      <trkpt lat="46.13045" lon="5.64722">
        <ele>1017.4</ele>
        <time>2026-05-10T10:35:03Z</time>
      </trkpt>
      <trkpt lat="46.13047" lon="5.64725">
        <ele>1017.4</ele>
        <time>2026-05-10T10:35:04Z</time>
      </trkpt>
      <trkpt lat="46.13049" lon="5.64727">
        <ele>1017.4</ele>
        <time>2026-05-10T10:35:05Z</time>
      </trkpt>
      <trkpt lat="46.13051" lon="5.6473">
        <ele>1017.4</ele>
        <time>2026-05-10T10:35:06Z</time>
      </trkpt>
      <trkpt lat="46.13052" lon="5.64732">
        <ele>1017.4</ele>
        <time>2026-05-10T10:35:07Z</time>
      </trkpt>
      <trkpt lat="46.13052" lon="5.64734">
        <ele>1017.4</ele>
        <time>2026-05-10T10:35:08Z</time>
      </trkpt>
      <trkpt lat="46.13054" lon="5.64741">
        <ele>1017.4</ele>
        <time>2026-05-10T10:35:09Z</time>
      </trkpt>
      <trkpt lat="46.13054" lon="5.64744">
        <ele>1017.4</ele>
        <time>2026-05-10T10:35:10Z</time>
      </trkpt>
      <trkpt lat="46.13054" lon="5.64747">
        <ele>1017.6</ele>
        <time>2026-05-10T10:35:11Z</time>
      </trkpt>
      <trkpt lat="46.13055" lon="5.64751">
        <ele>1017.6</ele>
        <time>2026-05-10T10:35:12Z</time>
      </trkpt>
      <trkpt lat="46.13055" lon="5.64754">
        <ele>1017.6</ele>
        <time>2026-05-10T10:35:13Z</time>
      </trkpt>
      <trkpt lat="46.13054" lon="5.64757">
        <ele>1017.6</ele>
        <time>2026-05-10T10:35:14Z</time>
      </trkpt>
      <trkpt lat="46.13054" lon="5.6476">
        <ele>1017.6</ele>
        <time>2026-05-10T10:35:15Z</time>
      </trkpt>
      <trkpt lat="46.13053" lon="5.64764">
        <ele>1017</ele>
        <time>2026-05-10T10:35:16Z</time>
      </trkpt>
      <trkpt lat="46.13053" lon="5.64767">
        <ele>1017</ele>
        <time>2026-05-10T10:35:17Z</time>
      </trkpt>
      <trkpt lat="46.13054" lon="5.64772">
        <ele>1016.6</ele>
        <time>2026-05-10T10:35:18Z</time>
      </trkpt>
      <trkpt lat="46.13055" lon="5.64778">
        <ele>1016.6</ele>
        <time>2026-05-10T10:35:19Z</time>
      </trkpt>
      <trkpt lat="46.13057" lon="5.64784">
        <ele>1016.2</ele>
        <time>2026-05-10T10:35:20Z</time>
      </trkpt>
      <trkpt lat="46.13059" lon="5.64791">
        <ele>1015.4</ele>
        <time>2026-05-10T10:35:21Z</time>
      </trkpt>
      <trkpt lat="46.13061" lon="5.64797">
        <ele>1014.8</ele>
        <time>2026-05-10T10:35:22Z</time>
      </trkpt>
      <trkpt lat="46.13064" lon="5.64803">
        <ele>1014</ele>
        <time>2026-05-10T10:35:23Z</time>
      </trkpt>
      <trkpt lat="46.13065" lon="5.64808">
        <ele>1014</ele>
        <time>2026-05-10T10:35:24Z</time>
      </trkpt>
      <trkpt lat="46.13068" lon="5.64814">
        <ele>1013.6</ele>
        <time>2026-05-10T10:35:25Z</time>
      </trkpt>
      <trkpt lat="46.13071" lon="5.6482">
        <ele>1012.8</ele>
        <time>2026-05-10T10:35:26Z</time>
      </trkpt>
      <trkpt lat="46.13072" lon="5.64827">
        <ele>1012</ele>
        <time>2026-05-10T10:35:27Z</time>
      </trkpt>
      <trkpt lat="46.13074" lon="5.64834">
        <ele>1011.6</ele>
        <time>2026-05-10T10:35:28Z</time>
      </trkpt>
      <trkpt lat="46.13079" lon="5.6484">
        <ele>1010.6</ele>
        <time>2026-05-10T10:35:29Z</time>
      </trkpt>
      <trkpt lat="46.13083" lon="5.6485">
        <ele>1010</ele>
        <time>2026-05-10T10:35:30Z</time>
      </trkpt>
      <trkpt lat="46.13086" lon="5.6486">
        <ele>1008.8</ele>
        <time>2026-05-10T10:35:31Z</time>
      </trkpt>
      <trkpt lat="46.13089" lon="5.64872">
        <ele>1007</ele>
        <time>2026-05-10T10:35:32Z</time>
      </trkpt>
      <trkpt lat="46.1309" lon="5.64885">
        <ele>1005.6</ele>
        <time>2026-05-10T10:35:33Z</time>
      </trkpt>
      <trkpt lat="46.13091" lon="5.64898">
        <ele>1003.6</ele>
        <time>2026-05-10T10:35:34Z</time>
      </trkpt>
      <trkpt lat="46.13091" lon="5.64911">
        <ele>1002.4</ele>
        <time>2026-05-10T10:35:35Z</time>
      </trkpt>
      <trkpt lat="46.13095" lon="5.64923">
        <ele>1001.8</ele>
        <time>2026-05-10T10:35:36Z</time>
      </trkpt>
      <trkpt lat="46.13097" lon="5.64933">
        <ele>1000.6</ele>
        <time>2026-05-10T10:35:37Z</time>
      </trkpt>
      <trkpt lat="46.13098" lon="5.64941">
        <ele>1000.4</ele>
        <time>2026-05-10T10:35:38Z</time>
      </trkpt>
      <trkpt lat="46.13098" lon="5.64952">
        <ele>1000.6</ele>
        <time>2026-05-10T10:35:39Z</time>
      </trkpt>
      <trkpt lat="46.13098" lon="5.6496">
        <ele>1000.4</ele>
        <time>2026-05-10T10:35:40Z</time>
      </trkpt>
      <trkpt lat="46.131" lon="5.64967">
        <ele>999.6</ele>
        <time>2026-05-10T10:35:41Z</time>
      </trkpt>
      <trkpt lat="46.13101" lon="5.64975">
        <ele>998.8</ele>
        <time>2026-05-10T10:35:42Z</time>
      </trkpt>
      <trkpt lat="46.13103" lon="5.64989">
        <ele>999</ele>
        <time>2026-05-10T10:35:43Z</time>
      </trkpt>
      <trkpt lat="46.13102" lon="5.65">
        <ele>998.4</ele>
        <time>2026-05-10T10:35:44Z</time>
      </trkpt>
      <trkpt lat="46.13105" lon="5.65011">
        <ele>998</ele>
        <time>2026-05-10T10:35:45Z</time>
      </trkpt>
      <trkpt lat="46.13105" lon="5.65011">
        <ele>996.2</ele>
        <time>2026-05-10T10:35:46Z</time>
      </trkpt>
      <trkpt lat="46.13106" lon="5.65022">
        <ele>995.4</ele>
        <time>2026-05-10T10:35:47Z</time>
      </trkpt>
      <trkpt lat="46.13105" lon="5.65034">
        <ele>994.2</ele>
        <time>2026-05-10T10:35:48Z</time>
      </trkpt>
      <trkpt lat="46.13108" lon="5.65044">
        <ele>994.6</ele>
        <time>2026-05-10T10:35:49Z</time>
      </trkpt>
      <trkpt lat="46.1311" lon="5.65056">
        <ele>993.8</ele>
        <time>2026-05-10T10:35:50Z</time>
      </trkpt>
      <trkpt lat="46.13111" lon="5.65066">
        <ele>993.2</ele>
        <time>2026-05-10T10:35:51Z</time>
      </trkpt>
      <trkpt lat="46.13116" lon="5.65075">
        <ele>992.6</ele>
        <time>2026-05-10T10:35:52Z</time>
      </trkpt>
      <trkpt lat="46.13119" lon="5.65086">
        <ele>992</ele>
        <time>2026-05-10T10:35:53Z</time>
      </trkpt>
      <trkpt lat="46.13123" lon="5.65095">
        <ele>991.8</ele>
        <time>2026-05-10T10:35:54Z</time>
      </trkpt>
      <trkpt lat="46.13127" lon="5.65105">
        <ele>991.8</ele>
        <time>2026-05-10T10:35:55Z</time>
      </trkpt>
      <trkpt lat="46.13129" lon="5.65115">
        <ele>991.8</ele>
        <time>2026-05-10T10:35:56Z</time>
      </trkpt>
      <trkpt lat="46.13133" lon="5.65123">
        <ele>991.4</ele>
        <time>2026-05-10T10:35:57Z</time>
      </trkpt>
      <trkpt lat="46.13137" lon="5.65132">
        <ele>991.4</ele>
        <time>2026-05-10T10:35:58Z</time>
      </trkpt>
      <trkpt lat="46.1314" lon="5.65142">
        <ele>991.4</ele>
        <time>2026-05-10T10:35:59Z</time>
      </trkpt>
      <trkpt lat="46.13145" lon="5.65149">
        <ele>991.4</ele>
        <time>2026-05-10T10:36:00Z</time>
      </trkpt>
      <trkpt lat="46.13153" lon="5.65152">
        <ele>991.4</ele>
        <time>2026-05-10T10:36:01Z</time>
      </trkpt>
      <trkpt lat="46.13157" lon="5.65159">
        <ele>991.4</ele>
        <time>2026-05-10T10:36:02Z</time>
      </trkpt>
      <trkpt lat="46.13163" lon="5.65164">
        <ele>991.4</ele>
        <time>2026-05-10T10:36:03Z</time>
      </trkpt>
      <trkpt lat="46.13168" lon="5.65171">
        <ele>991.4</ele>
        <time>2026-05-10T10:36:04Z</time>
      </trkpt>
      <trkpt lat="46.13173" lon="5.65178">
        <ele>991.4</ele>
        <time>2026-05-10T10:36:05Z</time>
      </trkpt>
      <trkpt lat="46.13177" lon="5.65187">
        <ele>991.4</ele>
        <time>2026-05-10T10:36:06Z</time>
      </trkpt>
      <trkpt lat="46.1318" lon="5.65197">
        <ele>991.2</ele>
        <time>2026-05-10T10:36:07Z</time>
      </trkpt>
      <trkpt lat="46.13182" lon="5.65206">
        <ele>991.4</ele>
        <time>2026-05-10T10:36:08Z</time>
      </trkpt>
      <trkpt lat="46.13184" lon="5.65216">
        <ele>991.4</ele>
        <time>2026-05-10T10:36:09Z</time>
      </trkpt>
      <trkpt lat="46.13185" lon="5.65225">
        <ele>991.4</ele>
        <time>2026-05-10T10:36:10Z</time>
      </trkpt>
      <trkpt lat="46.13187" lon="5.65234">
        <ele>991.4</ele>
        <time>2026-05-10T10:36:11Z</time>
      </trkpt>
      <trkpt lat="46.13189" lon="5.65242">
        <ele>991.4</ele>
        <time>2026-05-10T10:36:12Z</time>
      </trkpt>
      <trkpt lat="46.13193" lon="5.65248">
        <ele>991.2</ele>
        <time>2026-05-10T10:36:13Z</time>
      </trkpt>
      <trkpt lat="46.13197" lon="5.65254">
        <ele>990.6</ele>
        <time>2026-05-10T10:36:14Z</time>
      </trkpt>
      <trkpt lat="46.13203" lon="5.65259">
        <ele>990.2</ele>
        <time>2026-05-10T10:36:15Z</time>
      </trkpt>
      <trkpt lat="46.13209" lon="5.65263">
        <ele>990</ele>
        <time>2026-05-10T10:36:16Z</time>
      </trkpt>
      <trkpt lat="46.13215" lon="5.65268">
        <ele>989.8</ele>
        <time>2026-05-10T10:36:17Z</time>
      </trkpt>
      <trkpt lat="46.13222" lon="5.65271">
        <ele>989.8</ele>
        <time>2026-05-10T10:36:18Z</time>
      </trkpt>
      <trkpt lat="46.13227" lon="5.65275">
        <ele>989.8</ele>
        <time>2026-05-10T10:36:19Z</time>
      </trkpt>
      <trkpt lat="46.13234" lon="5.6528">
        <ele>989.8</ele>
        <time>2026-05-10T10:36:20Z</time>
      </trkpt>
      <trkpt lat="46.13241" lon="5.65284">
        <ele>989.8</ele>
        <time>2026-05-10T10:36:21Z</time>
      </trkpt>
      <trkpt lat="46.13247" lon="5.65288">
        <ele>989.4</ele>
        <time>2026-05-10T10:36:22Z</time>
      </trkpt>
      <trkpt lat="46.13253" lon="5.65292">
        <ele>989.4</ele>
        <time>2026-05-10T10:36:23Z</time>
      </trkpt>
      <trkpt lat="46.13261" lon="5.65297">
        <ele>989.4</ele>
        <time>2026-05-10T10:36:24Z</time>
      </trkpt>
      <trkpt lat="46.13269" lon="5.65302">
        <ele>988.4</ele>
        <time>2026-05-10T10:36:25Z</time>
      </trkpt>
      <trkpt lat="46.13275" lon="5.65306">
        <ele>987.6</ele>
        <time>2026-05-10T10:36:26Z</time>
      </trkpt>
      <trkpt lat="46.13282" lon="5.65311">
        <ele>987.4</ele>
        <time>2026-05-10T10:36:27Z</time>
      </trkpt>
      <trkpt lat="46.13289" lon="5.65316">
        <ele>986.8</ele>
        <time>2026-05-10T10:36:28Z</time>
      </trkpt>
      <trkpt lat="46.13296" lon="5.65321">
        <ele>986.4</ele>
        <time>2026-05-10T10:36:29Z</time>
      </trkpt>
      <trkpt lat="46.13304" lon="5.65325">
        <ele>986</ele>
        <time>2026-05-10T10:36:30Z</time>
      </trkpt>
      <trkpt lat="46.13311" lon="5.65331">
        <ele>985.4</ele>
        <time>2026-05-10T10:36:31Z</time>
      </trkpt>
      <trkpt lat="46.13319" lon="5.65337">
        <ele>985.2</ele>
        <time>2026-05-10T10:36:32Z</time>
      </trkpt>
      <trkpt lat="46.13325" lon="5.65342">
        <ele>984.6</ele>
        <time>2026-05-10T10:36:33Z</time>
      </trkpt>
      <trkpt lat="46.13333" lon="5.6535">
        <ele>984.6</ele>
        <time>2026-05-10T10:36:34Z</time>
      </trkpt>
      <trkpt lat="46.13339" lon="5.65359">
        <ele>984</ele>
        <time>2026-05-10T10:36:35Z</time>
      </trkpt>
      <trkpt lat="46.13345" lon="5.6537">
        <ele>983.6</ele>
        <time>2026-05-10T10:36:36Z</time>
      </trkpt>
      <trkpt lat="46.13349" lon="5.65379">
        <ele>983.4</ele>
        <time>2026-05-10T10:36:37Z</time>
      </trkpt>
      <trkpt lat="46.13352" lon="5.6539">
        <ele>983</ele>
        <time>2026-05-10T10:36:38Z</time>
      </trkpt>
      <trkpt lat="46.13355" lon="5.65402">
        <ele>982.6</ele>
        <time>2026-05-10T10:36:39Z</time>
      </trkpt>
      <trkpt lat="46.13357" lon="5.65414">
        <ele>982</ele>
        <time>2026-05-10T10:36:40Z</time>
      </trkpt>
      <trkpt lat="46.13357" lon="5.65426">
        <ele>981.8</ele>
        <time>2026-05-10T10:36:41Z</time>
      </trkpt>
      <trkpt lat="46.13355" lon="5.65438">
        <ele>981.8</ele>
        <time>2026-05-10T10:36:42Z</time>
      </trkpt>
      <trkpt lat="46.13354" lon="5.65449">
        <ele>981.4</ele>
        <time>2026-05-10T10:36:43Z</time>
      </trkpt>
      <trkpt lat="46.13353" lon="5.65461">
        <ele>981.2</ele>
        <time>2026-05-10T10:36:44Z</time>
      </trkpt>
      <trkpt lat="46.13353" lon="5.65473">
        <ele>980.8</ele>
        <time>2026-05-10T10:36:45Z</time>
      </trkpt>
      <trkpt lat="46.13354" lon="5.65484">
        <ele>980.8</ele>
        <time>2026-05-10T10:36:46Z</time>
      </trkpt>
      <trkpt lat="46.13355" lon="5.65495">
        <ele>980.4</ele>
        <time>2026-05-10T10:36:47Z</time>
      </trkpt>
      <trkpt lat="46.13359" lon="5.65505">
        <ele>980.4</ele>
        <time>2026-05-10T10:36:48Z</time>
      </trkpt>
      <trkpt lat="46.13364" lon="5.65514">
        <ele>980.4</ele>
        <time>2026-05-10T10:36:49Z</time>
      </trkpt>
      <trkpt lat="46.1337" lon="5.65521">
        <ele>980</ele>
        <time>2026-05-10T10:36:50Z</time>
      </trkpt>
      <trkpt lat="46.13376" lon="5.65529">
        <ele>979.6</ele>
        <time>2026-05-10T10:36:51Z</time>
      </trkpt>
      <trkpt lat="46.13382" lon="5.65535">
        <ele>979.6</ele>
        <time>2026-05-10T10:36:52Z</time>
      </trkpt>
      <trkpt lat="46.13389" lon="5.65541">
        <ele>979.2</ele>
        <time>2026-05-10T10:36:53Z</time>
      </trkpt>
      <trkpt lat="46.13396" lon="5.65545">
        <ele>979</ele>
        <time>2026-05-10T10:36:54Z</time>
      </trkpt>
      <trkpt lat="46.13403" lon="5.65549">
        <ele>979</ele>
        <time>2026-05-10T10:36:55Z</time>
      </trkpt>
      <trkpt lat="46.13411" lon="5.65552">
        <ele>978.8</ele>
        <time>2026-05-10T10:36:56Z</time>
      </trkpt>
      <trkpt lat="46.13418" lon="5.65556">
        <ele>978.8</ele>
        <time>2026-05-10T10:36:57Z</time>
      </trkpt>
      <trkpt lat="46.13425" lon="5.65559">
        <ele>978.4</ele>
        <time>2026-05-10T10:36:58Z</time>
      </trkpt>
      <trkpt lat="46.13432" lon="5.65562">
        <ele>978.4</ele>
        <time>2026-05-10T10:36:59Z</time>
      </trkpt>
      <trkpt lat="46.13439" lon="5.65565">
        <ele>977.8</ele>
        <time>2026-05-10T10:37:00Z</time>
      </trkpt>
      <trkpt lat="46.13445" lon="5.65569">
        <ele>977.8</ele>
        <time>2026-05-10T10:37:01Z</time>
      </trkpt>
      <trkpt lat="46.13451" lon="5.65574">
        <ele>977.8</ele>
        <time>2026-05-10T10:37:02Z</time>
      </trkpt>
      <trkpt lat="46.13457" lon="5.6558">
        <ele>977.2</ele>
        <time>2026-05-10T10:37:03Z</time>
      </trkpt>
      <trkpt lat="46.1346" lon="5.65588">
        <ele>977</ele>
        <time>2026-05-10T10:37:04Z</time>
      </trkpt>
      <trkpt lat="46.13464" lon="5.65597">
        <ele>977</ele>
        <time>2026-05-10T10:37:05Z</time>
      </trkpt>
      <trkpt lat="46.13466" lon="5.65607">
        <ele>976.8</ele>
        <time>2026-05-10T10:37:06Z</time>
      </trkpt>
      <trkpt lat="46.13467" lon="5.65617">
        <ele>976.8</ele>
        <time>2026-05-10T10:37:07Z</time>
      </trkpt>
      <trkpt lat="46.13468" lon="5.65627">
        <ele>976.4</ele>
        <time>2026-05-10T10:37:08Z</time>
      </trkpt>
      <trkpt lat="46.13469" lon="5.65636">
        <ele>976.4</ele>
        <time>2026-05-10T10:37:09Z</time>
      </trkpt>
      <trkpt lat="46.13469" lon="5.65645">
        <ele>976.2</ele>
        <time>2026-05-10T10:37:10Z</time>
      </trkpt>
      <trkpt lat="46.13471" lon="5.65653">
        <ele>976.2</ele>
        <time>2026-05-10T10:37:11Z</time>
      </trkpt>
      <trkpt lat="46.13474" lon="5.6566">
        <ele>976.2</ele>
        <time>2026-05-10T10:37:12Z</time>
      </trkpt>
      <trkpt lat="46.13479" lon="5.65667">
        <ele>976.2</ele>
        <time>2026-05-10T10:37:13Z</time>
      </trkpt>
      <trkpt lat="46.13484" lon="5.65671">
        <ele>976.2</ele>
        <time>2026-05-10T10:37:14Z</time>
      </trkpt>
      <trkpt lat="46.1349" lon="5.65673">
        <ele>976</ele>
        <time>2026-05-10T10:37:15Z</time>
      </trkpt>
      <trkpt lat="46.13496" lon="5.65675">
        <ele>976</ele>
        <time>2026-05-10T10:37:16Z</time>
      </trkpt>
      <trkpt lat="46.13503" lon="5.65675">
        <ele>976</ele>
        <time>2026-05-10T10:37:17Z</time>
      </trkpt>
      <trkpt lat="46.13509" lon="5.65673">
        <ele>976</ele>
        <time>2026-05-10T10:37:18Z</time>
      </trkpt>
      <trkpt lat="46.13515" lon="5.65671">
        <ele>976</ele>
        <time>2026-05-10T10:37:19Z</time>
      </trkpt>
      <trkpt lat="46.13521" lon="5.65668">
        <ele>975.6</ele>
        <time>2026-05-10T10:37:20Z</time>
      </trkpt>
      <trkpt lat="46.13527" lon="5.65666">
        <ele>975.6</ele>
        <time>2026-05-10T10:37:21Z</time>
      </trkpt>
      <trkpt lat="46.13531" lon="5.65659">
        <ele>975.6</ele>
        <time>2026-05-10T10:37:22Z</time>
      </trkpt>
      <trkpt lat="46.13538" lon="5.65656">
        <ele>975</ele>
        <time>2026-05-10T10:37:23Z</time>
      </trkpt>
      <trkpt lat="46.13544" lon="5.65653">
        <ele>974.6</ele>
        <time>2026-05-10T10:37:24Z</time>
      </trkpt>
      <trkpt lat="46.1355" lon="5.65651">
        <ele>974.2</ele>
        <time>2026-05-10T10:37:25Z</time>
      </trkpt>
      <trkpt lat="46.13557" lon="5.65648">
        <ele>973.6</ele>
        <time>2026-05-10T10:37:26Z</time>
      </trkpt>
      <trkpt lat="46.13563" lon="5.65645">
        <ele>973</ele>
        <time>2026-05-10T10:37:27Z</time>
      </trkpt>
      <trkpt lat="46.1357" lon="5.65642">
        <ele>972.4</ele>
        <time>2026-05-10T10:37:28Z</time>
      </trkpt>
      <trkpt lat="46.13577" lon="5.65639">
        <ele>971.6</ele>
        <time>2026-05-10T10:37:29Z</time>
      </trkpt>
      <trkpt lat="46.13584" lon="5.65637">
        <ele>971.4</ele>
        <time>2026-05-10T10:37:30Z</time>
      </trkpt>
      <trkpt lat="46.13591" lon="5.65636">
        <ele>971</ele>
        <time>2026-05-10T10:37:31Z</time>
      </trkpt>
      <trkpt lat="46.13598" lon="5.65638">
        <ele>970.8</ele>
        <time>2026-05-10T10:37:32Z</time>
      </trkpt>
      <trkpt lat="46.13605" lon="5.6564">
        <ele>970.6</ele>
        <time>2026-05-10T10:37:33Z</time>
      </trkpt>
      <trkpt lat="46.13611" lon="5.65643">
        <ele>970.2</ele>
        <time>2026-05-10T10:37:34Z</time>
      </trkpt>
      <trkpt lat="46.13618" lon="5.65647">
        <ele>969.8</ele>
        <time>2026-05-10T10:37:35Z</time>
      </trkpt>
      <trkpt lat="46.13625" lon="5.65651">
        <ele>969</ele>
        <time>2026-05-10T10:37:36Z</time>
      </trkpt>
      <trkpt lat="46.13633" lon="5.65654">
        <ele>968.8</ele>
        <time>2026-05-10T10:37:37Z</time>
      </trkpt>
      <trkpt lat="46.1364" lon="5.65658">
        <ele>968.2</ele>
        <time>2026-05-10T10:37:38Z</time>
      </trkpt>
      <trkpt lat="46.13648" lon="5.65662">
        <ele>967.8</ele>
        <time>2026-05-10T10:37:39Z</time>
      </trkpt>
      <trkpt lat="46.13656" lon="5.65666">
        <ele>967.4</ele>
        <time>2026-05-10T10:37:40Z</time>
      </trkpt>
      <trkpt lat="46.13665" lon="5.65668">
        <ele>966.8</ele>
        <time>2026-05-10T10:37:41Z</time>
      </trkpt>
      <trkpt lat="46.13674" lon="5.65669">
        <ele>966.6</ele>
        <time>2026-05-10T10:37:42Z</time>
      </trkpt>
      <trkpt lat="46.13682" lon="5.65667">
        <ele>966</ele>
        <time>2026-05-10T10:37:43Z</time>
      </trkpt>
      <trkpt lat="46.1369" lon="5.65664">
        <ele>965.6</ele>
        <time>2026-05-10T10:37:44Z</time>
      </trkpt>
      <trkpt lat="46.13698" lon="5.6566">
        <ele>965</ele>
        <time>2026-05-10T10:37:45Z</time>
      </trkpt>
      <trkpt lat="46.13706" lon="5.65654">
        <ele>964.2</ele>
        <time>2026-05-10T10:37:46Z</time>
      </trkpt>
      <trkpt lat="46.13714" lon="5.65647">
        <ele>963.4</ele>
        <time>2026-05-10T10:37:47Z</time>
      </trkpt>
      <trkpt lat="46.13722" lon="5.6564">
        <ele>962.8</ele>
        <time>2026-05-10T10:37:48Z</time>
      </trkpt>
      <trkpt lat="46.1373" lon="5.65635">
        <ele>962.8</ele>
        <time>2026-05-10T10:37:49Z</time>
      </trkpt>
      <trkpt lat="46.13739" lon="5.65632">
        <ele>962.2</ele>
        <time>2026-05-10T10:37:50Z</time>
      </trkpt>
      <trkpt lat="46.13749" lon="5.65631">
        <ele>961.4</ele>
        <time>2026-05-10T10:37:51Z</time>
      </trkpt>
      <trkpt lat="46.13759" lon="5.65633">
        <ele>960.4</ele>
        <time>2026-05-10T10:37:52Z</time>
      </trkpt>
      <trkpt lat="46.13767" lon="5.65636">
        <ele>959.8</ele>
        <time>2026-05-10T10:37:53Z</time>
      </trkpt>
      <trkpt lat="46.13775" lon="5.6564">
        <ele>958.8</ele>
        <time>2026-05-10T10:37:54Z</time>
      </trkpt>
      <trkpt lat="46.13783" lon="5.65643">
        <ele>958.4</ele>
        <time>2026-05-10T10:37:55Z</time>
      </trkpt>
      <trkpt lat="46.13789" lon="5.65646">
        <ele>958.4</ele>
        <time>2026-05-10T10:37:56Z</time>
      </trkpt>
      <trkpt lat="46.13796" lon="5.65651">
        <ele>958</ele>
        <time>2026-05-10T10:37:57Z</time>
      </trkpt>
      <trkpt lat="46.13801" lon="5.65659">
        <ele>957.6</ele>
        <time>2026-05-10T10:37:58Z</time>
      </trkpt>
      <trkpt lat="46.13804" lon="5.65669">
        <ele>956.8</ele>
        <time>2026-05-10T10:37:59Z</time>
      </trkpt>
      <trkpt lat="46.13805" lon="5.6568">
        <ele>956.2</ele>
        <time>2026-05-10T10:38:00Z</time>
      </trkpt>
      <trkpt lat="46.13805" lon="5.65692">
        <ele>955.4</ele>
        <time>2026-05-10T10:38:01Z</time>
      </trkpt>
      <trkpt lat="46.13803" lon="5.65705">
        <ele>954.6</ele>
        <time>2026-05-10T10:38:02Z</time>
      </trkpt>
      <trkpt lat="46.13801" lon="5.65717">
        <ele>953.8</ele>
        <time>2026-05-10T10:38:03Z</time>
      </trkpt>
      <trkpt lat="46.13799" lon="5.6573">
        <ele>953</ele>
        <time>2026-05-10T10:38:04Z</time>
      </trkpt>
      <trkpt lat="46.13796" lon="5.65742">
        <ele>952.6</ele>
        <time>2026-05-10T10:38:05Z</time>
      </trkpt>
      <trkpt lat="46.13795" lon="5.65755">
        <ele>952.2</ele>
        <time>2026-05-10T10:38:06Z</time>
      </trkpt>
      <trkpt lat="46.13792" lon="5.6577">
        <ele>952.2</ele>
        <time>2026-05-10T10:38:07Z</time>
      </trkpt>
      <trkpt lat="46.13791" lon="5.65782">
        <ele>951.2</ele>
        <time>2026-05-10T10:38:08Z</time>
      </trkpt>
      <trkpt lat="46.1379" lon="5.65795">
        <ele>950.4</ele>
        <time>2026-05-10T10:38:09Z</time>
      </trkpt>
      <trkpt lat="46.13789" lon="5.65807">
        <ele>949.8</ele>
        <time>2026-05-10T10:38:10Z</time>
      </trkpt>
      <trkpt lat="46.1379" lon="5.65819">
        <ele>949.4</ele>
        <time>2026-05-10T10:38:11Z</time>
      </trkpt>
      <trkpt lat="46.13792" lon="5.65831">
        <ele>949</ele>
        <time>2026-05-10T10:38:12Z</time>
      </trkpt>
      <trkpt lat="46.13795" lon="5.65843">
        <ele>948.4</ele>
        <time>2026-05-10T10:38:13Z</time>
      </trkpt>
      <trkpt lat="46.13799" lon="5.65854">
        <ele>948</ele>
        <time>2026-05-10T10:38:14Z</time>
      </trkpt>
      <trkpt lat="46.13804" lon="5.65866">
        <ele>947.2</ele>
        <time>2026-05-10T10:38:15Z</time>
      </trkpt>
      <trkpt lat="46.1381" lon="5.65875">
        <ele>946.6</ele>
        <time>2026-05-10T10:38:16Z</time>
      </trkpt>
      <trkpt lat="46.13817" lon="5.65885">
        <ele>945.4</ele>
        <time>2026-05-10T10:38:17Z</time>
      </trkpt>
      <trkpt lat="46.13823" lon="5.65894">
        <ele>944.8</ele>
        <time>2026-05-10T10:38:18Z</time>
      </trkpt>
      <trkpt lat="46.1383" lon="5.65904">
        <ele>944.8</ele>
        <time>2026-05-10T10:38:19Z</time>
      </trkpt>
      <trkpt lat="46.13835" lon="5.65914">
        <ele>944.2</ele>
        <time>2026-05-10T10:38:20Z</time>
      </trkpt>
      <trkpt lat="46.13841" lon="5.65925">
        <ele>944.2</ele>
        <time>2026-05-10T10:38:21Z</time>
      </trkpt>
      <trkpt lat="46.13844" lon="5.65934">
        <ele>943.4</ele>
        <time>2026-05-10T10:38:22Z</time>
      </trkpt>
      <trkpt lat="46.13848" lon="5.65945">
        <ele>943</ele>
        <time>2026-05-10T10:38:23Z</time>
      </trkpt>
      <trkpt lat="46.1385" lon="5.65956">
        <ele>942.8</ele>
        <time>2026-05-10T10:38:24Z</time>
      </trkpt>
      <trkpt lat="46.13852" lon="5.65967">
        <ele>942.6</ele>
        <time>2026-05-10T10:38:25Z</time>
      </trkpt>
      <trkpt lat="46.13852" lon="5.65979">
        <ele>942</ele>
        <time>2026-05-10T10:38:26Z</time>
      </trkpt>
      <trkpt lat="46.13851" lon="5.66001">
        <ele>941.6</ele>
        <time>2026-05-10T10:38:27Z</time>
      </trkpt>
      <trkpt lat="46.13849" lon="5.66008">
        <ele>941.2</ele>
        <time>2026-05-10T10:38:28Z</time>
      </trkpt>
      <trkpt lat="46.13848" lon="5.66018">
        <ele>941.2</ele>
        <time>2026-05-10T10:38:29Z</time>
      </trkpt>
      <trkpt lat="46.13846" lon="5.66028">
        <ele>940.8</ele>
        <time>2026-05-10T10:38:30Z</time>
      </trkpt>
      <trkpt lat="46.13844" lon="5.66038">
        <ele>940.4</ele>
        <time>2026-05-10T10:38:31Z</time>
      </trkpt>
      <trkpt lat="46.13842" lon="5.66047">
        <ele>939.8</ele>
        <time>2026-05-10T10:38:32Z</time>
      </trkpt>
      <trkpt lat="46.1384" lon="5.66056">
        <ele>939.6</ele>
        <time>2026-05-10T10:38:33Z</time>
      </trkpt>
      <trkpt lat="46.13839" lon="5.66064">
        <ele>939.2</ele>
        <time>2026-05-10T10:38:34Z</time>
      </trkpt>
      <trkpt lat="46.13835" lon="5.66073">
        <ele>938.8</ele>
        <time>2026-05-10T10:38:35Z</time>
      </trkpt>
      <trkpt lat="46.13833" lon="5.6608">
        <ele>938.4</ele>
        <time>2026-05-10T10:38:36Z</time>
      </trkpt>
      <trkpt lat="46.1383" lon="5.66088">
        <ele>938</ele>
        <time>2026-05-10T10:38:37Z</time>
      </trkpt>
      <trkpt lat="46.13826" lon="5.66096">
        <ele>937.4</ele>
        <time>2026-05-10T10:38:38Z</time>
      </trkpt>
      <trkpt lat="46.13822" lon="5.66103">
        <ele>937.2</ele>
        <time>2026-05-10T10:38:39Z</time>
      </trkpt>
      <trkpt lat="46.13818" lon="5.66112">
        <ele>936.8</ele>
        <time>2026-05-10T10:38:40Z</time>
      </trkpt>
      <trkpt lat="46.13815" lon="5.66121">
        <ele>936.4</ele>
        <time>2026-05-10T10:38:41Z</time>
      </trkpt>
      <trkpt lat="46.13813" lon="5.66131">
        <ele>935.4</ele>
        <time>2026-05-10T10:38:42Z</time>
      </trkpt>
      <trkpt lat="46.1381" lon="5.66142">
        <ele>934.8</ele>
        <time>2026-05-10T10:38:43Z</time>
      </trkpt>
      <trkpt lat="46.13808" lon="5.66153">
        <ele>934.2</ele>
        <time>2026-05-10T10:38:44Z</time>
      </trkpt>
      <trkpt lat="46.13802" lon="5.66162">
        <ele>933.6</ele>
        <time>2026-05-10T10:38:45Z</time>
      </trkpt>
      <trkpt lat="46.13799" lon="5.66171">
        <ele>933.2</ele>
        <time>2026-05-10T10:38:46Z</time>
      </trkpt>
      <trkpt lat="46.13795" lon="5.66179">
        <ele>932.4</ele>
        <time>2026-05-10T10:38:47Z</time>
      </trkpt>
      <trkpt lat="46.13792" lon="5.66186">
        <ele>931.8</ele>
        <time>2026-05-10T10:38:48Z</time>
      </trkpt>
      <trkpt lat="46.1379" lon="5.66193">
        <ele>931.4</ele>
        <time>2026-05-10T10:38:49Z</time>
      </trkpt>
      <trkpt lat="46.13788" lon="5.662">
        <ele>931</ele>
        <time>2026-05-10T10:38:50Z</time>
      </trkpt>
      <trkpt lat="46.13787" lon="5.66207">
        <ele>931</ele>
        <time>2026-05-10T10:38:51Z</time>
      </trkpt>
      <trkpt lat="46.13789" lon="5.66213">
        <ele>930.4</ele>
        <time>2026-05-10T10:38:52Z</time>
      </trkpt>
      <trkpt lat="46.13791" lon="5.66219">
        <ele>930</ele>
        <time>2026-05-10T10:38:53Z</time>
      </trkpt>
      <trkpt lat="46.13796" lon="5.66224">
        <ele>929.4</ele>
        <time>2026-05-10T10:38:54Z</time>
      </trkpt>
      <trkpt lat="46.13799" lon="5.66231">
        <ele>928.8</ele>
        <time>2026-05-10T10:38:55Z</time>
      </trkpt>
      <trkpt lat="46.13801" lon="5.66236">
        <ele>927.8</ele>
        <time>2026-05-10T10:38:56Z</time>
      </trkpt>
      <trkpt lat="46.13803" lon="5.66242">
        <ele>927.4</ele>
        <time>2026-05-10T10:38:57Z</time>
      </trkpt>
      <trkpt lat="46.13803" lon="5.66242">
        <ele>927.4</ele>
        <time>2026-05-10T10:38:58Z</time>
      </trkpt>
      <trkpt lat="46.13805" lon="5.66247">
        <ele>927.2</ele>
        <time>2026-05-10T10:38:59Z</time>
      </trkpt>
      <trkpt lat="46.13808" lon="5.66253">
        <ele>927.2</ele>
        <time>2026-05-10T10:39:00Z</time>
      </trkpt>
      <trkpt lat="46.13809" lon="5.66259">
        <ele>926.6</ele>
        <time>2026-05-10T10:39:01Z</time>
      </trkpt>
      <trkpt lat="46.13809" lon="5.66266">
        <ele>926.6</ele>
        <time>2026-05-10T10:39:02Z</time>
      </trkpt>
      <trkpt lat="46.13809" lon="5.66274">
        <ele>926.2</ele>
        <time>2026-05-10T10:39:03Z</time>
      </trkpt>
      <trkpt lat="46.13809" lon="5.66281">
        <ele>926.2</ele>
        <time>2026-05-10T10:39:04Z</time>
      </trkpt>
      <trkpt lat="46.13809" lon="5.6629">
        <ele>925.2</ele>
        <time>2026-05-10T10:39:05Z</time>
      </trkpt>
      <trkpt lat="46.13808" lon="5.66297">
        <ele>924.4</ele>
        <time>2026-05-10T10:39:06Z</time>
      </trkpt>
      <trkpt lat="46.13808" lon="5.66305">
        <ele>924.4</ele>
        <time>2026-05-10T10:39:07Z</time>
      </trkpt>
      <trkpt lat="46.13809" lon="5.66313">
        <ele>924.8</ele>
        <time>2026-05-10T10:39:08Z</time>
      </trkpt>
      <trkpt lat="46.13809" lon="5.66321">
        <ele>924.4</ele>
        <time>2026-05-10T10:39:09Z</time>
      </trkpt>
      <trkpt lat="46.1381" lon="5.6633">
        <ele>924</ele>
        <time>2026-05-10T10:39:10Z</time>
      </trkpt>
      <trkpt lat="46.13811" lon="5.66338">
        <ele>923.6</ele>
        <time>2026-05-10T10:39:11Z</time>
      </trkpt>
      <trkpt lat="46.13812" lon="5.66346">
        <ele>923.6</ele>
        <time>2026-05-10T10:39:12Z</time>
      </trkpt>
      <trkpt lat="46.13814" lon="5.66353">
        <ele>923.6</ele>
        <time>2026-05-10T10:39:13Z</time>
      </trkpt>
      <trkpt lat="46.13815" lon="5.66361">
        <ele>924</ele>
        <time>2026-05-10T10:39:14Z</time>
      </trkpt>
      <trkpt lat="46.13817" lon="5.66366">
        <ele>924</ele>
        <time>2026-05-10T10:39:15Z</time>
      </trkpt>
      <trkpt lat="46.13818" lon="5.66372">
        <ele>923.4</ele>
        <time>2026-05-10T10:39:16Z</time>
      </trkpt>
      <trkpt lat="46.13819" lon="5.66377">
        <ele>923.8</ele>
        <time>2026-05-10T10:39:17Z</time>
      </trkpt>
      <trkpt lat="46.1382" lon="5.66383">
        <ele>923.8</ele>
        <time>2026-05-10T10:39:18Z</time>
      </trkpt>
      <trkpt lat="46.13821" lon="5.66389">
        <ele>923.8</ele>
        <time>2026-05-10T10:39:19Z</time>
      </trkpt>
      <trkpt lat="46.13822" lon="5.66395">
        <ele>924.2</ele>
        <time>2026-05-10T10:39:20Z</time>
      </trkpt>
      <trkpt lat="46.13823" lon="5.664">
        <ele>924.2</ele>
        <time>2026-05-10T10:39:21Z</time>
      </trkpt>
      <trkpt lat="46.13823" lon="5.66406">
        <ele>924.2</ele>
        <time>2026-05-10T10:39:22Z</time>
      </trkpt>
      <trkpt lat="46.13824" lon="5.66411">
        <ele>924.4</ele>
        <time>2026-05-10T10:39:23Z</time>
      </trkpt>
      <trkpt lat="46.13824" lon="5.66416">
        <ele>924.4</ele>
        <time>2026-05-10T10:39:24Z</time>
      </trkpt>
      <trkpt lat="46.13825" lon="5.66421">
        <ele>924.4</ele>
        <time>2026-05-10T10:39:25Z</time>
      </trkpt>
      <trkpt lat="46.13826" lon="5.66427">
        <ele>924.4</ele>
        <time>2026-05-10T10:39:26Z</time>
      </trkpt>
      <trkpt lat="46.13826" lon="5.66432">
        <ele>924.4</ele>
        <time>2026-05-10T10:39:27Z</time>
      </trkpt>
      <trkpt lat="46.13827" lon="5.66437">
        <ele>924.6</ele>
        <time>2026-05-10T10:39:28Z</time>
      </trkpt>
      <trkpt lat="46.13828" lon="5.66442">
        <ele>924.6</ele>
        <time>2026-05-10T10:39:29Z</time>
      </trkpt>
      <trkpt lat="46.13828" lon="5.66448">
        <ele>924.6</ele>
        <time>2026-05-10T10:39:30Z</time>
      </trkpt>
      <trkpt lat="46.13828" lon="5.66454">
        <ele>924.6</ele>
        <time>2026-05-10T10:39:31Z</time>
      </trkpt>
      <trkpt lat="46.13829" lon="5.66459">
        <ele>924.6</ele>
        <time>2026-05-10T10:39:32Z</time>
      </trkpt>
      <trkpt lat="46.1383" lon="5.66464">
        <ele>924.6</ele>
        <time>2026-05-10T10:39:33Z</time>
      </trkpt>
      <trkpt lat="46.1383" lon="5.66469">
        <ele>924.6</ele>
        <time>2026-05-10T10:39:34Z</time>
      </trkpt>
      <trkpt lat="46.13831" lon="5.66474">
        <ele>924.6</ele>
        <time>2026-05-10T10:39:35Z</time>
      </trkpt>
      <trkpt lat="46.13832" lon="5.66479">
        <ele>924.8</ele>
        <time>2026-05-10T10:39:36Z</time>
      </trkpt>
      <trkpt lat="46.13833" lon="5.66483">
        <ele>924.8</ele>
        <time>2026-05-10T10:39:37Z</time>
      </trkpt>
      <trkpt lat="46.13834" lon="5.66488">
        <ele>925.2</ele>
        <time>2026-05-10T10:39:38Z</time>
      </trkpt>
      <trkpt lat="46.13836" lon="5.66492">
        <ele>925.2</ele>
        <time>2026-05-10T10:39:39Z</time>
      </trkpt>
      <trkpt lat="46.13837" lon="5.66496">
        <ele>925.2</ele>
        <time>2026-05-10T10:39:40Z</time>
      </trkpt>
      <trkpt lat="46.13838" lon="5.66501">
        <ele>924.8</ele>
        <time>2026-05-10T10:39:41Z</time>
      </trkpt>
      <trkpt lat="46.1384" lon="5.66505">
        <ele>925</ele>
        <time>2026-05-10T10:39:42Z</time>
      </trkpt>
      <trkpt lat="46.1384" lon="5.66509">
        <ele>925</ele>
        <time>2026-05-10T10:39:43Z</time>
      </trkpt>
      <trkpt lat="46.13842" lon="5.66513">
        <ele>925.4</ele>
        <time>2026-05-10T10:39:44Z</time>
      </trkpt>
      <trkpt lat="46.13843" lon="5.66518">
        <ele>925.2</ele>
        <time>2026-05-10T10:39:45Z</time>
      </trkpt>
      <trkpt lat="46.13845" lon="5.66523">
        <ele>925.2</ele>
        <time>2026-05-10T10:39:46Z</time>
      </trkpt>
      <trkpt lat="46.13846" lon="5.66527">
        <ele>925.2</ele>
        <time>2026-05-10T10:39:47Z</time>
      </trkpt>
      <trkpt lat="46.13847" lon="5.6653">
        <ele>925.4</ele>
        <time>2026-05-10T10:39:48Z</time>
      </trkpt>
      <trkpt lat="46.13848" lon="5.66532">
        <ele>924.6</ele>
        <time>2026-05-10T10:39:49Z</time>
      </trkpt>
      <trkpt lat="46.13849" lon="5.66536">
        <ele>925</ele>
        <time>2026-05-10T10:39:50Z</time>
      </trkpt>
      <trkpt lat="46.13849" lon="5.66538">
        <ele>925.2</ele>
        <time>2026-05-10T10:39:51Z</time>
      </trkpt>
      <trkpt lat="46.1385" lon="5.66539">
        <ele>925.2</ele>
        <time>2026-05-10T10:39:52Z</time>
      </trkpt>
      <trkpt lat="46.13851" lon="5.66541">
        <ele>925.4</ele>
        <time>2026-05-10T10:39:53Z</time>
      </trkpt>
      <trkpt lat="46.13853" lon="5.66544">
        <ele>925.4</ele>
        <time>2026-05-10T10:39:54Z</time>
      </trkpt>
      <trkpt lat="46.13853" lon="5.66546">
        <ele>925.4</ele>
        <time>2026-05-10T10:39:55Z</time>
      </trkpt>
      <trkpt lat="46.13855" lon="5.66549">
        <ele>925.2</ele>
        <time>2026-05-10T10:39:56Z</time>
      </trkpt>
      <trkpt lat="46.13857" lon="5.66552">
        <ele>924.6</ele>
        <time>2026-05-10T10:39:57Z</time>
      </trkpt>
      <trkpt lat="46.1386" lon="5.66555">
        <ele>924</ele>
        <time>2026-05-10T10:39:58Z</time>
      </trkpt>
      <trkpt lat="46.13863" lon="5.66557">
        <ele>923.4</ele>
        <time>2026-05-10T10:39:59Z</time>
      </trkpt>
      <trkpt lat="46.13867" lon="5.66559">
        <ele>923.2</ele>
        <time>2026-05-10T10:40:00Z</time>
      </trkpt>
      <trkpt lat="46.13872" lon="5.66562">
        <ele>922.6</ele>
        <time>2026-05-10T10:40:01Z</time>
      </trkpt>
      <trkpt lat="46.13876" lon="5.66565">
        <ele>922.4</ele>
        <time>2026-05-10T10:40:02Z</time>
      </trkpt>
      <trkpt lat="46.13881" lon="5.6657">
        <ele>921.8</ele>
        <time>2026-05-10T10:40:03Z</time>
      </trkpt>
      <trkpt lat="46.13885" lon="5.66574">
        <ele>921</ele>
        <time>2026-05-10T10:40:04Z</time>
      </trkpt>
      <trkpt lat="46.13888" lon="5.66578">
        <ele>920.4</ele>
        <time>2026-05-10T10:40:05Z</time>
      </trkpt>
      <trkpt lat="46.13892" lon="5.66582">
        <ele>920.2</ele>
        <time>2026-05-10T10:40:06Z</time>
      </trkpt>
      <trkpt lat="46.13895" lon="5.66586">
        <ele>920.2</ele>
        <time>2026-05-10T10:40:07Z</time>
      </trkpt>
      <trkpt lat="46.13899" lon="5.66591">
        <ele>920</ele>
        <time>2026-05-10T10:40:08Z</time>
      </trkpt>
      <trkpt lat="46.13903" lon="5.66594">
        <ele>920</ele>
        <time>2026-05-10T10:40:09Z</time>
      </trkpt>
      <trkpt lat="46.13907" lon="5.66597">
        <ele>919.6</ele>
        <time>2026-05-10T10:40:10Z</time>
      </trkpt>
      <trkpt lat="46.13909" lon="5.66603">
        <ele>919</ele>
        <time>2026-05-10T10:40:11Z</time>
      </trkpt>
      <trkpt lat="46.13913" lon="5.66607">
        <ele>918.2</ele>
        <time>2026-05-10T10:40:12Z</time>
      </trkpt>
      <trkpt lat="46.13916" lon="5.66613">
        <ele>917.8</ele>
        <time>2026-05-10T10:40:13Z</time>
      </trkpt>
      <trkpt lat="46.1392" lon="5.66619">
        <ele>916.6</ele>
        <time>2026-05-10T10:40:14Z</time>
      </trkpt>
      <trkpt lat="46.13924" lon="5.66626">
        <ele>916.6</ele>
        <time>2026-05-10T10:40:15Z</time>
      </trkpt>
      <trkpt lat="46.13927" lon="5.66631">
        <ele>916.2</ele>
        <time>2026-05-10T10:40:16Z</time>
      </trkpt>
      <trkpt lat="46.1393" lon="5.66636">
        <ele>915.8</ele>
        <time>2026-05-10T10:40:17Z</time>
      </trkpt>
      <trkpt lat="46.13932" lon="5.66642">
        <ele>916</ele>
        <time>2026-05-10T10:40:18Z</time>
      </trkpt>
      <trkpt lat="46.13934" lon="5.66648">
        <ele>916</ele>
        <time>2026-05-10T10:40:19Z</time>
      </trkpt>
      <trkpt lat="46.13938" lon="5.66651">
        <ele>916</ele>
        <time>2026-05-10T10:40:20Z</time>
      </trkpt>
      <trkpt lat="46.13941" lon="5.66654">
        <ele>915.6</ele>
        <time>2026-05-10T10:40:21Z</time>
      </trkpt>
      <trkpt lat="46.13944" lon="5.66656">
        <ele>916</ele>
        <time>2026-05-10T10:40:22Z</time>
      </trkpt>
      <trkpt lat="46.13946" lon="5.66659">
        <ele>916.2</ele>
        <time>2026-05-10T10:40:23Z</time>
      </trkpt>
      <trkpt lat="46.13949" lon="5.66661">
        <ele>916.2</ele>
        <time>2026-05-10T10:40:24Z</time>
      </trkpt>
      <trkpt lat="46.13951" lon="5.66664">
        <ele>915.8</ele>
        <time>2026-05-10T10:40:25Z</time>
      </trkpt>
      <trkpt lat="46.13952" lon="5.66668">
        <ele>916</ele>
        <time>2026-05-10T10:40:26Z</time>
      </trkpt>
      <trkpt lat="46.13953" lon="5.66673">
        <ele>915.8</ele>
        <time>2026-05-10T10:40:27Z</time>
      </trkpt>
      <trkpt lat="46.13954" lon="5.66677">
        <ele>915.8</ele>
        <time>2026-05-10T10:40:28Z</time>
      </trkpt>
      <trkpt lat="46.13954" lon="5.66682">
        <ele>915.8</ele>
        <time>2026-05-10T10:40:29Z</time>
      </trkpt>
      <trkpt lat="46.13953" lon="5.66687">
        <ele>915.8</ele>
        <time>2026-05-10T10:40:30Z</time>
      </trkpt>
      <trkpt lat="46.13954" lon="5.66693">
        <ele>915.8</ele>
        <time>2026-05-10T10:40:31Z</time>
      </trkpt>
      <trkpt lat="46.13955" lon="5.66699">
        <ele>915.8</ele>
        <time>2026-05-10T10:40:32Z</time>
      </trkpt>
      <trkpt lat="46.13958" lon="5.66704">
        <ele>915.8</ele>
        <time>2026-05-10T10:40:33Z</time>
      </trkpt>
      <trkpt lat="46.1396" lon="5.66708">
        <ele>916.2</ele>
        <time>2026-05-10T10:40:34Z</time>
      </trkpt>
      <trkpt lat="46.13962" lon="5.66712">
        <ele>916.6</ele>
        <time>2026-05-10T10:40:35Z</time>
      </trkpt>
      <trkpt lat="46.13963" lon="5.66713">
        <ele>916.8</ele>
        <time>2026-05-10T10:40:36Z</time>
      </trkpt>
      <trkpt lat="46.13964" lon="5.66715">
        <ele>917.2</ele>
        <time>2026-05-10T10:40:37Z</time>
      </trkpt>
      <trkpt lat="46.13965" lon="5.66717">
        <ele>917.2</ele>
        <time>2026-05-10T10:40:38Z</time>
      </trkpt>
      <trkpt lat="46.13967" lon="5.6672">
        <ele>917.2</ele>
        <time>2026-05-10T10:40:39Z</time>
      </trkpt>
      <trkpt lat="46.13969" lon="5.66722">
        <ele>917.2</ele>
        <time>2026-05-10T10:40:40Z</time>
      </trkpt>
      <trkpt lat="46.13971" lon="5.66726">
        <ele>917.2</ele>
        <time>2026-05-10T10:40:41Z</time>
      </trkpt>
      <trkpt lat="46.13973" lon="5.66728">
        <ele>916.8</ele>
        <time>2026-05-10T10:40:42Z</time>
      </trkpt>
      <trkpt lat="46.13976" lon="5.6673">
        <ele>916.8</ele>
        <time>2026-05-10T10:40:43Z</time>
      </trkpt>
      <trkpt lat="46.13977" lon="5.66734">
        <ele>916.6</ele>
        <time>2026-05-10T10:40:44Z</time>
      </trkpt>
      <trkpt lat="46.13977" lon="5.66737">
        <ele>916.4</ele>
        <time>2026-05-10T10:40:45Z</time>
      </trkpt>
      <trkpt lat="46.13979" lon="5.6674">
        <ele>916.4</ele>
        <time>2026-05-10T10:40:46Z</time>
      </trkpt>
      <trkpt lat="46.13982" lon="5.66743">
        <ele>916</ele>
        <time>2026-05-10T10:40:47Z</time>
      </trkpt>
      <trkpt lat="46.13984" lon="5.66744">
        <ele>916</ele>
        <time>2026-05-10T10:40:48Z</time>
      </trkpt>
      <trkpt lat="46.13986" lon="5.66745">
        <ele>916</ele>
        <time>2026-05-10T10:40:49Z</time>
      </trkpt>
      <trkpt lat="46.13987" lon="5.66746">
        <ele>916</ele>
        <time>2026-05-10T10:40:50Z</time>
      </trkpt>
      <trkpt lat="46.13989" lon="5.66748">
        <ele>916</ele>
        <time>2026-05-10T10:40:51Z</time>
      </trkpt>
      <trkpt lat="46.13991" lon="5.6675">
        <ele>915.6</ele>
        <time>2026-05-10T10:40:52Z</time>
      </trkpt>
      <trkpt lat="46.13994" lon="5.66752">
        <ele>915.6</ele>
        <time>2026-05-10T10:40:53Z</time>
      </trkpt>
      <trkpt lat="46.13996" lon="5.66754">
        <ele>915</ele>
        <time>2026-05-10T10:40:54Z</time>
      </trkpt>
      <trkpt lat="46.13998" lon="5.66755">
        <ele>914.6</ele>
        <time>2026-05-10T10:40:55Z</time>
      </trkpt>
      <trkpt lat="46.14001" lon="5.66757">
        <ele>914.6</ele>
        <time>2026-05-10T10:40:56Z</time>
      </trkpt>
      <trkpt lat="46.14004" lon="5.66759">
        <ele>914.6</ele>
        <time>2026-05-10T10:40:57Z</time>
      </trkpt>
      <trkpt lat="46.14007" lon="5.66761">
        <ele>914.4</ele>
        <time>2026-05-10T10:40:58Z</time>
      </trkpt>
      <trkpt lat="46.14011" lon="5.66763">
        <ele>914.4</ele>
        <time>2026-05-10T10:40:59Z</time>
      </trkpt>
      <trkpt lat="46.14015" lon="5.66765">
        <ele>914.4</ele>
        <time>2026-05-10T10:41:00Z</time>
      </trkpt>
      <trkpt lat="46.14018" lon="5.66766">
        <ele>914.4</ele>
        <time>2026-05-10T10:41:01Z</time>
      </trkpt>
      <trkpt lat="46.14022" lon="5.66768">
        <ele>914.2</ele>
        <time>2026-05-10T10:41:02Z</time>
      </trkpt>
      <trkpt lat="46.14026" lon="5.66769">
        <ele>913.6</ele>
        <time>2026-05-10T10:41:03Z</time>
      </trkpt>
      <trkpt lat="46.14029" lon="5.6677">
        <ele>913.6</ele>
        <time>2026-05-10T10:41:04Z</time>
      </trkpt>
      <trkpt lat="46.14033" lon="5.66772">
        <ele>913.6</ele>
        <time>2026-05-10T10:41:05Z</time>
      </trkpt>
      <trkpt lat="46.14037" lon="5.66773">
        <ele>913.6</ele>
        <time>2026-05-10T10:41:06Z</time>
      </trkpt>
      <trkpt lat="46.1404" lon="5.66774">
        <ele>913.6</ele>
        <time>2026-05-10T10:41:07Z</time>
      </trkpt>
      <trkpt lat="46.14044" lon="5.66775">
        <ele>913.6</ele>
        <time>2026-05-10T10:41:08Z</time>
      </trkpt>
      <trkpt lat="46.14047" lon="5.66776">
        <ele>913.6</ele>
        <time>2026-05-10T10:41:09Z</time>
      </trkpt>
      <trkpt lat="46.14051" lon="5.66777">
        <ele>914</ele>
        <time>2026-05-10T10:41:10Z</time>
      </trkpt>
      <trkpt lat="46.14054" lon="5.66778">
        <ele>914</ele>
        <time>2026-05-10T10:41:11Z</time>
      </trkpt>
      <trkpt lat="46.14057" lon="5.66778">
        <ele>914</ele>
        <time>2026-05-10T10:41:12Z</time>
      </trkpt>
      <trkpt lat="46.1406" lon="5.66778">
        <ele>914</ele>
        <time>2026-05-10T10:41:13Z</time>
      </trkpt>
      <trkpt lat="46.14064" lon="5.66778">
        <ele>914</ele>
        <time>2026-05-10T10:41:14Z</time>
      </trkpt>
      <trkpt lat="46.14067" lon="5.66779">
        <ele>914</ele>
        <time>2026-05-10T10:41:15Z</time>
      </trkpt>
      <trkpt lat="46.1407" lon="5.6678">
        <ele>914</ele>
        <time>2026-05-10T10:41:16Z</time>
      </trkpt>
      <trkpt lat="46.14072" lon="5.66781">
        <ele>914</ele>
        <time>2026-05-10T10:41:17Z</time>
      </trkpt>
      <trkpt lat="46.14075" lon="5.66783">
        <ele>914</ele>
        <time>2026-05-10T10:41:18Z</time>
      </trkpt>
      <trkpt lat="46.14077" lon="5.66784">
        <ele>913.6</ele>
        <time>2026-05-10T10:41:19Z</time>
      </trkpt>
      <trkpt lat="46.14077" lon="5.66784">
        <ele>913.6</ele>
        <time>2026-05-10T10:41:20Z</time>
      </trkpt>
      <trkpt lat="46.14077" lon="5.66784">
        <ele>913.4</ele>
        <time>2026-05-10T10:41:21Z</time>
      </trkpt>
      <trkpt lat="46.14088" lon="5.66794">
        <ele>913</ele>
        <time>2026-05-10T10:41:23Z</time>
      </trkpt>
      <trkpt lat="46.1409" lon="5.66797">
        <ele>912.8</ele>
        <time>2026-05-10T10:41:24Z</time>
      </trkpt>
      <trkpt lat="46.14092" lon="5.668">
        <ele>912.8</ele>
        <time>2026-05-10T10:41:25Z</time>
      </trkpt>
      <trkpt lat="46.14094" lon="5.66802">
        <ele>912.8</ele>
        <time>2026-05-10T10:41:26Z</time>
      </trkpt>
      <trkpt lat="46.14096" lon="5.66804">
        <ele>912.8</ele>
        <time>2026-05-10T10:41:27Z</time>
      </trkpt>
      <trkpt lat="46.14097" lon="5.66806">
        <ele>912.8</ele>
        <time>2026-05-10T10:41:28Z</time>
      </trkpt>
      <trkpt lat="46.14099" lon="5.66807">
        <ele>912.8</ele>
        <time>2026-05-10T10:41:29Z</time>
      </trkpt>
      <trkpt lat="46.141" lon="5.66808">
        <ele>912.4</ele>
        <time>2026-05-10T10:41:30Z</time>
      </trkpt>
      <trkpt lat="46.14101" lon="5.66809">
        <ele>912.4</ele>
        <time>2026-05-10T10:41:31Z</time>
      </trkpt>
      <trkpt lat="46.14102" lon="5.66809">
        <ele>912.4</ele>
        <time>2026-05-10T10:41:32Z</time>
      </trkpt>
      <trkpt lat="46.14102" lon="5.66809">
        <ele>912.2</ele>
        <time>2026-05-10T10:41:33Z</time>
      </trkpt>
      <trkpt lat="46.14102" lon="5.66809">
        <ele>912.2</ele>
        <time>2026-05-10T10:41:34Z</time>
      </trkpt>
      <trkpt lat="46.14101" lon="5.66809">
        <ele>912.2</ele>
        <time>2026-05-10T10:41:35Z</time>
      </trkpt>
      <trkpt lat="46.14101" lon="5.66809">
        <ele>912.2</ele>
        <time>2026-05-10T10:41:36Z</time>
      </trkpt>
      <trkpt lat="46.14102" lon="5.66811">
        <ele>912.4</ele>
        <time>2026-05-10T10:41:40Z</time>
      </trkpt>
      <trkpt lat="46.14102" lon="5.66811">
        <ele>912.4</ele>
        <time>2026-05-10T10:41:41Z</time>
      </trkpt>
      <trkpt lat="46.14102" lon="5.66811">
        <ele>912.2</ele>
        <time>2026-05-10T10:41:42Z</time>
      </trkpt>
      <trkpt lat="46.14105" lon="5.66812">
        <ele>912.2</ele>
        <time>2026-05-10T10:41:56Z</time>
      </trkpt>
      <trkpt lat="46.14105" lon="5.66813">
        <ele>912.2</ele>
        <time>2026-05-10T10:41:57Z</time>
      </trkpt>
      <trkpt lat="46.14106" lon="5.66814">
        <ele>912.2</ele>
        <time>2026-05-10T10:41:58Z</time>
      </trkpt>
      <trkpt lat="46.14106" lon="5.66814">
        <ele>912.2</ele>
        <time>2026-05-10T10:41:59Z</time>
      </trkpt>
      <trkpt lat="46.14106" lon="5.66814">
        <ele>912.2</ele>
        <time>2026-05-10T10:42:00Z</time>
      </trkpt>
      <trkpt lat="46.14106" lon="5.66814">
        <ele>912.2</ele>
        <time>2026-05-10T10:42:01Z</time>
      </trkpt>
      <trkpt lat="46.14107" lon="5.66814">
        <ele>912.4</ele>
        <time>2026-05-10T10:42:23Z</time>
      </trkpt>
      <trkpt lat="46.14108" lon="5.66815">
        <ele>912.4</ele>
        <time>2026-05-10T10:42:24Z</time>
      </trkpt>
      <trkpt lat="46.14108" lon="5.66815">
        <ele>912.4</ele>
        <time>2026-05-10T10:42:25Z</time>
      </trkpt>
      <trkpt lat="46.14107" lon="5.66815">
        <ele>912.2</ele>
        <time>2026-05-10T10:42:26Z</time>
      </trkpt>
      <trkpt lat="46.14108" lon="5.66818">
        <ele>912.2</ele>
        <time>2026-05-10T10:42:45Z</time>
      </trkpt>
      <trkpt lat="46.14109" lon="5.6682">
        <ele>912.2</ele>
        <time>2026-05-10T10:42:46Z</time>
      </trkpt>
      <trkpt lat="46.1411" lon="5.66821">
        <ele>912.2</ele>
        <time>2026-05-10T10:42:47Z</time>
      </trkpt>
      <trkpt lat="46.14111" lon="5.66823">
        <ele>912.2</ele>
        <time>2026-05-10T10:42:48Z</time>
      </trkpt>
      <trkpt lat="46.14112" lon="5.66826">
        <ele>912.2</ele>
        <time>2026-05-10T10:42:49Z</time>
      </trkpt>
      <trkpt lat="46.14114" lon="5.66829">
        <ele>912</ele>
        <time>2026-05-10T10:42:50Z</time>
      </trkpt>
      <trkpt lat="46.14115" lon="5.6683">
        <ele>912</ele>
        <time>2026-05-10T10:42:51Z</time>
      </trkpt>
      <trkpt lat="46.14117" lon="5.66833">
        <ele>911.6</ele>
        <time>2026-05-10T10:42:52Z</time>
      </trkpt>
      <trkpt lat="46.14118" lon="5.66836">
        <ele>911.6</ele>
        <time>2026-05-10T10:42:53Z</time>
      </trkpt>
      <trkpt lat="46.1412" lon="5.6684">
        <ele>911.2</ele>
        <time>2026-05-10T10:42:54Z</time>
      </trkpt>
      <trkpt lat="46.14122" lon="5.66844">
        <ele>911.2</ele>
        <time>2026-05-10T10:42:55Z</time>
      </trkpt>
      <trkpt lat="46.14123" lon="5.66847">
        <ele>911.2</ele>
        <time>2026-05-10T10:42:56Z</time>
      </trkpt>
      <trkpt lat="46.14123" lon="5.6685">
        <ele>911.2</ele>
        <time>2026-05-10T10:42:57Z</time>
      </trkpt>
      <trkpt lat="46.14124" lon="5.66853">
        <ele>911.2</ele>
        <time>2026-05-10T10:42:58Z</time>
      </trkpt>
      <trkpt lat="46.14125" lon="5.66856">
        <ele>911.2</ele>
        <time>2026-05-10T10:42:59Z</time>
      </trkpt>
      <trkpt lat="46.14126" lon="5.66859">
        <ele>911.2</ele>
        <time>2026-05-10T10:43:00Z</time>
      </trkpt>
      <trkpt lat="46.14128" lon="5.66862">
        <ele>911.6</ele>
        <time>2026-05-10T10:43:01Z</time>
      </trkpt>
      <trkpt lat="46.14129" lon="5.66865">
        <ele>911.6</ele>
        <time>2026-05-10T10:43:02Z</time>
      </trkpt>
      <trkpt lat="46.1413" lon="5.66868">
        <ele>911.8</ele>
        <time>2026-05-10T10:43:03Z</time>
      </trkpt>
      <trkpt lat="46.14131" lon="5.66871">
        <ele>911.8</ele>
        <time>2026-05-10T10:43:04Z</time>
      </trkpt>
      <trkpt lat="46.14132" lon="5.66875">
        <ele>911.6</ele>
        <time>2026-05-10T10:43:05Z</time>
      </trkpt>
      <trkpt lat="46.14133" lon="5.66879">
        <ele>911.6</ele>
        <time>2026-05-10T10:43:06Z</time>
      </trkpt>
      <trkpt lat="46.14134" lon="5.66885">
        <ele>911</ele>
        <time>2026-05-10T10:43:07Z</time>
      </trkpt>
      <trkpt lat="46.14134" lon="5.6689">
        <ele>911</ele>
        <time>2026-05-10T10:43:08Z</time>
      </trkpt>
      <trkpt lat="46.14135" lon="5.66894">
        <ele>911</ele>
        <time>2026-05-10T10:43:09Z</time>
      </trkpt>
      <trkpt lat="46.14136" lon="5.66897">
        <ele>911.2</ele>
        <time>2026-05-10T10:43:10Z</time>
      </trkpt>
      <trkpt lat="46.14137" lon="5.66901">
        <ele>911.2</ele>
        <time>2026-05-10T10:43:11Z</time>
      </trkpt>
      <trkpt lat="46.14138" lon="5.66905">
        <ele>911</ele>
        <time>2026-05-10T10:43:12Z</time>
      </trkpt>
      <trkpt lat="46.14139" lon="5.66909">
        <ele>911</ele>
        <time>2026-05-10T10:43:13Z</time>
      </trkpt>
      <trkpt lat="46.1414" lon="5.66913">
        <ele>911</ele>
        <time>2026-05-10T10:43:14Z</time>
      </trkpt>
      <trkpt lat="46.1414" lon="5.66918">
        <ele>911</ele>
        <time>2026-05-10T10:43:15Z</time>
      </trkpt>
      <trkpt lat="46.1414" lon="5.66922">
        <ele>911</ele>
        <time>2026-05-10T10:43:16Z</time>
      </trkpt>
      <trkpt lat="46.14141" lon="5.66926">
        <ele>911</ele>
        <time>2026-05-10T10:43:17Z</time>
      </trkpt>
      <trkpt lat="46.14141" lon="5.66929">
        <ele>911</ele>
        <time>2026-05-10T10:43:18Z</time>
      </trkpt>
      <trkpt lat="46.14141" lon="5.66933">
        <ele>911</ele>
        <time>2026-05-10T10:43:19Z</time>
      </trkpt>
      <trkpt lat="46.14142" lon="5.66936">
        <ele>910.6</ele>
        <time>2026-05-10T10:43:20Z</time>
      </trkpt>
      <trkpt lat="46.14143" lon="5.66939">
        <ele>910.6</ele>
        <time>2026-05-10T10:43:21Z</time>
      </trkpt>
      <trkpt lat="46.14144" lon="5.66943">
        <ele>910.4</ele>
        <time>2026-05-10T10:43:22Z</time>
      </trkpt>
      <trkpt lat="46.14145" lon="5.66946">
        <ele>910.6</ele>
        <time>2026-05-10T10:43:23Z</time>
      </trkpt>
      <trkpt lat="46.14145" lon="5.6695">
        <ele>910.6</ele>
        <time>2026-05-10T10:43:24Z</time>
      </trkpt>
      <trkpt lat="46.14145" lon="5.66954">
        <ele>910.6</ele>
        <time>2026-05-10T10:43:25Z</time>
      </trkpt>
      <trkpt lat="46.14145" lon="5.66958">
        <ele>910.6</ele>
        <time>2026-05-10T10:43:26Z</time>
      </trkpt>
      <trkpt lat="46.14146" lon="5.66961">
        <ele>911</ele>
        <time>2026-05-10T10:43:27Z</time>
      </trkpt>
      <trkpt lat="46.14146" lon="5.66964">
        <ele>911</ele>
        <time>2026-05-10T10:43:28Z</time>
      </trkpt>
      <trkpt lat="46.14147" lon="5.66967">
        <ele>911.6</ele>
        <time>2026-05-10T10:43:29Z</time>
      </trkpt>
      <trkpt lat="46.14148" lon="5.6697">
        <ele>911.6</ele>
        <time>2026-05-10T10:43:30Z</time>
      </trkpt>
      <trkpt lat="46.14149" lon="5.66973">
        <ele>911.6</ele>
        <time>2026-05-10T10:43:31Z</time>
      </trkpt>
      <trkpt lat="46.1415" lon="5.66976">
        <ele>911.6</ele>
        <time>2026-05-10T10:43:32Z</time>
      </trkpt>
      <trkpt lat="46.14151" lon="5.66979">
        <ele>911.2</ele>
        <time>2026-05-10T10:43:33Z</time>
      </trkpt>
      <trkpt lat="46.14152" lon="5.66983">
        <ele>911.2</ele>
        <time>2026-05-10T10:43:34Z</time>
      </trkpt>
      <trkpt lat="46.14153" lon="5.66986">
        <ele>911.2</ele>
        <time>2026-05-10T10:43:35Z</time>
      </trkpt>
      <trkpt lat="46.14153" lon="5.6699">
        <ele>911.2</ele>
        <time>2026-05-10T10:43:36Z</time>
      </trkpt>
      <trkpt lat="46.14154" lon="5.66994">
        <ele>911.2</ele>
        <time>2026-05-10T10:43:37Z</time>
      </trkpt>
      <trkpt lat="46.14155" lon="5.66998">
        <ele>911.2</ele>
        <time>2026-05-10T10:43:38Z</time>
      </trkpt>
      <trkpt lat="46.14156" lon="5.67002">
        <ele>911.4</ele>
        <time>2026-05-10T10:43:39Z</time>
      </trkpt>
      <trkpt lat="46.14157" lon="5.67006">
        <ele>911.4</ele>
        <time>2026-05-10T10:43:40Z</time>
      </trkpt>
      <trkpt lat="46.14158" lon="5.67009">
        <ele>911.4</ele>
        <time>2026-05-10T10:43:41Z</time>
      </trkpt>
      <trkpt lat="46.14158" lon="5.67013">
        <ele>911.2</ele>
        <time>2026-05-10T10:43:42Z</time>
      </trkpt>
      <trkpt lat="46.14159" lon="5.67018">
        <ele>911</ele>
        <time>2026-05-10T10:43:43Z</time>
      </trkpt>
      <trkpt lat="46.14161" lon="5.67023">
        <ele>911</ele>
        <time>2026-05-10T10:43:44Z</time>
      </trkpt>
      <trkpt lat="46.14162" lon="5.67026">
        <ele>911</ele>
        <time>2026-05-10T10:43:45Z</time>
      </trkpt>
      <trkpt lat="46.14163" lon="5.67029">
        <ele>910.8</ele>
        <time>2026-05-10T10:43:46Z</time>
      </trkpt>
      <trkpt lat="46.14164" lon="5.67033">
        <ele>911</ele>
        <time>2026-05-10T10:43:47Z</time>
      </trkpt>
      <trkpt lat="46.14164" lon="5.67037">
        <ele>911</ele>
        <time>2026-05-10T10:43:48Z</time>
      </trkpt>
      <trkpt lat="46.14164" lon="5.67041">
        <ele>911</ele>
        <time>2026-05-10T10:43:49Z</time>
      </trkpt>
      <trkpt lat="46.14165" lon="5.67045">
        <ele>911</ele>
        <time>2026-05-10T10:43:50Z</time>
      </trkpt>
      <trkpt lat="46.14166" lon="5.67049">
        <ele>911</ele>
        <time>2026-05-10T10:43:51Z</time>
      </trkpt>
      <trkpt lat="46.14167" lon="5.67052">
        <ele>911.4</ele>
        <time>2026-05-10T10:43:52Z</time>
      </trkpt>
      <trkpt lat="46.14167" lon="5.67054">
        <ele>911.4</ele>
        <time>2026-05-10T10:43:53Z</time>
      </trkpt>
      <trkpt lat="46.14167" lon="5.67057">
        <ele>911.4</ele>
        <time>2026-05-10T10:43:54Z</time>
      </trkpt>
      <trkpt lat="46.14168" lon="5.6706">
        <ele>911.6</ele>
        <time>2026-05-10T10:43:55Z</time>
      </trkpt>
      <trkpt lat="46.14168" lon="5.67063">
        <ele>911.6</ele>
        <time>2026-05-10T10:43:56Z</time>
      </trkpt>
      <trkpt lat="46.14168" lon="5.67065">
        <ele>911.6</ele>
        <time>2026-05-10T10:43:57Z</time>
      </trkpt>
      <trkpt lat="46.14169" lon="5.67067">
        <ele>911.8</ele>
        <time>2026-05-10T10:43:58Z</time>
      </trkpt>
      <trkpt lat="46.14169" lon="5.67068">
        <ele>911.8</ele>
        <time>2026-05-10T10:43:59Z</time>
      </trkpt>
      <trkpt lat="46.14169" lon="5.67071">
        <ele>911.8</ele>
        <time>2026-05-10T10:44:00Z</time>
      </trkpt>
      <trkpt lat="46.14169" lon="5.67073">
        <ele>911.8</ele>
        <time>2026-05-10T10:44:01Z</time>
      </trkpt>
      <trkpt lat="46.14169" lon="5.67075">
        <ele>911.8</ele>
        <time>2026-05-10T10:44:02Z</time>
      </trkpt>
      <trkpt lat="46.14169" lon="5.67077">
        <ele>911.8</ele>
        <time>2026-05-10T10:44:03Z</time>
      </trkpt>
      <trkpt lat="46.14169" lon="5.6708">
        <ele>911.6</ele>
        <time>2026-05-10T10:44:04Z</time>
      </trkpt>
      <trkpt lat="46.1417" lon="5.67082">
        <ele>911.6</ele>
        <time>2026-05-10T10:44:05Z</time>
      </trkpt>
      <trkpt lat="46.1417" lon="5.67084">
        <ele>911.6</ele>
        <time>2026-05-10T10:44:06Z</time>
      </trkpt>
      <trkpt lat="46.1417" lon="5.67086">
        <ele>911.4</ele>
        <time>2026-05-10T10:44:07Z</time>
      </trkpt>
      <trkpt lat="46.1417" lon="5.67089">
        <ele>911</ele>
        <time>2026-05-10T10:44:08Z</time>
      </trkpt>
      <trkpt lat="46.14171" lon="5.67092">
        <ele>911</ele>
        <time>2026-05-10T10:44:09Z</time>
      </trkpt>
      <trkpt lat="46.14173" lon="5.67096">
        <ele>911</ele>
        <time>2026-05-10T10:44:10Z</time>
      </trkpt>
      <trkpt lat="46.14175" lon="5.671">
        <ele>911</ele>
        <time>2026-05-10T10:44:11Z</time>
      </trkpt>
      <trkpt lat="46.14177" lon="5.67102">
        <ele>910.8</ele>
        <time>2026-05-10T10:44:12Z</time>
      </trkpt>
      <trkpt lat="46.14179" lon="5.67105">
        <ele>910.4</ele>
        <time>2026-05-10T10:44:13Z</time>
      </trkpt>
      <trkpt lat="46.14181" lon="5.67109">
        <ele>910.2</ele>
        <time>2026-05-10T10:44:14Z</time>
      </trkpt>
      <trkpt lat="46.14183" lon="5.67113">
        <ele>910.2</ele>
        <time>2026-05-10T10:44:15Z</time>
      </trkpt>
      <trkpt lat="46.14185" lon="5.67117">
        <ele>909.6</ele>
        <time>2026-05-10T10:44:16Z</time>
      </trkpt>
      <trkpt lat="46.14186" lon="5.67122">
        <ele>909</ele>
        <time>2026-05-10T10:44:17Z</time>
      </trkpt>
      <trkpt lat="46.14187" lon="5.67126">
        <ele>909</ele>
        <time>2026-05-10T10:44:18Z</time>
      </trkpt>
      <trkpt lat="46.14188" lon="5.67131">
        <ele>908.8</ele>
        <time>2026-05-10T10:44:19Z</time>
      </trkpt>
      <trkpt lat="46.1419" lon="5.67139">
        <ele>908.4</ele>
        <time>2026-05-10T10:44:20Z</time>
      </trkpt>
      <trkpt lat="46.14191" lon="5.67148">
        <ele>907.6</ele>
        <time>2026-05-10T10:44:21Z</time>
      </trkpt>
      <trkpt lat="46.14193" lon="5.67155">
        <ele>907.2</ele>
        <time>2026-05-10T10:44:22Z</time>
      </trkpt>
      <trkpt lat="46.14195" lon="5.67162">
        <ele>907.2</ele>
        <time>2026-05-10T10:44:23Z</time>
      </trkpt>
      <trkpt lat="46.14197" lon="5.67168">
        <ele>907.2</ele>
        <time>2026-05-10T10:44:24Z</time>
      </trkpt>
      <trkpt lat="46.142" lon="5.67174">
        <ele>907.6</ele>
        <time>2026-05-10T10:44:25Z</time>
      </trkpt>
      <trkpt lat="46.14199" lon="5.67176">
        <ele>908</ele>
        <time>2026-05-10T10:44:26Z</time>
      </trkpt>
      <trkpt lat="46.142" lon="5.67179">
        <ele>908.4</ele>
        <time>2026-05-10T10:44:27Z</time>
      </trkpt>
      <trkpt lat="46.142" lon="5.67182">
        <ele>908.4</ele>
        <time>2026-05-10T10:44:28Z</time>
      </trkpt>
      <trkpt lat="46.14196" lon="5.67188">
        <ele>908.4</ele>
        <time>2026-05-10T10:44:29Z</time>
      </trkpt>
      <trkpt lat="46.14195" lon="5.67192">
        <ele>908.4</ele>
        <time>2026-05-10T10:44:30Z</time>
      </trkpt>
      <trkpt lat="46.14194" lon="5.67196">
        <ele>908.4</ele>
        <time>2026-05-10T10:44:31Z</time>
      </trkpt>
      <trkpt lat="46.14192" lon="5.67197">
        <ele>908.4</ele>
        <time>2026-05-10T10:44:32Z</time>
      </trkpt>
      <trkpt lat="46.1419" lon="5.672">
        <ele>908.4</ele>
        <time>2026-05-10T10:44:33Z</time>
      </trkpt>
      <trkpt lat="46.1419" lon="5.67201">
        <ele>908.6</ele>
        <time>2026-05-10T10:44:34Z</time>
      </trkpt>
      <trkpt lat="46.1419" lon="5.67202">
        <ele>908.6</ele>
        <time>2026-05-10T10:44:35Z</time>
      </trkpt>
      <trkpt lat="46.1419" lon="5.67203">
        <ele>908.6</ele>
        <time>2026-05-10T10:44:36Z</time>
      </trkpt>
      <trkpt lat="46.14189" lon="5.67205">
        <ele>908.6</ele>
        <time>2026-05-10T10:44:37Z</time>
      </trkpt>
      <trkpt lat="46.1419" lon="5.67208">
        <ele>908.6</ele>
        <time>2026-05-10T10:44:38Z</time>
      </trkpt>
      <trkpt lat="46.1419" lon="5.6721">
        <ele>908.6</ele>
        <time>2026-05-10T10:44:39Z</time>
      </trkpt>
      <trkpt lat="46.1419" lon="5.67212">
        <ele>908.6</ele>
        <time>2026-05-10T10:44:40Z</time>
      </trkpt>
      <trkpt lat="46.14189" lon="5.67213">
        <ele>908.6</ele>
        <time>2026-05-10T10:44:41Z</time>
      </trkpt>
      <trkpt lat="46.14188" lon="5.67215">
        <ele>908.6</ele>
        <time>2026-05-10T10:44:42Z</time>
      </trkpt>
      <trkpt lat="46.14187" lon="5.67218">
        <ele>908.2</ele>
        <time>2026-05-10T10:44:43Z</time>
      </trkpt>
      <trkpt lat="46.14187" lon="5.67221">
        <ele>908.2</ele>
        <time>2026-05-10T10:44:44Z</time>
      </trkpt>
      <trkpt lat="46.14185" lon="5.67225">
        <ele>908.2</ele>
        <time>2026-05-10T10:44:45Z</time>
      </trkpt>
      <trkpt lat="46.14184" lon="5.67228">
        <ele>908.2</ele>
        <time>2026-05-10T10:44:46Z</time>
      </trkpt>
      <trkpt lat="46.14183" lon="5.6723">
        <ele>908.2</ele>
        <time>2026-05-10T10:44:47Z</time>
      </trkpt>
      <trkpt lat="46.14183" lon="5.67233">
        <ele>908.6</ele>
        <time>2026-05-10T10:44:48Z</time>
      </trkpt>
      <trkpt lat="46.14183" lon="5.67237">
        <ele>908.6</ele>
        <time>2026-05-10T10:44:49Z</time>
      </trkpt>
      <trkpt lat="46.14183" lon="5.6724">
        <ele>908.6</ele>
        <time>2026-05-10T10:44:50Z</time>
      </trkpt>
      <trkpt lat="46.14184" lon="5.67242">
        <ele>908.6</ele>
        <time>2026-05-10T10:44:51Z</time>
      </trkpt>
      <trkpt lat="46.14185" lon="5.67245">
        <ele>908.6</ele>
        <time>2026-05-10T10:44:52Z</time>
      </trkpt>
      <trkpt lat="46.14186" lon="5.67248">
        <ele>908.6</ele>
        <time>2026-05-10T10:44:53Z</time>
      </trkpt>
      <trkpt lat="46.14187" lon="5.67251">
        <ele>908.6</ele>
        <time>2026-05-10T10:44:54Z</time>
      </trkpt>
      <trkpt lat="46.14187" lon="5.67255">
        <ele>908.6</ele>
        <time>2026-05-10T10:44:55Z</time>
      </trkpt>
      <trkpt lat="46.14188" lon="5.67259">
        <ele>908.2</ele>
        <time>2026-05-10T10:44:56Z</time>
      </trkpt>
      <trkpt lat="46.14188" lon="5.67263">
        <ele>907.8</ele>
        <time>2026-05-10T10:44:57Z</time>
      </trkpt>
      <trkpt lat="46.14189" lon="5.67267">
        <ele>907.8</ele>
        <time>2026-05-10T10:44:58Z</time>
      </trkpt>
      <trkpt lat="46.14189" lon="5.67272">
        <ele>907.8</ele>
        <time>2026-05-10T10:44:59Z</time>
      </trkpt>
      <trkpt lat="46.14188" lon="5.67278">
        <ele>907.8</ele>
        <time>2026-05-10T10:45:00Z</time>
      </trkpt>
      <trkpt lat="46.14188" lon="5.67282">
        <ele>908.2</ele>
        <time>2026-05-10T10:45:01Z</time>
      </trkpt>
      <trkpt lat="46.14187" lon="5.67291">
        <ele>908.2</ele>
        <time>2026-05-10T10:45:02Z</time>
      </trkpt>
      <trkpt lat="46.14187" lon="5.67294">
        <ele>908.2</ele>
        <time>2026-05-10T10:45:03Z</time>
      </trkpt>
      <trkpt lat="46.14187" lon="5.67297">
        <ele>908.2</ele>
        <time>2026-05-10T10:45:04Z</time>
      </trkpt>
      <trkpt lat="46.14187" lon="5.67299">
        <ele>908.2</ele>
        <time>2026-05-10T10:45:05Z</time>
      </trkpt>
      <trkpt lat="46.14187" lon="5.67304">
        <ele>908.2</ele>
        <time>2026-05-10T10:45:06Z</time>
      </trkpt>
      <trkpt lat="46.14187" lon="5.67309">
        <ele>908</ele>
        <time>2026-05-10T10:45:07Z</time>
      </trkpt>
      <trkpt lat="46.14187" lon="5.67314">
        <ele>907.8</ele>
        <time>2026-05-10T10:45:08Z</time>
      </trkpt>
      <trkpt lat="46.14187" lon="5.6732">
        <ele>907.8</ele>
        <time>2026-05-10T10:45:09Z</time>
      </trkpt>
      <trkpt lat="46.14187" lon="5.67326">
        <ele>907.2</ele>
        <time>2026-05-10T10:45:10Z</time>
      </trkpt>
      <trkpt lat="46.14187" lon="5.67331">
        <ele>907.2</ele>
        <time>2026-05-10T10:45:11Z</time>
      </trkpt>
      <trkpt lat="46.14187" lon="5.67337">
        <ele>907.2</ele>
        <time>2026-05-10T10:45:12Z</time>
      </trkpt>
      <trkpt lat="46.1419" lon="5.67346">
        <ele>906.6</ele>
        <time>2026-05-10T10:45:13Z</time>
      </trkpt>
      <trkpt lat="46.1419" lon="5.67352">
        <ele>906.2</ele>
        <time>2026-05-10T10:45:14Z</time>
      </trkpt>
      <trkpt lat="46.1419" lon="5.67358">
        <ele>905.6</ele>
        <time>2026-05-10T10:45:15Z</time>
      </trkpt>
      <trkpt lat="46.14189" lon="5.67365">
        <ele>905.6</ele>
        <time>2026-05-10T10:45:16Z</time>
      </trkpt>
      <trkpt lat="46.1419" lon="5.67371">
        <ele>905.4</ele>
        <time>2026-05-10T10:45:17Z</time>
      </trkpt>
      <trkpt lat="46.1419" lon="5.67377">
        <ele>905.4</ele>
        <time>2026-05-10T10:45:18Z</time>
      </trkpt>
      <trkpt lat="46.14191" lon="5.67384">
        <ele>905.8</ele>
        <time>2026-05-10T10:45:19Z</time>
      </trkpt>
      <trkpt lat="46.14189" lon="5.6739">
        <ele>905.8</ele>
        <time>2026-05-10T10:45:20Z</time>
      </trkpt>
      <trkpt lat="46.14191" lon="5.67396">
        <ele>905.4</ele>
        <time>2026-05-10T10:45:21Z</time>
      </trkpt>
      <trkpt lat="46.14192" lon="5.67401">
        <ele>905.4</ele>
        <time>2026-05-10T10:45:22Z</time>
      </trkpt>
      <trkpt lat="46.14193" lon="5.67407">
        <ele>905</ele>
        <time>2026-05-10T10:45:23Z</time>
      </trkpt>
      <trkpt lat="46.14195" lon="5.67412">
        <ele>905</ele>
        <time>2026-05-10T10:45:24Z</time>
      </trkpt>
      <trkpt lat="46.14196" lon="5.67418">
        <ele>905.6</ele>
        <time>2026-05-10T10:45:25Z</time>
      </trkpt>
      <trkpt lat="46.14197" lon="5.67424">
        <ele>905.4</ele>
        <time>2026-05-10T10:45:26Z</time>
      </trkpt>
      <trkpt lat="46.14198" lon="5.67431">
        <ele>905.4</ele>
        <time>2026-05-10T10:45:27Z</time>
      </trkpt>
      <trkpt lat="46.14198" lon="5.67437">
        <ele>905.4</ele>
        <time>2026-05-10T10:45:28Z</time>
      </trkpt>
      <trkpt lat="46.142" lon="5.67443">
        <ele>905</ele>
        <time>2026-05-10T10:45:29Z</time>
      </trkpt>
      <trkpt lat="46.14203" lon="5.67448">
        <ele>905</ele>
        <time>2026-05-10T10:45:30Z</time>
      </trkpt>
      <trkpt lat="46.14205" lon="5.67453">
        <ele>905.2</ele>
        <time>2026-05-10T10:45:31Z</time>
      </trkpt>
      <trkpt lat="46.14208" lon="5.6746">
        <ele>905.2</ele>
        <time>2026-05-10T10:45:32Z</time>
      </trkpt>
      <trkpt lat="46.1421" lon="5.67465">
        <ele>904.4</ele>
        <time>2026-05-10T10:45:33Z</time>
      </trkpt>
      <trkpt lat="46.14212" lon="5.67471">
        <ele>904.4</ele>
        <time>2026-05-10T10:45:34Z</time>
      </trkpt>
      <trkpt lat="46.14213" lon="5.67477">
        <ele>904.4</ele>
        <time>2026-05-10T10:45:35Z</time>
      </trkpt>
      <trkpt lat="46.14214" lon="5.67483">
        <ele>904.4</ele>
        <time>2026-05-10T10:45:36Z</time>
      </trkpt>
      <trkpt lat="46.14214" lon="5.67489">
        <ele>904.4</ele>
        <time>2026-05-10T10:45:37Z</time>
      </trkpt>
      <trkpt lat="46.14215" lon="5.67495">
        <ele>904.4</ele>
        <time>2026-05-10T10:45:38Z</time>
      </trkpt>
      <trkpt lat="46.14216" lon="5.675">
        <ele>905</ele>
        <time>2026-05-10T10:45:39Z</time>
      </trkpt>
      <trkpt lat="46.14217" lon="5.67507">
        <ele>904.6</ele>
        <time>2026-05-10T10:45:40Z</time>
      </trkpt>
      <trkpt lat="46.14217" lon="5.67513">
        <ele>904.6</ele>
        <time>2026-05-10T10:45:41Z</time>
      </trkpt>
      <trkpt lat="46.14217" lon="5.67519">
        <ele>904.2</ele>
        <time>2026-05-10T10:45:42Z</time>
      </trkpt>
      <trkpt lat="46.14218" lon="5.67524">
        <ele>904.2</ele>
        <time>2026-05-10T10:45:43Z</time>
      </trkpt>
      <trkpt lat="46.14219" lon="5.67529">
        <ele>903.8</ele>
        <time>2026-05-10T10:45:44Z</time>
      </trkpt>
      <trkpt lat="46.14219" lon="5.67533">
        <ele>903.8</ele>
        <time>2026-05-10T10:45:45Z</time>
      </trkpt>
      <trkpt lat="46.14218" lon="5.67538">
        <ele>904.4</ele>
        <time>2026-05-10T10:45:46Z</time>
      </trkpt>
      <trkpt lat="46.14218" lon="5.67542">
        <ele>904.4</ele>
        <time>2026-05-10T10:45:47Z</time>
      </trkpt>
      <trkpt lat="46.14218" lon="5.67542">
        <ele>904.4</ele>
        <time>2026-05-10T10:45:48Z</time>
      </trkpt>
      <trkpt lat="46.14219" lon="5.67547">
        <ele>904.4</ele>
        <time>2026-05-10T10:45:49Z</time>
      </trkpt>
      <trkpt lat="46.14219" lon="5.67551">
        <ele>904.4</ele>
        <time>2026-05-10T10:45:50Z</time>
      </trkpt>
      <trkpt lat="46.14219" lon="5.67555">
        <ele>904.8</ele>
        <time>2026-05-10T10:45:51Z</time>
      </trkpt>
      <trkpt lat="46.14219" lon="5.6756">
        <ele>904.6</ele>
        <time>2026-05-10T10:45:52Z</time>
      </trkpt>
      <trkpt lat="46.14218" lon="5.67565">
        <ele>904.6</ele>
        <time>2026-05-10T10:45:53Z</time>
      </trkpt>
      <trkpt lat="46.14218" lon="5.6757">
        <ele>905.2</ele>
        <time>2026-05-10T10:45:54Z</time>
      </trkpt>
      <trkpt lat="46.14217" lon="5.67575">
        <ele>905.2</ele>
        <time>2026-05-10T10:45:55Z</time>
      </trkpt>
      <trkpt lat="46.14216" lon="5.6758">
        <ele>905.2</ele>
        <time>2026-05-10T10:45:56Z</time>
      </trkpt>
      <trkpt lat="46.14215" lon="5.67585">
        <ele>905.2</ele>
        <time>2026-05-10T10:45:57Z</time>
      </trkpt>
      <trkpt lat="46.14214" lon="5.67589">
        <ele>905.2</ele>
        <time>2026-05-10T10:45:58Z</time>
      </trkpt>
      <trkpt lat="46.14213" lon="5.67594">
        <ele>905.4</ele>
        <time>2026-05-10T10:45:59Z</time>
      </trkpt>
      <trkpt lat="46.14212" lon="5.67598">
        <ele>905.4</ele>
        <time>2026-05-10T10:46:00Z</time>
      </trkpt>
      <trkpt lat="46.14212" lon="5.67603">
        <ele>905.4</ele>
        <time>2026-05-10T10:46:01Z</time>
      </trkpt>
      <trkpt lat="46.14211" lon="5.67607">
        <ele>905.4</ele>
        <time>2026-05-10T10:46:02Z</time>
      </trkpt>
      <trkpt lat="46.1421" lon="5.67612">
        <ele>905.4</ele>
        <time>2026-05-10T10:46:03Z</time>
      </trkpt>
      <trkpt lat="46.14209" lon="5.67616">
        <ele>905.4</ele>
        <time>2026-05-10T10:46:04Z</time>
      </trkpt>
      <trkpt lat="46.14208" lon="5.6762">
        <ele>905.4</ele>
        <time>2026-05-10T10:46:05Z</time>
      </trkpt>
      <trkpt lat="46.14207" lon="5.67623">
        <ele>905.4</ele>
        <time>2026-05-10T10:46:06Z</time>
      </trkpt>
      <trkpt lat="46.14207" lon="5.67625">
        <ele>905.4</ele>
        <time>2026-05-10T10:46:07Z</time>
      </trkpt>
      <trkpt lat="46.14206" lon="5.67626">
        <ele>905.4</ele>
        <time>2026-05-10T10:46:08Z</time>
      </trkpt>
      <trkpt lat="46.14206" lon="5.67628">
        <ele>905.4</ele>
        <time>2026-05-10T10:46:09Z</time>
      </trkpt>
      <trkpt lat="46.14206" lon="5.67631">
        <ele>905.6</ele>
        <time>2026-05-10T10:46:10Z</time>
      </trkpt>
      <trkpt lat="46.14205" lon="5.67634">
        <ele>905.6</ele>
        <time>2026-05-10T10:46:11Z</time>
      </trkpt>
      <trkpt lat="46.14206" lon="5.67637">
        <ele>905.6</ele>
        <time>2026-05-10T10:46:12Z</time>
      </trkpt>
      <trkpt lat="46.14206" lon="5.6764">
        <ele>906</ele>
        <time>2026-05-10T10:46:13Z</time>
      </trkpt>
      <trkpt lat="46.14207" lon="5.67643">
        <ele>906</ele>
        <time>2026-05-10T10:46:14Z</time>
      </trkpt>
      <trkpt lat="46.14207" lon="5.67645">
        <ele>906.4</ele>
        <time>2026-05-10T10:46:15Z</time>
      </trkpt>
      <trkpt lat="46.14206" lon="5.67648">
        <ele>906.8</ele>
        <time>2026-05-10T10:46:16Z</time>
      </trkpt>
      <trkpt lat="46.14206" lon="5.6765">
        <ele>906.8</ele>
        <time>2026-05-10T10:46:17Z</time>
      </trkpt>
      <trkpt lat="46.14206" lon="5.67652">
        <ele>907</ele>
        <time>2026-05-10T10:46:18Z</time>
      </trkpt>
      <trkpt lat="46.14206" lon="5.67655">
        <ele>907.2</ele>
        <time>2026-05-10T10:46:19Z</time>
      </trkpt>
      <trkpt lat="46.14207" lon="5.67658">
        <ele>907.2</ele>
        <time>2026-05-10T10:46:20Z</time>
      </trkpt>
      <trkpt lat="46.14207" lon="5.6766">
        <ele>907.4</ele>
        <time>2026-05-10T10:46:21Z</time>
      </trkpt>
      <trkpt lat="46.14207" lon="5.67663">
        <ele>907.6</ele>
        <time>2026-05-10T10:46:22Z</time>
      </trkpt>
      <trkpt lat="46.14207" lon="5.67666">
        <ele>907</ele>
        <time>2026-05-10T10:46:23Z</time>
      </trkpt>
      <trkpt lat="46.14206" lon="5.67668">
        <ele>907.6</ele>
        <time>2026-05-10T10:46:24Z</time>
      </trkpt>
      <trkpt lat="46.14206" lon="5.6767">
        <ele>907.6</ele>
        <time>2026-05-10T10:46:25Z</time>
      </trkpt>
      <trkpt lat="46.14205" lon="5.67672">
        <ele>907.6</ele>
        <time>2026-05-10T10:46:26Z</time>
      </trkpt>
      <trkpt lat="46.14205" lon="5.67674">
        <ele>907.6</ele>
        <time>2026-05-10T10:46:27Z</time>
      </trkpt>
      <trkpt lat="46.14205" lon="5.67676">
        <ele>908</ele>
        <time>2026-05-10T10:46:28Z</time>
      </trkpt>
      <trkpt lat="46.14205" lon="5.67679">
        <ele>908</ele>
        <time>2026-05-10T10:46:29Z</time>
      </trkpt>
      <trkpt lat="46.14206" lon="5.67683">
        <ele>908</ele>
        <time>2026-05-10T10:46:30Z</time>
      </trkpt>
      <trkpt lat="46.14207" lon="5.67685">
        <ele>908</ele>
        <time>2026-05-10T10:46:31Z</time>
      </trkpt>
      <trkpt lat="46.14208" lon="5.67687">
        <ele>908.2</ele>
        <time>2026-05-10T10:46:32Z</time>
      </trkpt>
      <trkpt lat="46.14207" lon="5.67689">
        <ele>908.2</ele>
        <time>2026-05-10T10:46:33Z</time>
      </trkpt>
      <trkpt lat="46.14207" lon="5.67691">
        <ele>908.6</ele>
        <time>2026-05-10T10:46:34Z</time>
      </trkpt>
      <trkpt lat="46.14206" lon="5.67693">
        <ele>908.6</ele>
        <time>2026-05-10T10:46:35Z</time>
      </trkpt>
      <trkpt lat="46.14204" lon="5.67695">
        <ele>909</ele>
        <time>2026-05-10T10:46:36Z</time>
      </trkpt>
      <trkpt lat="46.14203" lon="5.67697">
        <ele>909</ele>
        <time>2026-05-10T10:46:37Z</time>
      </trkpt>
      <trkpt lat="46.14202" lon="5.677">
        <ele>909.2</ele>
        <time>2026-05-10T10:46:38Z</time>
      </trkpt>
      <trkpt lat="46.14202" lon="5.67703">
        <ele>909.2</ele>
        <time>2026-05-10T10:46:39Z</time>
      </trkpt>
      <trkpt lat="46.14202" lon="5.67706">
        <ele>909.2</ele>
        <time>2026-05-10T10:46:40Z</time>
      </trkpt>
      <trkpt lat="46.14202" lon="5.67709">
        <ele>909.2</ele>
        <time>2026-05-10T10:46:41Z</time>
      </trkpt>
      <trkpt lat="46.14203" lon="5.67712">
        <ele>909.2</ele>
        <time>2026-05-10T10:46:42Z</time>
      </trkpt>
      <trkpt lat="46.14205" lon="5.67716">
        <ele>908.8</ele>
        <time>2026-05-10T10:46:43Z</time>
      </trkpt>
      <trkpt lat="46.14206" lon="5.67719">
        <ele>908.6</ele>
        <time>2026-05-10T10:46:44Z</time>
      </trkpt>
      <trkpt lat="46.14207" lon="5.67723">
        <ele>908.4</ele>
        <time>2026-05-10T10:46:45Z</time>
      </trkpt>
      <trkpt lat="46.14209" lon="5.67726">
        <ele>908.4</ele>
        <time>2026-05-10T10:46:46Z</time>
      </trkpt>
      <trkpt lat="46.1421" lon="5.6773">
        <ele>908</ele>
        <time>2026-05-10T10:46:47Z</time>
      </trkpt>
      <trkpt lat="46.14212" lon="5.67733">
        <ele>908</ele>
        <time>2026-05-10T10:46:48Z</time>
      </trkpt>
      <trkpt lat="46.14213" lon="5.67737">
        <ele>908</ele>
        <time>2026-05-10T10:46:49Z</time>
      </trkpt>
      <trkpt lat="46.14215" lon="5.67742">
        <ele>907.8</ele>
        <time>2026-05-10T10:46:50Z</time>
      </trkpt>
      <trkpt lat="46.14216" lon="5.67747">
        <ele>907.8</ele>
        <time>2026-05-10T10:46:51Z</time>
      </trkpt>
      <trkpt lat="46.14217" lon="5.67752">
        <ele>907.4</ele>
        <time>2026-05-10T10:46:52Z</time>
      </trkpt>
      <trkpt lat="46.14218" lon="5.67757">
        <ele>907</ele>
        <time>2026-05-10T10:46:53Z</time>
      </trkpt>
      <trkpt lat="46.14218" lon="5.67763">
        <ele>906.8</ele>
        <time>2026-05-10T10:46:54Z</time>
      </trkpt>
      <trkpt lat="46.14219" lon="5.67769">
        <ele>906.4</ele>
        <time>2026-05-10T10:46:55Z</time>
      </trkpt>
      <trkpt lat="46.14219" lon="5.67775">
        <ele>906</ele>
        <time>2026-05-10T10:46:56Z</time>
      </trkpt>
      <trkpt lat="46.1422" lon="5.67782">
        <ele>906</ele>
        <time>2026-05-10T10:46:57Z</time>
      </trkpt>
      <trkpt lat="46.14221" lon="5.67789">
        <ele>905.6</ele>
        <time>2026-05-10T10:46:58Z</time>
      </trkpt>
      <trkpt lat="46.14223" lon="5.67795">
        <ele>905.2</ele>
        <time>2026-05-10T10:46:59Z</time>
      </trkpt>
      <trkpt lat="46.14225" lon="5.67802">
        <ele>905</ele>
        <time>2026-05-10T10:47:00Z</time>
      </trkpt>
      <trkpt lat="46.14229" lon="5.67809">
        <ele>905</ele>
        <time>2026-05-10T10:47:01Z</time>
      </trkpt>
      <trkpt lat="46.14231" lon="5.67815">
        <ele>904.6</ele>
        <time>2026-05-10T10:47:02Z</time>
      </trkpt>
      <trkpt lat="46.14232" lon="5.67821">
        <ele>904.6</ele>
        <time>2026-05-10T10:47:03Z</time>
      </trkpt>
      <trkpt lat="46.14235" lon="5.67826">
        <ele>904.4</ele>
        <time>2026-05-10T10:47:04Z</time>
      </trkpt>
      <trkpt lat="46.14237" lon="5.67833">
        <ele>904.4</ele>
        <time>2026-05-10T10:47:05Z</time>
      </trkpt>
      <trkpt lat="46.1424" lon="5.67839">
        <ele>904.4</ele>
        <time>2026-05-10T10:47:06Z</time>
      </trkpt>
      <trkpt lat="46.14243" lon="5.67844">
        <ele>904.4</ele>
        <time>2026-05-10T10:47:07Z</time>
      </trkpt>
      <trkpt lat="46.14247" lon="5.67851">
        <ele>904.4</ele>
        <time>2026-05-10T10:47:08Z</time>
      </trkpt>
      <trkpt lat="46.14251" lon="5.67858">
        <ele>904.4</ele>
        <time>2026-05-10T10:47:09Z</time>
      </trkpt>
      <trkpt lat="46.14254" lon="5.67865">
        <ele>904.4</ele>
        <time>2026-05-10T10:47:10Z</time>
      </trkpt>
      <trkpt lat="46.14257" lon="5.67872">
        <ele>904</ele>
        <time>2026-05-10T10:47:11Z</time>
      </trkpt>
      <trkpt lat="46.14261" lon="5.67879">
        <ele>904</ele>
        <time>2026-05-10T10:47:12Z</time>
      </trkpt>
      <trkpt lat="46.14264" lon="5.67887">
        <ele>902.6</ele>
        <time>2026-05-10T10:47:13Z</time>
      </trkpt>
      <trkpt lat="46.14267" lon="5.67895">
        <ele>902.6</ele>
        <time>2026-05-10T10:47:14Z</time>
      </trkpt>
      <trkpt lat="46.1427" lon="5.67903">
        <ele>902.4</ele>
        <time>2026-05-10T10:47:15Z</time>
      </trkpt>
      <trkpt lat="46.14274" lon="5.67912">
        <ele>902.4</ele>
        <time>2026-05-10T10:47:16Z</time>
      </trkpt>
      <trkpt lat="46.14278" lon="5.6792">
        <ele>902.2</ele>
        <time>2026-05-10T10:47:17Z</time>
      </trkpt>
      <trkpt lat="46.14282" lon="5.67928">
        <ele>902.2</ele>
        <time>2026-05-10T10:47:18Z</time>
      </trkpt>
      <trkpt lat="46.14287" lon="5.67935">
        <ele>902</ele>
        <time>2026-05-10T10:47:19Z</time>
      </trkpt>
      <trkpt lat="46.14292" lon="5.67941">
        <ele>901.6</ele>
        <time>2026-05-10T10:47:20Z</time>
      </trkpt>
      <trkpt lat="46.14297" lon="5.67948">
        <ele>901.2</ele>
        <time>2026-05-10T10:47:21Z</time>
      </trkpt>
      <trkpt lat="46.14302" lon="5.67955">
        <ele>901</ele>
        <time>2026-05-10T10:47:22Z</time>
      </trkpt>
      <trkpt lat="46.14307" lon="5.67962">
        <ele>900.4</ele>
        <time>2026-05-10T10:47:23Z</time>
      </trkpt>
      <trkpt lat="46.14312" lon="5.67969">
        <ele>900</ele>
        <time>2026-05-10T10:47:24Z</time>
      </trkpt>
      <trkpt lat="46.14317" lon="5.67975">
        <ele>900</ele>
        <time>2026-05-10T10:47:25Z</time>
      </trkpt>
      <trkpt lat="46.14323" lon="5.67982">
        <ele>900</ele>
        <time>2026-05-10T10:47:26Z</time>
      </trkpt>
      <trkpt lat="46.14328" lon="5.67987">
        <ele>900</ele>
        <time>2026-05-10T10:47:27Z</time>
      </trkpt>
      <trkpt lat="46.14334" lon="5.67992">
        <ele>900</ele>
        <time>2026-05-10T10:47:28Z</time>
      </trkpt>
      <trkpt lat="46.1434" lon="5.67997">
        <ele>899.8</ele>
        <time>2026-05-10T10:47:29Z</time>
      </trkpt>
      <trkpt lat="46.14346" lon="5.68004">
        <ele>899.4</ele>
        <time>2026-05-10T10:47:30Z</time>
      </trkpt>
      <trkpt lat="46.14351" lon="5.6801">
        <ele>899.2</ele>
        <time>2026-05-10T10:47:31Z</time>
      </trkpt>
      <trkpt lat="46.14356" lon="5.68017">
        <ele>899.2</ele>
        <time>2026-05-10T10:47:32Z</time>
      </trkpt>
      <trkpt lat="46.14361" lon="5.68025">
        <ele>899</ele>
        <time>2026-05-10T10:47:33Z</time>
      </trkpt>
      <trkpt lat="46.14363" lon="5.68035">
        <ele>898.6</ele>
        <time>2026-05-10T10:47:34Z</time>
      </trkpt>
      <trkpt lat="46.14365" lon="5.68045">
        <ele>898.2</ele>
        <time>2026-05-10T10:47:35Z</time>
      </trkpt>
      <trkpt lat="46.14367" lon="5.68057">
        <ele>897.8</ele>
        <time>2026-05-10T10:47:36Z</time>
      </trkpt>
      <trkpt lat="46.14368" lon="5.68068">
        <ele>897.2</ele>
        <time>2026-05-10T10:47:37Z</time>
      </trkpt>
      <trkpt lat="46.14369" lon="5.6808">
        <ele>896.8</ele>
        <time>2026-05-10T10:47:38Z</time>
      </trkpt>
      <trkpt lat="46.1437" lon="5.68092">
        <ele>896.4</ele>
        <time>2026-05-10T10:47:39Z</time>
      </trkpt>
      <trkpt lat="46.14369" lon="5.68103">
        <ele>895.8</ele>
        <time>2026-05-10T10:47:40Z</time>
      </trkpt>
      <trkpt lat="46.14367" lon="5.68114">
        <ele>895.4</ele>
        <time>2026-05-10T10:47:41Z</time>
      </trkpt>
      <trkpt lat="46.14364" lon="5.68124">
        <ele>894.8</ele>
        <time>2026-05-10T10:47:42Z</time>
      </trkpt>
      <trkpt lat="46.1436" lon="5.68134">
        <ele>894.2</ele>
        <time>2026-05-10T10:47:43Z</time>
      </trkpt>
      <trkpt lat="46.14354" lon="5.68143">
        <ele>894.2</ele>
        <time>2026-05-10T10:47:44Z</time>
      </trkpt>
      <trkpt lat="46.14349" lon="5.68151">
        <ele>893.8</ele>
        <time>2026-05-10T10:47:45Z</time>
      </trkpt>
      <trkpt lat="46.14343" lon="5.68159">
        <ele>893.2</ele>
        <time>2026-05-10T10:47:46Z</time>
      </trkpt>
      <trkpt lat="46.14339" lon="5.68169">
        <ele>892.8</ele>
        <time>2026-05-10T10:47:47Z</time>
      </trkpt>
      <trkpt lat="46.14337" lon="5.6818">
        <ele>891.8</ele>
        <time>2026-05-10T10:47:48Z</time>
      </trkpt>
      <trkpt lat="46.14338" lon="5.68192">
        <ele>891.6</ele>
        <time>2026-05-10T10:47:49Z</time>
      </trkpt>
      <trkpt lat="46.14338" lon="5.68203">
        <ele>891</ele>
        <time>2026-05-10T10:47:50Z</time>
      </trkpt>
      <trkpt lat="46.1434" lon="5.68214">
        <ele>890.6</ele>
        <time>2026-05-10T10:47:51Z</time>
      </trkpt>
      <trkpt lat="46.14341" lon="5.68227">
        <ele>890.2</ele>
        <time>2026-05-10T10:47:52Z</time>
      </trkpt>
      <trkpt lat="46.14341" lon="5.68239">
        <ele>888.8</ele>
        <time>2026-05-10T10:47:53Z</time>
      </trkpt>
      <trkpt lat="46.14341" lon="5.68252">
        <ele>888.4</ele>
        <time>2026-05-10T10:47:54Z</time>
      </trkpt>
      <trkpt lat="46.14338" lon="5.68265">
        <ele>888</ele>
        <time>2026-05-10T10:47:55Z</time>
      </trkpt>
      <trkpt lat="46.14336" lon="5.68277">
        <ele>887.6</ele>
        <time>2026-05-10T10:47:56Z</time>
      </trkpt>
      <trkpt lat="46.14328" lon="5.68288">
        <ele>887.2</ele>
        <time>2026-05-10T10:47:57Z</time>
      </trkpt>
      <trkpt lat="46.14322" lon="5.68296">
        <ele>886.8</ele>
        <time>2026-05-10T10:47:58Z</time>
      </trkpt>
      <trkpt lat="46.14315" lon="5.68302">
        <ele>886</ele>
        <time>2026-05-10T10:47:59Z</time>
      </trkpt>
      <trkpt lat="46.14307" lon="5.68307">
        <ele>885.4</ele>
        <time>2026-05-10T10:48:00Z</time>
      </trkpt>
      <trkpt lat="46.14297" lon="5.68308">
        <ele>884.8</ele>
        <time>2026-05-10T10:48:01Z</time>
      </trkpt>
      <trkpt lat="46.14288" lon="5.68296">
        <ele>884.4</ele>
        <time>2026-05-10T10:48:02Z</time>
      </trkpt>
      <trkpt lat="46.1428" lon="5.6829">
        <ele>883.8</ele>
        <time>2026-05-10T10:48:03Z</time>
      </trkpt>
      <trkpt lat="46.14271" lon="5.68283">
        <ele>883.8</ele>
        <time>2026-05-10T10:48:04Z</time>
      </trkpt>
      <trkpt lat="46.14262" lon="5.68276">
        <ele>883</ele>
        <time>2026-05-10T10:48:05Z</time>
      </trkpt>
      <trkpt lat="46.14254" lon="5.68269">
        <ele>882.4</ele>
        <time>2026-05-10T10:48:06Z</time>
      </trkpt>
      <trkpt lat="46.14247" lon="5.68263">
        <ele>881.8</ele>
        <time>2026-05-10T10:48:07Z</time>
      </trkpt>
      <trkpt lat="46.1424" lon="5.68258">
        <ele>881.4</ele>
        <time>2026-05-10T10:48:08Z</time>
      </trkpt>
      <trkpt lat="46.14233" lon="5.68258">
        <ele>881</ele>
        <time>2026-05-10T10:48:09Z</time>
      </trkpt>
      <trkpt lat="46.14226" lon="5.6826">
        <ele>880.6</ele>
        <time>2026-05-10T10:48:10Z</time>
      </trkpt>
      <trkpt lat="46.14221" lon="5.68266">
        <ele>880.2</ele>
        <time>2026-05-10T10:48:11Z</time>
      </trkpt>
      <trkpt lat="46.14216" lon="5.68274">
        <ele>879.8</ele>
        <time>2026-05-10T10:48:12Z</time>
      </trkpt>
      <trkpt lat="46.14214" lon="5.68283">
        <ele>879</ele>
        <time>2026-05-10T10:48:13Z</time>
      </trkpt>
      <trkpt lat="46.14213" lon="5.68294">
        <ele>878.6</ele>
        <time>2026-05-10T10:48:14Z</time>
      </trkpt>
      <trkpt lat="46.14214" lon="5.68305">
        <ele>878</ele>
        <time>2026-05-10T10:48:15Z</time>
      </trkpt>
      <trkpt lat="46.14214" lon="5.68316">
        <ele>877.4</ele>
        <time>2026-05-10T10:48:16Z</time>
      </trkpt>
      <trkpt lat="46.14216" lon="5.68328">
        <ele>876.6</ele>
        <time>2026-05-10T10:48:17Z</time>
      </trkpt>
      <trkpt lat="46.14218" lon="5.68339">
        <ele>876</ele>
        <time>2026-05-10T10:48:18Z</time>
      </trkpt>
      <trkpt lat="46.1422" lon="5.68351">
        <ele>875.4</ele>
        <time>2026-05-10T10:48:19Z</time>
      </trkpt>
      <trkpt lat="46.14225" lon="5.68362">
        <ele>874.8</ele>
        <time>2026-05-10T10:48:20Z</time>
      </trkpt>
      <trkpt lat="46.14229" lon="5.68374">
        <ele>874.2</ele>
        <time>2026-05-10T10:48:21Z</time>
      </trkpt>
      <trkpt lat="46.1424" lon="5.68395">
        <ele>873.8</ele>
        <time>2026-05-10T10:48:22Z</time>
      </trkpt>
      <trkpt lat="46.14244" lon="5.68406">
        <ele>873.2</ele>
        <time>2026-05-10T10:48:23Z</time>
      </trkpt>
      <trkpt lat="46.14248" lon="5.68417">
        <ele>873</ele>
        <time>2026-05-10T10:48:24Z</time>
      </trkpt>
      <trkpt lat="46.14252" lon="5.68427">
        <ele>872.4</ele>
        <time>2026-05-10T10:48:25Z</time>
      </trkpt>
      <trkpt lat="46.14255" lon="5.68436">
        <ele>871.8</ele>
        <time>2026-05-10T10:48:26Z</time>
      </trkpt>
      <trkpt lat="46.14259" lon="5.68446">
        <ele>871.2</ele>
        <time>2026-05-10T10:48:27Z</time>
      </trkpt>
      <trkpt lat="46.14261" lon="5.68456">
        <ele>870.6</ele>
        <time>2026-05-10T10:48:28Z</time>
      </trkpt>
      <trkpt lat="46.1426" lon="5.68467">
        <ele>870.2</ele>
        <time>2026-05-10T10:48:29Z</time>
      </trkpt>
      <trkpt lat="46.14259" lon="5.68478">
        <ele>869.8</ele>
        <time>2026-05-10T10:48:30Z</time>
      </trkpt>
      <trkpt lat="46.14257" lon="5.68488">
        <ele>869.4</ele>
        <time>2026-05-10T10:48:31Z</time>
      </trkpt>
      <trkpt lat="46.14256" lon="5.68498">
        <ele>869</ele>
        <time>2026-05-10T10:48:32Z</time>
      </trkpt>
      <trkpt lat="46.14256" lon="5.68508">
        <ele>868.4</ele>
        <time>2026-05-10T10:48:33Z</time>
      </trkpt>
      <trkpt lat="46.14255" lon="5.68517">
        <ele>867.8</ele>
        <time>2026-05-10T10:48:34Z</time>
      </trkpt>
      <trkpt lat="46.14256" lon="5.68526">
        <ele>867.8</ele>
        <time>2026-05-10T10:48:35Z</time>
      </trkpt>
      <trkpt lat="46.14258" lon="5.68534">
        <ele>867.6</ele>
        <time>2026-05-10T10:48:36Z</time>
      </trkpt>
      <trkpt lat="46.1426" lon="5.68541">
        <ele>867.6</ele>
        <time>2026-05-10T10:48:37Z</time>
      </trkpt>
      <trkpt lat="46.14263" lon="5.68547">
        <ele>867.2</ele>
        <time>2026-05-10T10:48:38Z</time>
      </trkpt>
      <trkpt lat="46.14267" lon="5.68552">
        <ele>866.8</ele>
        <time>2026-05-10T10:48:39Z</time>
      </trkpt>
      <trkpt lat="46.14271" lon="5.68557">
        <ele>866.8</ele>
        <time>2026-05-10T10:48:40Z</time>
      </trkpt>
      <trkpt lat="46.14274" lon="5.68563">
        <ele>866.8</ele>
        <time>2026-05-10T10:48:41Z</time>
      </trkpt>
      <trkpt lat="46.14277" lon="5.68571">
        <ele>866.4</ele>
        <time>2026-05-10T10:48:42Z</time>
      </trkpt>
      <trkpt lat="46.1428" lon="5.68577">
        <ele>866.2</ele>
        <time>2026-05-10T10:48:43Z</time>
      </trkpt>
      <trkpt lat="46.14282" lon="5.68584">
        <ele>865.8</ele>
        <time>2026-05-10T10:48:44Z</time>
      </trkpt>
      <trkpt lat="46.14285" lon="5.68592">
        <ele>865.8</ele>
        <time>2026-05-10T10:48:45Z</time>
      </trkpt>
      <trkpt lat="46.14286" lon="5.68598">
        <ele>865.8</ele>
        <time>2026-05-10T10:48:46Z</time>
      </trkpt>
      <trkpt lat="46.14286" lon="5.68605">
        <ele>865.4</ele>
        <time>2026-05-10T10:48:47Z</time>
      </trkpt>
      <trkpt lat="46.14285" lon="5.68612">
        <ele>865.2</ele>
        <time>2026-05-10T10:48:48Z</time>
      </trkpt>
      <trkpt lat="46.14282" lon="5.68619">
        <ele>864.8</ele>
        <time>2026-05-10T10:48:49Z</time>
      </trkpt>
      <trkpt lat="46.1428" lon="5.68624">
        <ele>864.6</ele>
        <time>2026-05-10T10:48:50Z</time>
      </trkpt>
      <trkpt lat="46.14277" lon="5.68631">
        <ele>864</ele>
        <time>2026-05-10T10:48:51Z</time>
      </trkpt>
      <trkpt lat="46.14273" lon="5.68635">
        <ele>863.6</ele>
        <time>2026-05-10T10:48:52Z</time>
      </trkpt>
      <trkpt lat="46.14269" lon="5.68639">
        <ele>863.2</ele>
        <time>2026-05-10T10:48:53Z</time>
      </trkpt>
      <trkpt lat="46.14265" lon="5.68643">
        <ele>863.2</ele>
        <time>2026-05-10T10:48:54Z</time>
      </trkpt>
      <trkpt lat="46.14261" lon="5.68646">
        <ele>862.6</ele>
        <time>2026-05-10T10:48:55Z</time>
      </trkpt>
      <trkpt lat="46.14256" lon="5.68649">
        <ele>863.6</ele>
        <time>2026-05-10T10:48:56Z</time>
      </trkpt>
      <trkpt lat="46.14251" lon="5.68651">
        <ele>864</ele>
        <time>2026-05-10T10:48:57Z</time>
      </trkpt>
      <trkpt lat="46.14246" lon="5.68653">
        <ele>863.8</ele>
        <time>2026-05-10T10:48:58Z</time>
      </trkpt>
      <trkpt lat="46.14246" lon="5.68653">
        <ele>863.2</ele>
        <time>2026-05-10T10:48:59Z</time>
      </trkpt>
      <trkpt lat="46.14241" lon="5.68653">
        <ele>863</ele>
        <time>2026-05-10T10:49:00Z</time>
      </trkpt>
      <trkpt lat="46.14237" lon="5.68652">
        <ele>863.2</ele>
        <time>2026-05-10T10:49:01Z</time>
      </trkpt>
      <trkpt lat="46.14233" lon="5.68652">
        <ele>863.2</ele>
        <time>2026-05-10T10:49:02Z</time>
      </trkpt>
      <trkpt lat="46.14229" lon="5.68651">
        <ele>863.2</ele>
        <time>2026-05-10T10:49:03Z</time>
      </trkpt>
      <trkpt lat="46.14226" lon="5.6865">
        <ele>863.2</ele>
        <time>2026-05-10T10:49:04Z</time>
      </trkpt>
      <trkpt lat="46.14223" lon="5.68649">
        <ele>863.2</ele>
        <time>2026-05-10T10:49:05Z</time>
      </trkpt>
      <trkpt lat="46.14221" lon="5.68648">
        <ele>863.8</ele>
        <time>2026-05-10T10:49:06Z</time>
      </trkpt>
      <trkpt lat="46.14219" lon="5.68647">
        <ele>864.2</ele>
        <time>2026-05-10T10:49:07Z</time>
      </trkpt>
      <trkpt lat="46.14218" lon="5.68647">
        <ele>864.4</ele>
        <time>2026-05-10T10:49:08Z</time>
      </trkpt>
      <trkpt lat="46.14217" lon="5.68647">
        <ele>864.8</ele>
        <time>2026-05-10T10:49:09Z</time>
      </trkpt>
      <trkpt lat="46.14217" lon="5.68647">
        <ele>865</ele>
        <time>2026-05-10T10:49:10Z</time>
      </trkpt>
      <trkpt lat="46.14208" lon="5.68647">
        <ele>866.4</ele>
        <time>2026-05-10T10:53:57Z</time>
      </trkpt>
      <trkpt lat="46.14207" lon="5.68646">
        <ele>866.4</ele>
        <time>2026-05-10T10:53:58Z</time>
      </trkpt>
      <trkpt lat="46.14206" lon="5.68645">
        <ele>866.4</ele>
        <time>2026-05-10T10:53:59Z</time>
      </trkpt>
      <trkpt lat="46.14205" lon="5.68644">
        <ele>866.4</ele>
        <time>2026-05-10T10:54:00Z</time>
      </trkpt>
      <trkpt lat="46.14204" lon="5.68642">
        <ele>866.4</ele>
        <time>2026-05-10T10:54:01Z</time>
      </trkpt>
      <trkpt lat="46.14203" lon="5.6864">
        <ele>866.4</ele>
        <time>2026-05-10T10:54:02Z</time>
      </trkpt>
      <trkpt lat="46.14202" lon="5.68638">
        <ele>866.6</ele>
        <time>2026-05-10T10:54:03Z</time>
      </trkpt>
      <trkpt lat="46.14202" lon="5.68637">
        <ele>866.6</ele>
        <time>2026-05-10T10:54:04Z</time>
      </trkpt>
      <trkpt lat="46.14201" lon="5.68635">
        <ele>866.6</ele>
        <time>2026-05-10T10:54:05Z</time>
      </trkpt>
      <trkpt lat="46.142" lon="5.68633">
        <ele>867</ele>
        <time>2026-05-10T10:54:06Z</time>
      </trkpt>
      <trkpt lat="46.14199" lon="5.68631">
        <ele>867</ele>
        <time>2026-05-10T10:54:07Z</time>
      </trkpt>
      <trkpt lat="46.14198" lon="5.6863">
        <ele>867.2</ele>
        <time>2026-05-10T10:54:08Z</time>
      </trkpt>
      <trkpt lat="46.14198" lon="5.68628">
        <ele>867.2</ele>
        <time>2026-05-10T10:54:09Z</time>
      </trkpt>
      <trkpt lat="46.14197" lon="5.68626">
        <ele>867.2</ele>
        <time>2026-05-10T10:54:10Z</time>
      </trkpt>
      <trkpt lat="46.14197" lon="5.68624">
        <ele>867.2</ele>
        <time>2026-05-10T10:54:11Z</time>
      </trkpt>
      <trkpt lat="46.14196" lon="5.68622">
        <ele>868</ele>
        <time>2026-05-10T10:54:12Z</time>
      </trkpt>
      <trkpt lat="46.14196" lon="5.6862">
        <ele>868</ele>
        <time>2026-05-10T10:54:13Z</time>
      </trkpt>
      <trkpt lat="46.14196" lon="5.68619">
        <ele>868</ele>
        <time>2026-05-10T10:54:14Z</time>
      </trkpt>
      <trkpt lat="46.14196" lon="5.68617">
        <ele>868.2</ele>
        <time>2026-05-10T10:54:15Z</time>
      </trkpt>
      <trkpt lat="46.14196" lon="5.68613">
        <ele>868.6</ele>
        <time>2026-05-10T10:54:16Z</time>
      </trkpt>
      <trkpt lat="46.14196" lon="5.68611">
        <ele>868.6</ele>
        <time>2026-05-10T10:54:17Z</time>
      </trkpt>
      <trkpt lat="46.14196" lon="5.68608">
        <ele>868.6</ele>
        <time>2026-05-10T10:54:18Z</time>
      </trkpt>
      <trkpt lat="46.14195" lon="5.68605">
        <ele>868.8</ele>
        <time>2026-05-10T10:54:19Z</time>
      </trkpt>
      <trkpt lat="46.14194" lon="5.68603">
        <ele>869</ele>
        <time>2026-05-10T10:54:20Z</time>
      </trkpt>
      <trkpt lat="46.14193" lon="5.68601">
        <ele>869</ele>
        <time>2026-05-10T10:54:21Z</time>
      </trkpt>
      <trkpt lat="46.14193" lon="5.68598">
        <ele>869.4</ele>
        <time>2026-05-10T10:54:22Z</time>
      </trkpt>
      <trkpt lat="46.14193" lon="5.68596">
        <ele>869.8</ele>
        <time>2026-05-10T10:54:23Z</time>
      </trkpt>
      <trkpt lat="46.14193" lon="5.68594">
        <ele>869.8</ele>
        <time>2026-05-10T10:54:24Z</time>
      </trkpt>
      <trkpt lat="46.14192" lon="5.68591">
        <ele>870</ele>
        <time>2026-05-10T10:54:25Z</time>
      </trkpt>
      <trkpt lat="46.14192" lon="5.68589">
        <ele>870</ele>
        <time>2026-05-10T10:54:26Z</time>
      </trkpt>
      <trkpt lat="46.14191" lon="5.68587">
        <ele>870.4</ele>
        <time>2026-05-10T10:54:27Z</time>
      </trkpt>
      <trkpt lat="46.1419" lon="5.68584">
        <ele>870.4</ele>
        <time>2026-05-10T10:54:28Z</time>
      </trkpt>
      <trkpt lat="46.1419" lon="5.68582">
        <ele>870.8</ele>
        <time>2026-05-10T10:54:29Z</time>
      </trkpt>
      <trkpt lat="46.1419" lon="5.68582">
        <ele>870.8</ele>
        <time>2026-05-10T10:54:30Z</time>
      </trkpt>
      <trkpt lat="46.14189" lon="5.6858">
        <ele>871</ele>
        <time>2026-05-10T10:54:31Z</time>
      </trkpt>
      <trkpt lat="46.14189" lon="5.68577">
        <ele>871</ele>
        <time>2026-05-10T10:54:32Z</time>
      </trkpt>
      <trkpt lat="46.14188" lon="5.68575">
        <ele>871.2</ele>
        <time>2026-05-10T10:54:33Z</time>
      </trkpt>
      <trkpt lat="46.14188" lon="5.68573">
        <ele>871.2</ele>
        <time>2026-05-10T10:54:34Z</time>
      </trkpt>
      <trkpt lat="46.14187" lon="5.68571">
        <ele>871.4</ele>
        <time>2026-05-10T10:54:35Z</time>
      </trkpt>
      <trkpt lat="46.14186" lon="5.68569">
        <ele>871.4</ele>
        <time>2026-05-10T10:54:36Z</time>
      </trkpt>
      <trkpt lat="46.14185" lon="5.68567">
        <ele>871.8</ele>
        <time>2026-05-10T10:54:37Z</time>
      </trkpt>
      <trkpt lat="46.14185" lon="5.68565">
        <ele>871.8</ele>
        <time>2026-05-10T10:54:38Z</time>
      </trkpt>
      <trkpt lat="46.14184" lon="5.68563">
        <ele>871.8</ele>
        <time>2026-05-10T10:54:39Z</time>
      </trkpt>
      <trkpt lat="46.14184" lon="5.6856">
        <ele>872.2</ele>
        <time>2026-05-10T10:54:40Z</time>
      </trkpt>
      <trkpt lat="46.14184" lon="5.68558">
        <ele>872.2</ele>
        <time>2026-05-10T10:54:41Z</time>
      </trkpt>
      <trkpt lat="46.14183" lon="5.68555">
        <ele>872.6</ele>
        <time>2026-05-10T10:54:42Z</time>
      </trkpt>
      <trkpt lat="46.14183" lon="5.68553">
        <ele>872.8</ele>
        <time>2026-05-10T10:54:43Z</time>
      </trkpt>
      <trkpt lat="46.14182" lon="5.68551">
        <ele>872.8</ele>
        <time>2026-05-10T10:54:44Z</time>
      </trkpt>
      <trkpt lat="46.14181" lon="5.68548">
        <ele>873.2</ele>
        <time>2026-05-10T10:54:45Z</time>
      </trkpt>
      <trkpt lat="46.1418" lon="5.68546">
        <ele>873.2</ele>
        <time>2026-05-10T10:54:46Z</time>
      </trkpt>
      <trkpt lat="46.1418" lon="5.68543">
        <ele>873.4</ele>
        <time>2026-05-10T10:54:47Z</time>
      </trkpt>
      <trkpt lat="46.14179" lon="5.68541">
        <ele>873.4</ele>
        <time>2026-05-10T10:54:48Z</time>
      </trkpt>
      <trkpt lat="46.14178" lon="5.68539">
        <ele>873.8</ele>
        <time>2026-05-10T10:54:49Z</time>
      </trkpt>
      <trkpt lat="46.14177" lon="5.68536">
        <ele>873.8</ele>
        <time>2026-05-10T10:54:50Z</time>
      </trkpt>
      <trkpt lat="46.14177" lon="5.68534">
        <ele>874</ele>
        <time>2026-05-10T10:54:51Z</time>
      </trkpt>
      <trkpt lat="46.14176" lon="5.68532">
        <ele>874</ele>
        <time>2026-05-10T10:54:52Z</time>
      </trkpt>
      <trkpt lat="46.14175" lon="5.6853">
        <ele>874.2</ele>
        <time>2026-05-10T10:54:53Z</time>
      </trkpt>
      <trkpt lat="46.14175" lon="5.68528">
        <ele>874.6</ele>
        <time>2026-05-10T10:54:54Z</time>
      </trkpt>
      <trkpt lat="46.14174" lon="5.68526">
        <ele>874.6</ele>
        <time>2026-05-10T10:54:55Z</time>
      </trkpt>
      <trkpt lat="46.14173" lon="5.68524">
        <ele>875</ele>
        <time>2026-05-10T10:54:56Z</time>
      </trkpt>
      <trkpt lat="46.14173" lon="5.68522">
        <ele>875</ele>
        <time>2026-05-10T10:54:57Z</time>
      </trkpt>
      <trkpt lat="46.14172" lon="5.6852">
        <ele>875</ele>
        <time>2026-05-10T10:54:58Z</time>
      </trkpt>
      <trkpt lat="46.14171" lon="5.68518">
        <ele>875.2</ele>
        <time>2026-05-10T10:54:59Z</time>
      </trkpt>
      <trkpt lat="46.1417" lon="5.68515">
        <ele>875.4</ele>
        <time>2026-05-10T10:55:00Z</time>
      </trkpt>
      <trkpt lat="46.1417" lon="5.68513">
        <ele>875.4</ele>
        <time>2026-05-10T10:55:01Z</time>
      </trkpt>
      <trkpt lat="46.14169" lon="5.6851">
        <ele>875.8</ele>
        <time>2026-05-10T10:55:02Z</time>
      </trkpt>
      <trkpt lat="46.14169" lon="5.68508">
        <ele>875.8</ele>
        <time>2026-05-10T10:55:03Z</time>
      </trkpt>
      <trkpt lat="46.14168" lon="5.68507">
        <ele>875.8</ele>
        <time>2026-05-10T10:55:04Z</time>
      </trkpt>
      <trkpt lat="46.14168" lon="5.68505">
        <ele>876</ele>
        <time>2026-05-10T10:55:05Z</time>
      </trkpt>
      <trkpt lat="46.14167" lon="5.68502">
        <ele>876</ele>
        <time>2026-05-10T10:55:06Z</time>
      </trkpt>
      <trkpt lat="46.14167" lon="5.68501">
        <ele>876.4</ele>
        <time>2026-05-10T10:55:07Z</time>
      </trkpt>
      <trkpt lat="46.14167" lon="5.68499">
        <ele>876.4</ele>
        <time>2026-05-10T10:55:08Z</time>
      </trkpt>
      <trkpt lat="46.14166" lon="5.68498">
        <ele>876.4</ele>
        <time>2026-05-10T10:55:09Z</time>
      </trkpt>
      <trkpt lat="46.14166" lon="5.68496">
        <ele>876.8</ele>
        <time>2026-05-10T10:55:10Z</time>
      </trkpt>
      <trkpt lat="46.14166" lon="5.68494">
        <ele>876.8</ele>
        <time>2026-05-10T10:55:11Z</time>
      </trkpt>
      <trkpt lat="46.14166" lon="5.68492">
        <ele>876.8</ele>
        <time>2026-05-10T10:55:12Z</time>
      </trkpt>
      <trkpt lat="46.14166" lon="5.6849">
        <ele>877</ele>
        <time>2026-05-10T10:55:13Z</time>
      </trkpt>
      <trkpt lat="46.14166" lon="5.68488">
        <ele>877</ele>
        <time>2026-05-10T10:55:14Z</time>
      </trkpt>
      <trkpt lat="46.14166" lon="5.68486">
        <ele>877.6</ele>
        <time>2026-05-10T10:55:15Z</time>
      </trkpt>
      <trkpt lat="46.14166" lon="5.68485">
        <ele>877.6</ele>
        <time>2026-05-10T10:55:16Z</time>
      </trkpt>
      <trkpt lat="46.14166" lon="5.68483">
        <ele>878</ele>
        <time>2026-05-10T10:55:17Z</time>
      </trkpt>
      <trkpt lat="46.14165" lon="5.68481">
        <ele>878</ele>
        <time>2026-05-10T10:55:18Z</time>
      </trkpt>
      <trkpt lat="46.14164" lon="5.6848">
        <ele>878</ele>
        <time>2026-05-10T10:55:19Z</time>
      </trkpt>
      <trkpt lat="46.14163" lon="5.68478">
        <ele>878.4</ele>
        <time>2026-05-10T10:55:20Z</time>
      </trkpt>
      <trkpt lat="46.14161" lon="5.68477">
        <ele>878.8</ele>
        <time>2026-05-10T10:55:21Z</time>
      </trkpt>
      <trkpt lat="46.1416" lon="5.68476">
        <ele>878.8</ele>
        <time>2026-05-10T10:55:22Z</time>
      </trkpt>
      <trkpt lat="46.1416" lon="5.68473">
        <ele>879.4</ele>
        <time>2026-05-10T10:55:23Z</time>
      </trkpt>
      <trkpt lat="46.1416" lon="5.68472">
        <ele>879.4</ele>
        <time>2026-05-10T10:55:24Z</time>
      </trkpt>
      <trkpt lat="46.14159" lon="5.6847">
        <ele>879.4</ele>
        <time>2026-05-10T10:55:25Z</time>
      </trkpt>
      <trkpt lat="46.14159" lon="5.68469">
        <ele>879.6</ele>
        <time>2026-05-10T10:55:26Z</time>
      </trkpt>
      <trkpt lat="46.1416" lon="5.68467">
        <ele>879.8</ele>
        <time>2026-05-10T10:55:27Z</time>
      </trkpt>
      <trkpt lat="46.1416" lon="5.68466">
        <ele>880.2</ele>
        <time>2026-05-10T10:55:28Z</time>
      </trkpt>
      <trkpt lat="46.14159" lon="5.68463">
        <ele>880.2</ele>
        <time>2026-05-10T10:55:29Z</time>
      </trkpt>
      <trkpt lat="46.14158" lon="5.68461">
        <ele>880.2</ele>
        <time>2026-05-10T10:55:30Z</time>
      </trkpt>
      <trkpt lat="46.14158" lon="5.6846">
        <ele>880.6</ele>
        <time>2026-05-10T10:55:31Z</time>
      </trkpt>
      <trkpt lat="46.14159" lon="5.68458">
        <ele>880.4</ele>
        <time>2026-05-10T10:55:32Z</time>
      </trkpt>
      <trkpt lat="46.14158" lon="5.68456">
        <ele>880.8</ele>
        <time>2026-05-10T10:55:33Z</time>
      </trkpt>
      <trkpt lat="46.14157" lon="5.68454">
        <ele>880.8</ele>
        <time>2026-05-10T10:55:34Z</time>
      </trkpt>
      <trkpt lat="46.14156" lon="5.68453">
        <ele>881.2</ele>
        <time>2026-05-10T10:55:35Z</time>
      </trkpt>
      <trkpt lat="46.14155" lon="5.68453">
        <ele>881.4</ele>
        <time>2026-05-10T10:55:36Z</time>
      </trkpt>
      <trkpt lat="46.14154" lon="5.68453">
        <ele>881.6</ele>
        <time>2026-05-10T10:55:37Z</time>
      </trkpt>
      <trkpt lat="46.14152" lon="5.68452">
        <ele>881.6</ele>
        <time>2026-05-10T10:55:38Z</time>
      </trkpt>
      <trkpt lat="46.14151" lon="5.68451">
        <ele>881.6</ele>
        <time>2026-05-10T10:55:39Z</time>
      </trkpt>
      <trkpt lat="46.1415" lon="5.68449">
        <ele>881.6</ele>
        <time>2026-05-10T10:55:40Z</time>
      </trkpt>
      <trkpt lat="46.14148" lon="5.68447">
        <ele>881.6</ele>
        <time>2026-05-10T10:55:41Z</time>
      </trkpt>
      <trkpt lat="46.14146" lon="5.68446">
        <ele>881.6</ele>
        <time>2026-05-10T10:55:42Z</time>
      </trkpt>
      <trkpt lat="46.14145" lon="5.68445">
        <ele>882.2</ele>
        <time>2026-05-10T10:55:43Z</time>
      </trkpt>
      <trkpt lat="46.14143" lon="5.68443">
        <ele>882.2</ele>
        <time>2026-05-10T10:55:44Z</time>
      </trkpt>
      <trkpt lat="46.14141" lon="5.68442">
        <ele>882.6</ele>
        <time>2026-05-10T10:55:45Z</time>
      </trkpt>
      <trkpt lat="46.14141" lon="5.68441">
        <ele>882.6</ele>
        <time>2026-05-10T10:55:46Z</time>
      </trkpt>
      <trkpt lat="46.1414" lon="5.68441">
        <ele>882.6</ele>
        <time>2026-05-10T10:55:47Z</time>
      </trkpt>
      <trkpt lat="46.14138" lon="5.68441">
        <ele>882.8</ele>
        <time>2026-05-10T10:55:48Z</time>
      </trkpt>
      <trkpt lat="46.14136" lon="5.6844">
        <ele>882.8</ele>
        <time>2026-05-10T10:55:49Z</time>
      </trkpt>
      <trkpt lat="46.14134" lon="5.68439">
        <ele>883.2</ele>
        <time>2026-05-10T10:55:50Z</time>
      </trkpt>
      <trkpt lat="46.14132" lon="5.68438">
        <ele>883.2</ele>
        <time>2026-05-10T10:55:51Z</time>
      </trkpt>
      <trkpt lat="46.14131" lon="5.68437">
        <ele>883.4</ele>
        <time>2026-05-10T10:55:52Z</time>
      </trkpt>
      <trkpt lat="46.1413" lon="5.68436">
        <ele>883.8</ele>
        <time>2026-05-10T10:55:53Z</time>
      </trkpt>
      <trkpt lat="46.14129" lon="5.68435">
        <ele>883.8</ele>
        <time>2026-05-10T10:55:54Z</time>
      </trkpt>
      <trkpt lat="46.14127" lon="5.68434">
        <ele>883.8</ele>
        <time>2026-05-10T10:55:55Z</time>
      </trkpt>
      <trkpt lat="46.14126" lon="5.68432">
        <ele>884</ele>
        <time>2026-05-10T10:55:56Z</time>
      </trkpt>
      <trkpt lat="46.14124" lon="5.6843">
        <ele>884</ele>
        <time>2026-05-10T10:55:57Z</time>
      </trkpt>
      <trkpt lat="46.14123" lon="5.68429">
        <ele>884</ele>
        <time>2026-05-10T10:55:58Z</time>
      </trkpt>
      <trkpt lat="46.14122" lon="5.68427">
        <ele>884.4</ele>
        <time>2026-05-10T10:55:59Z</time>
      </trkpt>
      <trkpt lat="46.14121" lon="5.68426">
        <ele>884.6</ele>
        <time>2026-05-10T10:56:00Z</time>
      </trkpt>
      <trkpt lat="46.1412" lon="5.68425">
        <ele>884.6</ele>
        <time>2026-05-10T10:56:01Z</time>
      </trkpt>
      <trkpt lat="46.14119" lon="5.68424">
        <ele>884.8</ele>
        <time>2026-05-10T10:56:02Z</time>
      </trkpt>
      <trkpt lat="46.14118" lon="5.68422">
        <ele>885.2</ele>
        <time>2026-05-10T10:56:03Z</time>
      </trkpt>
      <trkpt lat="46.14118" lon="5.68421">
        <ele>885.2</ele>
        <time>2026-05-10T10:56:04Z</time>
      </trkpt>
      <trkpt lat="46.14117" lon="5.68419">
        <ele>885.2</ele>
        <time>2026-05-10T10:56:05Z</time>
      </trkpt>
      <trkpt lat="46.14116" lon="5.68416">
        <ele>885.4</ele>
        <time>2026-05-10T10:56:06Z</time>
      </trkpt>
      <trkpt lat="46.14115" lon="5.68415">
        <ele>885.4</ele>
        <time>2026-05-10T10:56:07Z</time>
      </trkpt>
      <trkpt lat="46.14114" lon="5.68413">
        <ele>885.4</ele>
        <time>2026-05-10T10:56:08Z</time>
      </trkpt>
      <trkpt lat="46.14113" lon="5.68411">
        <ele>885.4</ele>
        <time>2026-05-10T10:56:09Z</time>
      </trkpt>
      <trkpt lat="46.14113" lon="5.68409">
        <ele>885.4</ele>
        <time>2026-05-10T10:56:10Z</time>
      </trkpt>
      <trkpt lat="46.14112" lon="5.68406">
        <ele>885.4</ele>
        <time>2026-05-10T10:56:11Z</time>
      </trkpt>
      <trkpt lat="46.14111" lon="5.68403">
        <ele>885.6</ele>
        <time>2026-05-10T10:56:12Z</time>
      </trkpt>
      <trkpt lat="46.14111" lon="5.68401">
        <ele>885.6</ele>
        <time>2026-05-10T10:56:13Z</time>
      </trkpt>
      <trkpt lat="46.1411" lon="5.68399">
        <ele>885.6</ele>
        <time>2026-05-10T10:56:14Z</time>
      </trkpt>
      <trkpt lat="46.14109" lon="5.68396">
        <ele>885.6</ele>
        <time>2026-05-10T10:56:15Z</time>
      </trkpt>
      <trkpt lat="46.14108" lon="5.68395">
        <ele>885.8</ele>
        <time>2026-05-10T10:56:16Z</time>
      </trkpt>
      <trkpt lat="46.14107" lon="5.68393">
        <ele>885.8</ele>
        <time>2026-05-10T10:56:17Z</time>
      </trkpt>
      <trkpt lat="46.14107" lon="5.68391">
        <ele>886.2</ele>
        <time>2026-05-10T10:56:18Z</time>
      </trkpt>
      <trkpt lat="46.14106" lon="5.68389">
        <ele>886.2</ele>
        <time>2026-05-10T10:56:19Z</time>
      </trkpt>
      <trkpt lat="46.14105" lon="5.68386">
        <ele>886.2</ele>
        <time>2026-05-10T10:56:20Z</time>
      </trkpt>
      <trkpt lat="46.14104" lon="5.68383">
        <ele>886.4</ele>
        <time>2026-05-10T10:56:21Z</time>
      </trkpt>
      <trkpt lat="46.14103" lon="5.68381">
        <ele>886.4</ele>
        <time>2026-05-10T10:56:22Z</time>
      </trkpt>
      <trkpt lat="46.14102" lon="5.68379">
        <ele>886.4</ele>
        <time>2026-05-10T10:56:23Z</time>
      </trkpt>
      <trkpt lat="46.14101" lon="5.68378">
        <ele>886.4</ele>
        <time>2026-05-10T10:56:24Z</time>
      </trkpt>
      <trkpt lat="46.141" lon="5.68377">
        <ele>886.4</ele>
        <time>2026-05-10T10:56:25Z</time>
      </trkpt>
      <trkpt lat="46.14099" lon="5.68375">
        <ele>886.8</ele>
        <time>2026-05-10T10:56:26Z</time>
      </trkpt>
      <trkpt lat="46.14098" lon="5.68373">
        <ele>886.8</ele>
        <time>2026-05-10T10:56:27Z</time>
      </trkpt>
      <trkpt lat="46.14097" lon="5.68371">
        <ele>887.2</ele>
        <time>2026-05-10T10:56:28Z</time>
      </trkpt>
      <trkpt lat="46.14096" lon="5.68369">
        <ele>886.6</ele>
        <time>2026-05-10T10:56:29Z</time>
      </trkpt>
      <trkpt lat="46.14094" lon="5.68367">
        <ele>887</ele>
        <time>2026-05-10T10:56:30Z</time>
      </trkpt>
      <trkpt lat="46.14093" lon="5.68364">
        <ele>887</ele>
        <time>2026-05-10T10:56:31Z</time>
      </trkpt>
      <trkpt lat="46.14092" lon="5.68362">
        <ele>887.2</ele>
        <time>2026-05-10T10:56:32Z</time>
      </trkpt>
      <trkpt lat="46.14092" lon="5.68361">
        <ele>887.2</ele>
        <time>2026-05-10T10:56:33Z</time>
      </trkpt>
      <trkpt lat="46.1409" lon="5.68359">
        <ele>887.4</ele>
        <time>2026-05-10T10:56:34Z</time>
      </trkpt>
      <trkpt lat="46.14089" lon="5.68357">
        <ele>887.4</ele>
        <time>2026-05-10T10:56:35Z</time>
      </trkpt>
      <trkpt lat="46.14088" lon="5.68355">
        <ele>887.8</ele>
        <time>2026-05-10T10:56:36Z</time>
      </trkpt>
      <trkpt lat="46.14087" lon="5.68353">
        <ele>887.8</ele>
        <time>2026-05-10T10:56:37Z</time>
      </trkpt>
      <trkpt lat="46.14086" lon="5.68351">
        <ele>888.4</ele>
        <time>2026-05-10T10:56:38Z</time>
      </trkpt>
      <trkpt lat="46.14085" lon="5.68349">
        <ele>888.6</ele>
        <time>2026-05-10T10:56:39Z</time>
      </trkpt>
      <trkpt lat="46.14084" lon="5.68347">
        <ele>888.8</ele>
        <time>2026-05-10T10:56:40Z</time>
      </trkpt>
      <trkpt lat="46.14083" lon="5.68346">
        <ele>888.8</ele>
        <time>2026-05-10T10:56:41Z</time>
      </trkpt>
      <trkpt lat="46.14082" lon="5.68345">
        <ele>889.2</ele>
        <time>2026-05-10T10:56:42Z</time>
      </trkpt>
      <trkpt lat="46.1408" lon="5.68342">
        <ele>889.2</ele>
        <time>2026-05-10T10:56:43Z</time>
      </trkpt>
      <trkpt lat="46.14079" lon="5.6834">
        <ele>889.2</ele>
        <time>2026-05-10T10:56:44Z</time>
      </trkpt>
      <trkpt lat="46.14079" lon="5.68338">
        <ele>889.4</ele>
        <time>2026-05-10T10:56:45Z</time>
      </trkpt>
      <trkpt lat="46.14078" lon="5.68336">
        <ele>889.4</ele>
        <time>2026-05-10T10:56:46Z</time>
      </trkpt>
      <trkpt lat="46.14078" lon="5.68334">
        <ele>889.8</ele>
        <time>2026-05-10T10:56:47Z</time>
      </trkpt>
      <trkpt lat="46.14078" lon="5.68332">
        <ele>889.8</ele>
        <time>2026-05-10T10:56:48Z</time>
      </trkpt>
      <trkpt lat="46.14078" lon="5.68329">
        <ele>889.8</ele>
        <time>2026-05-10T10:56:49Z</time>
      </trkpt>
      <trkpt lat="46.14078" lon="5.68327">
        <ele>890</ele>
        <time>2026-05-10T10:56:50Z</time>
      </trkpt>
      <trkpt lat="46.14078" lon="5.68324">
        <ele>890.2</ele>
        <time>2026-05-10T10:56:51Z</time>
      </trkpt>
      <trkpt lat="46.14077" lon="5.68322">
        <ele>890.2</ele>
        <time>2026-05-10T10:56:52Z</time>
      </trkpt>
      <trkpt lat="46.14077" lon="5.6832">
        <ele>890.4</ele>
        <time>2026-05-10T10:56:53Z</time>
      </trkpt>
      <trkpt lat="46.14076" lon="5.68317">
        <ele>890.4</ele>
        <time>2026-05-10T10:56:54Z</time>
      </trkpt>
      <trkpt lat="46.14075" lon="5.68315">
        <ele>890.4</ele>
        <time>2026-05-10T10:56:55Z</time>
      </trkpt>
      <trkpt lat="46.14074" lon="5.68313">
        <ele>890.6</ele>
        <time>2026-05-10T10:56:56Z</time>
      </trkpt>
      <trkpt lat="46.14073" lon="5.68311">
        <ele>890.6</ele>
        <time>2026-05-10T10:56:57Z</time>
      </trkpt>
      <trkpt lat="46.14071" lon="5.68308">
        <ele>890.6</ele>
        <time>2026-05-10T10:56:58Z</time>
      </trkpt>
      <trkpt lat="46.14069" lon="5.68305">
        <ele>890.4</ele>
        <time>2026-05-10T10:56:59Z</time>
      </trkpt>
      <trkpt lat="46.14066" lon="5.68301">
        <ele>890.2</ele>
        <time>2026-05-10T10:57:00Z</time>
      </trkpt>
      <trkpt lat="46.14064" lon="5.68297">
        <ele>890.2</ele>
        <time>2026-05-10T10:57:01Z</time>
      </trkpt>
      <trkpt lat="46.14063" lon="5.68294">
        <ele>890.2</ele>
        <time>2026-05-10T10:57:02Z</time>
      </trkpt>
      <trkpt lat="46.1406" lon="5.68291">
        <ele>889.6</ele>
        <time>2026-05-10T10:57:03Z</time>
      </trkpt>
      <trkpt lat="46.14057" lon="5.68286">
        <ele>889.6</ele>
        <time>2026-05-10T10:57:04Z</time>
      </trkpt>
      <trkpt lat="46.14056" lon="5.68284">
        <ele>889.6</ele>
        <time>2026-05-10T10:57:05Z</time>
      </trkpt>
      <trkpt lat="46.14053" lon="5.6828">
        <ele>889.6</ele>
        <time>2026-05-10T10:57:06Z</time>
      </trkpt>
      <trkpt lat="46.14048" lon="5.68277">
        <ele>889.4</ele>
        <time>2026-05-10T10:57:07Z</time>
      </trkpt>
      <trkpt lat="46.14047" lon="5.68273">
        <ele>890</ele>
        <time>2026-05-10T10:57:08Z</time>
      </trkpt>
      <trkpt lat="46.14045" lon="5.68268">
        <ele>890</ele>
        <time>2026-05-10T10:57:09Z</time>
      </trkpt>
      <trkpt lat="46.14047" lon="5.68265">
        <ele>890.2</ele>
        <time>2026-05-10T10:57:10Z</time>
      </trkpt>
      <trkpt lat="46.14046" lon="5.68263">
        <ele>890</ele>
        <time>2026-05-10T10:57:11Z</time>
      </trkpt>
      <trkpt lat="46.14045" lon="5.68258">
        <ele>890</ele>
        <time>2026-05-10T10:57:12Z</time>
      </trkpt>
      <trkpt lat="46.14044" lon="5.68255">
        <ele>890</ele>
        <time>2026-05-10T10:57:13Z</time>
      </trkpt>
      <trkpt lat="46.14042" lon="5.68253">
        <ele>890</ele>
        <time>2026-05-10T10:57:14Z</time>
      </trkpt>
      <trkpt lat="46.14039" lon="5.68249">
        <ele>890.2</ele>
        <time>2026-05-10T10:57:15Z</time>
      </trkpt>
      <trkpt lat="46.14038" lon="5.68247">
        <ele>890.2</ele>
        <time>2026-05-10T10:57:16Z</time>
      </trkpt>
      <trkpt lat="46.14037" lon="5.68245">
        <ele>890.2</ele>
        <time>2026-05-10T10:57:17Z</time>
      </trkpt>
      <trkpt lat="46.14036" lon="5.68243">
        <ele>890.2</ele>
        <time>2026-05-10T10:57:18Z</time>
      </trkpt>
      <trkpt lat="46.14035" lon="5.68241">
        <ele>890.8</ele>
        <time>2026-05-10T10:57:19Z</time>
      </trkpt>
      <trkpt lat="46.14034" lon="5.68239">
        <ele>890.8</ele>
        <time>2026-05-10T10:57:20Z</time>
      </trkpt>
      <trkpt lat="46.14033" lon="5.68237">
        <ele>890.8</ele>
        <time>2026-05-10T10:57:21Z</time>
      </trkpt>
      <trkpt lat="46.14032" lon="5.68234">
        <ele>891</ele>
        <time>2026-05-10T10:57:22Z</time>
      </trkpt>
      <trkpt lat="46.14031" lon="5.68232">
        <ele>891.4</ele>
        <time>2026-05-10T10:57:23Z</time>
      </trkpt>
      <trkpt lat="46.1403" lon="5.6823">
        <ele>891.4</ele>
        <time>2026-05-10T10:57:24Z</time>
      </trkpt>
      <trkpt lat="46.14031" lon="5.68227">
        <ele>891.8</ele>
        <time>2026-05-10T10:57:25Z</time>
      </trkpt>
      <trkpt lat="46.14031" lon="5.68224">
        <ele>891.8</ele>
        <time>2026-05-10T10:57:26Z</time>
      </trkpt>
      <trkpt lat="46.14031" lon="5.68222">
        <ele>892.2</ele>
        <time>2026-05-10T10:57:27Z</time>
      </trkpt>
      <trkpt lat="46.14031" lon="5.6822">
        <ele>892.2</ele>
        <time>2026-05-10T10:57:28Z</time>
      </trkpt>
      <trkpt lat="46.14032" lon="5.68217">
        <ele>892.6</ele>
        <time>2026-05-10T10:57:29Z</time>
      </trkpt>
      <trkpt lat="46.14032" lon="5.68215">
        <ele>893</ele>
        <time>2026-05-10T10:57:30Z</time>
      </trkpt>
      <trkpt lat="46.14032" lon="5.68213">
        <ele>893.4</ele>
        <time>2026-05-10T10:57:31Z</time>
      </trkpt>
      <trkpt lat="46.14031" lon="5.68211">
        <ele>893.4</ele>
        <time>2026-05-10T10:57:32Z</time>
      </trkpt>
      <trkpt lat="46.14031" lon="5.68209">
        <ele>893.6</ele>
        <time>2026-05-10T10:57:33Z</time>
      </trkpt>
      <trkpt lat="46.14031" lon="5.68207">
        <ele>893.6</ele>
        <time>2026-05-10T10:57:34Z</time>
      </trkpt>
      <trkpt lat="46.1403" lon="5.68204">
        <ele>893.6</ele>
        <time>2026-05-10T10:57:35Z</time>
      </trkpt>
      <trkpt lat="46.1403" lon="5.68202">
        <ele>894</ele>
        <time>2026-05-10T10:57:36Z</time>
      </trkpt>
      <trkpt lat="46.14029" lon="5.682">
        <ele>894</ele>
        <time>2026-05-10T10:57:37Z</time>
      </trkpt>
      <trkpt lat="46.14028" lon="5.68199">
        <ele>894.4</ele>
        <time>2026-05-10T10:57:38Z</time>
      </trkpt>
      <trkpt lat="46.14027" lon="5.68197">
        <ele>894.4</ele>
        <time>2026-05-10T10:57:39Z</time>
      </trkpt>
      <trkpt lat="46.14025" lon="5.68196">
        <ele>894.4</ele>
        <time>2026-05-10T10:57:40Z</time>
      </trkpt>
      <trkpt lat="46.14025" lon="5.68196">
        <ele>894.6</ele>
        <time>2026-05-10T10:57:41Z</time>
      </trkpt>
      <trkpt lat="46.14024" lon="5.68195">
        <ele>895.2</ele>
        <time>2026-05-10T10:57:42Z</time>
      </trkpt>
      <trkpt lat="46.14024" lon="5.68194">
        <ele>895.6</ele>
        <time>2026-05-10T10:57:43Z</time>
      </trkpt>
      <trkpt lat="46.14022" lon="5.68192">
        <ele>896</ele>
        <time>2026-05-10T10:57:44Z</time>
      </trkpt>
      <trkpt lat="46.14021" lon="5.68191">
        <ele>896.2</ele>
        <time>2026-05-10T10:57:45Z</time>
      </trkpt>
      <trkpt lat="46.14021" lon="5.6819">
        <ele>896.2</ele>
        <time>2026-05-10T10:57:46Z</time>
      </trkpt>
      <trkpt lat="46.1402" lon="5.68189">
        <ele>896.8</ele>
        <time>2026-05-10T10:57:47Z</time>
      </trkpt>
      <trkpt lat="46.14019" lon="5.68187">
        <ele>896.8</ele>
        <time>2026-05-10T10:57:48Z</time>
      </trkpt>
      <trkpt lat="46.14018" lon="5.68186">
        <ele>896.4</ele>
        <time>2026-05-10T10:57:49Z</time>
      </trkpt>
      <trkpt lat="46.14017" lon="5.68185">
        <ele>897</ele>
        <time>2026-05-10T10:57:50Z</time>
      </trkpt>
      <trkpt lat="46.14016" lon="5.68184">
        <ele>897</ele>
        <time>2026-05-10T10:57:51Z</time>
      </trkpt>
      <trkpt lat="46.14015" lon="5.68182">
        <ele>897</ele>
        <time>2026-05-10T10:57:52Z</time>
      </trkpt>
      <trkpt lat="46.14013" lon="5.68181">
        <ele>897.2</ele>
        <time>2026-05-10T10:57:53Z</time>
      </trkpt>
      <trkpt lat="46.14011" lon="5.68179">
        <ele>897.4</ele>
        <time>2026-05-10T10:57:54Z</time>
      </trkpt>
      <trkpt lat="46.1401" lon="5.68178">
        <ele>897.6</ele>
        <time>2026-05-10T10:57:55Z</time>
      </trkpt>
      <trkpt lat="46.14009" lon="5.68177">
        <ele>897.6</ele>
        <time>2026-05-10T10:57:56Z</time>
      </trkpt>
      <trkpt lat="46.14008" lon="5.68175">
        <ele>897.6</ele>
        <time>2026-05-10T10:57:57Z</time>
      </trkpt>
      <trkpt lat="46.14007" lon="5.68173">
        <ele>898</ele>
        <time>2026-05-10T10:57:58Z</time>
      </trkpt>
      <trkpt lat="46.14006" lon="5.68172">
        <ele>898</ele>
        <time>2026-05-10T10:57:59Z</time>
      </trkpt>
      <trkpt lat="46.14006" lon="5.68171">
        <ele>898.4</ele>
        <time>2026-05-10T10:58:00Z</time>
      </trkpt>
      <trkpt lat="46.14005" lon="5.68169">
        <ele>898.6</ele>
        <time>2026-05-10T10:58:01Z</time>
      </trkpt>
      <trkpt lat="46.14004" lon="5.68167">
        <ele>899</ele>
        <time>2026-05-10T10:58:02Z</time>
      </trkpt>
      <trkpt lat="46.14002" lon="5.68165">
        <ele>899.4</ele>
        <time>2026-05-10T10:58:03Z</time>
      </trkpt>
      <trkpt lat="46.14001" lon="5.68164">
        <ele>899.4</ele>
        <time>2026-05-10T10:58:04Z</time>
      </trkpt>
      <trkpt lat="46.13999" lon="5.68162">
        <ele>899.4</ele>
        <time>2026-05-10T10:58:05Z</time>
      </trkpt>
      <trkpt lat="46.13998" lon="5.68161">
        <ele>899.8</ele>
        <time>2026-05-10T10:58:06Z</time>
      </trkpt>
      <trkpt lat="46.13997" lon="5.6816">
        <ele>900</ele>
        <time>2026-05-10T10:58:07Z</time>
      </trkpt>
      <trkpt lat="46.13996" lon="5.68159">
        <ele>900</ele>
        <time>2026-05-10T10:58:08Z</time>
      </trkpt>
      <trkpt lat="46.13994" lon="5.68158">
        <ele>900.2</ele>
        <time>2026-05-10T10:58:09Z</time>
      </trkpt>
      <trkpt lat="46.13993" lon="5.68157">
        <ele>900.2</ele>
        <time>2026-05-10T10:58:10Z</time>
      </trkpt>
      <trkpt lat="46.13993" lon="5.68156">
        <ele>900.2</ele>
        <time>2026-05-10T10:58:11Z</time>
      </trkpt>
      <trkpt lat="46.13992" lon="5.68155">
        <ele>900.2</ele>
        <time>2026-05-10T10:58:12Z</time>
      </trkpt>
      <trkpt lat="46.13991" lon="5.68153">
        <ele>900.2</ele>
        <time>2026-05-10T10:58:13Z</time>
      </trkpt>
      <trkpt lat="46.1399" lon="5.68152">
        <ele>900.6</ele>
        <time>2026-05-10T10:58:14Z</time>
      </trkpt>
      <trkpt lat="46.13989" lon="5.6815">
        <ele>900.8</ele>
        <time>2026-05-10T10:58:15Z</time>
      </trkpt>
      <trkpt lat="46.13988" lon="5.68148">
        <ele>901.2</ele>
        <time>2026-05-10T10:58:16Z</time>
      </trkpt>
      <trkpt lat="46.13987" lon="5.68147">
        <ele>901.2</ele>
        <time>2026-05-10T10:58:17Z</time>
      </trkpt>
      <trkpt lat="46.13986" lon="5.68146">
        <ele>901.4</ele>
        <time>2026-05-10T10:58:18Z</time>
      </trkpt>
      <trkpt lat="46.13984" lon="5.68144">
        <ele>901.4</ele>
        <time>2026-05-10T10:58:19Z</time>
      </trkpt>
      <trkpt lat="46.13983" lon="5.68143">
        <ele>901.4</ele>
        <time>2026-05-10T10:58:20Z</time>
      </trkpt>
      <trkpt lat="46.13983" lon="5.68141">
        <ele>901.4</ele>
        <time>2026-05-10T10:58:21Z</time>
      </trkpt>
      <trkpt lat="46.13982" lon="5.68139">
        <ele>901.6</ele>
        <time>2026-05-10T10:58:22Z</time>
      </trkpt>
      <trkpt lat="46.13981" lon="5.68137">
        <ele>901.6</ele>
        <time>2026-05-10T10:58:23Z</time>
      </trkpt>
      <trkpt lat="46.1398" lon="5.68136">
        <ele>901.4</ele>
        <time>2026-05-10T10:58:24Z</time>
      </trkpt>
      <trkpt lat="46.13978" lon="5.68135">
        <ele>901.4</ele>
        <time>2026-05-10T10:58:25Z</time>
      </trkpt>
      <trkpt lat="46.13977" lon="5.68133">
        <ele>901.8</ele>
        <time>2026-05-10T10:58:26Z</time>
      </trkpt>
      <trkpt lat="46.13976" lon="5.68131">
        <ele>902.2</ele>
        <time>2026-05-10T10:58:27Z</time>
      </trkpt>
      <trkpt lat="46.13975" lon="5.68128">
        <ele>902.2</ele>
        <time>2026-05-10T10:58:28Z</time>
      </trkpt>
      <trkpt lat="46.13975" lon="5.68126">
        <ele>902.4</ele>
        <time>2026-05-10T10:58:29Z</time>
      </trkpt>
      <trkpt lat="46.13975" lon="5.68124">
        <ele>902.4</ele>
        <time>2026-05-10T10:58:30Z</time>
      </trkpt>
      <trkpt lat="46.13974" lon="5.68122">
        <ele>902.8</ele>
        <time>2026-05-10T10:58:31Z</time>
      </trkpt>
      <trkpt lat="46.13973" lon="5.68119">
        <ele>903.2</ele>
        <time>2026-05-10T10:58:32Z</time>
      </trkpt>
      <trkpt lat="46.13973" lon="5.68117">
        <ele>903.2</ele>
        <time>2026-05-10T10:58:33Z</time>
      </trkpt>
      <trkpt lat="46.13972" lon="5.68115">
        <ele>903.8</ele>
        <time>2026-05-10T10:58:34Z</time>
      </trkpt>
      <trkpt lat="46.13972" lon="5.68113">
        <ele>903.8</ele>
        <time>2026-05-10T10:58:35Z</time>
      </trkpt>
      <trkpt lat="46.13971" lon="5.68112">
        <ele>904</ele>
        <time>2026-05-10T10:58:36Z</time>
      </trkpt>
      <trkpt lat="46.1397" lon="5.68108">
        <ele>904</ele>
        <time>2026-05-10T10:58:37Z</time>
      </trkpt>
      <trkpt lat="46.13969" lon="5.68106">
        <ele>904</ele>
        <time>2026-05-10T10:58:38Z</time>
      </trkpt>
      <trkpt lat="46.13969" lon="5.68104">
        <ele>904</ele>
        <time>2026-05-10T10:58:39Z</time>
      </trkpt>
      <trkpt lat="46.13968" lon="5.68102">
        <ele>904</ele>
        <time>2026-05-10T10:58:40Z</time>
      </trkpt>
      <trkpt lat="46.13967" lon="5.681">
        <ele>904</ele>
        <time>2026-05-10T10:58:41Z</time>
      </trkpt>
      <trkpt lat="46.13966" lon="5.68098">
        <ele>904</ele>
        <time>2026-05-10T10:58:42Z</time>
      </trkpt>
      <trkpt lat="46.13965" lon="5.68095">
        <ele>904.2</ele>
        <time>2026-05-10T10:58:43Z</time>
      </trkpt>
      <trkpt lat="46.13965" lon="5.68092">
        <ele>904.2</ele>
        <time>2026-05-10T10:58:44Z</time>
      </trkpt>
      <trkpt lat="46.13965" lon="5.6809">
        <ele>904.2</ele>
        <time>2026-05-10T10:58:45Z</time>
      </trkpt>
      <trkpt lat="46.13964" lon="5.68088">
        <ele>904.2</ele>
        <time>2026-05-10T10:58:46Z</time>
      </trkpt>
      <trkpt lat="46.13963" lon="5.68085">
        <ele>904.2</ele>
        <time>2026-05-10T10:58:47Z</time>
      </trkpt>
      <trkpt lat="46.13962" lon="5.68082">
        <ele>904.6</ele>
        <time>2026-05-10T10:58:48Z</time>
      </trkpt>
      <trkpt lat="46.13961" lon="5.68079">
        <ele>904.6</ele>
        <time>2026-05-10T10:58:49Z</time>
      </trkpt>
      <trkpt lat="46.1396" lon="5.68076">
        <ele>905</ele>
        <time>2026-05-10T10:58:50Z</time>
      </trkpt>
      <trkpt lat="46.13959" lon="5.68074">
        <ele>905</ele>
        <time>2026-05-10T10:58:51Z</time>
      </trkpt>
      <trkpt lat="46.13958" lon="5.68073">
        <ele>905</ele>
        <time>2026-05-10T10:58:52Z</time>
      </trkpt>
      <trkpt lat="46.13958" lon="5.68071">
        <ele>905</ele>
        <time>2026-05-10T10:58:53Z</time>
      </trkpt>
      <trkpt lat="46.13957" lon="5.68069">
        <ele>905.2</ele>
        <time>2026-05-10T10:58:54Z</time>
      </trkpt>
      <trkpt lat="46.13956" lon="5.68066">
        <ele>905.2</ele>
        <time>2026-05-10T10:58:55Z</time>
      </trkpt>
      <trkpt lat="46.13955" lon="5.68064">
        <ele>905.6</ele>
        <time>2026-05-10T10:58:56Z</time>
      </trkpt>
      <trkpt lat="46.13953" lon="5.68061">
        <ele>905.6</ele>
        <time>2026-05-10T10:58:57Z</time>
      </trkpt>
      <trkpt lat="46.13953" lon="5.68059">
        <ele>905.6</ele>
        <time>2026-05-10T10:58:58Z</time>
      </trkpt>
      <trkpt lat="46.13952" lon="5.68056">
        <ele>905.6</ele>
        <time>2026-05-10T10:58:59Z</time>
      </trkpt>
      <trkpt lat="46.13951" lon="5.68054">
        <ele>905.6</ele>
        <time>2026-05-10T10:59:00Z</time>
      </trkpt>
      <trkpt lat="46.1395" lon="5.68052">
        <ele>905.8</ele>
        <time>2026-05-10T10:59:01Z</time>
      </trkpt>
      <trkpt lat="46.13949" lon="5.68049">
        <ele>905.8</ele>
        <time>2026-05-10T10:59:02Z</time>
      </trkpt>
      <trkpt lat="46.13948" lon="5.68047">
        <ele>905.8</ele>
        <time>2026-05-10T10:59:03Z</time>
      </trkpt>
      <trkpt lat="46.13947" lon="5.68044">
        <ele>906.4</ele>
        <time>2026-05-10T10:59:04Z</time>
      </trkpt>
      <trkpt lat="46.13945" lon="5.68041">
        <ele>906.4</ele>
        <time>2026-05-10T10:59:05Z</time>
      </trkpt>
      <trkpt lat="46.13944" lon="5.68039">
        <ele>906.6</ele>
        <time>2026-05-10T10:59:06Z</time>
      </trkpt>
      <trkpt lat="46.13944" lon="5.68036">
        <ele>906.6</ele>
        <time>2026-05-10T10:59:07Z</time>
      </trkpt>
      <trkpt lat="46.13943" lon="5.68033">
        <ele>906.8</ele>
        <time>2026-05-10T10:59:08Z</time>
      </trkpt>
      <trkpt lat="46.13943" lon="5.6803">
        <ele>906.8</ele>
        <time>2026-05-10T10:59:09Z</time>
      </trkpt>
      <trkpt lat="46.13943" lon="5.68028">
        <ele>907.2</ele>
        <time>2026-05-10T10:59:10Z</time>
      </trkpt>
      <trkpt lat="46.13943" lon="5.68026">
        <ele>907.2</ele>
        <time>2026-05-10T10:59:11Z</time>
      </trkpt>
      <trkpt lat="46.13943" lon="5.68023">
        <ele>907.2</ele>
        <time>2026-05-10T10:59:12Z</time>
      </trkpt>
      <trkpt lat="46.13943" lon="5.68022">
        <ele>907.6</ele>
        <time>2026-05-10T10:59:13Z</time>
      </trkpt>
      <trkpt lat="46.13942" lon="5.6802">
        <ele>907.8</ele>
        <time>2026-05-10T10:59:14Z</time>
      </trkpt>
      <trkpt lat="46.1394" lon="5.68019">
        <ele>907.8</ele>
        <time>2026-05-10T10:59:15Z</time>
      </trkpt>
      <trkpt lat="46.1394" lon="5.68018">
        <ele>908.2</ele>
        <time>2026-05-10T10:59:16Z</time>
      </trkpt>
      <trkpt lat="46.13939" lon="5.68017">
        <ele>908.6</ele>
        <time>2026-05-10T10:59:17Z</time>
      </trkpt>
      <trkpt lat="46.13938" lon="5.68016">
        <ele>908.6</ele>
        <time>2026-05-10T10:59:18Z</time>
      </trkpt>
      <trkpt lat="46.13936" lon="5.68015">
        <ele>908.8</ele>
        <time>2026-05-10T10:59:19Z</time>
      </trkpt>
      <trkpt lat="46.13935" lon="5.68014">
        <ele>908.8</ele>
        <time>2026-05-10T10:59:20Z</time>
      </trkpt>
      <trkpt lat="46.13934" lon="5.68014">
        <ele>908.8</ele>
        <time>2026-05-10T10:59:21Z</time>
      </trkpt>
      <trkpt lat="46.13933" lon="5.68013">
        <ele>909.2</ele>
        <time>2026-05-10T10:59:22Z</time>
      </trkpt>
      <trkpt lat="46.13932" lon="5.68012">
        <ele>909.2</ele>
        <time>2026-05-10T10:59:23Z</time>
      </trkpt>
      <trkpt lat="46.13931" lon="5.6801">
        <ele>909.8</ele>
        <time>2026-05-10T10:59:24Z</time>
      </trkpt>
      <trkpt lat="46.13931" lon="5.68008">
        <ele>910</ele>
        <time>2026-05-10T10:59:25Z</time>
      </trkpt>
      <trkpt lat="46.1393" lon="5.68007">
        <ele>910</ele>
        <time>2026-05-10T10:59:26Z</time>
      </trkpt>
      <trkpt lat="46.13929" lon="5.68007">
        <ele>910.2</ele>
        <time>2026-05-10T10:59:27Z</time>
      </trkpt>
      <trkpt lat="46.13928" lon="5.68007">
        <ele>910.4</ele>
        <time>2026-05-10T10:59:28Z</time>
      </trkpt>
      <trkpt lat="46.13927" lon="5.68005">
        <ele>910.4</ele>
        <time>2026-05-10T10:59:29Z</time>
      </trkpt>
      <trkpt lat="46.13927" lon="5.68003">
        <ele>910.8</ele>
        <time>2026-05-10T10:59:30Z</time>
      </trkpt>
      <trkpt lat="46.13926" lon="5.68001">
        <ele>910.8</ele>
        <time>2026-05-10T10:59:31Z</time>
      </trkpt>
      <trkpt lat="46.13925" lon="5.67998">
        <ele>911</ele>
        <time>2026-05-10T10:59:32Z</time>
      </trkpt>
      <trkpt lat="46.13925" lon="5.67996">
        <ele>911.4</ele>
        <time>2026-05-10T10:59:33Z</time>
      </trkpt>
      <trkpt lat="46.13925" lon="5.67995">
        <ele>911.4</ele>
        <time>2026-05-10T10:59:34Z</time>
      </trkpt>
      <trkpt lat="46.13925" lon="5.67993">
        <ele>911.8</ele>
        <time>2026-05-10T10:59:35Z</time>
      </trkpt>
      <trkpt lat="46.13925" lon="5.6799">
        <ele>912.2</ele>
        <time>2026-05-10T10:59:36Z</time>
      </trkpt>
      <trkpt lat="46.13925" lon="5.67988">
        <ele>912.4</ele>
        <time>2026-05-10T10:59:37Z</time>
      </trkpt>
      <trkpt lat="46.13924" lon="5.67986">
        <ele>912.4</ele>
        <time>2026-05-10T10:59:38Z</time>
      </trkpt>
      <trkpt lat="46.13924" lon="5.67984">
        <ele>912.8</ele>
        <time>2026-05-10T10:59:39Z</time>
      </trkpt>
      <trkpt lat="46.13923" lon="5.67983">
        <ele>913</ele>
        <time>2026-05-10T10:59:40Z</time>
      </trkpt>
      <trkpt lat="46.13923" lon="5.67981">
        <ele>913.2</ele>
        <time>2026-05-10T10:59:41Z</time>
      </trkpt>
      <trkpt lat="46.13922" lon="5.6798">
        <ele>913.2</ele>
        <time>2026-05-10T10:59:42Z</time>
      </trkpt>
      <trkpt lat="46.13922" lon="5.67978">
        <ele>913.4</ele>
        <time>2026-05-10T10:59:43Z</time>
      </trkpt>
      <trkpt lat="46.13921" lon="5.67976">
        <ele>913.4</ele>
        <time>2026-05-10T10:59:44Z</time>
      </trkpt>
      <trkpt lat="46.13921" lon="5.67974">
        <ele>913.6</ele>
        <time>2026-05-10T10:59:45Z</time>
      </trkpt>
      <trkpt lat="46.13921" lon="5.67973">
        <ele>913.6</ele>
        <time>2026-05-10T10:59:46Z</time>
      </trkpt>
      <trkpt lat="46.13921" lon="5.67971">
        <ele>913.6</ele>
        <time>2026-05-10T10:59:47Z</time>
      </trkpt>
      <trkpt lat="46.13921" lon="5.67969">
        <ele>913.6</ele>
        <time>2026-05-10T10:59:48Z</time>
      </trkpt>
      <trkpt lat="46.13921" lon="5.67967">
        <ele>914</ele>
        <time>2026-05-10T10:59:49Z</time>
      </trkpt>
      <trkpt lat="46.13921" lon="5.67965">
        <ele>914.2</ele>
        <time>2026-05-10T10:59:50Z</time>
      </trkpt>
      <trkpt lat="46.13921" lon="5.67964">
        <ele>914.2</ele>
        <time>2026-05-10T10:59:51Z</time>
      </trkpt>
      <trkpt lat="46.13922" lon="5.67962">
        <ele>914.8</ele>
        <time>2026-05-10T10:59:52Z</time>
      </trkpt>
      <trkpt lat="46.13922" lon="5.6796">
        <ele>915</ele>
        <time>2026-05-10T10:59:53Z</time>
      </trkpt>
      <trkpt lat="46.13922" lon="5.67958">
        <ele>915</ele>
        <time>2026-05-10T10:59:54Z</time>
      </trkpt>
      <trkpt lat="46.13922" lon="5.67957">
        <ele>915.2</ele>
        <time>2026-05-10T10:59:55Z</time>
      </trkpt>
      <trkpt lat="46.13922" lon="5.67956">
        <ele>915.4</ele>
        <time>2026-05-10T10:59:56Z</time>
      </trkpt>
      <trkpt lat="46.13922" lon="5.67955">
        <ele>915.8</ele>
        <time>2026-05-10T10:59:57Z</time>
      </trkpt>
      <trkpt lat="46.13922" lon="5.67953">
        <ele>916</ele>
        <time>2026-05-10T10:59:58Z</time>
      </trkpt>
      <trkpt lat="46.13922" lon="5.67952">
        <ele>916</ele>
        <time>2026-05-10T10:59:59Z</time>
      </trkpt>
      <trkpt lat="46.13922" lon="5.6795">
        <ele>916.4</ele>
        <time>2026-05-10T11:00:00Z</time>
      </trkpt>
      <trkpt lat="46.13923" lon="5.67949">
        <ele>916.6</ele>
        <time>2026-05-10T11:00:01Z</time>
      </trkpt>
      <trkpt lat="46.13923" lon="5.67949">
        <ele>916.6</ele>
        <time>2026-05-10T11:00:02Z</time>
      </trkpt>
      <trkpt lat="46.13924" lon="5.67947">
        <ele>917</ele>
        <time>2026-05-10T11:00:15Z</time>
      </trkpt>
      <trkpt lat="46.13925" lon="5.67945">
        <ele>917</ele>
        <time>2026-05-10T11:00:16Z</time>
      </trkpt>
      <trkpt lat="46.13925" lon="5.67943">
        <ele>917</ele>
        <time>2026-05-10T11:00:17Z</time>
      </trkpt>
      <trkpt lat="46.13925" lon="5.6794">
        <ele>917.2</ele>
        <time>2026-05-10T11:00:18Z</time>
      </trkpt>
      <trkpt lat="46.13926" lon="5.67939">
        <ele>917.2</ele>
        <time>2026-05-10T11:00:19Z</time>
      </trkpt>
      <trkpt lat="46.13926" lon="5.67938">
        <ele>917.2</ele>
        <time>2026-05-10T11:00:20Z</time>
      </trkpt>
      <trkpt lat="46.13927" lon="5.67936">
        <ele>917.6</ele>
        <time>2026-05-10T11:00:21Z</time>
      </trkpt>
      <trkpt lat="46.13928" lon="5.67934">
        <ele>917.6</ele>
        <time>2026-05-10T11:00:22Z</time>
      </trkpt>
      <trkpt lat="46.1393" lon="5.67932">
        <ele>918</ele>
        <time>2026-05-10T11:00:23Z</time>
      </trkpt>
      <trkpt lat="46.13931" lon="5.67931">
        <ele>918</ele>
        <time>2026-05-10T11:00:24Z</time>
      </trkpt>
      <trkpt lat="46.13932" lon="5.6793">
        <ele>918.2</ele>
        <time>2026-05-10T11:00:25Z</time>
      </trkpt>
      <trkpt lat="46.13935" lon="5.67929">
        <ele>918.4</ele>
        <time>2026-05-10T11:00:26Z</time>
      </trkpt>
      <trkpt lat="46.13938" lon="5.67928">
        <ele>919</ele>
        <time>2026-05-10T11:00:27Z</time>
      </trkpt>
      <trkpt lat="46.1394" lon="5.67928">
        <ele>919</ele>
        <time>2026-05-10T11:00:28Z</time>
      </trkpt>
      <trkpt lat="46.13941" lon="5.67928">
        <ele>919.4</ele>
        <time>2026-05-10T11:00:29Z</time>
      </trkpt>
      <trkpt lat="46.13943" lon="5.67927">
        <ele>919.4</ele>
        <time>2026-05-10T11:00:30Z</time>
      </trkpt>
      <trkpt lat="46.13944" lon="5.67926">
        <ele>919.6</ele>
        <time>2026-05-10T11:00:31Z</time>
      </trkpt>
      <trkpt lat="46.13944" lon="5.67925">
        <ele>919.6</ele>
        <time>2026-05-10T11:00:32Z</time>
      </trkpt>
      <trkpt lat="46.13944" lon="5.67923">
        <ele>919.8</ele>
        <time>2026-05-10T11:00:33Z</time>
      </trkpt>
      <trkpt lat="46.13944" lon="5.6792">
        <ele>919.8</ele>
        <time>2026-05-10T11:00:34Z</time>
      </trkpt>
      <trkpt lat="46.13944" lon="5.67919">
        <ele>919.8</ele>
        <time>2026-05-10T11:00:35Z</time>
      </trkpt>
      <trkpt lat="46.13944" lon="5.67917">
        <ele>919.8</ele>
        <time>2026-05-10T11:00:36Z</time>
      </trkpt>
      <trkpt lat="46.13944" lon="5.67914">
        <ele>920.2</ele>
        <time>2026-05-10T11:00:37Z</time>
      </trkpt>
      <trkpt lat="46.13944" lon="5.67912">
        <ele>920.4</ele>
        <time>2026-05-10T11:00:38Z</time>
      </trkpt>
      <trkpt lat="46.13944" lon="5.67909">
        <ele>920.8</ele>
        <time>2026-05-10T11:00:39Z</time>
      </trkpt>
      <trkpt lat="46.13944" lon="5.67907">
        <ele>921</ele>
        <time>2026-05-10T11:00:40Z</time>
      </trkpt>
      <trkpt lat="46.13944" lon="5.67905">
        <ele>921</ele>
        <time>2026-05-10T11:00:41Z</time>
      </trkpt>
      <trkpt lat="46.13944" lon="5.67904">
        <ele>921</ele>
        <time>2026-05-10T11:00:42Z</time>
      </trkpt>
      <trkpt lat="46.13945" lon="5.67904">
        <ele>921.4</ele>
        <time>2026-05-10T11:00:43Z</time>
      </trkpt>
      <trkpt lat="46.13945" lon="5.67901">
        <ele>921.4</ele>
        <time>2026-05-10T11:00:44Z</time>
      </trkpt>
      <trkpt lat="46.13945" lon="5.67899">
        <ele>921.6</ele>
        <time>2026-05-10T11:00:45Z</time>
      </trkpt>
      <trkpt lat="46.13946" lon="5.67897">
        <ele>921.8</ele>
        <time>2026-05-10T11:00:46Z</time>
      </trkpt>
      <trkpt lat="46.13945" lon="5.67895">
        <ele>922.2</ele>
        <time>2026-05-10T11:00:47Z</time>
      </trkpt>
      <trkpt lat="46.13945" lon="5.67893">
        <ele>922.2</ele>
        <time>2026-05-10T11:00:48Z</time>
      </trkpt>
      <trkpt lat="46.13945" lon="5.67891">
        <ele>922.4</ele>
        <time>2026-05-10T11:00:49Z</time>
      </trkpt>
      <trkpt lat="46.13944" lon="5.67889">
        <ele>922.4</ele>
        <time>2026-05-10T11:00:50Z</time>
      </trkpt>
      <trkpt lat="46.13944" lon="5.67887">
        <ele>922.6</ele>
        <time>2026-05-10T11:00:51Z</time>
      </trkpt>
      <trkpt lat="46.13943" lon="5.67883">
        <ele>922.6</ele>
        <time>2026-05-10T11:00:52Z</time>
      </trkpt>
      <trkpt lat="46.13943" lon="5.67881">
        <ele>922.8</ele>
        <time>2026-05-10T11:00:53Z</time>
      </trkpt>
      <trkpt lat="46.13943" lon="5.67879">
        <ele>922.8</ele>
        <time>2026-05-10T11:00:54Z</time>
      </trkpt>
      <trkpt lat="46.13943" lon="5.67876">
        <ele>923.2</ele>
        <time>2026-05-10T11:00:55Z</time>
      </trkpt>
      <trkpt lat="46.13942" lon="5.67874">
        <ele>923.2</ele>
        <time>2026-05-10T11:00:56Z</time>
      </trkpt>
      <trkpt lat="46.13942" lon="5.67872">
        <ele>923.2</ele>
        <time>2026-05-10T11:00:57Z</time>
      </trkpt>
      <trkpt lat="46.13942" lon="5.67869">
        <ele>923.4</ele>
        <time>2026-05-10T11:00:58Z</time>
      </trkpt>
      <trkpt lat="46.13941" lon="5.67867">
        <ele>923.4</ele>
        <time>2026-05-10T11:00:59Z</time>
      </trkpt>
      <trkpt lat="46.13941" lon="5.67866">
        <ele>923.4</ele>
        <time>2026-05-10T11:01:00Z</time>
      </trkpt>
      <trkpt lat="46.1394" lon="5.67864">
        <ele>923.8</ele>
        <time>2026-05-10T11:01:01Z</time>
      </trkpt>
      <trkpt lat="46.1394" lon="5.67862">
        <ele>923.8</ele>
        <time>2026-05-10T11:01:02Z</time>
      </trkpt>
      <trkpt lat="46.1394" lon="5.67859">
        <ele>924</ele>
        <time>2026-05-10T11:01:03Z</time>
      </trkpt>
      <trkpt lat="46.13941" lon="5.67856">
        <ele>924</ele>
        <time>2026-05-10T11:01:04Z</time>
      </trkpt>
      <trkpt lat="46.13941" lon="5.67854">
        <ele>924.2</ele>
        <time>2026-05-10T11:01:05Z</time>
      </trkpt>
      <trkpt lat="46.13941" lon="5.67851">
        <ele>924.2</ele>
        <time>2026-05-10T11:01:06Z</time>
      </trkpt>
      <trkpt lat="46.13941" lon="5.67848">
        <ele>924.6</ele>
        <time>2026-05-10T11:01:07Z</time>
      </trkpt>
      <trkpt lat="46.13939" lon="5.67846">
        <ele>924.6</ele>
        <time>2026-05-10T11:01:08Z</time>
      </trkpt>
      <trkpt lat="46.13938" lon="5.67844">
        <ele>924.8</ele>
        <time>2026-05-10T11:01:09Z</time>
      </trkpt>
      <trkpt lat="46.13938" lon="5.67843">
        <ele>924.8</ele>
        <time>2026-05-10T11:01:10Z</time>
      </trkpt>
      <trkpt lat="46.13938" lon="5.67841">
        <ele>924.8</ele>
        <time>2026-05-10T11:01:11Z</time>
      </trkpt>
      <trkpt lat="46.13938" lon="5.6784">
        <ele>925.4</ele>
        <time>2026-05-10T11:01:12Z</time>
      </trkpt>
      <trkpt lat="46.13938" lon="5.67838">
        <ele>925.4</ele>
        <time>2026-05-10T11:01:13Z</time>
      </trkpt>
      <trkpt lat="46.13937" lon="5.67837">
        <ele>925.8</ele>
        <time>2026-05-10T11:01:14Z</time>
      </trkpt>
      <trkpt lat="46.13937" lon="5.67834">
        <ele>925.8</ele>
        <time>2026-05-10T11:01:15Z</time>
      </trkpt>
      <trkpt lat="46.13937" lon="5.67831">
        <ele>925.8</ele>
        <time>2026-05-10T11:01:16Z</time>
      </trkpt>
      <trkpt lat="46.13938" lon="5.6783">
        <ele>926.2</ele>
        <time>2026-05-10T11:01:17Z</time>
      </trkpt>
      <trkpt lat="46.13938" lon="5.67827">
        <ele>926.2</ele>
        <time>2026-05-10T11:01:18Z</time>
      </trkpt>
      <trkpt lat="46.13939" lon="5.67826">
        <ele>926.4</ele>
        <time>2026-05-10T11:01:19Z</time>
      </trkpt>
      <trkpt lat="46.13939" lon="5.67824">
        <ele>926.8</ele>
        <time>2026-05-10T11:01:20Z</time>
      </trkpt>
      <trkpt lat="46.1394" lon="5.67823">
        <ele>927</ele>
        <time>2026-05-10T11:01:21Z</time>
      </trkpt>
      <trkpt lat="46.13941" lon="5.67821">
        <ele>927</ele>
        <time>2026-05-10T11:01:22Z</time>
      </trkpt>
      <trkpt lat="46.13941" lon="5.67819">
        <ele>927.4</ele>
        <time>2026-05-10T11:01:23Z</time>
      </trkpt>
      <trkpt lat="46.1394" lon="5.67817">
        <ele>927.4</ele>
        <time>2026-05-10T11:01:24Z</time>
      </trkpt>
      <trkpt lat="46.13939" lon="5.67815">
        <ele>927.4</ele>
        <time>2026-05-10T11:01:25Z</time>
      </trkpt>
      <trkpt lat="46.13937" lon="5.67814">
        <ele>927.8</ele>
        <time>2026-05-10T11:01:26Z</time>
      </trkpt>
      <trkpt lat="46.13936" lon="5.67812">
        <ele>927.8</ele>
        <time>2026-05-10T11:01:27Z</time>
      </trkpt>
      <trkpt lat="46.13934" lon="5.6781">
        <ele>927.8</ele>
        <time>2026-05-10T11:01:28Z</time>
      </trkpt>
      <trkpt lat="46.13932" lon="5.67808">
        <ele>927.8</ele>
        <time>2026-05-10T11:01:29Z</time>
      </trkpt>
      <trkpt lat="46.13931" lon="5.67806">
        <ele>928</ele>
        <time>2026-05-10T11:01:30Z</time>
      </trkpt>
      <trkpt lat="46.1393" lon="5.67804">
        <ele>928</ele>
        <time>2026-05-10T11:01:31Z</time>
      </trkpt>
      <trkpt lat="46.13929" lon="5.67801">
        <ele>928</ele>
        <time>2026-05-10T11:01:32Z</time>
      </trkpt>
      <trkpt lat="46.13927" lon="5.67799">
        <ele>928</ele>
        <time>2026-05-10T11:01:33Z</time>
      </trkpt>
      <trkpt lat="46.13926" lon="5.67796">
        <ele>928</ele>
        <time>2026-05-10T11:01:34Z</time>
      </trkpt>
      <trkpt lat="46.13924" lon="5.67794">
        <ele>928</ele>
        <time>2026-05-10T11:01:35Z</time>
      </trkpt>
      <trkpt lat="46.13923" lon="5.67791">
        <ele>928</ele>
        <time>2026-05-10T11:01:36Z</time>
      </trkpt>
      <trkpt lat="46.13923" lon="5.67789">
        <ele>928</ele>
        <time>2026-05-10T11:01:37Z</time>
      </trkpt>
      <trkpt lat="46.13922" lon="5.67786">
        <ele>928.2</ele>
        <time>2026-05-10T11:01:38Z</time>
      </trkpt>
      <trkpt lat="46.13921" lon="5.67783">
        <ele>928.2</ele>
        <time>2026-05-10T11:01:39Z</time>
      </trkpt>
      <trkpt lat="46.1392" lon="5.67781">
        <ele>928.8</ele>
        <time>2026-05-10T11:01:40Z</time>
      </trkpt>
      <trkpt lat="46.13918" lon="5.67778">
        <ele>928.8</ele>
        <time>2026-05-10T11:01:41Z</time>
      </trkpt>
      <trkpt lat="46.13917" lon="5.67776">
        <ele>928.8</ele>
        <time>2026-05-10T11:01:42Z</time>
      </trkpt>
      <trkpt lat="46.13915" lon="5.67774">
        <ele>929</ele>
        <time>2026-05-10T11:01:43Z</time>
      </trkpt>
      <trkpt lat="46.13914" lon="5.67772">
        <ele>929</ele>
        <time>2026-05-10T11:01:44Z</time>
      </trkpt>
      <trkpt lat="46.13914" lon="5.67771">
        <ele>929.4</ele>
        <time>2026-05-10T11:01:45Z</time>
      </trkpt>
      <trkpt lat="46.13913" lon="5.6777">
        <ele>929.4</ele>
        <time>2026-05-10T11:01:46Z</time>
      </trkpt>
      <trkpt lat="46.13913" lon="5.6777">
        <ele>929.4</ele>
        <time>2026-05-10T11:01:47Z</time>
      </trkpt>
      <trkpt lat="46.13911" lon="5.67768">
        <ele>929.4</ele>
        <time>2026-05-10T11:01:48Z</time>
      </trkpt>
      <trkpt lat="46.1391" lon="5.67767">
        <ele>929.8</ele>
        <time>2026-05-10T11:01:49Z</time>
      </trkpt>
      <trkpt lat="46.13909" lon="5.67766">
        <ele>929.8</ele>
        <time>2026-05-10T11:01:50Z</time>
      </trkpt>
      <trkpt lat="46.13908" lon="5.67764">
        <ele>930.2</ele>
        <time>2026-05-10T11:01:51Z</time>
      </trkpt>
      <trkpt lat="46.13907" lon="5.67763">
        <ele>930.2</ele>
        <time>2026-05-10T11:01:52Z</time>
      </trkpt>
      <trkpt lat="46.13906" lon="5.67761">
        <ele>930.4</ele>
        <time>2026-05-10T11:01:53Z</time>
      </trkpt>
      <trkpt lat="46.13906" lon="5.67759">
        <ele>930.4</ele>
        <time>2026-05-10T11:01:54Z</time>
      </trkpt>
      <trkpt lat="46.13905" lon="5.67757">
        <ele>930.4</ele>
        <time>2026-05-10T11:01:55Z</time>
      </trkpt>
      <trkpt lat="46.13905" lon="5.67755">
        <ele>930.8</ele>
        <time>2026-05-10T11:01:56Z</time>
      </trkpt>
      <trkpt lat="46.13905" lon="5.67753">
        <ele>930.8</ele>
        <time>2026-05-10T11:01:57Z</time>
      </trkpt>
      <trkpt lat="46.13905" lon="5.67751">
        <ele>931</ele>
        <time>2026-05-10T11:01:58Z</time>
      </trkpt>
      <trkpt lat="46.13904" lon="5.67748">
        <ele>931</ele>
        <time>2026-05-10T11:01:59Z</time>
      </trkpt>
      <trkpt lat="46.13904" lon="5.67746">
        <ele>931</ele>
        <time>2026-05-10T11:02:00Z</time>
      </trkpt>
      <trkpt lat="46.13904" lon="5.67745">
        <ele>931.2</ele>
        <time>2026-05-10T11:02:01Z</time>
      </trkpt>
      <trkpt lat="46.13903" lon="5.67743">
        <ele>931.4</ele>
        <time>2026-05-10T11:02:02Z</time>
      </trkpt>
      <trkpt lat="46.13903" lon="5.67742">
        <ele>931.4</ele>
        <time>2026-05-10T11:02:03Z</time>
      </trkpt>
      <trkpt lat="46.13901" lon="5.6774">
        <ele>931.4</ele>
        <time>2026-05-10T11:02:04Z</time>
      </trkpt>
      <trkpt lat="46.139" lon="5.67738">
        <ele>932</ele>
        <time>2026-05-10T11:02:05Z</time>
      </trkpt>
      <trkpt lat="46.13898" lon="5.67736">
        <ele>932</ele>
        <time>2026-05-10T11:02:06Z</time>
      </trkpt>
      <trkpt lat="46.13897" lon="5.67733">
        <ele>932.2</ele>
        <time>2026-05-10T11:02:07Z</time>
      </trkpt>
      <trkpt lat="46.13895" lon="5.67732">
        <ele>932.6</ele>
        <time>2026-05-10T11:02:08Z</time>
      </trkpt>
      <trkpt lat="46.13893" lon="5.6773">
        <ele>933</ele>
        <time>2026-05-10T11:02:09Z</time>
      </trkpt>
      <trkpt lat="46.13892" lon="5.67728">
        <ele>933</ele>
        <time>2026-05-10T11:02:10Z</time>
      </trkpt>
      <trkpt lat="46.13892" lon="5.67726">
        <ele>933</ele>
        <time>2026-05-10T11:02:11Z</time>
      </trkpt>
      <trkpt lat="46.13891" lon="5.67724">
        <ele>933.2</ele>
        <time>2026-05-10T11:02:12Z</time>
      </trkpt>
      <trkpt lat="46.13891" lon="5.67722">
        <ele>933.2</ele>
        <time>2026-05-10T11:02:13Z</time>
      </trkpt>
      <trkpt lat="46.1389" lon="5.6772">
        <ele>933.6</ele>
        <time>2026-05-10T11:02:14Z</time>
      </trkpt>
      <trkpt lat="46.13889" lon="5.67718">
        <ele>933.6</ele>
        <time>2026-05-10T11:02:15Z</time>
      </trkpt>
      <trkpt lat="46.13888" lon="5.67715">
        <ele>933.6</ele>
        <time>2026-05-10T11:02:16Z</time>
      </trkpt>
      <trkpt lat="46.13887" lon="5.67713">
        <ele>933.6</ele>
        <time>2026-05-10T11:02:17Z</time>
      </trkpt>
      <trkpt lat="46.13886" lon="5.67711">
        <ele>933.6</ele>
        <time>2026-05-10T11:02:18Z</time>
      </trkpt>
      <trkpt lat="46.13886" lon="5.67708">
        <ele>933.6</ele>
        <time>2026-05-10T11:02:19Z</time>
      </trkpt>
      <trkpt lat="46.13883" lon="5.67705">
        <ele>933.6</ele>
        <time>2026-05-10T11:02:20Z</time>
      </trkpt>
      <trkpt lat="46.13882" lon="5.67703">
        <ele>933.8</ele>
        <time>2026-05-10T11:02:21Z</time>
      </trkpt>
      <trkpt lat="46.13881" lon="5.67702">
        <ele>933.8</ele>
        <time>2026-05-10T11:02:22Z</time>
      </trkpt>
      <trkpt lat="46.1388" lon="5.677">
        <ele>933.8</ele>
        <time>2026-05-10T11:02:23Z</time>
      </trkpt>
      <trkpt lat="46.13879" lon="5.67698">
        <ele>934</ele>
        <time>2026-05-10T11:02:24Z</time>
      </trkpt>
      <trkpt lat="46.13878" lon="5.67697">
        <ele>934</ele>
        <time>2026-05-10T11:02:25Z</time>
      </trkpt>
      <trkpt lat="46.13877" lon="5.67695">
        <ele>934.2</ele>
        <time>2026-05-10T11:02:26Z</time>
      </trkpt>
      <trkpt lat="46.13876" lon="5.67694">
        <ele>934.2</ele>
        <time>2026-05-10T11:02:27Z</time>
      </trkpt>
      <trkpt lat="46.13875" lon="5.67693">
        <ele>934.2</ele>
        <time>2026-05-10T11:02:28Z</time>
      </trkpt>
      <trkpt lat="46.13875" lon="5.67692">
        <ele>934.6</ele>
        <time>2026-05-10T11:02:29Z</time>
      </trkpt>
      <trkpt lat="46.13874" lon="5.6769">
        <ele>934.6</ele>
        <time>2026-05-10T11:02:30Z</time>
      </trkpt>
      <trkpt lat="46.13872" lon="5.67688">
        <ele>934.6</ele>
        <time>2026-05-10T11:02:31Z</time>
      </trkpt>
      <trkpt lat="46.13871" lon="5.67687">
        <ele>934.6</ele>
        <time>2026-05-10T11:02:32Z</time>
      </trkpt>
      <trkpt lat="46.13869" lon="5.67684">
        <ele>935</ele>
        <time>2026-05-10T11:02:33Z</time>
      </trkpt>
      <trkpt lat="46.13867" lon="5.67682">
        <ele>935</ele>
        <time>2026-05-10T11:02:34Z</time>
      </trkpt>
      <trkpt lat="46.13865" lon="5.67681">
        <ele>935</ele>
        <time>2026-05-10T11:02:35Z</time>
      </trkpt>
      <trkpt lat="46.13863" lon="5.6768">
        <ele>935.2</ele>
        <time>2026-05-10T11:02:36Z</time>
      </trkpt>
      <trkpt lat="46.13862" lon="5.67678">
        <ele>935.2</ele>
        <time>2026-05-10T11:02:37Z</time>
      </trkpt>
      <trkpt lat="46.1386" lon="5.67677">
        <ele>935.2</ele>
        <time>2026-05-10T11:02:38Z</time>
      </trkpt>
      <trkpt lat="46.13859" lon="5.67676">
        <ele>935.6</ele>
        <time>2026-05-10T11:02:39Z</time>
      </trkpt>
      <trkpt lat="46.13858" lon="5.67674">
        <ele>935.6</ele>
        <time>2026-05-10T11:02:40Z</time>
      </trkpt>
      <trkpt lat="46.13858" lon="5.67673">
        <ele>935.8</ele>
        <time>2026-05-10T11:02:41Z</time>
      </trkpt>
      <trkpt lat="46.13857" lon="5.67672">
        <ele>935.8</ele>
        <time>2026-05-10T11:02:42Z</time>
      </trkpt>
      <trkpt lat="46.13856" lon="5.6767">
        <ele>936.2</ele>
        <time>2026-05-10T11:02:43Z</time>
      </trkpt>
      <trkpt lat="46.13855" lon="5.67669">
        <ele>936.6</ele>
        <time>2026-05-10T11:02:44Z</time>
      </trkpt>
      <trkpt lat="46.13854" lon="5.67668">
        <ele>936.6</ele>
        <time>2026-05-10T11:02:45Z</time>
      </trkpt>
      <trkpt lat="46.13853" lon="5.67667">
        <ele>936.6</ele>
        <time>2026-05-10T11:02:46Z</time>
      </trkpt>
      <trkpt lat="46.13853" lon="5.67666">
        <ele>937</ele>
        <time>2026-05-10T11:02:47Z</time>
      </trkpt>
      <trkpt lat="46.13853" lon="5.67665">
        <ele>937</ele>
        <time>2026-05-10T11:02:48Z</time>
      </trkpt>
      <trkpt lat="46.13852" lon="5.67663">
        <ele>937.4</ele>
        <time>2026-05-10T11:02:49Z</time>
      </trkpt>
      <trkpt lat="46.13851" lon="5.67661">
        <ele>937.4</ele>
        <time>2026-05-10T11:02:50Z</time>
      </trkpt>
      <trkpt lat="46.1385" lon="5.6766">
        <ele>937.6</ele>
        <time>2026-05-10T11:02:51Z</time>
      </trkpt>
      <trkpt lat="46.13849" lon="5.67658">
        <ele>937.6</ele>
        <time>2026-05-10T11:02:52Z</time>
      </trkpt>
      <trkpt lat="46.13848" lon="5.67656">
        <ele>937.8</ele>
        <time>2026-05-10T11:02:53Z</time>
      </trkpt>
      <trkpt lat="46.13848" lon="5.67655">
        <ele>937.8</ele>
        <time>2026-05-10T11:02:54Z</time>
      </trkpt>
      <trkpt lat="46.13848" lon="5.67654">
        <ele>938</ele>
        <time>2026-05-10T11:02:55Z</time>
      </trkpt>
      <trkpt lat="46.13847" lon="5.67652">
        <ele>938</ele>
        <time>2026-05-10T11:02:56Z</time>
      </trkpt>
      <trkpt lat="46.13847" lon="5.67652">
        <ele>938</ele>
        <time>2026-05-10T11:02:57Z</time>
      </trkpt>
      <trkpt lat="46.13847" lon="5.67652">
        <ele>938</ele>
        <time>2026-05-10T11:02:58Z</time>
      </trkpt>
      <trkpt lat="46.13841" lon="5.67646">
        <ele>938.4</ele>
        <time>2026-05-10T11:03:00Z</time>
      </trkpt>
      <trkpt lat="46.1384" lon="5.67645">
        <ele>938.8</ele>
        <time>2026-05-10T11:03:01Z</time>
      </trkpt>
      <trkpt lat="46.13839" lon="5.67644">
        <ele>938.8</ele>
        <time>2026-05-10T11:03:02Z</time>
      </trkpt>
      <trkpt lat="46.13837" lon="5.67642">
        <ele>938.8</ele>
        <time>2026-05-10T11:03:03Z</time>
      </trkpt>
      <trkpt lat="46.13836" lon="5.67641">
        <ele>939</ele>
        <time>2026-05-10T11:03:04Z</time>
      </trkpt>
      <trkpt lat="46.13835" lon="5.6764">
        <ele>939</ele>
        <time>2026-05-10T11:03:05Z</time>
      </trkpt>
      <trkpt lat="46.13833" lon="5.67638">
        <ele>939</ele>
        <time>2026-05-10T11:03:06Z</time>
      </trkpt>
      <trkpt lat="46.13832" lon="5.67637">
        <ele>939.4</ele>
        <time>2026-05-10T11:03:07Z</time>
      </trkpt>
      <trkpt lat="46.13831" lon="5.67635">
        <ele>939.4</ele>
        <time>2026-05-10T11:03:08Z</time>
      </trkpt>
      <trkpt lat="46.13829" lon="5.67634">
        <ele>939.4</ele>
        <time>2026-05-10T11:03:09Z</time>
      </trkpt>
      <trkpt lat="46.13828" lon="5.67632">
        <ele>939.6</ele>
        <time>2026-05-10T11:03:10Z</time>
      </trkpt>
      <trkpt lat="46.13827" lon="5.67631">
        <ele>939.6</ele>
        <time>2026-05-10T11:03:11Z</time>
      </trkpt>
      <trkpt lat="46.13825" lon="5.6763">
        <ele>939.8</ele>
        <time>2026-05-10T11:03:12Z</time>
      </trkpt>
      <trkpt lat="46.13824" lon="5.67628">
        <ele>939.8</ele>
        <time>2026-05-10T11:03:13Z</time>
      </trkpt>
      <trkpt lat="46.13822" lon="5.67627">
        <ele>939.8</ele>
        <time>2026-05-10T11:03:14Z</time>
      </trkpt>
      <trkpt lat="46.1382" lon="5.67625">
        <ele>939.8</ele>
        <time>2026-05-10T11:03:15Z</time>
      </trkpt>
      <trkpt lat="46.13819" lon="5.67623">
        <ele>940.2</ele>
        <time>2026-05-10T11:03:16Z</time>
      </trkpt>
      <trkpt lat="46.13817" lon="5.67622">
        <ele>940.2</ele>
        <time>2026-05-10T11:03:17Z</time>
      </trkpt>
      <trkpt lat="46.13816" lon="5.6762">
        <ele>940.2</ele>
        <time>2026-05-10T11:03:18Z</time>
      </trkpt>
      <trkpt lat="46.13815" lon="5.67618">
        <ele>940.4</ele>
        <time>2026-05-10T11:03:19Z</time>
      </trkpt>
      <trkpt lat="46.13813" lon="5.67617">
        <ele>940.4</ele>
        <time>2026-05-10T11:03:20Z</time>
      </trkpt>
      <trkpt lat="46.13812" lon="5.67616">
        <ele>940.4</ele>
        <time>2026-05-10T11:03:21Z</time>
      </trkpt>
      <trkpt lat="46.1381" lon="5.67615">
        <ele>940.4</ele>
        <time>2026-05-10T11:03:22Z</time>
      </trkpt>
      <trkpt lat="46.13809" lon="5.67613">
        <ele>940.4</ele>
        <time>2026-05-10T11:03:23Z</time>
      </trkpt>
      <trkpt lat="46.13808" lon="5.67612">
        <ele>940.6</ele>
        <time>2026-05-10T11:03:24Z</time>
      </trkpt>
      <trkpt lat="46.13807" lon="5.6761">
        <ele>940.6</ele>
        <time>2026-05-10T11:03:25Z</time>
      </trkpt>
      <trkpt lat="46.13805" lon="5.67608">
        <ele>941</ele>
        <time>2026-05-10T11:03:26Z</time>
      </trkpt>
      <trkpt lat="46.13804" lon="5.67607">
        <ele>941</ele>
        <time>2026-05-10T11:03:27Z</time>
      </trkpt>
      <trkpt lat="46.13803" lon="5.67606">
        <ele>941</ele>
        <time>2026-05-10T11:03:28Z</time>
      </trkpt>
      <trkpt lat="46.13801" lon="5.67605">
        <ele>941.2</ele>
        <time>2026-05-10T11:03:29Z</time>
      </trkpt>
      <trkpt lat="46.13799" lon="5.67604">
        <ele>941.2</ele>
        <time>2026-05-10T11:03:30Z</time>
      </trkpt>
      <trkpt lat="46.13798" lon="5.67603">
        <ele>941.2</ele>
        <time>2026-05-10T11:03:31Z</time>
      </trkpt>
      <trkpt lat="46.13797" lon="5.67602">
        <ele>941.2</ele>
        <time>2026-05-10T11:03:32Z</time>
      </trkpt>
      <trkpt lat="46.13795" lon="5.67602">
        <ele>941.2</ele>
        <time>2026-05-10T11:03:33Z</time>
      </trkpt>
      <trkpt lat="46.13794" lon="5.67601">
        <ele>941.6</ele>
        <time>2026-05-10T11:03:34Z</time>
      </trkpt>
      <trkpt lat="46.13792" lon="5.676">
        <ele>941.6</ele>
        <time>2026-05-10T11:03:35Z</time>
      </trkpt>
      <trkpt lat="46.13791" lon="5.67598">
        <ele>941.8</ele>
        <time>2026-05-10T11:03:36Z</time>
      </trkpt>
      <trkpt lat="46.1379" lon="5.67597">
        <ele>941.8</ele>
        <time>2026-05-10T11:03:37Z</time>
      </trkpt>
      <trkpt lat="46.13789" lon="5.67596">
        <ele>941.8</ele>
        <time>2026-05-10T11:03:38Z</time>
      </trkpt>
      <trkpt lat="46.13787" lon="5.67594">
        <ele>941.8</ele>
        <time>2026-05-10T11:03:39Z</time>
      </trkpt>
      <trkpt lat="46.13786" lon="5.67593">
        <ele>942.2</ele>
        <time>2026-05-10T11:03:40Z</time>
      </trkpt>
      <trkpt lat="46.13785" lon="5.67592">
        <ele>942.2</ele>
        <time>2026-05-10T11:03:41Z</time>
      </trkpt>
      <trkpt lat="46.13784" lon="5.6759">
        <ele>942.2</ele>
        <time>2026-05-10T11:03:42Z</time>
      </trkpt>
      <trkpt lat="46.13783" lon="5.67589">
        <ele>942.2</ele>
        <time>2026-05-10T11:03:43Z</time>
      </trkpt>
      <trkpt lat="46.13782" lon="5.67588">
        <ele>942.4</ele>
        <time>2026-05-10T11:03:44Z</time>
      </trkpt>
      <trkpt lat="46.13781" lon="5.67587">
        <ele>942.4</ele>
        <time>2026-05-10T11:03:45Z</time>
      </trkpt>
      <trkpt lat="46.1378" lon="5.67586">
        <ele>942.4</ele>
        <time>2026-05-10T11:03:46Z</time>
      </trkpt>
      <trkpt lat="46.13779" lon="5.67586">
        <ele>942.8</ele>
        <time>2026-05-10T11:03:47Z</time>
      </trkpt>
      <trkpt lat="46.13778" lon="5.67585">
        <ele>942.8</ele>
        <time>2026-05-10T11:03:48Z</time>
      </trkpt>
      <trkpt lat="46.13777" lon="5.67584">
        <ele>943</ele>
        <time>2026-05-10T11:03:49Z</time>
      </trkpt>
      <trkpt lat="46.13776" lon="5.67583">
        <ele>943</ele>
        <time>2026-05-10T11:03:50Z</time>
      </trkpt>
      <trkpt lat="46.13775" lon="5.67582">
        <ele>943</ele>
        <time>2026-05-10T11:03:51Z</time>
      </trkpt>
      <trkpt lat="46.13774" lon="5.67581">
        <ele>943.6</ele>
        <time>2026-05-10T11:03:52Z</time>
      </trkpt>
      <trkpt lat="46.13772" lon="5.6758">
        <ele>943.6</ele>
        <time>2026-05-10T11:03:53Z</time>
      </trkpt>
      <trkpt lat="46.13771" lon="5.67578">
        <ele>943.8</ele>
        <time>2026-05-10T11:03:54Z</time>
      </trkpt>
      <trkpt lat="46.1377" lon="5.67577">
        <ele>943.8</ele>
        <time>2026-05-10T11:03:55Z</time>
      </trkpt>
      <trkpt lat="46.13768" lon="5.67576">
        <ele>944</ele>
        <time>2026-05-10T11:03:56Z</time>
      </trkpt>
      <trkpt lat="46.13766" lon="5.67574">
        <ele>944.4</ele>
        <time>2026-05-10T11:03:57Z</time>
      </trkpt>
      <trkpt lat="46.13764" lon="5.67571">
        <ele>944.4</ele>
        <time>2026-05-10T11:03:58Z</time>
      </trkpt>
      <trkpt lat="46.13763" lon="5.67569">
        <ele>944.4</ele>
        <time>2026-05-10T11:03:59Z</time>
      </trkpt>
      <trkpt lat="46.13762" lon="5.67567">
        <ele>944.4</ele>
        <time>2026-05-10T11:04:00Z</time>
      </trkpt>
      <trkpt lat="46.13761" lon="5.67566">
        <ele>944.4</ele>
        <time>2026-05-10T11:04:01Z</time>
      </trkpt>
      <trkpt lat="46.1376" lon="5.67565">
        <ele>944.6</ele>
        <time>2026-05-10T11:04:02Z</time>
      </trkpt>
      <trkpt lat="46.13759" lon="5.67563">
        <ele>944.6</ele>
        <time>2026-05-10T11:04:03Z</time>
      </trkpt>
      <trkpt lat="46.13758" lon="5.67561">
        <ele>945</ele>
        <time>2026-05-10T11:04:04Z</time>
      </trkpt>
      <trkpt lat="46.13757" lon="5.6756">
        <ele>945</ele>
        <time>2026-05-10T11:04:05Z</time>
      </trkpt>
      <trkpt lat="46.13756" lon="5.67558">
        <ele>945</ele>
        <time>2026-05-10T11:04:06Z</time>
      </trkpt>
      <trkpt lat="46.13755" lon="5.67556">
        <ele>945</ele>
        <time>2026-05-10T11:04:07Z</time>
      </trkpt>
      <trkpt lat="46.13754" lon="5.67555">
        <ele>945.8</ele>
        <time>2026-05-10T11:04:08Z</time>
      </trkpt>
      <trkpt lat="46.13753" lon="5.67554">
        <ele>945.8</ele>
        <time>2026-05-10T11:04:09Z</time>
      </trkpt>
      <trkpt lat="46.13752" lon="5.67553">
        <ele>946</ele>
        <time>2026-05-10T11:04:10Z</time>
      </trkpt>
      <trkpt lat="46.13752" lon="5.67551">
        <ele>946</ele>
        <time>2026-05-10T11:04:11Z</time>
      </trkpt>
      <trkpt lat="46.13751" lon="5.67549">
        <ele>946</ele>
        <time>2026-05-10T11:04:12Z</time>
      </trkpt>
      <trkpt lat="46.1375" lon="5.67547">
        <ele>946</ele>
        <time>2026-05-10T11:04:13Z</time>
      </trkpt>
      <trkpt lat="46.13749" lon="5.67546">
        <ele>946</ele>
        <time>2026-05-10T11:04:14Z</time>
      </trkpt>
      <trkpt lat="46.13748" lon="5.67544">
        <ele>946</ele>
        <time>2026-05-10T11:04:15Z</time>
      </trkpt>
      <trkpt lat="46.13747" lon="5.67542">
        <ele>946.4</ele>
        <time>2026-05-10T11:04:16Z</time>
      </trkpt>
      <trkpt lat="46.13746" lon="5.67541">
        <ele>946.4</ele>
        <time>2026-05-10T11:04:17Z</time>
      </trkpt>
      <trkpt lat="46.13745" lon="5.6754">
        <ele>946.4</ele>
        <time>2026-05-10T11:04:18Z</time>
      </trkpt>
      <trkpt lat="46.13744" lon="5.67539">
        <ele>946.4</ele>
        <time>2026-05-10T11:04:19Z</time>
      </trkpt>
      <trkpt lat="46.13743" lon="5.67538">
        <ele>946.6</ele>
        <time>2026-05-10T11:04:20Z</time>
      </trkpt>
      <trkpt lat="46.13742" lon="5.67536">
        <ele>946.6</ele>
        <time>2026-05-10T11:04:21Z</time>
      </trkpt>
      <trkpt lat="46.13741" lon="5.67535">
        <ele>946.8</ele>
        <time>2026-05-10T11:04:22Z</time>
      </trkpt>
      <trkpt lat="46.13741" lon="5.67535">
        <ele>946.8</ele>
        <time>2026-05-10T11:04:23Z</time>
      </trkpt>
      <trkpt lat="46.13741" lon="5.67535">
        <ele>946.8</ele>
        <time>2026-05-10T11:04:24Z</time>
      </trkpt>
      <trkpt lat="46.1374" lon="5.67531">
        <ele>946.8</ele>
        <time>2026-05-10T11:04:25Z</time>
      </trkpt>
      <trkpt lat="46.13738" lon="5.67527">
        <ele>946.8</ele>
        <time>2026-05-10T11:04:26Z</time>
      </trkpt>
      <trkpt lat="46.13737" lon="5.67526">
        <ele>947.2</ele>
        <time>2026-05-10T11:04:27Z</time>
      </trkpt>
      <trkpt lat="46.13736" lon="5.67524">
        <ele>947.2</ele>
        <time>2026-05-10T11:04:28Z</time>
      </trkpt>
      <trkpt lat="46.13735" lon="5.67523">
        <ele>947.2</ele>
        <time>2026-05-10T11:04:29Z</time>
      </trkpt>
      <trkpt lat="46.13734" lon="5.67521">
        <ele>947.6</ele>
        <time>2026-05-10T11:04:30Z</time>
      </trkpt>
      <trkpt lat="46.13733" lon="5.67519">
        <ele>947.6</ele>
        <time>2026-05-10T11:04:31Z</time>
      </trkpt>
      <trkpt lat="46.13732" lon="5.67517">
        <ele>947.6</ele>
        <time>2026-05-10T11:04:32Z</time>
      </trkpt>
      <trkpt lat="46.13731" lon="5.67515">
        <ele>948.2</ele>
        <time>2026-05-10T11:04:33Z</time>
      </trkpt>
      <trkpt lat="46.1373" lon="5.67514">
        <ele>948.4</ele>
        <time>2026-05-10T11:04:34Z</time>
      </trkpt>
      <trkpt lat="46.13729" lon="5.67513">
        <ele>948.4</ele>
        <time>2026-05-10T11:04:35Z</time>
      </trkpt>
      <trkpt lat="46.13728" lon="5.67511">
        <ele>948.6</ele>
        <time>2026-05-10T11:04:36Z</time>
      </trkpt>
      <trkpt lat="46.13727" lon="5.6751">
        <ele>948.6</ele>
        <time>2026-05-10T11:04:37Z</time>
      </trkpt>
      <trkpt lat="46.13725" lon="5.67508">
        <ele>948.6</ele>
        <time>2026-05-10T11:04:38Z</time>
      </trkpt>
      <trkpt lat="46.13724" lon="5.67506">
        <ele>949</ele>
        <time>2026-05-10T11:04:39Z</time>
      </trkpt>
      <trkpt lat="46.13723" lon="5.67505">
        <ele>949</ele>
        <time>2026-05-10T11:04:40Z</time>
      </trkpt>
      <trkpt lat="46.13722" lon="5.67504">
        <ele>949</ele>
        <time>2026-05-10T11:04:41Z</time>
      </trkpt>
      <trkpt lat="46.13721" lon="5.67503">
        <ele>949.6</ele>
        <time>2026-05-10T11:04:42Z</time>
      </trkpt>
      <trkpt lat="46.1372" lon="5.67501">
        <ele>949.6</ele>
        <time>2026-05-10T11:04:43Z</time>
      </trkpt>
      <trkpt lat="46.13719" lon="5.675">
        <ele>949.6</ele>
        <time>2026-05-10T11:04:44Z</time>
      </trkpt>
      <trkpt lat="46.13718" lon="5.67499">
        <ele>950.2</ele>
        <time>2026-05-10T11:04:45Z</time>
      </trkpt>
      <trkpt lat="46.13717" lon="5.67498">
        <ele>950.2</ele>
        <time>2026-05-10T11:04:46Z</time>
      </trkpt>
      <trkpt lat="46.13715" lon="5.67497">
        <ele>950.6</ele>
        <time>2026-05-10T11:04:47Z</time>
      </trkpt>
      <trkpt lat="46.13714" lon="5.67497">
        <ele>950.6</ele>
        <time>2026-05-10T11:04:48Z</time>
      </trkpt>
      <trkpt lat="46.13712" lon="5.67496">
        <ele>950.6</ele>
        <time>2026-05-10T11:04:49Z</time>
      </trkpt>
      <trkpt lat="46.13711" lon="5.67496">
        <ele>950.6</ele>
        <time>2026-05-10T11:04:50Z</time>
      </trkpt>
      <trkpt lat="46.1371" lon="5.67495">
        <ele>951</ele>
        <time>2026-05-10T11:04:51Z</time>
      </trkpt>
      <trkpt lat="46.13709" lon="5.67494">
        <ele>951.2</ele>
        <time>2026-05-10T11:04:52Z</time>
      </trkpt>
      <trkpt lat="46.13708" lon="5.67493">
        <ele>951.4</ele>
        <time>2026-05-10T11:04:53Z</time>
      </trkpt>
      <trkpt lat="46.13708" lon="5.67493">
        <ele>951.8</ele>
        <time>2026-05-10T11:04:54Z</time>
      </trkpt>
      <trkpt lat="46.13707" lon="5.67491">
        <ele>952</ele>
        <time>2026-05-10T11:04:55Z</time>
      </trkpt>
      <trkpt lat="46.13706" lon="5.6749">
        <ele>952</ele>
        <time>2026-05-10T11:04:56Z</time>
      </trkpt>
      <trkpt lat="46.13705" lon="5.67489">
        <ele>952</ele>
        <time>2026-05-10T11:04:57Z</time>
      </trkpt>
      <trkpt lat="46.13704" lon="5.67488">
        <ele>952.2</ele>
        <time>2026-05-10T11:04:58Z</time>
      </trkpt>
      <trkpt lat="46.13702" lon="5.67488">
        <ele>952.2</ele>
        <time>2026-05-10T11:04:59Z</time>
      </trkpt>
      <trkpt lat="46.13701" lon="5.67487">
        <ele>952.6</ele>
        <time>2026-05-10T11:05:00Z</time>
      </trkpt>
      <trkpt lat="46.13699" lon="5.67486">
        <ele>952.8</ele>
        <time>2026-05-10T11:05:01Z</time>
      </trkpt>
      <trkpt lat="46.13698" lon="5.67485">
        <ele>952.8</ele>
        <time>2026-05-10T11:05:02Z</time>
      </trkpt>
      <trkpt lat="46.13697" lon="5.67484">
        <ele>953</ele>
        <time>2026-05-10T11:05:03Z</time>
      </trkpt>
      <trkpt lat="46.13696" lon="5.67483">
        <ele>953</ele>
        <time>2026-05-10T11:05:04Z</time>
      </trkpt>
      <trkpt lat="46.13696" lon="5.67482">
        <ele>953</ele>
        <time>2026-05-10T11:05:05Z</time>
      </trkpt>
      <trkpt lat="46.13695" lon="5.6748">
        <ele>953.4</ele>
        <time>2026-05-10T11:05:06Z</time>
      </trkpt>
      <trkpt lat="46.13694" lon="5.67478">
        <ele>953.4</ele>
        <time>2026-05-10T11:05:07Z</time>
      </trkpt>
      <trkpt lat="46.13692" lon="5.67477">
        <ele>953.6</ele>
        <time>2026-05-10T11:05:08Z</time>
      </trkpt>
      <trkpt lat="46.13692" lon="5.67476">
        <ele>953.6</ele>
        <time>2026-05-10T11:05:09Z</time>
      </trkpt>
      <trkpt lat="46.13691" lon="5.67475">
        <ele>953.8</ele>
        <time>2026-05-10T11:05:10Z</time>
      </trkpt>
      <trkpt lat="46.13689" lon="5.67474">
        <ele>953.8</ele>
        <time>2026-05-10T11:05:11Z</time>
      </trkpt>
      <trkpt lat="46.13688" lon="5.67472">
        <ele>953.8</ele>
        <time>2026-05-10T11:05:12Z</time>
      </trkpt>
      <trkpt lat="46.13687" lon="5.67471">
        <ele>953.8</ele>
        <time>2026-05-10T11:05:13Z</time>
      </trkpt>
      <trkpt lat="46.13686" lon="5.67469">
        <ele>954.4</ele>
        <time>2026-05-10T11:05:14Z</time>
      </trkpt>
      <trkpt lat="46.13685" lon="5.67468">
        <ele>954.6</ele>
        <time>2026-05-10T11:05:15Z</time>
      </trkpt>
      <trkpt lat="46.13684" lon="5.67466">
        <ele>954.6</ele>
        <time>2026-05-10T11:05:16Z</time>
      </trkpt>
      <trkpt lat="46.13683" lon="5.67464">
        <ele>954.6</ele>
        <time>2026-05-10T11:05:17Z</time>
      </trkpt>
      <trkpt lat="46.13681" lon="5.67462">
        <ele>954.6</ele>
        <time>2026-05-10T11:05:18Z</time>
      </trkpt>
      <trkpt lat="46.1368" lon="5.6746">
        <ele>954.6</ele>
        <time>2026-05-10T11:05:19Z</time>
      </trkpt>
      <trkpt lat="46.13679" lon="5.67458">
        <ele>954.6</ele>
        <time>2026-05-10T11:05:20Z</time>
      </trkpt>
      <trkpt lat="46.13678" lon="5.67456">
        <ele>954.6</ele>
        <time>2026-05-10T11:05:21Z</time>
      </trkpt>
      <trkpt lat="46.13677" lon="5.67454">
        <ele>954.6</ele>
        <time>2026-05-10T11:05:22Z</time>
      </trkpt>
      <trkpt lat="46.13676" lon="5.67452">
        <ele>954.6</ele>
        <time>2026-05-10T11:05:23Z</time>
      </trkpt>
      <trkpt lat="46.13675" lon="5.6745">
        <ele>954.4</ele>
        <time>2026-05-10T11:05:24Z</time>
      </trkpt>
      <trkpt lat="46.13674" lon="5.67449">
        <ele>954.4</ele>
        <time>2026-05-10T11:05:25Z</time>
      </trkpt>
      <trkpt lat="46.13673" lon="5.67447">
        <ele>954.4</ele>
        <time>2026-05-10T11:05:26Z</time>
      </trkpt>
      <trkpt lat="46.13672" lon="5.67445">
        <ele>954.2</ele>
        <time>2026-05-10T11:05:27Z</time>
      </trkpt>
      <trkpt lat="46.1367" lon="5.67442">
        <ele>954.4</ele>
        <time>2026-05-10T11:05:28Z</time>
      </trkpt>
      <trkpt lat="46.13669" lon="5.6744">
        <ele>954.4</ele>
        <time>2026-05-10T11:05:29Z</time>
      </trkpt>
      <trkpt lat="46.13668" lon="5.67438">
        <ele>954.4</ele>
        <time>2026-05-10T11:05:30Z</time>
      </trkpt>
      <trkpt lat="46.13667" lon="5.67436">
        <ele>954.6</ele>
        <time>2026-05-10T11:05:31Z</time>
      </trkpt>
      <trkpt lat="46.13666" lon="5.67434">
        <ele>955</ele>
        <time>2026-05-10T11:05:32Z</time>
      </trkpt>
      <trkpt lat="46.13665" lon="5.67432">
        <ele>955</ele>
        <time>2026-05-10T11:05:33Z</time>
      </trkpt>
      <trkpt lat="46.13663" lon="5.6743">
        <ele>955</ele>
        <time>2026-05-10T11:05:34Z</time>
      </trkpt>
      <trkpt lat="46.13662" lon="5.67428">
        <ele>955</ele>
        <time>2026-05-10T11:05:35Z</time>
      </trkpt>
      <trkpt lat="46.13661" lon="5.67425">
        <ele>955</ele>
        <time>2026-05-10T11:05:36Z</time>
      </trkpt>
      <trkpt lat="46.1366" lon="5.67423">
        <ele>955</ele>
        <time>2026-05-10T11:05:37Z</time>
      </trkpt>
      <trkpt lat="46.13658" lon="5.67421">
        <ele>955.2</ele>
        <time>2026-05-10T11:05:38Z</time>
      </trkpt>
      <trkpt lat="46.13657" lon="5.67419">
        <ele>955</ele>
        <time>2026-05-10T11:05:39Z</time>
      </trkpt>
      <trkpt lat="46.13656" lon="5.67417">
        <ele>955.2</ele>
        <time>2026-05-10T11:05:40Z</time>
      </trkpt>
      <trkpt lat="46.13654" lon="5.67416">
        <ele>955.2</ele>
        <time>2026-05-10T11:05:41Z</time>
      </trkpt>
      <trkpt lat="46.13653" lon="5.67414">
        <ele>955.2</ele>
        <time>2026-05-10T11:05:42Z</time>
      </trkpt>
      <trkpt lat="46.13651" lon="5.67413">
        <ele>955.2</ele>
        <time>2026-05-10T11:05:43Z</time>
      </trkpt>
      <trkpt lat="46.13649" lon="5.67413">
        <ele>955.2</ele>
        <time>2026-05-10T11:05:44Z</time>
      </trkpt>
      <trkpt lat="46.13647" lon="5.67412">
        <ele>955.2</ele>
        <time>2026-05-10T11:05:45Z</time>
      </trkpt>
      <trkpt lat="46.13645" lon="5.67413">
        <ele>955.2</ele>
        <time>2026-05-10T11:05:46Z</time>
      </trkpt>
      <trkpt lat="46.13643" lon="5.67414">
        <ele>955.6</ele>
        <time>2026-05-10T11:05:47Z</time>
      </trkpt>
      <trkpt lat="46.13641" lon="5.67415">
        <ele>955.8</ele>
        <time>2026-05-10T11:05:48Z</time>
      </trkpt>
      <trkpt lat="46.1364" lon="5.67417">
        <ele>955.8</ele>
        <time>2026-05-10T11:05:49Z</time>
      </trkpt>
      <trkpt lat="46.13639" lon="5.67419">
        <ele>955.8</ele>
        <time>2026-05-10T11:05:50Z</time>
      </trkpt>
      <trkpt lat="46.13637" lon="5.67422">
        <ele>955.8</ele>
        <time>2026-05-10T11:05:51Z</time>
      </trkpt>
      <trkpt lat="46.13636" lon="5.67424">
        <ele>955.8</ele>
        <time>2026-05-10T11:05:52Z</time>
      </trkpt>
      <trkpt lat="46.13635" lon="5.67426">
        <ele>955.8</ele>
        <time>2026-05-10T11:05:53Z</time>
      </trkpt>
      <trkpt lat="46.13633" lon="5.67428">
        <ele>955.8</ele>
        <time>2026-05-10T11:05:54Z</time>
      </trkpt>
      <trkpt lat="46.13631" lon="5.6743">
        <ele>955.6</ele>
        <time>2026-05-10T11:05:55Z</time>
      </trkpt>
      <trkpt lat="46.13629" lon="5.67433">
        <ele>955.8</ele>
        <time>2026-05-10T11:05:56Z</time>
      </trkpt>
      <trkpt lat="46.13627" lon="5.67435">
        <ele>955.8</ele>
        <time>2026-05-10T11:05:57Z</time>
      </trkpt>
      <trkpt lat="46.13625" lon="5.67437">
        <ele>955.8</ele>
        <time>2026-05-10T11:05:58Z</time>
      </trkpt>
      <trkpt lat="46.13624" lon="5.67439">
        <ele>955.6</ele>
        <time>2026-05-10T11:05:59Z</time>
      </trkpt>
      <trkpt lat="46.13622" lon="5.67441">
        <ele>955.6</ele>
        <time>2026-05-10T11:06:00Z</time>
      </trkpt>
      <trkpt lat="46.1362" lon="5.67444">
        <ele>955.6</ele>
        <time>2026-05-10T11:06:01Z</time>
      </trkpt>
      <trkpt lat="46.13618" lon="5.67446">
        <ele>955.6</ele>
        <time>2026-05-10T11:06:02Z</time>
      </trkpt>
      <trkpt lat="46.13616" lon="5.67449">
        <ele>955.6</ele>
        <time>2026-05-10T11:06:03Z</time>
      </trkpt>
      <trkpt lat="46.13614" lon="5.67451">
        <ele>955.6</ele>
        <time>2026-05-10T11:06:04Z</time>
      </trkpt>
      <trkpt lat="46.13612" lon="5.67454">
        <ele>955.2</ele>
        <time>2026-05-10T11:06:05Z</time>
      </trkpt>
      <trkpt lat="46.1361" lon="5.67457">
        <ele>955.2</ele>
        <time>2026-05-10T11:06:06Z</time>
      </trkpt>
      <trkpt lat="46.13608" lon="5.6746">
        <ele>955.2</ele>
        <time>2026-05-10T11:06:07Z</time>
      </trkpt>
      <trkpt lat="46.13606" lon="5.67463">
        <ele>955.2</ele>
        <time>2026-05-10T11:06:08Z</time>
      </trkpt>
      <trkpt lat="46.13605" lon="5.67466">
        <ele>955.6</ele>
        <time>2026-05-10T11:06:09Z</time>
      </trkpt>
      <trkpt lat="46.13603" lon="5.67469">
        <ele>955.6</ele>
        <time>2026-05-10T11:06:10Z</time>
      </trkpt>
      <trkpt lat="46.13601" lon="5.67472">
        <ele>955.2</ele>
        <time>2026-05-10T11:06:11Z</time>
      </trkpt>
      <trkpt lat="46.136" lon="5.67476">
        <ele>955.2</ele>
        <time>2026-05-10T11:06:12Z</time>
      </trkpt>
      <trkpt lat="46.13598" lon="5.67479">
        <ele>955.2</ele>
        <time>2026-05-10T11:06:13Z</time>
      </trkpt>
      <trkpt lat="46.13597" lon="5.67483">
        <ele>955.2</ele>
        <time>2026-05-10T11:06:14Z</time>
      </trkpt>
      <trkpt lat="46.13595" lon="5.67487">
        <ele>955.2</ele>
        <time>2026-05-10T11:06:15Z</time>
      </trkpt>
      <trkpt lat="46.13594" lon="5.6749">
        <ele>955.2</ele>
        <time>2026-05-10T11:06:16Z</time>
      </trkpt>
      <trkpt lat="46.13593" lon="5.67494">
        <ele>955.2</ele>
        <time>2026-05-10T11:06:17Z</time>
      </trkpt>
      <trkpt lat="46.13591" lon="5.67497">
        <ele>955.2</ele>
        <time>2026-05-10T11:06:18Z</time>
      </trkpt>
      <trkpt lat="46.1359" lon="5.67501">
        <ele>955.4</ele>
        <time>2026-05-10T11:06:19Z</time>
      </trkpt>
      <trkpt lat="46.13588" lon="5.67508">
        <ele>955.4</ele>
        <time>2026-05-10T11:06:20Z</time>
      </trkpt>
      <trkpt lat="46.13587" lon="5.67512">
        <ele>955.8</ele>
        <time>2026-05-10T11:06:21Z</time>
      </trkpt>
      <trkpt lat="46.13586" lon="5.67515">
        <ele>955.8</ele>
        <time>2026-05-10T11:06:22Z</time>
      </trkpt>
      <trkpt lat="46.13585" lon="5.67518">
        <ele>955.8</ele>
        <time>2026-05-10T11:06:23Z</time>
      </trkpt>
      <trkpt lat="46.13584" lon="5.67522">
        <ele>956</ele>
        <time>2026-05-10T11:06:24Z</time>
      </trkpt>
      <trkpt lat="46.13582" lon="5.67526">
        <ele>956</ele>
        <time>2026-05-10T11:06:25Z</time>
      </trkpt>
      <trkpt lat="46.13581" lon="5.67529">
        <ele>956</ele>
        <time>2026-05-10T11:06:26Z</time>
      </trkpt>
      <trkpt lat="46.1358" lon="5.67532">
        <ele>956</ele>
        <time>2026-05-10T11:06:27Z</time>
      </trkpt>
      <trkpt lat="46.13579" lon="5.67536">
        <ele>956</ele>
        <time>2026-05-10T11:06:28Z</time>
      </trkpt>
      <trkpt lat="46.13578" lon="5.67539">
        <ele>956.4</ele>
        <time>2026-05-10T11:06:29Z</time>
      </trkpt>
      <trkpt lat="46.13577" lon="5.67542">
        <ele>956.4</ele>
        <time>2026-05-10T11:06:30Z</time>
      </trkpt>
      <trkpt lat="46.13576" lon="5.67546">
        <ele>956.4</ele>
        <time>2026-05-10T11:06:31Z</time>
      </trkpt>
      <trkpt lat="46.13575" lon="5.67549">
        <ele>956.4</ele>
        <time>2026-05-10T11:06:32Z</time>
      </trkpt>
      <trkpt lat="46.13574" lon="5.67552">
        <ele>956.4</ele>
        <time>2026-05-10T11:06:33Z</time>
      </trkpt>
      <trkpt lat="46.13573" lon="5.67556">
        <ele>956.4</ele>
        <time>2026-05-10T11:06:34Z</time>
      </trkpt>
      <trkpt lat="46.13572" lon="5.67559">
        <ele>956.6</ele>
        <time>2026-05-10T11:06:35Z</time>
      </trkpt>
      <trkpt lat="46.13571" lon="5.67563">
        <ele>956.6</ele>
        <time>2026-05-10T11:06:36Z</time>
      </trkpt>
      <trkpt lat="46.1357" lon="5.67566">
        <ele>957</ele>
        <time>2026-05-10T11:06:37Z</time>
      </trkpt>
      <trkpt lat="46.1357" lon="5.67568">
        <ele>957.4</ele>
        <time>2026-05-10T11:06:38Z</time>
      </trkpt>
      <trkpt lat="46.1357" lon="5.67572">
        <ele>957.4</ele>
        <time>2026-05-10T11:06:39Z</time>
      </trkpt>
      <trkpt lat="46.1357" lon="5.67576">
        <ele>957.4</ele>
        <time>2026-05-10T11:06:40Z</time>
      </trkpt>
      <trkpt lat="46.13569" lon="5.6758">
        <ele>957.2</ele>
        <time>2026-05-10T11:06:41Z</time>
      </trkpt>
      <trkpt lat="46.13567" lon="5.67583">
        <ele>957.2</ele>
        <time>2026-05-10T11:06:42Z</time>
      </trkpt>
      <trkpt lat="46.13565" lon="5.67585">
        <ele>956.8</ele>
        <time>2026-05-10T11:06:43Z</time>
      </trkpt>
      <trkpt lat="46.13562" lon="5.67587">
        <ele>956.8</ele>
        <time>2026-05-10T11:06:44Z</time>
      </trkpt>
      <trkpt lat="46.1356" lon="5.67589">
        <ele>956.8</ele>
        <time>2026-05-10T11:06:45Z</time>
      </trkpt>
      <trkpt lat="46.13558" lon="5.67591">
        <ele>956.8</ele>
        <time>2026-05-10T11:06:46Z</time>
      </trkpt>
      <trkpt lat="46.13556" lon="5.67593">
        <ele>956.6</ele>
        <time>2026-05-10T11:06:47Z</time>
      </trkpt>
      <trkpt lat="46.13555" lon="5.67595">
        <ele>956.6</ele>
        <time>2026-05-10T11:06:48Z</time>
      </trkpt>
      <trkpt lat="46.13554" lon="5.67598">
        <ele>956.2</ele>
        <time>2026-05-10T11:06:49Z</time>
      </trkpt>
      <trkpt lat="46.13551" lon="5.67601">
        <ele>956.2</ele>
        <time>2026-05-10T11:06:50Z</time>
      </trkpt>
      <trkpt lat="46.13548" lon="5.67604">
        <ele>956.2</ele>
        <time>2026-05-10T11:06:51Z</time>
      </trkpt>
      <trkpt lat="46.13542" lon="5.67607">
        <ele>956</ele>
        <time>2026-05-10T11:06:52Z</time>
      </trkpt>
      <trkpt lat="46.13538" lon="5.6761">
        <ele>955.6</ele>
        <time>2026-05-10T11:06:53Z</time>
      </trkpt>
      <trkpt lat="46.13536" lon="5.67616">
        <ele>955.4</ele>
        <time>2026-05-10T11:06:54Z</time>
      </trkpt>
      <trkpt lat="46.13536" lon="5.67616">
        <ele>955</ele>
        <time>2026-05-10T11:06:55Z</time>
      </trkpt>
      <trkpt lat="46.13533" lon="5.67621">
        <ele>954.8</ele>
        <time>2026-05-10T11:06:56Z</time>
      </trkpt>
      <trkpt lat="46.1353" lon="5.67626">
        <ele>954.8</ele>
        <time>2026-05-10T11:06:57Z</time>
      </trkpt>
      <trkpt lat="46.13529" lon="5.67633">
        <ele>954.8</ele>
        <time>2026-05-10T11:06:58Z</time>
      </trkpt>
      <trkpt lat="46.13526" lon="5.67639">
        <ele>954.8</ele>
        <time>2026-05-10T11:06:59Z</time>
      </trkpt>
      <trkpt lat="46.13525" lon="5.67643">
        <ele>955.2</ele>
        <time>2026-05-10T11:07:00Z</time>
      </trkpt>
      <trkpt lat="46.13523" lon="5.67649">
        <ele>954.8</ele>
        <time>2026-05-10T11:07:01Z</time>
      </trkpt>
      <trkpt lat="46.13524" lon="5.67655">
        <ele>955</ele>
        <time>2026-05-10T11:07:02Z</time>
      </trkpt>
      <trkpt lat="46.13525" lon="5.6766">
        <ele>955</ele>
        <time>2026-05-10T11:07:03Z</time>
      </trkpt>
      <trkpt lat="46.13523" lon="5.67663">
        <ele>955</ele>
        <time>2026-05-10T11:07:04Z</time>
      </trkpt>
      <trkpt lat="46.13522" lon="5.67668">
        <ele>954.8</ele>
        <time>2026-05-10T11:07:05Z</time>
      </trkpt>
      <trkpt lat="46.1352" lon="5.6767">
        <ele>954.8</ele>
        <time>2026-05-10T11:07:06Z</time>
      </trkpt>
      <trkpt lat="46.13526" lon="5.67675">
        <ele>955.2</ele>
        <time>2026-05-10T11:07:07Z</time>
      </trkpt>
      <trkpt lat="46.13529" lon="5.6768">
        <ele>955.6</ele>
        <time>2026-05-10T11:07:08Z</time>
      </trkpt>
      <trkpt lat="46.1353" lon="5.67683">
        <ele>956</ele>
        <time>2026-05-10T11:07:09Z</time>
      </trkpt>
      <trkpt lat="46.13531" lon="5.67686">
        <ele>956</ele>
        <time>2026-05-10T11:07:10Z</time>
      </trkpt>
      <trkpt lat="46.13532" lon="5.67689">
        <ele>956.2</ele>
        <time>2026-05-10T11:07:11Z</time>
      </trkpt>
      <trkpt lat="46.13532" lon="5.67692">
        <ele>956.2</ele>
        <time>2026-05-10T11:07:12Z</time>
      </trkpt>
      <trkpt lat="46.13535" lon="5.67693">
        <ele>956</ele>
        <time>2026-05-10T11:07:13Z</time>
      </trkpt>
      <trkpt lat="46.13537" lon="5.67694">
        <ele>956</ele>
        <time>2026-05-10T11:07:14Z</time>
      </trkpt>
      <trkpt lat="46.1354" lon="5.67695">
        <ele>956.4</ele>
        <time>2026-05-10T11:07:15Z</time>
      </trkpt>
      <trkpt lat="46.13543" lon="5.67697">
        <ele>956</ele>
        <time>2026-05-10T11:07:16Z</time>
      </trkpt>
      <trkpt lat="46.13546" lon="5.67698">
        <ele>956.4</ele>
        <time>2026-05-10T11:07:17Z</time>
      </trkpt>
      <trkpt lat="46.13549" lon="5.677">
        <ele>956.4</ele>
        <time>2026-05-10T11:07:18Z</time>
      </trkpt>
      <trkpt lat="46.13551" lon="5.67701">
        <ele>956.8</ele>
        <time>2026-05-10T11:07:19Z</time>
      </trkpt>
      <trkpt lat="46.13552" lon="5.67703">
        <ele>957.4</ele>
        <time>2026-05-10T11:07:20Z</time>
      </trkpt>
      <trkpt lat="46.13553" lon="5.67706">
        <ele>957.4</ele>
        <time>2026-05-10T11:07:21Z</time>
      </trkpt>
      <trkpt lat="46.13555" lon="5.67709">
        <ele>957.4</ele>
        <time>2026-05-10T11:07:22Z</time>
      </trkpt>
      <trkpt lat="46.13556" lon="5.67712">
        <ele>957.4</ele>
        <time>2026-05-10T11:07:23Z</time>
      </trkpt>
      <trkpt lat="46.13557" lon="5.67716">
        <ele>957.4</ele>
        <time>2026-05-10T11:07:24Z</time>
      </trkpt>
      <trkpt lat="46.13558" lon="5.67718">
        <ele>957.6</ele>
        <time>2026-05-10T11:07:25Z</time>
      </trkpt>
      <trkpt lat="46.1356" lon="5.6772">
        <ele>957.6</ele>
        <time>2026-05-10T11:07:26Z</time>
      </trkpt>
      <trkpt lat="46.13561" lon="5.67722">
        <ele>957.6</ele>
        <time>2026-05-10T11:07:27Z</time>
      </trkpt>
      <trkpt lat="46.13563" lon="5.67723">
        <ele>958</ele>
        <time>2026-05-10T11:07:28Z</time>
      </trkpt>
      <trkpt lat="46.13565" lon="5.67725">
        <ele>958</ele>
        <time>2026-05-10T11:07:29Z</time>
      </trkpt>
      <trkpt lat="46.13567" lon="5.67728">
        <ele>958.2</ele>
        <time>2026-05-10T11:07:30Z</time>
      </trkpt>
      <trkpt lat="46.13568" lon="5.67731">
        <ele>958.2</ele>
        <time>2026-05-10T11:07:31Z</time>
      </trkpt>
      <trkpt lat="46.1357" lon="5.67734">
        <ele>958.6</ele>
        <time>2026-05-10T11:07:32Z</time>
      </trkpt>
      <trkpt lat="46.13572" lon="5.67737">
        <ele>958.6</ele>
        <time>2026-05-10T11:07:33Z</time>
      </trkpt>
      <trkpt lat="46.13575" lon="5.67739">
        <ele>958.6</ele>
        <time>2026-05-10T11:07:34Z</time>
      </trkpt>
      <trkpt lat="46.13577" lon="5.67742">
        <ele>958.6</ele>
        <time>2026-05-10T11:07:35Z</time>
      </trkpt>
      <trkpt lat="46.13579" lon="5.67744">
        <ele>958.6</ele>
        <time>2026-05-10T11:07:36Z</time>
      </trkpt>
      <trkpt lat="46.13581" lon="5.67747">
        <ele>959.2</ele>
        <time>2026-05-10T11:07:37Z</time>
      </trkpt>
      <trkpt lat="46.13582" lon="5.6775">
        <ele>958.8</ele>
        <time>2026-05-10T11:07:38Z</time>
      </trkpt>
      <trkpt lat="46.13584" lon="5.67753">
        <ele>958.8</ele>
        <time>2026-05-10T11:07:39Z</time>
      </trkpt>
      <trkpt lat="46.13585" lon="5.67756">
        <ele>958.8</ele>
        <time>2026-05-10T11:07:40Z</time>
      </trkpt>
      <trkpt lat="46.13586" lon="5.67759">
        <ele>959.2</ele>
        <time>2026-05-10T11:07:41Z</time>
      </trkpt>
      <trkpt lat="46.13587" lon="5.67762">
        <ele>959.2</ele>
        <time>2026-05-10T11:07:42Z</time>
      </trkpt>
      <trkpt lat="46.13588" lon="5.67765">
        <ele>959.4</ele>
        <time>2026-05-10T11:07:43Z</time>
      </trkpt>
      <trkpt lat="46.13589" lon="5.67767">
        <ele>959.4</ele>
        <time>2026-05-10T11:07:44Z</time>
      </trkpt>
      <trkpt lat="46.13591" lon="5.67769">
        <ele>959.4</ele>
        <time>2026-05-10T11:07:45Z</time>
      </trkpt>
      <trkpt lat="46.13593" lon="5.67771">
        <ele>959.4</ele>
        <time>2026-05-10T11:07:46Z</time>
      </trkpt>
      <trkpt lat="46.13596" lon="5.67774">
        <ele>960</ele>
        <time>2026-05-10T11:07:47Z</time>
      </trkpt>
      <trkpt lat="46.13598" lon="5.67776">
        <ele>960.4</ele>
        <time>2026-05-10T11:07:48Z</time>
      </trkpt>
      <trkpt lat="46.13599" lon="5.67778">
        <ele>960.4</ele>
        <time>2026-05-10T11:07:49Z</time>
      </trkpt>
      <trkpt lat="46.136" lon="5.67781">
        <ele>960.6</ele>
        <time>2026-05-10T11:07:50Z</time>
      </trkpt>
      <trkpt lat="46.13601" lon="5.67785">
        <ele>961</ele>
        <time>2026-05-10T11:07:51Z</time>
      </trkpt>
      <trkpt lat="46.13601" lon="5.67787">
        <ele>961</ele>
        <time>2026-05-10T11:07:52Z</time>
      </trkpt>
      <trkpt lat="46.13602" lon="5.6779">
        <ele>961.2</ele>
        <time>2026-05-10T11:07:53Z</time>
      </trkpt>
      <trkpt lat="46.13603" lon="5.67793">
        <ele>961.2</ele>
        <time>2026-05-10T11:07:54Z</time>
      </trkpt>
      <trkpt lat="46.13605" lon="5.67795">
        <ele>961.6</ele>
        <time>2026-05-10T11:07:55Z</time>
      </trkpt>
      <trkpt lat="46.13606" lon="5.67799">
        <ele>961.6</ele>
        <time>2026-05-10T11:07:56Z</time>
      </trkpt>
      <trkpt lat="46.13607" lon="5.67802">
        <ele>961.8</ele>
        <time>2026-05-10T11:07:57Z</time>
      </trkpt>
      <trkpt lat="46.13607" lon="5.67804">
        <ele>961.8</ele>
        <time>2026-05-10T11:07:58Z</time>
      </trkpt>
      <trkpt lat="46.13609" lon="5.67807">
        <ele>961.6</ele>
        <time>2026-05-10T11:07:59Z</time>
      </trkpt>
      <trkpt lat="46.13611" lon="5.6781">
        <ele>961.8</ele>
        <time>2026-05-10T11:08:00Z</time>
      </trkpt>
      <trkpt lat="46.13612" lon="5.67812">
        <ele>961.8</ele>
        <time>2026-05-10T11:08:01Z</time>
      </trkpt>
      <trkpt lat="46.13613" lon="5.67813">
        <ele>962.2</ele>
        <time>2026-05-10T11:08:02Z</time>
      </trkpt>
      <trkpt lat="46.13613" lon="5.67815">
        <ele>962.2</ele>
        <time>2026-05-10T11:08:03Z</time>
      </trkpt>
      <trkpt lat="46.13614" lon="5.67818">
        <ele>962.2</ele>
        <time>2026-05-10T11:08:04Z</time>
      </trkpt>
      <trkpt lat="46.13615" lon="5.67822">
        <ele>962.4</ele>
        <time>2026-05-10T11:08:05Z</time>
      </trkpt>
      <trkpt lat="46.13616" lon="5.67825">
        <ele>962.4</ele>
        <time>2026-05-10T11:08:06Z</time>
      </trkpt>
      <trkpt lat="46.13618" lon="5.67827">
        <ele>963</ele>
        <time>2026-05-10T11:08:07Z</time>
      </trkpt>
      <trkpt lat="46.13618" lon="5.67831">
        <ele>963</ele>
        <time>2026-05-10T11:08:08Z</time>
      </trkpt>
      <trkpt lat="46.13618" lon="5.67835">
        <ele>963</ele>
        <time>2026-05-10T11:08:09Z</time>
      </trkpt>
      <trkpt lat="46.13617" lon="5.67838">
        <ele>963.2</ele>
        <time>2026-05-10T11:08:10Z</time>
      </trkpt>
      <trkpt lat="46.13617" lon="5.67841">
        <ele>963.4</ele>
        <time>2026-05-10T11:08:11Z</time>
      </trkpt>
      <trkpt lat="46.13618" lon="5.67843">
        <ele>963.4</ele>
        <time>2026-05-10T11:08:12Z</time>
      </trkpt>
      <trkpt lat="46.13619" lon="5.67846">
        <ele>963.4</ele>
        <time>2026-05-10T11:08:13Z</time>
      </trkpt>
      <trkpt lat="46.13621" lon="5.67848">
        <ele>963.6</ele>
        <time>2026-05-10T11:08:14Z</time>
      </trkpt>
      <trkpt lat="46.13623" lon="5.67849">
        <ele>963.6</ele>
        <time>2026-05-10T11:08:15Z</time>
      </trkpt>
      <trkpt lat="46.13625" lon="5.67851">
        <ele>963.8</ele>
        <time>2026-05-10T11:08:16Z</time>
      </trkpt>
      <trkpt lat="46.13627" lon="5.67853">
        <ele>963.8</ele>
        <time>2026-05-10T11:08:17Z</time>
      </trkpt>
      <trkpt lat="46.13628" lon="5.67855">
        <ele>964.2</ele>
        <time>2026-05-10T11:08:18Z</time>
      </trkpt>
      <trkpt lat="46.1363" lon="5.67857">
        <ele>964.2</ele>
        <time>2026-05-10T11:08:19Z</time>
      </trkpt>
      <trkpt lat="46.13631" lon="5.67859">
        <ele>964.4</ele>
        <time>2026-05-10T11:08:20Z</time>
      </trkpt>
      <trkpt lat="46.13633" lon="5.6786">
        <ele>964.4</ele>
        <time>2026-05-10T11:08:21Z</time>
      </trkpt>
      <trkpt lat="46.13635" lon="5.67862">
        <ele>964.8</ele>
        <time>2026-05-10T11:08:22Z</time>
      </trkpt>
      <trkpt lat="46.13636" lon="5.67864">
        <ele>964.8</ele>
        <time>2026-05-10T11:08:23Z</time>
      </trkpt>
      <trkpt lat="46.13637" lon="5.67866">
        <ele>965.2</ele>
        <time>2026-05-10T11:08:24Z</time>
      </trkpt>
      <trkpt lat="46.13639" lon="5.67867">
        <ele>965.2</ele>
        <time>2026-05-10T11:08:25Z</time>
      </trkpt>
      <trkpt lat="46.1364" lon="5.67869">
        <ele>965.2</ele>
        <time>2026-05-10T11:08:26Z</time>
      </trkpt>
      <trkpt lat="46.13641" lon="5.6787">
        <ele>965.6</ele>
        <time>2026-05-10T11:08:27Z</time>
      </trkpt>
      <trkpt lat="46.13642" lon="5.67872">
        <ele>965.2</ele>
        <time>2026-05-10T11:08:28Z</time>
      </trkpt>
      <trkpt lat="46.13643" lon="5.67875">
        <ele>965.2</ele>
        <time>2026-05-10T11:08:29Z</time>
      </trkpt>
      <trkpt lat="46.13644" lon="5.67877">
        <ele>965.2</ele>
        <time>2026-05-10T11:08:30Z</time>
      </trkpt>
      <trkpt lat="46.13646" lon="5.67879">
        <ele>965.8</ele>
        <time>2026-05-10T11:08:31Z</time>
      </trkpt>
      <trkpt lat="46.13648" lon="5.67881">
        <ele>965.8</ele>
        <time>2026-05-10T11:08:32Z</time>
      </trkpt>
      <trkpt lat="46.1365" lon="5.67883">
        <ele>966</ele>
        <time>2026-05-10T11:08:33Z</time>
      </trkpt>
      <trkpt lat="46.13652" lon="5.67885">
        <ele>966</ele>
        <time>2026-05-10T11:08:34Z</time>
      </trkpt>
      <trkpt lat="46.13655" lon="5.67887">
        <ele>966.4</ele>
        <time>2026-05-10T11:08:35Z</time>
      </trkpt>
      <trkpt lat="46.13656" lon="5.67888">
        <ele>966.8</ele>
        <time>2026-05-10T11:08:36Z</time>
      </trkpt>
      <trkpt lat="46.13657" lon="5.6789">
        <ele>966.8</ele>
        <time>2026-05-10T11:08:37Z</time>
      </trkpt>
      <trkpt lat="46.13657" lon="5.67893">
        <ele>967.2</ele>
        <time>2026-05-10T11:08:38Z</time>
      </trkpt>
      <trkpt lat="46.13658" lon="5.67895">
        <ele>967.4</ele>
        <time>2026-05-10T11:08:39Z</time>
      </trkpt>
      <trkpt lat="46.1366" lon="5.67897">
        <ele>967.4</ele>
        <time>2026-05-10T11:08:40Z</time>
      </trkpt>
      <trkpt lat="46.13661" lon="5.67898">
        <ele>967.8</ele>
        <time>2026-05-10T11:08:41Z</time>
      </trkpt>
      <trkpt lat="46.13662" lon="5.679">
        <ele>967.8</ele>
        <time>2026-05-10T11:08:42Z</time>
      </trkpt>
      <trkpt lat="46.13662" lon="5.67901">
        <ele>968.2</ele>
        <time>2026-05-10T11:08:43Z</time>
      </trkpt>
      <trkpt lat="46.13664" lon="5.67903">
        <ele>968.2</ele>
        <time>2026-05-10T11:08:44Z</time>
      </trkpt>
      <trkpt lat="46.13666" lon="5.67905">
        <ele>968.8</ele>
        <time>2026-05-10T11:08:45Z</time>
      </trkpt>
      <trkpt lat="46.13667" lon="5.67907">
        <ele>968.8</ele>
        <time>2026-05-10T11:08:46Z</time>
      </trkpt>
      <trkpt lat="46.13668" lon="5.67908">
        <ele>968.8</ele>
        <time>2026-05-10T11:08:47Z</time>
      </trkpt>
      <trkpt lat="46.13669" lon="5.6791">
        <ele>969</ele>
        <time>2026-05-10T11:08:48Z</time>
      </trkpt>
      <trkpt lat="46.1367" lon="5.67912">
        <ele>969.4</ele>
        <time>2026-05-10T11:08:49Z</time>
      </trkpt>
      <trkpt lat="46.1367" lon="5.67915">
        <ele>969.6</ele>
        <time>2026-05-10T11:08:50Z</time>
      </trkpt>
      <trkpt lat="46.1367" lon="5.67917">
        <ele>969.8</ele>
        <time>2026-05-10T11:08:51Z</time>
      </trkpt>
      <trkpt lat="46.1367" lon="5.6792">
        <ele>969.8</ele>
        <time>2026-05-10T11:08:52Z</time>
      </trkpt>
      <trkpt lat="46.13671" lon="5.67922">
        <ele>969.8</ele>
        <time>2026-05-10T11:08:53Z</time>
      </trkpt>
      <trkpt lat="46.13671" lon="5.67924">
        <ele>969.8</ele>
        <time>2026-05-10T11:08:54Z</time>
      </trkpt>
      <trkpt lat="46.13671" lon="5.67927">
        <ele>969.8</ele>
        <time>2026-05-10T11:08:55Z</time>
      </trkpt>
      <trkpt lat="46.13672" lon="5.6793">
        <ele>969.8</ele>
        <time>2026-05-10T11:08:56Z</time>
      </trkpt>
      <trkpt lat="46.13672" lon="5.67932">
        <ele>969.8</ele>
        <time>2026-05-10T11:08:57Z</time>
      </trkpt>
      <trkpt lat="46.13673" lon="5.67933">
        <ele>969.8</ele>
        <time>2026-05-10T11:08:58Z</time>
      </trkpt>
      <trkpt lat="46.13674" lon="5.67935">
        <ele>970.2</ele>
        <time>2026-05-10T11:08:59Z</time>
      </trkpt>
      <trkpt lat="46.13676" lon="5.67937">
        <ele>970.2</ele>
        <time>2026-05-10T11:09:00Z</time>
      </trkpt>
      <trkpt lat="46.13676" lon="5.67939">
        <ele>970.6</ele>
        <time>2026-05-10T11:09:01Z</time>
      </trkpt>
      <trkpt lat="46.13676" lon="5.67942">
        <ele>971</ele>
        <time>2026-05-10T11:09:02Z</time>
      </trkpt>
      <trkpt lat="46.13676" lon="5.67944">
        <ele>971</ele>
        <time>2026-05-10T11:09:03Z</time>
      </trkpt>
      <trkpt lat="46.13676" lon="5.67946">
        <ele>971</ele>
        <time>2026-05-10T11:09:04Z</time>
      </trkpt>
      <trkpt lat="46.13676" lon="5.67949">
        <ele>971</ele>
        <time>2026-05-10T11:09:05Z</time>
      </trkpt>
      <trkpt lat="46.13677" lon="5.67951">
        <ele>971.2</ele>
        <time>2026-05-10T11:09:06Z</time>
      </trkpt>
      <trkpt lat="46.13677" lon="5.67953">
        <ele>971.2</ele>
        <time>2026-05-10T11:09:07Z</time>
      </trkpt>
      <trkpt lat="46.13678" lon="5.67955">
        <ele>971.6</ele>
        <time>2026-05-10T11:09:08Z</time>
      </trkpt>
      <trkpt lat="46.13679" lon="5.67957">
        <ele>971.6</ele>
        <time>2026-05-10T11:09:09Z</time>
      </trkpt>
      <trkpt lat="46.1368" lon="5.67958">
        <ele>971.8</ele>
        <time>2026-05-10T11:09:10Z</time>
      </trkpt>
      <trkpt lat="46.13681" lon="5.6796">
        <ele>971.8</ele>
        <time>2026-05-10T11:09:11Z</time>
      </trkpt>
      <trkpt lat="46.1368" lon="5.67961">
        <ele>971.8</ele>
        <time>2026-05-10T11:09:12Z</time>
      </trkpt>
      <trkpt lat="46.1368" lon="5.67961">
        <ele>972</ele>
        <time>2026-05-10T11:09:13Z</time>
      </trkpt>
      <trkpt lat="46.1368" lon="5.67962">
        <ele>972</ele>
        <time>2026-05-10T11:09:14Z</time>
      </trkpt>
      <trkpt lat="46.1368" lon="5.67963">
        <ele>972</ele>
        <time>2026-05-10T11:09:15Z</time>
      </trkpt>
      <trkpt lat="46.13675" lon="5.67968">
        <ele>972.2</ele>
        <time>2026-05-10T11:10:00Z</time>
      </trkpt>
      <trkpt lat="46.13675" lon="5.6797">
        <ele>972.2</ele>
        <time>2026-05-10T11:10:01Z</time>
      </trkpt>
      <trkpt lat="46.13676" lon="5.67974">
        <ele>972.2</ele>
        <time>2026-05-10T11:10:02Z</time>
      </trkpt>
      <trkpt lat="46.13677" lon="5.67976">
        <ele>972.2</ele>
        <time>2026-05-10T11:10:03Z</time>
      </trkpt>
      <trkpt lat="46.13678" lon="5.67978">
        <ele>972.2</ele>
        <time>2026-05-10T11:10:04Z</time>
      </trkpt>
      <trkpt lat="46.13679" lon="5.67981">
        <ele>972.2</ele>
        <time>2026-05-10T11:10:05Z</time>
      </trkpt>
      <trkpt lat="46.1368" lon="5.67984">
        <ele>972.2</ele>
        <time>2026-05-10T11:10:06Z</time>
      </trkpt>
      <trkpt lat="46.13681" lon="5.67987">
        <ele>972.8</ele>
        <time>2026-05-10T11:10:07Z</time>
      </trkpt>
      <trkpt lat="46.13682" lon="5.6799">
        <ele>972.8</ele>
        <time>2026-05-10T11:10:08Z</time>
      </trkpt>
      <trkpt lat="46.13683" lon="5.67992">
        <ele>973.2</ele>
        <time>2026-05-10T11:10:09Z</time>
      </trkpt>
      <trkpt lat="46.13684" lon="5.67995">
        <ele>973.4</ele>
        <time>2026-05-10T11:10:10Z</time>
      </trkpt>
      <trkpt lat="46.13685" lon="5.67997">
        <ele>973.4</ele>
        <time>2026-05-10T11:10:11Z</time>
      </trkpt>
      <trkpt lat="46.13687" lon="5.68">
        <ele>973.2</ele>
        <time>2026-05-10T11:10:12Z</time>
      </trkpt>
      <trkpt lat="46.13689" lon="5.68001">
        <ele>973.2</ele>
        <time>2026-05-10T11:10:13Z</time>
      </trkpt>
      <trkpt lat="46.1369" lon="5.68003">
        <ele>973.6</ele>
        <time>2026-05-10T11:10:14Z</time>
      </trkpt>
      <trkpt lat="46.13692" lon="5.68005">
        <ele>973.6</ele>
        <time>2026-05-10T11:10:15Z</time>
      </trkpt>
      <trkpt lat="46.13692" lon="5.68008">
        <ele>974</ele>
        <time>2026-05-10T11:10:16Z</time>
      </trkpt>
      <trkpt lat="46.13693" lon="5.6801">
        <ele>974.2</ele>
        <time>2026-05-10T11:10:17Z</time>
      </trkpt>
      <trkpt lat="46.13693" lon="5.68013">
        <ele>974.2</ele>
        <time>2026-05-10T11:10:18Z</time>
      </trkpt>
      <trkpt lat="46.13692" lon="5.68016">
        <ele>974.6</ele>
        <time>2026-05-10T11:10:19Z</time>
      </trkpt>
      <trkpt lat="46.13692" lon="5.68019">
        <ele>974.6</ele>
        <time>2026-05-10T11:10:20Z</time>
      </trkpt>
      <trkpt lat="46.13692" lon="5.68023">
        <ele>974.6</ele>
        <time>2026-05-10T11:10:21Z</time>
      </trkpt>
      <trkpt lat="46.13692" lon="5.68025">
        <ele>975</ele>
        <time>2026-05-10T11:10:22Z</time>
      </trkpt>
      <trkpt lat="46.13692" lon="5.68028">
        <ele>975</ele>
        <time>2026-05-10T11:10:23Z</time>
      </trkpt>
      <trkpt lat="46.13691" lon="5.68031">
        <ele>975</ele>
        <time>2026-05-10T11:10:24Z</time>
      </trkpt>
      <trkpt lat="46.13691" lon="5.68033">
        <ele>975.6</ele>
        <time>2026-05-10T11:10:25Z</time>
      </trkpt>
      <trkpt lat="46.1369" lon="5.68036">
        <ele>975.6</ele>
        <time>2026-05-10T11:10:26Z</time>
      </trkpt>
      <trkpt lat="46.1369" lon="5.68038">
        <ele>975.6</ele>
        <time>2026-05-10T11:10:27Z</time>
      </trkpt>
      <trkpt lat="46.1369" lon="5.6804">
        <ele>976</ele>
        <time>2026-05-10T11:10:28Z</time>
      </trkpt>
      <trkpt lat="46.1369" lon="5.68043">
        <ele>976</ele>
        <time>2026-05-10T11:10:29Z</time>
      </trkpt>
      <trkpt lat="46.1369" lon="5.68046">
        <ele>976</ele>
        <time>2026-05-10T11:10:30Z</time>
      </trkpt>
      <trkpt lat="46.13689" lon="5.68049">
        <ele>976.4</ele>
        <time>2026-05-10T11:10:31Z</time>
      </trkpt>
      <trkpt lat="46.13689" lon="5.68051">
        <ele>976.8</ele>
        <time>2026-05-10T11:10:32Z</time>
      </trkpt>
      <trkpt lat="46.13689" lon="5.68054">
        <ele>976.8</ele>
        <time>2026-05-10T11:10:33Z</time>
      </trkpt>
      <trkpt lat="46.13691" lon="5.68057">
        <ele>976.8</ele>
        <time>2026-05-10T11:10:34Z</time>
      </trkpt>
      <trkpt lat="46.13691" lon="5.68059">
        <ele>976.8</ele>
        <time>2026-05-10T11:10:35Z</time>
      </trkpt>
      <trkpt lat="46.13693" lon="5.68061">
        <ele>976.8</ele>
        <time>2026-05-10T11:10:36Z</time>
      </trkpt>
      <trkpt lat="46.13693" lon="5.68064">
        <ele>977</ele>
        <time>2026-05-10T11:10:37Z</time>
      </trkpt>
      <trkpt lat="46.13692" lon="5.68067">
        <ele>977.4</ele>
        <time>2026-05-10T11:10:38Z</time>
      </trkpt>
      <trkpt lat="46.13691" lon="5.6807">
        <ele>977.4</ele>
        <time>2026-05-10T11:10:39Z</time>
      </trkpt>
      <trkpt lat="46.1369" lon="5.68073">
        <ele>977.4</ele>
        <time>2026-05-10T11:10:40Z</time>
      </trkpt>
      <trkpt lat="46.13688" lon="5.68076">
        <ele>977.4</ele>
        <time>2026-05-10T11:10:41Z</time>
      </trkpt>
      <trkpt lat="46.13688" lon="5.68079">
        <ele>977.6</ele>
        <time>2026-05-10T11:10:42Z</time>
      </trkpt>
      <trkpt lat="46.13688" lon="5.68082">
        <ele>977.6</ele>
        <time>2026-05-10T11:10:43Z</time>
      </trkpt>
      <trkpt lat="46.13689" lon="5.68084">
        <ele>978</ele>
        <time>2026-05-10T11:10:44Z</time>
      </trkpt>
      <trkpt lat="46.13689" lon="5.68087">
        <ele>978</ele>
        <time>2026-05-10T11:10:45Z</time>
      </trkpt>
      <trkpt lat="46.13689" lon="5.6809">
        <ele>978</ele>
        <time>2026-05-10T11:10:46Z</time>
      </trkpt>
      <trkpt lat="46.13689" lon="5.68093">
        <ele>978</ele>
        <time>2026-05-10T11:10:47Z</time>
      </trkpt>
      <trkpt lat="46.13689" lon="5.68096">
        <ele>978.4</ele>
        <time>2026-05-10T11:10:48Z</time>
      </trkpt>
      <trkpt lat="46.13689" lon="5.68098">
        <ele>978.4</ele>
        <time>2026-05-10T11:10:49Z</time>
      </trkpt>
      <trkpt lat="46.13689" lon="5.68101">
        <ele>978.6</ele>
        <time>2026-05-10T11:10:50Z</time>
      </trkpt>
      <trkpt lat="46.1369" lon="5.68103">
        <ele>979</ele>
        <time>2026-05-10T11:10:51Z</time>
      </trkpt>
      <trkpt lat="46.13691" lon="5.68106">
        <ele>979.2</ele>
        <time>2026-05-10T11:10:52Z</time>
      </trkpt>
      <trkpt lat="46.13691" lon="5.68108">
        <ele>979.6</ele>
        <time>2026-05-10T11:10:53Z</time>
      </trkpt>
      <trkpt lat="46.13691" lon="5.6811">
        <ele>979.6</ele>
        <time>2026-05-10T11:10:54Z</time>
      </trkpt>
      <trkpt lat="46.13692" lon="5.68113">
        <ele>979.8</ele>
        <time>2026-05-10T11:10:55Z</time>
      </trkpt>
      <trkpt lat="46.13693" lon="5.68115">
        <ele>980</ele>
        <time>2026-05-10T11:10:56Z</time>
      </trkpt>
      <trkpt lat="46.13693" lon="5.68117">
        <ele>980.2</ele>
        <time>2026-05-10T11:10:57Z</time>
      </trkpt>
      <trkpt lat="46.13692" lon="5.68119">
        <ele>980.4</ele>
        <time>2026-05-10T11:10:58Z</time>
      </trkpt>
      <trkpt lat="46.13692" lon="5.68122">
        <ele>980.6</ele>
        <time>2026-05-10T11:10:59Z</time>
      </trkpt>
      <trkpt lat="46.13692" lon="5.68125">
        <ele>981</ele>
        <time>2026-05-10T11:11:00Z</time>
      </trkpt>
      <trkpt lat="46.13692" lon="5.68127">
        <ele>981</ele>
        <time>2026-05-10T11:11:01Z</time>
      </trkpt>
      <trkpt lat="46.13692" lon="5.6813">
        <ele>981</ele>
        <time>2026-05-10T11:11:02Z</time>
      </trkpt>
      <trkpt lat="46.13693" lon="5.68132">
        <ele>981</ele>
        <time>2026-05-10T11:11:03Z</time>
      </trkpt>
      <trkpt lat="46.13693" lon="5.68134">
        <ele>981</ele>
        <time>2026-05-10T11:11:04Z</time>
      </trkpt>
      <trkpt lat="46.13694" lon="5.68136">
        <ele>981</ele>
        <time>2026-05-10T11:11:05Z</time>
      </trkpt>
      <trkpt lat="46.13695" lon="5.68142">
        <ele>981</ele>
        <time>2026-05-10T11:11:06Z</time>
      </trkpt>
      <trkpt lat="46.13695" lon="5.68143">
        <ele>981.4</ele>
        <time>2026-05-10T11:11:07Z</time>
      </trkpt>
      <trkpt lat="46.13694" lon="5.68145">
        <ele>981.6</ele>
        <time>2026-05-10T11:11:08Z</time>
      </trkpt>
      <trkpt lat="46.13693" lon="5.68148">
        <ele>981.8</ele>
        <time>2026-05-10T11:11:09Z</time>
      </trkpt>
      <trkpt lat="46.13692" lon="5.6815">
        <ele>981.8</ele>
        <time>2026-05-10T11:11:10Z</time>
      </trkpt>
      <trkpt lat="46.13692" lon="5.68153">
        <ele>982</ele>
        <time>2026-05-10T11:11:11Z</time>
      </trkpt>
      <trkpt lat="46.13692" lon="5.68155">
        <ele>982</ele>
        <time>2026-05-10T11:11:12Z</time>
      </trkpt>
      <trkpt lat="46.13692" lon="5.68158">
        <ele>982.2</ele>
        <time>2026-05-10T11:11:13Z</time>
      </trkpt>
      <trkpt lat="46.13693" lon="5.6816">
        <ele>982.2</ele>
        <time>2026-05-10T11:11:14Z</time>
      </trkpt>
      <trkpt lat="46.13693" lon="5.68162">
        <ele>982.2</ele>
        <time>2026-05-10T11:11:15Z</time>
      </trkpt>
      <trkpt lat="46.13694" lon="5.68165">
        <ele>982.2</ele>
        <time>2026-05-10T11:11:16Z</time>
      </trkpt>
      <trkpt lat="46.13694" lon="5.68167">
        <ele>982</ele>
        <time>2026-05-10T11:11:17Z</time>
      </trkpt>
      <trkpt lat="46.13696" lon="5.6817">
        <ele>982.2</ele>
        <time>2026-05-10T11:11:18Z</time>
      </trkpt>
      <trkpt lat="46.13696" lon="5.68172">
        <ele>982.6</ele>
        <time>2026-05-10T11:11:19Z</time>
      </trkpt>
      <trkpt lat="46.13697" lon="5.68173">
        <ele>982.6</ele>
        <time>2026-05-10T11:11:20Z</time>
      </trkpt>
      <trkpt lat="46.13697" lon="5.68175">
        <ele>982.8</ele>
        <time>2026-05-10T11:11:21Z</time>
      </trkpt>
      <trkpt lat="46.13696" lon="5.68178">
        <ele>982.8</ele>
        <time>2026-05-10T11:11:22Z</time>
      </trkpt>
      <trkpt lat="46.13693" lon="5.68182">
        <ele>983.4</ele>
        <time>2026-05-10T11:11:23Z</time>
      </trkpt>
      <trkpt lat="46.13691" lon="5.68184">
        <ele>983.4</ele>
        <time>2026-05-10T11:11:24Z</time>
      </trkpt>
      <trkpt lat="46.13691" lon="5.68186">
        <ele>983.4</ele>
        <time>2026-05-10T11:11:25Z</time>
      </trkpt>
      <trkpt lat="46.13692" lon="5.68189">
        <ele>983.8</ele>
        <time>2026-05-10T11:11:26Z</time>
      </trkpt>
      <trkpt lat="46.13693" lon="5.68192">
        <ele>983.8</ele>
        <time>2026-05-10T11:11:27Z</time>
      </trkpt>
      <trkpt lat="46.13694" lon="5.68194">
        <ele>984</ele>
        <time>2026-05-10T11:11:28Z</time>
      </trkpt>
      <trkpt lat="46.13694" lon="5.68195">
        <ele>984</ele>
        <time>2026-05-10T11:11:29Z</time>
      </trkpt>
      <trkpt lat="46.13695" lon="5.68197">
        <ele>984.2</ele>
        <time>2026-05-10T11:11:30Z</time>
      </trkpt>
      <trkpt lat="46.13695" lon="5.682">
        <ele>984.2</ele>
        <time>2026-05-10T11:11:31Z</time>
      </trkpt>
      <trkpt lat="46.13694" lon="5.68203">
        <ele>984.6</ele>
        <time>2026-05-10T11:11:32Z</time>
      </trkpt>
      <trkpt lat="46.13693" lon="5.68205">
        <ele>984.6</ele>
        <time>2026-05-10T11:11:33Z</time>
      </trkpt>
      <trkpt lat="46.13692" lon="5.68207">
        <ele>984.6</ele>
        <time>2026-05-10T11:11:34Z</time>
      </trkpt>
      <trkpt lat="46.13692" lon="5.68209">
        <ele>985</ele>
        <time>2026-05-10T11:11:35Z</time>
      </trkpt>
      <trkpt lat="46.13692" lon="5.68211">
        <ele>985</ele>
        <time>2026-05-10T11:11:36Z</time>
      </trkpt>
      <trkpt lat="46.13692" lon="5.68214">
        <ele>985</ele>
        <time>2026-05-10T11:11:37Z</time>
      </trkpt>
      <trkpt lat="46.13692" lon="5.68216">
        <ele>985</ele>
        <time>2026-05-10T11:11:38Z</time>
      </trkpt>
      <trkpt lat="46.13692" lon="5.68218">
        <ele>985</ele>
        <time>2026-05-10T11:11:39Z</time>
      </trkpt>
      <trkpt lat="46.13693" lon="5.6822">
        <ele>985.4</ele>
        <time>2026-05-10T11:11:40Z</time>
      </trkpt>
      <trkpt lat="46.13693" lon="5.68223">
        <ele>985.4</ele>
        <time>2026-05-10T11:11:41Z</time>
      </trkpt>
      <trkpt lat="46.13694" lon="5.68225">
        <ele>985.8</ele>
        <time>2026-05-10T11:11:42Z</time>
      </trkpt>
      <trkpt lat="46.13695" lon="5.68228">
        <ele>985.8</ele>
        <time>2026-05-10T11:11:43Z</time>
      </trkpt>
      <trkpt lat="46.13697" lon="5.6823">
        <ele>985.8</ele>
        <time>2026-05-10T11:11:44Z</time>
      </trkpt>
      <trkpt lat="46.13698" lon="5.68233">
        <ele>986.2</ele>
        <time>2026-05-10T11:11:45Z</time>
      </trkpt>
      <trkpt lat="46.13699" lon="5.68235">
        <ele>986.4</ele>
        <time>2026-05-10T11:11:46Z</time>
      </trkpt>
      <trkpt lat="46.13699" lon="5.68238">
        <ele>986.4</ele>
        <time>2026-05-10T11:11:47Z</time>
      </trkpt>
      <trkpt lat="46.13699" lon="5.68241">
        <ele>986.4</ele>
        <time>2026-05-10T11:11:48Z</time>
      </trkpt>
      <trkpt lat="46.13699" lon="5.68243">
        <ele>987</ele>
        <time>2026-05-10T11:11:49Z</time>
      </trkpt>
      <trkpt lat="46.137" lon="5.68245">
        <ele>987</ele>
        <time>2026-05-10T11:11:50Z</time>
      </trkpt>
      <trkpt lat="46.137" lon="5.68248">
        <ele>987</ele>
        <time>2026-05-10T11:11:51Z</time>
      </trkpt>
      <trkpt lat="46.13701" lon="5.6825">
        <ele>987</ele>
        <time>2026-05-10T11:11:52Z</time>
      </trkpt>
      <trkpt lat="46.13702" lon="5.68252">
        <ele>987.2</ele>
        <time>2026-05-10T11:11:53Z</time>
      </trkpt>
      <trkpt lat="46.13703" lon="5.68254">
        <ele>987.4</ele>
        <time>2026-05-10T11:11:54Z</time>
      </trkpt>
      <trkpt lat="46.13704" lon="5.68255">
        <ele>987.6</ele>
        <time>2026-05-10T11:11:55Z</time>
      </trkpt>
      <trkpt lat="46.13705" lon="5.68258">
        <ele>987.6</ele>
        <time>2026-05-10T11:11:56Z</time>
      </trkpt>
      <trkpt lat="46.13706" lon="5.6826">
        <ele>987.8</ele>
        <time>2026-05-10T11:11:57Z</time>
      </trkpt>
      <trkpt lat="46.13707" lon="5.68261">
        <ele>987.8</ele>
        <time>2026-05-10T11:11:58Z</time>
      </trkpt>
      <trkpt lat="46.13708" lon="5.68263">
        <ele>988</ele>
        <time>2026-05-10T11:11:59Z</time>
      </trkpt>
      <trkpt lat="46.1371" lon="5.68266">
        <ele>988</ele>
        <time>2026-05-10T11:12:00Z</time>
      </trkpt>
      <trkpt lat="46.13711" lon="5.68268">
        <ele>988</ele>
        <time>2026-05-10T11:12:01Z</time>
      </trkpt>
      <trkpt lat="46.13712" lon="5.6827">
        <ele>988</ele>
        <time>2026-05-10T11:12:02Z</time>
      </trkpt>
      <trkpt lat="46.13713" lon="5.68272">
        <ele>988.8</ele>
        <time>2026-05-10T11:12:03Z</time>
      </trkpt>
      <trkpt lat="46.13714" lon="5.68275">
        <ele>989</ele>
        <time>2026-05-10T11:12:04Z</time>
      </trkpt>
      <trkpt lat="46.13715" lon="5.68277">
        <ele>989.4</ele>
        <time>2026-05-10T11:12:05Z</time>
      </trkpt>
      <trkpt lat="46.13716" lon="5.68279">
        <ele>989.4</ele>
        <time>2026-05-10T11:12:06Z</time>
      </trkpt>
      <trkpt lat="46.13717" lon="5.6828">
        <ele>989.6</ele>
        <time>2026-05-10T11:12:07Z</time>
      </trkpt>
      <trkpt lat="46.13718" lon="5.68282">
        <ele>989.8</ele>
        <time>2026-05-10T11:12:08Z</time>
      </trkpt>
      <trkpt lat="46.13719" lon="5.68283">
        <ele>990</ele>
        <time>2026-05-10T11:12:09Z</time>
      </trkpt>
      <trkpt lat="46.13721" lon="5.68284">
        <ele>989.8</ele>
        <time>2026-05-10T11:12:10Z</time>
      </trkpt>
      <trkpt lat="46.13724" lon="5.68286">
        <ele>989.8</ele>
        <time>2026-05-10T11:12:11Z</time>
      </trkpt>
      <trkpt lat="46.13726" lon="5.68288">
        <ele>989.8</ele>
        <time>2026-05-10T11:12:12Z</time>
      </trkpt>
      <trkpt lat="46.13727" lon="5.68289">
        <ele>989.8</ele>
        <time>2026-05-10T11:12:13Z</time>
      </trkpt>
      <trkpt lat="46.13728" lon="5.68291">
        <ele>989.8</ele>
        <time>2026-05-10T11:12:14Z</time>
      </trkpt>
      <trkpt lat="46.13729" lon="5.68293">
        <ele>989.8</ele>
        <time>2026-05-10T11:12:15Z</time>
      </trkpt>
      <trkpt lat="46.1373" lon="5.68294">
        <ele>990.4</ele>
        <time>2026-05-10T11:12:16Z</time>
      </trkpt>
      <trkpt lat="46.1373" lon="5.68297">
        <ele>990.4</ele>
        <time>2026-05-10T11:12:17Z</time>
      </trkpt>
      <trkpt lat="46.1373" lon="5.68299">
        <ele>990.4</ele>
        <time>2026-05-10T11:12:18Z</time>
      </trkpt>
      <trkpt lat="46.13731" lon="5.68302">
        <ele>990.6</ele>
        <time>2026-05-10T11:12:19Z</time>
      </trkpt>
      <trkpt lat="46.13732" lon="5.68304">
        <ele>990.6</ele>
        <time>2026-05-10T11:12:20Z</time>
      </trkpt>
      <trkpt lat="46.13733" lon="5.68307">
        <ele>991</ele>
        <time>2026-05-10T11:12:21Z</time>
      </trkpt>
      <trkpt lat="46.13734" lon="5.68309">
        <ele>991</ele>
        <time>2026-05-10T11:12:22Z</time>
      </trkpt>
      <trkpt lat="46.13735" lon="5.6831">
        <ele>991</ele>
        <time>2026-05-10T11:12:23Z</time>
      </trkpt>
      <trkpt lat="46.13736" lon="5.68311">
        <ele>991.2</ele>
        <time>2026-05-10T11:12:24Z</time>
      </trkpt>
      <trkpt lat="46.13738" lon="5.68312">
        <ele>991.2</ele>
        <time>2026-05-10T11:12:25Z</time>
      </trkpt>
      <trkpt lat="46.13739" lon="5.68314">
        <ele>991.4</ele>
        <time>2026-05-10T11:12:26Z</time>
      </trkpt>
      <trkpt lat="46.1374" lon="5.68315">
        <ele>991.8</ele>
        <time>2026-05-10T11:12:27Z</time>
      </trkpt>
      <trkpt lat="46.13741" lon="5.68317">
        <ele>991.8</ele>
        <time>2026-05-10T11:12:28Z</time>
      </trkpt>
      <trkpt lat="46.13742" lon="5.68318">
        <ele>991.8</ele>
        <time>2026-05-10T11:12:29Z</time>
      </trkpt>
      <trkpt lat="46.13745" lon="5.6832">
        <ele>991.8</ele>
        <time>2026-05-10T11:12:30Z</time>
      </trkpt>
      <trkpt lat="46.13746" lon="5.68321">
        <ele>991.8</ele>
        <time>2026-05-10T11:12:31Z</time>
      </trkpt>
      <trkpt lat="46.13746" lon="5.68323">
        <ele>992</ele>
        <time>2026-05-10T11:12:32Z</time>
      </trkpt>
      <trkpt lat="46.13747" lon="5.68325">
        <ele>992.2</ele>
        <time>2026-05-10T11:12:33Z</time>
      </trkpt>
      <trkpt lat="46.13747" lon="5.68327">
        <ele>992.2</ele>
        <time>2026-05-10T11:12:34Z</time>
      </trkpt>
      <trkpt lat="46.13748" lon="5.6833">
        <ele>992.6</ele>
        <time>2026-05-10T11:12:35Z</time>
      </trkpt>
      <trkpt lat="46.13749" lon="5.68332">
        <ele>992.8</ele>
        <time>2026-05-10T11:12:36Z</time>
      </trkpt>
      <trkpt lat="46.13749" lon="5.68334">
        <ele>992.8</ele>
        <time>2026-05-10T11:12:37Z</time>
      </trkpt>
      <trkpt lat="46.13749" lon="5.68336">
        <ele>992.8</ele>
        <time>2026-05-10T11:12:38Z</time>
      </trkpt>
      <trkpt lat="46.13749" lon="5.68338">
        <ele>993.2</ele>
        <time>2026-05-10T11:12:39Z</time>
      </trkpt>
      <trkpt lat="46.13748" lon="5.68341">
        <ele>993.2</ele>
        <time>2026-05-10T11:12:40Z</time>
      </trkpt>
      <trkpt lat="46.13749" lon="5.68343">
        <ele>993.4</ele>
        <time>2026-05-10T11:12:41Z</time>
      </trkpt>
      <trkpt lat="46.13749" lon="5.68345">
        <ele>993.4</ele>
        <time>2026-05-10T11:12:42Z</time>
      </trkpt>
      <trkpt lat="46.1375" lon="5.68348">
        <ele>993.4</ele>
        <time>2026-05-10T11:12:43Z</time>
      </trkpt>
      <trkpt lat="46.13751" lon="5.6835">
        <ele>993.4</ele>
        <time>2026-05-10T11:12:44Z</time>
      </trkpt>
      <trkpt lat="46.13752" lon="5.68352">
        <ele>993.6</ele>
        <time>2026-05-10T11:12:45Z</time>
      </trkpt>
      <trkpt lat="46.13752" lon="5.68354">
        <ele>993.6</ele>
        <time>2026-05-10T11:12:46Z</time>
      </trkpt>
      <trkpt lat="46.13753" lon="5.68356">
        <ele>993.8</ele>
        <time>2026-05-10T11:12:47Z</time>
      </trkpt>
      <trkpt lat="46.13753" lon="5.68358">
        <ele>993.8</ele>
        <time>2026-05-10T11:12:48Z</time>
      </trkpt>
      <trkpt lat="46.13753" lon="5.6836">
        <ele>994.2</ele>
        <time>2026-05-10T11:12:49Z</time>
      </trkpt>
      <trkpt lat="46.13753" lon="5.68361">
        <ele>994.6</ele>
        <time>2026-05-10T11:12:50Z</time>
      </trkpt>
      <trkpt lat="46.13753" lon="5.68363">
        <ele>994.6</ele>
        <time>2026-05-10T11:12:51Z</time>
      </trkpt>
      <trkpt lat="46.13753" lon="5.68366">
        <ele>994.6</ele>
        <time>2026-05-10T11:12:52Z</time>
      </trkpt>
      <trkpt lat="46.13754" lon="5.6837">
        <ele>995</ele>
        <time>2026-05-10T11:12:53Z</time>
      </trkpt>
      <trkpt lat="46.13754" lon="5.6837">
        <ele>995</ele>
        <time>2026-05-10T11:12:54Z</time>
      </trkpt>
      <trkpt lat="46.13754" lon="5.68372">
        <ele>995.4</ele>
        <time>2026-05-10T11:12:55Z</time>
      </trkpt>
      <trkpt lat="46.13754" lon="5.68375">
        <ele>995.4</ele>
        <time>2026-05-10T11:12:56Z</time>
      </trkpt>
      <trkpt lat="46.13753" lon="5.68377">
        <ele>995.4</ele>
        <time>2026-05-10T11:12:57Z</time>
      </trkpt>
      <trkpt lat="46.13753" lon="5.68379">
        <ele>995.8</ele>
        <time>2026-05-10T11:12:58Z</time>
      </trkpt>
      <trkpt lat="46.13754" lon="5.68381">
        <ele>995.8</ele>
        <time>2026-05-10T11:12:59Z</time>
      </trkpt>
      <trkpt lat="46.13755" lon="5.68383">
        <ele>995.8</ele>
        <time>2026-05-10T11:13:00Z</time>
      </trkpt>
      <trkpt lat="46.13756" lon="5.68384">
        <ele>996.6</ele>
        <time>2026-05-10T11:13:01Z</time>
      </trkpt>
      <trkpt lat="46.13756" lon="5.68386">
        <ele>996.6</ele>
        <time>2026-05-10T11:13:02Z</time>
      </trkpt>
      <trkpt lat="46.13754" lon="5.68388">
        <ele>996.6</ele>
        <time>2026-05-10T11:13:03Z</time>
      </trkpt>
      <trkpt lat="46.13752" lon="5.6839">
        <ele>996.6</ele>
        <time>2026-05-10T11:13:04Z</time>
      </trkpt>
      <trkpt lat="46.13751" lon="5.68392">
        <ele>996.6</ele>
        <time>2026-05-10T11:13:05Z</time>
      </trkpt>
      <trkpt lat="46.13749" lon="5.68394">
        <ele>997</ele>
        <time>2026-05-10T11:13:06Z</time>
      </trkpt>
      <trkpt lat="46.13747" lon="5.68397">
        <ele>997</ele>
        <time>2026-05-10T11:13:07Z</time>
      </trkpt>
      <trkpt lat="46.13746" lon="5.68398">
        <ele>997.4</ele>
        <time>2026-05-10T11:13:08Z</time>
      </trkpt>
      <trkpt lat="46.13746" lon="5.68399">
        <ele>997.4</ele>
        <time>2026-05-10T11:13:09Z</time>
      </trkpt>
      <trkpt lat="46.13746" lon="5.684">
        <ele>997.4</ele>
        <time>2026-05-10T11:13:10Z</time>
      </trkpt>
      <trkpt lat="46.13746" lon="5.68402">
        <ele>997.6</ele>
        <time>2026-05-10T11:13:11Z</time>
      </trkpt>
      <trkpt lat="46.13746" lon="5.68405">
        <ele>998</ele>
        <time>2026-05-10T11:13:12Z</time>
      </trkpt>
      <trkpt lat="46.13746" lon="5.68408">
        <ele>998.2</ele>
        <time>2026-05-10T11:13:13Z</time>
      </trkpt>
      <trkpt lat="46.13747" lon="5.68411">
        <ele>998.2</ele>
        <time>2026-05-10T11:13:14Z</time>
      </trkpt>
      <trkpt lat="46.13748" lon="5.68413">
        <ele>998.2</ele>
        <time>2026-05-10T11:13:15Z</time>
      </trkpt>
      <trkpt lat="46.13748" lon="5.68416">
        <ele>998.2</ele>
        <time>2026-05-10T11:13:16Z</time>
      </trkpt>
      <trkpt lat="46.13747" lon="5.68419">
        <ele>998.2</ele>
        <time>2026-05-10T11:13:17Z</time>
      </trkpt>
      <trkpt lat="46.13747" lon="5.6842">
        <ele>998.2</ele>
        <time>2026-05-10T11:13:18Z</time>
      </trkpt>
      <trkpt lat="46.13746" lon="5.68422">
        <ele>998.2</ele>
        <time>2026-05-10T11:13:19Z</time>
      </trkpt>
      <trkpt lat="46.13746" lon="5.68425">
        <ele>998.4</ele>
        <time>2026-05-10T11:13:20Z</time>
      </trkpt>
      <trkpt lat="46.13746" lon="5.68427">
        <ele>998.4</ele>
        <time>2026-05-10T11:13:21Z</time>
      </trkpt>
      <trkpt lat="46.13746" lon="5.68429">
        <ele>998.6</ele>
        <time>2026-05-10T11:13:22Z</time>
      </trkpt>
      <trkpt lat="46.13744" lon="5.68432">
        <ele>998.6</ele>
        <time>2026-05-10T11:13:23Z</time>
      </trkpt>
      <trkpt lat="46.13743" lon="5.68435">
        <ele>998.6</ele>
        <time>2026-05-10T11:13:24Z</time>
      </trkpt>
      <trkpt lat="46.13741" lon="5.68437">
        <ele>998.2</ele>
        <time>2026-05-10T11:13:25Z</time>
      </trkpt>
      <trkpt lat="46.13739" lon="5.68439">
        <ele>998.2</ele>
        <time>2026-05-10T11:13:26Z</time>
      </trkpt>
      <trkpt lat="46.13736" lon="5.68441">
        <ele>997.6</ele>
        <time>2026-05-10T11:13:27Z</time>
      </trkpt>
      <trkpt lat="46.13734" lon="5.68444">
        <ele>997.6</ele>
        <time>2026-05-10T11:13:28Z</time>
      </trkpt>
      <trkpt lat="46.13731" lon="5.68447">
        <ele>997.4</ele>
        <time>2026-05-10T11:13:29Z</time>
      </trkpt>
      <trkpt lat="46.13728" lon="5.68449">
        <ele>997.4</ele>
        <time>2026-05-10T11:13:30Z</time>
      </trkpt>
      <trkpt lat="46.13724" lon="5.6845">
        <ele>997</ele>
        <time>2026-05-10T11:13:31Z</time>
      </trkpt>
      <trkpt lat="46.13721" lon="5.68451">
        <ele>997</ele>
        <time>2026-05-10T11:13:32Z</time>
      </trkpt>
      <trkpt lat="46.13718" lon="5.6845">
        <ele>997</ele>
        <time>2026-05-10T11:13:33Z</time>
      </trkpt>
      <trkpt lat="46.13714" lon="5.68449">
        <ele>996.4</ele>
        <time>2026-05-10T11:13:34Z</time>
      </trkpt>
      <trkpt lat="46.1371" lon="5.68448">
        <ele>996.4</ele>
        <time>2026-05-10T11:13:35Z</time>
      </trkpt>
      <trkpt lat="46.13707" lon="5.68447">
        <ele>995.8</ele>
        <time>2026-05-10T11:13:36Z</time>
      </trkpt>
      <trkpt lat="46.137" lon="5.68444">
        <ele>995.8</ele>
        <time>2026-05-10T11:13:37Z</time>
      </trkpt>
      <trkpt lat="46.13695" lon="5.68442">
        <ele>995.8</ele>
        <time>2026-05-10T11:13:38Z</time>
      </trkpt>
      <trkpt lat="46.13689" lon="5.6844">
        <ele>994.8</ele>
        <time>2026-05-10T11:13:39Z</time>
      </trkpt>
      <trkpt lat="46.13685" lon="5.68439">
        <ele>994.6</ele>
        <time>2026-05-10T11:13:40Z</time>
      </trkpt>
      <trkpt lat="46.1368" lon="5.68438">
        <ele>994</ele>
        <time>2026-05-10T11:13:41Z</time>
      </trkpt>
      <trkpt lat="46.13673" lon="5.68435">
        <ele>993.8</ele>
        <time>2026-05-10T11:13:42Z</time>
      </trkpt>
      <trkpt lat="46.13668" lon="5.68433">
        <ele>993.4</ele>
        <time>2026-05-10T11:13:43Z</time>
      </trkpt>
      <trkpt lat="46.13663" lon="5.68429">
        <ele>993</ele>
        <time>2026-05-10T11:13:44Z</time>
      </trkpt>
      <trkpt lat="46.13657" lon="5.68425">
        <ele>992.6</ele>
        <time>2026-05-10T11:13:45Z</time>
      </trkpt>
      <trkpt lat="46.13653" lon="5.68418">
        <ele>992.6</ele>
        <time>2026-05-10T11:13:46Z</time>
      </trkpt>
      <trkpt lat="46.13648" lon="5.68412">
        <ele>992.6</ele>
        <time>2026-05-10T11:13:47Z</time>
      </trkpt>
      <trkpt lat="46.13643" lon="5.68406">
        <ele>992.6</ele>
        <time>2026-05-10T11:13:48Z</time>
      </trkpt>
      <trkpt lat="46.13638" lon="5.68401">
        <ele>992.4</ele>
        <time>2026-05-10T11:13:49Z</time>
      </trkpt>
      <trkpt lat="46.13634" lon="5.68396">
        <ele>991.4</ele>
        <time>2026-05-10T11:13:50Z</time>
      </trkpt>
      <trkpt lat="46.1363" lon="5.6839">
        <ele>991.4</ele>
        <time>2026-05-10T11:13:51Z</time>
      </trkpt>
      <trkpt lat="46.13625" lon="5.68386">
        <ele>991.8</ele>
        <time>2026-05-10T11:13:52Z</time>
      </trkpt>
      <trkpt lat="46.1362" lon="5.68382">
        <ele>991.8</ele>
        <time>2026-05-10T11:13:53Z</time>
      </trkpt>
      <trkpt lat="46.13615" lon="5.68377">
        <ele>991.6</ele>
        <time>2026-05-10T11:13:54Z</time>
      </trkpt>
      <trkpt lat="46.13611" lon="5.68373">
        <ele>991.8</ele>
        <time>2026-05-10T11:13:55Z</time>
      </trkpt>
      <trkpt lat="46.13607" lon="5.68367">
        <ele>991</ele>
        <time>2026-05-10T11:13:56Z</time>
      </trkpt>
      <trkpt lat="46.13603" lon="5.68361">
        <ele>990.6</ele>
        <time>2026-05-10T11:13:57Z</time>
      </trkpt>
      <trkpt lat="46.13598" lon="5.68357">
        <ele>991</ele>
        <time>2026-05-10T11:13:58Z</time>
      </trkpt>
      <trkpt lat="46.13593" lon="5.68352">
        <ele>990.6</ele>
        <time>2026-05-10T11:13:59Z</time>
      </trkpt>
      <trkpt lat="46.13588" lon="5.68346">
        <ele>989.8</ele>
        <time>2026-05-10T11:14:00Z</time>
      </trkpt>
      <trkpt lat="46.13583" lon="5.68342">
        <ele>989.8</ele>
        <time>2026-05-10T11:14:01Z</time>
      </trkpt>
      <trkpt lat="46.13578" lon="5.68337">
        <ele>988.8</ele>
        <time>2026-05-10T11:14:02Z</time>
      </trkpt>
      <trkpt lat="46.13571" lon="5.68332">
        <ele>988.8</ele>
        <time>2026-05-10T11:14:03Z</time>
      </trkpt>
      <trkpt lat="46.13563" lon="5.68328">
        <ele>988.6</ele>
        <time>2026-05-10T11:14:04Z</time>
      </trkpt>
      <trkpt lat="46.13557" lon="5.68324">
        <ele>987.6</ele>
        <time>2026-05-10T11:14:05Z</time>
      </trkpt>
      <trkpt lat="46.13552" lon="5.68318">
        <ele>987.4</ele>
        <time>2026-05-10T11:14:06Z</time>
      </trkpt>
      <trkpt lat="46.13545" lon="5.68313">
        <ele>987</ele>
        <time>2026-05-10T11:14:07Z</time>
      </trkpt>
      <trkpt lat="46.1354" lon="5.68311">
        <ele>986.8</ele>
        <time>2026-05-10T11:14:08Z</time>
      </trkpt>
      <trkpt lat="46.13533" lon="5.68308">
        <ele>986.2</ele>
        <time>2026-05-10T11:14:09Z</time>
      </trkpt>
      <trkpt lat="46.13528" lon="5.68305">
        <ele>985.8</ele>
        <time>2026-05-10T11:14:10Z</time>
      </trkpt>
      <trkpt lat="46.13522" lon="5.68301">
        <ele>985.8</ele>
        <time>2026-05-10T11:14:11Z</time>
      </trkpt>
      <trkpt lat="46.13516" lon="5.68296">
        <ele>985.2</ele>
        <time>2026-05-10T11:14:12Z</time>
      </trkpt>
      <trkpt lat="46.13512" lon="5.68291">
        <ele>985.2</ele>
        <time>2026-05-10T11:14:13Z</time>
      </trkpt>
      <trkpt lat="46.13508" lon="5.68284">
        <ele>985</ele>
        <time>2026-05-10T11:14:14Z</time>
      </trkpt>
      <trkpt lat="46.13504" lon="5.68277">
        <ele>984.2</ele>
        <time>2026-05-10T11:14:15Z</time>
      </trkpt>
      <trkpt lat="46.135" lon="5.6827">
        <ele>984.4</ele>
        <time>2026-05-10T11:14:16Z</time>
      </trkpt>
      <trkpt lat="46.13495" lon="5.68263">
        <ele>984.8</ele>
        <time>2026-05-10T11:14:17Z</time>
      </trkpt>
      <trkpt lat="46.1349" lon="5.68254">
        <ele>984.6</ele>
        <time>2026-05-10T11:14:18Z</time>
      </trkpt>
      <trkpt lat="46.13486" lon="5.68247">
        <ele>984.6</ele>
        <time>2026-05-10T11:14:19Z</time>
      </trkpt>
      <trkpt lat="46.13482" lon="5.6824">
        <ele>984</ele>
        <time>2026-05-10T11:14:20Z</time>
      </trkpt>
      <trkpt lat="46.13476" lon="5.68233">
        <ele>984</ele>
        <time>2026-05-10T11:14:21Z</time>
      </trkpt>
      <trkpt lat="46.13472" lon="5.68226">
        <ele>983.2</ele>
        <time>2026-05-10T11:14:22Z</time>
      </trkpt>
      <trkpt lat="46.13467" lon="5.68219">
        <ele>982.4</ele>
        <time>2026-05-10T11:14:23Z</time>
      </trkpt>
      <trkpt lat="46.13465" lon="5.68213">
        <ele>981.8</ele>
        <time>2026-05-10T11:14:24Z</time>
      </trkpt>
      <trkpt lat="46.13459" lon="5.68208">
        <ele>981</ele>
        <time>2026-05-10T11:14:25Z</time>
      </trkpt>
      <trkpt lat="46.13453" lon="5.68199">
        <ele>981.4</ele>
        <time>2026-05-10T11:14:26Z</time>
      </trkpt>
      <trkpt lat="46.13448" lon="5.68191">
        <ele>981.4</ele>
        <time>2026-05-10T11:14:27Z</time>
      </trkpt>
      <trkpt lat="46.13443" lon="5.68184">
        <ele>980.4</ele>
        <time>2026-05-10T11:14:28Z</time>
      </trkpt>
      <trkpt lat="46.13438" lon="5.68176">
        <ele>980.4</ele>
        <time>2026-05-10T11:14:29Z</time>
      </trkpt>
      <trkpt lat="46.13434" lon="5.68164">
        <ele>980</ele>
        <time>2026-05-10T11:14:30Z</time>
      </trkpt>
      <trkpt lat="46.13431" lon="5.68157">
        <ele>979.6</ele>
        <time>2026-05-10T11:14:31Z</time>
      </trkpt>
      <trkpt lat="46.13426" lon="5.68153">
        <ele>979.6</ele>
        <time>2026-05-10T11:14:32Z</time>
      </trkpt>
      <trkpt lat="46.13422" lon="5.68147">
        <ele>979.6</ele>
        <time>2026-05-10T11:14:33Z</time>
      </trkpt>
      <trkpt lat="46.13415" lon="5.6814">
        <ele>979.6</ele>
        <time>2026-05-10T11:14:34Z</time>
      </trkpt>
      <trkpt lat="46.13412" lon="5.68135">
        <ele>979</ele>
        <time>2026-05-10T11:14:35Z</time>
      </trkpt>
      <trkpt lat="46.13408" lon="5.68129">
        <ele>978.6</ele>
        <time>2026-05-10T11:14:36Z</time>
      </trkpt>
      <trkpt lat="46.13402" lon="5.68122">
        <ele>978.4</ele>
        <time>2026-05-10T11:14:37Z</time>
      </trkpt>
      <trkpt lat="46.13391" lon="5.68114">
        <ele>977.8</ele>
        <time>2026-05-10T11:14:38Z</time>
      </trkpt>
      <trkpt lat="46.13385" lon="5.68106">
        <ele>977.2</ele>
        <time>2026-05-10T11:14:39Z</time>
      </trkpt>
      <trkpt lat="46.13377" lon="5.68098">
        <ele>977.2</ele>
        <time>2026-05-10T11:14:40Z</time>
      </trkpt>
      <trkpt lat="46.13369" lon="5.68091">
        <ele>976.6</ele>
        <time>2026-05-10T11:14:41Z</time>
      </trkpt>
      <trkpt lat="46.13366" lon="5.68083">
        <ele>976</ele>
        <time>2026-05-10T11:14:42Z</time>
      </trkpt>
      <trkpt lat="46.13361" lon="5.68075">
        <ele>975.6</ele>
        <time>2026-05-10T11:14:43Z</time>
      </trkpt>
      <trkpt lat="46.13355" lon="5.68067">
        <ele>975.6</ele>
        <time>2026-05-10T11:14:44Z</time>
      </trkpt>
      <trkpt lat="46.1335" lon="5.68059">
        <ele>974.6</ele>
        <time>2026-05-10T11:14:45Z</time>
      </trkpt>
      <trkpt lat="46.13343" lon="5.68052">
        <ele>974.6</ele>
        <time>2026-05-10T11:14:46Z</time>
      </trkpt>
      <trkpt lat="46.13337" lon="5.68045">
        <ele>974.2</ele>
        <time>2026-05-10T11:14:47Z</time>
      </trkpt>
      <trkpt lat="46.13337" lon="5.68039">
        <ele>972.8</ele>
        <time>2026-05-10T11:14:48Z</time>
      </trkpt>
      <trkpt lat="46.13329" lon="5.68034">
        <ele>972.8</ele>
        <time>2026-05-10T11:14:49Z</time>
      </trkpt>
      <trkpt lat="46.13318" lon="5.68026">
        <ele>972.2</ele>
        <time>2026-05-10T11:14:50Z</time>
      </trkpt>
      <trkpt lat="46.13311" lon="5.68022">
        <ele>972.2</ele>
        <time>2026-05-10T11:14:51Z</time>
      </trkpt>
      <trkpt lat="46.13311" lon="5.6802">
        <ele>972.6</ele>
        <time>2026-05-10T11:14:52Z</time>
      </trkpt>
      <trkpt lat="46.13303" lon="5.68017">
        <ele>972.6</ele>
        <time>2026-05-10T11:14:53Z</time>
      </trkpt>
      <trkpt lat="46.13294" lon="5.68014">
        <ele>972.8</ele>
        <time>2026-05-10T11:14:54Z</time>
      </trkpt>
      <trkpt lat="46.13287" lon="5.68011">
        <ele>972.4</ele>
        <time>2026-05-10T11:14:55Z</time>
      </trkpt>
      <trkpt lat="46.13283" lon="5.6801">
        <ele>972.4</ele>
        <time>2026-05-10T11:14:56Z</time>
      </trkpt>
      <trkpt lat="46.13277" lon="5.68009">
        <ele>972.8</ele>
        <time>2026-05-10T11:14:57Z</time>
      </trkpt>
      <trkpt lat="46.13272" lon="5.68007">
        <ele>973.2</ele>
        <time>2026-05-10T11:14:58Z</time>
      </trkpt>
      <trkpt lat="46.13269" lon="5.68005">
        <ele>973.6</ele>
        <time>2026-05-10T11:14:59Z</time>
      </trkpt>
      <trkpt lat="46.13266" lon="5.68002">
        <ele>973.8</ele>
        <time>2026-05-10T11:15:00Z</time>
      </trkpt>
      <trkpt lat="46.1326" lon="5.68">
        <ele>973.6</ele>
        <time>2026-05-10T11:15:01Z</time>
      </trkpt>
      <trkpt lat="46.13255" lon="5.67998">
        <ele>974</ele>
        <time>2026-05-10T11:15:02Z</time>
      </trkpt>
      <trkpt lat="46.13252" lon="5.67996">
        <ele>974.4</ele>
        <time>2026-05-10T11:15:03Z</time>
      </trkpt>
      <trkpt lat="46.13247" lon="5.67995">
        <ele>975</ele>
        <time>2026-05-10T11:15:04Z</time>
      </trkpt>
      <trkpt lat="46.13242" lon="5.67994">
        <ele>975.2</ele>
        <time>2026-05-10T11:15:05Z</time>
      </trkpt>
      <trkpt lat="46.1324" lon="5.67993">
        <ele>975.2</ele>
        <time>2026-05-10T11:15:06Z</time>
      </trkpt>
      <trkpt lat="46.13236" lon="5.67992">
        <ele>975.8</ele>
        <time>2026-05-10T11:15:07Z</time>
      </trkpt>
      <trkpt lat="46.13233" lon="5.67991">
        <ele>975.8</ele>
        <time>2026-05-10T11:15:08Z</time>
      </trkpt>
      <trkpt lat="46.13221" lon="5.6799">
        <ele>975.8</ele>
        <time>2026-05-10T11:15:09Z</time>
      </trkpt>
      <trkpt lat="46.13219" lon="5.6799">
        <ele>975.8</ele>
        <time>2026-05-10T11:15:10Z</time>
      </trkpt>
      <trkpt lat="46.13226" lon="5.67991">
        <ele>975.4</ele>
        <time>2026-05-10T11:15:11Z</time>
      </trkpt>
      <trkpt lat="46.13221" lon="5.67989">
        <ele>975.8</ele>
        <time>2026-05-10T11:15:12Z</time>
      </trkpt>
      <trkpt lat="46.13218" lon="5.67989">
        <ele>975.8</ele>
        <time>2026-05-10T11:15:13Z</time>
      </trkpt>
      <trkpt lat="46.13214" lon="5.67989">
        <ele>977.2</ele>
        <time>2026-05-10T11:15:14Z</time>
      </trkpt>
      <trkpt lat="46.13216" lon="5.67989">
        <ele>976.8</ele>
        <time>2026-05-10T11:15:15Z</time>
      </trkpt>
      <trkpt lat="46.13216" lon="5.67989">
        <ele>976.8</ele>
        <time>2026-05-10T11:15:16Z</time>
      </trkpt>
      <trkpt lat="46.13211" lon="5.67987">
        <ele>977.4</ele>
        <time>2026-05-10T11:15:17Z</time>
      </trkpt>
      <trkpt lat="46.1321" lon="5.67987">
        <ele>977.4</ele>
        <time>2026-05-10T11:15:18Z</time>
      </trkpt>
      <trkpt lat="46.13207" lon="5.67985">
        <ele>976.8</ele>
        <time>2026-05-10T11:15:19Z</time>
      </trkpt>
      <trkpt lat="46.13202" lon="5.67985">
        <ele>976.8</ele>
        <time>2026-05-10T11:15:20Z</time>
      </trkpt>
      <trkpt lat="46.13199" lon="5.67984">
        <ele>976.8</ele>
        <time>2026-05-10T11:15:21Z</time>
      </trkpt>
      <trkpt lat="46.13196" lon="5.67984">
        <ele>976.8</ele>
        <time>2026-05-10T11:15:22Z</time>
      </trkpt>
      <trkpt lat="46.13193" lon="5.67983">
        <ele>977.4</ele>
        <time>2026-05-10T11:15:23Z</time>
      </trkpt>
      <trkpt lat="46.13195" lon="5.67981">
        <ele>977.4</ele>
        <time>2026-05-10T11:15:24Z</time>
      </trkpt>
      <trkpt lat="46.13185" lon="5.67978">
        <ele>977.6</ele>
        <time>2026-05-10T11:15:25Z</time>
      </trkpt>
      <trkpt lat="46.13188" lon="5.67979">
        <ele>977.6</ele>
        <time>2026-05-10T11:15:26Z</time>
      </trkpt>
      <trkpt lat="46.13184" lon="5.67977">
        <ele>977.8</ele>
        <time>2026-05-10T11:15:27Z</time>
      </trkpt>
      <trkpt lat="46.13182" lon="5.67975">
        <ele>977.8</ele>
        <time>2026-05-10T11:15:28Z</time>
      </trkpt>
      <trkpt lat="46.13178" lon="5.67973">
        <ele>977.8</ele>
        <time>2026-05-10T11:15:29Z</time>
      </trkpt>
      <trkpt lat="46.13176" lon="5.67972">
        <ele>978.2</ele>
        <time>2026-05-10T11:15:30Z</time>
      </trkpt>
      <trkpt lat="46.13174" lon="5.67971">
        <ele>978.4</ele>
        <time>2026-05-10T11:15:31Z</time>
      </trkpt>
      <trkpt lat="46.13171" lon="5.6797">
        <ele>978.4</ele>
        <time>2026-05-10T11:15:32Z</time>
      </trkpt>
      <trkpt lat="46.13168" lon="5.67968">
        <ele>978.4</ele>
        <time>2026-05-10T11:15:33Z</time>
      </trkpt>
      <trkpt lat="46.13165" lon="5.67968">
        <ele>978.8</ele>
        <time>2026-05-10T11:15:34Z</time>
      </trkpt>
      <trkpt lat="46.1316" lon="5.67965">
        <ele>979</ele>
        <time>2026-05-10T11:15:35Z</time>
      </trkpt>
      <trkpt lat="46.13159" lon="5.67964">
        <ele>979</ele>
        <time>2026-05-10T11:15:36Z</time>
      </trkpt>
      <trkpt lat="46.13157" lon="5.67962">
        <ele>979</ele>
        <time>2026-05-10T11:15:37Z</time>
      </trkpt>
      <trkpt lat="46.13156" lon="5.6796">
        <ele>979</ele>
        <time>2026-05-10T11:15:38Z</time>
      </trkpt>
      <trkpt lat="46.13152" lon="5.67958">
        <ele>979</ele>
        <time>2026-05-10T11:15:39Z</time>
      </trkpt>
      <trkpt lat="46.13149" lon="5.67957">
        <ele>979.8</ele>
        <time>2026-05-10T11:15:40Z</time>
      </trkpt>
      <trkpt lat="46.13145" lon="5.67955">
        <ele>979.4</ele>
        <time>2026-05-10T11:15:41Z</time>
      </trkpt>
      <trkpt lat="46.13143" lon="5.67953">
        <ele>979.4</ele>
        <time>2026-05-10T11:15:42Z</time>
      </trkpt>
      <trkpt lat="46.13141" lon="5.67951">
        <ele>979.8</ele>
        <time>2026-05-10T11:15:43Z</time>
      </trkpt>
      <trkpt lat="46.13139" lon="5.67949">
        <ele>979.8</ele>
        <time>2026-05-10T11:15:44Z</time>
      </trkpt>
      <trkpt lat="46.13137" lon="5.67948">
        <ele>980</ele>
        <time>2026-05-10T11:15:45Z</time>
      </trkpt>
      <trkpt lat="46.13134" lon="5.67946">
        <ele>980</ele>
        <time>2026-05-10T11:15:46Z</time>
      </trkpt>
      <trkpt lat="46.13132" lon="5.67946">
        <ele>980</ele>
        <time>2026-05-10T11:15:47Z</time>
      </trkpt>
      <trkpt lat="46.13129" lon="5.67945">
        <ele>980</ele>
        <time>2026-05-10T11:15:48Z</time>
      </trkpt>
      <trkpt lat="46.13127" lon="5.67944">
        <ele>980</ele>
        <time>2026-05-10T11:15:49Z</time>
      </trkpt>
      <trkpt lat="46.13124" lon="5.67943">
        <ele>980</ele>
        <time>2026-05-10T11:15:50Z</time>
      </trkpt>
      <trkpt lat="46.13122" lon="5.67942">
        <ele>980</ele>
        <time>2026-05-10T11:15:51Z</time>
      </trkpt>
      <trkpt lat="46.13119" lon="5.6794">
        <ele>980</ele>
        <time>2026-05-10T11:15:52Z</time>
      </trkpt>
      <trkpt lat="46.13116" lon="5.67939">
        <ele>980</ele>
        <time>2026-05-10T11:15:53Z</time>
      </trkpt>
      <trkpt lat="46.13114" lon="5.67937">
        <ele>980</ele>
        <time>2026-05-10T11:15:54Z</time>
      </trkpt>
      <trkpt lat="46.13112" lon="5.67937">
        <ele>980.2</ele>
        <time>2026-05-10T11:15:55Z</time>
      </trkpt>
      <trkpt lat="46.13109" lon="5.67936">
        <ele>980.2</ele>
        <time>2026-05-10T11:15:56Z</time>
      </trkpt>
      <trkpt lat="46.13107" lon="5.67935">
        <ele>980.4</ele>
        <time>2026-05-10T11:15:57Z</time>
      </trkpt>
      <trkpt lat="46.13105" lon="5.67934">
        <ele>980.6</ele>
        <time>2026-05-10T11:15:58Z</time>
      </trkpt>
      <trkpt lat="46.13102" lon="5.67934">
        <ele>980.6</ele>
        <time>2026-05-10T11:15:59Z</time>
      </trkpt>
      <trkpt lat="46.13099" lon="5.67933">
        <ele>980.6</ele>
        <time>2026-05-10T11:16:00Z</time>
      </trkpt>
      <trkpt lat="46.13096" lon="5.67932">
        <ele>981.2</ele>
        <time>2026-05-10T11:16:01Z</time>
      </trkpt>
      <trkpt lat="46.13094" lon="5.67931">
        <ele>981.2</ele>
        <time>2026-05-10T11:16:02Z</time>
      </trkpt>
      <trkpt lat="46.13091" lon="5.67931">
        <ele>981.4</ele>
        <time>2026-05-10T11:16:03Z</time>
      </trkpt>
      <trkpt lat="46.13089" lon="5.67929">
        <ele>981.4</ele>
        <time>2026-05-10T11:16:04Z</time>
      </trkpt>
      <trkpt lat="46.13086" lon="5.67928">
        <ele>981.4</ele>
        <time>2026-05-10T11:16:05Z</time>
      </trkpt>
      <trkpt lat="46.13083" lon="5.67927">
        <ele>981.2</ele>
        <time>2026-05-10T11:16:06Z</time>
      </trkpt>
      <trkpt lat="46.13081" lon="5.67925">
        <ele>981.2</ele>
        <time>2026-05-10T11:16:07Z</time>
      </trkpt>
      <trkpt lat="46.13079" lon="5.67924">
        <ele>981.2</ele>
        <time>2026-05-10T11:16:08Z</time>
      </trkpt>
      <trkpt lat="46.13079" lon="5.67924">
        <ele>981.6</ele>
        <time>2026-05-10T11:16:09Z</time>
      </trkpt>
      <trkpt lat="46.13077" lon="5.67923">
        <ele>981.6</ele>
        <time>2026-05-10T11:16:10Z</time>
      </trkpt>
      <trkpt lat="46.13074" lon="5.67922">
        <ele>981.4</ele>
        <time>2026-05-10T11:16:11Z</time>
      </trkpt>
      <trkpt lat="46.13071" lon="5.67921">
        <ele>981.6</ele>
        <time>2026-05-10T11:16:12Z</time>
      </trkpt>
      <trkpt lat="46.13068" lon="5.6792">
        <ele>981.6</ele>
        <time>2026-05-10T11:16:13Z</time>
      </trkpt>
      <trkpt lat="46.13066" lon="5.67919">
        <ele>981.6</ele>
        <time>2026-05-10T11:16:14Z</time>
      </trkpt>
      <trkpt lat="46.13064" lon="5.67918">
        <ele>982</ele>
        <time>2026-05-10T11:16:15Z</time>
      </trkpt>
      <trkpt lat="46.13061" lon="5.67917">
        <ele>982</ele>
        <time>2026-05-10T11:16:16Z</time>
      </trkpt>
      <trkpt lat="46.13058" lon="5.67916">
        <ele>982.4</ele>
        <time>2026-05-10T11:16:17Z</time>
      </trkpt>
      <trkpt lat="46.13056" lon="5.67915">
        <ele>982.6</ele>
        <time>2026-05-10T11:16:18Z</time>
      </trkpt>
      <trkpt lat="46.13053" lon="5.67914">
        <ele>982.6</ele>
        <time>2026-05-10T11:16:19Z</time>
      </trkpt>
      <trkpt lat="46.13051" lon="5.67913">
        <ele>982.6</ele>
        <time>2026-05-10T11:16:20Z</time>
      </trkpt>
      <trkpt lat="46.13049" lon="5.67911">
        <ele>982.6</ele>
        <time>2026-05-10T11:16:21Z</time>
      </trkpt>
      <trkpt lat="46.13047" lon="5.6791">
        <ele>982.6</ele>
        <time>2026-05-10T11:16:22Z</time>
      </trkpt>
      <trkpt lat="46.13045" lon="5.67909">
        <ele>983.2</ele>
        <time>2026-05-10T11:16:23Z</time>
      </trkpt>
      <trkpt lat="46.13042" lon="5.67908">
        <ele>983.2</ele>
        <time>2026-05-10T11:16:24Z</time>
      </trkpt>
      <trkpt lat="46.13039" lon="5.67906">
        <ele>983.2</ele>
        <time>2026-05-10T11:16:25Z</time>
      </trkpt>
      <trkpt lat="46.13035" lon="5.67905">
        <ele>983.6</ele>
        <time>2026-05-10T11:16:26Z</time>
      </trkpt>
      <trkpt lat="46.13033" lon="5.67904">
        <ele>983.2</ele>
        <time>2026-05-10T11:16:27Z</time>
      </trkpt>
      <trkpt lat="46.13032" lon="5.67903">
        <ele>983.2</ele>
        <time>2026-05-10T11:16:28Z</time>
      </trkpt>
      <trkpt lat="46.1303" lon="5.67902">
        <ele>983.8</ele>
        <time>2026-05-10T11:16:29Z</time>
      </trkpt>
      <trkpt lat="46.13028" lon="5.679">
        <ele>983.8</ele>
        <time>2026-05-10T11:16:30Z</time>
      </trkpt>
      <trkpt lat="46.13026" lon="5.67899">
        <ele>983.8</ele>
        <time>2026-05-10T11:16:31Z</time>
      </trkpt>
      <trkpt lat="46.13023" lon="5.67898">
        <ele>983.8</ele>
        <time>2026-05-10T11:16:32Z</time>
      </trkpt>
      <trkpt lat="46.13021" lon="5.67897">
        <ele>984</ele>
        <time>2026-05-10T11:16:33Z</time>
      </trkpt>
      <trkpt lat="46.13019" lon="5.67896">
        <ele>984</ele>
        <time>2026-05-10T11:16:34Z</time>
      </trkpt>
      <trkpt lat="46.13017" lon="5.67895">
        <ele>984.4</ele>
        <time>2026-05-10T11:16:35Z</time>
      </trkpt>
      <trkpt lat="46.13014" lon="5.67893">
        <ele>984.4</ele>
        <time>2026-05-10T11:16:36Z</time>
      </trkpt>
      <trkpt lat="46.13012" lon="5.67891">
        <ele>984.4</ele>
        <time>2026-05-10T11:16:37Z</time>
      </trkpt>
      <trkpt lat="46.13012" lon="5.6789">
        <ele>984.6</ele>
        <time>2026-05-10T11:16:38Z</time>
      </trkpt>
      <trkpt lat="46.1301" lon="5.67889">
        <ele>984.6</ele>
        <time>2026-05-10T11:16:39Z</time>
      </trkpt>
      <trkpt lat="46.13007" lon="5.67887">
        <ele>984.6</ele>
        <time>2026-05-10T11:16:40Z</time>
      </trkpt>
      <trkpt lat="46.13005" lon="5.67885">
        <ele>984.6</ele>
        <time>2026-05-10T11:16:41Z</time>
      </trkpt>
      <trkpt lat="46.13003" lon="5.67884">
        <ele>985</ele>
        <time>2026-05-10T11:16:42Z</time>
      </trkpt>
      <trkpt lat="46.13001" lon="5.67882">
        <ele>985</ele>
        <time>2026-05-10T11:16:43Z</time>
      </trkpt>
      <trkpt lat="46.12999" lon="5.6788">
        <ele>985</ele>
        <time>2026-05-10T11:16:44Z</time>
      </trkpt>
      <trkpt lat="46.12997" lon="5.67877">
        <ele>985</ele>
        <time>2026-05-10T11:16:45Z</time>
      </trkpt>
      <trkpt lat="46.12995" lon="5.67875">
        <ele>985.4</ele>
        <time>2026-05-10T11:16:46Z</time>
      </trkpt>
      <trkpt lat="46.12994" lon="5.67873">
        <ele>985.6</ele>
        <time>2026-05-10T11:16:47Z</time>
      </trkpt>
      <trkpt lat="46.12992" lon="5.67872">
        <ele>985.6</ele>
        <time>2026-05-10T11:16:48Z</time>
      </trkpt>
      <trkpt lat="46.1299" lon="5.6787">
        <ele>985.8</ele>
        <time>2026-05-10T11:16:49Z</time>
      </trkpt>
      <trkpt lat="46.12987" lon="5.67868">
        <ele>985.8</ele>
        <time>2026-05-10T11:16:50Z</time>
      </trkpt>
      <trkpt lat="46.12985" lon="5.67867">
        <ele>986</ele>
        <time>2026-05-10T11:16:51Z</time>
      </trkpt>
      <trkpt lat="46.12982" lon="5.67866">
        <ele>986</ele>
        <time>2026-05-10T11:16:52Z</time>
      </trkpt>
      <trkpt lat="46.1298" lon="5.67865">
        <ele>986</ele>
        <time>2026-05-10T11:16:53Z</time>
      </trkpt>
      <trkpt lat="46.12978" lon="5.67865">
        <ele>986</ele>
        <time>2026-05-10T11:16:54Z</time>
      </trkpt>
      <trkpt lat="46.12975" lon="5.67865">
        <ele>986.4</ele>
        <time>2026-05-10T11:16:55Z</time>
      </trkpt>
      <trkpt lat="46.12973" lon="5.67865">
        <ele>986.4</ele>
        <time>2026-05-10T11:16:56Z</time>
      </trkpt>
      <trkpt lat="46.12971" lon="5.67866">
        <ele>986.4</ele>
        <time>2026-05-10T11:16:57Z</time>
      </trkpt>
      <trkpt lat="46.12969" lon="5.67866">
        <ele>986.8</ele>
        <time>2026-05-10T11:16:58Z</time>
      </trkpt>
      <trkpt lat="46.12969" lon="5.67866">
        <ele>986.8</ele>
        <time>2026-05-10T11:16:59Z</time>
      </trkpt>
      <trkpt lat="46.12969" lon="5.67866">
        <ele>986.8</ele>
        <time>2026-05-10T11:17:00Z</time>
      </trkpt>
      <trkpt lat="46.12961" lon="5.67869">
        <ele>986.8</ele>
        <time>2026-05-10T11:17:02Z</time>
      </trkpt>
      <trkpt lat="46.12959" lon="5.67869">
        <ele>986.8</ele>
        <time>2026-05-10T11:17:03Z</time>
      </trkpt>
      <trkpt lat="46.12957" lon="5.67869">
        <ele>986.8</ele>
        <time>2026-05-10T11:17:04Z</time>
      </trkpt>
      <trkpt lat="46.12956" lon="5.67868">
        <ele>986.8</ele>
        <time>2026-05-10T11:17:05Z</time>
      </trkpt>
      <trkpt lat="46.12955" lon="5.67868">
        <ele>986.8</ele>
        <time>2026-05-10T11:17:06Z</time>
      </trkpt>
      <trkpt lat="46.12954" lon="5.67869">
        <ele>987</ele>
        <time>2026-05-10T11:17:07Z</time>
      </trkpt>
      <trkpt lat="46.12954" lon="5.67868">
        <ele>987</ele>
        <time>2026-05-10T11:17:08Z</time>
      </trkpt>
      <trkpt lat="46.12954" lon="5.67868">
        <ele>987</ele>
        <time>2026-05-10T11:17:09Z</time>
      </trkpt>
      <trkpt lat="46.12954" lon="5.67868">
        <ele>987</ele>
        <time>2026-05-10T11:17:13Z</time>
      </trkpt>
      <trkpt lat="46.12955" lon="5.67869">
        <ele>987</ele>
        <time>2026-05-10T11:17:14Z</time>
      </trkpt>
      <trkpt lat="46.12955" lon="5.67869">
        <ele>987</ele>
        <time>2026-05-10T11:17:15Z</time>
      </trkpt>
      <trkpt lat="46.12957" lon="5.67869">
        <ele>987</ele>
        <time>2026-05-10T11:17:39Z</time>
      </trkpt>
      <trkpt lat="46.12958" lon="5.67869">
        <ele>987</ele>
        <time>2026-05-10T11:17:40Z</time>
      </trkpt>
      <trkpt lat="46.1296" lon="5.67868">
        <ele>987</ele>
        <time>2026-05-10T11:17:41Z</time>
      </trkpt>
      <trkpt lat="46.12961" lon="5.67868">
        <ele>987</ele>
        <time>2026-05-10T11:17:42Z</time>
      </trkpt>
      <trkpt lat="46.12963" lon="5.67867">
        <ele>987</ele>
        <time>2026-05-10T11:17:43Z</time>
      </trkpt>
      <trkpt lat="46.12965" lon="5.67866">
        <ele>987</ele>
        <time>2026-05-10T11:17:44Z</time>
      </trkpt>
      <trkpt lat="46.12967" lon="5.67865">
        <ele>987</ele>
        <time>2026-05-10T11:17:45Z</time>
      </trkpt>
      <trkpt lat="46.12968" lon="5.67864">
        <ele>987</ele>
        <time>2026-05-10T11:17:46Z</time>
      </trkpt>
      <trkpt lat="46.12967" lon="5.67864">
        <ele>987</ele>
        <time>2026-05-10T11:17:47Z</time>
      </trkpt>
      <trkpt lat="46.12967" lon="5.67864">
        <ele>987</ele>
        <time>2026-05-10T11:17:48Z</time>
      </trkpt>
      <trkpt lat="46.12964" lon="5.67864">
        <ele>987</ele>
        <time>2026-05-10T11:20:51Z</time>
      </trkpt>
      <trkpt lat="46.12963" lon="5.67864">
        <ele>987</ele>
        <time>2026-05-10T11:20:52Z</time>
      </trkpt>
      <trkpt lat="46.12962" lon="5.67865">
        <ele>986.8</ele>
        <time>2026-05-10T11:20:55Z</time>
      </trkpt>
      <trkpt lat="46.12959" lon="5.67866">
        <ele>986.8</ele>
        <time>2026-05-10T11:20:56Z</time>
      </trkpt>
      <trkpt lat="46.12955" lon="5.67867">
        <ele>986.8</ele>
        <time>2026-05-10T11:20:57Z</time>
      </trkpt>
      <trkpt lat="46.12952" lon="5.67866">
        <ele>986.8</ele>
        <time>2026-05-10T11:20:58Z</time>
      </trkpt>
      <trkpt lat="46.1295" lon="5.67867">
        <ele>986.8</ele>
        <time>2026-05-10T11:20:59Z</time>
      </trkpt>
      <trkpt lat="46.12948" lon="5.67867">
        <ele>986.8</ele>
        <time>2026-05-10T11:21:00Z</time>
      </trkpt>
      <trkpt lat="46.12947" lon="5.67867">
        <ele>986.8</ele>
        <time>2026-05-10T11:21:01Z</time>
      </trkpt>
      <trkpt lat="46.12945" lon="5.67867">
        <ele>986.8</ele>
        <time>2026-05-10T11:21:02Z</time>
      </trkpt>
      <trkpt lat="46.12944" lon="5.67867">
        <ele>987.2</ele>
        <time>2026-05-10T11:21:03Z</time>
      </trkpt>
      <trkpt lat="46.12942" lon="5.67868">
        <ele>987.4</ele>
        <time>2026-05-10T11:21:04Z</time>
      </trkpt>
      <trkpt lat="46.1294" lon="5.67867">
        <ele>987.4</ele>
        <time>2026-05-10T11:21:05Z</time>
      </trkpt>
      <trkpt lat="46.12938" lon="5.67868">
        <ele>987.4</ele>
        <time>2026-05-10T11:21:06Z</time>
      </trkpt>
      <trkpt lat="46.12936" lon="5.67868">
        <ele>987.8</ele>
        <time>2026-05-10T11:21:07Z</time>
      </trkpt>
      <trkpt lat="46.12934" lon="5.67868">
        <ele>987.8</ele>
        <time>2026-05-10T11:21:08Z</time>
      </trkpt>
      <trkpt lat="46.12933" lon="5.67868">
        <ele>987.8</ele>
        <time>2026-05-10T11:21:09Z</time>
      </trkpt>
      <trkpt lat="46.12931" lon="5.67869">
        <ele>988</ele>
        <time>2026-05-10T11:21:10Z</time>
      </trkpt>
      <trkpt lat="46.12932" lon="5.67869">
        <ele>988</ele>
        <time>2026-05-10T11:21:11Z</time>
      </trkpt>
      <trkpt lat="46.1293" lon="5.67869">
        <ele>988.2</ele>
        <time>2026-05-10T11:21:12Z</time>
      </trkpt>
      <trkpt lat="46.12929" lon="5.67869">
        <ele>988.2</ele>
        <time>2026-05-10T11:21:13Z</time>
      </trkpt>
      <trkpt lat="46.12928" lon="5.67869">
        <ele>988.2</ele>
        <time>2026-05-10T11:21:14Z</time>
      </trkpt>
      <trkpt lat="46.12928" lon="5.67869">
        <ele>988.2</ele>
        <time>2026-05-10T11:21:15Z</time>
      </trkpt>
      <trkpt lat="46.12925" lon="5.67869">
        <ele>988.2</ele>
        <time>2026-05-10T11:21:16Z</time>
      </trkpt>
      <trkpt lat="46.1292" lon="5.67869">
        <ele>988.6</ele>
        <time>2026-05-10T11:21:17Z</time>
      </trkpt>
      <trkpt lat="46.12918" lon="5.67869">
        <ele>988.8</ele>
        <time>2026-05-10T11:21:18Z</time>
      </trkpt>
      <trkpt lat="46.12914" lon="5.67869">
        <ele>988.8</ele>
        <time>2026-05-10T11:21:19Z</time>
      </trkpt>
      <trkpt lat="46.12912" lon="5.67869">
        <ele>989</ele>
        <time>2026-05-10T11:21:20Z</time>
      </trkpt>
      <trkpt lat="46.12909" lon="5.67869">
        <ele>989</ele>
        <time>2026-05-10T11:21:21Z</time>
      </trkpt>
      <trkpt lat="46.12907" lon="5.6787">
        <ele>989.4</ele>
        <time>2026-05-10T11:21:22Z</time>
      </trkpt>
      <trkpt lat="46.12905" lon="5.67869">
        <ele>989.4</ele>
        <time>2026-05-10T11:21:23Z</time>
      </trkpt>
      <trkpt lat="46.12902" lon="5.67869">
        <ele>989.8</ele>
        <time>2026-05-10T11:21:24Z</time>
      </trkpt>
      <trkpt lat="46.129" lon="5.67869">
        <ele>989.8</ele>
        <time>2026-05-10T11:21:25Z</time>
      </trkpt>
      <trkpt lat="46.12897" lon="5.67869">
        <ele>990.2</ele>
        <time>2026-05-10T11:21:26Z</time>
      </trkpt>
      <trkpt lat="46.12895" lon="5.6787">
        <ele>990.4</ele>
        <time>2026-05-10T11:21:27Z</time>
      </trkpt>
      <trkpt lat="46.12893" lon="5.6787">
        <ele>990.8</ele>
        <time>2026-05-10T11:21:28Z</time>
      </trkpt>
      <trkpt lat="46.1289" lon="5.67869">
        <ele>990.8</ele>
        <time>2026-05-10T11:21:29Z</time>
      </trkpt>
      <trkpt lat="46.12888" lon="5.67869">
        <ele>991</ele>
        <time>2026-05-10T11:21:30Z</time>
      </trkpt>
      <trkpt lat="46.12886" lon="5.67869">
        <ele>991</ele>
        <time>2026-05-10T11:21:31Z</time>
      </trkpt>
      <trkpt lat="46.12884" lon="5.67869">
        <ele>991.4</ele>
        <time>2026-05-10T11:21:32Z</time>
      </trkpt>
      <trkpt lat="46.12881" lon="5.67869">
        <ele>991.4</ele>
        <time>2026-05-10T11:21:33Z</time>
      </trkpt>
      <trkpt lat="46.12879" lon="5.67869">
        <ele>991.4</ele>
        <time>2026-05-10T11:21:34Z</time>
      </trkpt>
      <trkpt lat="46.12877" lon="5.67869">
        <ele>991.6</ele>
        <time>2026-05-10T11:21:35Z</time>
      </trkpt>
      <trkpt lat="46.12875" lon="5.67869">
        <ele>991.6</ele>
        <time>2026-05-10T11:21:36Z</time>
      </trkpt>
      <trkpt lat="46.12873" lon="5.67869">
        <ele>992</ele>
        <time>2026-05-10T11:21:37Z</time>
      </trkpt>
      <trkpt lat="46.12871" lon="5.6787">
        <ele>992</ele>
        <time>2026-05-10T11:21:38Z</time>
      </trkpt>
      <trkpt lat="46.12869" lon="5.6787">
        <ele>992</ele>
        <time>2026-05-10T11:21:39Z</time>
      </trkpt>
      <trkpt lat="46.12867" lon="5.6787">
        <ele>992.4</ele>
        <time>2026-05-10T11:21:40Z</time>
      </trkpt>
      <trkpt lat="46.12864" lon="5.6787">
        <ele>992.4</ele>
        <time>2026-05-10T11:21:41Z</time>
      </trkpt>
      <trkpt lat="46.12862" lon="5.6787">
        <ele>992.8</ele>
        <time>2026-05-10T11:21:42Z</time>
      </trkpt>
      <trkpt lat="46.1286" lon="5.6787">
        <ele>992.8</ele>
        <time>2026-05-10T11:21:43Z</time>
      </trkpt>
      <trkpt lat="46.12859" lon="5.6787">
        <ele>993</ele>
        <time>2026-05-10T11:21:44Z</time>
      </trkpt>
      <trkpt lat="46.12857" lon="5.6787">
        <ele>993.2</ele>
        <time>2026-05-10T11:21:45Z</time>
      </trkpt>
      <trkpt lat="46.12855" lon="5.6787">
        <ele>993.2</ele>
        <time>2026-05-10T11:21:46Z</time>
      </trkpt>
      <trkpt lat="46.12853" lon="5.6787">
        <ele>993.2</ele>
        <time>2026-05-10T11:21:47Z</time>
      </trkpt>
      <trkpt lat="46.12851" lon="5.6787">
        <ele>993.6</ele>
        <time>2026-05-10T11:21:48Z</time>
      </trkpt>
      <trkpt lat="46.1285" lon="5.6787">
        <ele>993.6</ele>
        <time>2026-05-10T11:21:49Z</time>
      </trkpt>
      <trkpt lat="46.12848" lon="5.6787">
        <ele>993.6</ele>
        <time>2026-05-10T11:21:50Z</time>
      </trkpt>
      <trkpt lat="46.12847" lon="5.6787">
        <ele>993.8</ele>
        <time>2026-05-10T11:21:51Z</time>
      </trkpt>
      <trkpt lat="46.12845" lon="5.6787">
        <ele>993.8</ele>
        <time>2026-05-10T11:21:52Z</time>
      </trkpt>
      <trkpt lat="46.12843" lon="5.6787">
        <ele>994</ele>
        <time>2026-05-10T11:21:53Z</time>
      </trkpt>
      <trkpt lat="46.12841" lon="5.6787">
        <ele>994</ele>
        <time>2026-05-10T11:21:54Z</time>
      </trkpt>
      <trkpt lat="46.12839" lon="5.67871">
        <ele>994.4</ele>
        <time>2026-05-10T11:21:55Z</time>
      </trkpt>
      <trkpt lat="46.12837" lon="5.67871">
        <ele>994.6</ele>
        <time>2026-05-10T11:21:56Z</time>
      </trkpt>
      <trkpt lat="46.12836" lon="5.67871">
        <ele>994.6</ele>
        <time>2026-05-10T11:21:57Z</time>
      </trkpt>
      <trkpt lat="46.12835" lon="5.67871">
        <ele>995</ele>
        <time>2026-05-10T11:21:58Z</time>
      </trkpt>
      <trkpt lat="46.12833" lon="5.67872">
        <ele>995</ele>
        <time>2026-05-10T11:21:59Z</time>
      </trkpt>
      <trkpt lat="46.12832" lon="5.67872">
        <ele>995</ele>
        <time>2026-05-10T11:22:00Z</time>
      </trkpt>
      <trkpt lat="46.1283" lon="5.67873">
        <ele>995</ele>
        <time>2026-05-10T11:22:01Z</time>
      </trkpt>
      <trkpt lat="46.12827" lon="5.67873">
        <ele>995</ele>
        <time>2026-05-10T11:22:02Z</time>
      </trkpt>
      <trkpt lat="46.12825" lon="5.67873">
        <ele>995</ele>
        <time>2026-05-10T11:22:03Z</time>
      </trkpt>
      <trkpt lat="46.12823" lon="5.67873">
        <ele>995</ele>
        <time>2026-05-10T11:22:04Z</time>
      </trkpt>
      <trkpt lat="46.12821" lon="5.67874">
        <ele>995.4</ele>
        <time>2026-05-10T11:22:05Z</time>
      </trkpt>
      <trkpt lat="46.12818" lon="5.67874">
        <ele>995.6</ele>
        <time>2026-05-10T11:22:06Z</time>
      </trkpt>
      <trkpt lat="46.12816" lon="5.67874">
        <ele>995.6</ele>
        <time>2026-05-10T11:22:07Z</time>
      </trkpt>
      <trkpt lat="46.12814" lon="5.67873">
        <ele>995.6</ele>
        <time>2026-05-10T11:22:08Z</time>
      </trkpt>
      <trkpt lat="46.12811" lon="5.67873">
        <ele>996</ele>
        <time>2026-05-10T11:22:09Z</time>
      </trkpt>
      <trkpt lat="46.12809" lon="5.67874">
        <ele>995</ele>
        <time>2026-05-10T11:22:10Z</time>
      </trkpt>
      <trkpt lat="46.12806" lon="5.67874">
        <ele>995.6</ele>
        <time>2026-05-10T11:22:11Z</time>
      </trkpt>
      <trkpt lat="46.12805" lon="5.67874">
        <ele>995.6</ele>
        <time>2026-05-10T11:22:12Z</time>
      </trkpt>
      <trkpt lat="46.12804" lon="5.67873">
        <ele>996</ele>
        <time>2026-05-10T11:22:13Z</time>
      </trkpt>
      <trkpt lat="46.12803" lon="5.67873">
        <ele>996</ele>
        <time>2026-05-10T11:22:14Z</time>
      </trkpt>
      <trkpt lat="46.12804" lon="5.67873">
        <ele>995.8</ele>
        <time>2026-05-10T11:22:15Z</time>
      </trkpt>
      <trkpt lat="46.12803" lon="5.67872">
        <ele>997</ele>
        <time>2026-05-10T11:22:26Z</time>
      </trkpt>
      <trkpt lat="46.12801" lon="5.67871">
        <ele>997.2</ele>
        <time>2026-05-10T11:22:27Z</time>
      </trkpt>
      <trkpt lat="46.128" lon="5.67871">
        <ele>997.2</ele>
        <time>2026-05-10T11:22:28Z</time>
      </trkpt>
      <trkpt lat="46.12798" lon="5.67872">
        <ele>997.2</ele>
        <time>2026-05-10T11:22:29Z</time>
      </trkpt>
      <trkpt lat="46.12796" lon="5.67873">
        <ele>997.2</ele>
        <time>2026-05-10T11:22:30Z</time>
      </trkpt>
      <trkpt lat="46.12794" lon="5.67874">
        <ele>997.4</ele>
        <time>2026-05-10T11:22:31Z</time>
      </trkpt>
      <trkpt lat="46.12793" lon="5.67874">
        <ele>997.4</ele>
        <time>2026-05-10T11:22:32Z</time>
      </trkpt>
      <trkpt lat="46.12793" lon="5.67875">
        <ele>997.4</ele>
        <time>2026-05-10T11:22:33Z</time>
      </trkpt>
      <trkpt lat="46.12792" lon="5.67876">
        <ele>997.6</ele>
        <time>2026-05-10T11:23:14Z</time>
      </trkpt>
      <trkpt lat="46.1279" lon="5.67877">
        <ele>997.6</ele>
        <time>2026-05-10T11:23:15Z</time>
      </trkpt>
      <trkpt lat="46.1279" lon="5.67879">
        <ele>997.6</ele>
        <time>2026-05-10T11:23:16Z</time>
      </trkpt>
      <trkpt lat="46.12788" lon="5.67878">
        <ele>997.2</ele>
        <time>2026-05-10T11:23:17Z</time>
      </trkpt>
      <trkpt lat="46.12788" lon="5.67877">
        <ele>997.2</ele>
        <time>2026-05-10T11:23:18Z</time>
      </trkpt>
      <trkpt lat="46.1279" lon="5.67878">
        <ele>997.2</ele>
        <time>2026-05-10T11:23:19Z</time>
      </trkpt>
      <trkpt lat="46.12792" lon="5.67879">
        <ele>997.2</ele>
        <time>2026-05-10T11:23:20Z</time>
      </trkpt>
      <trkpt lat="46.12794" lon="5.67879">
        <ele>997.2</ele>
        <time>2026-05-10T11:23:21Z</time>
      </trkpt>
      <trkpt lat="46.12796" lon="5.6788">
        <ele>997.2</ele>
        <time>2026-05-10T11:23:22Z</time>
      </trkpt>
      <trkpt lat="46.12798" lon="5.67881">
        <ele>997.2</ele>
        <time>2026-05-10T11:23:23Z</time>
      </trkpt>
      <trkpt lat="46.12801" lon="5.67883">
        <ele>997.2</ele>
        <time>2026-05-10T11:23:24Z</time>
      </trkpt>
      <trkpt lat="46.12805" lon="5.67886">
        <ele>997</ele>
        <time>2026-05-10T11:23:25Z</time>
      </trkpt>
      <trkpt lat="46.12808" lon="5.67889">
        <ele>997</ele>
        <time>2026-05-10T11:23:26Z</time>
      </trkpt>
      <trkpt lat="46.12811" lon="5.67891">
        <ele>997</ele>
        <time>2026-05-10T11:23:27Z</time>
      </trkpt>
      <trkpt lat="46.12815" lon="5.67894">
        <ele>997.4</ele>
        <time>2026-05-10T11:23:28Z</time>
      </trkpt>
      <trkpt lat="46.12818" lon="5.67896">
        <ele>997.2</ele>
        <time>2026-05-10T11:23:29Z</time>
      </trkpt>
      <trkpt lat="46.12821" lon="5.67898">
        <ele>997.2</ele>
        <time>2026-05-10T11:23:30Z</time>
      </trkpt>
      <trkpt lat="46.12824" lon="5.67901">
        <ele>996.8</ele>
        <time>2026-05-10T11:23:31Z</time>
      </trkpt>
      <trkpt lat="46.12828" lon="5.67904">
        <ele>996.8</ele>
        <time>2026-05-10T11:23:32Z</time>
      </trkpt>
      <trkpt lat="46.12831" lon="5.67907">
        <ele>997</ele>
        <time>2026-05-10T11:23:33Z</time>
      </trkpt>
      <trkpt lat="46.12834" lon="5.67909">
        <ele>997</ele>
        <time>2026-05-10T11:23:34Z</time>
      </trkpt>
      <trkpt lat="46.12838" lon="5.67911">
        <ele>997.4</ele>
        <time>2026-05-10T11:23:35Z</time>
      </trkpt>
      <trkpt lat="46.12842" lon="5.67912">
        <ele>997.4</ele>
        <time>2026-05-10T11:23:36Z</time>
      </trkpt>
      <trkpt lat="46.12846" lon="5.67914">
        <ele>997.8</ele>
        <time>2026-05-10T11:23:37Z</time>
      </trkpt>
      <trkpt lat="46.12849" lon="5.67915">
        <ele>997.8</ele>
        <time>2026-05-10T11:23:38Z</time>
      </trkpt>
      <trkpt lat="46.12851" lon="5.67917">
        <ele>998</ele>
        <time>2026-05-10T11:23:39Z</time>
      </trkpt>
      <trkpt lat="46.12853" lon="5.67919">
        <ele>998</ele>
        <time>2026-05-10T11:23:40Z</time>
      </trkpt>
      <trkpt lat="46.12856" lon="5.6792">
        <ele>997.6</ele>
        <time>2026-05-10T11:23:41Z</time>
      </trkpt>
      <trkpt lat="46.1286" lon="5.67922">
        <ele>998</ele>
        <time>2026-05-10T11:23:42Z</time>
      </trkpt>
      <trkpt lat="46.12863" lon="5.67924">
        <ele>998.2</ele>
        <time>2026-05-10T11:23:43Z</time>
      </trkpt>
      <trkpt lat="46.12866" lon="5.67926">
        <ele>998</ele>
        <time>2026-05-10T11:23:44Z</time>
      </trkpt>
      <trkpt lat="46.1287" lon="5.67928">
        <ele>998.4</ele>
        <time>2026-05-10T11:23:45Z</time>
      </trkpt>
      <trkpt lat="46.12872" lon="5.67929">
        <ele>998.8</ele>
        <time>2026-05-10T11:23:46Z</time>
      </trkpt>
      <trkpt lat="46.12873" lon="5.67929">
        <ele>998.4</ele>
        <time>2026-05-10T11:23:47Z</time>
      </trkpt>
      <trkpt lat="46.12875" lon="5.6793">
        <ele>998.4</ele>
        <time>2026-05-10T11:23:48Z</time>
      </trkpt>
      <trkpt lat="46.12877" lon="5.67932">
        <ele>998.4</ele>
        <time>2026-05-10T11:23:49Z</time>
      </trkpt>
      <trkpt lat="46.1288" lon="5.67934">
        <ele>998.4</ele>
        <time>2026-05-10T11:23:50Z</time>
      </trkpt>
      <trkpt lat="46.12882" lon="5.67936">
        <ele>998.4</ele>
        <time>2026-05-10T11:23:51Z</time>
      </trkpt>
      <trkpt lat="46.12885" lon="5.67938">
        <ele>998.8</ele>
        <time>2026-05-10T11:23:52Z</time>
      </trkpt>
      <trkpt lat="46.12888" lon="5.6794">
        <ele>998.8</ele>
        <time>2026-05-10T11:23:53Z</time>
      </trkpt>
      <trkpt lat="46.12892" lon="5.67942">
        <ele>998.4</ele>
        <time>2026-05-10T11:23:54Z</time>
      </trkpt>
      <trkpt lat="46.12901" lon="5.67945">
        <ele>998.8</ele>
        <time>2026-05-10T11:23:55Z</time>
      </trkpt>
      <trkpt lat="46.12907" lon="5.67946">
        <ele>999</ele>
        <time>2026-05-10T11:23:56Z</time>
      </trkpt>
      <trkpt lat="46.12913" lon="5.67947">
        <ele>999</ele>
        <time>2026-05-10T11:23:57Z</time>
      </trkpt>
      <trkpt lat="46.12915" lon="5.67949">
        <ele>998.6</ele>
        <time>2026-05-10T11:23:58Z</time>
      </trkpt>
      <trkpt lat="46.12918" lon="5.67951">
        <ele>999</ele>
        <time>2026-05-10T11:23:59Z</time>
      </trkpt>
      <trkpt lat="46.12924" lon="5.67953">
        <ele>999</ele>
        <time>2026-05-10T11:24:00Z</time>
      </trkpt>
      <trkpt lat="46.12927" lon="5.67956">
        <ele>999.2</ele>
        <time>2026-05-10T11:24:01Z</time>
      </trkpt>
      <trkpt lat="46.12928" lon="5.67958">
        <ele>999.6</ele>
        <time>2026-05-10T11:24:02Z</time>
      </trkpt>
      <trkpt lat="46.12926" lon="5.6796">
        <ele>999.8</ele>
        <time>2026-05-10T11:24:03Z</time>
      </trkpt>
      <trkpt lat="46.12929" lon="5.67963">
        <ele>999.8</ele>
        <time>2026-05-10T11:24:04Z</time>
      </trkpt>
      <trkpt lat="46.12931" lon="5.67962">
        <ele>999.8</ele>
        <time>2026-05-10T11:24:05Z</time>
      </trkpt>
      <trkpt lat="46.12933" lon="5.67963">
        <ele>999.8</ele>
        <time>2026-05-10T11:24:06Z</time>
      </trkpt>
      <trkpt lat="46.12936" lon="5.67964">
        <ele>999.8</ele>
        <time>2026-05-10T11:24:07Z</time>
      </trkpt>
      <trkpt lat="46.12939" lon="5.67966">
        <ele>1000.2</ele>
        <time>2026-05-10T11:24:08Z</time>
      </trkpt>
      <trkpt lat="46.12939" lon="5.67967">
        <ele>1000.4</ele>
        <time>2026-05-10T11:24:09Z</time>
      </trkpt>
      <trkpt lat="46.1294" lon="5.67966">
        <ele>1000.4</ele>
        <time>2026-05-10T11:24:10Z</time>
      </trkpt>
      <trkpt lat="46.12941" lon="5.67968">
        <ele>1000.4</ele>
        <time>2026-05-10T11:24:11Z</time>
      </trkpt>
      <trkpt lat="46.12951" lon="5.67973">
        <ele>1000.2</ele>
        <time>2026-05-10T11:24:12Z</time>
      </trkpt>
      <trkpt lat="46.12957" lon="5.67974">
        <ele>1000.4</ele>
        <time>2026-05-10T11:24:13Z</time>
      </trkpt>
      <trkpt lat="46.12962" lon="5.67974">
        <ele>1000.4</ele>
        <time>2026-05-10T11:24:14Z</time>
      </trkpt>
      <trkpt lat="46.12966" lon="5.67975">
        <ele>1001</ele>
        <time>2026-05-10T11:24:15Z</time>
      </trkpt>
      <trkpt lat="46.1297" lon="5.67975">
        <ele>1001.2</ele>
        <time>2026-05-10T11:24:16Z</time>
      </trkpt>
      <trkpt lat="46.12973" lon="5.67976">
        <ele>1001.2</ele>
        <time>2026-05-10T11:24:17Z</time>
      </trkpt>
      <trkpt lat="46.12976" lon="5.67977">
        <ele>1001.4</ele>
        <time>2026-05-10T11:24:18Z</time>
      </trkpt>
      <trkpt lat="46.12979" lon="5.67978">
        <ele>1001.8</ele>
        <time>2026-05-10T11:24:19Z</time>
      </trkpt>
      <trkpt lat="46.12982" lon="5.67979">
        <ele>1001.6</ele>
        <time>2026-05-10T11:24:20Z</time>
      </trkpt>
      <trkpt lat="46.12986" lon="5.6798">
        <ele>1001.6</ele>
        <time>2026-05-10T11:24:21Z</time>
      </trkpt>
      <trkpt lat="46.12989" lon="5.67981">
        <ele>1001.6</ele>
        <time>2026-05-10T11:24:22Z</time>
      </trkpt>
      <trkpt lat="46.12993" lon="5.67982">
        <ele>1001.4</ele>
        <time>2026-05-10T11:24:23Z</time>
      </trkpt>
      <trkpt lat="46.12996" lon="5.67983">
        <ele>1001.6</ele>
        <time>2026-05-10T11:24:24Z</time>
      </trkpt>
      <trkpt lat="46.12999" lon="5.67985">
        <ele>1001.6</ele>
        <time>2026-05-10T11:24:25Z</time>
      </trkpt>
      <trkpt lat="46.13003" lon="5.67986">
        <ele>1001.8</ele>
        <time>2026-05-10T11:24:26Z</time>
      </trkpt>
      <trkpt lat="46.13006" lon="5.67987">
        <ele>1002</ele>
        <time>2026-05-10T11:24:27Z</time>
      </trkpt>
      <trkpt lat="46.13009" lon="5.67988">
        <ele>1002</ele>
        <time>2026-05-10T11:24:28Z</time>
      </trkpt>
      <trkpt lat="46.13012" lon="5.67989">
        <ele>1002.2</ele>
        <time>2026-05-10T11:24:29Z</time>
      </trkpt>
      <trkpt lat="46.13016" lon="5.67989">
        <ele>1002.2</ele>
        <time>2026-05-10T11:24:30Z</time>
      </trkpt>
      <trkpt lat="46.13019" lon="5.67991">
        <ele>1002.2</ele>
        <time>2026-05-10T11:24:31Z</time>
      </trkpt>
      <trkpt lat="46.13022" lon="5.67993">
        <ele>1002.2</ele>
        <time>2026-05-10T11:24:32Z</time>
      </trkpt>
      <trkpt lat="46.13025" lon="5.67995">
        <ele>1002</ele>
        <time>2026-05-10T11:24:33Z</time>
      </trkpt>
      <trkpt lat="46.13027" lon="5.67997">
        <ele>1002</ele>
        <time>2026-05-10T11:24:34Z</time>
      </trkpt>
      <trkpt lat="46.13031" lon="5.67999">
        <ele>1002</ele>
        <time>2026-05-10T11:24:35Z</time>
      </trkpt>
      <trkpt lat="46.13033" lon="5.68">
        <ele>1001.6</ele>
        <time>2026-05-10T11:24:36Z</time>
      </trkpt>
      <trkpt lat="46.13035" lon="5.68001">
        <ele>1001.6</ele>
        <time>2026-05-10T11:24:37Z</time>
      </trkpt>
      <trkpt lat="46.13036" lon="5.68002">
        <ele>1002.4</ele>
        <time>2026-05-10T11:24:38Z</time>
      </trkpt>
      <trkpt lat="46.13037" lon="5.68003">
        <ele>1002.4</ele>
        <time>2026-05-10T11:24:39Z</time>
      </trkpt>
      <trkpt lat="46.13037" lon="5.68004">
        <ele>1002.8</ele>
        <time>2026-05-10T11:24:40Z</time>
      </trkpt>
      <trkpt lat="46.13039" lon="5.68005">
        <ele>1002.8</ele>
        <time>2026-05-10T11:24:41Z</time>
      </trkpt>
      <trkpt lat="46.13041" lon="5.68006">
        <ele>1003</ele>
        <time>2026-05-10T11:24:42Z</time>
      </trkpt>
      <trkpt lat="46.13044" lon="5.68008">
        <ele>1003.2</ele>
        <time>2026-05-10T11:24:43Z</time>
      </trkpt>
      <trkpt lat="46.13046" lon="5.68009">
        <ele>1003.2</ele>
        <time>2026-05-10T11:24:44Z</time>
      </trkpt>
      <trkpt lat="46.13048" lon="5.6801">
        <ele>1003.6</ele>
        <time>2026-05-10T11:24:45Z</time>
      </trkpt>
      <trkpt lat="46.1305" lon="5.6801">
        <ele>1003.6</ele>
        <time>2026-05-10T11:24:46Z</time>
      </trkpt>
      <trkpt lat="46.13054" lon="5.68008">
        <ele>1003.8</ele>
        <time>2026-05-10T11:24:47Z</time>
      </trkpt>
      <trkpt lat="46.13055" lon="5.68008">
        <ele>1003.8</ele>
        <time>2026-05-10T11:24:48Z</time>
      </trkpt>
      <trkpt lat="46.13057" lon="5.68009">
        <ele>1003.8</ele>
        <time>2026-05-10T11:24:49Z</time>
      </trkpt>
      <trkpt lat="46.13059" lon="5.6801">
        <ele>1003.8</ele>
        <time>2026-05-10T11:24:50Z</time>
      </trkpt>
      <trkpt lat="46.13062" lon="5.68013">
        <ele>1003.8</ele>
        <time>2026-05-10T11:24:51Z</time>
      </trkpt>
      <trkpt lat="46.13063" lon="5.68014">
        <ele>1003.8</ele>
        <time>2026-05-10T11:24:52Z</time>
      </trkpt>
      <trkpt lat="46.13065" lon="5.68015">
        <ele>1004</ele>
        <time>2026-05-10T11:24:53Z</time>
      </trkpt>
      <trkpt lat="46.13066" lon="5.68017">
        <ele>1004</ele>
        <time>2026-05-10T11:24:54Z</time>
      </trkpt>
      <trkpt lat="46.13069" lon="5.68018">
        <ele>1004</ele>
        <time>2026-05-10T11:24:55Z</time>
      </trkpt>
      <trkpt lat="46.13071" lon="5.6802">
        <ele>1004.4</ele>
        <time>2026-05-10T11:24:56Z</time>
      </trkpt>
      <trkpt lat="46.13072" lon="5.68021">
        <ele>1004.4</ele>
        <time>2026-05-10T11:24:57Z</time>
      </trkpt>
      <trkpt lat="46.13073" lon="5.68023">
        <ele>1004.4</ele>
        <time>2026-05-10T11:24:58Z</time>
      </trkpt>
      <trkpt lat="46.13073" lon="5.68025">
        <ele>1004.4</ele>
        <time>2026-05-10T11:24:59Z</time>
      </trkpt>
      <trkpt lat="46.13073" lon="5.68028">
        <ele>1004</ele>
        <time>2026-05-10T11:25:00Z</time>
      </trkpt>
      <trkpt lat="46.13075" lon="5.6803">
        <ele>1004</ele>
        <time>2026-05-10T11:25:01Z</time>
      </trkpt>
      <trkpt lat="46.13079" lon="5.68032">
        <ele>1004</ele>
        <time>2026-05-10T11:25:02Z</time>
      </trkpt>
      <trkpt lat="46.13084" lon="5.68032">
        <ele>1004</ele>
        <time>2026-05-10T11:25:03Z</time>
      </trkpt>
      <trkpt lat="46.13089" lon="5.68033">
        <ele>1003.8</ele>
        <time>2026-05-10T11:25:04Z</time>
      </trkpt>
      <trkpt lat="46.13094" lon="5.68033">
        <ele>1003.8</ele>
        <time>2026-05-10T11:25:05Z</time>
      </trkpt>
      <trkpt lat="46.13098" lon="5.68033">
        <ele>1004</ele>
        <time>2026-05-10T11:25:06Z</time>
      </trkpt>
      <trkpt lat="46.13102" lon="5.68034">
        <ele>1004</ele>
        <time>2026-05-10T11:25:07Z</time>
      </trkpt>
      <trkpt lat="46.13105" lon="5.68034">
        <ele>1004</ele>
        <time>2026-05-10T11:25:08Z</time>
      </trkpt>
      <trkpt lat="46.13108" lon="5.68035">
        <ele>1004</ele>
        <time>2026-05-10T11:25:09Z</time>
      </trkpt>
      <trkpt lat="46.13112" lon="5.68035">
        <ele>1004.2</ele>
        <time>2026-05-10T11:25:10Z</time>
      </trkpt>
      <trkpt lat="46.13113" lon="5.68036">
        <ele>1004.2</ele>
        <time>2026-05-10T11:25:11Z</time>
      </trkpt>
      <trkpt lat="46.13114" lon="5.68037">
        <ele>1004.2</ele>
        <time>2026-05-10T11:25:12Z</time>
      </trkpt>
      <trkpt lat="46.13119" lon="5.68034">
        <ele>1003.6</ele>
        <time>2026-05-10T11:27:22Z</time>
      </trkpt>
      <trkpt lat="46.13117" lon="5.68035">
        <ele>1003.6</ele>
        <time>2026-05-10T11:27:23Z</time>
      </trkpt>
      <trkpt lat="46.13114" lon="5.68036">
        <ele>1003.6</ele>
        <time>2026-05-10T11:27:24Z</time>
      </trkpt>
      <trkpt lat="46.1311" lon="5.68038">
        <ele>1003.6</ele>
        <time>2026-05-10T11:27:25Z</time>
      </trkpt>
      <trkpt lat="46.13107" lon="5.68041">
        <ele>1003.6</ele>
        <time>2026-05-10T11:27:26Z</time>
      </trkpt>
      <trkpt lat="46.13102" lon="5.68043">
        <ele>1003.8</ele>
        <time>2026-05-10T11:27:27Z</time>
      </trkpt>
      <trkpt lat="46.13099" lon="5.68045">
        <ele>1003.8</ele>
        <time>2026-05-10T11:27:28Z</time>
      </trkpt>
      <trkpt lat="46.13098" lon="5.68045">
        <ele>1003.8</ele>
        <time>2026-05-10T11:27:29Z</time>
      </trkpt>
      <trkpt lat="46.13097" lon="5.68046">
        <ele>1003.8</ele>
        <time>2026-05-10T11:27:30Z</time>
      </trkpt>
      <trkpt lat="46.13096" lon="5.68046">
        <ele>1003.8</ele>
        <time>2026-05-10T11:27:31Z</time>
      </trkpt>
      <trkpt lat="46.13096" lon="5.68046">
        <ele>1003.8</ele>
        <time>2026-05-10T11:27:32Z</time>
      </trkpt>
      <trkpt lat="46.13116" lon="5.68037">
        <ele>1004.4</ele>
        <time>2026-05-10T11:29:27Z</time>
      </trkpt>
      <trkpt lat="46.13117" lon="5.68037">
        <ele>1004.2</ele>
        <time>2026-05-10T11:29:28Z</time>
      </trkpt>
      <trkpt lat="46.13117" lon="5.68037">
        <ele>1004.2</ele>
        <time>2026-05-10T11:29:29Z</time>
      </trkpt>
      <trkpt lat="46.1312" lon="5.68045">
        <ele>1004.2</ele>
        <time>2026-05-10T11:29:30Z</time>
      </trkpt>
      <trkpt lat="46.13121" lon="5.68047">
        <ele>1004</ele>
        <time>2026-05-10T11:29:31Z</time>
      </trkpt>
      <trkpt lat="46.13122" lon="5.68049">
        <ele>1004</ele>
        <time>2026-05-10T11:29:32Z</time>
      </trkpt>
      <trkpt lat="46.13123" lon="5.68051">
        <ele>1004</ele>
        <time>2026-05-10T11:29:33Z</time>
      </trkpt>
      <trkpt lat="46.13124" lon="5.68054">
        <ele>1003.8</ele>
        <time>2026-05-10T11:29:34Z</time>
      </trkpt>
      <trkpt lat="46.13125" lon="5.68056">
        <ele>1003.8</ele>
        <time>2026-05-10T11:29:35Z</time>
      </trkpt>
      <trkpt lat="46.13127" lon="5.68058">
        <ele>1003.4</ele>
        <time>2026-05-10T11:29:36Z</time>
      </trkpt>
      <trkpt lat="46.13129" lon="5.6806">
        <ele>1003.4</ele>
        <time>2026-05-10T11:29:37Z</time>
      </trkpt>
      <trkpt lat="46.13129" lon="5.6806">
        <ele>1003.2</ele>
        <time>2026-05-10T11:29:38Z</time>
      </trkpt>
      <trkpt lat="46.13131" lon="5.68064">
        <ele>1003.2</ele>
        <time>2026-05-10T11:29:39Z</time>
      </trkpt>
      <trkpt lat="46.13133" lon="5.68067">
        <ele>1002.8</ele>
        <time>2026-05-10T11:29:40Z</time>
      </trkpt>
      <trkpt lat="46.13135" lon="5.6807">
        <ele>1002.8</ele>
        <time>2026-05-10T11:29:41Z</time>
      </trkpt>
      <trkpt lat="46.13138" lon="5.68074">
        <ele>1003.2</ele>
        <time>2026-05-10T11:29:42Z</time>
      </trkpt>
      <trkpt lat="46.1314" lon="5.68077">
        <ele>1003.2</ele>
        <time>2026-05-10T11:29:43Z</time>
      </trkpt>
      <trkpt lat="46.13142" lon="5.68081">
        <ele>1003</ele>
        <time>2026-05-10T11:29:44Z</time>
      </trkpt>
      <trkpt lat="46.13145" lon="5.68085">
        <ele>1002.6</ele>
        <time>2026-05-10T11:29:45Z</time>
      </trkpt>
      <trkpt lat="46.13148" lon="5.68088">
        <ele>1002.6</ele>
        <time>2026-05-10T11:29:46Z</time>
      </trkpt>
      <trkpt lat="46.13151" lon="5.68092">
        <ele>1002.2</ele>
        <time>2026-05-10T11:29:47Z</time>
      </trkpt>
      <trkpt lat="46.13154" lon="5.68095">
        <ele>1002.2</ele>
        <time>2026-05-10T11:29:48Z</time>
      </trkpt>
      <trkpt lat="46.13157" lon="5.68099">
        <ele>1002.2</ele>
        <time>2026-05-10T11:29:49Z</time>
      </trkpt>
      <trkpt lat="46.13161" lon="5.68103">
        <ele>1002.2</ele>
        <time>2026-05-10T11:29:50Z</time>
      </trkpt>
      <trkpt lat="46.13164" lon="5.68106">
        <ele>1002.2</ele>
        <time>2026-05-10T11:29:51Z</time>
      </trkpt>
      <trkpt lat="46.13167" lon="5.6811">
        <ele>1001.8</ele>
        <time>2026-05-10T11:29:52Z</time>
      </trkpt>
      <trkpt lat="46.1317" lon="5.68113">
        <ele>1001.4</ele>
        <time>2026-05-10T11:29:53Z</time>
      </trkpt>
      <trkpt lat="46.13173" lon="5.68116">
        <ele>1001.4</ele>
        <time>2026-05-10T11:29:54Z</time>
      </trkpt>
      <trkpt lat="46.13177" lon="5.68118">
        <ele>1001</ele>
        <time>2026-05-10T11:29:55Z</time>
      </trkpt>
      <trkpt lat="46.13181" lon="5.68121">
        <ele>1000.6</ele>
        <time>2026-05-10T11:29:56Z</time>
      </trkpt>
      <trkpt lat="46.13185" lon="5.68123">
        <ele>1000</ele>
        <time>2026-05-10T11:29:57Z</time>
      </trkpt>
      <trkpt lat="46.13187" lon="5.68127">
        <ele>1000</ele>
        <time>2026-05-10T11:29:58Z</time>
      </trkpt>
      <trkpt lat="46.1319" lon="5.6813">
        <ele>1000.4</ele>
        <time>2026-05-10T11:29:59Z</time>
      </trkpt>
      <trkpt lat="46.13194" lon="5.68133">
        <ele>1000.4</ele>
        <time>2026-05-10T11:30:00Z</time>
      </trkpt>
      <trkpt lat="46.13197" lon="5.68137">
        <ele>999.4</ele>
        <time>2026-05-10T11:30:01Z</time>
      </trkpt>
      <trkpt lat="46.132" lon="5.68139">
        <ele>999.4</ele>
        <time>2026-05-10T11:30:02Z</time>
      </trkpt>
      <trkpt lat="46.13203" lon="5.68142">
        <ele>999.4</ele>
        <time>2026-05-10T11:30:03Z</time>
      </trkpt>
      <trkpt lat="46.13207" lon="5.68144">
        <ele>999.8</ele>
        <time>2026-05-10T11:30:04Z</time>
      </trkpt>
      <trkpt lat="46.13211" lon="5.68147">
        <ele>999.8</ele>
        <time>2026-05-10T11:30:05Z</time>
      </trkpt>
      <trkpt lat="46.13215" lon="5.68148">
        <ele>999</ele>
        <time>2026-05-10T11:30:06Z</time>
      </trkpt>
      <trkpt lat="46.13219" lon="5.68151">
        <ele>999.2</ele>
        <time>2026-05-10T11:30:07Z</time>
      </trkpt>
      <trkpt lat="46.13223" lon="5.68154">
        <ele>999.2</ele>
        <time>2026-05-10T11:30:08Z</time>
      </trkpt>
      <trkpt lat="46.13228" lon="5.68156">
        <ele>999.4</ele>
        <time>2026-05-10T11:30:09Z</time>
      </trkpt>
      <trkpt lat="46.13235" lon="5.68158">
        <ele>999</ele>
        <time>2026-05-10T11:30:10Z</time>
      </trkpt>
      <trkpt lat="46.13239" lon="5.6816">
        <ele>999.4</ele>
        <time>2026-05-10T11:30:11Z</time>
      </trkpt>
      <trkpt lat="46.13244" lon="5.68164">
        <ele>998.8</ele>
        <time>2026-05-10T11:30:12Z</time>
      </trkpt>
      <trkpt lat="46.13249" lon="5.68167">
        <ele>997.8</ele>
        <time>2026-05-10T11:30:13Z</time>
      </trkpt>
      <trkpt lat="46.13253" lon="5.6817">
        <ele>999</ele>
        <time>2026-05-10T11:30:14Z</time>
      </trkpt>
      <trkpt lat="46.13256" lon="5.68177">
        <ele>998.4</ele>
        <time>2026-05-10T11:30:15Z</time>
      </trkpt>
      <trkpt lat="46.13259" lon="5.68182">
        <ele>998.2</ele>
        <time>2026-05-10T11:30:16Z</time>
      </trkpt>
      <trkpt lat="46.13263" lon="5.68188">
        <ele>997.8</ele>
        <time>2026-05-10T11:30:17Z</time>
      </trkpt>
      <trkpt lat="46.13266" lon="5.68194">
        <ele>997.8</ele>
        <time>2026-05-10T11:30:18Z</time>
      </trkpt>
      <trkpt lat="46.13268" lon="5.682">
        <ele>998.2</ele>
        <time>2026-05-10T11:30:19Z</time>
      </trkpt>
      <trkpt lat="46.13268" lon="5.68208">
        <ele>998.2</ele>
        <time>2026-05-10T11:30:20Z</time>
      </trkpt>
      <trkpt lat="46.13268" lon="5.68216">
        <ele>998.2</ele>
        <time>2026-05-10T11:30:21Z</time>
      </trkpt>
      <trkpt lat="46.1327" lon="5.68223">
        <ele>998</ele>
        <time>2026-05-10T11:30:22Z</time>
      </trkpt>
      <trkpt lat="46.13271" lon="5.6823">
        <ele>997.6</ele>
        <time>2026-05-10T11:30:23Z</time>
      </trkpt>
      <trkpt lat="46.13273" lon="5.68238">
        <ele>996.4</ele>
        <time>2026-05-10T11:30:24Z</time>
      </trkpt>
      <trkpt lat="46.13274" lon="5.68245">
        <ele>996.4</ele>
        <time>2026-05-10T11:30:25Z</time>
      </trkpt>
      <trkpt lat="46.13276" lon="5.68252">
        <ele>996.4</ele>
        <time>2026-05-10T11:30:26Z</time>
      </trkpt>
      <trkpt lat="46.13274" lon="5.68261">
        <ele>996</ele>
        <time>2026-05-10T11:30:27Z</time>
      </trkpt>
      <trkpt lat="46.13276" lon="5.68268">
        <ele>994.4</ele>
        <time>2026-05-10T11:30:28Z</time>
      </trkpt>
      <trkpt lat="46.13277" lon="5.68276">
        <ele>994.8</ele>
        <time>2026-05-10T11:30:29Z</time>
      </trkpt>
      <trkpt lat="46.13279" lon="5.68283">
        <ele>995.2</ele>
        <time>2026-05-10T11:30:30Z</time>
      </trkpt>
      <trkpt lat="46.13281" lon="5.68289">
        <ele>995.4</ele>
        <time>2026-05-10T11:30:31Z</time>
      </trkpt>
      <trkpt lat="46.13282" lon="5.68296">
        <ele>995.4</ele>
        <time>2026-05-10T11:30:32Z</time>
      </trkpt>
      <trkpt lat="46.13283" lon="5.68301">
        <ele>995.4</ele>
        <time>2026-05-10T11:30:33Z</time>
      </trkpt>
      <trkpt lat="46.13284" lon="5.68308">
        <ele>995.4</ele>
        <time>2026-05-10T11:30:34Z</time>
      </trkpt>
      <trkpt lat="46.13286" lon="5.68313">
        <ele>996.2</ele>
        <time>2026-05-10T11:30:35Z</time>
      </trkpt>
      <trkpt lat="46.13287" lon="5.6832">
        <ele>996.4</ele>
        <time>2026-05-10T11:30:36Z</time>
      </trkpt>
      <trkpt lat="46.13288" lon="5.68326">
        <ele>996.4</ele>
        <time>2026-05-10T11:30:37Z</time>
      </trkpt>
      <trkpt lat="46.13288" lon="5.68331">
        <ele>996.4</ele>
        <time>2026-05-10T11:30:38Z</time>
      </trkpt>
      <trkpt lat="46.13289" lon="5.68336">
        <ele>996.4</ele>
        <time>2026-05-10T11:30:39Z</time>
      </trkpt>
      <trkpt lat="46.1329" lon="5.68343">
        <ele>996.2</ele>
        <time>2026-05-10T11:30:40Z</time>
      </trkpt>
      <trkpt lat="46.13291" lon="5.6835">
        <ele>995.8</ele>
        <time>2026-05-10T11:30:41Z</time>
      </trkpt>
      <trkpt lat="46.13293" lon="5.68357">
        <ele>995.8</ele>
        <time>2026-05-10T11:30:42Z</time>
      </trkpt>
      <trkpt lat="46.13292" lon="5.68364">
        <ele>995.8</ele>
        <time>2026-05-10T11:30:43Z</time>
      </trkpt>
      <trkpt lat="46.13294" lon="5.68369">
        <ele>995.8</ele>
        <time>2026-05-10T11:30:44Z</time>
      </trkpt>
      <trkpt lat="46.13296" lon="5.68375">
        <ele>995.8</ele>
        <time>2026-05-10T11:30:45Z</time>
      </trkpt>
      <trkpt lat="46.13298" lon="5.6838">
        <ele>995.8</ele>
        <time>2026-05-10T11:30:46Z</time>
      </trkpt>
      <trkpt lat="46.133" lon="5.68386">
        <ele>995.8</ele>
        <time>2026-05-10T11:30:47Z</time>
      </trkpt>
      <trkpt lat="46.13302" lon="5.68392">
        <ele>995.8</ele>
        <time>2026-05-10T11:30:48Z</time>
      </trkpt>
      <trkpt lat="46.13304" lon="5.68397">
        <ele>995.8</ele>
        <time>2026-05-10T11:30:49Z</time>
      </trkpt>
      <trkpt lat="46.13307" lon="5.68402">
        <ele>995.8</ele>
        <time>2026-05-10T11:30:50Z</time>
      </trkpt>
      <trkpt lat="46.13309" lon="5.68406">
        <ele>995.8</ele>
        <time>2026-05-10T11:30:51Z</time>
      </trkpt>
      <trkpt lat="46.1331" lon="5.68411">
        <ele>996.2</ele>
        <time>2026-05-10T11:30:52Z</time>
      </trkpt>
      <trkpt lat="46.13314" lon="5.68417">
        <ele>996.2</ele>
        <time>2026-05-10T11:30:53Z</time>
      </trkpt>
      <trkpt lat="46.13315" lon="5.68422">
        <ele>996.6</ele>
        <time>2026-05-10T11:30:54Z</time>
      </trkpt>
      <trkpt lat="46.13315" lon="5.68429">
        <ele>996</ele>
        <time>2026-05-10T11:30:55Z</time>
      </trkpt>
      <trkpt lat="46.13316" lon="5.68435">
        <ele>996</ele>
        <time>2026-05-10T11:30:56Z</time>
      </trkpt>
      <trkpt lat="46.13319" lon="5.68441">
        <ele>996</ele>
        <time>2026-05-10T11:30:57Z</time>
      </trkpt>
      <trkpt lat="46.13324" lon="5.68446">
        <ele>996.4</ele>
        <time>2026-05-10T11:30:58Z</time>
      </trkpt>
      <trkpt lat="46.13326" lon="5.68452">
        <ele>996.4</ele>
        <time>2026-05-10T11:30:59Z</time>
      </trkpt>
      <trkpt lat="46.13327" lon="5.68457">
        <ele>996.4</ele>
        <time>2026-05-10T11:31:00Z</time>
      </trkpt>
      <trkpt lat="46.13329" lon="5.68462">
        <ele>996.4</ele>
        <time>2026-05-10T11:31:01Z</time>
      </trkpt>
      <trkpt lat="46.13331" lon="5.68467">
        <ele>996.4</ele>
        <time>2026-05-10T11:31:02Z</time>
      </trkpt>
      <trkpt lat="46.13332" lon="5.68472">
        <ele>996</ele>
        <time>2026-05-10T11:31:03Z</time>
      </trkpt>
      <trkpt lat="46.13333" lon="5.68478">
        <ele>996</ele>
        <time>2026-05-10T11:31:04Z</time>
      </trkpt>
      <trkpt lat="46.13336" lon="5.68482">
        <ele>996.4</ele>
        <time>2026-05-10T11:31:05Z</time>
      </trkpt>
      <trkpt lat="46.13337" lon="5.68486">
        <ele>996.6</ele>
        <time>2026-05-10T11:31:06Z</time>
      </trkpt>
      <trkpt lat="46.13339" lon="5.68489">
        <ele>996.6</ele>
        <time>2026-05-10T11:31:07Z</time>
      </trkpt>
      <trkpt lat="46.13339" lon="5.68496">
        <ele>996.6</ele>
        <time>2026-05-10T11:31:08Z</time>
      </trkpt>
      <trkpt lat="46.1334" lon="5.68499">
        <ele>996.2</ele>
        <time>2026-05-10T11:31:09Z</time>
      </trkpt>
      <trkpt lat="46.1334" lon="5.68505">
        <ele>996.2</ele>
        <time>2026-05-10T11:31:10Z</time>
      </trkpt>
      <trkpt lat="46.13341" lon="5.68511">
        <ele>996.2</ele>
        <time>2026-05-10T11:31:11Z</time>
      </trkpt>
      <trkpt lat="46.13344" lon="5.68515">
        <ele>996.4</ele>
        <time>2026-05-10T11:31:12Z</time>
      </trkpt>
      <trkpt lat="46.13346" lon="5.6852">
        <ele>996.2</ele>
        <time>2026-05-10T11:31:13Z</time>
      </trkpt>
      <trkpt lat="46.13347" lon="5.68524">
        <ele>996.8</ele>
        <time>2026-05-10T11:31:14Z</time>
      </trkpt>
      <trkpt lat="46.13346" lon="5.68529">
        <ele>996.8</ele>
        <time>2026-05-10T11:31:15Z</time>
      </trkpt>
      <trkpt lat="46.13349" lon="5.68534">
        <ele>996.8</ele>
        <time>2026-05-10T11:31:16Z</time>
      </trkpt>
      <trkpt lat="46.1335" lon="5.68538">
        <ele>996.8</ele>
        <time>2026-05-10T11:31:17Z</time>
      </trkpt>
      <trkpt lat="46.1335" lon="5.68542">
        <ele>996.8</ele>
        <time>2026-05-10T11:31:18Z</time>
      </trkpt>
      <trkpt lat="46.13347" lon="5.68547">
        <ele>997</ele>
        <time>2026-05-10T11:31:19Z</time>
      </trkpt>
      <trkpt lat="46.13345" lon="5.68553">
        <ele>997</ele>
        <time>2026-05-10T11:31:20Z</time>
      </trkpt>
      <trkpt lat="46.13346" lon="5.68558">
        <ele>997</ele>
        <time>2026-05-10T11:31:21Z</time>
      </trkpt>
      <trkpt lat="46.13347" lon="5.68562">
        <ele>997</ele>
        <time>2026-05-10T11:31:22Z</time>
      </trkpt>
      <trkpt lat="46.13348" lon="5.68566">
        <ele>997.4</ele>
        <time>2026-05-10T11:31:23Z</time>
      </trkpt>
      <trkpt lat="46.1335" lon="5.68571">
        <ele>997.4</ele>
        <time>2026-05-10T11:31:24Z</time>
      </trkpt>
      <trkpt lat="46.13352" lon="5.68576">
        <ele>997.6</ele>
        <time>2026-05-10T11:31:25Z</time>
      </trkpt>
      <trkpt lat="46.13354" lon="5.6858">
        <ele>997.6</ele>
        <time>2026-05-10T11:31:26Z</time>
      </trkpt>
      <trkpt lat="46.13356" lon="5.68584">
        <ele>997.6</ele>
        <time>2026-05-10T11:31:27Z</time>
      </trkpt>
      <trkpt lat="46.13358" lon="5.68589">
        <ele>998</ele>
        <time>2026-05-10T11:31:28Z</time>
      </trkpt>
      <trkpt lat="46.1336" lon="5.68592">
        <ele>998</ele>
        <time>2026-05-10T11:31:29Z</time>
      </trkpt>
      <trkpt lat="46.13363" lon="5.68596">
        <ele>998</ele>
        <time>2026-05-10T11:31:30Z</time>
      </trkpt>
      <trkpt lat="46.13367" lon="5.686">
        <ele>998</ele>
        <time>2026-05-10T11:31:31Z</time>
      </trkpt>
      <trkpt lat="46.13372" lon="5.68606">
        <ele>998</ele>
        <time>2026-05-10T11:31:32Z</time>
      </trkpt>
      <trkpt lat="46.13373" lon="5.6861">
        <ele>998</ele>
        <time>2026-05-10T11:31:33Z</time>
      </trkpt>
      <trkpt lat="46.13368" lon="5.68614">
        <ele>998</ele>
        <time>2026-05-10T11:31:34Z</time>
      </trkpt>
      <trkpt lat="46.13366" lon="5.68616">
        <ele>998.2</ele>
        <time>2026-05-10T11:31:35Z</time>
      </trkpt>
      <trkpt lat="46.13365" lon="5.68619">
        <ele>998.2</ele>
        <time>2026-05-10T11:31:36Z</time>
      </trkpt>
      <trkpt lat="46.13363" lon="5.68621">
        <ele>998.2</ele>
        <time>2026-05-10T11:31:37Z</time>
      </trkpt>
      <trkpt lat="46.13363" lon="5.68623">
        <ele>998.4</ele>
        <time>2026-05-10T11:31:38Z</time>
      </trkpt>
      <trkpt lat="46.13362" lon="5.68627">
        <ele>998.8</ele>
        <time>2026-05-10T11:31:39Z</time>
      </trkpt>
      <trkpt lat="46.1336" lon="5.68631">
        <ele>999</ele>
        <time>2026-05-10T11:31:40Z</time>
      </trkpt>
      <trkpt lat="46.13359" lon="5.68633">
        <ele>999.4</ele>
        <time>2026-05-10T11:31:41Z</time>
      </trkpt>
      <trkpt lat="46.13358" lon="5.68634">
        <ele>999.4</ele>
        <time>2026-05-10T11:31:42Z</time>
      </trkpt>
      <trkpt lat="46.13357" lon="5.68636">
        <ele>999.6</ele>
        <time>2026-05-10T11:31:43Z</time>
      </trkpt>
      <trkpt lat="46.13356" lon="5.6864">
        <ele>999.8</ele>
        <time>2026-05-10T11:31:44Z</time>
      </trkpt>
      <trkpt lat="46.13356" lon="5.68645">
        <ele>1000.2</ele>
        <time>2026-05-10T11:31:45Z</time>
      </trkpt>
      <trkpt lat="46.13356" lon="5.68649">
        <ele>1000.2</ele>
        <time>2026-05-10T11:31:46Z</time>
      </trkpt>
      <trkpt lat="46.13357" lon="5.68652">
        <ele>1000.6</ele>
        <time>2026-05-10T11:31:47Z</time>
      </trkpt>
      <trkpt lat="46.13357" lon="5.68656">
        <ele>1000.6</ele>
        <time>2026-05-10T11:31:48Z</time>
      </trkpt>
      <trkpt lat="46.13359" lon="5.6866">
        <ele>1000.6</ele>
        <time>2026-05-10T11:31:49Z</time>
      </trkpt>
      <trkpt lat="46.1336" lon="5.68663">
        <ele>1000.6</ele>
        <time>2026-05-10T11:31:50Z</time>
      </trkpt>
      <trkpt lat="46.13361" lon="5.68667">
        <ele>1000.6</ele>
        <time>2026-05-10T11:31:51Z</time>
      </trkpt>
      <trkpt lat="46.13363" lon="5.68671">
        <ele>1000.6</ele>
        <time>2026-05-10T11:31:52Z</time>
      </trkpt>
      <trkpt lat="46.13364" lon="5.68675">
        <ele>1000.6</ele>
        <time>2026-05-10T11:31:53Z</time>
      </trkpt>
      <trkpt lat="46.13366" lon="5.68678">
        <ele>1000.6</ele>
        <time>2026-05-10T11:31:54Z</time>
      </trkpt>
      <trkpt lat="46.13368" lon="5.68681">
        <ele>1000.6</ele>
        <time>2026-05-10T11:31:55Z</time>
      </trkpt>
      <trkpt lat="46.1337" lon="5.68684">
        <ele>1000.6</ele>
        <time>2026-05-10T11:31:56Z</time>
      </trkpt>
      <trkpt lat="46.13373" lon="5.68687">
        <ele>1000.6</ele>
        <time>2026-05-10T11:31:57Z</time>
      </trkpt>
      <trkpt lat="46.13377" lon="5.68691">
        <ele>1000.6</ele>
        <time>2026-05-10T11:31:58Z</time>
      </trkpt>
      <trkpt lat="46.1338" lon="5.68695">
        <ele>1000.6</ele>
        <time>2026-05-10T11:31:59Z</time>
      </trkpt>
      <trkpt lat="46.13382" lon="5.687">
        <ele>1000.6</ele>
        <time>2026-05-10T11:32:00Z</time>
      </trkpt>
      <trkpt lat="46.13385" lon="5.68704">
        <ele>1000.6</ele>
        <time>2026-05-10T11:32:01Z</time>
      </trkpt>
      <trkpt lat="46.13387" lon="5.68711">
        <ele>1000.6</ele>
        <time>2026-05-10T11:32:02Z</time>
      </trkpt>
      <trkpt lat="46.13387" lon="5.68717">
        <ele>1000.6</ele>
        <time>2026-05-10T11:32:03Z</time>
      </trkpt>
      <trkpt lat="46.13389" lon="5.68723">
        <ele>1000.6</ele>
        <time>2026-05-10T11:32:04Z</time>
      </trkpt>
      <trkpt lat="46.13388" lon="5.68729">
        <ele>1000.6</ele>
        <time>2026-05-10T11:32:05Z</time>
      </trkpt>
      <trkpt lat="46.13387" lon="5.68735">
        <ele>1000.6</ele>
        <time>2026-05-10T11:32:06Z</time>
      </trkpt>
      <trkpt lat="46.13387" lon="5.6874">
        <ele>1000.6</ele>
        <time>2026-05-10T11:32:07Z</time>
      </trkpt>
      <trkpt lat="46.13385" lon="5.68746">
        <ele>1000.6</ele>
        <time>2026-05-10T11:32:08Z</time>
      </trkpt>
      <trkpt lat="46.13383" lon="5.68749">
        <ele>1000.6</ele>
        <time>2026-05-10T11:32:09Z</time>
      </trkpt>
      <trkpt lat="46.1338" lon="5.68753">
        <ele>1000.6</ele>
        <time>2026-05-10T11:32:10Z</time>
      </trkpt>
      <trkpt lat="46.13378" lon="5.68756">
        <ele>1000.6</ele>
        <time>2026-05-10T11:32:11Z</time>
      </trkpt>
      <trkpt lat="46.13375" lon="5.6876">
        <ele>1000.8</ele>
        <time>2026-05-10T11:32:12Z</time>
      </trkpt>
      <trkpt lat="46.13372" lon="5.68759">
        <ele>1000.8</ele>
        <time>2026-05-10T11:32:13Z</time>
      </trkpt>
      <trkpt lat="46.13369" lon="5.68761">
        <ele>1001</ele>
        <time>2026-05-10T11:32:14Z</time>
      </trkpt>
      <trkpt lat="46.13366" lon="5.68762">
        <ele>1001.4</ele>
        <time>2026-05-10T11:32:15Z</time>
      </trkpt>
      <trkpt lat="46.13361" lon="5.6876">
        <ele>1001.4</ele>
        <time>2026-05-10T11:32:16Z</time>
      </trkpt>
      <trkpt lat="46.13358" lon="5.68759">
        <ele>1002</ele>
        <time>2026-05-10T11:32:17Z</time>
      </trkpt>
      <trkpt lat="46.13355" lon="5.68757">
        <ele>1002.4</ele>
        <time>2026-05-10T11:32:18Z</time>
      </trkpt>
      <trkpt lat="46.13353" lon="5.68754">
        <ele>1002.6</ele>
        <time>2026-05-10T11:32:19Z</time>
      </trkpt>
      <trkpt lat="46.1335" lon="5.68751">
        <ele>1002.8</ele>
        <time>2026-05-10T11:32:20Z</time>
      </trkpt>
      <trkpt lat="46.13347" lon="5.68749">
        <ele>1003</ele>
        <time>2026-05-10T11:32:21Z</time>
      </trkpt>
      <trkpt lat="46.13343" lon="5.68746">
        <ele>1003</ele>
        <time>2026-05-10T11:32:22Z</time>
      </trkpt>
      <trkpt lat="46.13341" lon="5.68744">
        <ele>1003.2</ele>
        <time>2026-05-10T11:32:23Z</time>
      </trkpt>
      <trkpt lat="46.13339" lon="5.68742">
        <ele>1003.2</ele>
        <time>2026-05-10T11:32:24Z</time>
      </trkpt>
      <trkpt lat="46.13337" lon="5.68739">
        <ele>1003.6</ele>
        <time>2026-05-10T11:32:25Z</time>
      </trkpt>
      <trkpt lat="46.13336" lon="5.68737">
        <ele>1003.6</ele>
        <time>2026-05-10T11:32:26Z</time>
      </trkpt>
      <trkpt lat="46.13334" lon="5.68735">
        <ele>1004.2</ele>
        <time>2026-05-10T11:32:27Z</time>
      </trkpt>
      <trkpt lat="46.13333" lon="5.68732">
        <ele>1004.4</ele>
        <time>2026-05-10T11:32:28Z</time>
      </trkpt>
      <trkpt lat="46.13334" lon="5.68728">
        <ele>1004.6</ele>
        <time>2026-05-10T11:32:29Z</time>
      </trkpt>
      <trkpt lat="46.13336" lon="5.68724">
        <ele>1005</ele>
        <time>2026-05-10T11:32:30Z</time>
      </trkpt>
      <trkpt lat="46.13337" lon="5.68721">
        <ele>1005</ele>
        <time>2026-05-10T11:32:31Z</time>
      </trkpt>
      <trkpt lat="46.13338" lon="5.68718">
        <ele>1005.2</ele>
        <time>2026-05-10T11:32:32Z</time>
      </trkpt>
      <trkpt lat="46.13338" lon="5.68716">
        <ele>1005.4</ele>
        <time>2026-05-10T11:32:33Z</time>
      </trkpt>
      <trkpt lat="46.13336" lon="5.68713">
        <ele>1005.4</ele>
        <time>2026-05-10T11:32:34Z</time>
      </trkpt>
      <trkpt lat="46.13334" lon="5.68709">
        <ele>1005.8</ele>
        <time>2026-05-10T11:32:35Z</time>
      </trkpt>
      <trkpt lat="46.13332" lon="5.68707">
        <ele>1006</ele>
        <time>2026-05-10T11:32:36Z</time>
      </trkpt>
      <trkpt lat="46.13331" lon="5.68703">
        <ele>1006</ele>
        <time>2026-05-10T11:32:37Z</time>
      </trkpt>
      <trkpt lat="46.1333" lon="5.687">
        <ele>1006</ele>
        <time>2026-05-10T11:32:38Z</time>
      </trkpt>
      <trkpt lat="46.13329" lon="5.68697">
        <ele>1006.4</ele>
        <time>2026-05-10T11:32:39Z</time>
      </trkpt>
      <trkpt lat="46.13328" lon="5.68693">
        <ele>1006.4</ele>
        <time>2026-05-10T11:32:40Z</time>
      </trkpt>
      <trkpt lat="46.13328" lon="5.6869">
        <ele>1006.6</ele>
        <time>2026-05-10T11:32:41Z</time>
      </trkpt>
      <trkpt lat="46.13328" lon="5.68687">
        <ele>1006.6</ele>
        <time>2026-05-10T11:32:42Z</time>
      </trkpt>
      <trkpt lat="46.13328" lon="5.68684">
        <ele>1007</ele>
        <time>2026-05-10T11:32:43Z</time>
      </trkpt>
      <trkpt lat="46.13328" lon="5.68681">
        <ele>1007</ele>
        <time>2026-05-10T11:32:44Z</time>
      </trkpt>
      <trkpt lat="46.13327" lon="5.68678">
        <ele>1007.2</ele>
        <time>2026-05-10T11:32:45Z</time>
      </trkpt>
      <trkpt lat="46.13325" lon="5.68676">
        <ele>1007.2</ele>
        <time>2026-05-10T11:32:46Z</time>
      </trkpt>
      <trkpt lat="46.13323" lon="5.68674">
        <ele>1007.4</ele>
        <time>2026-05-10T11:32:47Z</time>
      </trkpt>
      <trkpt lat="46.13323" lon="5.68672">
        <ele>1007.4</ele>
        <time>2026-05-10T11:32:48Z</time>
      </trkpt>
      <trkpt lat="46.13321" lon="5.68668">
        <ele>1007.8</ele>
        <time>2026-05-10T11:32:49Z</time>
      </trkpt>
      <trkpt lat="46.13319" lon="5.68666">
        <ele>1008</ele>
        <time>2026-05-10T11:32:50Z</time>
      </trkpt>
      <trkpt lat="46.13317" lon="5.68664">
        <ele>1008.2</ele>
        <time>2026-05-10T11:32:51Z</time>
      </trkpt>
      <trkpt lat="46.13315" lon="5.68662">
        <ele>1008.2</ele>
        <time>2026-05-10T11:32:52Z</time>
      </trkpt>
      <trkpt lat="46.13313" lon="5.68659">
        <ele>1008.2</ele>
        <time>2026-05-10T11:32:53Z</time>
      </trkpt>
      <trkpt lat="46.13313" lon="5.68659">
        <ele>1008.6</ele>
        <time>2026-05-10T11:32:54Z</time>
      </trkpt>
      <trkpt lat="46.13311" lon="5.68657">
        <ele>1008.6</ele>
        <time>2026-05-10T11:32:55Z</time>
      </trkpt>
      <trkpt lat="46.1331" lon="5.68655">
        <ele>1008.6</ele>
        <time>2026-05-10T11:32:56Z</time>
      </trkpt>
      <trkpt lat="46.13309" lon="5.68653">
        <ele>1008.8</ele>
        <time>2026-05-10T11:32:57Z</time>
      </trkpt>
      <trkpt lat="46.13308" lon="5.68651">
        <ele>1008.8</ele>
        <time>2026-05-10T11:32:58Z</time>
      </trkpt>
      <trkpt lat="46.13307" lon="5.68648">
        <ele>1009.2</ele>
        <time>2026-05-10T11:32:59Z</time>
      </trkpt>
      <trkpt lat="46.13306" lon="5.68646">
        <ele>1009.2</ele>
        <time>2026-05-10T11:33:00Z</time>
      </trkpt>
      <trkpt lat="46.13305" lon="5.68644">
        <ele>1009.4</ele>
        <time>2026-05-10T11:33:01Z</time>
      </trkpt>
      <trkpt lat="46.13304" lon="5.68641">
        <ele>1009.4</ele>
        <time>2026-05-10T11:33:02Z</time>
      </trkpt>
      <trkpt lat="46.13303" lon="5.68638">
        <ele>1009.4</ele>
        <time>2026-05-10T11:33:03Z</time>
      </trkpt>
      <trkpt lat="46.13301" lon="5.68636">
        <ele>1009.4</ele>
        <time>2026-05-10T11:33:04Z</time>
      </trkpt>
      <trkpt lat="46.13299" lon="5.68634">
        <ele>1009.6</ele>
        <time>2026-05-10T11:33:05Z</time>
      </trkpt>
      <trkpt lat="46.13296" lon="5.68633">
        <ele>1009.6</ele>
        <time>2026-05-10T11:33:06Z</time>
      </trkpt>
      <trkpt lat="46.13294" lon="5.68631">
        <ele>1009.6</ele>
        <time>2026-05-10T11:33:07Z</time>
      </trkpt>
      <trkpt lat="46.13291" lon="5.68629">
        <ele>1009.8</ele>
        <time>2026-05-10T11:33:08Z</time>
      </trkpt>
      <trkpt lat="46.1329" lon="5.68627">
        <ele>1009.8</ele>
        <time>2026-05-10T11:33:09Z</time>
      </trkpt>
      <trkpt lat="46.13288" lon="5.68625">
        <ele>1010.2</ele>
        <time>2026-05-10T11:33:10Z</time>
      </trkpt>
      <trkpt lat="46.13287" lon="5.68623">
        <ele>1010.4</ele>
        <time>2026-05-10T11:33:11Z</time>
      </trkpt>
      <trkpt lat="46.13285" lon="5.68621">
        <ele>1010.4</ele>
        <time>2026-05-10T11:33:12Z</time>
      </trkpt>
      <trkpt lat="46.13283" lon="5.68618">
        <ele>1010.8</ele>
        <time>2026-05-10T11:33:13Z</time>
      </trkpt>
      <trkpt lat="46.13282" lon="5.68617">
        <ele>1010.8</ele>
        <time>2026-05-10T11:33:14Z</time>
      </trkpt>
      <trkpt lat="46.1328" lon="5.68615">
        <ele>1011</ele>
        <time>2026-05-10T11:33:15Z</time>
      </trkpt>
      <trkpt lat="46.13278" lon="5.68613">
        <ele>1011</ele>
        <time>2026-05-10T11:33:16Z</time>
      </trkpt>
      <trkpt lat="46.13276" lon="5.6861">
        <ele>1011.2</ele>
        <time>2026-05-10T11:33:17Z</time>
      </trkpt>
      <trkpt lat="46.13275" lon="5.68609">
        <ele>1011.2</ele>
        <time>2026-05-10T11:33:18Z</time>
      </trkpt>
      <trkpt lat="46.13275" lon="5.68607">
        <ele>1011.4</ele>
        <time>2026-05-10T11:33:19Z</time>
      </trkpt>
      <trkpt lat="46.13275" lon="5.68605">
        <ele>1011.4</ele>
        <time>2026-05-10T11:33:20Z</time>
      </trkpt>
      <trkpt lat="46.13274" lon="5.68603">
        <ele>1011.8</ele>
        <time>2026-05-10T11:33:21Z</time>
      </trkpt>
      <trkpt lat="46.13272" lon="5.68602">
        <ele>1011.8</ele>
        <time>2026-05-10T11:33:22Z</time>
      </trkpt>
      <trkpt lat="46.1327" lon="5.686">
        <ele>1011.8</ele>
        <time>2026-05-10T11:33:23Z</time>
      </trkpt>
      <trkpt lat="46.13267" lon="5.68598">
        <ele>1012.2</ele>
        <time>2026-05-10T11:33:24Z</time>
      </trkpt>
      <trkpt lat="46.13264" lon="5.68597">
        <ele>1012.2</ele>
        <time>2026-05-10T11:33:25Z</time>
      </trkpt>
      <trkpt lat="46.1326" lon="5.68595">
        <ele>1012.4</ele>
        <time>2026-05-10T11:33:26Z</time>
      </trkpt>
      <trkpt lat="46.13257" lon="5.68594">
        <ele>1012.4</ele>
        <time>2026-05-10T11:33:27Z</time>
      </trkpt>
      <trkpt lat="46.13254" lon="5.68592">
        <ele>1012.6</ele>
        <time>2026-05-10T11:33:28Z</time>
      </trkpt>
      <trkpt lat="46.13253" lon="5.6859">
        <ele>1013</ele>
        <time>2026-05-10T11:33:29Z</time>
      </trkpt>
      <trkpt lat="46.13252" lon="5.68589">
        <ele>1013.2</ele>
        <time>2026-05-10T11:33:30Z</time>
      </trkpt>
      <trkpt lat="46.13251" lon="5.68587">
        <ele>1013.4</ele>
        <time>2026-05-10T11:33:31Z</time>
      </trkpt>
      <trkpt lat="46.1325" lon="5.68584">
        <ele>1013.6</ele>
        <time>2026-05-10T11:33:32Z</time>
      </trkpt>
      <trkpt lat="46.13249" lon="5.68581">
        <ele>1013.6</ele>
        <time>2026-05-10T11:33:33Z</time>
      </trkpt>
      <trkpt lat="46.13249" lon="5.68579">
        <ele>1014</ele>
        <time>2026-05-10T11:33:34Z</time>
      </trkpt>
      <trkpt lat="46.13249" lon="5.68576">
        <ele>1014.2</ele>
        <time>2026-05-10T11:33:35Z</time>
      </trkpt>
      <trkpt lat="46.1325" lon="5.68572">
        <ele>1014.4</ele>
        <time>2026-05-10T11:33:36Z</time>
      </trkpt>
      <trkpt lat="46.13252" lon="5.6857">
        <ele>1014.4</ele>
        <time>2026-05-10T11:33:37Z</time>
      </trkpt>
      <trkpt lat="46.13253" lon="5.68568">
        <ele>1014.8</ele>
        <time>2026-05-10T11:33:38Z</time>
      </trkpt>
      <trkpt lat="46.13253" lon="5.68566">
        <ele>1014.8</ele>
        <time>2026-05-10T11:33:39Z</time>
      </trkpt>
      <trkpt lat="46.13253" lon="5.68565">
        <ele>1015.2</ele>
        <time>2026-05-10T11:33:40Z</time>
      </trkpt>
      <trkpt lat="46.13252" lon="5.68563">
        <ele>1015.2</ele>
        <time>2026-05-10T11:33:41Z</time>
      </trkpt>
      <trkpt lat="46.13251" lon="5.68563">
        <ele>1015.4</ele>
        <time>2026-05-10T11:33:42Z</time>
      </trkpt>
      <trkpt lat="46.1325" lon="5.68563">
        <ele>1015.6</ele>
        <time>2026-05-10T11:33:43Z</time>
      </trkpt>
      <trkpt lat="46.13248" lon="5.68562">
        <ele>1015.6</ele>
        <time>2026-05-10T11:33:44Z</time>
      </trkpt>
      <trkpt lat="46.13247" lon="5.68561">
        <ele>1016</ele>
        <time>2026-05-10T11:33:45Z</time>
      </trkpt>
      <trkpt lat="46.13248" lon="5.6856">
        <ele>1016</ele>
        <time>2026-05-10T11:33:46Z</time>
      </trkpt>
      <trkpt lat="46.13247" lon="5.68559">
        <ele>1016.4</ele>
        <time>2026-05-10T11:33:47Z</time>
      </trkpt>
      <trkpt lat="46.13246" lon="5.68556">
        <ele>1016.4</ele>
        <time>2026-05-10T11:33:48Z</time>
      </trkpt>
      <trkpt lat="46.13245" lon="5.68554">
        <ele>1016.6</ele>
        <time>2026-05-10T11:33:49Z</time>
      </trkpt>
      <trkpt lat="46.13244" lon="5.68552">
        <ele>1016.6</ele>
        <time>2026-05-10T11:33:50Z</time>
      </trkpt>
      <trkpt lat="46.13244" lon="5.6855">
        <ele>1016.8</ele>
        <time>2026-05-10T11:33:51Z</time>
      </trkpt>
      <trkpt lat="46.13244" lon="5.68549">
        <ele>1016.8</ele>
        <time>2026-05-10T11:33:52Z</time>
      </trkpt>
      <trkpt lat="46.13245" lon="5.68547">
        <ele>1017</ele>
        <time>2026-05-10T11:33:53Z</time>
      </trkpt>
      <trkpt lat="46.13245" lon="5.68545">
        <ele>1017</ele>
        <time>2026-05-10T11:33:54Z</time>
      </trkpt>
      <trkpt lat="46.13245" lon="5.68544">
        <ele>1017</ele>
        <time>2026-05-10T11:33:55Z</time>
      </trkpt>
      <trkpt lat="46.13245" lon="5.68543">
        <ele>1017.4</ele>
        <time>2026-05-10T11:33:56Z</time>
      </trkpt>
      <trkpt lat="46.13245" lon="5.68541">
        <ele>1017.6</ele>
        <time>2026-05-10T11:33:57Z</time>
      </trkpt>
      <trkpt lat="46.13244" lon="5.68539">
        <ele>1017.6</ele>
        <time>2026-05-10T11:33:58Z</time>
      </trkpt>
      <trkpt lat="46.13244" lon="5.68538">
        <ele>1017.8</ele>
        <time>2026-05-10T11:33:59Z</time>
      </trkpt>
      <trkpt lat="46.13243" lon="5.68536">
        <ele>1017.8</ele>
        <time>2026-05-10T11:34:00Z</time>
      </trkpt>
      <trkpt lat="46.13242" lon="5.68534">
        <ele>1018.2</ele>
        <time>2026-05-10T11:34:01Z</time>
      </trkpt>
      <trkpt lat="46.13241" lon="5.68533">
        <ele>1018.4</ele>
        <time>2026-05-10T11:34:02Z</time>
      </trkpt>
      <trkpt lat="46.1324" lon="5.68532">
        <ele>1018.4</ele>
        <time>2026-05-10T11:34:03Z</time>
      </trkpt>
      <trkpt lat="46.13239" lon="5.6853">
        <ele>1018.6</ele>
        <time>2026-05-10T11:34:04Z</time>
      </trkpt>
      <trkpt lat="46.13238" lon="5.68527">
        <ele>1018.6</ele>
        <time>2026-05-10T11:34:05Z</time>
      </trkpt>
      <trkpt lat="46.13237" lon="5.68524">
        <ele>1018.8</ele>
        <time>2026-05-10T11:34:06Z</time>
      </trkpt>
      <trkpt lat="46.13236" lon="5.68521">
        <ele>1018.8</ele>
        <time>2026-05-10T11:34:07Z</time>
      </trkpt>
      <trkpt lat="46.13236" lon="5.68518">
        <ele>1019</ele>
        <time>2026-05-10T11:34:08Z</time>
      </trkpt>
      <trkpt lat="46.13235" lon="5.68516">
        <ele>1019</ele>
        <time>2026-05-10T11:34:09Z</time>
      </trkpt>
      <trkpt lat="46.13234" lon="5.68513">
        <ele>1019.2</ele>
        <time>2026-05-10T11:34:10Z</time>
      </trkpt>
      <trkpt lat="46.13234" lon="5.6851">
        <ele>1019.2</ele>
        <time>2026-05-10T11:34:11Z</time>
      </trkpt>
      <trkpt lat="46.13233" lon="5.68508">
        <ele>1019.6</ele>
        <time>2026-05-10T11:34:12Z</time>
      </trkpt>
      <trkpt lat="46.13231" lon="5.68506">
        <ele>1019.6</ele>
        <time>2026-05-10T11:34:13Z</time>
      </trkpt>
      <trkpt lat="46.1323" lon="5.68505">
        <ele>1019.8</ele>
        <time>2026-05-10T11:34:14Z</time>
      </trkpt>
      <trkpt lat="46.13228" lon="5.68503">
        <ele>1019.8</ele>
        <time>2026-05-10T11:34:15Z</time>
      </trkpt>
      <trkpt lat="46.13226" lon="5.68502">
        <ele>1020</ele>
        <time>2026-05-10T11:34:16Z</time>
      </trkpt>
      <trkpt lat="46.13225" lon="5.685">
        <ele>1020</ele>
        <time>2026-05-10T11:34:17Z</time>
      </trkpt>
      <trkpt lat="46.13223" lon="5.68497">
        <ele>1020</ele>
        <time>2026-05-10T11:34:18Z</time>
      </trkpt>
      <trkpt lat="46.13222" lon="5.68494">
        <ele>1020.4</ele>
        <time>2026-05-10T11:34:19Z</time>
      </trkpt>
      <trkpt lat="46.13221" lon="5.68491">
        <ele>1020.4</ele>
        <time>2026-05-10T11:34:20Z</time>
      </trkpt>
      <trkpt lat="46.1322" lon="5.68489">
        <ele>1020.8</ele>
        <time>2026-05-10T11:34:21Z</time>
      </trkpt>
      <trkpt lat="46.13219" lon="5.68487">
        <ele>1021</ele>
        <time>2026-05-10T11:34:22Z</time>
      </trkpt>
      <trkpt lat="46.13217" lon="5.68484">
        <ele>1021</ele>
        <time>2026-05-10T11:34:23Z</time>
      </trkpt>
      <trkpt lat="46.13216" lon="5.68482">
        <ele>1021.2</ele>
        <time>2026-05-10T11:34:24Z</time>
      </trkpt>
      <trkpt lat="46.13214" lon="5.6848">
        <ele>1021.2</ele>
        <time>2026-05-10T11:34:25Z</time>
      </trkpt>
      <trkpt lat="46.13212" lon="5.68479">
        <ele>1021.6</ele>
        <time>2026-05-10T11:34:26Z</time>
      </trkpt>
      <trkpt lat="46.13211" lon="5.68478">
        <ele>1021.6</ele>
        <time>2026-05-10T11:34:27Z</time>
      </trkpt>
      <trkpt lat="46.13209" lon="5.68477">
        <ele>1021.6</ele>
        <time>2026-05-10T11:34:28Z</time>
      </trkpt>
      <trkpt lat="46.13207" lon="5.68475">
        <ele>1021.8</ele>
        <time>2026-05-10T11:34:29Z</time>
      </trkpt>
      <trkpt lat="46.13205" lon="5.68474">
        <ele>1021.8</ele>
        <time>2026-05-10T11:34:30Z</time>
      </trkpt>
      <trkpt lat="46.13203" lon="5.68473">
        <ele>1021.8</ele>
        <time>2026-05-10T11:34:31Z</time>
      </trkpt>
      <trkpt lat="46.13201" lon="5.68472">
        <ele>1021.8</ele>
        <time>2026-05-10T11:34:32Z</time>
      </trkpt>
      <trkpt lat="46.13199" lon="5.68472">
        <ele>1022</ele>
        <time>2026-05-10T11:34:33Z</time>
      </trkpt>
      <trkpt lat="46.13196" lon="5.68471">
        <ele>1022</ele>
        <time>2026-05-10T11:34:34Z</time>
      </trkpt>
      <trkpt lat="46.13195" lon="5.6847">
        <ele>1022</ele>
        <time>2026-05-10T11:34:35Z</time>
      </trkpt>
      <trkpt lat="46.13193" lon="5.68469">
        <ele>1022.6</ele>
        <time>2026-05-10T11:34:36Z</time>
      </trkpt>
      <trkpt lat="46.13191" lon="5.68468">
        <ele>1023</ele>
        <time>2026-05-10T11:34:37Z</time>
      </trkpt>
      <trkpt lat="46.13189" lon="5.68467">
        <ele>1023</ele>
        <time>2026-05-10T11:34:38Z</time>
      </trkpt>
      <trkpt lat="46.13187" lon="5.68466">
        <ele>1023</ele>
        <time>2026-05-10T11:34:39Z</time>
      </trkpt>
      <trkpt lat="46.13185" lon="5.68465">
        <ele>1023.2</ele>
        <time>2026-05-10T11:34:40Z</time>
      </trkpt>
      <trkpt lat="46.13183" lon="5.68464">
        <ele>1023.2</ele>
        <time>2026-05-10T11:34:41Z</time>
      </trkpt>
      <trkpt lat="46.13182" lon="5.68464">
        <ele>1023.6</ele>
        <time>2026-05-10T11:34:42Z</time>
      </trkpt>
      <trkpt lat="46.13179" lon="5.68463">
        <ele>1023.8</ele>
        <time>2026-05-10T11:34:43Z</time>
      </trkpt>
      <trkpt lat="46.13177" lon="5.68463">
        <ele>1023.8</ele>
        <time>2026-05-10T11:34:44Z</time>
      </trkpt>
      <trkpt lat="46.13176" lon="5.68462">
        <ele>1024.2</ele>
        <time>2026-05-10T11:34:45Z</time>
      </trkpt>
      <trkpt lat="46.13174" lon="5.68462">
        <ele>1024.2</ele>
        <time>2026-05-10T11:34:46Z</time>
      </trkpt>
      <trkpt lat="46.13172" lon="5.68461">
        <ele>1024.4</ele>
        <time>2026-05-10T11:34:47Z</time>
      </trkpt>
      <trkpt lat="46.1317" lon="5.6846">
        <ele>1024.4</ele>
        <time>2026-05-10T11:34:48Z</time>
      </trkpt>
      <trkpt lat="46.13168" lon="5.6846">
        <ele>1024.8</ele>
        <time>2026-05-10T11:34:49Z</time>
      </trkpt>
      <trkpt lat="46.13166" lon="5.68459">
        <ele>1025</ele>
        <time>2026-05-10T11:34:50Z</time>
      </trkpt>
      <trkpt lat="46.13164" lon="5.68458">
        <ele>1025</ele>
        <time>2026-05-10T11:34:51Z</time>
      </trkpt>
      <trkpt lat="46.13163" lon="5.68458">
        <ele>1025.2</ele>
        <time>2026-05-10T11:34:52Z</time>
      </trkpt>
      <trkpt lat="46.13161" lon="5.68457">
        <ele>1025.2</ele>
        <time>2026-05-10T11:34:53Z</time>
      </trkpt>
      <trkpt lat="46.13159" lon="5.68456">
        <ele>1025.4</ele>
        <time>2026-05-10T11:34:54Z</time>
      </trkpt>
      <trkpt lat="46.13157" lon="5.68455">
        <ele>1025.4</ele>
        <time>2026-05-10T11:34:55Z</time>
      </trkpt>
      <trkpt lat="46.13155" lon="5.68455">
        <ele>1025.8</ele>
        <time>2026-05-10T11:34:56Z</time>
      </trkpt>
      <trkpt lat="46.13153" lon="5.68454">
        <ele>1025.8</ele>
        <time>2026-05-10T11:34:57Z</time>
      </trkpt>
      <trkpt lat="46.13151" lon="5.68453">
        <ele>1026</ele>
        <time>2026-05-10T11:34:58Z</time>
      </trkpt>
      <trkpt lat="46.13149" lon="5.68452">
        <ele>1026</ele>
        <time>2026-05-10T11:34:59Z</time>
      </trkpt>
      <trkpt lat="46.13148" lon="5.68451">
        <ele>1026.4</ele>
        <time>2026-05-10T11:35:00Z</time>
      </trkpt>
      <trkpt lat="46.13146" lon="5.6845">
        <ele>1026.4</ele>
        <time>2026-05-10T11:35:01Z</time>
      </trkpt>
      <trkpt lat="46.13144" lon="5.68448">
        <ele>1026.6</ele>
        <time>2026-05-10T11:35:02Z</time>
      </trkpt>
      <trkpt lat="46.13142" lon="5.68447">
        <ele>1026.8</ele>
        <time>2026-05-10T11:35:03Z</time>
      </trkpt>
      <trkpt lat="46.13141" lon="5.68446">
        <ele>1026.8</ele>
        <time>2026-05-10T11:35:04Z</time>
      </trkpt>
      <trkpt lat="46.13139" lon="5.68444">
        <ele>1027</ele>
        <time>2026-05-10T11:35:05Z</time>
      </trkpt>
      <trkpt lat="46.13138" lon="5.68442">
        <ele>1027</ele>
        <time>2026-05-10T11:35:06Z</time>
      </trkpt>
      <trkpt lat="46.13137" lon="5.68441">
        <ele>1027.4</ele>
        <time>2026-05-10T11:35:07Z</time>
      </trkpt>
      <trkpt lat="46.13135" lon="5.68439">
        <ele>1027.4</ele>
        <time>2026-05-10T11:35:08Z</time>
      </trkpt>
      <trkpt lat="46.13133" lon="5.68437">
        <ele>1027.6</ele>
        <time>2026-05-10T11:35:09Z</time>
      </trkpt>
      <trkpt lat="46.13132" lon="5.68436">
        <ele>1027.6</ele>
        <time>2026-05-10T11:35:10Z</time>
      </trkpt>
      <trkpt lat="46.13131" lon="5.68435">
        <ele>1028</ele>
        <time>2026-05-10T11:35:11Z</time>
      </trkpt>
      <trkpt lat="46.1313" lon="5.68434">
        <ele>1028</ele>
        <time>2026-05-10T11:35:12Z</time>
      </trkpt>
      <trkpt lat="46.13129" lon="5.68432">
        <ele>1028</ele>
        <time>2026-05-10T11:35:13Z</time>
      </trkpt>
      <trkpt lat="46.13127" lon="5.68431">
        <ele>1028.4</ele>
        <time>2026-05-10T11:35:14Z</time>
      </trkpt>
      <trkpt lat="46.13126" lon="5.6843">
        <ele>1028.4</ele>
        <time>2026-05-10T11:35:15Z</time>
      </trkpt>
      <trkpt lat="46.13125" lon="5.68429">
        <ele>1028.4</ele>
        <time>2026-05-10T11:35:16Z</time>
      </trkpt>
      <trkpt lat="46.13124" lon="5.68428">
        <ele>1028.4</ele>
        <time>2026-05-10T11:35:17Z</time>
      </trkpt>
      <trkpt lat="46.13124" lon="5.68427">
        <ele>1028.4</ele>
        <time>2026-05-10T11:35:18Z</time>
      </trkpt>
      <trkpt lat="46.13124" lon="5.68427">
        <ele>1028.6</ele>
        <time>2026-05-10T11:35:19Z</time>
      </trkpt>
      <trkpt lat="46.13123" lon="5.68426">
        <ele>1028.6</ele>
        <time>2026-05-10T11:35:20Z</time>
      </trkpt>
      <trkpt lat="46.13122" lon="5.68425">
        <ele>1028.6</ele>
        <time>2026-05-10T11:35:21Z</time>
      </trkpt>
      <trkpt lat="46.1312" lon="5.68425">
        <ele>1028.8</ele>
        <time>2026-05-10T11:35:22Z</time>
      </trkpt>
      <trkpt lat="46.13119" lon="5.68424">
        <ele>1028.8</ele>
        <time>2026-05-10T11:35:23Z</time>
      </trkpt>
      <trkpt lat="46.13118" lon="5.68422">
        <ele>1028.8</ele>
        <time>2026-05-10T11:35:24Z</time>
      </trkpt>
      <trkpt lat="46.13116" lon="5.68421">
        <ele>1029.2</ele>
        <time>2026-05-10T11:35:25Z</time>
      </trkpt>
      <trkpt lat="46.13115" lon="5.6842">
        <ele>1029.2</ele>
        <time>2026-05-10T11:35:26Z</time>
      </trkpt>
      <trkpt lat="46.13114" lon="5.68419">
        <ele>1029.2</ele>
        <time>2026-05-10T11:35:27Z</time>
      </trkpt>
      <trkpt lat="46.13113" lon="5.68417">
        <ele>1029.4</ele>
        <time>2026-05-10T11:35:28Z</time>
      </trkpt>
      <trkpt lat="46.13111" lon="5.68414">
        <ele>1029.4</ele>
        <time>2026-05-10T11:35:29Z</time>
      </trkpt>
      <trkpt lat="46.13109" lon="5.68413">
        <ele>1029.6</ele>
        <time>2026-05-10T11:35:30Z</time>
      </trkpt>
      <trkpt lat="46.13108" lon="5.68411">
        <ele>1029.6</ele>
        <time>2026-05-10T11:35:31Z</time>
      </trkpt>
      <trkpt lat="46.13106" lon="5.6841">
        <ele>1029.6</ele>
        <time>2026-05-10T11:35:32Z</time>
      </trkpt>
      <trkpt lat="46.13104" lon="5.6841">
        <ele>1029.8</ele>
        <time>2026-05-10T11:35:33Z</time>
      </trkpt>
      <trkpt lat="46.13103" lon="5.68409">
        <ele>1029.8</ele>
        <time>2026-05-10T11:35:34Z</time>
      </trkpt>
      <trkpt lat="46.13102" lon="5.68408">
        <ele>1029.8</ele>
        <time>2026-05-10T11:35:35Z</time>
      </trkpt>
      <trkpt lat="46.131" lon="5.68406">
        <ele>1030</ele>
        <time>2026-05-10T11:35:36Z</time>
      </trkpt>
      <trkpt lat="46.13099" lon="5.68405">
        <ele>1030</ele>
        <time>2026-05-10T11:35:37Z</time>
      </trkpt>
      <trkpt lat="46.13097" lon="5.68403">
        <ele>1030</ele>
        <time>2026-05-10T11:35:38Z</time>
      </trkpt>
      <trkpt lat="46.13096" lon="5.68402">
        <ele>1030.4</ele>
        <time>2026-05-10T11:35:39Z</time>
      </trkpt>
      <trkpt lat="46.13095" lon="5.68401">
        <ele>1030.4</ele>
        <time>2026-05-10T11:35:40Z</time>
      </trkpt>
      <trkpt lat="46.13093" lon="5.684">
        <ele>1030.4</ele>
        <time>2026-05-10T11:35:41Z</time>
      </trkpt>
      <trkpt lat="46.13092" lon="5.68399">
        <ele>1030.6</ele>
        <time>2026-05-10T11:35:42Z</time>
      </trkpt>
      <trkpt lat="46.13091" lon="5.68398">
        <ele>1030.6</ele>
        <time>2026-05-10T11:35:43Z</time>
      </trkpt>
      <trkpt lat="46.1309" lon="5.68397">
        <ele>1030.8</ele>
        <time>2026-05-10T11:35:44Z</time>
      </trkpt>
      <trkpt lat="46.13088" lon="5.68396">
        <ele>1031</ele>
        <time>2026-05-10T11:35:45Z</time>
      </trkpt>
      <trkpt lat="46.13087" lon="5.68394">
        <ele>1031</ele>
        <time>2026-05-10T11:35:46Z</time>
      </trkpt>
      <trkpt lat="46.13086" lon="5.68394">
        <ele>1031</ele>
        <time>2026-05-10T11:35:47Z</time>
      </trkpt>
      <trkpt lat="46.13085" lon="5.68393">
        <ele>1031.4</ele>
        <time>2026-05-10T11:35:48Z</time>
      </trkpt>
      <trkpt lat="46.13084" lon="5.68392">
        <ele>1031.4</ele>
        <time>2026-05-10T11:35:49Z</time>
      </trkpt>
      <trkpt lat="46.13083" lon="5.68391">
        <ele>1031.6</ele>
        <time>2026-05-10T11:35:50Z</time>
      </trkpt>
      <trkpt lat="46.13081" lon="5.6839">
        <ele>1031.6</ele>
        <time>2026-05-10T11:35:51Z</time>
      </trkpt>
      <trkpt lat="46.1308" lon="5.68389">
        <ele>1032</ele>
        <time>2026-05-10T11:35:52Z</time>
      </trkpt>
      <trkpt lat="46.13079" lon="5.68388">
        <ele>1032</ele>
        <time>2026-05-10T11:35:53Z</time>
      </trkpt>
      <trkpt lat="46.13077" lon="5.68387">
        <ele>1032.4</ele>
        <time>2026-05-10T11:35:54Z</time>
      </trkpt>
      <trkpt lat="46.13076" lon="5.68386">
        <ele>1032.4</ele>
        <time>2026-05-10T11:35:55Z</time>
      </trkpt>
      <trkpt lat="46.13075" lon="5.68385">
        <ele>1032.6</ele>
        <time>2026-05-10T11:35:56Z</time>
      </trkpt>
      <trkpt lat="46.13073" lon="5.68384">
        <ele>1032.6</ele>
        <time>2026-05-10T11:35:57Z</time>
      </trkpt>
      <trkpt lat="46.13072" lon="5.68383">
        <ele>1032.8</ele>
        <time>2026-05-10T11:35:58Z</time>
      </trkpt>
      <trkpt lat="46.1307" lon="5.68381">
        <ele>1032.8</ele>
        <time>2026-05-10T11:35:59Z</time>
      </trkpt>
      <trkpt lat="46.13069" lon="5.6838">
        <ele>1033</ele>
        <time>2026-05-10T11:36:00Z</time>
      </trkpt>
      <trkpt lat="46.13068" lon="5.68379">
        <ele>1033.4</ele>
        <time>2026-05-10T11:36:01Z</time>
      </trkpt>
      <trkpt lat="46.13066" lon="5.68378">
        <ele>1033.4</ele>
        <time>2026-05-10T11:36:02Z</time>
      </trkpt>
      <trkpt lat="46.13065" lon="5.68378">
        <ele>1033.6</ele>
        <time>2026-05-10T11:36:03Z</time>
      </trkpt>
      <trkpt lat="46.13065" lon="5.68378">
        <ele>1033.6</ele>
        <time>2026-05-10T11:36:04Z</time>
      </trkpt>
      <trkpt lat="46.13063" lon="5.68378">
        <ele>1033.6</ele>
        <time>2026-05-10T11:36:05Z</time>
      </trkpt>
      <trkpt lat="46.13062" lon="5.68377">
        <ele>1033.8</ele>
        <time>2026-05-10T11:36:06Z</time>
      </trkpt>
      <trkpt lat="46.1306" lon="5.68376">
        <ele>1033.8</ele>
        <time>2026-05-10T11:36:07Z</time>
      </trkpt>
      <trkpt lat="46.13059" lon="5.68375">
        <ele>1034</ele>
        <time>2026-05-10T11:36:08Z</time>
      </trkpt>
      <trkpt lat="46.13057" lon="5.68374">
        <ele>1034</ele>
        <time>2026-05-10T11:36:09Z</time>
      </trkpt>
      <trkpt lat="46.13056" lon="5.68372">
        <ele>1034.4</ele>
        <time>2026-05-10T11:36:10Z</time>
      </trkpt>
      <trkpt lat="46.13054" lon="5.68371">
        <ele>1034.4</ele>
        <time>2026-05-10T11:36:11Z</time>
      </trkpt>
      <trkpt lat="46.13052" lon="5.6837">
        <ele>1034.4</ele>
        <time>2026-05-10T11:36:12Z</time>
      </trkpt>
      <trkpt lat="46.13051" lon="5.6837">
        <ele>1034.6</ele>
        <time>2026-05-10T11:36:13Z</time>
      </trkpt>
      <trkpt lat="46.13049" lon="5.68369">
        <ele>1034.6</ele>
        <time>2026-05-10T11:36:14Z</time>
      </trkpt>
      <trkpt lat="46.13047" lon="5.68368">
        <ele>1034.6</ele>
        <time>2026-05-10T11:36:15Z</time>
      </trkpt>
      <trkpt lat="46.13046" lon="5.68367">
        <ele>1034.6</ele>
        <time>2026-05-10T11:36:16Z</time>
      </trkpt>
      <trkpt lat="46.13044" lon="5.68367">
        <ele>1035</ele>
        <time>2026-05-10T11:36:17Z</time>
      </trkpt>
      <trkpt lat="46.13043" lon="5.68366">
        <ele>1035</ele>
        <time>2026-05-10T11:36:18Z</time>
      </trkpt>
      <trkpt lat="46.13041" lon="5.68365">
        <ele>1035.2</ele>
        <time>2026-05-10T11:36:19Z</time>
      </trkpt>
      <trkpt lat="46.13039" lon="5.68365">
        <ele>1035.2</ele>
        <time>2026-05-10T11:36:20Z</time>
      </trkpt>
      <trkpt lat="46.13038" lon="5.68364">
        <ele>1035.4</ele>
        <time>2026-05-10T11:36:21Z</time>
      </trkpt>
      <trkpt lat="46.13036" lon="5.68364">
        <ele>1035.4</ele>
        <time>2026-05-10T11:36:22Z</time>
      </trkpt>
      <trkpt lat="46.13034" lon="5.68363">
        <ele>1035.6</ele>
        <time>2026-05-10T11:36:23Z</time>
      </trkpt>
      <trkpt lat="46.13033" lon="5.68362">
        <ele>1035.6</ele>
        <time>2026-05-10T11:36:24Z</time>
      </trkpt>
      <trkpt lat="46.13032" lon="5.68361">
        <ele>1035.8</ele>
        <time>2026-05-10T11:36:25Z</time>
      </trkpt>
      <trkpt lat="46.1303" lon="5.6836">
        <ele>1035.8</ele>
        <time>2026-05-10T11:36:26Z</time>
      </trkpt>
      <trkpt lat="46.13029" lon="5.68358">
        <ele>1035.8</ele>
        <time>2026-05-10T11:36:27Z</time>
      </trkpt>
      <trkpt lat="46.13027" lon="5.68358">
        <ele>1036.2</ele>
        <time>2026-05-10T11:36:28Z</time>
      </trkpt>
      <trkpt lat="46.13026" lon="5.68357">
        <ele>1036.2</ele>
        <time>2026-05-10T11:36:29Z</time>
      </trkpt>
      <trkpt lat="46.13024" lon="5.68356">
        <ele>1036.6</ele>
        <time>2026-05-10T11:36:30Z</time>
      </trkpt>
      <trkpt lat="46.13022" lon="5.68355">
        <ele>1036.6</ele>
        <time>2026-05-10T11:36:31Z</time>
      </trkpt>
      <trkpt lat="46.13021" lon="5.68355">
        <ele>1036.8</ele>
        <time>2026-05-10T11:36:32Z</time>
      </trkpt>
      <trkpt lat="46.13019" lon="5.68354">
        <ele>1036.8</ele>
        <time>2026-05-10T11:36:33Z</time>
      </trkpt>
      <trkpt lat="46.13018" lon="5.68353">
        <ele>1037</ele>
        <time>2026-05-10T11:36:34Z</time>
      </trkpt>
      <trkpt lat="46.13017" lon="5.68352">
        <ele>1037</ele>
        <time>2026-05-10T11:36:35Z</time>
      </trkpt>
      <trkpt lat="46.13016" lon="5.68351">
        <ele>1037.4</ele>
        <time>2026-05-10T11:36:36Z</time>
      </trkpt>
      <trkpt lat="46.13014" lon="5.6835">
        <ele>1037.4</ele>
        <time>2026-05-10T11:36:37Z</time>
      </trkpt>
      <trkpt lat="46.13013" lon="5.68349">
        <ele>1037.6</ele>
        <time>2026-05-10T11:36:38Z</time>
      </trkpt>
      <trkpt lat="46.13011" lon="5.68349">
        <ele>1037.6</ele>
        <time>2026-05-10T11:36:39Z</time>
      </trkpt>
      <trkpt lat="46.13009" lon="5.68348">
        <ele>1037.6</ele>
        <time>2026-05-10T11:36:40Z</time>
      </trkpt>
      <trkpt lat="46.13007" lon="5.68347">
        <ele>1037.6</ele>
        <time>2026-05-10T11:36:41Z</time>
      </trkpt>
      <trkpt lat="46.13006" lon="5.68346">
        <ele>1037.8</ele>
        <time>2026-05-10T11:36:42Z</time>
      </trkpt>
      <trkpt lat="46.13004" lon="5.68345">
        <ele>1037.8</ele>
        <time>2026-05-10T11:36:43Z</time>
      </trkpt>
      <trkpt lat="46.13002" lon="5.68344">
        <ele>1037.8</ele>
        <time>2026-05-10T11:36:44Z</time>
      </trkpt>
      <trkpt lat="46.13" lon="5.68343">
        <ele>1038.2</ele>
        <time>2026-05-10T11:36:45Z</time>
      </trkpt>
      <trkpt lat="46.12999" lon="5.68342">
        <ele>1038.2</ele>
        <time>2026-05-10T11:36:46Z</time>
      </trkpt>
      <trkpt lat="46.12997" lon="5.68342">
        <ele>1038.2</ele>
        <time>2026-05-10T11:36:47Z</time>
      </trkpt>
      <trkpt lat="46.12995" lon="5.68341">
        <ele>1038.4</ele>
        <time>2026-05-10T11:36:48Z</time>
      </trkpt>
      <trkpt lat="46.12993" lon="5.6834">
        <ele>1038.4</ele>
        <time>2026-05-10T11:36:49Z</time>
      </trkpt>
      <trkpt lat="46.12991" lon="5.68339">
        <ele>1038.8</ele>
        <time>2026-05-10T11:36:50Z</time>
      </trkpt>
      <trkpt lat="46.1299" lon="5.68339">
        <ele>1039</ele>
        <time>2026-05-10T11:36:51Z</time>
      </trkpt>
      <trkpt lat="46.12988" lon="5.68338">
        <ele>1039</ele>
        <time>2026-05-10T11:36:52Z</time>
      </trkpt>
      <trkpt lat="46.12987" lon="5.68337">
        <ele>1039.2</ele>
        <time>2026-05-10T11:36:53Z</time>
      </trkpt>
      <trkpt lat="46.12986" lon="5.68336">
        <ele>1039.4</ele>
        <time>2026-05-10T11:36:54Z</time>
      </trkpt>
      <trkpt lat="46.12985" lon="5.68335">
        <ele>1039.8</ele>
        <time>2026-05-10T11:36:55Z</time>
      </trkpt>
      <trkpt lat="46.12984" lon="5.68334">
        <ele>1039.8</ele>
        <time>2026-05-10T11:36:56Z</time>
      </trkpt>
      <trkpt lat="46.12983" lon="5.68333">
        <ele>1040</ele>
        <time>2026-05-10T11:36:57Z</time>
      </trkpt>
      <trkpt lat="46.12982" lon="5.68332">
        <ele>1040</ele>
        <time>2026-05-10T11:36:58Z</time>
      </trkpt>
      <trkpt lat="46.12981" lon="5.6833">
        <ele>1040.2</ele>
        <time>2026-05-10T11:36:59Z</time>
      </trkpt>
      <trkpt lat="46.12979" lon="5.68328">
        <ele>1040.2</ele>
        <time>2026-05-10T11:37:00Z</time>
      </trkpt>
      <trkpt lat="46.12977" lon="5.68327">
        <ele>1040.2</ele>
        <time>2026-05-10T11:37:01Z</time>
      </trkpt>
      <trkpt lat="46.12975" lon="5.68326">
        <ele>1040.4</ele>
        <time>2026-05-10T11:37:02Z</time>
      </trkpt>
      <trkpt lat="46.12973" lon="5.68325">
        <ele>1040.4</ele>
        <time>2026-05-10T11:37:03Z</time>
      </trkpt>
      <trkpt lat="46.1297" lon="5.68324">
        <ele>1040.4</ele>
        <time>2026-05-10T11:37:04Z</time>
      </trkpt>
      <trkpt lat="46.12968" lon="5.68323">
        <ele>1041</ele>
        <time>2026-05-10T11:37:05Z</time>
      </trkpt>
      <trkpt lat="46.12966" lon="5.68322">
        <ele>1041</ele>
        <time>2026-05-10T11:37:06Z</time>
      </trkpt>
      <trkpt lat="46.12964" lon="5.68321">
        <ele>1041.2</ele>
        <time>2026-05-10T11:37:07Z</time>
      </trkpt>
      <trkpt lat="46.12962" lon="5.6832">
        <ele>1041.2</ele>
        <time>2026-05-10T11:37:08Z</time>
      </trkpt>
      <trkpt lat="46.1296" lon="5.68318">
        <ele>1041.4</ele>
        <time>2026-05-10T11:37:09Z</time>
      </trkpt>
      <trkpt lat="46.12958" lon="5.68318">
        <ele>1041.4</ele>
        <time>2026-05-10T11:37:10Z</time>
      </trkpt>
      <trkpt lat="46.12956" lon="5.68317">
        <ele>1041.4</ele>
        <time>2026-05-10T11:37:11Z</time>
      </trkpt>
      <trkpt lat="46.12954" lon="5.68316">
        <ele>1041.6</ele>
        <time>2026-05-10T11:37:12Z</time>
      </trkpt>
      <trkpt lat="46.12952" lon="5.68315">
        <ele>1041.6</ele>
        <time>2026-05-10T11:37:13Z</time>
      </trkpt>
      <trkpt lat="46.1295" lon="5.68315">
        <ele>1042</ele>
        <time>2026-05-10T11:37:14Z</time>
      </trkpt>
      <trkpt lat="46.12948" lon="5.68314">
        <ele>1042</ele>
        <time>2026-05-10T11:37:15Z</time>
      </trkpt>
      <trkpt lat="46.12946" lon="5.68313">
        <ele>1042</ele>
        <time>2026-05-10T11:37:16Z</time>
      </trkpt>
      <trkpt lat="46.12944" lon="5.68313">
        <ele>1042.2</ele>
        <time>2026-05-10T11:37:17Z</time>
      </trkpt>
      <trkpt lat="46.12942" lon="5.68312">
        <ele>1042.2</ele>
        <time>2026-05-10T11:37:18Z</time>
      </trkpt>
      <trkpt lat="46.1294" lon="5.68312">
        <ele>1042.2</ele>
        <time>2026-05-10T11:37:19Z</time>
      </trkpt>
      <trkpt lat="46.12938" lon="5.68312">
        <ele>1042.6</ele>
        <time>2026-05-10T11:37:20Z</time>
      </trkpt>
      <trkpt lat="46.12937" lon="5.68311">
        <ele>1042.6</ele>
        <time>2026-05-10T11:37:21Z</time>
      </trkpt>
      <trkpt lat="46.12935" lon="5.68312">
        <ele>1042.8</ele>
        <time>2026-05-10T11:37:22Z</time>
      </trkpt>
      <trkpt lat="46.12933" lon="5.68312">
        <ele>1042.8</ele>
        <time>2026-05-10T11:37:23Z</time>
      </trkpt>
      <trkpt lat="46.12932" lon="5.68313">
        <ele>1042.8</ele>
        <time>2026-05-10T11:37:24Z</time>
      </trkpt>
      <trkpt lat="46.1293" lon="5.68314">
        <ele>1043.2</ele>
        <time>2026-05-10T11:37:25Z</time>
      </trkpt>
      <trkpt lat="46.12928" lon="5.68315">
        <ele>1043.2</ele>
        <time>2026-05-10T11:37:26Z</time>
      </trkpt>
      <trkpt lat="46.12926" lon="5.68315">
        <ele>1043.2</ele>
        <time>2026-05-10T11:37:27Z</time>
      </trkpt>
      <trkpt lat="46.12924" lon="5.68315">
        <ele>1043.6</ele>
        <time>2026-05-10T11:37:28Z</time>
      </trkpt>
      <trkpt lat="46.12923" lon="5.68315">
        <ele>1043.6</ele>
        <time>2026-05-10T11:37:29Z</time>
      </trkpt>
      <trkpt lat="46.12921" lon="5.68315">
        <ele>1044</ele>
        <time>2026-05-10T11:37:30Z</time>
      </trkpt>
      <trkpt lat="46.12919" lon="5.68315">
        <ele>1044</ele>
        <time>2026-05-10T11:37:31Z</time>
      </trkpt>
      <trkpt lat="46.12918" lon="5.68315">
        <ele>1044.2</ele>
        <time>2026-05-10T11:37:32Z</time>
      </trkpt>
      <trkpt lat="46.12916" lon="5.68315">
        <ele>1044.2</ele>
        <time>2026-05-10T11:37:33Z</time>
      </trkpt>
      <trkpt lat="46.12914" lon="5.68315">
        <ele>1044.4</ele>
        <time>2026-05-10T11:37:34Z</time>
      </trkpt>
      <trkpt lat="46.12912" lon="5.68316">
        <ele>1044.6</ele>
        <time>2026-05-10T11:37:35Z</time>
      </trkpt>
      <trkpt lat="46.12911" lon="5.68316">
        <ele>1044.8</ele>
        <time>2026-05-10T11:37:36Z</time>
      </trkpt>
      <trkpt lat="46.12909" lon="5.68316">
        <ele>1044.8</ele>
        <time>2026-05-10T11:37:37Z</time>
      </trkpt>
      <trkpt lat="46.12908" lon="5.68316">
        <ele>1044.8</ele>
        <time>2026-05-10T11:37:38Z</time>
      </trkpt>
      <trkpt lat="46.12906" lon="5.68315">
        <ele>1045.2</ele>
        <time>2026-05-10T11:37:39Z</time>
      </trkpt>
      <trkpt lat="46.12905" lon="5.68315">
        <ele>1045.2</ele>
        <time>2026-05-10T11:37:40Z</time>
      </trkpt>
      <trkpt lat="46.12903" lon="5.68315">
        <ele>1045.6</ele>
        <time>2026-05-10T11:37:41Z</time>
      </trkpt>
      <trkpt lat="46.12901" lon="5.68315">
        <ele>1045.6</ele>
        <time>2026-05-10T11:37:42Z</time>
      </trkpt>
      <trkpt lat="46.12899" lon="5.68314">
        <ele>1045.8</ele>
        <time>2026-05-10T11:37:43Z</time>
      </trkpt>
      <trkpt lat="46.12897" lon="5.68314">
        <ele>1045.8</ele>
        <time>2026-05-10T11:37:44Z</time>
      </trkpt>
      <trkpt lat="46.12896" lon="5.68314">
        <ele>1045.8</ele>
        <time>2026-05-10T11:37:45Z</time>
      </trkpt>
      <trkpt lat="46.12894" lon="5.68314">
        <ele>1046.2</ele>
        <time>2026-05-10T11:37:46Z</time>
      </trkpt>
      <trkpt lat="46.12892" lon="5.68314">
        <ele>1046.2</ele>
        <time>2026-05-10T11:37:47Z</time>
      </trkpt>
      <trkpt lat="46.1289" lon="5.68314">
        <ele>1046.4</ele>
        <time>2026-05-10T11:37:48Z</time>
      </trkpt>
      <trkpt lat="46.12889" lon="5.68315">
        <ele>1046.4</ele>
        <time>2026-05-10T11:37:49Z</time>
      </trkpt>
      <trkpt lat="46.12887" lon="5.68315">
        <ele>1046.8</ele>
        <time>2026-05-10T11:37:50Z</time>
      </trkpt>
      <trkpt lat="46.12885" lon="5.68315">
        <ele>1046.8</ele>
        <time>2026-05-10T11:37:51Z</time>
      </trkpt>
      <trkpt lat="46.12884" lon="5.68315">
        <ele>1047.2</ele>
        <time>2026-05-10T11:37:52Z</time>
      </trkpt>
      <trkpt lat="46.12882" lon="5.68315">
        <ele>1047.4</ele>
        <time>2026-05-10T11:37:53Z</time>
      </trkpt>
      <trkpt lat="46.12881" lon="5.68315">
        <ele>1047.4</ele>
        <time>2026-05-10T11:37:54Z</time>
      </trkpt>
      <trkpt lat="46.1288" lon="5.68315">
        <ele>1047.6</ele>
        <time>2026-05-10T11:37:55Z</time>
      </trkpt>
      <trkpt lat="46.12878" lon="5.68315">
        <ele>1047.6</ele>
        <time>2026-05-10T11:37:56Z</time>
      </trkpt>
      <trkpt lat="46.12876" lon="5.68315">
        <ele>1048</ele>
        <time>2026-05-10T11:37:57Z</time>
      </trkpt>
      <trkpt lat="46.12875" lon="5.68315">
        <ele>1048</ele>
        <time>2026-05-10T11:37:58Z</time>
      </trkpt>
      <trkpt lat="46.12873" lon="5.68314">
        <ele>1048.4</ele>
        <time>2026-05-10T11:37:59Z</time>
      </trkpt>
      <trkpt lat="46.12873" lon="5.68313">
        <ele>1048.4</ele>
        <time>2026-05-10T11:38:00Z</time>
      </trkpt>
      <trkpt lat="46.12872" lon="5.68313">
        <ele>1048.6</ele>
        <time>2026-05-10T11:38:01Z</time>
      </trkpt>
      <trkpt lat="46.12869" lon="5.68313">
        <ele>1048.8</ele>
        <time>2026-05-10T11:38:02Z</time>
      </trkpt>
      <trkpt lat="46.12866" lon="5.68314">
        <ele>1048.8</ele>
        <time>2026-05-10T11:38:03Z</time>
      </trkpt>
      <trkpt lat="46.12864" lon="5.68315">
        <ele>1049</ele>
        <time>2026-05-10T11:38:04Z</time>
      </trkpt>
      <trkpt lat="46.12862" lon="5.68315">
        <ele>1049</ele>
        <time>2026-05-10T11:38:05Z</time>
      </trkpt>
      <trkpt lat="46.1286" lon="5.68315">
        <ele>1049.2</ele>
        <time>2026-05-10T11:38:06Z</time>
      </trkpt>
      <trkpt lat="46.12858" lon="5.68315">
        <ele>1049.2</ele>
        <time>2026-05-10T11:38:07Z</time>
      </trkpt>
      <trkpt lat="46.12856" lon="5.68316">
        <ele>1049.6</ele>
        <time>2026-05-10T11:38:08Z</time>
      </trkpt>
      <trkpt lat="46.12854" lon="5.68316">
        <ele>1049.6</ele>
        <time>2026-05-10T11:38:09Z</time>
      </trkpt>
      <trkpt lat="46.12852" lon="5.68316">
        <ele>1049.8</ele>
        <time>2026-05-10T11:38:10Z</time>
      </trkpt>
      <trkpt lat="46.12851" lon="5.68317">
        <ele>1049.8</ele>
        <time>2026-05-10T11:38:11Z</time>
      </trkpt>
      <trkpt lat="46.12848" lon="5.68317">
        <ele>1050</ele>
        <time>2026-05-10T11:38:12Z</time>
      </trkpt>
      <trkpt lat="46.12846" lon="5.68318">
        <ele>1050</ele>
        <time>2026-05-10T11:38:13Z</time>
      </trkpt>
      <trkpt lat="46.12844" lon="5.68318">
        <ele>1050</ele>
        <time>2026-05-10T11:38:14Z</time>
      </trkpt>
      <trkpt lat="46.12844" lon="5.68318">
        <ele>1050</ele>
        <time>2026-05-10T11:38:15Z</time>
      </trkpt>
      <trkpt lat="46.12844" lon="5.68318">
        <ele>1050.4</ele>
        <time>2026-05-10T11:38:16Z</time>
      </trkpt>
      <trkpt lat="46.1284" lon="5.6832">
        <ele>1051.8</ele>
        <time>2026-05-10T11:38:22Z</time>
      </trkpt>
      <trkpt lat="46.12837" lon="5.6832">
        <ele>1051.8</ele>
        <time>2026-05-10T11:38:23Z</time>
      </trkpt>
      <trkpt lat="46.12834" lon="5.68321">
        <ele>1051.8</ele>
        <time>2026-05-10T11:38:24Z</time>
      </trkpt>
      <trkpt lat="46.12832" lon="5.68322">
        <ele>1052</ele>
        <time>2026-05-10T11:38:25Z</time>
      </trkpt>
      <trkpt lat="46.1283" lon="5.68322">
        <ele>1052</ele>
        <time>2026-05-10T11:38:26Z</time>
      </trkpt>
      <trkpt lat="46.12829" lon="5.68323">
        <ele>1052</ele>
        <time>2026-05-10T11:38:27Z</time>
      </trkpt>
      <trkpt lat="46.12827" lon="5.68324">
        <ele>1052.2</ele>
        <time>2026-05-10T11:38:28Z</time>
      </trkpt>
      <trkpt lat="46.12825" lon="5.68325">
        <ele>1052.2</ele>
        <time>2026-05-10T11:38:29Z</time>
      </trkpt>
      <trkpt lat="46.12823" lon="5.68327">
        <ele>1052.2</ele>
        <time>2026-05-10T11:38:30Z</time>
      </trkpt>
      <trkpt lat="46.12821" lon="5.68328">
        <ele>1052.2</ele>
        <time>2026-05-10T11:38:31Z</time>
      </trkpt>
      <trkpt lat="46.12817" lon="5.68329">
        <ele>1052.4</ele>
        <time>2026-05-10T11:38:32Z</time>
      </trkpt>
      <trkpt lat="46.12814" lon="5.6833">
        <ele>1052.4</ele>
        <time>2026-05-10T11:38:33Z</time>
      </trkpt>
      <trkpt lat="46.12812" lon="5.6833">
        <ele>1052.6</ele>
        <time>2026-05-10T11:38:34Z</time>
      </trkpt>
      <trkpt lat="46.12811" lon="5.6833">
        <ele>1052.6</ele>
        <time>2026-05-10T11:38:35Z</time>
      </trkpt>
      <trkpt lat="46.12811" lon="5.68329">
        <ele>1052.6</ele>
        <time>2026-05-10T11:38:36Z</time>
      </trkpt>
      <trkpt lat="46.12809" lon="5.6833">
        <ele>1053</ele>
        <time>2026-05-10T11:38:37Z</time>
      </trkpt>
      <trkpt lat="46.12806" lon="5.68332">
        <ele>1053.4</ele>
        <time>2026-05-10T11:38:38Z</time>
      </trkpt>
      <trkpt lat="46.12804" lon="5.68332">
        <ele>1053.4</ele>
        <time>2026-05-10T11:38:39Z</time>
      </trkpt>
      <trkpt lat="46.12802" lon="5.68333">
        <ele>1053.6</ele>
        <time>2026-05-10T11:38:40Z</time>
      </trkpt>
      <trkpt lat="46.128" lon="5.68334">
        <ele>1053.6</ele>
        <time>2026-05-10T11:38:41Z</time>
      </trkpt>
      <trkpt lat="46.12799" lon="5.68335">
        <ele>1053.6</ele>
        <time>2026-05-10T11:38:42Z</time>
      </trkpt>
      <trkpt lat="46.12797" lon="5.68337">
        <ele>1054.4</ele>
        <time>2026-05-10T11:38:43Z</time>
      </trkpt>
      <trkpt lat="46.12796" lon="5.68338">
        <ele>1054.4</ele>
        <time>2026-05-10T11:38:44Z</time>
      </trkpt>
      <trkpt lat="46.12795" lon="5.68338">
        <ele>1054.4</ele>
        <time>2026-05-10T11:38:45Z</time>
      </trkpt>
      <trkpt lat="46.12794" lon="5.6834">
        <ele>1054.8</ele>
        <time>2026-05-10T11:38:46Z</time>
      </trkpt>
      <trkpt lat="46.12792" lon="5.68341">
        <ele>1054.8</ele>
        <time>2026-05-10T11:38:47Z</time>
      </trkpt>
      <trkpt lat="46.12792" lon="5.68343">
        <ele>1054.8</ele>
        <time>2026-05-10T11:38:48Z</time>
      </trkpt>
      <trkpt lat="46.12791" lon="5.68345">
        <ele>1054.8</ele>
        <time>2026-05-10T11:38:49Z</time>
      </trkpt>
      <trkpt lat="46.1279" lon="5.68348">
        <ele>1054.8</ele>
        <time>2026-05-10T11:38:50Z</time>
      </trkpt>
      <trkpt lat="46.12789" lon="5.6835">
        <ele>1055</ele>
        <time>2026-05-10T11:38:51Z</time>
      </trkpt>
      <trkpt lat="46.12788" lon="5.68353">
        <ele>1055</ele>
        <time>2026-05-10T11:38:52Z</time>
      </trkpt>
      <trkpt lat="46.12787" lon="5.68355">
        <ele>1055</ele>
        <time>2026-05-10T11:38:53Z</time>
      </trkpt>
      <trkpt lat="46.12786" lon="5.68357">
        <ele>1055</ele>
        <time>2026-05-10T11:38:54Z</time>
      </trkpt>
      <trkpt lat="46.12785" lon="5.6836">
        <ele>1055.2</ele>
        <time>2026-05-10T11:38:55Z</time>
      </trkpt>
      <trkpt lat="46.12784" lon="5.68363">
        <ele>1055.2</ele>
        <time>2026-05-10T11:38:56Z</time>
      </trkpt>
      <trkpt lat="46.12784" lon="5.68366">
        <ele>1055.4</ele>
        <time>2026-05-10T11:38:57Z</time>
      </trkpt>
      <trkpt lat="46.12783" lon="5.68368">
        <ele>1055.4</ele>
        <time>2026-05-10T11:38:58Z</time>
      </trkpt>
      <trkpt lat="46.12783" lon="5.68368">
        <ele>1055.8</ele>
        <time>2026-05-10T11:38:59Z</time>
      </trkpt>
      <trkpt lat="46.12783" lon="5.68374">
        <ele>1056</ele>
        <time>2026-05-10T11:39:00Z</time>
      </trkpt>
      <trkpt lat="46.12784" lon="5.68376">
        <ele>1056</ele>
        <time>2026-05-10T11:39:01Z</time>
      </trkpt>
      <trkpt lat="46.12784" lon="5.68379">
        <ele>1056.2</ele>
        <time>2026-05-10T11:39:02Z</time>
      </trkpt>
      <trkpt lat="46.12784" lon="5.68382">
        <ele>1056.2</ele>
        <time>2026-05-10T11:39:03Z</time>
      </trkpt>
      <trkpt lat="46.12785" lon="5.68384">
        <ele>1056.6</ele>
        <time>2026-05-10T11:39:04Z</time>
      </trkpt>
      <trkpt lat="46.12785" lon="5.68387">
        <ele>1056.6</ele>
        <time>2026-05-10T11:39:05Z</time>
      </trkpt>
      <trkpt lat="46.12785" lon="5.68392">
        <ele>1057</ele>
        <time>2026-05-10T11:39:06Z</time>
      </trkpt>
      <trkpt lat="46.12786" lon="5.68394">
        <ele>1057</ele>
        <time>2026-05-10T11:39:07Z</time>
      </trkpt>
      <trkpt lat="46.12786" lon="5.68396">
        <ele>1057.2</ele>
        <time>2026-05-10T11:39:08Z</time>
      </trkpt>
      <trkpt lat="46.12787" lon="5.68398">
        <ele>1057.2</ele>
        <time>2026-05-10T11:39:09Z</time>
      </trkpt>
      <trkpt lat="46.12788" lon="5.684">
        <ele>1057.6</ele>
        <time>2026-05-10T11:39:10Z</time>
      </trkpt>
      <trkpt lat="46.12788" lon="5.68401">
        <ele>1057.6</ele>
        <time>2026-05-10T11:39:11Z</time>
      </trkpt>
      <trkpt lat="46.12789" lon="5.68403">
        <ele>1057.6</ele>
        <time>2026-05-10T11:39:12Z</time>
      </trkpt>
      <trkpt lat="46.1279" lon="5.68405">
        <ele>1057.8</ele>
        <time>2026-05-10T11:39:13Z</time>
      </trkpt>
      <trkpt lat="46.12791" lon="5.68406">
        <ele>1057.8</ele>
        <time>2026-05-10T11:39:14Z</time>
      </trkpt>
      <trkpt lat="46.12792" lon="5.68408">
        <ele>1058</ele>
        <time>2026-05-10T11:39:15Z</time>
      </trkpt>
      <trkpt lat="46.12793" lon="5.6841">
        <ele>1058</ele>
        <time>2026-05-10T11:39:16Z</time>
      </trkpt>
      <trkpt lat="46.12794" lon="5.68411">
        <ele>1058.4</ele>
        <time>2026-05-10T11:39:17Z</time>
      </trkpt>
      <trkpt lat="46.12795" lon="5.68413">
        <ele>1058.4</ele>
        <time>2026-05-10T11:39:18Z</time>
      </trkpt>
      <trkpt lat="46.12796" lon="5.68414">
        <ele>1058.6</ele>
        <time>2026-05-10T11:39:19Z</time>
      </trkpt>
      <trkpt lat="46.12798" lon="5.68414">
        <ele>1058.6</ele>
        <time>2026-05-10T11:39:20Z</time>
      </trkpt>
      <trkpt lat="46.12799" lon="5.68413">
        <ele>1058.6</ele>
        <time>2026-05-10T11:39:21Z</time>
      </trkpt>
      <trkpt lat="46.12801" lon="5.68413">
        <ele>1058.6</ele>
        <time>2026-05-10T11:39:22Z</time>
      </trkpt>
      <trkpt lat="46.12803" lon="5.68414">
        <ele>1058.6</ele>
        <time>2026-05-10T11:39:23Z</time>
      </trkpt>
      <trkpt lat="46.12806" lon="5.68415">
        <ele>1058.8</ele>
        <time>2026-05-10T11:39:24Z</time>
      </trkpt>
      <trkpt lat="46.12809" lon="5.68417">
        <ele>1058.8</ele>
        <time>2026-05-10T11:39:25Z</time>
      </trkpt>
      <trkpt lat="46.12811" lon="5.68417">
        <ele>1058.8</ele>
        <time>2026-05-10T11:39:26Z</time>
      </trkpt>
      <trkpt lat="46.12813" lon="5.68417">
        <ele>1059</ele>
        <time>2026-05-10T11:39:27Z</time>
      </trkpt>
      <trkpt lat="46.12815" lon="5.68417">
        <ele>1059</ele>
        <time>2026-05-10T11:39:28Z</time>
      </trkpt>
      <trkpt lat="46.12818" lon="5.68415">
        <ele>1059</ele>
        <time>2026-05-10T11:39:29Z</time>
      </trkpt>
      <trkpt lat="46.12821" lon="5.68414">
        <ele>1059</ele>
        <time>2026-05-10T11:39:30Z</time>
      </trkpt>
      <trkpt lat="46.12824" lon="5.68413">
        <ele>1059</ele>
        <time>2026-05-10T11:39:31Z</time>
      </trkpt>
      <trkpt lat="46.12826" lon="5.68411">
        <ele>1059</ele>
        <time>2026-05-10T11:39:32Z</time>
      </trkpt>
      <trkpt lat="46.1283" lon="5.6841">
        <ele>1059</ele>
        <time>2026-05-10T11:39:33Z</time>
      </trkpt>
      <trkpt lat="46.12833" lon="5.68408">
        <ele>1059</ele>
        <time>2026-05-10T11:39:34Z</time>
      </trkpt>
      <trkpt lat="46.12836" lon="5.68405">
        <ele>1059.2</ele>
        <time>2026-05-10T11:39:35Z</time>
      </trkpt>
      <trkpt lat="46.12838" lon="5.68403">
        <ele>1059.2</ele>
        <time>2026-05-10T11:39:36Z</time>
      </trkpt>
      <trkpt lat="46.12841" lon="5.684">
        <ele>1059.2</ele>
        <time>2026-05-10T11:39:37Z</time>
      </trkpt>
      <trkpt lat="46.12843" lon="5.68398">
        <ele>1059.2</ele>
        <time>2026-05-10T11:39:38Z</time>
      </trkpt>
      <trkpt lat="46.12846" lon="5.68396">
        <ele>1059.2</ele>
        <time>2026-05-10T11:39:39Z</time>
      </trkpt>
      <trkpt lat="46.12848" lon="5.68394">
        <ele>1059.6</ele>
        <time>2026-05-10T11:39:40Z</time>
      </trkpt>
      <trkpt lat="46.12848" lon="5.68394">
        <ele>1059.6</ele>
        <time>2026-05-10T11:39:41Z</time>
      </trkpt>
      <trkpt lat="46.12851" lon="5.68392">
        <ele>1059.6</ele>
        <time>2026-05-10T11:39:42Z</time>
      </trkpt>
      <trkpt lat="46.12855" lon="5.68391">
        <ele>1059.6</ele>
        <time>2026-05-10T11:39:43Z</time>
      </trkpt>
      <trkpt lat="46.12858" lon="5.68389">
        <ele>1059.6</ele>
        <time>2026-05-10T11:39:44Z</time>
      </trkpt>
      <trkpt lat="46.1286" lon="5.68387">
        <ele>1059.6</ele>
        <time>2026-05-10T11:39:45Z</time>
      </trkpt>
      <trkpt lat="46.12863" lon="5.68386">
        <ele>1059.8</ele>
        <time>2026-05-10T11:39:46Z</time>
      </trkpt>
      <trkpt lat="46.12866" lon="5.68385">
        <ele>1059.8</ele>
        <time>2026-05-10T11:39:47Z</time>
      </trkpt>
      <trkpt lat="46.12869" lon="5.68385">
        <ele>1060</ele>
        <time>2026-05-10T11:39:48Z</time>
      </trkpt>
      <trkpt lat="46.1287" lon="5.68385">
        <ele>1060</ele>
        <time>2026-05-10T11:39:49Z</time>
      </trkpt>
      <trkpt lat="46.12873" lon="5.68386">
        <ele>1060.4</ele>
        <time>2026-05-10T11:39:50Z</time>
      </trkpt>
      <trkpt lat="46.12876" lon="5.68387">
        <ele>1060.4</ele>
        <time>2026-05-10T11:39:51Z</time>
      </trkpt>
      <trkpt lat="46.12878" lon="5.68389">
        <ele>1060.8</ele>
        <time>2026-05-10T11:39:52Z</time>
      </trkpt>
      <trkpt lat="46.12881" lon="5.68391">
        <ele>1061.2</ele>
        <time>2026-05-10T11:39:53Z</time>
      </trkpt>
      <trkpt lat="46.12884" lon="5.68393">
        <ele>1061.2</ele>
        <time>2026-05-10T11:39:54Z</time>
      </trkpt>
      <trkpt lat="46.12886" lon="5.68395">
        <ele>1061.4</ele>
        <time>2026-05-10T11:39:55Z</time>
      </trkpt>
      <trkpt lat="46.12889" lon="5.68398">
        <ele>1061.4</ele>
        <time>2026-05-10T11:39:56Z</time>
      </trkpt>
      <trkpt lat="46.1289" lon="5.684">
        <ele>1061.6</ele>
        <time>2026-05-10T11:39:57Z</time>
      </trkpt>
      <trkpt lat="46.12891" lon="5.68403">
        <ele>1061.6</ele>
        <time>2026-05-10T11:39:58Z</time>
      </trkpt>
      <trkpt lat="46.12893" lon="5.68406">
        <ele>1061.6</ele>
        <time>2026-05-10T11:39:59Z</time>
      </trkpt>
      <trkpt lat="46.12894" lon="5.68409">
        <ele>1062</ele>
        <time>2026-05-10T11:40:00Z</time>
      </trkpt>
      <trkpt lat="46.12896" lon="5.68413">
        <ele>1062</ele>
        <time>2026-05-10T11:40:01Z</time>
      </trkpt>
      <trkpt lat="46.12897" lon="5.68415">
        <ele>1062.2</ele>
        <time>2026-05-10T11:40:02Z</time>
      </trkpt>
      <trkpt lat="46.12898" lon="5.68418">
        <ele>1062.6</ele>
        <time>2026-05-10T11:40:03Z</time>
      </trkpt>
      <trkpt lat="46.12898" lon="5.68421">
        <ele>1062.6</ele>
        <time>2026-05-10T11:40:04Z</time>
      </trkpt>
      <trkpt lat="46.12899" lon="5.68424">
        <ele>1062.8</ele>
        <time>2026-05-10T11:40:05Z</time>
      </trkpt>
      <trkpt lat="46.12899" lon="5.68427">
        <ele>1063</ele>
        <time>2026-05-10T11:40:06Z</time>
      </trkpt>
      <trkpt lat="46.129" lon="5.6843">
        <ele>1063</ele>
        <time>2026-05-10T11:40:07Z</time>
      </trkpt>
      <trkpt lat="46.129" lon="5.68433">
        <ele>1063.4</ele>
        <time>2026-05-10T11:40:08Z</time>
      </trkpt>
      <trkpt lat="46.12899" lon="5.68436">
        <ele>1063.4</ele>
        <time>2026-05-10T11:40:09Z</time>
      </trkpt>
      <trkpt lat="46.12899" lon="5.68439">
        <ele>1063.4</ele>
        <time>2026-05-10T11:40:10Z</time>
      </trkpt>
      <trkpt lat="46.12898" lon="5.68441">
        <ele>1063.8</ele>
        <time>2026-05-10T11:40:11Z</time>
      </trkpt>
      <trkpt lat="46.12897" lon="5.68444">
        <ele>1064.2</ele>
        <time>2026-05-10T11:40:12Z</time>
      </trkpt>
      <trkpt lat="46.12896" lon="5.68447">
        <ele>1064.4</ele>
        <time>2026-05-10T11:40:13Z</time>
      </trkpt>
      <trkpt lat="46.12895" lon="5.68449">
        <ele>1064.4</ele>
        <time>2026-05-10T11:40:14Z</time>
      </trkpt>
      <trkpt lat="46.12894" lon="5.68451">
        <ele>1064.4</ele>
        <time>2026-05-10T11:40:15Z</time>
      </trkpt>
      <trkpt lat="46.12892" lon="5.68454">
        <ele>1064.8</ele>
        <time>2026-05-10T11:40:16Z</time>
      </trkpt>
      <trkpt lat="46.12891" lon="5.68456">
        <ele>1064.8</ele>
        <time>2026-05-10T11:40:17Z</time>
      </trkpt>
      <trkpt lat="46.1289" lon="5.68457">
        <ele>1065</ele>
        <time>2026-05-10T11:40:18Z</time>
      </trkpt>
      <trkpt lat="46.12888" lon="5.68459">
        <ele>1065</ele>
        <time>2026-05-10T11:40:19Z</time>
      </trkpt>
      <trkpt lat="46.12887" lon="5.68461">
        <ele>1065</ele>
        <time>2026-05-10T11:40:20Z</time>
      </trkpt>
      <trkpt lat="46.12885" lon="5.68463">
        <ele>1065.4</ele>
        <time>2026-05-10T11:40:21Z</time>
      </trkpt>
      <trkpt lat="46.12884" lon="5.68464">
        <ele>1065.6</ele>
        <time>2026-05-10T11:40:22Z</time>
      </trkpt>
      <trkpt lat="46.12882" lon="5.68465">
        <ele>1065.6</ele>
        <time>2026-05-10T11:40:23Z</time>
      </trkpt>
      <trkpt lat="46.12881" lon="5.68467">
        <ele>1066</ele>
        <time>2026-05-10T11:40:24Z</time>
      </trkpt>
      <trkpt lat="46.12878" lon="5.68468">
        <ele>1066</ele>
        <time>2026-05-10T11:40:25Z</time>
      </trkpt>
      <trkpt lat="46.12876" lon="5.68469">
        <ele>1066.2</ele>
        <time>2026-05-10T11:40:26Z</time>
      </trkpt>
      <trkpt lat="46.12874" lon="5.68469">
        <ele>1066.2</ele>
        <time>2026-05-10T11:40:27Z</time>
      </trkpt>
      <trkpt lat="46.12872" lon="5.68469">
        <ele>1066.2</ele>
        <time>2026-05-10T11:40:28Z</time>
      </trkpt>
      <trkpt lat="46.1287" lon="5.6847">
        <ele>1066.2</ele>
        <time>2026-05-10T11:40:29Z</time>
      </trkpt>
      <trkpt lat="46.12869" lon="5.6847">
        <ele>1066.6</ele>
        <time>2026-05-10T11:40:30Z</time>
      </trkpt>
      <trkpt lat="46.12867" lon="5.6847">
        <ele>1066.6</ele>
        <time>2026-05-10T11:40:31Z</time>
      </trkpt>
      <trkpt lat="46.12865" lon="5.68471">
        <ele>1066.6</ele>
        <time>2026-05-10T11:40:32Z</time>
      </trkpt>
      <trkpt lat="46.12864" lon="5.68471">
        <ele>1066.6</ele>
        <time>2026-05-10T11:40:33Z</time>
      </trkpt>
      <trkpt lat="46.12863" lon="5.68472">
        <ele>1066.8</ele>
        <time>2026-05-10T11:40:34Z</time>
      </trkpt>
      <trkpt lat="46.12861" lon="5.68473">
        <ele>1066.8</ele>
        <time>2026-05-10T11:40:35Z</time>
      </trkpt>
      <trkpt lat="46.12859" lon="5.68473">
        <ele>1066.8</ele>
        <time>2026-05-10T11:40:36Z</time>
      </trkpt>
      <trkpt lat="46.12857" lon="5.68473">
        <ele>1067</ele>
        <time>2026-05-10T11:40:37Z</time>
      </trkpt>
      <trkpt lat="46.12856" lon="5.68472">
        <ele>1067.4</ele>
        <time>2026-05-10T11:40:38Z</time>
      </trkpt>
      <trkpt lat="46.12855" lon="5.68471">
        <ele>1067.4</ele>
        <time>2026-05-10T11:40:39Z</time>
      </trkpt>
      <trkpt lat="46.12854" lon="5.68471">
        <ele>1067.8</ele>
        <time>2026-05-10T11:40:40Z</time>
      </trkpt>
      <trkpt lat="46.12853" lon="5.6847">
        <ele>1067.8</ele>
        <time>2026-05-10T11:40:41Z</time>
      </trkpt>
      <trkpt lat="46.12852" lon="5.68469">
        <ele>1068</ele>
        <time>2026-05-10T11:40:42Z</time>
      </trkpt>
      <trkpt lat="46.12851" lon="5.68469">
        <ele>1068.4</ele>
        <time>2026-05-10T11:40:43Z</time>
      </trkpt>
      <trkpt lat="46.1285" lon="5.68469">
        <ele>1068.4</ele>
        <time>2026-05-10T11:40:44Z</time>
      </trkpt>
      <trkpt lat="46.12848" lon="5.68469">
        <ele>1068.4</ele>
        <time>2026-05-10T11:40:45Z</time>
      </trkpt>
      <trkpt lat="46.12845" lon="5.68469">
        <ele>1068.8</ele>
        <time>2026-05-10T11:40:46Z</time>
      </trkpt>
      <trkpt lat="46.12843" lon="5.6847">
        <ele>1069</ele>
        <time>2026-05-10T11:40:47Z</time>
      </trkpt>
      <trkpt lat="46.12841" lon="5.68471">
        <ele>1069.2</ele>
        <time>2026-05-10T11:40:48Z</time>
      </trkpt>
      <trkpt lat="46.12841" lon="5.68471">
        <ele>1069.2</ele>
        <time>2026-05-10T11:40:49Z</time>
      </trkpt>
      <trkpt lat="46.12839" lon="5.68472">
        <ele>1069.4</ele>
        <time>2026-05-10T11:40:50Z</time>
      </trkpt>
      <trkpt lat="46.12836" lon="5.68472">
        <ele>1069.4</ele>
        <time>2026-05-10T11:40:51Z</time>
      </trkpt>
      <trkpt lat="46.12834" lon="5.68472">
        <ele>1069.4</ele>
        <time>2026-05-10T11:40:52Z</time>
      </trkpt>
      <trkpt lat="46.12831" lon="5.68472">
        <ele>1069.4</ele>
        <time>2026-05-10T11:40:53Z</time>
      </trkpt>
      <trkpt lat="46.1283" lon="5.68473">
        <ele>1069.8</ele>
        <time>2026-05-10T11:40:54Z</time>
      </trkpt>
      <trkpt lat="46.12828" lon="5.68474">
        <ele>1070</ele>
        <time>2026-05-10T11:40:55Z</time>
      </trkpt>
      <trkpt lat="46.12826" lon="5.68475">
        <ele>1070.2</ele>
        <time>2026-05-10T11:40:56Z</time>
      </trkpt>
      <trkpt lat="46.12825" lon="5.68476">
        <ele>1070.2</ele>
        <time>2026-05-10T11:40:57Z</time>
      </trkpt>
      <trkpt lat="46.12823" lon="5.68477">
        <ele>1070.2</ele>
        <time>2026-05-10T11:40:58Z</time>
      </trkpt>
      <trkpt lat="46.12821" lon="5.68478">
        <ele>1070.6</ele>
        <time>2026-05-10T11:40:59Z</time>
      </trkpt>
      <trkpt lat="46.12819" lon="5.68479">
        <ele>1070.6</ele>
        <time>2026-05-10T11:41:00Z</time>
      </trkpt>
      <trkpt lat="46.12817" lon="5.68479">
        <ele>1070.8</ele>
        <time>2026-05-10T11:41:01Z</time>
      </trkpt>
      <trkpt lat="46.12815" lon="5.6848">
        <ele>1070.8</ele>
        <time>2026-05-10T11:41:02Z</time>
      </trkpt>
      <trkpt lat="46.12814" lon="5.6848">
        <ele>1070.8</ele>
        <time>2026-05-10T11:41:03Z</time>
      </trkpt>
      <trkpt lat="46.12813" lon="5.6848">
        <ele>1071</ele>
        <time>2026-05-10T11:41:04Z</time>
      </trkpt>
      <trkpt lat="46.12812" lon="5.68481">
        <ele>1071</ele>
        <time>2026-05-10T11:41:05Z</time>
      </trkpt>
      <trkpt lat="46.12811" lon="5.68482">
        <ele>1071.2</ele>
        <time>2026-05-10T11:41:06Z</time>
      </trkpt>
      <trkpt lat="46.1281" lon="5.68483">
        <ele>1071.2</ele>
        <time>2026-05-10T11:41:07Z</time>
      </trkpt>
      <trkpt lat="46.12809" lon="5.68484">
        <ele>1071.6</ele>
        <time>2026-05-10T11:41:08Z</time>
      </trkpt>
      <trkpt lat="46.12809" lon="5.68485">
        <ele>1071.8</ele>
        <time>2026-05-10T11:41:09Z</time>
      </trkpt>
      <trkpt lat="46.12809" lon="5.68486">
        <ele>1071.8</ele>
        <time>2026-05-10T11:41:10Z</time>
      </trkpt>
      <trkpt lat="46.12808" lon="5.68487">
        <ele>1072.2</ele>
        <time>2026-05-10T11:41:11Z</time>
      </trkpt>
      <trkpt lat="46.12806" lon="5.68488">
        <ele>1072.2</ele>
        <time>2026-05-10T11:41:12Z</time>
      </trkpt>
      <trkpt lat="46.12804" lon="5.68488">
        <ele>1072.4</ele>
        <time>2026-05-10T11:41:13Z</time>
      </trkpt>
      <trkpt lat="46.12805" lon="5.68487">
        <ele>1072.4</ele>
        <time>2026-05-10T11:41:14Z</time>
      </trkpt>
      <trkpt lat="46.12803" lon="5.68487">
        <ele>1072.4</ele>
        <time>2026-05-10T11:41:15Z</time>
      </trkpt>
      <trkpt lat="46.12801" lon="5.68488">
        <ele>1072.6</ele>
        <time>2026-05-10T11:41:16Z</time>
      </trkpt>
      <trkpt lat="46.12799" lon="5.68489">
        <ele>1072.6</ele>
        <time>2026-05-10T11:41:17Z</time>
      </trkpt>
      <trkpt lat="46.12797" lon="5.68489">
        <ele>1073</ele>
        <time>2026-05-10T11:41:18Z</time>
      </trkpt>
      <trkpt lat="46.12795" lon="5.68489">
        <ele>1073</ele>
        <time>2026-05-10T11:41:19Z</time>
      </trkpt>
      <trkpt lat="46.12793" lon="5.68489">
        <ele>1073.2</ele>
        <time>2026-05-10T11:41:20Z</time>
      </trkpt>
      <trkpt lat="46.12791" lon="5.6849">
        <ele>1073.2</ele>
        <time>2026-05-10T11:41:21Z</time>
      </trkpt>
      <trkpt lat="46.12788" lon="5.6849">
        <ele>1073.6</ele>
        <time>2026-05-10T11:41:22Z</time>
      </trkpt>
      <trkpt lat="46.12786" lon="5.6849">
        <ele>1073.6</ele>
        <time>2026-05-10T11:41:23Z</time>
      </trkpt>
      <trkpt lat="46.12785" lon="5.6849">
        <ele>1073.8</ele>
        <time>2026-05-10T11:41:24Z</time>
      </trkpt>
      <trkpt lat="46.12783" lon="5.6849">
        <ele>1073.8</ele>
        <time>2026-05-10T11:41:25Z</time>
      </trkpt>
      <trkpt lat="46.12781" lon="5.6849">
        <ele>1074</ele>
        <time>2026-05-10T11:41:26Z</time>
      </trkpt>
      <trkpt lat="46.12779" lon="5.68491">
        <ele>1074</ele>
        <time>2026-05-10T11:41:27Z</time>
      </trkpt>
      <trkpt lat="46.12777" lon="5.68491">
        <ele>1074.4</ele>
        <time>2026-05-10T11:41:28Z</time>
      </trkpt>
      <trkpt lat="46.12776" lon="5.68491">
        <ele>1074.4</ele>
        <time>2026-05-10T11:41:29Z</time>
      </trkpt>
      <trkpt lat="46.12774" lon="5.68492">
        <ele>1074.4</ele>
        <time>2026-05-10T11:41:30Z</time>
      </trkpt>
      <trkpt lat="46.12771" lon="5.68492">
        <ele>1074.6</ele>
        <time>2026-05-10T11:41:31Z</time>
      </trkpt>
      <trkpt lat="46.12769" lon="5.68492">
        <ele>1074.6</ele>
        <time>2026-05-10T11:41:32Z</time>
      </trkpt>
      <trkpt lat="46.12767" lon="5.68492">
        <ele>1074.6</ele>
        <time>2026-05-10T11:41:33Z</time>
      </trkpt>
      <trkpt lat="46.12765" lon="5.68491">
        <ele>1074.8</ele>
        <time>2026-05-10T11:41:34Z</time>
      </trkpt>
      <trkpt lat="46.12763" lon="5.68491">
        <ele>1074.8</ele>
        <time>2026-05-10T11:41:35Z</time>
      </trkpt>
      <trkpt lat="46.12762" lon="5.6849">
        <ele>1075</ele>
        <time>2026-05-10T11:41:36Z</time>
      </trkpt>
      <trkpt lat="46.12759" lon="5.6849">
        <ele>1075</ele>
        <time>2026-05-10T11:41:37Z</time>
      </trkpt>
      <trkpt lat="46.12757" lon="5.6849">
        <ele>1075</ele>
        <time>2026-05-10T11:41:38Z</time>
      </trkpt>
      <trkpt lat="46.12755" lon="5.6849">
        <ele>1075.4</ele>
        <time>2026-05-10T11:41:39Z</time>
      </trkpt>
      <trkpt lat="46.12753" lon="5.68488">
        <ele>1075.4</ele>
        <time>2026-05-10T11:41:40Z</time>
      </trkpt>
      <trkpt lat="46.12752" lon="5.68487">
        <ele>1075.4</ele>
        <time>2026-05-10T11:41:41Z</time>
      </trkpt>
      <trkpt lat="46.12751" lon="5.68486">
        <ele>1075.8</ele>
        <time>2026-05-10T11:41:42Z</time>
      </trkpt>
      <trkpt lat="46.1275" lon="5.68486">
        <ele>1075.8</ele>
        <time>2026-05-10T11:41:43Z</time>
      </trkpt>
      <trkpt lat="46.12748" lon="5.68486">
        <ele>1076</ele>
        <time>2026-05-10T11:41:44Z</time>
      </trkpt>
      <trkpt lat="46.12746" lon="5.68486">
        <ele>1076</ele>
        <time>2026-05-10T11:41:45Z</time>
      </trkpt>
      <trkpt lat="46.12743" lon="5.68487">
        <ele>1076</ele>
        <time>2026-05-10T11:41:46Z</time>
      </trkpt>
      <trkpt lat="46.12741" lon="5.68488">
        <ele>1076</ele>
        <time>2026-05-10T11:41:47Z</time>
      </trkpt>
      <trkpt lat="46.12739" lon="5.68488">
        <ele>1076.4</ele>
        <time>2026-05-10T11:41:48Z</time>
      </trkpt>
      <trkpt lat="46.12737" lon="5.68489">
        <ele>1076.4</ele>
        <time>2026-05-10T11:41:49Z</time>
      </trkpt>
      <trkpt lat="46.12734" lon="5.6849">
        <ele>1076.4</ele>
        <time>2026-05-10T11:41:50Z</time>
      </trkpt>
      <trkpt lat="46.12732" lon="5.6849">
        <ele>1076.8</ele>
        <time>2026-05-10T11:41:51Z</time>
      </trkpt>
      <trkpt lat="46.1273" lon="5.68491">
        <ele>1077.2</ele>
        <time>2026-05-10T11:41:52Z</time>
      </trkpt>
      <trkpt lat="46.12728" lon="5.68491">
        <ele>1077.4</ele>
        <time>2026-05-10T11:41:53Z</time>
      </trkpt>
      <trkpt lat="46.12726" lon="5.68492">
        <ele>1077.6</ele>
        <time>2026-05-10T11:41:54Z</time>
      </trkpt>
      <trkpt lat="46.12724" lon="5.68492">
        <ele>1077.8</ele>
        <time>2026-05-10T11:41:55Z</time>
      </trkpt>
      <trkpt lat="46.12722" lon="5.68493">
        <ele>1077.8</ele>
        <time>2026-05-10T11:41:56Z</time>
      </trkpt>
      <trkpt lat="46.1272" lon="5.68493">
        <ele>1078.2</ele>
        <time>2026-05-10T11:41:57Z</time>
      </trkpt>
      <trkpt lat="46.12718" lon="5.68494">
        <ele>1078.2</ele>
        <time>2026-05-10T11:41:58Z</time>
      </trkpt>
      <trkpt lat="46.12716" lon="5.68494">
        <ele>1078.4</ele>
        <time>2026-05-10T11:41:59Z</time>
      </trkpt>
      <trkpt lat="46.12714" lon="5.68494">
        <ele>1078.4</ele>
        <time>2026-05-10T11:42:00Z</time>
      </trkpt>
      <trkpt lat="46.12711" lon="5.68493">
        <ele>1078.8</ele>
        <time>2026-05-10T11:42:01Z</time>
      </trkpt>
      <trkpt lat="46.12709" lon="5.68493">
        <ele>1078.8</ele>
        <time>2026-05-10T11:42:02Z</time>
      </trkpt>
      <trkpt lat="46.12707" lon="5.68493">
        <ele>1079</ele>
        <time>2026-05-10T11:42:03Z</time>
      </trkpt>
      <trkpt lat="46.12705" lon="5.68493">
        <ele>1079</ele>
        <time>2026-05-10T11:42:04Z</time>
      </trkpt>
      <trkpt lat="46.12703" lon="5.68493">
        <ele>1079</ele>
        <time>2026-05-10T11:42:05Z</time>
      </trkpt>
      <trkpt lat="46.12702" lon="5.68493">
        <ele>1079.4</ele>
        <time>2026-05-10T11:42:06Z</time>
      </trkpt>
      <trkpt lat="46.127" lon="5.68493">
        <ele>1079.4</ele>
        <time>2026-05-10T11:42:07Z</time>
      </trkpt>
      <trkpt lat="46.12698" lon="5.68492">
        <ele>1079.4</ele>
        <time>2026-05-10T11:42:08Z</time>
      </trkpt>
      <trkpt lat="46.12697" lon="5.68492">
        <ele>1079.4</ele>
        <time>2026-05-10T11:42:09Z</time>
      </trkpt>
      <trkpt lat="46.12695" lon="5.68492">
        <ele>1079.6</ele>
        <time>2026-05-10T11:42:10Z</time>
      </trkpt>
      <trkpt lat="46.12693" lon="5.68493">
        <ele>1079.8</ele>
        <time>2026-05-10T11:42:11Z</time>
      </trkpt>
      <trkpt lat="46.12691" lon="5.68493">
        <ele>1079.8</ele>
        <time>2026-05-10T11:42:12Z</time>
      </trkpt>
      <trkpt lat="46.1269" lon="5.68493">
        <ele>1080.2</ele>
        <time>2026-05-10T11:42:13Z</time>
      </trkpt>
      <trkpt lat="46.12688" lon="5.68494">
        <ele>1080.2</ele>
        <time>2026-05-10T11:42:14Z</time>
      </trkpt>
      <trkpt lat="46.12687" lon="5.68494">
        <ele>1080.2</ele>
        <time>2026-05-10T11:42:15Z</time>
      </trkpt>
      <trkpt lat="46.12685" lon="5.68494">
        <ele>1080.4</ele>
        <time>2026-05-10T11:42:16Z</time>
      </trkpt>
      <trkpt lat="46.12683" lon="5.68495">
        <ele>1080.8</ele>
        <time>2026-05-10T11:42:17Z</time>
      </trkpt>
      <trkpt lat="46.12682" lon="5.68495">
        <ele>1080.8</ele>
        <time>2026-05-10T11:42:18Z</time>
      </trkpt>
      <trkpt lat="46.1268" lon="5.68496">
        <ele>1081</ele>
        <time>2026-05-10T11:42:19Z</time>
      </trkpt>
      <trkpt lat="46.12678" lon="5.68496">
        <ele>1081</ele>
        <time>2026-05-10T11:42:20Z</time>
      </trkpt>
      <trkpt lat="46.12676" lon="5.68496">
        <ele>1081</ele>
        <time>2026-05-10T11:42:21Z</time>
      </trkpt>
      <trkpt lat="46.12674" lon="5.68497">
        <ele>1081.2</ele>
        <time>2026-05-10T11:42:22Z</time>
      </trkpt>
      <trkpt lat="46.1267" lon="5.68498">
        <ele>1081.4</ele>
        <time>2026-05-10T11:42:23Z</time>
      </trkpt>
      <trkpt lat="46.12669" lon="5.68499">
        <ele>1081.4</ele>
        <time>2026-05-10T11:42:24Z</time>
      </trkpt>
      <trkpt lat="46.12669" lon="5.68499">
        <ele>1081.8</ele>
        <time>2026-05-10T11:42:25Z</time>
      </trkpt>
      <trkpt lat="46.12667" lon="5.68501">
        <ele>1081.8</ele>
        <time>2026-05-10T11:42:26Z</time>
      </trkpt>
      <trkpt lat="46.12665" lon="5.68501">
        <ele>1082</ele>
        <time>2026-05-10T11:42:27Z</time>
      </trkpt>
      <trkpt lat="46.12663" lon="5.68502">
        <ele>1082</ele>
        <time>2026-05-10T11:42:28Z</time>
      </trkpt>
      <trkpt lat="46.12662" lon="5.68503">
        <ele>1082</ele>
        <time>2026-05-10T11:42:29Z</time>
      </trkpt>
      <trkpt lat="46.1266" lon="5.68503">
        <ele>1082</ele>
        <time>2026-05-10T11:42:30Z</time>
      </trkpt>
      <trkpt lat="46.1266" lon="5.68504">
        <ele>1082</ele>
        <time>2026-05-10T11:42:31Z</time>
      </trkpt>
      <trkpt lat="46.12659" lon="5.68503">
        <ele>1082.4</ele>
        <time>2026-05-10T11:42:32Z</time>
      </trkpt>
      <trkpt lat="46.12657" lon="5.68503">
        <ele>1082.4</ele>
        <time>2026-05-10T11:42:33Z</time>
      </trkpt>
      <trkpt lat="46.12657" lon="5.68502">
        <ele>1082.8</ele>
        <time>2026-05-10T11:42:34Z</time>
      </trkpt>
      <trkpt lat="46.12656" lon="5.68501">
        <ele>1082.8</ele>
        <time>2026-05-10T11:42:35Z</time>
      </trkpt>
      <trkpt lat="46.12655" lon="5.68501">
        <ele>1083</ele>
        <time>2026-05-10T11:42:36Z</time>
      </trkpt>
      <trkpt lat="46.12654" lon="5.68501">
        <ele>1083</ele>
        <time>2026-05-10T11:42:37Z</time>
      </trkpt>
      <trkpt lat="46.12652" lon="5.68501">
        <ele>1083.2</ele>
        <time>2026-05-10T11:42:38Z</time>
      </trkpt>
      <trkpt lat="46.12651" lon="5.68501">
        <ele>1083.2</ele>
        <time>2026-05-10T11:42:39Z</time>
      </trkpt>
      <trkpt lat="46.12651" lon="5.68501">
        <ele>1083.2</ele>
        <time>2026-05-10T11:42:40Z</time>
      </trkpt>
      <trkpt lat="46.12651" lon="5.68501">
        <ele>1083.2</ele>
        <time>2026-05-10T11:42:41Z</time>
      </trkpt>
      <trkpt lat="46.1265" lon="5.68501">
        <ele>1083.4</ele>
        <time>2026-05-10T11:42:42Z</time>
      </trkpt>
      <trkpt lat="46.12648" lon="5.68502">
        <ele>1083.4</ele>
        <time>2026-05-10T11:42:43Z</time>
      </trkpt>
      <trkpt lat="46.12646" lon="5.68502">
        <ele>1083.6</ele>
        <time>2026-05-10T11:42:44Z</time>
      </trkpt>
      <trkpt lat="46.12643" lon="5.68503">
        <ele>1083.6</ele>
        <time>2026-05-10T11:42:45Z</time>
      </trkpt>
      <trkpt lat="46.12641" lon="5.68503">
        <ele>1084.2</ele>
        <time>2026-05-10T11:42:46Z</time>
      </trkpt>
      <trkpt lat="46.12638" lon="5.68504">
        <ele>1084.2</ele>
        <time>2026-05-10T11:42:47Z</time>
      </trkpt>
      <trkpt lat="46.12635" lon="5.68504">
        <ele>1084.4</ele>
        <time>2026-05-10T11:42:48Z</time>
      </trkpt>
      <trkpt lat="46.12633" lon="5.68505">
        <ele>1084.8</ele>
        <time>2026-05-10T11:42:49Z</time>
      </trkpt>
      <trkpt lat="46.12632" lon="5.68505">
        <ele>1084.8</ele>
        <time>2026-05-10T11:42:50Z</time>
      </trkpt>
      <trkpt lat="46.1263" lon="5.68506">
        <ele>1084.8</ele>
        <time>2026-05-10T11:42:51Z</time>
      </trkpt>
      <trkpt lat="46.12627" lon="5.68507">
        <ele>1084.8</ele>
        <time>2026-05-10T11:42:52Z</time>
      </trkpt>
      <trkpt lat="46.12625" lon="5.68506">
        <ele>1084.8</ele>
        <time>2026-05-10T11:42:53Z</time>
      </trkpt>
      <trkpt lat="46.12624" lon="5.68506">
        <ele>1085.2</ele>
        <time>2026-05-10T11:42:54Z</time>
      </trkpt>
      <trkpt lat="46.12622" lon="5.68506">
        <ele>1085.2</ele>
        <time>2026-05-10T11:42:55Z</time>
      </trkpt>
      <trkpt lat="46.12622" lon="5.68506">
        <ele>1085.4</ele>
        <time>2026-05-10T11:42:56Z</time>
      </trkpt>
      <trkpt lat="46.12621" lon="5.68506">
        <ele>1085.4</ele>
        <time>2026-05-10T11:42:57Z</time>
      </trkpt>
      <trkpt lat="46.1262" lon="5.68507">
        <ele>1085.8</ele>
        <time>2026-05-10T11:42:58Z</time>
      </trkpt>
      <trkpt lat="46.12618" lon="5.68506">
        <ele>1085.8</ele>
        <time>2026-05-10T11:42:59Z</time>
      </trkpt>
      <trkpt lat="46.12617" lon="5.68506">
        <ele>1085.8</ele>
        <time>2026-05-10T11:43:00Z</time>
      </trkpt>
      <trkpt lat="46.12615" lon="5.68505">
        <ele>1086.2</ele>
        <time>2026-05-10T11:43:01Z</time>
      </trkpt>
      <trkpt lat="46.12613" lon="5.68505">
        <ele>1086.2</ele>
        <time>2026-05-10T11:43:02Z</time>
      </trkpt>
      <trkpt lat="46.12612" lon="5.68505">
        <ele>1086.2</ele>
        <time>2026-05-10T11:43:03Z</time>
      </trkpt>
      <trkpt lat="46.12611" lon="5.68505">
        <ele>1086.4</ele>
        <time>2026-05-10T11:43:04Z</time>
      </trkpt>
      <trkpt lat="46.1261" lon="5.68505">
        <ele>1086.4</ele>
        <time>2026-05-10T11:43:05Z</time>
      </trkpt>
      <trkpt lat="46.12608" lon="5.68505">
        <ele>1086.4</ele>
        <time>2026-05-10T11:43:06Z</time>
      </trkpt>
      <trkpt lat="46.12605" lon="5.68505">
        <ele>1086.4</ele>
        <time>2026-05-10T11:43:07Z</time>
      </trkpt>
      <trkpt lat="46.12604" lon="5.68506">
        <ele>1087</ele>
        <time>2026-05-10T11:43:08Z</time>
      </trkpt>
      <trkpt lat="46.12603" lon="5.68505">
        <ele>1087</ele>
        <time>2026-05-10T11:43:09Z</time>
      </trkpt>
      <trkpt lat="46.12602" lon="5.68505">
        <ele>1087</ele>
        <time>2026-05-10T11:43:10Z</time>
      </trkpt>
      <trkpt lat="46.126" lon="5.68505">
        <ele>1087</ele>
        <time>2026-05-10T11:43:11Z</time>
      </trkpt>
      <trkpt lat="46.126" lon="5.68505">
        <ele>1087.2</ele>
        <time>2026-05-10T11:43:12Z</time>
      </trkpt>
      <trkpt lat="46.12599" lon="5.68506">
        <ele>1087.4</ele>
        <time>2026-05-10T11:43:13Z</time>
      </trkpt>
      <trkpt lat="46.12598" lon="5.68507">
        <ele>1087.4</ele>
        <time>2026-05-10T11:43:14Z</time>
      </trkpt>
      <trkpt lat="46.12596" lon="5.68508">
        <ele>1087.8</ele>
        <time>2026-05-10T11:43:15Z</time>
      </trkpt>
      <trkpt lat="46.12594" lon="5.68508">
        <ele>1087.8</ele>
        <time>2026-05-10T11:43:16Z</time>
      </trkpt>
      <trkpt lat="46.12592" lon="5.68508">
        <ele>1088</ele>
        <time>2026-05-10T11:43:17Z</time>
      </trkpt>
      <trkpt lat="46.12591" lon="5.68508">
        <ele>1088</ele>
        <time>2026-05-10T11:43:18Z</time>
      </trkpt>
      <trkpt lat="46.12589" lon="5.68507">
        <ele>1088.4</ele>
        <time>2026-05-10T11:43:19Z</time>
      </trkpt>
      <trkpt lat="46.12587" lon="5.68507">
        <ele>1088.4</ele>
        <time>2026-05-10T11:43:20Z</time>
      </trkpt>
      <trkpt lat="46.12585" lon="5.68507">
        <ele>1088.6</ele>
        <time>2026-05-10T11:43:21Z</time>
      </trkpt>
      <trkpt lat="46.12583" lon="5.68507">
        <ele>1088.6</ele>
        <time>2026-05-10T11:43:22Z</time>
      </trkpt>
      <trkpt lat="46.12581" lon="5.68507">
        <ele>1089</ele>
        <time>2026-05-10T11:43:23Z</time>
      </trkpt>
      <trkpt lat="46.1258" lon="5.68508">
        <ele>1089</ele>
        <time>2026-05-10T11:43:24Z</time>
      </trkpt>
      <trkpt lat="46.12579" lon="5.68507">
        <ele>1089</ele>
        <time>2026-05-10T11:43:25Z</time>
      </trkpt>
      <trkpt lat="46.12578" lon="5.68507">
        <ele>1089</ele>
        <time>2026-05-10T11:43:26Z</time>
      </trkpt>
      <trkpt lat="46.12575" lon="5.68506">
        <ele>1089.2</ele>
        <time>2026-05-10T11:43:27Z</time>
      </trkpt>
      <trkpt lat="46.12572" lon="5.68506">
        <ele>1089.4</ele>
        <time>2026-05-10T11:43:28Z</time>
      </trkpt>
      <trkpt lat="46.1257" lon="5.68506">
        <ele>1089.4</ele>
        <time>2026-05-10T11:43:29Z</time>
      </trkpt>
      <trkpt lat="46.12569" lon="5.68506">
        <ele>1089.8</ele>
        <time>2026-05-10T11:43:30Z</time>
      </trkpt>
      <trkpt lat="46.12567" lon="5.68506">
        <ele>1090.2</ele>
        <time>2026-05-10T11:43:31Z</time>
      </trkpt>
      <trkpt lat="46.12565" lon="5.68506">
        <ele>1090.4</ele>
        <time>2026-05-10T11:43:32Z</time>
      </trkpt>
      <trkpt lat="46.12562" lon="5.68505">
        <ele>1090.4</ele>
        <time>2026-05-10T11:43:33Z</time>
      </trkpt>
      <trkpt lat="46.1256" lon="5.68506">
        <ele>1090.8</ele>
        <time>2026-05-10T11:43:34Z</time>
      </trkpt>
      <trkpt lat="46.12559" lon="5.68506">
        <ele>1091</ele>
        <time>2026-05-10T11:43:35Z</time>
      </trkpt>
      <trkpt lat="46.12557" lon="5.68506">
        <ele>1091</ele>
        <time>2026-05-10T11:43:36Z</time>
      </trkpt>
      <trkpt lat="46.12554" lon="5.68505">
        <ele>1091.4</ele>
        <time>2026-05-10T11:43:37Z</time>
      </trkpt>
      <trkpt lat="46.12552" lon="5.68505">
        <ele>1091.4</ele>
        <time>2026-05-10T11:43:38Z</time>
      </trkpt>
      <trkpt lat="46.12551" lon="5.68505">
        <ele>1091.4</ele>
        <time>2026-05-10T11:43:39Z</time>
      </trkpt>
      <trkpt lat="46.12549" lon="5.68505">
        <ele>1091.6</ele>
        <time>2026-05-10T11:43:40Z</time>
      </trkpt>
      <trkpt lat="46.12547" lon="5.68504">
        <ele>1091.6</ele>
        <time>2026-05-10T11:43:41Z</time>
      </trkpt>
      <trkpt lat="46.12544" lon="5.68504">
        <ele>1091.8</ele>
        <time>2026-05-10T11:43:42Z</time>
      </trkpt>
      <trkpt lat="46.12541" lon="5.68504">
        <ele>1091.8</ele>
        <time>2026-05-10T11:43:43Z</time>
      </trkpt>
      <trkpt lat="46.12539" lon="5.68503">
        <ele>1092.2</ele>
        <time>2026-05-10T11:43:44Z</time>
      </trkpt>
      <trkpt lat="46.12537" lon="5.68503">
        <ele>1092.2</ele>
        <time>2026-05-10T11:43:45Z</time>
      </trkpt>
      <trkpt lat="46.12536" lon="5.68502">
        <ele>1092.2</ele>
        <time>2026-05-10T11:43:46Z</time>
      </trkpt>
      <trkpt lat="46.12534" lon="5.68502">
        <ele>1092.4</ele>
        <time>2026-05-10T11:43:47Z</time>
      </trkpt>
      <trkpt lat="46.12532" lon="5.68502">
        <ele>1092.4</ele>
        <time>2026-05-10T11:43:48Z</time>
      </trkpt>
      <trkpt lat="46.1253" lon="5.68502">
        <ele>1092.8</ele>
        <time>2026-05-10T11:43:49Z</time>
      </trkpt>
      <trkpt lat="46.12529" lon="5.68502">
        <ele>1092.8</ele>
        <time>2026-05-10T11:43:50Z</time>
      </trkpt>
      <trkpt lat="46.12529" lon="5.68502">
        <ele>1093</ele>
        <time>2026-05-10T11:43:51Z</time>
      </trkpt>
      <trkpt lat="46.12526" lon="5.68502">
        <ele>1093.4</ele>
        <time>2026-05-10T11:43:52Z</time>
      </trkpt>
      <trkpt lat="46.12523" lon="5.68502">
        <ele>1093.4</ele>
        <time>2026-05-10T11:43:53Z</time>
      </trkpt>
      <trkpt lat="46.1252" lon="5.68502">
        <ele>1093.6</ele>
        <time>2026-05-10T11:43:54Z</time>
      </trkpt>
      <trkpt lat="46.12518" lon="5.68502">
        <ele>1093.6</ele>
        <time>2026-05-10T11:43:55Z</time>
      </trkpt>
      <trkpt lat="46.12516" lon="5.68502">
        <ele>1093.8</ele>
        <time>2026-05-10T11:43:56Z</time>
      </trkpt>
      <trkpt lat="46.12515" lon="5.68502">
        <ele>1093.8</ele>
        <time>2026-05-10T11:43:57Z</time>
      </trkpt>
      <trkpt lat="46.12512" lon="5.68502">
        <ele>1094.2</ele>
        <time>2026-05-10T11:43:58Z</time>
      </trkpt>
      <trkpt lat="46.12509" lon="5.68502">
        <ele>1094.2</ele>
        <time>2026-05-10T11:43:59Z</time>
      </trkpt>
      <trkpt lat="46.12508" lon="5.68502">
        <ele>1094.2</ele>
        <time>2026-05-10T11:44:00Z</time>
      </trkpt>
      <trkpt lat="46.12506" lon="5.68501">
        <ele>1094.4</ele>
        <time>2026-05-10T11:44:01Z</time>
      </trkpt>
      <trkpt lat="46.12504" lon="5.68501">
        <ele>1094.4</ele>
        <time>2026-05-10T11:44:02Z</time>
      </trkpt>
      <trkpt lat="46.12503" lon="5.68501">
        <ele>1094.6</ele>
        <time>2026-05-10T11:44:03Z</time>
      </trkpt>
      <trkpt lat="46.12504" lon="5.685">
        <ele>1094.6</ele>
        <time>2026-05-10T11:44:04Z</time>
      </trkpt>
      <trkpt lat="46.12501" lon="5.68501">
        <ele>1094.6</ele>
        <time>2026-05-10T11:44:05Z</time>
      </trkpt>
      <trkpt lat="46.12497" lon="5.68502">
        <ele>1095</ele>
        <time>2026-05-10T11:44:06Z</time>
      </trkpt>
      <trkpt lat="46.12495" lon="5.68502">
        <ele>1095</ele>
        <time>2026-05-10T11:44:07Z</time>
      </trkpt>
      <trkpt lat="46.12492" lon="5.68502">
        <ele>1095</ele>
        <time>2026-05-10T11:44:08Z</time>
      </trkpt>
      <trkpt lat="46.1249" lon="5.68502">
        <ele>1095</ele>
        <time>2026-05-10T11:44:09Z</time>
      </trkpt>
      <trkpt lat="46.12488" lon="5.68501">
        <ele>1095.2</ele>
        <time>2026-05-10T11:44:10Z</time>
      </trkpt>
      <trkpt lat="46.12486" lon="5.68501">
        <ele>1095.2</ele>
        <time>2026-05-10T11:44:11Z</time>
      </trkpt>
      <trkpt lat="46.12483" lon="5.685">
        <ele>1095.2</ele>
        <time>2026-05-10T11:44:12Z</time>
      </trkpt>
      <trkpt lat="46.1248" lon="5.685">
        <ele>1095.4</ele>
        <time>2026-05-10T11:44:13Z</time>
      </trkpt>
      <trkpt lat="46.12478" lon="5.68499">
        <ele>1095.4</ele>
        <time>2026-05-10T11:44:14Z</time>
      </trkpt>
      <trkpt lat="46.12476" lon="5.68499">
        <ele>1095.6</ele>
        <time>2026-05-10T11:44:15Z</time>
      </trkpt>
      <trkpt lat="46.12474" lon="5.68499">
        <ele>1095.6</ele>
        <time>2026-05-10T11:44:16Z</time>
      </trkpt>
      <trkpt lat="46.12471" lon="5.68499">
        <ele>1096</ele>
        <time>2026-05-10T11:44:17Z</time>
      </trkpt>
      <trkpt lat="46.12469" lon="5.685">
        <ele>1096</ele>
        <time>2026-05-10T11:44:18Z</time>
      </trkpt>
      <trkpt lat="46.12468" lon="5.685">
        <ele>1096</ele>
        <time>2026-05-10T11:44:19Z</time>
      </trkpt>
      <trkpt lat="46.12466" lon="5.685">
        <ele>1096</ele>
        <time>2026-05-10T11:44:20Z</time>
      </trkpt>
      <trkpt lat="46.12465" lon="5.685">
        <ele>1096</ele>
        <time>2026-05-10T11:44:21Z</time>
      </trkpt>
      <trkpt lat="46.12463" lon="5.685">
        <ele>1096.4</ele>
        <time>2026-05-10T11:44:22Z</time>
      </trkpt>
      <trkpt lat="46.12462" lon="5.68499">
        <ele>1096.4</ele>
        <time>2026-05-10T11:44:23Z</time>
      </trkpt>
      <trkpt lat="46.1246" lon="5.68499">
        <ele>1096.4</ele>
        <time>2026-05-10T11:44:24Z</time>
      </trkpt>
      <trkpt lat="46.12458" lon="5.68499">
        <ele>1096.6</ele>
        <time>2026-05-10T11:44:25Z</time>
      </trkpt>
      <trkpt lat="46.12457" lon="5.68501">
        <ele>1096.6</ele>
        <time>2026-05-10T11:44:26Z</time>
      </trkpt>
      <trkpt lat="46.12456" lon="5.68503">
        <ele>1097</ele>
        <time>2026-05-10T11:44:27Z</time>
      </trkpt>
      <trkpt lat="46.12454" lon="5.68505">
        <ele>1097</ele>
        <time>2026-05-10T11:44:28Z</time>
      </trkpt>
      <trkpt lat="46.12451" lon="5.68506">
        <ele>1097</ele>
        <time>2026-05-10T11:44:29Z</time>
      </trkpt>
      <trkpt lat="46.12449" lon="5.68507">
        <ele>1097</ele>
        <time>2026-05-10T11:44:30Z</time>
      </trkpt>
      <trkpt lat="46.12447" lon="5.68506">
        <ele>1097.2</ele>
        <time>2026-05-10T11:44:31Z</time>
      </trkpt>
      <trkpt lat="46.12445" lon="5.68506">
        <ele>1097.2</ele>
        <time>2026-05-10T11:44:32Z</time>
      </trkpt>
      <trkpt lat="46.12444" lon="5.68505">
        <ele>1097.2</ele>
        <time>2026-05-10T11:44:33Z</time>
      </trkpt>
      <trkpt lat="46.12442" lon="5.68505">
        <ele>1097.2</ele>
        <time>2026-05-10T11:44:34Z</time>
      </trkpt>
      <trkpt lat="46.1244" lon="5.68504">
        <ele>1097.6</ele>
        <time>2026-05-10T11:44:35Z</time>
      </trkpt>
      <trkpt lat="46.12439" lon="5.68504">
        <ele>1097.8</ele>
        <time>2026-05-10T11:44:36Z</time>
      </trkpt>
      <trkpt lat="46.12438" lon="5.68503">
        <ele>1097.8</ele>
        <time>2026-05-10T11:44:37Z</time>
      </trkpt>
      <trkpt lat="46.12437" lon="5.68503">
        <ele>1097.8</ele>
        <time>2026-05-10T11:44:38Z</time>
      </trkpt>
      <trkpt lat="46.12435" lon="5.68502">
        <ele>1097.8</ele>
        <time>2026-05-10T11:44:39Z</time>
      </trkpt>
      <trkpt lat="46.12432" lon="5.68501">
        <ele>1098</ele>
        <time>2026-05-10T11:44:40Z</time>
      </trkpt>
      <trkpt lat="46.1243" lon="5.68501">
        <ele>1098</ele>
        <time>2026-05-10T11:44:41Z</time>
      </trkpt>
      <trkpt lat="46.12428" lon="5.685">
        <ele>1098.2</ele>
        <time>2026-05-10T11:44:42Z</time>
      </trkpt>
      <trkpt lat="46.12427" lon="5.685">
        <ele>1098.2</ele>
        <time>2026-05-10T11:44:43Z</time>
      </trkpt>
      <trkpt lat="46.12425" lon="5.685">
        <ele>1098.2</ele>
        <time>2026-05-10T11:44:44Z</time>
      </trkpt>
      <trkpt lat="46.12423" lon="5.685">
        <ele>1098.6</ele>
        <time>2026-05-10T11:44:45Z</time>
      </trkpt>
      <trkpt lat="46.12423" lon="5.68499">
        <ele>1098.8</ele>
        <time>2026-05-10T11:44:46Z</time>
      </trkpt>
      <trkpt lat="46.12421" lon="5.68499">
        <ele>1098.8</ele>
        <time>2026-05-10T11:44:47Z</time>
      </trkpt>
      <trkpt lat="46.12418" lon="5.685">
        <ele>1098.8</ele>
        <time>2026-05-10T11:44:48Z</time>
      </trkpt>
      <trkpt lat="46.12416" lon="5.685">
        <ele>1099.2</ele>
        <time>2026-05-10T11:44:49Z</time>
      </trkpt>
      <trkpt lat="46.12413" lon="5.68499">
        <ele>1099.2</ele>
        <time>2026-05-10T11:44:50Z</time>
      </trkpt>
      <trkpt lat="46.12411" lon="5.68499">
        <ele>1099.6</ele>
        <time>2026-05-10T11:44:51Z</time>
      </trkpt>
      <trkpt lat="46.12408" lon="5.68498">
        <ele>1099.6</ele>
        <time>2026-05-10T11:44:52Z</time>
      </trkpt>
      <trkpt lat="46.12406" lon="5.68498">
        <ele>1099.6</ele>
        <time>2026-05-10T11:44:53Z</time>
      </trkpt>
      <trkpt lat="46.12404" lon="5.68498">
        <ele>1099.8</ele>
        <time>2026-05-10T11:44:54Z</time>
      </trkpt>
      <trkpt lat="46.12402" lon="5.68498">
        <ele>1100</ele>
        <time>2026-05-10T11:44:55Z</time>
      </trkpt>
      <trkpt lat="46.12399" lon="5.68497">
        <ele>1100</ele>
        <time>2026-05-10T11:44:56Z</time>
      </trkpt>
      <trkpt lat="46.12397" lon="5.68497">
        <ele>1100</ele>
        <time>2026-05-10T11:44:57Z</time>
      </trkpt>
      <trkpt lat="46.12395" lon="5.68497">
        <ele>1100</ele>
        <time>2026-05-10T11:44:58Z</time>
      </trkpt>
      <trkpt lat="46.12393" lon="5.68496">
        <ele>1100.4</ele>
        <time>2026-05-10T11:44:59Z</time>
      </trkpt>
      <trkpt lat="46.12391" lon="5.68496">
        <ele>1100.4</ele>
        <time>2026-05-10T11:45:00Z</time>
      </trkpt>
      <trkpt lat="46.12389" lon="5.68497">
        <ele>1100.4</ele>
        <time>2026-05-10T11:45:01Z</time>
      </trkpt>
      <trkpt lat="46.12387" lon="5.68497">
        <ele>1100.6</ele>
        <time>2026-05-10T11:45:02Z</time>
      </trkpt>
      <trkpt lat="46.12385" lon="5.68497">
        <ele>1100.6</ele>
        <time>2026-05-10T11:45:03Z</time>
      </trkpt>
      <trkpt lat="46.12383" lon="5.68497">
        <ele>1100.6</ele>
        <time>2026-05-10T11:45:04Z</time>
      </trkpt>
      <trkpt lat="46.1238" lon="5.68497">
        <ele>1100.6</ele>
        <time>2026-05-10T11:45:05Z</time>
      </trkpt>
      <trkpt lat="46.12377" lon="5.68497">
        <ele>1101</ele>
        <time>2026-05-10T11:45:06Z</time>
      </trkpt>
      <trkpt lat="46.12375" lon="5.68497">
        <ele>1101</ele>
        <time>2026-05-10T11:45:07Z</time>
      </trkpt>
      <trkpt lat="46.12373" lon="5.68496">
        <ele>1101.2</ele>
        <time>2026-05-10T11:45:08Z</time>
      </trkpt>
      <trkpt lat="46.12371" lon="5.68493">
        <ele>1101.2</ele>
        <time>2026-05-10T11:45:09Z</time>
      </trkpt>
      <trkpt lat="46.12369" lon="5.68491">
        <ele>1101.4</ele>
        <time>2026-05-10T11:45:10Z</time>
      </trkpt>
      <trkpt lat="46.12367" lon="5.68491">
        <ele>1101.4</ele>
        <time>2026-05-10T11:45:11Z</time>
      </trkpt>
      <trkpt lat="46.12366" lon="5.68491">
        <ele>1101.8</ele>
        <time>2026-05-10T11:45:12Z</time>
      </trkpt>
      <trkpt lat="46.12365" lon="5.68492">
        <ele>1101.8</ele>
        <time>2026-05-10T11:45:13Z</time>
      </trkpt>
      <trkpt lat="46.12363" lon="5.68492">
        <ele>1102</ele>
        <time>2026-05-10T11:45:14Z</time>
      </trkpt>
      <trkpt lat="46.12361" lon="5.68492">
        <ele>1102</ele>
        <time>2026-05-10T11:45:15Z</time>
      </trkpt>
      <trkpt lat="46.12359" lon="5.68492">
        <ele>1102</ele>
        <time>2026-05-10T11:45:16Z</time>
      </trkpt>
      <trkpt lat="46.12357" lon="5.68493">
        <ele>1102.2</ele>
        <time>2026-05-10T11:45:17Z</time>
      </trkpt>
      <trkpt lat="46.12355" lon="5.68494">
        <ele>1102.2</ele>
        <time>2026-05-10T11:45:18Z</time>
      </trkpt>
      <trkpt lat="46.12353" lon="5.68495">
        <ele>1102.2</ele>
        <time>2026-05-10T11:45:19Z</time>
      </trkpt>
      <trkpt lat="46.12352" lon="5.68495">
        <ele>1102.4</ele>
        <time>2026-05-10T11:45:20Z</time>
      </trkpt>
      <trkpt lat="46.1235" lon="5.68495">
        <ele>1102.4</ele>
        <time>2026-05-10T11:45:21Z</time>
      </trkpt>
      <trkpt lat="46.12347" lon="5.68495">
        <ele>1102.4</ele>
        <time>2026-05-10T11:45:22Z</time>
      </trkpt>
      <trkpt lat="46.12344" lon="5.68495">
        <ele>1102.6</ele>
        <time>2026-05-10T11:45:23Z</time>
      </trkpt>
      <trkpt lat="46.12342" lon="5.68495">
        <ele>1102.6</ele>
        <time>2026-05-10T11:45:24Z</time>
      </trkpt>
      <trkpt lat="46.12341" lon="5.68495">
        <ele>1103</ele>
        <time>2026-05-10T11:45:25Z</time>
      </trkpt>
      <trkpt lat="46.1234" lon="5.68495">
        <ele>1103.4</ele>
        <time>2026-05-10T11:45:26Z</time>
      </trkpt>
      <trkpt lat="46.12339" lon="5.68496">
        <ele>1103.6</ele>
        <time>2026-05-10T11:45:27Z</time>
      </trkpt>
      <trkpt lat="46.12337" lon="5.68496">
        <ele>1103.8</ele>
        <time>2026-05-10T11:45:28Z</time>
      </trkpt>
      <trkpt lat="46.12336" lon="5.68496">
        <ele>1104</ele>
        <time>2026-05-10T11:45:29Z</time>
      </trkpt>
      <trkpt lat="46.12335" lon="5.68496">
        <ele>1104</ele>
        <time>2026-05-10T11:45:30Z</time>
      </trkpt>
      <trkpt lat="46.12333" lon="5.68496">
        <ele>1104.2</ele>
        <time>2026-05-10T11:45:31Z</time>
      </trkpt>
      <trkpt lat="46.12331" lon="5.68496">
        <ele>1104.2</ele>
        <time>2026-05-10T11:45:32Z</time>
      </trkpt>
      <trkpt lat="46.12328" lon="5.68496">
        <ele>1104.2</ele>
        <time>2026-05-10T11:45:33Z</time>
      </trkpt>
      <trkpt lat="46.12326" lon="5.68496">
        <ele>1104.4</ele>
        <time>2026-05-10T11:45:34Z</time>
      </trkpt>
      <trkpt lat="46.12323" lon="5.68496">
        <ele>1104.4</ele>
        <time>2026-05-10T11:45:35Z</time>
      </trkpt>
      <trkpt lat="46.12322" lon="5.68496">
        <ele>1104.4</ele>
        <time>2026-05-10T11:45:36Z</time>
      </trkpt>
      <trkpt lat="46.12321" lon="5.68496">
        <ele>1104.4</ele>
        <time>2026-05-10T11:45:37Z</time>
      </trkpt>
      <trkpt lat="46.1232" lon="5.68495">
        <ele>1104.8</ele>
        <time>2026-05-10T11:45:38Z</time>
      </trkpt>
      <trkpt lat="46.12318" lon="5.68495">
        <ele>1104.8</ele>
        <time>2026-05-10T11:45:39Z</time>
      </trkpt>
      <trkpt lat="46.12317" lon="5.68496">
        <ele>1104.8</ele>
        <time>2026-05-10T11:45:40Z</time>
      </trkpt>
      <trkpt lat="46.12314" lon="5.68495">
        <ele>1105</ele>
        <time>2026-05-10T11:45:41Z</time>
      </trkpt>
      <trkpt lat="46.12311" lon="5.68494">
        <ele>1105</ele>
        <time>2026-05-10T11:45:42Z</time>
      </trkpt>
      <trkpt lat="46.12309" lon="5.68493">
        <ele>1105.4</ele>
        <time>2026-05-10T11:45:43Z</time>
      </trkpt>
      <trkpt lat="46.12307" lon="5.68493">
        <ele>1105.4</ele>
        <time>2026-05-10T11:45:44Z</time>
      </trkpt>
      <trkpt lat="46.12305" lon="5.68492">
        <ele>1105.8</ele>
        <time>2026-05-10T11:45:45Z</time>
      </trkpt>
      <trkpt lat="46.12304" lon="5.68492">
        <ele>1105.8</ele>
        <time>2026-05-10T11:45:46Z</time>
      </trkpt>
      <trkpt lat="46.12301" lon="5.68492">
        <ele>1105.8</ele>
        <time>2026-05-10T11:45:47Z</time>
      </trkpt>
      <trkpt lat="46.12298" lon="5.68492">
        <ele>1106</ele>
        <time>2026-05-10T11:45:48Z</time>
      </trkpt>
      <trkpt lat="46.12296" lon="5.68492">
        <ele>1106</ele>
        <time>2026-05-10T11:45:49Z</time>
      </trkpt>
      <trkpt lat="46.12295" lon="5.68492">
        <ele>1106</ele>
        <time>2026-05-10T11:45:50Z</time>
      </trkpt>
      <trkpt lat="46.12293" lon="5.68492">
        <ele>1106</ele>
        <time>2026-05-10T11:45:51Z</time>
      </trkpt>
      <trkpt lat="46.12291" lon="5.68492">
        <ele>1106.2</ele>
        <time>2026-05-10T11:45:52Z</time>
      </trkpt>
      <trkpt lat="46.12288" lon="5.68491">
        <ele>1106.2</ele>
        <time>2026-05-10T11:45:53Z</time>
      </trkpt>
      <trkpt lat="46.12286" lon="5.68491">
        <ele>1106.4</ele>
        <time>2026-05-10T11:45:54Z</time>
      </trkpt>
      <trkpt lat="46.12285" lon="5.68491">
        <ele>1106.6</ele>
        <time>2026-05-10T11:45:55Z</time>
      </trkpt>
      <trkpt lat="46.12283" lon="5.6849">
        <ele>1106.6</ele>
        <time>2026-05-10T11:45:56Z</time>
      </trkpt>
      <trkpt lat="46.12282" lon="5.6849">
        <ele>1106.8</ele>
        <time>2026-05-10T11:45:57Z</time>
      </trkpt>
      <trkpt lat="46.12281" lon="5.68491">
        <ele>1106.8</ele>
        <time>2026-05-10T11:45:58Z</time>
      </trkpt>
      <trkpt lat="46.12279" lon="5.68492">
        <ele>1107</ele>
        <time>2026-05-10T11:45:59Z</time>
      </trkpt>
      <trkpt lat="46.12279" lon="5.68492">
        <ele>1107</ele>
        <time>2026-05-10T11:46:00Z</time>
      </trkpt>
      <trkpt lat="46.12279" lon="5.68493">
        <ele>1107.2</ele>
        <time>2026-05-10T11:46:01Z</time>
      </trkpt>
      <trkpt lat="46.12277" lon="5.68493">
        <ele>1107.2</ele>
        <time>2026-05-10T11:46:02Z</time>
      </trkpt>
      <trkpt lat="46.12276" lon="5.68493">
        <ele>1107.2</ele>
        <time>2026-05-10T11:46:03Z</time>
      </trkpt>
      <trkpt lat="46.12274" lon="5.68493">
        <ele>1107.6</ele>
        <time>2026-05-10T11:46:04Z</time>
      </trkpt>
      <trkpt lat="46.12273" lon="5.68493">
        <ele>1108</ele>
        <time>2026-05-10T11:46:05Z</time>
      </trkpt>
      <trkpt lat="46.12271" lon="5.68493">
        <ele>1108.2</ele>
        <time>2026-05-10T11:46:06Z</time>
      </trkpt>
      <trkpt lat="46.12269" lon="5.68493">
        <ele>1108.2</ele>
        <time>2026-05-10T11:46:07Z</time>
      </trkpt>
      <trkpt lat="46.12268" lon="5.68494">
        <ele>1108.6</ele>
        <time>2026-05-10T11:46:08Z</time>
      </trkpt>
      <trkpt lat="46.12266" lon="5.68494">
        <ele>1108.6</ele>
        <time>2026-05-10T11:46:09Z</time>
      </trkpt>
      <trkpt lat="46.12264" lon="5.68494">
        <ele>1108.8</ele>
        <time>2026-05-10T11:46:10Z</time>
      </trkpt>
      <trkpt lat="46.12262" lon="5.68493">
        <ele>1108.8</ele>
        <time>2026-05-10T11:46:11Z</time>
      </trkpt>
      <trkpt lat="46.1226" lon="5.68493">
        <ele>1109</ele>
        <time>2026-05-10T11:46:12Z</time>
      </trkpt>
      <trkpt lat="46.12259" lon="5.68493">
        <ele>1109</ele>
        <time>2026-05-10T11:46:13Z</time>
      </trkpt>
      <trkpt lat="46.12257" lon="5.68493">
        <ele>1109.2</ele>
        <time>2026-05-10T11:46:14Z</time>
      </trkpt>
      <trkpt lat="46.12255" lon="5.68493">
        <ele>1109.2</ele>
        <time>2026-05-10T11:46:15Z</time>
      </trkpt>
      <trkpt lat="46.12253" lon="5.68493">
        <ele>1109.4</ele>
        <time>2026-05-10T11:46:16Z</time>
      </trkpt>
      <trkpt lat="46.12252" lon="5.68493">
        <ele>1109.4</ele>
        <time>2026-05-10T11:46:17Z</time>
      </trkpt>
      <trkpt lat="46.1225" lon="5.68493">
        <ele>1109.4</ele>
        <time>2026-05-10T11:46:18Z</time>
      </trkpt>
      <trkpt lat="46.12248" lon="5.68494">
        <ele>1109.8</ele>
        <time>2026-05-10T11:46:19Z</time>
      </trkpt>
      <trkpt lat="46.12246" lon="5.68494">
        <ele>1109.8</ele>
        <time>2026-05-10T11:46:20Z</time>
      </trkpt>
      <trkpt lat="46.12244" lon="5.68495">
        <ele>1110</ele>
        <time>2026-05-10T11:46:21Z</time>
      </trkpt>
      <trkpt lat="46.12242" lon="5.68496">
        <ele>1110</ele>
        <time>2026-05-10T11:46:22Z</time>
      </trkpt>
      <trkpt lat="46.1224" lon="5.68496">
        <ele>1110</ele>
        <time>2026-05-10T11:46:23Z</time>
      </trkpt>
      <trkpt lat="46.12238" lon="5.68497">
        <ele>1110</ele>
        <time>2026-05-10T11:46:24Z</time>
      </trkpt>
      <trkpt lat="46.12236" lon="5.68497">
        <ele>1110</ele>
        <time>2026-05-10T11:46:25Z</time>
      </trkpt>
      <trkpt lat="46.12235" lon="5.68497">
        <ele>1110.4</ele>
        <time>2026-05-10T11:46:26Z</time>
      </trkpt>
      <trkpt lat="46.12233" lon="5.68496">
        <ele>1110.4</ele>
        <time>2026-05-10T11:46:27Z</time>
      </trkpt>
      <trkpt lat="46.12231" lon="5.68496">
        <ele>1110.4</ele>
        <time>2026-05-10T11:46:28Z</time>
      </trkpt>
      <trkpt lat="46.12229" lon="5.68496">
        <ele>1110.4</ele>
        <time>2026-05-10T11:46:29Z</time>
      </trkpt>
      <trkpt lat="46.12227" lon="5.68496">
        <ele>1110.6</ele>
        <time>2026-05-10T11:46:30Z</time>
      </trkpt>
      <trkpt lat="46.12225" lon="5.68496">
        <ele>1110.6</ele>
        <time>2026-05-10T11:46:31Z</time>
      </trkpt>
      <trkpt lat="46.12223" lon="5.68496">
        <ele>1110.6</ele>
        <time>2026-05-10T11:46:32Z</time>
      </trkpt>
      <trkpt lat="46.12222" lon="5.68496">
        <ele>1110.8</ele>
        <time>2026-05-10T11:46:33Z</time>
      </trkpt>
      <trkpt lat="46.1222" lon="5.68495">
        <ele>1111.2</ele>
        <time>2026-05-10T11:46:34Z</time>
      </trkpt>
      <trkpt lat="46.12218" lon="5.68494">
        <ele>1111.2</ele>
        <time>2026-05-10T11:46:35Z</time>
      </trkpt>
      <trkpt lat="46.12217" lon="5.68493">
        <ele>1111.4</ele>
        <time>2026-05-10T11:46:36Z</time>
      </trkpt>
      <trkpt lat="46.12215" lon="5.68491">
        <ele>1111.8</ele>
        <time>2026-05-10T11:46:37Z</time>
      </trkpt>
      <trkpt lat="46.12214" lon="5.68491">
        <ele>1112</ele>
        <time>2026-05-10T11:46:38Z</time>
      </trkpt>
      <trkpt lat="46.12214" lon="5.68491">
        <ele>1112</ele>
        <time>2026-05-10T11:46:39Z</time>
      </trkpt>
      <trkpt lat="46.12211" lon="5.68491">
        <ele>1112.2</ele>
        <time>2026-05-10T11:46:40Z</time>
      </trkpt>
      <trkpt lat="46.12209" lon="5.68492">
        <ele>1112.2</ele>
        <time>2026-05-10T11:46:41Z</time>
      </trkpt>
      <trkpt lat="46.12206" lon="5.68492">
        <ele>1112.6</ele>
        <time>2026-05-10T11:46:42Z</time>
      </trkpt>
      <trkpt lat="46.12205" lon="5.68492">
        <ele>1112.8</ele>
        <time>2026-05-10T11:46:43Z</time>
      </trkpt>
      <trkpt lat="46.12204" lon="5.68492">
        <ele>1112.8</ele>
        <time>2026-05-10T11:46:44Z</time>
      </trkpt>
      <trkpt lat="46.12203" lon="5.68492">
        <ele>1113.2</ele>
        <time>2026-05-10T11:46:45Z</time>
      </trkpt>
      <trkpt lat="46.12203" lon="5.68491">
        <ele>1113.2</ele>
        <time>2026-05-10T11:46:46Z</time>
      </trkpt>
      <trkpt lat="46.12201" lon="5.68491">
        <ele>1113.4</ele>
        <time>2026-05-10T11:46:47Z</time>
      </trkpt>
      <trkpt lat="46.122" lon="5.68492">
        <ele>1113.6</ele>
        <time>2026-05-10T11:46:48Z</time>
      </trkpt>
      <trkpt lat="46.12198" lon="5.68494">
        <ele>1113.6</ele>
        <time>2026-05-10T11:46:49Z</time>
      </trkpt>
      <trkpt lat="46.12196" lon="5.68496">
        <ele>1114</ele>
        <time>2026-05-10T11:46:50Z</time>
      </trkpt>
      <trkpt lat="46.12196" lon="5.68497">
        <ele>1114.2</ele>
        <time>2026-05-10T11:46:51Z</time>
      </trkpt>
      <trkpt lat="46.12195" lon="5.68496">
        <ele>1114.2</ele>
        <time>2026-05-10T11:46:52Z</time>
      </trkpt>
      <trkpt lat="46.12194" lon="5.68496">
        <ele>1114.2</ele>
        <time>2026-05-10T11:46:53Z</time>
      </trkpt>
      <trkpt lat="46.12193" lon="5.68497">
        <ele>1114.8</ele>
        <time>2026-05-10T11:46:54Z</time>
      </trkpt>
      <trkpt lat="46.1219" lon="5.68498">
        <ele>1114.8</ele>
        <time>2026-05-10T11:46:55Z</time>
      </trkpt>
      <trkpt lat="46.12188" lon="5.68499">
        <ele>1114.8</ele>
        <time>2026-05-10T11:46:56Z</time>
      </trkpt>
      <trkpt lat="46.12187" lon="5.685">
        <ele>1115</ele>
        <time>2026-05-10T11:46:57Z</time>
      </trkpt>
      <trkpt lat="46.12186" lon="5.685">
        <ele>1115</ele>
        <time>2026-05-10T11:46:58Z</time>
      </trkpt>
      <trkpt lat="46.12185" lon="5.68501">
        <ele>1115</ele>
        <time>2026-05-10T11:46:59Z</time>
      </trkpt>
      <trkpt lat="46.12184" lon="5.68502">
        <ele>1115.4</ele>
        <time>2026-05-10T11:47:00Z</time>
      </trkpt>
      <trkpt lat="46.12183" lon="5.68502">
        <ele>1115.4</ele>
        <time>2026-05-10T11:47:01Z</time>
      </trkpt>
      <trkpt lat="46.12182" lon="5.68503">
        <ele>1115.6</ele>
        <time>2026-05-10T11:47:02Z</time>
      </trkpt>
      <trkpt lat="46.1218" lon="5.68503">
        <ele>1115.6</ele>
        <time>2026-05-10T11:47:03Z</time>
      </trkpt>
      <trkpt lat="46.12179" lon="5.68503">
        <ele>1115.8</ele>
        <time>2026-05-10T11:47:04Z</time>
      </trkpt>
      <trkpt lat="46.12177" lon="5.68504">
        <ele>1116</ele>
        <time>2026-05-10T11:47:05Z</time>
      </trkpt>
      <trkpt lat="46.12175" lon="5.68505">
        <ele>1116.4</ele>
        <time>2026-05-10T11:47:06Z</time>
      </trkpt>
      <trkpt lat="46.12173" lon="5.68506">
        <ele>1116.4</ele>
        <time>2026-05-10T11:47:07Z</time>
      </trkpt>
      <trkpt lat="46.12172" lon="5.68507">
        <ele>1116.6</ele>
        <time>2026-05-10T11:47:08Z</time>
      </trkpt>
      <trkpt lat="46.1217" lon="5.68508">
        <ele>1116.6</ele>
        <time>2026-05-10T11:47:09Z</time>
      </trkpt>
      <trkpt lat="46.12168" lon="5.68509">
        <ele>1117</ele>
        <time>2026-05-10T11:47:10Z</time>
      </trkpt>
      <trkpt lat="46.12166" lon="5.6851">
        <ele>1117.2</ele>
        <time>2026-05-10T11:47:11Z</time>
      </trkpt>
      <trkpt lat="46.12164" lon="5.6851">
        <ele>1117.2</ele>
        <time>2026-05-10T11:47:12Z</time>
      </trkpt>
      <trkpt lat="46.12163" lon="5.68511">
        <ele>1117.6</ele>
        <time>2026-05-10T11:47:13Z</time>
      </trkpt>
      <trkpt lat="46.12161" lon="5.68513">
        <ele>1117.6</ele>
        <time>2026-05-10T11:47:14Z</time>
      </trkpt>
      <trkpt lat="46.12159" lon="5.68513">
        <ele>1117.8</ele>
        <time>2026-05-10T11:47:15Z</time>
      </trkpt>
      <trkpt lat="46.12157" lon="5.68513">
        <ele>1117.8</ele>
        <time>2026-05-10T11:47:16Z</time>
      </trkpt>
      <trkpt lat="46.12156" lon="5.68513">
        <ele>1117.8</ele>
        <time>2026-05-10T11:47:17Z</time>
      </trkpt>
      <trkpt lat="46.12154" lon="5.68513">
        <ele>1118.2</ele>
        <time>2026-05-10T11:47:18Z</time>
      </trkpt>
      <trkpt lat="46.12153" lon="5.68514">
        <ele>1118.2</ele>
        <time>2026-05-10T11:47:19Z</time>
      </trkpt>
      <trkpt lat="46.12151" lon="5.68514">
        <ele>1118.8</ele>
        <time>2026-05-10T11:47:20Z</time>
      </trkpt>
      <trkpt lat="46.1215" lon="5.68515">
        <ele>1118.8</ele>
        <time>2026-05-10T11:47:21Z</time>
      </trkpt>
      <trkpt lat="46.12148" lon="5.68516">
        <ele>1118.8</ele>
        <time>2026-05-10T11:47:22Z</time>
      </trkpt>
      <trkpt lat="46.12146" lon="5.68516">
        <ele>1118.8</ele>
        <time>2026-05-10T11:47:23Z</time>
      </trkpt>
      <trkpt lat="46.12145" lon="5.68516">
        <ele>1119.2</ele>
        <time>2026-05-10T11:47:24Z</time>
      </trkpt>
      <trkpt lat="46.12143" lon="5.68516">
        <ele>1119.2</ele>
        <time>2026-05-10T11:47:25Z</time>
      </trkpt>
      <trkpt lat="46.12141" lon="5.68516">
        <ele>1119.6</ele>
        <time>2026-05-10T11:47:26Z</time>
      </trkpt>
      <trkpt lat="46.12139" lon="5.68517">
        <ele>1119.6</ele>
        <time>2026-05-10T11:47:27Z</time>
      </trkpt>
      <trkpt lat="46.12137" lon="5.68518">
        <ele>1119.8</ele>
        <time>2026-05-10T11:47:28Z</time>
      </trkpt>
      <trkpt lat="46.12135" lon="5.68519">
        <ele>1120.2</ele>
        <time>2026-05-10T11:47:29Z</time>
      </trkpt>
      <trkpt lat="46.12134" lon="5.6852">
        <ele>1120.2</ele>
        <time>2026-05-10T11:47:30Z</time>
      </trkpt>
      <trkpt lat="46.12132" lon="5.6852">
        <ele>1120.2</ele>
        <time>2026-05-10T11:47:31Z</time>
      </trkpt>
      <trkpt lat="46.1213" lon="5.68521">
        <ele>1120.4</ele>
        <time>2026-05-10T11:47:32Z</time>
      </trkpt>
      <trkpt lat="46.12129" lon="5.68522">
        <ele>1120.4</ele>
        <time>2026-05-10T11:47:33Z</time>
      </trkpt>
      <trkpt lat="46.12127" lon="5.68522">
        <ele>1120.6</ele>
        <time>2026-05-10T11:47:34Z</time>
      </trkpt>
      <trkpt lat="46.12125" lon="5.68523">
        <ele>1120.6</ele>
        <time>2026-05-10T11:47:35Z</time>
      </trkpt>
      <trkpt lat="46.12123" lon="5.68524">
        <ele>1120.8</ele>
        <time>2026-05-10T11:47:36Z</time>
      </trkpt>
      <trkpt lat="46.12121" lon="5.68524">
        <ele>1120.8</ele>
        <time>2026-05-10T11:47:37Z</time>
      </trkpt>
      <trkpt lat="46.12119" lon="5.68524">
        <ele>1121.2</ele>
        <time>2026-05-10T11:47:38Z</time>
      </trkpt>
      <trkpt lat="46.12118" lon="5.68525">
        <ele>1121.4</ele>
        <time>2026-05-10T11:47:39Z</time>
      </trkpt>
      <trkpt lat="46.12116" lon="5.68525">
        <ele>1121.4</ele>
        <time>2026-05-10T11:47:40Z</time>
      </trkpt>
      <trkpt lat="46.12114" lon="5.68525">
        <ele>1121.4</ele>
        <time>2026-05-10T11:47:41Z</time>
      </trkpt>
      <trkpt lat="46.12112" lon="5.68526">
        <ele>1121.6</ele>
        <time>2026-05-10T11:47:42Z</time>
      </trkpt>
      <trkpt lat="46.1211" lon="5.68526">
        <ele>1121.6</ele>
        <time>2026-05-10T11:47:43Z</time>
      </trkpt>
      <trkpt lat="46.12109" lon="5.68526">
        <ele>1121.8</ele>
        <time>2026-05-10T11:47:44Z</time>
      </trkpt>
      <trkpt lat="46.12107" lon="5.68527">
        <ele>1121.8</ele>
        <time>2026-05-10T11:47:45Z</time>
      </trkpt>
      <trkpt lat="46.12105" lon="5.68527">
        <ele>1122.2</ele>
        <time>2026-05-10T11:47:46Z</time>
      </trkpt>
      <trkpt lat="46.12102" lon="5.68528">
        <ele>1122.2</ele>
        <time>2026-05-10T11:47:47Z</time>
      </trkpt>
      <trkpt lat="46.12101" lon="5.68528">
        <ele>1122.4</ele>
        <time>2026-05-10T11:47:48Z</time>
      </trkpt>
      <trkpt lat="46.12099" lon="5.68528">
        <ele>1122.4</ele>
        <time>2026-05-10T11:47:49Z</time>
      </trkpt>
      <trkpt lat="46.12097" lon="5.68528">
        <ele>1122.8</ele>
        <time>2026-05-10T11:47:50Z</time>
      </trkpt>
      <trkpt lat="46.12096" lon="5.68528">
        <ele>1122.8</ele>
        <time>2026-05-10T11:47:51Z</time>
      </trkpt>
      <trkpt lat="46.12095" lon="5.68528">
        <ele>1123.2</ele>
        <time>2026-05-10T11:47:52Z</time>
      </trkpt>
      <trkpt lat="46.12093" lon="5.68527">
        <ele>1123.4</ele>
        <time>2026-05-10T11:47:53Z</time>
      </trkpt>
      <trkpt lat="46.12091" lon="5.68527">
        <ele>1123.4</ele>
        <time>2026-05-10T11:47:54Z</time>
      </trkpt>
      <trkpt lat="46.12089" lon="5.68525">
        <ele>1123.6</ele>
        <time>2026-05-10T11:47:55Z</time>
      </trkpt>
      <trkpt lat="46.12087" lon="5.68524">
        <ele>1123.6</ele>
        <time>2026-05-10T11:47:56Z</time>
      </trkpt>
      <trkpt lat="46.12087" lon="5.68524">
        <ele>1124</ele>
        <time>2026-05-10T11:47:57Z</time>
      </trkpt>
      <trkpt lat="46.12086" lon="5.68523">
        <ele>1124</ele>
        <time>2026-05-10T11:47:58Z</time>
      </trkpt>
      <trkpt lat="46.12085" lon="5.68522">
        <ele>1124.2</ele>
        <time>2026-05-10T11:47:59Z</time>
      </trkpt>
      <trkpt lat="46.12083" lon="5.68522">
        <ele>1124.2</ele>
        <time>2026-05-10T11:48:00Z</time>
      </trkpt>
      <trkpt lat="46.12081" lon="5.68522">
        <ele>1124.4</ele>
        <time>2026-05-10T11:48:01Z</time>
      </trkpt>
      <trkpt lat="46.12079" lon="5.68522">
        <ele>1124.4</ele>
        <time>2026-05-10T11:48:02Z</time>
      </trkpt>
      <trkpt lat="46.12078" lon="5.68522">
        <ele>1124.8</ele>
        <time>2026-05-10T11:48:03Z</time>
      </trkpt>
      <trkpt lat="46.12077" lon="5.68522">
        <ele>1124.8</ele>
        <time>2026-05-10T11:48:04Z</time>
      </trkpt>
      <trkpt lat="46.12076" lon="5.68522">
        <ele>1125</ele>
        <time>2026-05-10T11:48:05Z</time>
      </trkpt>
      <trkpt lat="46.12074" lon="5.68521">
        <ele>1125</ele>
        <time>2026-05-10T11:48:06Z</time>
      </trkpt>
      <trkpt lat="46.12073" lon="5.6852">
        <ele>1125</ele>
        <time>2026-05-10T11:48:07Z</time>
      </trkpt>
      <trkpt lat="46.12072" lon="5.68518">
        <ele>1125</ele>
        <time>2026-05-10T11:48:08Z</time>
      </trkpt>
      <trkpt lat="46.12071" lon="5.68517">
        <ele>1125.2</ele>
        <time>2026-05-10T11:48:09Z</time>
      </trkpt>
      <trkpt lat="46.12069" lon="5.68516">
        <ele>1125.2</ele>
        <time>2026-05-10T11:48:10Z</time>
      </trkpt>
      <trkpt lat="46.12068" lon="5.68516">
        <ele>1125.4</ele>
        <time>2026-05-10T11:48:11Z</time>
      </trkpt>
      <trkpt lat="46.12064" lon="5.68515">
        <ele>1125.4</ele>
        <time>2026-05-10T11:48:12Z</time>
      </trkpt>
      <trkpt lat="46.12062" lon="5.68515">
        <ele>1125.4</ele>
        <time>2026-05-10T11:48:13Z</time>
      </trkpt>
      <trkpt lat="46.1206" lon="5.68515">
        <ele>1125.6</ele>
        <time>2026-05-10T11:48:14Z</time>
      </trkpt>
      <trkpt lat="46.12058" lon="5.68515">
        <ele>1125.6</ele>
        <time>2026-05-10T11:48:15Z</time>
      </trkpt>
      <trkpt lat="46.12055" lon="5.68515">
        <ele>1125.6</ele>
        <time>2026-05-10T11:48:16Z</time>
      </trkpt>
      <trkpt lat="46.12053" lon="5.68515">
        <ele>1125.8</ele>
        <time>2026-05-10T11:48:17Z</time>
      </trkpt>
      <trkpt lat="46.12052" lon="5.68516">
        <ele>1125.8</ele>
        <time>2026-05-10T11:48:18Z</time>
      </trkpt>
      <trkpt lat="46.1205" lon="5.68516">
        <ele>1126.2</ele>
        <time>2026-05-10T11:48:19Z</time>
      </trkpt>
      <trkpt lat="46.12048" lon="5.68517">
        <ele>1126.2</ele>
        <time>2026-05-10T11:48:20Z</time>
      </trkpt>
      <trkpt lat="46.12046" lon="5.68517">
        <ele>1126.2</ele>
        <time>2026-05-10T11:48:21Z</time>
      </trkpt>
      <trkpt lat="46.12044" lon="5.68517">
        <ele>1126.8</ele>
        <time>2026-05-10T11:48:22Z</time>
      </trkpt>
      <trkpt lat="46.12043" lon="5.68517">
        <ele>1127</ele>
        <time>2026-05-10T11:48:23Z</time>
      </trkpt>
      <trkpt lat="46.12041" lon="5.68517">
        <ele>1127</ele>
        <time>2026-05-10T11:48:24Z</time>
      </trkpt>
      <trkpt lat="46.12039" lon="5.68517">
        <ele>1127.2</ele>
        <time>2026-05-10T11:48:25Z</time>
      </trkpt>
      <trkpt lat="46.12037" lon="5.68518">
        <ele>1127.4</ele>
        <time>2026-05-10T11:48:26Z</time>
      </trkpt>
      <trkpt lat="46.12035" lon="5.68518">
        <ele>1127.8</ele>
        <time>2026-05-10T11:48:27Z</time>
      </trkpt>
      <trkpt lat="46.12033" lon="5.68518">
        <ele>1127.8</ele>
        <time>2026-05-10T11:48:28Z</time>
      </trkpt>
      <trkpt lat="46.12032" lon="5.68518">
        <ele>1127.8</ele>
        <time>2026-05-10T11:48:29Z</time>
      </trkpt>
      <trkpt lat="46.12029" lon="5.68519">
        <ele>1128.2</ele>
        <time>2026-05-10T11:48:30Z</time>
      </trkpt>
      <trkpt lat="46.12028" lon="5.6852">
        <ele>1128.2</ele>
        <time>2026-05-10T11:48:31Z</time>
      </trkpt>
      <trkpt lat="46.12026" lon="5.68521">
        <ele>1128.2</ele>
        <time>2026-05-10T11:48:32Z</time>
      </trkpt>
      <trkpt lat="46.12024" lon="5.68521">
        <ele>1128.2</ele>
        <time>2026-05-10T11:48:33Z</time>
      </trkpt>
      <trkpt lat="46.12022" lon="5.68521">
        <ele>1128.2</ele>
        <time>2026-05-10T11:48:34Z</time>
      </trkpt>
      <trkpt lat="46.1202" lon="5.6852">
        <ele>1128.2</ele>
        <time>2026-05-10T11:48:35Z</time>
      </trkpt>
      <trkpt lat="46.12018" lon="5.68521">
        <ele>1128.2</ele>
        <time>2026-05-10T11:48:36Z</time>
      </trkpt>
      <trkpt lat="46.12017" lon="5.68521">
        <ele>1128.4</ele>
        <time>2026-05-10T11:48:37Z</time>
      </trkpt>
      <trkpt lat="46.12015" lon="5.68521">
        <ele>1128.4</ele>
        <time>2026-05-10T11:48:38Z</time>
      </trkpt>
      <trkpt lat="46.12013" lon="5.68522">
        <ele>1128.4</ele>
        <time>2026-05-10T11:48:39Z</time>
      </trkpt>
      <trkpt lat="46.12013" lon="5.68522">
        <ele>1128.8</ele>
        <time>2026-05-10T11:48:40Z</time>
      </trkpt>
      <trkpt lat="46.12011" lon="5.68521">
        <ele>1128.8</ele>
        <time>2026-05-10T11:48:41Z</time>
      </trkpt>
      <trkpt lat="46.12009" lon="5.68521">
        <ele>1128.8</ele>
        <time>2026-05-10T11:48:42Z</time>
      </trkpt>
      <trkpt lat="46.12007" lon="5.68521">
        <ele>1129.2</ele>
        <time>2026-05-10T11:48:43Z</time>
      </trkpt>
      <trkpt lat="46.12005" lon="5.68522">
        <ele>1129.2</ele>
        <time>2026-05-10T11:48:44Z</time>
      </trkpt>
      <trkpt lat="46.12004" lon="5.68522">
        <ele>1129.4</ele>
        <time>2026-05-10T11:48:45Z</time>
      </trkpt>
      <trkpt lat="46.12003" lon="5.68523">
        <ele>1129.8</ele>
        <time>2026-05-10T11:48:46Z</time>
      </trkpt>
      <trkpt lat="46.12001" lon="5.68523">
        <ele>1129.8</ele>
        <time>2026-05-10T11:48:47Z</time>
      </trkpt>
      <trkpt lat="46.12001" lon="5.68523">
        <ele>1130</ele>
        <time>2026-05-10T11:48:48Z</time>
      </trkpt>
      <trkpt lat="46.12001" lon="5.68523">
        <ele>1130.4</ele>
        <time>2026-05-10T11:48:49Z</time>
      </trkpt>
      <trkpt lat="46.11996" lon="5.68524">
        <ele>1130.8</ele>
        <time>2026-05-10T11:48:51Z</time>
      </trkpt>
      <trkpt lat="46.11994" lon="5.68524">
        <ele>1130.8</ele>
        <time>2026-05-10T11:48:52Z</time>
      </trkpt>
      <trkpt lat="46.11992" lon="5.68524">
        <ele>1130.8</ele>
        <time>2026-05-10T11:48:53Z</time>
      </trkpt>
      <trkpt lat="46.1199" lon="5.68525">
        <ele>1131.2</ele>
        <time>2026-05-10T11:48:54Z</time>
      </trkpt>
      <trkpt lat="46.11988" lon="5.68525">
        <ele>1131.2</ele>
        <time>2026-05-10T11:48:55Z</time>
      </trkpt>
      <trkpt lat="46.11986" lon="5.68525">
        <ele>1131.4</ele>
        <time>2026-05-10T11:48:56Z</time>
      </trkpt>
      <trkpt lat="46.11985" lon="5.68526">
        <ele>1131.4</ele>
        <time>2026-05-10T11:48:57Z</time>
      </trkpt>
      <trkpt lat="46.11983" lon="5.68527">
        <ele>1131.4</ele>
        <time>2026-05-10T11:48:58Z</time>
      </trkpt>
      <trkpt lat="46.11981" lon="5.68527">
        <ele>1131.8</ele>
        <time>2026-05-10T11:48:59Z</time>
      </trkpt>
      <trkpt lat="46.1198" lon="5.68527">
        <ele>1131.8</ele>
        <time>2026-05-10T11:49:00Z</time>
      </trkpt>
      <trkpt lat="46.11978" lon="5.68527">
        <ele>1132.2</ele>
        <time>2026-05-10T11:49:01Z</time>
      </trkpt>
      <trkpt lat="46.11975" lon="5.68527">
        <ele>1132.2</ele>
        <time>2026-05-10T11:49:02Z</time>
      </trkpt>
      <trkpt lat="46.11974" lon="5.68528">
        <ele>1132.6</ele>
        <time>2026-05-10T11:49:03Z</time>
      </trkpt>
      <trkpt lat="46.11973" lon="5.68528">
        <ele>1132.6</ele>
        <time>2026-05-10T11:49:04Z</time>
      </trkpt>
      <trkpt lat="46.11971" lon="5.68528">
        <ele>1132.6</ele>
        <time>2026-05-10T11:49:05Z</time>
      </trkpt>
      <trkpt lat="46.1197" lon="5.68528">
        <ele>1132.8</ele>
        <time>2026-05-10T11:49:06Z</time>
      </trkpt>
      <trkpt lat="46.11969" lon="5.68528">
        <ele>1132.8</ele>
        <time>2026-05-10T11:49:07Z</time>
      </trkpt>
      <trkpt lat="46.11967" lon="5.68527">
        <ele>1133.2</ele>
        <time>2026-05-10T11:49:08Z</time>
      </trkpt>
      <trkpt lat="46.11965" lon="5.68526">
        <ele>1133.2</ele>
        <time>2026-05-10T11:49:09Z</time>
      </trkpt>
      <trkpt lat="46.11964" lon="5.68524">
        <ele>1133.4</ele>
        <time>2026-05-10T11:49:10Z</time>
      </trkpt>
      <trkpt lat="46.11962" lon="5.68522">
        <ele>1133.4</ele>
        <time>2026-05-10T11:49:11Z</time>
      </trkpt>
      <trkpt lat="46.1196" lon="5.68521">
        <ele>1133.8</ele>
        <time>2026-05-10T11:49:12Z</time>
      </trkpt>
      <trkpt lat="46.11959" lon="5.68519">
        <ele>1133.8</ele>
        <time>2026-05-10T11:49:13Z</time>
      </trkpt>
      <trkpt lat="46.11959" lon="5.68517">
        <ele>1133.8</ele>
        <time>2026-05-10T11:49:14Z</time>
      </trkpt>
      <trkpt lat="46.11958" lon="5.68515">
        <ele>1134</ele>
        <time>2026-05-10T11:49:15Z</time>
      </trkpt>
      <trkpt lat="46.11957" lon="5.68512">
        <ele>1134</ele>
        <time>2026-05-10T11:49:16Z</time>
      </trkpt>
      <trkpt lat="46.11956" lon="5.6851">
        <ele>1134.2</ele>
        <time>2026-05-10T11:49:17Z</time>
      </trkpt>
      <trkpt lat="46.11955" lon="5.68509">
        <ele>1134.2</ele>
        <time>2026-05-10T11:49:18Z</time>
      </trkpt>
      <trkpt lat="46.11954" lon="5.68507">
        <ele>1134.4</ele>
        <time>2026-05-10T11:49:19Z</time>
      </trkpt>
      <trkpt lat="46.11953" lon="5.68504">
        <ele>1134.8</ele>
        <time>2026-05-10T11:49:20Z</time>
      </trkpt>
      <trkpt lat="46.11952" lon="5.68502">
        <ele>1134.8</ele>
        <time>2026-05-10T11:49:21Z</time>
      </trkpt>
      <trkpt lat="46.1195" lon="5.685">
        <ele>1134.8</ele>
        <time>2026-05-10T11:49:22Z</time>
      </trkpt>
      <trkpt lat="46.11948" lon="5.68497">
        <ele>1134.8</ele>
        <time>2026-05-10T11:49:23Z</time>
      </trkpt>
      <trkpt lat="46.11947" lon="5.68495">
        <ele>1135</ele>
        <time>2026-05-10T11:49:24Z</time>
      </trkpt>
      <trkpt lat="46.11945" lon="5.68493">
        <ele>1135</ele>
        <time>2026-05-10T11:49:25Z</time>
      </trkpt>
      <trkpt lat="46.11944" lon="5.68492">
        <ele>1135.4</ele>
        <time>2026-05-10T11:49:26Z</time>
      </trkpt>
      <trkpt lat="46.11942" lon="5.6849">
        <ele>1135.4</ele>
        <time>2026-05-10T11:49:27Z</time>
      </trkpt>
      <trkpt lat="46.11941" lon="5.68488">
        <ele>1135.8</ele>
        <time>2026-05-10T11:49:28Z</time>
      </trkpt>
      <trkpt lat="46.1194" lon="5.68486">
        <ele>1135.8</ele>
        <time>2026-05-10T11:49:29Z</time>
      </trkpt>
      <trkpt lat="46.11938" lon="5.68484">
        <ele>1136.2</ele>
        <time>2026-05-10T11:49:30Z</time>
      </trkpt>
      <trkpt lat="46.11937" lon="5.68483">
        <ele>1136.2</ele>
        <time>2026-05-10T11:49:31Z</time>
      </trkpt>
      <trkpt lat="46.11935" lon="5.68482">
        <ele>1136.4</ele>
        <time>2026-05-10T11:49:32Z</time>
      </trkpt>
      <trkpt lat="46.11934" lon="5.68481">
        <ele>1136.4</ele>
        <time>2026-05-10T11:49:33Z</time>
      </trkpt>
      <trkpt lat="46.11932" lon="5.6848">
        <ele>1136.4</ele>
        <time>2026-05-10T11:49:34Z</time>
      </trkpt>
      <trkpt lat="46.1193" lon="5.6848">
        <ele>1136.4</ele>
        <time>2026-05-10T11:49:35Z</time>
      </trkpt>
      <trkpt lat="46.11928" lon="5.6848">
        <ele>1136.8</ele>
        <time>2026-05-10T11:49:36Z</time>
      </trkpt>
      <trkpt lat="46.11925" lon="5.68479">
        <ele>1136.8</ele>
        <time>2026-05-10T11:49:37Z</time>
      </trkpt>
      <trkpt lat="46.11923" lon="5.68479">
        <ele>1136.8</ele>
        <time>2026-05-10T11:49:38Z</time>
      </trkpt>
      <trkpt lat="46.11921" lon="5.68479">
        <ele>1137</ele>
        <time>2026-05-10T11:49:39Z</time>
      </trkpt>
      <trkpt lat="46.1192" lon="5.68479">
        <ele>1137</ele>
        <time>2026-05-10T11:49:40Z</time>
      </trkpt>
      <trkpt lat="46.11918" lon="5.68479">
        <ele>1137</ele>
        <time>2026-05-10T11:49:41Z</time>
      </trkpt>
      <trkpt lat="46.11915" lon="5.68479">
        <ele>1137.4</ele>
        <time>2026-05-10T11:49:42Z</time>
      </trkpt>
      <trkpt lat="46.11913" lon="5.68479">
        <ele>1137.4</ele>
        <time>2026-05-10T11:49:43Z</time>
      </trkpt>
      <trkpt lat="46.11911" lon="5.6848">
        <ele>1137.6</ele>
        <time>2026-05-10T11:49:44Z</time>
      </trkpt>
      <trkpt lat="46.1191" lon="5.6848">
        <ele>1137.6</ele>
        <time>2026-05-10T11:49:45Z</time>
      </trkpt>
      <trkpt lat="46.11908" lon="5.6848">
        <ele>1137.6</ele>
        <time>2026-05-10T11:49:46Z</time>
      </trkpt>
      <trkpt lat="46.11906" lon="5.6848">
        <ele>1138</ele>
        <time>2026-05-10T11:49:47Z</time>
      </trkpt>
      <trkpt lat="46.11905" lon="5.68479">
        <ele>1138</ele>
        <time>2026-05-10T11:49:48Z</time>
      </trkpt>
      <trkpt lat="46.11904" lon="5.68478">
        <ele>1138</ele>
        <time>2026-05-10T11:49:49Z</time>
      </trkpt>
      <trkpt lat="46.11902" lon="5.68477">
        <ele>1138.2</ele>
        <time>2026-05-10T11:49:50Z</time>
      </trkpt>
      <trkpt lat="46.11901" lon="5.68476">
        <ele>1138.2</ele>
        <time>2026-05-10T11:49:51Z</time>
      </trkpt>
      <trkpt lat="46.11899" lon="5.68474">
        <ele>1138.4</ele>
        <time>2026-05-10T11:49:52Z</time>
      </trkpt>
      <trkpt lat="46.11897" lon="5.68473">
        <ele>1138.4</ele>
        <time>2026-05-10T11:49:53Z</time>
      </trkpt>
      <trkpt lat="46.11896" lon="5.68471">
        <ele>1138.8</ele>
        <time>2026-05-10T11:49:54Z</time>
      </trkpt>
      <trkpt lat="46.11895" lon="5.6847">
        <ele>1138.8</ele>
        <time>2026-05-10T11:49:55Z</time>
      </trkpt>
      <trkpt lat="46.11894" lon="5.68468">
        <ele>1139</ele>
        <time>2026-05-10T11:49:56Z</time>
      </trkpt>
      <trkpt lat="46.11892" lon="5.68466">
        <ele>1139</ele>
        <time>2026-05-10T11:49:57Z</time>
      </trkpt>
      <trkpt lat="46.1189" lon="5.68465">
        <ele>1139.4</ele>
        <time>2026-05-10T11:49:58Z</time>
      </trkpt>
      <trkpt lat="46.11887" lon="5.68464">
        <ele>1139.4</ele>
        <time>2026-05-10T11:49:59Z</time>
      </trkpt>
      <trkpt lat="46.11885" lon="5.68462">
        <ele>1139.6</ele>
        <time>2026-05-10T11:50:00Z</time>
      </trkpt>
      <trkpt lat="46.11885" lon="5.6846">
        <ele>1139.8</ele>
        <time>2026-05-10T11:50:01Z</time>
      </trkpt>
      <trkpt lat="46.11884" lon="5.68458">
        <ele>1139.8</ele>
        <time>2026-05-10T11:50:02Z</time>
      </trkpt>
      <trkpt lat="46.11883" lon="5.68455">
        <ele>1140.2</ele>
        <time>2026-05-10T11:50:03Z</time>
      </trkpt>
      <trkpt lat="46.11883" lon="5.68455">
        <ele>1139.8</ele>
        <time>2026-05-10T11:50:04Z</time>
      </trkpt>
      <trkpt lat="46.11881" lon="5.68449">
        <ele>1140</ele>
        <time>2026-05-10T11:50:05Z</time>
      </trkpt>
      <trkpt lat="46.11881" lon="5.68446">
        <ele>1140.2</ele>
        <time>2026-05-10T11:50:06Z</time>
      </trkpt>
      <trkpt lat="46.1188" lon="5.68443">
        <ele>1140.2</ele>
        <time>2026-05-10T11:50:07Z</time>
      </trkpt>
      <trkpt lat="46.1188" lon="5.6844">
        <ele>1140.6</ele>
        <time>2026-05-10T11:50:08Z</time>
      </trkpt>
      <trkpt lat="46.11879" lon="5.68437">
        <ele>1140.6</ele>
        <time>2026-05-10T11:50:09Z</time>
      </trkpt>
      <trkpt lat="46.11879" lon="5.68435">
        <ele>1140.8</ele>
        <time>2026-05-10T11:50:10Z</time>
      </trkpt>
      <trkpt lat="46.11879" lon="5.68432">
        <ele>1140.8</ele>
        <time>2026-05-10T11:50:11Z</time>
      </trkpt>
      <trkpt lat="46.11878" lon="5.68429">
        <ele>1141</ele>
        <time>2026-05-10T11:50:12Z</time>
      </trkpt>
      <trkpt lat="46.11878" lon="5.68426">
        <ele>1141.4</ele>
        <time>2026-05-10T11:50:13Z</time>
      </trkpt>
      <trkpt lat="46.11877" lon="5.68424">
        <ele>1141.4</ele>
        <time>2026-05-10T11:50:14Z</time>
      </trkpt>
      <trkpt lat="46.11876" lon="5.68421">
        <ele>1141.4</ele>
        <time>2026-05-10T11:50:15Z</time>
      </trkpt>
      <trkpt lat="46.11876" lon="5.68419">
        <ele>1141.6</ele>
        <time>2026-05-10T11:50:16Z</time>
      </trkpt>
      <trkpt lat="46.11876" lon="5.68416">
        <ele>1141.8</ele>
        <time>2026-05-10T11:50:17Z</time>
      </trkpt>
      <trkpt lat="46.11876" lon="5.68415">
        <ele>1141.8</ele>
        <time>2026-05-10T11:50:18Z</time>
      </trkpt>
      <trkpt lat="46.11877" lon="5.68412">
        <ele>1142.2</ele>
        <time>2026-05-10T11:50:19Z</time>
      </trkpt>
      <trkpt lat="46.11877" lon="5.6841">
        <ele>1142.2</ele>
        <time>2026-05-10T11:50:20Z</time>
      </trkpt>
      <trkpt lat="46.11876" lon="5.68407">
        <ele>1142.2</ele>
        <time>2026-05-10T11:50:21Z</time>
      </trkpt>
      <trkpt lat="46.11876" lon="5.68405">
        <ele>1142.2</ele>
        <time>2026-05-10T11:50:22Z</time>
      </trkpt>
      <trkpt lat="46.11875" lon="5.68402">
        <ele>1142.6</ele>
        <time>2026-05-10T11:50:23Z</time>
      </trkpt>
      <trkpt lat="46.11875" lon="5.684">
        <ele>1142.6</ele>
        <time>2026-05-10T11:50:24Z</time>
      </trkpt>
      <trkpt lat="46.11874" lon="5.68398">
        <ele>1142.6</ele>
        <time>2026-05-10T11:50:25Z</time>
      </trkpt>
      <trkpt lat="46.11873" lon="5.68395">
        <ele>1142.8</ele>
        <time>2026-05-10T11:50:26Z</time>
      </trkpt>
      <trkpt lat="46.11873" lon="5.68393">
        <ele>1142.8</ele>
        <time>2026-05-10T11:50:27Z</time>
      </trkpt>
      <trkpt lat="46.11872" lon="5.6839">
        <ele>1143</ele>
        <time>2026-05-10T11:50:28Z</time>
      </trkpt>
      <trkpt lat="46.11871" lon="5.68388">
        <ele>1143</ele>
        <time>2026-05-10T11:50:29Z</time>
      </trkpt>
      <trkpt lat="46.11871" lon="5.68386">
        <ele>1143.2</ele>
        <time>2026-05-10T11:50:30Z</time>
      </trkpt>
      <trkpt lat="46.1187" lon="5.68383">
        <ele>1143.2</ele>
        <time>2026-05-10T11:50:31Z</time>
      </trkpt>
      <trkpt lat="46.11868" lon="5.68379">
        <ele>1143.2</ele>
        <time>2026-05-10T11:50:32Z</time>
      </trkpt>
      <trkpt lat="46.11867" lon="5.68377">
        <ele>1143.4</ele>
        <time>2026-05-10T11:50:33Z</time>
      </trkpt>
      <trkpt lat="46.11865" lon="5.68376">
        <ele>1143.4</ele>
        <time>2026-05-10T11:50:34Z</time>
      </trkpt>
      <trkpt lat="46.11864" lon="5.68374">
        <ele>1143.4</ele>
        <time>2026-05-10T11:50:35Z</time>
      </trkpt>
      <trkpt lat="46.11862" lon="5.68373">
        <ele>1143.6</ele>
        <time>2026-05-10T11:50:36Z</time>
      </trkpt>
      <trkpt lat="46.11861" lon="5.68372">
        <ele>1143.6</ele>
        <time>2026-05-10T11:50:37Z</time>
      </trkpt>
      <trkpt lat="46.11859" lon="5.68371">
        <ele>1143.6</ele>
        <time>2026-05-10T11:50:38Z</time>
      </trkpt>
      <trkpt lat="46.11857" lon="5.68369">
        <ele>1143.6</ele>
        <time>2026-05-10T11:50:39Z</time>
      </trkpt>
      <trkpt lat="46.11856" lon="5.68369">
        <ele>1143.6</ele>
        <time>2026-05-10T11:50:40Z</time>
      </trkpt>
      <trkpt lat="46.11855" lon="5.68368">
        <ele>1143.8</ele>
        <time>2026-05-10T11:50:41Z</time>
      </trkpt>
      <trkpt lat="46.11854" lon="5.68368">
        <ele>1143.8</ele>
        <time>2026-05-10T11:50:42Z</time>
      </trkpt>
      <trkpt lat="46.11854" lon="5.68368">
        <ele>1143.8</ele>
        <time>2026-05-10T11:50:43Z</time>
      </trkpt>
      <trkpt lat="46.11854" lon="5.68368">
        <ele>1143.8</ele>
        <time>2026-05-10T11:50:44Z</time>
      </trkpt>
      <trkpt lat="46.11852" lon="5.68369">
        <ele>1143.8</ele>
        <time>2026-05-10T11:50:47Z</time>
      </trkpt>
      <trkpt lat="46.11852" lon="5.68369">
        <ele>1143.8</ele>
        <time>2026-05-10T11:50:48Z</time>
      </trkpt>
      <trkpt lat="46.11852" lon="5.68369">
        <ele>1143.8</ele>
        <time>2026-05-10T11:50:49Z</time>
      </trkpt>
      <trkpt lat="46.11851" lon="5.68368">
        <ele>1144.2</ele>
        <time>2026-05-10T11:50:54Z</time>
      </trkpt>
      <trkpt lat="46.11851" lon="5.68366">
        <ele>1144.2</ele>
        <time>2026-05-10T11:50:55Z</time>
      </trkpt>
      <trkpt lat="46.11851" lon="5.68365">
        <ele>1144.2</ele>
        <time>2026-05-10T11:50:56Z</time>
      </trkpt>
      <trkpt lat="46.11851" lon="5.68365">
        <ele>1144.2</ele>
        <time>2026-05-10T11:50:57Z</time>
      </trkpt>
      <trkpt lat="46.11851" lon="5.68365">
        <ele>1144.6</ele>
        <time>2026-05-10T11:50:58Z</time>
      </trkpt>
      <trkpt lat="46.11856" lon="5.68363">
        <ele>1145.2</ele>
        <time>2026-05-10T11:54:50Z</time>
      </trkpt>
      <trkpt lat="46.11856" lon="5.68364">
        <ele>1145.2</ele>
        <time>2026-05-10T11:54:51Z</time>
      </trkpt>
      <trkpt lat="46.11855" lon="5.68364">
        <ele>1145.2</ele>
        <time>2026-05-10T11:54:52Z</time>
      </trkpt>
      <trkpt lat="46.11855" lon="5.68365">
        <ele>1144.8</ele>
        <time>2026-05-10T11:54:53Z</time>
      </trkpt>
      <trkpt lat="46.11854" lon="5.68365">
        <ele>1144.8</ele>
        <time>2026-05-10T11:54:54Z</time>
      </trkpt>
      <trkpt lat="46.11853" lon="5.68365">
        <ele>1144.6</ele>
        <time>2026-05-10T11:54:55Z</time>
      </trkpt>
      <trkpt lat="46.11853" lon="5.68365">
        <ele>1144.4</ele>
        <time>2026-05-10T11:54:56Z</time>
      </trkpt>
      <trkpt lat="46.11853" lon="5.68366">
        <ele>1144.4</ele>
        <time>2026-05-10T11:54:57Z</time>
      </trkpt>
      <trkpt lat="46.11852" lon="5.68366">
        <ele>1143.6</ele>
        <time>2026-05-10T11:55:23Z</time>
      </trkpt>
      <trkpt lat="46.11852" lon="5.68366">
        <ele>1143.8</ele>
        <time>2026-05-10T11:55:24Z</time>
      </trkpt>
      <trkpt lat="46.11851" lon="5.68365">
        <ele>1143.8</ele>
        <time>2026-05-10T11:55:25Z</time>
      </trkpt>
      <trkpt lat="46.11851" lon="5.68365">
        <ele>1143.8</ele>
        <time>2026-05-10T11:55:26Z</time>
      </trkpt>
      <trkpt lat="46.11849" lon="5.68365">
        <ele>1143.8</ele>
        <time>2026-05-10T11:55:27Z</time>
      </trkpt>
      <trkpt lat="46.11848" lon="5.68365">
        <ele>1143.8</ele>
        <time>2026-05-10T11:55:28Z</time>
      </trkpt>
      <trkpt lat="46.11846" lon="5.68365">
        <ele>1143.6</ele>
        <time>2026-05-10T11:55:29Z</time>
      </trkpt>
      <trkpt lat="46.11844" lon="5.68366">
        <ele>1143.6</ele>
        <time>2026-05-10T11:55:30Z</time>
      </trkpt>
      <trkpt lat="46.11841" lon="5.68366">
        <ele>1143.6</ele>
        <time>2026-05-10T11:55:31Z</time>
      </trkpt>
      <trkpt lat="46.11839" lon="5.68367">
        <ele>1143.2</ele>
        <time>2026-05-10T11:55:32Z</time>
      </trkpt>
      <trkpt lat="46.11836" lon="5.68368">
        <ele>1143.2</ele>
        <time>2026-05-10T11:55:33Z</time>
      </trkpt>
      <trkpt lat="46.11833" lon="5.68369">
        <ele>1143</ele>
        <time>2026-05-10T11:55:34Z</time>
      </trkpt>
      <trkpt lat="46.1183" lon="5.68372">
        <ele>1142.6</ele>
        <time>2026-05-10T11:55:35Z</time>
      </trkpt>
      <trkpt lat="46.11828" lon="5.68374">
        <ele>1142.6</ele>
        <time>2026-05-10T11:55:36Z</time>
      </trkpt>
      <trkpt lat="46.11825" lon="5.68377">
        <ele>1142.6</ele>
        <time>2026-05-10T11:55:37Z</time>
      </trkpt>
      <trkpt lat="46.11823" lon="5.6838">
        <ele>1142.6</ele>
        <time>2026-05-10T11:55:38Z</time>
      </trkpt>
      <trkpt lat="46.11821" lon="5.68384">
        <ele>1142.4</ele>
        <time>2026-05-10T11:55:39Z</time>
      </trkpt>
      <trkpt lat="46.1182" lon="5.68389">
        <ele>1142</ele>
        <time>2026-05-10T11:55:40Z</time>
      </trkpt>
      <trkpt lat="46.11818" lon="5.68393">
        <ele>1142</ele>
        <time>2026-05-10T11:55:41Z</time>
      </trkpt>
      <trkpt lat="46.11816" lon="5.68398">
        <ele>1142</ele>
        <time>2026-05-10T11:55:42Z</time>
      </trkpt>
      <trkpt lat="46.11815" lon="5.68402">
        <ele>1141.8</ele>
        <time>2026-05-10T11:55:43Z</time>
      </trkpt>
      <trkpt lat="46.11814" lon="5.68407">
        <ele>1141.8</ele>
        <time>2026-05-10T11:55:44Z</time>
      </trkpt>
      <trkpt lat="46.11813" lon="5.68411">
        <ele>1141.8</ele>
        <time>2026-05-10T11:55:45Z</time>
      </trkpt>
      <trkpt lat="46.11812" lon="5.68415">
        <ele>1141.8</ele>
        <time>2026-05-10T11:55:46Z</time>
      </trkpt>
      <trkpt lat="46.11811" lon="5.6842">
        <ele>1141.6</ele>
        <time>2026-05-10T11:55:47Z</time>
      </trkpt>
      <trkpt lat="46.1181" lon="5.68425">
        <ele>1141.4</ele>
        <time>2026-05-10T11:55:48Z</time>
      </trkpt>
      <trkpt lat="46.11809" lon="5.68431">
        <ele>1141.2</ele>
        <time>2026-05-10T11:55:49Z</time>
      </trkpt>
      <trkpt lat="46.11807" lon="5.68436">
        <ele>1141</ele>
        <time>2026-05-10T11:55:50Z</time>
      </trkpt>
      <trkpt lat="46.11806" lon="5.68441">
        <ele>1141</ele>
        <time>2026-05-10T11:55:51Z</time>
      </trkpt>
      <trkpt lat="46.11804" lon="5.68447">
        <ele>1140.6</ele>
        <time>2026-05-10T11:55:52Z</time>
      </trkpt>
      <trkpt lat="46.11803" lon="5.68453">
        <ele>1140.6</ele>
        <time>2026-05-10T11:55:53Z</time>
      </trkpt>
      <trkpt lat="46.11801" lon="5.68459">
        <ele>1140.2</ele>
        <time>2026-05-10T11:55:54Z</time>
      </trkpt>
      <trkpt lat="46.11799" lon="5.68464">
        <ele>1140.2</ele>
        <time>2026-05-10T11:55:55Z</time>
      </trkpt>
      <trkpt lat="46.11797" lon="5.6847">
        <ele>1139.6</ele>
        <time>2026-05-10T11:55:56Z</time>
      </trkpt>
      <trkpt lat="46.11795" lon="5.68475">
        <ele>1139.4</ele>
        <time>2026-05-10T11:55:57Z</time>
      </trkpt>
      <trkpt lat="46.11793" lon="5.68481">
        <ele>1139.2</ele>
        <time>2026-05-10T11:55:58Z</time>
      </trkpt>
      <trkpt lat="46.1179" lon="5.68486">
        <ele>1139.2</ele>
        <time>2026-05-10T11:55:59Z</time>
      </trkpt>
      <trkpt lat="46.11788" lon="5.68491">
        <ele>1139.2</ele>
        <time>2026-05-10T11:56:00Z</time>
      </trkpt>
      <trkpt lat="46.11786" lon="5.68497">
        <ele>1139.2</ele>
        <time>2026-05-10T11:56:01Z</time>
      </trkpt>
      <trkpt lat="46.11784" lon="5.68502">
        <ele>1139.2</ele>
        <time>2026-05-10T11:56:02Z</time>
      </trkpt>
      <trkpt lat="46.11783" lon="5.68508">
        <ele>1139.2</ele>
        <time>2026-05-10T11:56:03Z</time>
      </trkpt>
      <trkpt lat="46.11781" lon="5.68514">
        <ele>1138.8</ele>
        <time>2026-05-10T11:56:04Z</time>
      </trkpt>
      <trkpt lat="46.11778" lon="5.68519">
        <ele>1138.8</ele>
        <time>2026-05-10T11:56:05Z</time>
      </trkpt>
      <trkpt lat="46.11776" lon="5.68525">
        <ele>1138.6</ele>
        <time>2026-05-10T11:56:06Z</time>
      </trkpt>
      <trkpt lat="46.11775" lon="5.68531">
        <ele>1138.6</ele>
        <time>2026-05-10T11:56:07Z</time>
      </trkpt>
      <trkpt lat="46.11773" lon="5.68537">
        <ele>1138.6</ele>
        <time>2026-05-10T11:56:08Z</time>
      </trkpt>
      <trkpt lat="46.11771" lon="5.68543">
        <ele>1138.4</ele>
        <time>2026-05-10T11:56:09Z</time>
      </trkpt>
      <trkpt lat="46.11769" lon="5.68549">
        <ele>1138.4</ele>
        <time>2026-05-10T11:56:10Z</time>
      </trkpt>
      <trkpt lat="46.11766" lon="5.68553">
        <ele>1138.4</ele>
        <time>2026-05-10T11:56:11Z</time>
      </trkpt>
      <trkpt lat="46.11764" lon="5.68559">
        <ele>1138.4</ele>
        <time>2026-05-10T11:56:12Z</time>
      </trkpt>
      <trkpt lat="46.11761" lon="5.68564">
        <ele>1138</ele>
        <time>2026-05-10T11:56:13Z</time>
      </trkpt>
      <trkpt lat="46.11758" lon="5.6857">
        <ele>1137.8</ele>
        <time>2026-05-10T11:56:14Z</time>
      </trkpt>
      <trkpt lat="46.11755" lon="5.68576">
        <ele>1137.8</ele>
        <time>2026-05-10T11:56:15Z</time>
      </trkpt>
      <trkpt lat="46.11753" lon="5.68582">
        <ele>1137.8</ele>
        <time>2026-05-10T11:56:16Z</time>
      </trkpt>
      <trkpt lat="46.1175" lon="5.68587">
        <ele>1137.8</ele>
        <time>2026-05-10T11:56:17Z</time>
      </trkpt>
      <trkpt lat="46.11747" lon="5.68592">
        <ele>1137.6</ele>
        <time>2026-05-10T11:56:18Z</time>
      </trkpt>
      <trkpt lat="46.11745" lon="5.68598">
        <ele>1137.4</ele>
        <time>2026-05-10T11:56:19Z</time>
      </trkpt>
      <trkpt lat="46.11744" lon="5.68603">
        <ele>1137.4</ele>
        <time>2026-05-10T11:56:20Z</time>
      </trkpt>
      <trkpt lat="46.11742" lon="5.68608">
        <ele>1137.2</ele>
        <time>2026-05-10T11:56:21Z</time>
      </trkpt>
      <trkpt lat="46.11739" lon="5.68613">
        <ele>1137.2</ele>
        <time>2026-05-10T11:56:22Z</time>
      </trkpt>
      <trkpt lat="46.11737" lon="5.68618">
        <ele>1137.2</ele>
        <time>2026-05-10T11:56:23Z</time>
      </trkpt>
      <trkpt lat="46.11735" lon="5.68623">
        <ele>1137.2</ele>
        <time>2026-05-10T11:56:24Z</time>
      </trkpt>
      <trkpt lat="46.11732" lon="5.68627">
        <ele>1137.2</ele>
        <time>2026-05-10T11:56:25Z</time>
      </trkpt>
      <trkpt lat="46.11729" lon="5.68632">
        <ele>1137.2</ele>
        <time>2026-05-10T11:56:26Z</time>
      </trkpt>
      <trkpt lat="46.11726" lon="5.68636">
        <ele>1136.8</ele>
        <time>2026-05-10T11:56:27Z</time>
      </trkpt>
      <trkpt lat="46.11723" lon="5.6864">
        <ele>1136.6</ele>
        <time>2026-05-10T11:56:28Z</time>
      </trkpt>
      <trkpt lat="46.1172" lon="5.68644">
        <ele>1136.6</ele>
        <time>2026-05-10T11:56:29Z</time>
      </trkpt>
      <trkpt lat="46.11717" lon="5.68648">
        <ele>1136.4</ele>
        <time>2026-05-10T11:56:30Z</time>
      </trkpt>
      <trkpt lat="46.11713" lon="5.68651">
        <ele>1136.4</ele>
        <time>2026-05-10T11:56:31Z</time>
      </trkpt>
      <trkpt lat="46.11709" lon="5.68654">
        <ele>1136.4</ele>
        <time>2026-05-10T11:56:32Z</time>
      </trkpt>
      <trkpt lat="46.11705" lon="5.68658">
        <ele>1136.2</ele>
        <time>2026-05-10T11:56:33Z</time>
      </trkpt>
      <trkpt lat="46.11702" lon="5.68661">
        <ele>1136</ele>
        <time>2026-05-10T11:56:34Z</time>
      </trkpt>
      <trkpt lat="46.11698" lon="5.68664">
        <ele>1135.6</ele>
        <time>2026-05-10T11:56:35Z</time>
      </trkpt>
      <trkpt lat="46.11694" lon="5.68668">
        <ele>1135.6</ele>
        <time>2026-05-10T11:56:36Z</time>
      </trkpt>
      <trkpt lat="46.1169" lon="5.68672">
        <ele>1135.2</ele>
        <time>2026-05-10T11:56:37Z</time>
      </trkpt>
      <trkpt lat="46.11686" lon="5.68676">
        <ele>1135.2</ele>
        <time>2026-05-10T11:56:38Z</time>
      </trkpt>
      <trkpt lat="46.11682" lon="5.6868">
        <ele>1134.8</ele>
        <time>2026-05-10T11:56:39Z</time>
      </trkpt>
      <trkpt lat="46.11678" lon="5.68684">
        <ele>1134.8</ele>
        <time>2026-05-10T11:56:40Z</time>
      </trkpt>
      <trkpt lat="46.11675" lon="5.68688">
        <ele>1134.8</ele>
        <time>2026-05-10T11:56:41Z</time>
      </trkpt>
      <trkpt lat="46.11671" lon="5.68692">
        <ele>1134.8</ele>
        <time>2026-05-10T11:56:42Z</time>
      </trkpt>
      <trkpt lat="46.11669" lon="5.68694">
        <ele>1135</ele>
        <time>2026-05-10T11:56:43Z</time>
      </trkpt>
      <trkpt lat="46.11667" lon="5.68697">
        <ele>1135</ele>
        <time>2026-05-10T11:56:44Z</time>
      </trkpt>
      <trkpt lat="46.11666" lon="5.68699">
        <ele>1135.4</ele>
        <time>2026-05-10T11:56:45Z</time>
      </trkpt>
      <trkpt lat="46.11665" lon="5.687">
        <ele>1135.4</ele>
        <time>2026-05-10T11:56:46Z</time>
      </trkpt>
      <trkpt lat="46.11665" lon="5.687">
        <ele>1135.6</ele>
        <time>2026-05-10T11:56:47Z</time>
      </trkpt>
      <trkpt lat="46.11665" lon="5.68697">
        <ele>1135.8</ele>
        <time>2026-05-10T11:58:23Z</time>
      </trkpt>
      <trkpt lat="46.11664" lon="5.68699">
        <ele>1135.8</ele>
        <time>2026-05-10T11:58:24Z</time>
      </trkpt>
      <trkpt lat="46.11664" lon="5.68702">
        <ele>1135.8</ele>
        <time>2026-05-10T11:58:25Z</time>
      </trkpt>
      <trkpt lat="46.11663" lon="5.68706">
        <ele>1135.8</ele>
        <time>2026-05-10T11:58:26Z</time>
      </trkpt>
      <trkpt lat="46.11662" lon="5.6871">
        <ele>1135.8</ele>
        <time>2026-05-10T11:58:27Z</time>
      </trkpt>
      <trkpt lat="46.11661" lon="5.68714">
        <ele>1135.6</ele>
        <time>2026-05-10T11:58:28Z</time>
      </trkpt>
      <trkpt lat="46.1166" lon="5.68718">
        <ele>1135.6</ele>
        <time>2026-05-10T11:58:29Z</time>
      </trkpt>
      <trkpt lat="46.11658" lon="5.68722">
        <ele>1135.6</ele>
        <time>2026-05-10T11:58:30Z</time>
      </trkpt>
      <trkpt lat="46.11657" lon="5.68726">
        <ele>1135.4</ele>
        <time>2026-05-10T11:58:31Z</time>
      </trkpt>
      <trkpt lat="46.11656" lon="5.6873">
        <ele>1135</ele>
        <time>2026-05-10T11:58:32Z</time>
      </trkpt>
      <trkpt lat="46.11655" lon="5.68734">
        <ele>1135</ele>
        <time>2026-05-10T11:58:33Z</time>
      </trkpt>
      <trkpt lat="46.11654" lon="5.68737">
        <ele>1135</ele>
        <time>2026-05-10T11:58:34Z</time>
      </trkpt>
      <trkpt lat="46.11653" lon="5.68741">
        <ele>1134.8</ele>
        <time>2026-05-10T11:58:35Z</time>
      </trkpt>
      <trkpt lat="46.11652" lon="5.68744">
        <ele>1134.8</ele>
        <time>2026-05-10T11:58:36Z</time>
      </trkpt>
      <trkpt lat="46.11651" lon="5.68747">
        <ele>1134.8</ele>
        <time>2026-05-10T11:58:37Z</time>
      </trkpt>
      <trkpt lat="46.1165" lon="5.68749">
        <ele>1134.8</ele>
        <time>2026-05-10T11:58:38Z</time>
      </trkpt>
      <trkpt lat="46.11648" lon="5.68751">
        <ele>1134.8</ele>
        <time>2026-05-10T11:58:39Z</time>
      </trkpt>
      <trkpt lat="46.11647" lon="5.68752">
        <ele>1134.8</ele>
        <time>2026-05-10T11:58:40Z</time>
      </trkpt>
      <trkpt lat="46.11646" lon="5.68752">
        <ele>1134.8</ele>
        <time>2026-05-10T11:58:41Z</time>
      </trkpt>
      <trkpt lat="46.11645" lon="5.68753">
        <ele>1135.2</ele>
        <time>2026-05-10T11:58:42Z</time>
      </trkpt>
      <trkpt lat="46.11644" lon="5.68753">
        <ele>1135.2</ele>
        <time>2026-05-10T11:58:43Z</time>
      </trkpt>
      <trkpt lat="46.11643" lon="5.68754">
        <ele>1135.2</ele>
        <time>2026-05-10T11:58:44Z</time>
      </trkpt>
      <trkpt lat="46.11643" lon="5.68755">
        <ele>1135.2</ele>
        <time>2026-05-10T11:58:45Z</time>
      </trkpt>
      <trkpt lat="46.11641" lon="5.68752">
        <ele>1135.4</ele>
        <time>2026-05-10T11:59:30Z</time>
      </trkpt>
      <trkpt lat="46.11639" lon="5.68751">
        <ele>1135.4</ele>
        <time>2026-05-10T11:59:31Z</time>
      </trkpt>
      <trkpt lat="46.11637" lon="5.68749">
        <ele>1135.2</ele>
        <time>2026-05-10T11:59:32Z</time>
      </trkpt>
      <trkpt lat="46.11636" lon="5.68747">
        <ele>1135.2</ele>
        <time>2026-05-10T11:59:33Z</time>
      </trkpt>
      <trkpt lat="46.11634" lon="5.68746">
        <ele>1135.2</ele>
        <time>2026-05-10T11:59:34Z</time>
      </trkpt>
      <trkpt lat="46.11631" lon="5.68745">
        <ele>1135.2</ele>
        <time>2026-05-10T11:59:35Z</time>
      </trkpt>
      <trkpt lat="46.11629" lon="5.68743">
        <ele>1135.2</ele>
        <time>2026-05-10T11:59:36Z</time>
      </trkpt>
      <trkpt lat="46.11626" lon="5.68741">
        <ele>1135.2</ele>
        <time>2026-05-10T11:59:37Z</time>
      </trkpt>
      <trkpt lat="46.11624" lon="5.68739">
        <ele>1135.2</ele>
        <time>2026-05-10T11:59:38Z</time>
      </trkpt>
      <trkpt lat="46.11621" lon="5.68737">
        <ele>1135.2</ele>
        <time>2026-05-10T11:59:39Z</time>
      </trkpt>
      <trkpt lat="46.11619" lon="5.68735">
        <ele>1135.2</ele>
        <time>2026-05-10T11:59:40Z</time>
      </trkpt>
      <trkpt lat="46.11617" lon="5.68733">
        <ele>1135.2</ele>
        <time>2026-05-10T11:59:41Z</time>
      </trkpt>
      <trkpt lat="46.11614" lon="5.68731">
        <ele>1135.2</ele>
        <time>2026-05-10T11:59:42Z</time>
      </trkpt>
      <trkpt lat="46.11611" lon="5.68728">
        <ele>1134.8</ele>
        <time>2026-05-10T11:59:43Z</time>
      </trkpt>
      <trkpt lat="46.11608" lon="5.68726">
        <ele>1134.8</ele>
        <time>2026-05-10T11:59:44Z</time>
      </trkpt>
      <trkpt lat="46.11605" lon="5.68723">
        <ele>1134.8</ele>
        <time>2026-05-10T11:59:45Z</time>
      </trkpt>
      <trkpt lat="46.11601" lon="5.68721">
        <ele>1134.8</ele>
        <time>2026-05-10T11:59:46Z</time>
      </trkpt>
      <trkpt lat="46.11598" lon="5.68719">
        <ele>1134.2</ele>
        <time>2026-05-10T11:59:47Z</time>
      </trkpt>
      <trkpt lat="46.11598" lon="5.68719">
        <ele>1134.2</ele>
        <time>2026-05-10T11:59:48Z</time>
      </trkpt>
      <trkpt lat="46.11595" lon="5.68718">
        <ele>1134.2</ele>
        <time>2026-05-10T11:59:49Z</time>
      </trkpt>
      <trkpt lat="46.11593" lon="5.68717">
        <ele>1134.2</ele>
        <time>2026-05-10T11:59:50Z</time>
      </trkpt>
      <trkpt lat="46.11593" lon="5.68716">
        <ele>1134.2</ele>
        <time>2026-05-10T11:59:51Z</time>
      </trkpt>
      <trkpt lat="46.11592" lon="5.68715">
        <ele>1134.2</ele>
        <time>2026-05-10T11:59:52Z</time>
      </trkpt>
      <trkpt lat="46.1159" lon="5.68715">
        <ele>1134.2</ele>
        <time>2026-05-10T11:59:53Z</time>
      </trkpt>
      <trkpt lat="46.11589" lon="5.68715">
        <ele>1134.2</ele>
        <time>2026-05-10T11:59:54Z</time>
      </trkpt>
      <trkpt lat="46.11588" lon="5.68715">
        <ele>1134.2</ele>
        <time>2026-05-10T11:59:55Z</time>
      </trkpt>
      <trkpt lat="46.11587" lon="5.68715">
        <ele>1134.2</ele>
        <time>2026-05-10T11:59:56Z</time>
      </trkpt>
      <trkpt lat="46.11588" lon="5.68715">
        <ele>1134.2</ele>
        <time>2026-05-10T11:59:57Z</time>
      </trkpt>
      <trkpt lat="46.11587" lon="5.68716">
        <ele>1134</ele>
        <time>2026-05-10T12:00:00Z</time>
      </trkpt>
      <trkpt lat="46.11586" lon="5.68716">
        <ele>1134</ele>
        <time>2026-05-10T12:00:01Z</time>
      </trkpt>
      <trkpt lat="46.11584" lon="5.68716">
        <ele>1134</ele>
        <time>2026-05-10T12:00:02Z</time>
      </trkpt>
      <trkpt lat="46.11582" lon="5.68717">
        <ele>1134</ele>
        <time>2026-05-10T12:00:03Z</time>
      </trkpt>
      <trkpt lat="46.11582" lon="5.68718">
        <ele>1134</ele>
        <time>2026-05-10T12:00:04Z</time>
      </trkpt>
      <trkpt lat="46.11582" lon="5.68717">
        <ele>1134</ele>
        <time>2026-05-10T12:00:05Z</time>
      </trkpt>
      <trkpt lat="46.11473" lon="5.687">
        <ele>1125</ele>
        <time>2026-05-10T12:42:10Z</time>
      </trkpt>
      <trkpt lat="46.11468" lon="5.68698">
        <ele>1125.4</ele>
        <time>2026-05-10T12:42:11Z</time>
      </trkpt>
      <trkpt lat="46.11464" lon="5.68699">
        <ele>1124.6</ele>
        <time>2026-05-10T12:42:12Z</time>
      </trkpt>
      <trkpt lat="46.1146" lon="5.68697">
        <ele>1124.4</ele>
        <time>2026-05-10T12:42:13Z</time>
      </trkpt>
      <trkpt lat="46.11456" lon="5.68696">
        <ele>1124</ele>
        <time>2026-05-10T12:42:14Z</time>
      </trkpt>
      <trkpt lat="46.11452" lon="5.68696">
        <ele>1124</ele>
        <time>2026-05-10T12:42:15Z</time>
      </trkpt>
      <trkpt lat="46.11448" lon="5.68695">
        <ele>1124</ele>
        <time>2026-05-10T12:42:16Z</time>
      </trkpt>
      <trkpt lat="46.11446" lon="5.68693">
        <ele>1124</ele>
        <time>2026-05-10T12:42:17Z</time>
      </trkpt>
      <trkpt lat="46.11443" lon="5.68692">
        <ele>1124</ele>
        <time>2026-05-10T12:42:18Z</time>
      </trkpt>
      <trkpt lat="46.11439" lon="5.68691">
        <ele>1123.8</ele>
        <time>2026-05-10T12:42:19Z</time>
      </trkpt>
      <trkpt lat="46.11435" lon="5.6869">
        <ele>1123.4</ele>
        <time>2026-05-10T12:42:20Z</time>
      </trkpt>
      <trkpt lat="46.11432" lon="5.68688">
        <ele>1123.4</ele>
        <time>2026-05-10T12:42:21Z</time>
      </trkpt>
      <trkpt lat="46.11428" lon="5.68686">
        <ele>1123.4</ele>
        <time>2026-05-10T12:42:22Z</time>
      </trkpt>
      <trkpt lat="46.11424" lon="5.68683">
        <ele>1123.2</ele>
        <time>2026-05-10T12:42:23Z</time>
      </trkpt>
      <trkpt lat="46.11419" lon="5.68677">
        <ele>1123.2</ele>
        <time>2026-05-10T12:42:24Z</time>
      </trkpt>
      <trkpt lat="46.11414" lon="5.68674">
        <ele>1123</ele>
        <time>2026-05-10T12:42:25Z</time>
      </trkpt>
      <trkpt lat="46.11409" lon="5.6867">
        <ele>1122.8</ele>
        <time>2026-05-10T12:42:26Z</time>
      </trkpt>
      <trkpt lat="46.11403" lon="5.68666">
        <ele>1122.2</ele>
        <time>2026-05-10T12:42:27Z</time>
      </trkpt>
      <trkpt lat="46.11396" lon="5.68661">
        <ele>1121.2</ele>
        <time>2026-05-10T12:42:28Z</time>
      </trkpt>
      <trkpt lat="46.11389" lon="5.68656">
        <ele>1120</ele>
        <time>2026-05-10T12:42:29Z</time>
      </trkpt>
      <trkpt lat="46.11381" lon="5.6865">
        <ele>1118.6</ele>
        <time>2026-05-10T12:42:30Z</time>
      </trkpt>
      <trkpt lat="46.11374" lon="5.68644">
        <ele>1117.4</ele>
        <time>2026-05-10T12:42:31Z</time>
      </trkpt>
      <trkpt lat="46.11366" lon="5.68638">
        <ele>1115.4</ele>
        <time>2026-05-10T12:42:32Z</time>
      </trkpt>
      <trkpt lat="46.11358" lon="5.68631">
        <ele>1114.6</ele>
        <time>2026-05-10T12:42:33Z</time>
      </trkpt>
      <trkpt lat="46.11351" lon="5.68626">
        <ele>1114.2</ele>
        <time>2026-05-10T12:42:34Z</time>
      </trkpt>
      <trkpt lat="46.11345" lon="5.6862">
        <ele>1114.2</ele>
        <time>2026-05-10T12:42:35Z</time>
      </trkpt>
      <trkpt lat="46.11338" lon="5.68614">
        <ele>1114.2</ele>
        <time>2026-05-10T12:42:36Z</time>
      </trkpt>
      <trkpt lat="46.11332" lon="5.68608">
        <ele>1113.2</ele>
        <time>2026-05-10T12:42:37Z</time>
      </trkpt>
      <trkpt lat="46.11327" lon="5.68597">
        <ele>1113.6</ele>
        <time>2026-05-10T12:42:38Z</time>
      </trkpt>
      <trkpt lat="46.11321" lon="5.68591">
        <ele>1114.2</ele>
        <time>2026-05-10T12:42:39Z</time>
      </trkpt>
      <trkpt lat="46.11315" lon="5.68584">
        <ele>1114.2</ele>
        <time>2026-05-10T12:42:40Z</time>
      </trkpt>
      <trkpt lat="46.11308" lon="5.68578">
        <ele>1113.4</ele>
        <time>2026-05-10T12:42:41Z</time>
      </trkpt>
      <trkpt lat="46.11301" lon="5.68572">
        <ele>1113.4</ele>
        <time>2026-05-10T12:42:42Z</time>
      </trkpt>
      <trkpt lat="46.11294" lon="5.68569">
        <ele>1112.6</ele>
        <time>2026-05-10T12:42:43Z</time>
      </trkpt>
      <trkpt lat="46.11286" lon="5.68567">
        <ele>1112.2</ele>
        <time>2026-05-10T12:42:44Z</time>
      </trkpt>
      <trkpt lat="46.11278" lon="5.68567">
        <ele>1112.2</ele>
        <time>2026-05-10T12:42:45Z</time>
      </trkpt>
      <trkpt lat="46.11269" lon="5.68568">
        <ele>1111.4</ele>
        <time>2026-05-10T12:42:46Z</time>
      </trkpt>
      <trkpt lat="46.11261" lon="5.68568">
        <ele>1110.6</ele>
        <time>2026-05-10T12:42:47Z</time>
      </trkpt>
      <trkpt lat="46.11254" lon="5.68571">
        <ele>1111</ele>
        <time>2026-05-10T12:42:48Z</time>
      </trkpt>
      <trkpt lat="46.11247" lon="5.68575">
        <ele>1110.4</ele>
        <time>2026-05-10T12:42:49Z</time>
      </trkpt>
      <trkpt lat="46.11247" lon="5.68575">
        <ele>1110.8</ele>
        <time>2026-05-10T12:42:50Z</time>
      </trkpt>
      <trkpt lat="46.11233" lon="5.68582">
        <ele>1110.2</ele>
        <time>2026-05-10T12:42:51Z</time>
      </trkpt>
      <trkpt lat="46.11226" lon="5.68584">
        <ele>1110.2</ele>
        <time>2026-05-10T12:42:52Z</time>
      </trkpt>
      <trkpt lat="46.11219" lon="5.68586">
        <ele>1110</ele>
        <time>2026-05-10T12:42:53Z</time>
      </trkpt>
      <trkpt lat="46.11212" lon="5.68585">
        <ele>1109.8</ele>
        <time>2026-05-10T12:42:54Z</time>
      </trkpt>
      <trkpt lat="46.11206" lon="5.68585">
        <ele>1109.8</ele>
        <time>2026-05-10T12:42:55Z</time>
      </trkpt>
      <trkpt lat="46.11199" lon="5.68583">
        <ele>1109.6</ele>
        <time>2026-05-10T12:42:56Z</time>
      </trkpt>
      <trkpt lat="46.11193" lon="5.68583">
        <ele>1109.6</ele>
        <time>2026-05-10T12:42:57Z</time>
      </trkpt>
      <trkpt lat="46.11187" lon="5.6858">
        <ele>1109.6</ele>
        <time>2026-05-10T12:42:58Z</time>
      </trkpt>
      <trkpt lat="46.11181" lon="5.68577">
        <ele>1111</ele>
        <time>2026-05-10T12:42:59Z</time>
      </trkpt>
      <trkpt lat="46.11175" lon="5.68574">
        <ele>1111</ele>
        <time>2026-05-10T12:43:00Z</time>
      </trkpt>
      <trkpt lat="46.1117" lon="5.6857">
        <ele>1110.4</ele>
        <time>2026-05-10T12:43:01Z</time>
      </trkpt>
      <trkpt lat="46.11164" lon="5.68567">
        <ele>1109.8</ele>
        <time>2026-05-10T12:43:02Z</time>
      </trkpt>
      <trkpt lat="46.11158" lon="5.68563">
        <ele>1109.4</ele>
        <time>2026-05-10T12:43:03Z</time>
      </trkpt>
      <trkpt lat="46.11152" lon="5.68559">
        <ele>1109.2</ele>
        <time>2026-05-10T12:43:04Z</time>
      </trkpt>
      <trkpt lat="46.11146" lon="5.68554">
        <ele>1108.8</ele>
        <time>2026-05-10T12:43:05Z</time>
      </trkpt>
      <trkpt lat="46.1114" lon="5.68549">
        <ele>1108.2</ele>
        <time>2026-05-10T12:43:06Z</time>
      </trkpt>
      <trkpt lat="46.11134" lon="5.68545">
        <ele>1107.8</ele>
        <time>2026-05-10T12:43:07Z</time>
      </trkpt>
      <trkpt lat="46.11128" lon="5.68541">
        <ele>1107.6</ele>
        <time>2026-05-10T12:43:08Z</time>
      </trkpt>
      <trkpt lat="46.11123" lon="5.68536">
        <ele>1107.4</ele>
        <time>2026-05-10T12:43:09Z</time>
      </trkpt>
      <trkpt lat="46.11117" lon="5.68532">
        <ele>1107.8</ele>
        <time>2026-05-10T12:43:10Z</time>
      </trkpt>
      <trkpt lat="46.11111" lon="5.68528">
        <ele>1107.2</ele>
        <time>2026-05-10T12:43:11Z</time>
      </trkpt>
      <trkpt lat="46.11106" lon="5.68523">
        <ele>1107.2</ele>
        <time>2026-05-10T12:43:12Z</time>
      </trkpt>
      <trkpt lat="46.11101" lon="5.68518">
        <ele>1107</ele>
        <time>2026-05-10T12:43:13Z</time>
      </trkpt>
      <trkpt lat="46.11096" lon="5.68513">
        <ele>1106.4</ele>
        <time>2026-05-10T12:43:14Z</time>
      </trkpt>
      <trkpt lat="46.11091" lon="5.68508">
        <ele>1105.8</ele>
        <time>2026-05-10T12:43:15Z</time>
      </trkpt>
      <trkpt lat="46.11087" lon="5.68503">
        <ele>1105.4</ele>
        <time>2026-05-10T12:43:16Z</time>
      </trkpt>
      <trkpt lat="46.11083" lon="5.68495">
        <ele>1105.4</ele>
        <time>2026-05-10T12:43:17Z</time>
      </trkpt>
      <trkpt lat="46.11079" lon="5.6849">
        <ele>1106</ele>
        <time>2026-05-10T12:43:18Z</time>
      </trkpt>
      <trkpt lat="46.11076" lon="5.68483">
        <ele>1106.4</ele>
        <time>2026-05-10T12:43:19Z</time>
      </trkpt>
      <trkpt lat="46.11072" lon="5.68477">
        <ele>1106.4</ele>
        <time>2026-05-10T12:43:20Z</time>
      </trkpt>
      <trkpt lat="46.11068" lon="5.6847">
        <ele>1106.8</ele>
        <time>2026-05-10T12:43:21Z</time>
      </trkpt>
      <trkpt lat="46.11063" lon="5.68463">
        <ele>1106.6</ele>
        <time>2026-05-10T12:43:22Z</time>
      </trkpt>
      <trkpt lat="46.11061" lon="5.68456">
        <ele>1106.6</ele>
        <time>2026-05-10T12:43:23Z</time>
      </trkpt>
      <trkpt lat="46.11057" lon="5.6845">
        <ele>1106.6</ele>
        <time>2026-05-10T12:43:24Z</time>
      </trkpt>
      <trkpt lat="46.11053" lon="5.68444">
        <ele>1106.6</ele>
        <time>2026-05-10T12:43:25Z</time>
      </trkpt>
      <trkpt lat="46.11049" lon="5.68438">
        <ele>1106.6</ele>
        <time>2026-05-10T12:43:26Z</time>
      </trkpt>
      <trkpt lat="46.11044" lon="5.68433">
        <ele>1106</ele>
        <time>2026-05-10T12:43:27Z</time>
      </trkpt>
      <trkpt lat="46.1104" lon="5.68428">
        <ele>1105.8</ele>
        <time>2026-05-10T12:43:28Z</time>
      </trkpt>
      <trkpt lat="46.11035" lon="5.68425">
        <ele>1105.8</ele>
        <time>2026-05-10T12:43:29Z</time>
      </trkpt>
      <trkpt lat="46.1103" lon="5.68421">
        <ele>1105.4</ele>
        <time>2026-05-10T12:43:30Z</time>
      </trkpt>
      <trkpt lat="46.11026" lon="5.6842">
        <ele>1106</ele>
        <time>2026-05-10T12:43:31Z</time>
      </trkpt>
      <trkpt lat="46.11022" lon="5.68417">
        <ele>1105.6</ele>
        <time>2026-05-10T12:43:32Z</time>
      </trkpt>
      <trkpt lat="46.11019" lon="5.68415">
        <ele>1105.6</ele>
        <time>2026-05-10T12:43:33Z</time>
      </trkpt>
      <trkpt lat="46.11015" lon="5.68411">
        <ele>1105</ele>
        <time>2026-05-10T12:43:34Z</time>
      </trkpt>
      <trkpt lat="46.11012" lon="5.68408">
        <ele>1105</ele>
        <time>2026-05-10T12:43:35Z</time>
      </trkpt>
      <trkpt lat="46.11009" lon="5.68404">
        <ele>1105</ele>
        <time>2026-05-10T12:43:36Z</time>
      </trkpt>
      <trkpt lat="46.11006" lon="5.68401">
        <ele>1105</ele>
        <time>2026-05-10T12:43:37Z</time>
      </trkpt>
      <trkpt lat="46.11004" lon="5.68397">
        <ele>1105.6</ele>
        <time>2026-05-10T12:43:38Z</time>
      </trkpt>
      <trkpt lat="46.11002" lon="5.68395">
        <ele>1105.6</ele>
        <time>2026-05-10T12:43:39Z</time>
      </trkpt>
      <trkpt lat="46.11001" lon="5.6839">
        <ele>1105.6</ele>
        <time>2026-05-10T12:43:40Z</time>
      </trkpt>
      <trkpt lat="46.11" lon="5.68386">
        <ele>1105.6</ele>
        <time>2026-05-10T12:43:41Z</time>
      </trkpt>
      <trkpt lat="46.11" lon="5.68382">
        <ele>1105.6</ele>
        <time>2026-05-10T12:43:42Z</time>
      </trkpt>
      <trkpt lat="46.11" lon="5.68378">
        <ele>1106</ele>
        <time>2026-05-10T12:43:43Z</time>
      </trkpt>
      <trkpt lat="46.11" lon="5.68373">
        <ele>1106</ele>
        <time>2026-05-10T12:43:44Z</time>
      </trkpt>
      <trkpt lat="46.11" lon="5.68369">
        <ele>1106</ele>
        <time>2026-05-10T12:43:45Z</time>
      </trkpt>
      <trkpt lat="46.11001" lon="5.68364">
        <ele>1106.2</ele>
        <time>2026-05-10T12:43:46Z</time>
      </trkpt>
      <trkpt lat="46.11002" lon="5.68361">
        <ele>1106.6</ele>
        <time>2026-05-10T12:43:47Z</time>
      </trkpt>
      <trkpt lat="46.11003" lon="5.68359">
        <ele>1106.8</ele>
        <time>2026-05-10T12:43:48Z</time>
      </trkpt>
      <trkpt lat="46.11004" lon="5.68357">
        <ele>1106.8</ele>
        <time>2026-05-10T12:43:49Z</time>
      </trkpt>
      <trkpt lat="46.11004" lon="5.68354">
        <ele>1107</ele>
        <time>2026-05-10T12:43:50Z</time>
      </trkpt>
      <trkpt lat="46.11003" lon="5.6835">
        <ele>1107</ele>
        <time>2026-05-10T12:43:51Z</time>
      </trkpt>
      <trkpt lat="46.11002" lon="5.68346">
        <ele>1107</ele>
        <time>2026-05-10T12:43:52Z</time>
      </trkpt>
      <trkpt lat="46.11002" lon="5.68342">
        <ele>1107.2</ele>
        <time>2026-05-10T12:43:53Z</time>
      </trkpt>
      <trkpt lat="46.11001" lon="5.68338">
        <ele>1107.2</ele>
        <time>2026-05-10T12:43:54Z</time>
      </trkpt>
      <trkpt lat="46.11" lon="5.68334">
        <ele>1107.6</ele>
        <time>2026-05-10T12:43:55Z</time>
      </trkpt>
      <trkpt lat="46.10999" lon="5.68331">
        <ele>1108</ele>
        <time>2026-05-10T12:43:56Z</time>
      </trkpt>
      <trkpt lat="46.10998" lon="5.68328">
        <ele>1108</ele>
        <time>2026-05-10T12:43:57Z</time>
      </trkpt>
      <trkpt lat="46.10996" lon="5.68325">
        <ele>1108.2</ele>
        <time>2026-05-10T12:43:58Z</time>
      </trkpt>
      <trkpt lat="46.10994" lon="5.68322">
        <ele>1108.6</ele>
        <time>2026-05-10T12:43:59Z</time>
      </trkpt>
      <trkpt lat="46.10992" lon="5.6832">
        <ele>1108.6</ele>
        <time>2026-05-10T12:44:00Z</time>
      </trkpt>
      <trkpt lat="46.10991" lon="5.68318">
        <ele>1108.6</ele>
        <time>2026-05-10T12:44:01Z</time>
      </trkpt>
      <trkpt lat="46.10989" lon="5.68317">
        <ele>1108.6</ele>
        <time>2026-05-10T12:44:02Z</time>
      </trkpt>
      <trkpt lat="46.10986" lon="5.68315">
        <ele>1108.6</ele>
        <time>2026-05-10T12:44:03Z</time>
      </trkpt>
      <trkpt lat="46.10984" lon="5.68314">
        <ele>1108.6</ele>
        <time>2026-05-10T12:44:04Z</time>
      </trkpt>
      <trkpt lat="46.10982" lon="5.68313">
        <ele>1108.6</ele>
        <time>2026-05-10T12:44:05Z</time>
      </trkpt>
      <trkpt lat="46.1098" lon="5.68312">
        <ele>1108.6</ele>
        <time>2026-05-10T12:44:06Z</time>
      </trkpt>
      <trkpt lat="46.10977" lon="5.68311">
        <ele>1109</ele>
        <time>2026-05-10T12:44:07Z</time>
      </trkpt>
      <trkpt lat="46.10975" lon="5.68311">
        <ele>1109</ele>
        <time>2026-05-10T12:44:08Z</time>
      </trkpt>
      <trkpt lat="46.10972" lon="5.68311">
        <ele>1109</ele>
        <time>2026-05-10T12:44:09Z</time>
      </trkpt>
      <trkpt lat="46.10969" lon="5.68312">
        <ele>1109.2</ele>
        <time>2026-05-10T12:44:10Z</time>
      </trkpt>
      <trkpt lat="46.10967" lon="5.68313">
        <ele>1109.2</ele>
        <time>2026-05-10T12:44:11Z</time>
      </trkpt>
      <trkpt lat="46.10965" lon="5.68314">
        <ele>1109.2</ele>
        <time>2026-05-10T12:44:12Z</time>
      </trkpt>
      <trkpt lat="46.10963" lon="5.68315">
        <ele>1109.6</ele>
        <time>2026-05-10T12:44:13Z</time>
      </trkpt>
      <trkpt lat="46.1096" lon="5.68315">
        <ele>1109.6</ele>
        <time>2026-05-10T12:44:14Z</time>
      </trkpt>
      <trkpt lat="46.10958" lon="5.68316">
        <ele>1109.4</ele>
        <time>2026-05-10T12:44:15Z</time>
      </trkpt>
      <trkpt lat="46.10955" lon="5.68316">
        <ele>1109.4</ele>
        <time>2026-05-10T12:44:16Z</time>
      </trkpt>
      <trkpt lat="46.10951" lon="5.68317">
        <ele>1109</ele>
        <time>2026-05-10T12:44:17Z</time>
      </trkpt>
      <trkpt lat="46.10948" lon="5.68317">
        <ele>1109</ele>
        <time>2026-05-10T12:44:18Z</time>
      </trkpt>
      <trkpt lat="46.10944" lon="5.68318">
        <ele>1108.8</ele>
        <time>2026-05-10T12:44:19Z</time>
      </trkpt>
      <trkpt lat="46.1094" lon="5.68319">
        <ele>1108.8</ele>
        <time>2026-05-10T12:44:20Z</time>
      </trkpt>
      <trkpt lat="46.10936" lon="5.68319">
        <ele>1108.6</ele>
        <time>2026-05-10T12:44:21Z</time>
      </trkpt>
      <trkpt lat="46.10933" lon="5.6832">
        <ele>1108.8</ele>
        <time>2026-05-10T12:44:22Z</time>
      </trkpt>
      <trkpt lat="46.10928" lon="5.68321">
        <ele>1108.8</ele>
        <time>2026-05-10T12:44:23Z</time>
      </trkpt>
      <trkpt lat="46.10925" lon="5.68322">
        <ele>1108.6</ele>
        <time>2026-05-10T12:44:24Z</time>
      </trkpt>
      <trkpt lat="46.10922" lon="5.68322">
        <ele>1108.6</ele>
        <time>2026-05-10T12:44:25Z</time>
      </trkpt>
      <trkpt lat="46.10919" lon="5.68322">
        <ele>1108.8</ele>
        <time>2026-05-10T12:44:26Z</time>
      </trkpt>
      <trkpt lat="46.10916" lon="5.68322">
        <ele>1108.8</ele>
        <time>2026-05-10T12:44:27Z</time>
      </trkpt>
      <trkpt lat="46.10911" lon="5.68323">
        <ele>1108.8</ele>
        <time>2026-05-10T12:44:28Z</time>
      </trkpt>
      <trkpt lat="46.10909" lon="5.68323">
        <ele>1108.8</ele>
        <time>2026-05-10T12:44:29Z</time>
      </trkpt>
      <trkpt lat="46.10906" lon="5.68324">
        <ele>1108.8</ele>
        <time>2026-05-10T12:44:30Z</time>
      </trkpt>
      <trkpt lat="46.10904" lon="5.68324">
        <ele>1109.2</ele>
        <time>2026-05-10T12:44:31Z</time>
      </trkpt>
      <trkpt lat="46.10899" lon="5.68324">
        <ele>1109.2</ele>
        <time>2026-05-10T12:44:32Z</time>
      </trkpt>
      <trkpt lat="46.10894" lon="5.68326">
        <ele>1109.2</ele>
        <time>2026-05-10T12:44:33Z</time>
      </trkpt>
      <trkpt lat="46.10889" lon="5.68327">
        <ele>1108.6</ele>
        <time>2026-05-10T12:44:34Z</time>
      </trkpt>
      <trkpt lat="46.10884" lon="5.68329">
        <ele>1107.8</ele>
        <time>2026-05-10T12:44:35Z</time>
      </trkpt>
      <trkpt lat="46.10879" lon="5.68331">
        <ele>1107.4</ele>
        <time>2026-05-10T12:44:36Z</time>
      </trkpt>
      <trkpt lat="46.10875" lon="5.68335">
        <ele>1107.2</ele>
        <time>2026-05-10T12:44:37Z</time>
      </trkpt>
      <trkpt lat="46.1087" lon="5.68337">
        <ele>1106.8</ele>
        <time>2026-05-10T12:44:38Z</time>
      </trkpt>
      <trkpt lat="46.10864" lon="5.68339">
        <ele>1106.4</ele>
        <time>2026-05-10T12:44:39Z</time>
      </trkpt>
      <trkpt lat="46.1086" lon="5.6834">
        <ele>1106.2</ele>
        <time>2026-05-10T12:44:40Z</time>
      </trkpt>
      <trkpt lat="46.10854" lon="5.6834">
        <ele>1105.8</ele>
        <time>2026-05-10T12:44:41Z</time>
      </trkpt>
      <trkpt lat="46.1085" lon="5.68339">
        <ele>1105.8</ele>
        <time>2026-05-10T12:44:42Z</time>
      </trkpt>
      <trkpt lat="46.10845" lon="5.68336">
        <ele>1105.6</ele>
        <time>2026-05-10T12:44:43Z</time>
      </trkpt>
      <trkpt lat="46.10842" lon="5.68333">
        <ele>1105.6</ele>
        <time>2026-05-10T12:44:44Z</time>
      </trkpt>
      <trkpt lat="46.10838" lon="5.68329">
        <ele>1105.6</ele>
        <time>2026-05-10T12:44:45Z</time>
      </trkpt>
      <trkpt lat="46.10835" lon="5.68323">
        <ele>1105.6</ele>
        <time>2026-05-10T12:44:46Z</time>
      </trkpt>
      <trkpt lat="46.10832" lon="5.68318">
        <ele>1105.6</ele>
        <time>2026-05-10T12:44:47Z</time>
      </trkpt>
      <trkpt lat="46.1083" lon="5.68314">
        <ele>1105.6</ele>
        <time>2026-05-10T12:44:48Z</time>
      </trkpt>
      <trkpt lat="46.10828" lon="5.68309">
        <ele>1105.8</ele>
        <time>2026-05-10T12:44:49Z</time>
      </trkpt>
      <trkpt lat="46.10828" lon="5.68307">
        <ele>1106.2</ele>
        <time>2026-05-10T12:44:50Z</time>
      </trkpt>
      <trkpt lat="46.10828" lon="5.68304">
        <ele>1106.6</ele>
        <time>2026-05-10T12:44:51Z</time>
      </trkpt>
      <trkpt lat="46.10827" lon="5.683">
        <ele>1107.4</ele>
        <time>2026-05-10T12:44:52Z</time>
      </trkpt>
      <trkpt lat="46.10826" lon="5.68298">
        <ele>1107.8</ele>
        <time>2026-05-10T12:44:53Z</time>
      </trkpt>
      <trkpt lat="46.10825" lon="5.68295">
        <ele>1108.4</ele>
        <time>2026-05-10T12:44:54Z</time>
      </trkpt>
      <trkpt lat="46.10825" lon="5.68292">
        <ele>1108.8</ele>
        <time>2026-05-10T12:44:55Z</time>
      </trkpt>
      <trkpt lat="46.10825" lon="5.6829">
        <ele>1109.4</ele>
        <time>2026-05-10T12:44:56Z</time>
      </trkpt>
      <trkpt lat="46.10824" lon="5.68288">
        <ele>1109.6</ele>
        <time>2026-05-10T12:44:57Z</time>
      </trkpt>
      <trkpt lat="46.10824" lon="5.68288">
        <ele>1110.2</ele>
        <time>2026-05-10T12:44:58Z</time>
      </trkpt>
      <trkpt lat="46.10824" lon="5.68285">
        <ele>1110.4</ele>
        <time>2026-05-10T12:44:59Z</time>
      </trkpt>
      <trkpt lat="46.10823" lon="5.68283">
        <ele>1111</ele>
        <time>2026-05-10T12:45:00Z</time>
      </trkpt>
      <trkpt lat="46.10823" lon="5.68282">
        <ele>1111.2</ele>
        <time>2026-05-10T12:45:01Z</time>
      </trkpt>
      <trkpt lat="46.10822" lon="5.6828">
        <ele>1111.4</ele>
        <time>2026-05-10T12:45:02Z</time>
      </trkpt>
      <trkpt lat="46.10821" lon="5.68279">
        <ele>1111.8</ele>
        <time>2026-05-10T12:45:03Z</time>
      </trkpt>
      <trkpt lat="46.1082" lon="5.68277">
        <ele>1112.2</ele>
        <time>2026-05-10T12:45:04Z</time>
      </trkpt>
      <trkpt lat="46.10819" lon="5.68276">
        <ele>1112.2</ele>
        <time>2026-05-10T12:45:05Z</time>
      </trkpt>
      <trkpt lat="46.10817" lon="5.68274">
        <ele>1112.4</ele>
        <time>2026-05-10T12:45:06Z</time>
      </trkpt>
      <trkpt lat="46.10816" lon="5.68272">
        <ele>1112.8</ele>
        <time>2026-05-10T12:45:07Z</time>
      </trkpt>
      <trkpt lat="46.10815" lon="5.68271">
        <ele>1112.8</ele>
        <time>2026-05-10T12:45:08Z</time>
      </trkpt>
      <trkpt lat="46.10813" lon="5.68269">
        <ele>1112.8</ele>
        <time>2026-05-10T12:45:09Z</time>
      </trkpt>
      <trkpt lat="46.10812" lon="5.68267">
        <ele>1113</ele>
        <time>2026-05-10T12:45:10Z</time>
      </trkpt>
      <trkpt lat="46.1081" lon="5.68265">
        <ele>1113</ele>
        <time>2026-05-10T12:45:11Z</time>
      </trkpt>
      <trkpt lat="46.10809" lon="5.68264">
        <ele>1113</ele>
        <time>2026-05-10T12:45:12Z</time>
      </trkpt>
      <trkpt lat="46.10807" lon="5.68263">
        <ele>1113</ele>
        <time>2026-05-10T12:45:13Z</time>
      </trkpt>
      <trkpt lat="46.10805" lon="5.68262">
        <ele>1113</ele>
        <time>2026-05-10T12:45:14Z</time>
      </trkpt>
      <trkpt lat="46.10803" lon="5.68261">
        <ele>1113</ele>
        <time>2026-05-10T12:45:15Z</time>
      </trkpt>
      <trkpt lat="46.10801" lon="5.68261">
        <ele>1113</ele>
        <time>2026-05-10T12:45:16Z</time>
      </trkpt>
      <trkpt lat="46.10799" lon="5.6826">
        <ele>1113</ele>
        <time>2026-05-10T12:45:17Z</time>
      </trkpt>
      <trkpt lat="46.10796" lon="5.68259">
        <ele>1113</ele>
        <time>2026-05-10T12:45:18Z</time>
      </trkpt>
      <trkpt lat="46.10794" lon="5.68257">
        <ele>1113</ele>
        <time>2026-05-10T12:45:19Z</time>
      </trkpt>
      <trkpt lat="46.10791" lon="5.68256">
        <ele>1113</ele>
        <time>2026-05-10T12:45:20Z</time>
      </trkpt>
      <trkpt lat="46.10789" lon="5.68255">
        <ele>1113</ele>
        <time>2026-05-10T12:45:21Z</time>
      </trkpt>
      <trkpt lat="46.10787" lon="5.68255">
        <ele>1113</ele>
        <time>2026-05-10T12:45:22Z</time>
      </trkpt>
      <trkpt lat="46.10785" lon="5.68254">
        <ele>1113</ele>
        <time>2026-05-10T12:45:23Z</time>
      </trkpt>
      <trkpt lat="46.10783" lon="5.68253">
        <ele>1113</ele>
        <time>2026-05-10T12:45:24Z</time>
      </trkpt>
      <trkpt lat="46.10781" lon="5.68252">
        <ele>1113</ele>
        <time>2026-05-10T12:45:25Z</time>
      </trkpt>
      <trkpt lat="46.10778" lon="5.68251">
        <ele>1112.8</ele>
        <time>2026-05-10T12:45:26Z</time>
      </trkpt>
      <trkpt lat="46.10776" lon="5.6825">
        <ele>1112.8</ele>
        <time>2026-05-10T12:45:27Z</time>
      </trkpt>
      <trkpt lat="46.10773" lon="5.68249">
        <ele>1113</ele>
        <time>2026-05-10T12:45:28Z</time>
      </trkpt>
      <trkpt lat="46.10769" lon="5.68248">
        <ele>1113</ele>
        <time>2026-05-10T12:45:29Z</time>
      </trkpt>
      <trkpt lat="46.10766" lon="5.68247">
        <ele>1112.6</ele>
        <time>2026-05-10T12:45:30Z</time>
      </trkpt>
      <trkpt lat="46.10763" lon="5.68246">
        <ele>1112.6</ele>
        <time>2026-05-10T12:45:31Z</time>
      </trkpt>
      <trkpt lat="46.1076" lon="5.68245">
        <ele>1112.6</ele>
        <time>2026-05-10T12:45:32Z</time>
      </trkpt>
      <trkpt lat="46.10757" lon="5.68244">
        <ele>1112.8</ele>
        <time>2026-05-10T12:45:33Z</time>
      </trkpt>
      <trkpt lat="46.10754" lon="5.68243">
        <ele>1112.4</ele>
        <time>2026-05-10T12:45:34Z</time>
      </trkpt>
      <trkpt lat="46.10751" lon="5.68242">
        <ele>1111.8</ele>
        <time>2026-05-10T12:45:35Z</time>
      </trkpt>
      <trkpt lat="46.10747" lon="5.68241">
        <ele>1111.4</ele>
        <time>2026-05-10T12:45:36Z</time>
      </trkpt>
      <trkpt lat="46.10742" lon="5.68241">
        <ele>1110.6</ele>
        <time>2026-05-10T12:45:37Z</time>
      </trkpt>
      <trkpt lat="46.10737" lon="5.6824">
        <ele>1109.8</ele>
        <time>2026-05-10T12:45:38Z</time>
      </trkpt>
      <trkpt lat="46.10731" lon="5.68239">
        <ele>1109</ele>
        <time>2026-05-10T12:45:39Z</time>
      </trkpt>
      <trkpt lat="46.10724" lon="5.68237">
        <ele>1108.2</ele>
        <time>2026-05-10T12:45:40Z</time>
      </trkpt>
      <trkpt lat="46.10717" lon="5.68236">
        <ele>1107.6</ele>
        <time>2026-05-10T12:45:41Z</time>
      </trkpt>
      <trkpt lat="46.10711" lon="5.68233">
        <ele>1107</ele>
        <time>2026-05-10T12:45:42Z</time>
      </trkpt>
      <trkpt lat="46.10705" lon="5.68227">
        <ele>1106.8</ele>
        <time>2026-05-10T12:45:43Z</time>
      </trkpt>
      <trkpt lat="46.10699" lon="5.68221">
        <ele>1106.4</ele>
        <time>2026-05-10T12:45:44Z</time>
      </trkpt>
      <trkpt lat="46.10695" lon="5.68214">
        <ele>1106.4</ele>
        <time>2026-05-10T12:45:45Z</time>
      </trkpt>
      <trkpt lat="46.10691" lon="5.68207">
        <ele>1106.6</ele>
        <time>2026-05-10T12:45:46Z</time>
      </trkpt>
      <trkpt lat="46.10689" lon="5.682">
        <ele>1106.6</ele>
        <time>2026-05-10T12:45:47Z</time>
      </trkpt>
      <trkpt lat="46.10686" lon="5.68193">
        <ele>1106.6</ele>
        <time>2026-05-10T12:45:48Z</time>
      </trkpt>
      <trkpt lat="46.10684" lon="5.68187">
        <ele>1106.6</ele>
        <time>2026-05-10T12:45:49Z</time>
      </trkpt>
      <trkpt lat="46.10681" lon="5.68182">
        <ele>1106.6</ele>
        <time>2026-05-10T12:45:50Z</time>
      </trkpt>
      <trkpt lat="46.10678" lon="5.68177">
        <ele>1107.2</ele>
        <time>2026-05-10T12:45:51Z</time>
      </trkpt>
      <trkpt lat="46.10674" lon="5.68173">
        <ele>1106.4</ele>
        <time>2026-05-10T12:45:52Z</time>
      </trkpt>
      <trkpt lat="46.10671" lon="5.68168">
        <ele>1106.6</ele>
        <time>2026-05-10T12:45:53Z</time>
      </trkpt>
      <trkpt lat="46.10667" lon="5.68164">
        <ele>1106.6</ele>
        <time>2026-05-10T12:45:54Z</time>
      </trkpt>
      <trkpt lat="46.10663" lon="5.68161">
        <ele>1107</ele>
        <time>2026-05-10T12:45:55Z</time>
      </trkpt>
      <trkpt lat="46.10659" lon="5.68159">
        <ele>1107</ele>
        <time>2026-05-10T12:45:56Z</time>
      </trkpt>
      <trkpt lat="46.10656" lon="5.68158">
        <ele>1107.2</ele>
        <time>2026-05-10T12:45:57Z</time>
      </trkpt>
      <trkpt lat="46.10652" lon="5.68156">
        <ele>1107.2</ele>
        <time>2026-05-10T12:45:58Z</time>
      </trkpt>
      <trkpt lat="46.10647" lon="5.68157">
        <ele>1107.2</ele>
        <time>2026-05-10T12:45:59Z</time>
      </trkpt>
      <trkpt lat="46.10643" lon="5.68156">
        <ele>1107.6</ele>
        <time>2026-05-10T12:46:00Z</time>
      </trkpt>
      <trkpt lat="46.10639" lon="5.68157">
        <ele>1108</ele>
        <time>2026-05-10T12:46:01Z</time>
      </trkpt>
      <trkpt lat="46.10636" lon="5.68158">
        <ele>1108</ele>
        <time>2026-05-10T12:46:02Z</time>
      </trkpt>
      <trkpt lat="46.10633" lon="5.68158">
        <ele>1108</ele>
        <time>2026-05-10T12:46:03Z</time>
      </trkpt>
      <trkpt lat="46.1063" lon="5.6816">
        <ele>1108</ele>
        <time>2026-05-10T12:46:04Z</time>
      </trkpt>
      <trkpt lat="46.10627" lon="5.68161">
        <ele>1108.6</ele>
        <time>2026-05-10T12:46:05Z</time>
      </trkpt>
      <trkpt lat="46.10624" lon="5.68161">
        <ele>1108.6</ele>
        <time>2026-05-10T12:46:06Z</time>
      </trkpt>
      <trkpt lat="46.10622" lon="5.68162">
        <ele>1108.6</ele>
        <time>2026-05-10T12:46:07Z</time>
      </trkpt>
      <trkpt lat="46.10618" lon="5.68163">
        <ele>1108.8</ele>
        <time>2026-05-10T12:46:08Z</time>
      </trkpt>
      <trkpt lat="46.10614" lon="5.68164">
        <ele>1109.6</ele>
        <time>2026-05-10T12:46:09Z</time>
      </trkpt>
      <trkpt lat="46.1061" lon="5.68165">
        <ele>1109.4</ele>
        <time>2026-05-10T12:46:10Z</time>
      </trkpt>
      <trkpt lat="46.10608" lon="5.68165">
        <ele>1109.4</ele>
        <time>2026-05-10T12:46:11Z</time>
      </trkpt>
      <trkpt lat="46.10604" lon="5.68166">
        <ele>1109.4</ele>
        <time>2026-05-10T12:46:12Z</time>
      </trkpt>
      <trkpt lat="46.10601" lon="5.68167">
        <ele>1109.2</ele>
        <time>2026-05-10T12:46:13Z</time>
      </trkpt>
      <trkpt lat="46.10597" lon="5.68167">
        <ele>1109.2</ele>
        <time>2026-05-10T12:46:14Z</time>
      </trkpt>
      <trkpt lat="46.10594" lon="5.68167">
        <ele>1109.2</ele>
        <time>2026-05-10T12:46:15Z</time>
      </trkpt>
      <trkpt lat="46.10591" lon="5.68167">
        <ele>1109.2</ele>
        <time>2026-05-10T12:46:16Z</time>
      </trkpt>
      <trkpt lat="46.10588" lon="5.68167">
        <ele>1109.2</ele>
        <time>2026-05-10T12:46:17Z</time>
      </trkpt>
      <trkpt lat="46.10585" lon="5.68166">
        <ele>1108.6</ele>
        <time>2026-05-10T12:46:18Z</time>
      </trkpt>
      <trkpt lat="46.10581" lon="5.68166">
        <ele>1108.6</ele>
        <time>2026-05-10T12:46:19Z</time>
      </trkpt>
      <trkpt lat="46.10578" lon="5.68165">
        <ele>1108</ele>
        <time>2026-05-10T12:46:20Z</time>
      </trkpt>
      <trkpt lat="46.10574" lon="5.68164">
        <ele>1107</ele>
        <time>2026-05-10T12:46:21Z</time>
      </trkpt>
      <trkpt lat="46.1057" lon="5.68162">
        <ele>1107</ele>
        <time>2026-05-10T12:46:22Z</time>
      </trkpt>
      <trkpt lat="46.10566" lon="5.68159">
        <ele>1106.8</ele>
        <time>2026-05-10T12:46:23Z</time>
      </trkpt>
      <trkpt lat="46.10562" lon="5.68158">
        <ele>1106.8</ele>
        <time>2026-05-10T12:46:24Z</time>
      </trkpt>
      <trkpt lat="46.10558" lon="5.68156">
        <ele>1106.4</ele>
        <time>2026-05-10T12:46:25Z</time>
      </trkpt>
      <trkpt lat="46.10554" lon="5.68154">
        <ele>1105.8</ele>
        <time>2026-05-10T12:46:26Z</time>
      </trkpt>
      <trkpt lat="46.10549" lon="5.68153">
        <ele>1105.8</ele>
        <time>2026-05-10T12:46:27Z</time>
      </trkpt>
      <trkpt lat="46.10545" lon="5.6815">
        <ele>1105.2</ele>
        <time>2026-05-10T12:46:28Z</time>
      </trkpt>
      <trkpt lat="46.10541" lon="5.68145">
        <ele>1104.2</ele>
        <time>2026-05-10T12:46:29Z</time>
      </trkpt>
      <trkpt lat="46.10537" lon="5.68142">
        <ele>1104</ele>
        <time>2026-05-10T12:46:30Z</time>
      </trkpt>
      <trkpt lat="46.10534" lon="5.68139">
        <ele>1104</ele>
        <time>2026-05-10T12:46:31Z</time>
      </trkpt>
      <trkpt lat="46.10531" lon="5.68137">
        <ele>1104</ele>
        <time>2026-05-10T12:46:32Z</time>
      </trkpt>
      <trkpt lat="46.10529" lon="5.68135">
        <ele>1104</ele>
        <time>2026-05-10T12:46:33Z</time>
      </trkpt>
      <trkpt lat="46.10528" lon="5.68133">
        <ele>1104</ele>
        <time>2026-05-10T12:46:34Z</time>
      </trkpt>
      <trkpt lat="46.10526" lon="5.68131">
        <ele>1104</ele>
        <time>2026-05-10T12:46:35Z</time>
      </trkpt>
      <trkpt lat="46.10525" lon="5.6813">
        <ele>1103.6</ele>
        <time>2026-05-10T12:46:36Z</time>
      </trkpt>
      <trkpt lat="46.10524" lon="5.6813">
        <ele>1103.4</ele>
        <time>2026-05-10T12:46:37Z</time>
      </trkpt>
      <trkpt lat="46.10523" lon="5.68129">
        <ele>1103.4</ele>
        <time>2026-05-10T12:46:38Z</time>
      </trkpt>
      <trkpt lat="46.10522" lon="5.68128">
        <ele>1103.8</ele>
        <time>2026-05-10T12:46:39Z</time>
      </trkpt>
      <trkpt lat="46.10521" lon="5.68126">
        <ele>1103.8</ele>
        <time>2026-05-10T12:46:40Z</time>
      </trkpt>
      <trkpt lat="46.1052" lon="5.68125">
        <ele>1103.8</ele>
        <time>2026-05-10T12:46:41Z</time>
      </trkpt>
      <trkpt lat="46.10519" lon="5.68123">
        <ele>1103.6</ele>
        <time>2026-05-10T12:46:42Z</time>
      </trkpt>
      <trkpt lat="46.10519" lon="5.68122">
        <ele>1103.6</ele>
        <time>2026-05-10T12:46:43Z</time>
      </trkpt>
      <trkpt lat="46.10518" lon="5.68121">
        <ele>1103</ele>
        <time>2026-05-10T12:46:44Z</time>
      </trkpt>
      <trkpt lat="46.10518" lon="5.6812">
        <ele>1103.6</ele>
        <time>2026-05-10T12:46:45Z</time>
      </trkpt>
      <trkpt lat="46.10518" lon="5.68119">
        <ele>1103</ele>
        <time>2026-05-10T12:46:46Z</time>
      </trkpt>
      <trkpt lat="46.10517" lon="5.68119">
        <ele>1103.4</ele>
        <time>2026-05-10T12:46:47Z</time>
      </trkpt>
      <trkpt lat="46.10516" lon="5.68118">
        <ele>1103</ele>
        <time>2026-05-10T12:46:48Z</time>
      </trkpt>
      <trkpt lat="46.10514" lon="5.68117">
        <ele>1102.6</ele>
        <time>2026-05-10T12:46:49Z</time>
      </trkpt>
      <trkpt lat="46.10513" lon="5.68116">
        <ele>1103.2</ele>
        <time>2026-05-10T12:46:50Z</time>
      </trkpt>
      <trkpt lat="46.10512" lon="5.68115">
        <ele>1103.2</ele>
        <time>2026-05-10T12:46:51Z</time>
      </trkpt>
      <trkpt lat="46.10511" lon="5.68113">
        <ele>1103.2</ele>
        <time>2026-05-10T12:46:52Z</time>
      </trkpt>
      <trkpt lat="46.10511" lon="5.6811">
        <ele>1103.2</ele>
        <time>2026-05-10T12:46:53Z</time>
      </trkpt>
      <trkpt lat="46.1051" lon="5.68108">
        <ele>1103.6</ele>
        <time>2026-05-10T12:46:54Z</time>
      </trkpt>
      <trkpt lat="46.10509" lon="5.68106">
        <ele>1103.6</ele>
        <time>2026-05-10T12:46:55Z</time>
      </trkpt>
      <trkpt lat="46.10508" lon="5.68104">
        <ele>1103.4</ele>
        <time>2026-05-10T12:46:56Z</time>
      </trkpt>
      <trkpt lat="46.10506" lon="5.68101">
        <ele>1103.4</ele>
        <time>2026-05-10T12:46:57Z</time>
      </trkpt>
      <trkpt lat="46.10505" lon="5.68099">
        <ele>1103.4</ele>
        <time>2026-05-10T12:46:58Z</time>
      </trkpt>
      <trkpt lat="46.10503" lon="5.68097">
        <ele>1103.4</ele>
        <time>2026-05-10T12:46:59Z</time>
      </trkpt>
      <trkpt lat="46.10501" lon="5.68095">
        <ele>1103.4</ele>
        <time>2026-05-10T12:47:00Z</time>
      </trkpt>
      <trkpt lat="46.10498" lon="5.68093">
        <ele>1103.2</ele>
        <time>2026-05-10T12:47:01Z</time>
      </trkpt>
      <trkpt lat="46.10495" lon="5.68092">
        <ele>1103.2</ele>
        <time>2026-05-10T12:47:02Z</time>
      </trkpt>
      <trkpt lat="46.10492" lon="5.68091">
        <ele>1102.8</ele>
        <time>2026-05-10T12:47:03Z</time>
      </trkpt>
      <trkpt lat="46.10486" lon="5.68092">
        <ele>1102.8</ele>
        <time>2026-05-10T12:47:04Z</time>
      </trkpt>
      <trkpt lat="46.10482" lon="5.68091">
        <ele>1102.2</ele>
        <time>2026-05-10T12:47:05Z</time>
      </trkpt>
      <trkpt lat="46.10477" lon="5.6809">
        <ele>1102</ele>
        <time>2026-05-10T12:47:06Z</time>
      </trkpt>
      <trkpt lat="46.10473" lon="5.68089">
        <ele>1102</ele>
        <time>2026-05-10T12:47:07Z</time>
      </trkpt>
      <trkpt lat="46.10467" lon="5.68089">
        <ele>1101.2</ele>
        <time>2026-05-10T12:47:08Z</time>
      </trkpt>
      <trkpt lat="46.10463" lon="5.68089">
        <ele>1100.4</ele>
        <time>2026-05-10T12:47:09Z</time>
      </trkpt>
      <trkpt lat="46.10458" lon="5.68089">
        <ele>1099.6</ele>
        <time>2026-05-10T12:47:10Z</time>
      </trkpt>
      <trkpt lat="46.10454" lon="5.68089">
        <ele>1099.4</ele>
        <time>2026-05-10T12:47:11Z</time>
      </trkpt>
      <trkpt lat="46.10449" lon="5.6809">
        <ele>1099.6</ele>
        <time>2026-05-10T12:47:12Z</time>
      </trkpt>
      <trkpt lat="46.10445" lon="5.68091">
        <ele>1099.6</ele>
        <time>2026-05-10T12:47:13Z</time>
      </trkpt>
      <trkpt lat="46.1044" lon="5.68092">
        <ele>1099.4</ele>
        <time>2026-05-10T12:47:14Z</time>
      </trkpt>
      <trkpt lat="46.10436" lon="5.68094">
        <ele>1099.4</ele>
        <time>2026-05-10T12:47:15Z</time>
      </trkpt>
      <trkpt lat="46.10431" lon="5.68096">
        <ele>1099.2</ele>
        <time>2026-05-10T12:47:16Z</time>
      </trkpt>
      <trkpt lat="46.10427" lon="5.68098">
        <ele>1099</ele>
        <time>2026-05-10T12:47:17Z</time>
      </trkpt>
      <trkpt lat="46.10424" lon="5.68098">
        <ele>1099</ele>
        <time>2026-05-10T12:47:18Z</time>
      </trkpt>
      <trkpt lat="46.1042" lon="5.68098">
        <ele>1099</ele>
        <time>2026-05-10T12:47:19Z</time>
      </trkpt>
      <trkpt lat="46.10416" lon="5.68098">
        <ele>1099</ele>
        <time>2026-05-10T12:47:20Z</time>
      </trkpt>
      <trkpt lat="46.10412" lon="5.68098">
        <ele>1099.2</ele>
        <time>2026-05-10T12:47:21Z</time>
      </trkpt>
      <trkpt lat="46.10409" lon="5.68098">
        <ele>1099.2</ele>
        <time>2026-05-10T12:47:22Z</time>
      </trkpt>
      <trkpt lat="46.10406" lon="5.68096">
        <ele>1099.2</ele>
        <time>2026-05-10T12:47:23Z</time>
      </trkpt>
      <trkpt lat="46.10403" lon="5.68095">
        <ele>1099.2</ele>
        <time>2026-05-10T12:47:24Z</time>
      </trkpt>
      <trkpt lat="46.10401" lon="5.68093">
        <ele>1099.8</ele>
        <time>2026-05-10T12:47:25Z</time>
      </trkpt>
      <trkpt lat="46.10399" lon="5.68091">
        <ele>1100.2</ele>
        <time>2026-05-10T12:47:26Z</time>
      </trkpt>
      <trkpt lat="46.10396" lon="5.68088">
        <ele>1100.8</ele>
        <time>2026-05-10T12:47:27Z</time>
      </trkpt>
      <trkpt lat="46.10394" lon="5.68083">
        <ele>1100</ele>
        <time>2026-05-10T12:47:28Z</time>
      </trkpt>
      <trkpt lat="46.10391" lon="5.68079">
        <ele>1099.8</ele>
        <time>2026-05-10T12:47:29Z</time>
      </trkpt>
      <trkpt lat="46.10389" lon="5.68075">
        <ele>1099.6</ele>
        <time>2026-05-10T12:47:30Z</time>
      </trkpt>
      <trkpt lat="46.10386" lon="5.6807">
        <ele>1100</ele>
        <time>2026-05-10T12:47:31Z</time>
      </trkpt>
      <trkpt lat="46.10385" lon="5.68067">
        <ele>1100</ele>
        <time>2026-05-10T12:47:32Z</time>
      </trkpt>
      <trkpt lat="46.10383" lon="5.68062">
        <ele>1100</ele>
        <time>2026-05-10T12:47:33Z</time>
      </trkpt>
      <trkpt lat="46.1038" lon="5.68058">
        <ele>1099.4</ele>
        <time>2026-05-10T12:47:34Z</time>
      </trkpt>
      <trkpt lat="46.10377" lon="5.68055">
        <ele>1099</ele>
        <time>2026-05-10T12:47:35Z</time>
      </trkpt>
      <trkpt lat="46.10375" lon="5.68052">
        <ele>1099.4</ele>
        <time>2026-05-10T12:47:36Z</time>
      </trkpt>
      <trkpt lat="46.10372" lon="5.68048">
        <ele>1099</ele>
        <time>2026-05-10T12:47:37Z</time>
      </trkpt>
      <trkpt lat="46.1037" lon="5.68044">
        <ele>1099</ele>
        <time>2026-05-10T12:47:38Z</time>
      </trkpt>
      <trkpt lat="46.10367" lon="5.6804">
        <ele>1099</ele>
        <time>2026-05-10T12:47:39Z</time>
      </trkpt>
      <trkpt lat="46.10364" lon="5.68035">
        <ele>1098.2</ele>
        <time>2026-05-10T12:47:40Z</time>
      </trkpt>
      <trkpt lat="46.10362" lon="5.6803">
        <ele>1098.2</ele>
        <time>2026-05-10T12:47:41Z</time>
      </trkpt>
      <trkpt lat="46.1036" lon="5.68026">
        <ele>1098.6</ele>
        <time>2026-05-10T12:47:42Z</time>
      </trkpt>
      <trkpt lat="46.10358" lon="5.68022">
        <ele>1098.4</ele>
        <time>2026-05-10T12:47:43Z</time>
      </trkpt>
      <trkpt lat="46.10356" lon="5.68018">
        <ele>1098.4</ele>
        <time>2026-05-10T12:47:44Z</time>
      </trkpt>
      <trkpt lat="46.10354" lon="5.68014">
        <ele>1098.8</ele>
        <time>2026-05-10T12:47:45Z</time>
      </trkpt>
      <trkpt lat="46.1035" lon="5.68004">
        <ele>1098.4</ele>
        <time>2026-05-10T12:47:46Z</time>
      </trkpt>
      <trkpt lat="46.10347" lon="5.68">
        <ele>1098.4</ele>
        <time>2026-05-10T12:47:47Z</time>
      </trkpt>
      <trkpt lat="46.10344" lon="5.67996">
        <ele>1098</ele>
        <time>2026-05-10T12:47:48Z</time>
      </trkpt>
      <trkpt lat="46.10342" lon="5.67992">
        <ele>1097.8</ele>
        <time>2026-05-10T12:47:49Z</time>
      </trkpt>
      <trkpt lat="46.10341" lon="5.67988">
        <ele>1097.6</ele>
        <time>2026-05-10T12:47:50Z</time>
      </trkpt>
      <trkpt lat="46.1034" lon="5.67984">
        <ele>1097.4</ele>
        <time>2026-05-10T12:47:51Z</time>
      </trkpt>
      <trkpt lat="46.10338" lon="5.67979">
        <ele>1097.4</ele>
        <time>2026-05-10T12:47:52Z</time>
      </trkpt>
      <trkpt lat="46.10337" lon="5.67975">
        <ele>1097.4</ele>
        <time>2026-05-10T12:47:53Z</time>
      </trkpt>
      <trkpt lat="46.10336" lon="5.67971">
        <ele>1097.4</ele>
        <time>2026-05-10T12:47:54Z</time>
      </trkpt>
      <trkpt lat="46.10334" lon="5.67967">
        <ele>1097</ele>
        <time>2026-05-10T12:47:55Z</time>
      </trkpt>
      <trkpt lat="46.10332" lon="5.67961">
        <ele>1097</ele>
        <time>2026-05-10T12:47:56Z</time>
      </trkpt>
      <trkpt lat="46.10331" lon="5.67959">
        <ele>1096.8</ele>
        <time>2026-05-10T12:47:57Z</time>
      </trkpt>
      <trkpt lat="46.10329" lon="5.67956">
        <ele>1096.8</ele>
        <time>2026-05-10T12:47:58Z</time>
      </trkpt>
      <trkpt lat="46.10328" lon="5.67953">
        <ele>1096.8</ele>
        <time>2026-05-10T12:47:59Z</time>
      </trkpt>
      <trkpt lat="46.10327" lon="5.6795">
        <ele>1096.4</ele>
        <time>2026-05-10T12:48:00Z</time>
      </trkpt>
      <trkpt lat="46.10326" lon="5.67946">
        <ele>1096.4</ele>
        <time>2026-05-10T12:48:01Z</time>
      </trkpt>
      <trkpt lat="46.10322" lon="5.67941">
        <ele>1096.4</ele>
        <time>2026-05-10T12:48:02Z</time>
      </trkpt>
      <trkpt lat="46.1032" lon="5.67938">
        <ele>1096.4</ele>
        <time>2026-05-10T12:48:03Z</time>
      </trkpt>
      <trkpt lat="46.10317" lon="5.67937">
        <ele>1096.4</ele>
        <time>2026-05-10T12:48:04Z</time>
      </trkpt>
      <trkpt lat="46.10315" lon="5.67936">
        <ele>1096.8</ele>
        <time>2026-05-10T12:48:05Z</time>
      </trkpt>
      <trkpt lat="46.10311" lon="5.67935">
        <ele>1096.8</ele>
        <time>2026-05-10T12:48:06Z</time>
      </trkpt>
      <trkpt lat="46.10307" lon="5.67933">
        <ele>1097.4</ele>
        <time>2026-05-10T12:48:07Z</time>
      </trkpt>
      <trkpt lat="46.10304" lon="5.67929">
        <ele>1097</ele>
        <time>2026-05-10T12:48:08Z</time>
      </trkpt>
      <trkpt lat="46.103" lon="5.67925">
        <ele>1096.6</ele>
        <time>2026-05-10T12:48:09Z</time>
      </trkpt>
      <trkpt lat="46.10298" lon="5.67921">
        <ele>1096.4</ele>
        <time>2026-05-10T12:48:10Z</time>
      </trkpt>
      <trkpt lat="46.10295" lon="5.67917">
        <ele>1096.4</ele>
        <time>2026-05-10T12:48:11Z</time>
      </trkpt>
      <trkpt lat="46.10293" lon="5.67911">
        <ele>1096.4</ele>
        <time>2026-05-10T12:48:12Z</time>
      </trkpt>
      <trkpt lat="46.10291" lon="5.67906">
        <ele>1096.2</ele>
        <time>2026-05-10T12:48:13Z</time>
      </trkpt>
      <trkpt lat="46.1029" lon="5.67901">
        <ele>1096.2</ele>
        <time>2026-05-10T12:48:14Z</time>
      </trkpt>
      <trkpt lat="46.10287" lon="5.67895">
        <ele>1095.8</ele>
        <time>2026-05-10T12:48:15Z</time>
      </trkpt>
      <trkpt lat="46.10287" lon="5.67895">
        <ele>1095.4</ele>
        <time>2026-05-10T12:48:16Z</time>
      </trkpt>
      <trkpt lat="46.10285" lon="5.6789">
        <ele>1095.4</ele>
        <time>2026-05-10T12:48:17Z</time>
      </trkpt>
      <trkpt lat="46.10284" lon="5.67884">
        <ele>1095.6</ele>
        <time>2026-05-10T12:48:18Z</time>
      </trkpt>
      <trkpt lat="46.10283" lon="5.67879">
        <ele>1095.6</ele>
        <time>2026-05-10T12:48:19Z</time>
      </trkpt>
      <trkpt lat="46.10281" lon="5.67872">
        <ele>1095.4</ele>
        <time>2026-05-10T12:48:20Z</time>
      </trkpt>
      <trkpt lat="46.1028" lon="5.67865">
        <ele>1095.2</ele>
        <time>2026-05-10T12:48:21Z</time>
      </trkpt>
      <trkpt lat="46.10278" lon="5.67859">
        <ele>1095.2</ele>
        <time>2026-05-10T12:48:22Z</time>
      </trkpt>
      <trkpt lat="46.10276" lon="5.67853">
        <ele>1095.2</ele>
        <time>2026-05-10T12:48:23Z</time>
      </trkpt>
      <trkpt lat="46.10274" lon="5.67848">
        <ele>1095</ele>
        <time>2026-05-10T12:48:24Z</time>
      </trkpt>
      <trkpt lat="46.10272" lon="5.67843">
        <ele>1094.8</ele>
        <time>2026-05-10T12:48:25Z</time>
      </trkpt>
      <trkpt lat="46.10269" lon="5.67838">
        <ele>1094.8</ele>
        <time>2026-05-10T12:48:26Z</time>
      </trkpt>
      <trkpt lat="46.10266" lon="5.67835">
        <ele>1094.8</ele>
        <time>2026-05-10T12:48:27Z</time>
      </trkpt>
      <trkpt lat="46.10264" lon="5.6783">
        <ele>1094.8</ele>
        <time>2026-05-10T12:48:28Z</time>
      </trkpt>
      <trkpt lat="46.10262" lon="5.67826">
        <ele>1094.8</ele>
        <time>2026-05-10T12:48:29Z</time>
      </trkpt>
      <trkpt lat="46.1026" lon="5.67821">
        <ele>1094.4</ele>
        <time>2026-05-10T12:48:30Z</time>
      </trkpt>
      <trkpt lat="46.10259" lon="5.67816">
        <ele>1094.4</ele>
        <time>2026-05-10T12:48:31Z</time>
      </trkpt>
      <trkpt lat="46.10258" lon="5.67811">
        <ele>1094.4</ele>
        <time>2026-05-10T12:48:32Z</time>
      </trkpt>
      <trkpt lat="46.10258" lon="5.67807">
        <ele>1094.4</ele>
        <time>2026-05-10T12:48:33Z</time>
      </trkpt>
      <trkpt lat="46.10258" lon="5.67802">
        <ele>1094.2</ele>
        <time>2026-05-10T12:48:34Z</time>
      </trkpt>
      <trkpt lat="46.10258" lon="5.67799">
        <ele>1094.6</ele>
        <time>2026-05-10T12:48:35Z</time>
      </trkpt>
      <trkpt lat="46.10257" lon="5.67796">
        <ele>1093.4</ele>
        <time>2026-05-10T12:48:36Z</time>
      </trkpt>
      <trkpt lat="46.10256" lon="5.67792">
        <ele>1093.4</ele>
        <time>2026-05-10T12:48:37Z</time>
      </trkpt>
      <trkpt lat="46.10255" lon="5.67789">
        <ele>1093.6</ele>
        <time>2026-05-10T12:48:38Z</time>
      </trkpt>
      <trkpt lat="46.10254" lon="5.67784">
        <ele>1094</ele>
        <time>2026-05-10T12:48:39Z</time>
      </trkpt>
      <trkpt lat="46.10252" lon="5.67781">
        <ele>1094</ele>
        <time>2026-05-10T12:48:40Z</time>
      </trkpt>
      <trkpt lat="46.1025" lon="5.67777">
        <ele>1094.4</ele>
        <time>2026-05-10T12:48:41Z</time>
      </trkpt>
      <trkpt lat="46.10247" lon="5.67773">
        <ele>1094.4</ele>
        <time>2026-05-10T12:48:42Z</time>
      </trkpt>
      <trkpt lat="46.10245" lon="5.67768">
        <ele>1093.6</ele>
        <time>2026-05-10T12:48:43Z</time>
      </trkpt>
      <trkpt lat="46.10244" lon="5.67763">
        <ele>1093.6</ele>
        <time>2026-05-10T12:48:44Z</time>
      </trkpt>
      <trkpt lat="46.10242" lon="5.67758">
        <ele>1093.4</ele>
        <time>2026-05-10T12:48:45Z</time>
      </trkpt>
      <trkpt lat="46.10241" lon="5.67754">
        <ele>1093.4</ele>
        <time>2026-05-10T12:48:46Z</time>
      </trkpt>
      <trkpt lat="46.10239" lon="5.67751">
        <ele>1093.2</ele>
        <time>2026-05-10T12:48:47Z</time>
      </trkpt>
      <trkpt lat="46.10237" lon="5.67746">
        <ele>1092.8</ele>
        <time>2026-05-10T12:48:48Z</time>
      </trkpt>
      <trkpt lat="46.10234" lon="5.67738">
        <ele>1092.8</ele>
        <time>2026-05-10T12:48:49Z</time>
      </trkpt>
      <trkpt lat="46.10233" lon="5.67732">
        <ele>1092.8</ele>
        <time>2026-05-10T12:48:50Z</time>
      </trkpt>
      <trkpt lat="46.10231" lon="5.67725">
        <ele>1092.4</ele>
        <time>2026-05-10T12:48:51Z</time>
      </trkpt>
      <trkpt lat="46.10228" lon="5.67721">
        <ele>1092.4</ele>
        <time>2026-05-10T12:48:52Z</time>
      </trkpt>
      <trkpt lat="46.10227" lon="5.67719">
        <ele>1092.4</ele>
        <time>2026-05-10T12:48:53Z</time>
      </trkpt>
      <trkpt lat="46.10225" lon="5.67716">
        <ele>1092.6</ele>
        <time>2026-05-10T12:48:54Z</time>
      </trkpt>
      <trkpt lat="46.10223" lon="5.67713">
        <ele>1092.6</ele>
        <time>2026-05-10T12:48:55Z</time>
      </trkpt>
      <trkpt lat="46.10221" lon="5.67708">
        <ele>1093.2</ele>
        <time>2026-05-10T12:48:56Z</time>
      </trkpt>
      <trkpt lat="46.10219" lon="5.67705">
        <ele>1093.2</ele>
        <time>2026-05-10T12:48:57Z</time>
      </trkpt>
      <trkpt lat="46.10217" lon="5.67702">
        <ele>1093.2</ele>
        <time>2026-05-10T12:48:58Z</time>
      </trkpt>
      <trkpt lat="46.10216" lon="5.677">
        <ele>1093.2</ele>
        <time>2026-05-10T12:48:59Z</time>
      </trkpt>
      <trkpt lat="46.10214" lon="5.67698">
        <ele>1093.2</ele>
        <time>2026-05-10T12:49:00Z</time>
      </trkpt>
      <trkpt lat="46.10213" lon="5.67694">
        <ele>1093</ele>
        <time>2026-05-10T12:49:01Z</time>
      </trkpt>
      <trkpt lat="46.1021" lon="5.67691">
        <ele>1093</ele>
        <time>2026-05-10T12:49:02Z</time>
      </trkpt>
      <trkpt lat="46.10204" lon="5.67689">
        <ele>1093</ele>
        <time>2026-05-10T12:49:03Z</time>
      </trkpt>
      <trkpt lat="46.102" lon="5.67686">
        <ele>1092.2</ele>
        <time>2026-05-10T12:49:04Z</time>
      </trkpt>
      <trkpt lat="46.10194" lon="5.67684">
        <ele>1092</ele>
        <time>2026-05-10T12:49:05Z</time>
      </trkpt>
      <trkpt lat="46.10189" lon="5.6768">
        <ele>1091</ele>
        <time>2026-05-10T12:49:06Z</time>
      </trkpt>
      <trkpt lat="46.10184" lon="5.67683">
        <ele>1091</ele>
        <time>2026-05-10T12:49:07Z</time>
      </trkpt>
      <trkpt lat="46.1018" lon="5.67682">
        <ele>1090.8</ele>
        <time>2026-05-10T12:49:08Z</time>
      </trkpt>
      <trkpt lat="46.10175" lon="5.67681">
        <ele>1087.8</ele>
        <time>2026-05-10T12:49:09Z</time>
      </trkpt>
      <trkpt lat="46.1017" lon="5.67681">
        <ele>1088.8</ele>
        <time>2026-05-10T12:49:10Z</time>
      </trkpt>
      <trkpt lat="46.10166" lon="5.6768">
        <ele>1088.8</ele>
        <time>2026-05-10T12:49:11Z</time>
      </trkpt>
      <trkpt lat="46.10163" lon="5.6768">
        <ele>1089.2</ele>
        <time>2026-05-10T12:49:12Z</time>
      </trkpt>
      <trkpt lat="46.10159" lon="5.67678">
        <ele>1089.6</ele>
        <time>2026-05-10T12:49:13Z</time>
      </trkpt>
      <trkpt lat="46.10156" lon="5.67677">
        <ele>1089.6</ele>
        <time>2026-05-10T12:49:14Z</time>
      </trkpt>
      <trkpt lat="46.10152" lon="5.67676">
        <ele>1089.4</ele>
        <time>2026-05-10T12:49:15Z</time>
      </trkpt>
      <trkpt lat="46.10149" lon="5.67675">
        <ele>1089</ele>
        <time>2026-05-10T12:49:16Z</time>
      </trkpt>
      <trkpt lat="46.10144" lon="5.67671">
        <ele>1089</ele>
        <time>2026-05-10T12:49:17Z</time>
      </trkpt>
      <trkpt lat="46.10141" lon="5.6767">
        <ele>1088.6</ele>
        <time>2026-05-10T12:49:18Z</time>
      </trkpt>
      <trkpt lat="46.10138" lon="5.67672">
        <ele>1088.6</ele>
        <time>2026-05-10T12:49:19Z</time>
      </trkpt>
      <trkpt lat="46.10135" lon="5.67673">
        <ele>1088.2</ele>
        <time>2026-05-10T12:49:20Z</time>
      </trkpt>
      <trkpt lat="46.10132" lon="5.67674">
        <ele>1088</ele>
        <time>2026-05-10T12:49:21Z</time>
      </trkpt>
      <trkpt lat="46.10127" lon="5.67675">
        <ele>1087.6</ele>
        <time>2026-05-10T12:49:22Z</time>
      </trkpt>
      <trkpt lat="46.10124" lon="5.67675">
        <ele>1087.6</ele>
        <time>2026-05-10T12:49:23Z</time>
      </trkpt>
      <trkpt lat="46.10121" lon="5.67675">
        <ele>1087.6</ele>
        <time>2026-05-10T12:49:24Z</time>
      </trkpt>
      <trkpt lat="46.10117" lon="5.67676">
        <ele>1087</ele>
        <time>2026-05-10T12:49:25Z</time>
      </trkpt>
      <trkpt lat="46.10112" lon="5.67676">
        <ele>1086.4</ele>
        <time>2026-05-10T12:49:26Z</time>
      </trkpt>
      <trkpt lat="46.1011" lon="5.67676">
        <ele>1084.2</ele>
        <time>2026-05-10T12:49:27Z</time>
      </trkpt>
      <trkpt lat="46.10105" lon="5.67674">
        <ele>1084.6</ele>
        <time>2026-05-10T12:49:28Z</time>
      </trkpt>
      <trkpt lat="46.10101" lon="5.67673">
        <ele>1084.8</ele>
        <time>2026-05-10T12:49:29Z</time>
      </trkpt>
      <trkpt lat="46.10099" lon="5.6767">
        <ele>1084.2</ele>
        <time>2026-05-10T12:49:30Z</time>
      </trkpt>
      <trkpt lat="46.10095" lon="5.6767">
        <ele>1084.2</ele>
        <time>2026-05-10T12:49:31Z</time>
      </trkpt>
      <trkpt lat="46.10091" lon="5.67669">
        <ele>1084.2</ele>
        <time>2026-05-10T12:49:32Z</time>
      </trkpt>
      <trkpt lat="46.10088" lon="5.6767">
        <ele>1084.2</ele>
        <time>2026-05-10T12:49:33Z</time>
      </trkpt>
      <trkpt lat="46.10084" lon="5.6767">
        <ele>1083.8</ele>
        <time>2026-05-10T12:49:34Z</time>
      </trkpt>
      <trkpt lat="46.1008" lon="5.67666">
        <ele>1083.8</ele>
        <time>2026-05-10T12:49:35Z</time>
      </trkpt>
      <trkpt lat="46.10077" lon="5.67664">
        <ele>1083.4</ele>
        <time>2026-05-10T12:49:36Z</time>
      </trkpt>
      <trkpt lat="46.10074" lon="5.67662">
        <ele>1083.2</ele>
        <time>2026-05-10T12:49:37Z</time>
      </trkpt>
      <trkpt lat="46.10072" lon="5.67659">
        <ele>1082.6</ele>
        <time>2026-05-10T12:49:38Z</time>
      </trkpt>
      <trkpt lat="46.10069" lon="5.67656">
        <ele>1082.4</ele>
        <time>2026-05-10T12:49:39Z</time>
      </trkpt>
      <trkpt lat="46.10066" lon="5.67651">
        <ele>1082.2</ele>
        <time>2026-05-10T12:49:40Z</time>
      </trkpt>
      <trkpt lat="46.10062" lon="5.67645">
        <ele>1082.2</ele>
        <time>2026-05-10T12:49:41Z</time>
      </trkpt>
      <trkpt lat="46.10059" lon="5.67639">
        <ele>1081.4</ele>
        <time>2026-05-10T12:49:42Z</time>
      </trkpt>
      <trkpt lat="46.10056" lon="5.67635">
        <ele>1081.4</ele>
        <time>2026-05-10T12:49:43Z</time>
      </trkpt>
      <trkpt lat="46.10053" lon="5.67631">
        <ele>1081.2</ele>
        <time>2026-05-10T12:49:44Z</time>
      </trkpt>
      <trkpt lat="46.1005" lon="5.67628">
        <ele>1081.8</ele>
        <time>2026-05-10T12:49:45Z</time>
      </trkpt>
      <trkpt lat="46.10047" lon="5.67624">
        <ele>1081.8</ele>
        <time>2026-05-10T12:49:46Z</time>
      </trkpt>
      <trkpt lat="46.10044" lon="5.6762">
        <ele>1081.8</ele>
        <time>2026-05-10T12:49:47Z</time>
      </trkpt>
      <trkpt lat="46.10042" lon="5.67617">
        <ele>1081.8</ele>
        <time>2026-05-10T12:49:48Z</time>
      </trkpt>
      <trkpt lat="46.1004" lon="5.67614">
        <ele>1081.2</ele>
        <time>2026-05-10T12:49:49Z</time>
      </trkpt>
      <trkpt lat="46.10037" lon="5.6761">
        <ele>1081.2</ele>
        <time>2026-05-10T12:49:50Z</time>
      </trkpt>
      <trkpt lat="46.10035" lon="5.67607">
        <ele>1080.8</ele>
        <time>2026-05-10T12:49:51Z</time>
      </trkpt>
      <trkpt lat="46.1003" lon="5.67601">
        <ele>1079.6</ele>
        <time>2026-05-10T12:49:52Z</time>
      </trkpt>
      <trkpt lat="46.10028" lon="5.67594">
        <ele>1079.6</ele>
        <time>2026-05-10T12:49:53Z</time>
      </trkpt>
      <trkpt lat="46.10025" lon="5.67591">
        <ele>1079.6</ele>
        <time>2026-05-10T12:49:54Z</time>
      </trkpt>
      <trkpt lat="46.10024" lon="5.67587">
        <ele>1079.6</ele>
        <time>2026-05-10T12:49:55Z</time>
      </trkpt>
      <trkpt lat="46.10019" lon="5.67582">
        <ele>1079.6</ele>
        <time>2026-05-10T12:49:56Z</time>
      </trkpt>
      <trkpt lat="46.10017" lon="5.67578">
        <ele>1079.6</ele>
        <time>2026-05-10T12:49:57Z</time>
      </trkpt>
      <trkpt lat="46.10016" lon="5.67579">
        <ele>1079.2</ele>
        <time>2026-05-10T12:49:58Z</time>
      </trkpt>
      <trkpt lat="46.10013" lon="5.67575">
        <ele>1079</ele>
        <time>2026-05-10T12:49:59Z</time>
      </trkpt>
      <trkpt lat="46.1001" lon="5.67572">
        <ele>1078.6</ele>
        <time>2026-05-10T12:50:00Z</time>
      </trkpt>
      <trkpt lat="46.10009" lon="5.6757">
        <ele>1078.6</ele>
        <time>2026-05-10T12:50:01Z</time>
      </trkpt>
      <trkpt lat="46.10006" lon="5.67568">
        <ele>1078.2</ele>
        <time>2026-05-10T12:50:02Z</time>
      </trkpt>
      <trkpt lat="46.10006" lon="5.67572">
        <ele>1078</ele>
        <time>2026-05-10T12:50:03Z</time>
      </trkpt>
      <trkpt lat="46.10004" lon="5.67572">
        <ele>1078</ele>
        <time>2026-05-10T12:50:04Z</time>
      </trkpt>
      <trkpt lat="46.10003" lon="5.67574">
        <ele>1077.6</ele>
        <time>2026-05-10T12:50:05Z</time>
      </trkpt>
      <trkpt lat="46.10002" lon="5.67575">
        <ele>1077.4</ele>
        <time>2026-05-10T12:50:06Z</time>
      </trkpt>
      <trkpt lat="46.10002" lon="5.67576">
        <ele>1077.4</ele>
        <time>2026-05-10T12:50:07Z</time>
      </trkpt>
      <trkpt lat="46.10002" lon="5.67576">
        <ele>1077.2</ele>
        <time>2026-05-10T12:50:08Z</time>
      </trkpt>
      <trkpt lat="46.10003" lon="5.67573">
        <ele>1076.8</ele>
        <time>2026-05-10T12:50:36Z</time>
      </trkpt>
      <trkpt lat="46.10002" lon="5.67574">
        <ele>1076.8</ele>
        <time>2026-05-10T12:50:37Z</time>
      </trkpt>
      <trkpt lat="46.1" lon="5.67577">
        <ele>1076.4</ele>
        <time>2026-05-10T12:50:38Z</time>
      </trkpt>
      <trkpt lat="46.09999" lon="5.6758">
        <ele>1076</ele>
        <time>2026-05-10T12:50:39Z</time>
      </trkpt>
      <trkpt lat="46.09998" lon="5.67583">
        <ele>1075.6</ele>
        <time>2026-05-10T12:50:40Z</time>
      </trkpt>
      <trkpt lat="46.09996" lon="5.67585">
        <ele>1075.4</ele>
        <time>2026-05-10T12:50:41Z</time>
      </trkpt>
      <trkpt lat="46.09994" lon="5.67587">
        <ele>1075</ele>
        <time>2026-05-10T12:50:42Z</time>
      </trkpt>
      <trkpt lat="46.09992" lon="5.67589">
        <ele>1074.8</ele>
        <time>2026-05-10T12:50:43Z</time>
      </trkpt>
      <trkpt lat="46.09989" lon="5.67592">
        <ele>1074.4</ele>
        <time>2026-05-10T12:50:44Z</time>
      </trkpt>
      <trkpt lat="46.09987" lon="5.67595">
        <ele>1073.8</ele>
        <time>2026-05-10T12:50:45Z</time>
      </trkpt>
      <trkpt lat="46.09985" lon="5.67598">
        <ele>1073.6</ele>
        <time>2026-05-10T12:50:46Z</time>
      </trkpt>
      <trkpt lat="46.09982" lon="5.67601">
        <ele>1073.2</ele>
        <time>2026-05-10T12:50:47Z</time>
      </trkpt>
      <trkpt lat="46.0998" lon="5.67603">
        <ele>1072.8</ele>
        <time>2026-05-10T12:50:48Z</time>
      </trkpt>
      <trkpt lat="46.09977" lon="5.67604">
        <ele>1072.8</ele>
        <time>2026-05-10T12:50:49Z</time>
      </trkpt>
      <trkpt lat="46.09974" lon="5.67604">
        <ele>1072.8</ele>
        <time>2026-05-10T12:50:50Z</time>
      </trkpt>
      <trkpt lat="46.0997" lon="5.67603">
        <ele>1072.4</ele>
        <time>2026-05-10T12:50:51Z</time>
      </trkpt>
      <trkpt lat="46.09967" lon="5.67601">
        <ele>1072</ele>
        <time>2026-05-10T12:50:52Z</time>
      </trkpt>
      <trkpt lat="46.09965" lon="5.67598">
        <ele>1071.4</ele>
        <time>2026-05-10T12:50:53Z</time>
      </trkpt>
      <trkpt lat="46.09963" lon="5.67593">
        <ele>1071.2</ele>
        <time>2026-05-10T12:50:54Z</time>
      </trkpt>
      <trkpt lat="46.09962" lon="5.67587">
        <ele>1071</ele>
        <time>2026-05-10T12:50:55Z</time>
      </trkpt>
      <trkpt lat="46.09961" lon="5.67583">
        <ele>1071</ele>
        <time>2026-05-10T12:50:56Z</time>
      </trkpt>
      <trkpt lat="46.0996" lon="5.6758">
        <ele>1071</ele>
        <time>2026-05-10T12:50:57Z</time>
      </trkpt>
      <trkpt lat="46.0996" lon="5.67576">
        <ele>1071</ele>
        <time>2026-05-10T12:50:58Z</time>
      </trkpt>
      <trkpt lat="46.0996" lon="5.67573">
        <ele>1071.2</ele>
        <time>2026-05-10T12:50:59Z</time>
      </trkpt>
      <trkpt lat="46.0996" lon="5.6757">
        <ele>1071.2</ele>
        <time>2026-05-10T12:51:00Z</time>
      </trkpt>
      <trkpt lat="46.09961" lon="5.67567">
        <ele>1071.6</ele>
        <time>2026-05-10T12:51:01Z</time>
      </trkpt>
      <trkpt lat="46.09962" lon="5.67564">
        <ele>1071.8</ele>
        <time>2026-05-10T12:51:02Z</time>
      </trkpt>
      <trkpt lat="46.09962" lon="5.67561">
        <ele>1071.8</ele>
        <time>2026-05-10T12:51:03Z</time>
      </trkpt>
      <trkpt lat="46.09962" lon="5.67558">
        <ele>1071.8</ele>
        <time>2026-05-10T12:51:04Z</time>
      </trkpt>
      <trkpt lat="46.09962" lon="5.67554">
        <ele>1072</ele>
        <time>2026-05-10T12:51:05Z</time>
      </trkpt>
      <trkpt lat="46.09962" lon="5.67552">
        <ele>1072</ele>
        <time>2026-05-10T12:51:06Z</time>
      </trkpt>
      <trkpt lat="46.09962" lon="5.67549">
        <ele>1072</ele>
        <time>2026-05-10T12:51:07Z</time>
      </trkpt>
      <trkpt lat="46.09962" lon="5.67546">
        <ele>1072</ele>
        <time>2026-05-10T12:51:08Z</time>
      </trkpt>
      <trkpt lat="46.09962" lon="5.67541">
        <ele>1071.8</ele>
        <time>2026-05-10T12:51:09Z</time>
      </trkpt>
      <trkpt lat="46.09963" lon="5.67537">
        <ele>1071.8</ele>
        <time>2026-05-10T12:51:10Z</time>
      </trkpt>
      <trkpt lat="46.09963" lon="5.67533">
        <ele>1071.4</ele>
        <time>2026-05-10T12:51:11Z</time>
      </trkpt>
      <trkpt lat="46.09963" lon="5.6753">
        <ele>1071</ele>
        <time>2026-05-10T12:51:12Z</time>
      </trkpt>
      <trkpt lat="46.09962" lon="5.67528">
        <ele>1070.8</ele>
        <time>2026-05-10T12:51:13Z</time>
      </trkpt>
      <trkpt lat="46.09962" lon="5.67526">
        <ele>1070.8</ele>
        <time>2026-05-10T12:51:14Z</time>
      </trkpt>
      <trkpt lat="46.09961" lon="5.67523">
        <ele>1070.2</ele>
        <time>2026-05-10T12:51:15Z</time>
      </trkpt>
      <trkpt lat="46.0996" lon="5.67517">
        <ele>1070</ele>
        <time>2026-05-10T12:51:16Z</time>
      </trkpt>
      <trkpt lat="46.09959" lon="5.67513">
        <ele>1069.4</ele>
        <time>2026-05-10T12:51:17Z</time>
      </trkpt>
      <trkpt lat="46.09959" lon="5.67508">
        <ele>1069</ele>
        <time>2026-05-10T12:51:18Z</time>
      </trkpt>
      <trkpt lat="46.09958" lon="5.67502">
        <ele>1068.2</ele>
        <time>2026-05-10T12:51:19Z</time>
      </trkpt>
      <trkpt lat="46.09956" lon="5.67499">
        <ele>1067.6</ele>
        <time>2026-05-10T12:51:20Z</time>
      </trkpt>
      <trkpt lat="46.09954" lon="5.67495">
        <ele>1067.4</ele>
        <time>2026-05-10T12:51:21Z</time>
      </trkpt>
      <trkpt lat="46.09944" lon="5.67489">
        <ele>1066.8</ele>
        <time>2026-05-10T12:51:22Z</time>
      </trkpt>
      <trkpt lat="46.0994" lon="5.67486">
        <ele>1066.4</ele>
        <time>2026-05-10T12:51:23Z</time>
      </trkpt>
      <trkpt lat="46.09934" lon="5.67485">
        <ele>1066.2</ele>
        <time>2026-05-10T12:51:24Z</time>
      </trkpt>
      <trkpt lat="46.0993" lon="5.67481">
        <ele>1065.8</ele>
        <time>2026-05-10T12:51:25Z</time>
      </trkpt>
      <trkpt lat="46.09925" lon="5.6748">
        <ele>1065.6</ele>
        <time>2026-05-10T12:51:26Z</time>
      </trkpt>
      <trkpt lat="46.0992" lon="5.67479">
        <ele>1065.6</ele>
        <time>2026-05-10T12:51:27Z</time>
      </trkpt>
      <trkpt lat="46.09915" lon="5.67478">
        <ele>1065.2</ele>
        <time>2026-05-10T12:51:28Z</time>
      </trkpt>
      <trkpt lat="46.0991" lon="5.67478">
        <ele>1065.2</ele>
        <time>2026-05-10T12:51:29Z</time>
      </trkpt>
      <trkpt lat="46.09904" lon="5.67478">
        <ele>1064.8</ele>
        <time>2026-05-10T12:51:30Z</time>
      </trkpt>
      <trkpt lat="46.09899" lon="5.67478">
        <ele>1064.8</ele>
        <time>2026-05-10T12:51:31Z</time>
      </trkpt>
      <trkpt lat="46.09893" lon="5.67478">
        <ele>1064.4</ele>
        <time>2026-05-10T12:51:32Z</time>
      </trkpt>
      <trkpt lat="46.09888" lon="5.67478">
        <ele>1064.4</ele>
        <time>2026-05-10T12:51:33Z</time>
      </trkpt>
      <trkpt lat="46.09883" lon="5.67478">
        <ele>1064</ele>
        <time>2026-05-10T12:51:34Z</time>
      </trkpt>
      <trkpt lat="46.09877" lon="5.67478">
        <ele>1064</ele>
        <time>2026-05-10T12:51:35Z</time>
      </trkpt>
      <trkpt lat="46.09872" lon="5.67477">
        <ele>1064</ele>
        <time>2026-05-10T12:51:36Z</time>
      </trkpt>
      <trkpt lat="46.09868" lon="5.67476">
        <ele>1064.2</ele>
        <time>2026-05-10T12:51:37Z</time>
      </trkpt>
      <trkpt lat="46.09865" lon="5.67475">
        <ele>1064.6</ele>
        <time>2026-05-10T12:51:38Z</time>
      </trkpt>
      <trkpt lat="46.09861" lon="5.67474">
        <ele>1064.6</ele>
        <time>2026-05-10T12:51:39Z</time>
      </trkpt>
      <trkpt lat="46.09858" lon="5.67474">
        <ele>1064.6</ele>
        <time>2026-05-10T12:51:40Z</time>
      </trkpt>
      <trkpt lat="46.09854" lon="5.67473">
        <ele>1064.8</ele>
        <time>2026-05-10T12:51:41Z</time>
      </trkpt>
      <trkpt lat="46.0985" lon="5.67473">
        <ele>1064.8</ele>
        <time>2026-05-10T12:51:42Z</time>
      </trkpt>
      <trkpt lat="46.09846" lon="5.67473">
        <ele>1064.8</ele>
        <time>2026-05-10T12:51:43Z</time>
      </trkpt>
      <trkpt lat="46.09842" lon="5.67474">
        <ele>1065.2</ele>
        <time>2026-05-10T12:51:44Z</time>
      </trkpt>
      <trkpt lat="46.09838" lon="5.67474">
        <ele>1065.2</ele>
        <time>2026-05-10T12:51:45Z</time>
      </trkpt>
      <trkpt lat="46.09834" lon="5.67474">
        <ele>1065.2</ele>
        <time>2026-05-10T12:51:46Z</time>
      </trkpt>
      <trkpt lat="46.09831" lon="5.67474">
        <ele>1065.2</ele>
        <time>2026-05-10T12:51:47Z</time>
      </trkpt>
      <trkpt lat="46.09827" lon="5.67474">
        <ele>1065.2</ele>
        <time>2026-05-10T12:51:48Z</time>
      </trkpt>
      <trkpt lat="46.09827" lon="5.67474">
        <ele>1065.4</ele>
        <time>2026-05-10T12:51:49Z</time>
      </trkpt>
      <trkpt lat="46.09823" lon="5.67474">
        <ele>1065.4</ele>
        <time>2026-05-10T12:51:50Z</time>
      </trkpt>
      <trkpt lat="46.0982" lon="5.67475">
        <ele>1065.4</ele>
        <time>2026-05-10T12:51:51Z</time>
      </trkpt>
      <trkpt lat="46.09816" lon="5.67476">
        <ele>1065.4</ele>
        <time>2026-05-10T12:51:52Z</time>
      </trkpt>
      <trkpt lat="46.09812" lon="5.67477">
        <ele>1065.6</ele>
        <time>2026-05-10T12:51:53Z</time>
      </trkpt>
      <trkpt lat="46.09808" lon="5.67477">
        <ele>1065.6</ele>
        <time>2026-05-10T12:51:54Z</time>
      </trkpt>
      <trkpt lat="46.09805" lon="5.67477">
        <ele>1065.6</ele>
        <time>2026-05-10T12:51:55Z</time>
      </trkpt>
      <trkpt lat="46.09801" lon="5.67477">
        <ele>1065.6</ele>
        <time>2026-05-10T12:51:56Z</time>
      </trkpt>
      <trkpt lat="46.09797" lon="5.67477">
        <ele>1065.6</ele>
        <time>2026-05-10T12:51:57Z</time>
      </trkpt>
      <trkpt lat="46.09793" lon="5.67476">
        <ele>1065.6</ele>
        <time>2026-05-10T12:51:58Z</time>
      </trkpt>
      <trkpt lat="46.09789" lon="5.67476">
        <ele>1065.6</ele>
        <time>2026-05-10T12:51:59Z</time>
      </trkpt>
      <trkpt lat="46.09785" lon="5.67475">
        <ele>1065.8</ele>
        <time>2026-05-10T12:52:00Z</time>
      </trkpt>
      <trkpt lat="46.09781" lon="5.67474">
        <ele>1065.8</ele>
        <time>2026-05-10T12:52:01Z</time>
      </trkpt>
      <trkpt lat="46.09777" lon="5.67473">
        <ele>1065.8</ele>
        <time>2026-05-10T12:52:02Z</time>
      </trkpt>
      <trkpt lat="46.09773" lon="5.67471">
        <ele>1065.8</ele>
        <time>2026-05-10T12:52:03Z</time>
      </trkpt>
      <trkpt lat="46.09768" lon="5.67467">
        <ele>1065.8</ele>
        <time>2026-05-10T12:52:04Z</time>
      </trkpt>
      <trkpt lat="46.09764" lon="5.67465">
        <ele>1066</ele>
        <time>2026-05-10T12:52:05Z</time>
      </trkpt>
      <trkpt lat="46.09761" lon="5.67464">
        <ele>1066</ele>
        <time>2026-05-10T12:52:06Z</time>
      </trkpt>
      <trkpt lat="46.09756" lon="5.67462">
        <ele>1066</ele>
        <time>2026-05-10T12:52:07Z</time>
      </trkpt>
      <trkpt lat="46.09753" lon="5.67459">
        <ele>1066</ele>
        <time>2026-05-10T12:52:08Z</time>
      </trkpt>
      <trkpt lat="46.09749" lon="5.67458">
        <ele>1066.4</ele>
        <time>2026-05-10T12:52:09Z</time>
      </trkpt>
      <trkpt lat="46.09745" lon="5.67456">
        <ele>1066.4</ele>
        <time>2026-05-10T12:52:10Z</time>
      </trkpt>
      <trkpt lat="46.09741" lon="5.67454">
        <ele>1066.4</ele>
        <time>2026-05-10T12:52:11Z</time>
      </trkpt>
      <trkpt lat="46.09737" lon="5.67453">
        <ele>1066.8</ele>
        <time>2026-05-10T12:52:12Z</time>
      </trkpt>
      <trkpt lat="46.09733" lon="5.67451">
        <ele>1066.8</ele>
        <time>2026-05-10T12:52:13Z</time>
      </trkpt>
      <trkpt lat="46.0973" lon="5.6745">
        <ele>1066.8</ele>
        <time>2026-05-10T12:52:14Z</time>
      </trkpt>
      <trkpt lat="46.09727" lon="5.67448">
        <ele>1067</ele>
        <time>2026-05-10T12:52:15Z</time>
      </trkpt>
      <trkpt lat="46.09723" lon="5.67447">
        <ele>1067</ele>
        <time>2026-05-10T12:52:16Z</time>
      </trkpt>
      <trkpt lat="46.0972" lon="5.67446">
        <ele>1067.4</ele>
        <time>2026-05-10T12:52:17Z</time>
      </trkpt>
      <trkpt lat="46.09717" lon="5.67445">
        <ele>1067.4</ele>
        <time>2026-05-10T12:52:18Z</time>
      </trkpt>
      <trkpt lat="46.09714" lon="5.67445">
        <ele>1067.4</ele>
        <time>2026-05-10T12:52:19Z</time>
      </trkpt>
      <trkpt lat="46.09714" lon="5.67445">
        <ele>1067.8</ele>
        <time>2026-05-10T12:52:20Z</time>
      </trkpt>
      <trkpt lat="46.09714" lon="5.67445">
        <ele>1068</ele>
        <time>2026-05-10T12:52:21Z</time>
      </trkpt>
      <trkpt lat="46.09705" lon="5.67445">
        <ele>1068</ele>
        <time>2026-05-10T12:52:23Z</time>
      </trkpt>
      <trkpt lat="46.09704" lon="5.67446">
        <ele>1068</ele>
        <time>2026-05-10T12:52:24Z</time>
      </trkpt>
      <trkpt lat="46.09702" lon="5.67446">
        <ele>1068</ele>
        <time>2026-05-10T12:52:25Z</time>
      </trkpt>
      <trkpt lat="46.09699" lon="5.67446">
        <ele>1068.4</ele>
        <time>2026-05-10T12:52:26Z</time>
      </trkpt>
      <trkpt lat="46.09697" lon="5.67447">
        <ele>1068.6</ele>
        <time>2026-05-10T12:52:27Z</time>
      </trkpt>
      <trkpt lat="46.09694" lon="5.67449">
        <ele>1068.6</ele>
        <time>2026-05-10T12:52:28Z</time>
      </trkpt>
      <trkpt lat="46.09692" lon="5.6745">
        <ele>1068.6</ele>
        <time>2026-05-10T12:52:29Z</time>
      </trkpt>
      <trkpt lat="46.09689" lon="5.67452">
        <ele>1068.6</ele>
        <time>2026-05-10T12:52:30Z</time>
      </trkpt>
      <trkpt lat="46.09686" lon="5.67453">
        <ele>1068.6</ele>
        <time>2026-05-10T12:52:31Z</time>
      </trkpt>
      <trkpt lat="46.09683" lon="5.67454">
        <ele>1068.8</ele>
        <time>2026-05-10T12:52:32Z</time>
      </trkpt>
      <trkpt lat="46.0968" lon="5.67455">
        <ele>1068.8</ele>
        <time>2026-05-10T12:52:33Z</time>
      </trkpt>
      <trkpt lat="46.09677" lon="5.67456">
        <ele>1068.8</ele>
        <time>2026-05-10T12:52:34Z</time>
      </trkpt>
      <trkpt lat="46.09675" lon="5.67458">
        <ele>1069</ele>
        <time>2026-05-10T12:52:35Z</time>
      </trkpt>
      <trkpt lat="46.09673" lon="5.67461">
        <ele>1069</ele>
        <time>2026-05-10T12:52:36Z</time>
      </trkpt>
      <trkpt lat="46.09671" lon="5.67463">
        <ele>1069</ele>
        <time>2026-05-10T12:52:37Z</time>
      </trkpt>
      <trkpt lat="46.09669" lon="5.67466">
        <ele>1069.2</ele>
        <time>2026-05-10T12:52:38Z</time>
      </trkpt>
      <trkpt lat="46.09666" lon="5.67468">
        <ele>1069.2</ele>
        <time>2026-05-10T12:52:39Z</time>
      </trkpt>
      <trkpt lat="46.09663" lon="5.6747">
        <ele>1069.4</ele>
        <time>2026-05-10T12:52:40Z</time>
      </trkpt>
      <trkpt lat="46.09661" lon="5.67473">
        <ele>1069.4</ele>
        <time>2026-05-10T12:52:41Z</time>
      </trkpt>
      <trkpt lat="46.09659" lon="5.67475">
        <ele>1069.4</ele>
        <time>2026-05-10T12:52:42Z</time>
      </trkpt>
      <trkpt lat="46.09656" lon="5.67478">
        <ele>1069.8</ele>
        <time>2026-05-10T12:52:43Z</time>
      </trkpt>
      <trkpt lat="46.09654" lon="5.6748">
        <ele>1070</ele>
        <time>2026-05-10T12:52:44Z</time>
      </trkpt>
      <trkpt lat="46.09651" lon="5.67481">
        <ele>1070.2</ele>
        <time>2026-05-10T12:52:45Z</time>
      </trkpt>
      <trkpt lat="46.09648" lon="5.67483">
        <ele>1070.2</ele>
        <time>2026-05-10T12:52:46Z</time>
      </trkpt>
      <trkpt lat="46.09646" lon="5.67484">
        <ele>1070.6</ele>
        <time>2026-05-10T12:52:47Z</time>
      </trkpt>
      <trkpt lat="46.09643" lon="5.67486">
        <ele>1070.8</ele>
        <time>2026-05-10T12:52:48Z</time>
      </trkpt>
      <trkpt lat="46.0964" lon="5.67487">
        <ele>1070.8</ele>
        <time>2026-05-10T12:52:49Z</time>
      </trkpt>
      <trkpt lat="46.09637" lon="5.67489">
        <ele>1071</ele>
        <time>2026-05-10T12:52:50Z</time>
      </trkpt>
      <trkpt lat="46.09634" lon="5.6749">
        <ele>1071</ele>
        <time>2026-05-10T12:52:51Z</time>
      </trkpt>
      <trkpt lat="46.09632" lon="5.67491">
        <ele>1071.2</ele>
        <time>2026-05-10T12:52:52Z</time>
      </trkpt>
      <trkpt lat="46.09629" lon="5.67492">
        <ele>1071.2</ele>
        <time>2026-05-10T12:52:53Z</time>
      </trkpt>
      <trkpt lat="46.09626" lon="5.67492">
        <ele>1071.2</ele>
        <time>2026-05-10T12:52:54Z</time>
      </trkpt>
      <trkpt lat="46.09624" lon="5.67492">
        <ele>1071.2</ele>
        <time>2026-05-10T12:52:55Z</time>
      </trkpt>
      <trkpt lat="46.09621" lon="5.67492">
        <ele>1071.6</ele>
        <time>2026-05-10T12:52:56Z</time>
      </trkpt>
      <trkpt lat="46.09619" lon="5.67492">
        <ele>1071.6</ele>
        <time>2026-05-10T12:52:57Z</time>
      </trkpt>
      <trkpt lat="46.09616" lon="5.67493">
        <ele>1071.8</ele>
        <time>2026-05-10T12:52:58Z</time>
      </trkpt>
      <trkpt lat="46.09612" lon="5.67493">
        <ele>1071.8</ele>
        <time>2026-05-10T12:52:59Z</time>
      </trkpt>
      <trkpt lat="46.09612" lon="5.67493">
        <ele>1072.2</ele>
        <time>2026-05-10T12:53:00Z</time>
      </trkpt>
      <trkpt lat="46.09606" lon="5.67494">
        <ele>1072.2</ele>
        <time>2026-05-10T12:53:01Z</time>
      </trkpt>
      <trkpt lat="46.09603" lon="5.67494">
        <ele>1072.4</ele>
        <time>2026-05-10T12:53:02Z</time>
      </trkpt>
      <trkpt lat="46.096" lon="5.67495">
        <ele>1072.4</ele>
        <time>2026-05-10T12:53:03Z</time>
      </trkpt>
      <trkpt lat="46.09597" lon="5.67496">
        <ele>1072.6</ele>
        <time>2026-05-10T12:53:04Z</time>
      </trkpt>
      <trkpt lat="46.09594" lon="5.67497">
        <ele>1072.6</ele>
        <time>2026-05-10T12:53:05Z</time>
      </trkpt>
      <trkpt lat="46.09591" lon="5.67498">
        <ele>1073</ele>
        <time>2026-05-10T12:53:06Z</time>
      </trkpt>
      <trkpt lat="46.09588" lon="5.675">
        <ele>1073</ele>
        <time>2026-05-10T12:53:07Z</time>
      </trkpt>
      <trkpt lat="46.09584" lon="5.67501">
        <ele>1073</ele>
        <time>2026-05-10T12:53:08Z</time>
      </trkpt>
      <trkpt lat="46.09581" lon="5.67503">
        <ele>1073</ele>
        <time>2026-05-10T12:53:09Z</time>
      </trkpt>
      <trkpt lat="46.09579" lon="5.67505">
        <ele>1073</ele>
        <time>2026-05-10T12:53:10Z</time>
      </trkpt>
      <trkpt lat="46.09576" lon="5.67507">
        <ele>1073</ele>
        <time>2026-05-10T12:53:11Z</time>
      </trkpt>
      <trkpt lat="46.09573" lon="5.67508">
        <ele>1073</ele>
        <time>2026-05-10T12:53:12Z</time>
      </trkpt>
      <trkpt lat="46.09571" lon="5.6751">
        <ele>1073.4</ele>
        <time>2026-05-10T12:53:13Z</time>
      </trkpt>
      <trkpt lat="46.09568" lon="5.67511">
        <ele>1073.6</ele>
        <time>2026-05-10T12:53:14Z</time>
      </trkpt>
      <trkpt lat="46.09568" lon="5.67512">
        <ele>1073.6</ele>
        <time>2026-05-10T12:53:15Z</time>
      </trkpt>
      <trkpt lat="46.09566" lon="5.67514">
        <ele>1074</ele>
        <time>2026-05-10T12:53:16Z</time>
      </trkpt>
      <trkpt lat="46.09564" lon="5.67517">
        <ele>1074</ele>
        <time>2026-05-10T12:53:17Z</time>
      </trkpt>
      <trkpt lat="46.09562" lon="5.6752">
        <ele>1074.2</ele>
        <time>2026-05-10T12:53:18Z</time>
      </trkpt>
      <trkpt lat="46.09561" lon="5.67524">
        <ele>1074.2</ele>
        <time>2026-05-10T12:53:19Z</time>
      </trkpt>
      <trkpt lat="46.09558" lon="5.67531">
        <ele>1074.8</ele>
        <time>2026-05-10T12:53:20Z</time>
      </trkpt>
      <trkpt lat="46.09556" lon="5.67534">
        <ele>1074.8</ele>
        <time>2026-05-10T12:53:21Z</time>
      </trkpt>
      <trkpt lat="46.09554" lon="5.67538">
        <ele>1074.8</ele>
        <time>2026-05-10T12:53:22Z</time>
      </trkpt>
      <trkpt lat="46.09552" lon="5.67541">
        <ele>1074.8</ele>
        <time>2026-05-10T12:53:23Z</time>
      </trkpt>
      <trkpt lat="46.09549" lon="5.67545">
        <ele>1074.8</ele>
        <time>2026-05-10T12:53:24Z</time>
      </trkpt>
      <trkpt lat="46.09546" lon="5.67548">
        <ele>1074.8</ele>
        <time>2026-05-10T12:53:25Z</time>
      </trkpt>
      <trkpt lat="46.09543" lon="5.67552">
        <ele>1075.2</ele>
        <time>2026-05-10T12:53:26Z</time>
      </trkpt>
      <trkpt lat="46.09541" lon="5.67555">
        <ele>1075</ele>
        <time>2026-05-10T12:53:27Z</time>
      </trkpt>
      <trkpt lat="46.09539" lon="5.67558">
        <ele>1074.4</ele>
        <time>2026-05-10T12:53:28Z</time>
      </trkpt>
      <trkpt lat="46.09536" lon="5.6756">
        <ele>1074.6</ele>
        <time>2026-05-10T12:53:29Z</time>
      </trkpt>
      <trkpt lat="46.09534" lon="5.67561">
        <ele>1074.6</ele>
        <time>2026-05-10T12:53:30Z</time>
      </trkpt>
      <trkpt lat="46.0953" lon="5.67562">
        <ele>1075.2</ele>
        <time>2026-05-10T12:53:31Z</time>
      </trkpt>
      <trkpt lat="46.09527" lon="5.67563">
        <ele>1075.2</ele>
        <time>2026-05-10T12:53:32Z</time>
      </trkpt>
      <trkpt lat="46.09525" lon="5.67564">
        <ele>1075.2</ele>
        <time>2026-05-10T12:53:33Z</time>
      </trkpt>
      <trkpt lat="46.09522" lon="5.67566">
        <ele>1074.8</ele>
        <time>2026-05-10T12:53:34Z</time>
      </trkpt>
      <trkpt lat="46.0952" lon="5.67567">
        <ele>1074.8</ele>
        <time>2026-05-10T12:53:35Z</time>
      </trkpt>
      <trkpt lat="46.09518" lon="5.67569">
        <ele>1074.6</ele>
        <time>2026-05-10T12:53:36Z</time>
      </trkpt>
      <trkpt lat="46.09516" lon="5.6757">
        <ele>1074.6</ele>
        <time>2026-05-10T12:53:37Z</time>
      </trkpt>
      <trkpt lat="46.09514" lon="5.67571">
        <ele>1074</ele>
        <time>2026-05-10T12:53:38Z</time>
      </trkpt>
      <trkpt lat="46.09511" lon="5.67572">
        <ele>1074.2</ele>
        <time>2026-05-10T12:53:39Z</time>
      </trkpt>
      <trkpt lat="46.09509" lon="5.67573">
        <ele>1074.6</ele>
        <time>2026-05-10T12:53:40Z</time>
      </trkpt>
      <trkpt lat="46.09507" lon="5.67573">
        <ele>1074.2</ele>
        <time>2026-05-10T12:53:41Z</time>
      </trkpt>
      <trkpt lat="46.09506" lon="5.67574">
        <ele>1073.8</ele>
        <time>2026-05-10T12:53:42Z</time>
      </trkpt>
      <trkpt lat="46.09503" lon="5.67576">
        <ele>1073.8</ele>
        <time>2026-05-10T12:53:43Z</time>
      </trkpt>
      <trkpt lat="46.09501" lon="5.67577">
        <ele>1073.6</ele>
        <time>2026-05-10T12:53:44Z</time>
      </trkpt>
      <trkpt lat="46.095" lon="5.67578">
        <ele>1073.6</ele>
        <time>2026-05-10T12:53:45Z</time>
      </trkpt>
      <trkpt lat="46.09498" lon="5.6758">
        <ele>1073</ele>
        <time>2026-05-10T12:53:46Z</time>
      </trkpt>
      <trkpt lat="46.09498" lon="5.6758">
        <ele>1072.8</ele>
        <time>2026-05-10T12:53:47Z</time>
      </trkpt>
      <trkpt lat="46.09495" lon="5.67582">
        <ele>1072.8</ele>
        <time>2026-05-10T12:53:48Z</time>
      </trkpt>
      <trkpt lat="46.09491" lon="5.67585">
        <ele>1072</ele>
        <time>2026-05-10T12:53:49Z</time>
      </trkpt>
      <trkpt lat="46.09488" lon="5.67586">
        <ele>1071</ele>
        <time>2026-05-10T12:53:50Z</time>
      </trkpt>
      <trkpt lat="46.09484" lon="5.67589">
        <ele>1070.6</ele>
        <time>2026-05-10T12:53:51Z</time>
      </trkpt>
      <trkpt lat="46.09481" lon="5.67591">
        <ele>1070.4</ele>
        <time>2026-05-10T12:53:52Z</time>
      </trkpt>
      <trkpt lat="46.09478" lon="5.67593">
        <ele>1070.4</ele>
        <time>2026-05-10T12:53:53Z</time>
      </trkpt>
      <trkpt lat="46.09475" lon="5.67595">
        <ele>1070.4</ele>
        <time>2026-05-10T12:53:54Z</time>
      </trkpt>
      <trkpt lat="46.09471" lon="5.67595">
        <ele>1069.8</ele>
        <time>2026-05-10T12:53:55Z</time>
      </trkpt>
      <trkpt lat="46.09465" lon="5.6759">
        <ele>1069.2</ele>
        <time>2026-05-10T12:53:56Z</time>
      </trkpt>
      <trkpt lat="46.0946" lon="5.6759">
        <ele>1068.6</ele>
        <time>2026-05-10T12:53:57Z</time>
      </trkpt>
      <trkpt lat="46.09455" lon="5.6759">
        <ele>1067.6</ele>
        <time>2026-05-10T12:53:58Z</time>
      </trkpt>
      <trkpt lat="46.09451" lon="5.67589">
        <ele>1067.6</ele>
        <time>2026-05-10T12:53:59Z</time>
      </trkpt>
      <trkpt lat="46.09448" lon="5.67588">
        <ele>1068</ele>
        <time>2026-05-10T12:54:00Z</time>
      </trkpt>
      <trkpt lat="46.09445" lon="5.67588">
        <ele>1068.2</ele>
        <time>2026-05-10T12:54:01Z</time>
      </trkpt>
      <trkpt lat="46.09441" lon="5.67588">
        <ele>1067.8</ele>
        <time>2026-05-10T12:54:02Z</time>
      </trkpt>
      <trkpt lat="46.09438" lon="5.67589">
        <ele>1067.8</ele>
        <time>2026-05-10T12:54:03Z</time>
      </trkpt>
      <trkpt lat="46.09436" lon="5.67591">
        <ele>1068</ele>
        <time>2026-05-10T12:54:04Z</time>
      </trkpt>
      <trkpt lat="46.09432" lon="5.67593">
        <ele>1068.2</ele>
        <time>2026-05-10T12:54:05Z</time>
      </trkpt>
      <trkpt lat="46.09431" lon="5.67593">
        <ele>1068.2</ele>
        <time>2026-05-10T12:54:06Z</time>
      </trkpt>
      <trkpt lat="46.09428" lon="5.67596">
        <ele>1068.6</ele>
        <time>2026-05-10T12:54:07Z</time>
      </trkpt>
      <trkpt lat="46.09427" lon="5.67599">
        <ele>1068.6</ele>
        <time>2026-05-10T12:54:08Z</time>
      </trkpt>
      <trkpt lat="46.09424" lon="5.67601">
        <ele>1068.6</ele>
        <time>2026-05-10T12:54:09Z</time>
      </trkpt>
      <trkpt lat="46.0942" lon="5.67603">
        <ele>1068.6</ele>
        <time>2026-05-10T12:54:10Z</time>
      </trkpt>
      <trkpt lat="46.09418" lon="5.67603">
        <ele>1068.6</ele>
        <time>2026-05-10T12:54:11Z</time>
      </trkpt>
      <trkpt lat="46.09415" lon="5.67604">
        <ele>1069</ele>
        <time>2026-05-10T12:54:12Z</time>
      </trkpt>
      <trkpt lat="46.09411" lon="5.67604">
        <ele>1069</ele>
        <time>2026-05-10T12:54:13Z</time>
      </trkpt>
      <trkpt lat="46.09408" lon="5.67605">
        <ele>1069</ele>
        <time>2026-05-10T12:54:14Z</time>
      </trkpt>
      <trkpt lat="46.09405" lon="5.67606">
        <ele>1069.2</ele>
        <time>2026-05-10T12:54:15Z</time>
      </trkpt>
      <trkpt lat="46.09402" lon="5.67607">
        <ele>1069.2</ele>
        <time>2026-05-10T12:54:16Z</time>
      </trkpt>
      <trkpt lat="46.09399" lon="5.67608">
        <ele>1069.2</ele>
        <time>2026-05-10T12:54:17Z</time>
      </trkpt>
      <trkpt lat="46.09397" lon="5.67609">
        <ele>1069.6</ele>
        <time>2026-05-10T12:54:18Z</time>
      </trkpt>
      <trkpt lat="46.09394" lon="5.6761">
        <ele>1069.6</ele>
        <time>2026-05-10T12:54:19Z</time>
      </trkpt>
      <trkpt lat="46.0939" lon="5.67611">
        <ele>1069.6</ele>
        <time>2026-05-10T12:54:20Z</time>
      </trkpt>
      <trkpt lat="46.09387" lon="5.67612">
        <ele>1070</ele>
        <time>2026-05-10T12:54:21Z</time>
      </trkpt>
      <trkpt lat="46.09384" lon="5.67612">
        <ele>1070</ele>
        <time>2026-05-10T12:54:22Z</time>
      </trkpt>
      <trkpt lat="46.09381" lon="5.67612">
        <ele>1070</ele>
        <time>2026-05-10T12:54:23Z</time>
      </trkpt>
      <trkpt lat="46.09378" lon="5.67612">
        <ele>1070</ele>
        <time>2026-05-10T12:54:24Z</time>
      </trkpt>
      <trkpt lat="46.09375" lon="5.67612">
        <ele>1070.2</ele>
        <time>2026-05-10T12:54:25Z</time>
      </trkpt>
      <trkpt lat="46.09372" lon="5.67611">
        <ele>1070.2</ele>
        <time>2026-05-10T12:54:26Z</time>
      </trkpt>
      <trkpt lat="46.09369" lon="5.67611">
        <ele>1070.6</ele>
        <time>2026-05-10T12:54:27Z</time>
      </trkpt>
      <trkpt lat="46.09366" lon="5.67611">
        <ele>1070.6</ele>
        <time>2026-05-10T12:54:28Z</time>
      </trkpt>
      <trkpt lat="46.09363" lon="5.67611">
        <ele>1070.6</ele>
        <time>2026-05-10T12:54:29Z</time>
      </trkpt>
      <trkpt lat="46.0936" lon="5.67611">
        <ele>1070.6</ele>
        <time>2026-05-10T12:54:30Z</time>
      </trkpt>
      <trkpt lat="46.09357" lon="5.67611">
        <ele>1070.6</ele>
        <time>2026-05-10T12:54:31Z</time>
      </trkpt>
      <trkpt lat="46.09354" lon="5.67611">
        <ele>1070.6</ele>
        <time>2026-05-10T12:54:32Z</time>
      </trkpt>
      <trkpt lat="46.09351" lon="5.67611">
        <ele>1070.6</ele>
        <time>2026-05-10T12:54:33Z</time>
      </trkpt>
      <trkpt lat="46.09349" lon="5.67612">
        <ele>1071</ele>
        <time>2026-05-10T12:54:34Z</time>
      </trkpt>
      <trkpt lat="46.09347" lon="5.67613">
        <ele>1071</ele>
        <time>2026-05-10T12:54:35Z</time>
      </trkpt>
      <trkpt lat="46.09345" lon="5.67613">
        <ele>1071.2</ele>
        <time>2026-05-10T12:54:36Z</time>
      </trkpt>
      <trkpt lat="46.09342" lon="5.67614">
        <ele>1071.8</ele>
        <time>2026-05-10T12:54:37Z</time>
      </trkpt>
      <trkpt lat="46.0934" lon="5.67613">
        <ele>1071.8</ele>
        <time>2026-05-10T12:54:38Z</time>
      </trkpt>
      <trkpt lat="46.09338" lon="5.67613">
        <ele>1071.8</ele>
        <time>2026-05-10T12:54:39Z</time>
      </trkpt>
      <trkpt lat="46.09337" lon="5.67613">
        <ele>1071.8</ele>
        <time>2026-05-10T12:54:40Z</time>
      </trkpt>
      <trkpt lat="46.09335" lon="5.67614">
        <ele>1072.4</ele>
        <time>2026-05-10T12:54:41Z</time>
      </trkpt>
      <trkpt lat="46.09334" lon="5.67614">
        <ele>1072.8</ele>
        <time>2026-05-10T12:54:42Z</time>
      </trkpt>
      <trkpt lat="46.09332" lon="5.67616">
        <ele>1073.2</ele>
        <time>2026-05-10T12:54:43Z</time>
      </trkpt>
      <trkpt lat="46.0933" lon="5.67618">
        <ele>1073.4</ele>
        <time>2026-05-10T12:54:44Z</time>
      </trkpt>
      <trkpt lat="46.09329" lon="5.67619">
        <ele>1073.8</ele>
        <time>2026-05-10T12:54:45Z</time>
      </trkpt>
      <trkpt lat="46.09327" lon="5.6762">
        <ele>1074</ele>
        <time>2026-05-10T12:54:46Z</time>
      </trkpt>
      <trkpt lat="46.09325" lon="5.6762">
        <ele>1074.4</ele>
        <time>2026-05-10T12:54:47Z</time>
      </trkpt>
      <trkpt lat="46.09323" lon="5.67621">
        <ele>1074.4</ele>
        <time>2026-05-10T12:54:48Z</time>
      </trkpt>
      <trkpt lat="46.09322" lon="5.67622">
        <ele>1074.4</ele>
        <time>2026-05-10T12:54:49Z</time>
      </trkpt>
      <trkpt lat="46.0932" lon="5.67624">
        <ele>1074.6</ele>
        <time>2026-05-10T12:54:50Z</time>
      </trkpt>
      <trkpt lat="46.09319" lon="5.67626">
        <ele>1074.6</ele>
        <time>2026-05-10T12:54:51Z</time>
      </trkpt>
      <trkpt lat="46.09317" lon="5.67628">
        <ele>1075</ele>
        <time>2026-05-10T12:54:52Z</time>
      </trkpt>
      <trkpt lat="46.09315" lon="5.6763">
        <ele>1075</ele>
        <time>2026-05-10T12:54:53Z</time>
      </trkpt>
      <trkpt lat="46.09314" lon="5.67631">
        <ele>1075</ele>
        <time>2026-05-10T12:54:54Z</time>
      </trkpt>
      <trkpt lat="46.09312" lon="5.67632">
        <ele>1075.2</ele>
        <time>2026-05-10T12:54:55Z</time>
      </trkpt>
      <trkpt lat="46.09311" lon="5.67634">
        <ele>1075.2</ele>
        <time>2026-05-10T12:54:56Z</time>
      </trkpt>
      <trkpt lat="46.09309" lon="5.67636">
        <ele>1075.4</ele>
        <time>2026-05-10T12:54:57Z</time>
      </trkpt>
      <trkpt lat="46.09308" lon="5.67637">
        <ele>1075.4</ele>
        <time>2026-05-10T12:54:58Z</time>
      </trkpt>
      <trkpt lat="46.09306" lon="5.67638">
        <ele>1076.2</ele>
        <time>2026-05-10T12:54:59Z</time>
      </trkpt>
      <trkpt lat="46.09305" lon="5.67639">
        <ele>1076.2</ele>
        <time>2026-05-10T12:55:00Z</time>
      </trkpt>
      <trkpt lat="46.09304" lon="5.67641">
        <ele>1076.2</ele>
        <time>2026-05-10T12:55:01Z</time>
      </trkpt>
      <trkpt lat="46.09304" lon="5.67643">
        <ele>1075.8</ele>
        <time>2026-05-10T12:55:02Z</time>
      </trkpt>
      <trkpt lat="46.09303" lon="5.67645">
        <ele>1075.8</ele>
        <time>2026-05-10T12:55:03Z</time>
      </trkpt>
      <trkpt lat="46.09302" lon="5.67646">
        <ele>1075.8</ele>
        <time>2026-05-10T12:55:04Z</time>
      </trkpt>
      <trkpt lat="46.09301" lon="5.67647">
        <ele>1075.8</ele>
        <time>2026-05-10T12:55:05Z</time>
      </trkpt>
      <trkpt lat="46.09299" lon="5.67649">
        <ele>1075.8</ele>
        <time>2026-05-10T12:55:06Z</time>
      </trkpt>
      <trkpt lat="46.09296" lon="5.67651">
        <ele>1075.8</ele>
        <time>2026-05-10T12:55:07Z</time>
      </trkpt>
      <trkpt lat="46.09294" lon="5.67652">
        <ele>1075.8</ele>
        <time>2026-05-10T12:55:08Z</time>
      </trkpt>
      <trkpt lat="46.09293" lon="5.67654">
        <ele>1075.8</ele>
        <time>2026-05-10T12:55:09Z</time>
      </trkpt>
      <trkpt lat="46.09292" lon="5.67657">
        <ele>1075.6</ele>
        <time>2026-05-10T12:55:10Z</time>
      </trkpt>
      <trkpt lat="46.09291" lon="5.6766">
        <ele>1075.6</ele>
        <time>2026-05-10T12:55:11Z</time>
      </trkpt>
      <trkpt lat="46.0929" lon="5.67661">
        <ele>1075.6</ele>
        <time>2026-05-10T12:55:12Z</time>
      </trkpt>
      <trkpt lat="46.09289" lon="5.67663">
        <ele>1075.4</ele>
        <time>2026-05-10T12:55:13Z</time>
      </trkpt>
      <trkpt lat="46.09287" lon="5.67665">
        <ele>1075.4</ele>
        <time>2026-05-10T12:55:14Z</time>
      </trkpt>
      <trkpt lat="46.09285" lon="5.67669">
        <ele>1074.8</ele>
        <time>2026-05-10T12:55:15Z</time>
      </trkpt>
      <trkpt lat="46.09283" lon="5.67673">
        <ele>1074.8</ele>
        <time>2026-05-10T12:55:16Z</time>
      </trkpt>
      <trkpt lat="46.09279" lon="5.67677">
        <ele>1074.2</ele>
        <time>2026-05-10T12:55:17Z</time>
      </trkpt>
      <trkpt lat="46.09278" lon="5.67682">
        <ele>1073.6</ele>
        <time>2026-05-10T12:55:18Z</time>
      </trkpt>
      <trkpt lat="46.09276" lon="5.67685">
        <ele>1073.2</ele>
        <time>2026-05-10T12:55:19Z</time>
      </trkpt>
      <trkpt lat="46.09274" lon="5.67689">
        <ele>1071.6</ele>
        <time>2026-05-10T12:55:20Z</time>
      </trkpt>
      <trkpt lat="46.09271" lon="5.67695">
        <ele>1071.6</ele>
        <time>2026-05-10T12:55:21Z</time>
      </trkpt>
      <trkpt lat="46.09269" lon="5.67701">
        <ele>1071.4</ele>
        <time>2026-05-10T12:55:22Z</time>
      </trkpt>
      <trkpt lat="46.09266" lon="5.67707">
        <ele>1070.8</ele>
        <time>2026-05-10T12:55:23Z</time>
      </trkpt>
      <trkpt lat="46.0927" lon="5.67717">
        <ele>1070.4</ele>
        <time>2026-05-10T12:55:24Z</time>
      </trkpt>
      <trkpt lat="46.09267" lon="5.6772">
        <ele>1070.4</ele>
        <time>2026-05-10T12:55:25Z</time>
      </trkpt>
      <trkpt lat="46.09266" lon="5.67725">
        <ele>1070.2</ele>
        <time>2026-05-10T12:55:26Z</time>
      </trkpt>
      <trkpt lat="46.09265" lon="5.67729">
        <ele>1070.2</ele>
        <time>2026-05-10T12:55:27Z</time>
      </trkpt>
      <trkpt lat="46.09267" lon="5.67738">
        <ele>1070.2</ele>
        <time>2026-05-10T12:55:28Z</time>
      </trkpt>
      <trkpt lat="46.09266" lon="5.67743">
        <ele>1070.2</ele>
        <time>2026-05-10T12:55:29Z</time>
      </trkpt>
      <trkpt lat="46.09268" lon="5.67749">
        <ele>1070.2</ele>
        <time>2026-05-10T12:55:30Z</time>
      </trkpt>
      <trkpt lat="46.09268" lon="5.67753">
        <ele>1070.2</ele>
        <time>2026-05-10T12:55:31Z</time>
      </trkpt>
      <trkpt lat="46.09269" lon="5.67756">
        <ele>1070.6</ele>
        <time>2026-05-10T12:55:32Z</time>
      </trkpt>
      <trkpt lat="46.09269" lon="5.67762">
        <ele>1070.6</ele>
        <time>2026-05-10T12:55:33Z</time>
      </trkpt>
      <trkpt lat="46.09269" lon="5.67766">
        <ele>1070.6</ele>
        <time>2026-05-10T12:55:34Z</time>
      </trkpt>
      <trkpt lat="46.0927" lon="5.67771">
        <ele>1070.6</ele>
        <time>2026-05-10T12:55:35Z</time>
      </trkpt>
      <trkpt lat="46.09269" lon="5.67779">
        <ele>1070.8</ele>
        <time>2026-05-10T12:55:36Z</time>
      </trkpt>
      <trkpt lat="46.09269" lon="5.67783">
        <ele>1071.2</ele>
        <time>2026-05-10T12:55:37Z</time>
      </trkpt>
      <trkpt lat="46.09266" lon="5.67784">
        <ele>1070.6</ele>
        <time>2026-05-10T12:55:38Z</time>
      </trkpt>
      <trkpt lat="46.09266" lon="5.67789">
        <ele>1071</ele>
        <time>2026-05-10T12:55:39Z</time>
      </trkpt>
      <trkpt lat="46.09265" lon="5.67792">
        <ele>1071</ele>
        <time>2026-05-10T12:55:40Z</time>
      </trkpt>
      <trkpt lat="46.09264" lon="5.67796">
        <ele>1071.2</ele>
        <time>2026-05-10T12:55:41Z</time>
      </trkpt>
      <trkpt lat="46.09262" lon="5.67799">
        <ele>1071.2</ele>
        <time>2026-05-10T12:55:42Z</time>
      </trkpt>
      <trkpt lat="46.0926" lon="5.67802">
        <ele>1070.8</ele>
        <time>2026-05-10T12:55:43Z</time>
      </trkpt>
      <trkpt lat="46.0926" lon="5.67806">
        <ele>1070.8</ele>
        <time>2026-05-10T12:55:44Z</time>
      </trkpt>
      <trkpt lat="46.09257" lon="5.67809">
        <ele>1071.2</ele>
        <time>2026-05-10T12:55:45Z</time>
      </trkpt>
      <trkpt lat="46.09257" lon="5.67812">
        <ele>1071.2</ele>
        <time>2026-05-10T12:55:46Z</time>
      </trkpt>
      <trkpt lat="46.09257" lon="5.67815">
        <ele>1071.2</ele>
        <time>2026-05-10T12:55:47Z</time>
      </trkpt>
      <trkpt lat="46.09256" lon="5.67817">
        <ele>1071.2</ele>
        <time>2026-05-10T12:55:48Z</time>
      </trkpt>
      <trkpt lat="46.09255" lon="5.67818">
        <ele>1071.2</ele>
        <time>2026-05-10T12:55:49Z</time>
      </trkpt>
      <trkpt lat="46.09255" lon="5.67819">
        <ele>1071</ele>
        <time>2026-05-10T12:55:50Z</time>
      </trkpt>
      <trkpt lat="46.09254" lon="5.6782">
        <ele>1071</ele>
        <time>2026-05-10T12:55:51Z</time>
      </trkpt>
      <trkpt lat="46.09254" lon="5.67822">
        <ele>1071</ele>
        <time>2026-05-10T12:55:52Z</time>
      </trkpt>
      <trkpt lat="46.09253" lon="5.67825">
        <ele>1071</ele>
        <time>2026-05-10T12:55:53Z</time>
      </trkpt>
      <trkpt lat="46.09254" lon="5.67828">
        <ele>1070.6</ele>
        <time>2026-05-10T12:55:54Z</time>
      </trkpt>
      <trkpt lat="46.09253" lon="5.67831">
        <ele>1070.6</ele>
        <time>2026-05-10T12:55:55Z</time>
      </trkpt>
      <trkpt lat="46.09253" lon="5.67833">
        <ele>1070.2</ele>
        <time>2026-05-10T12:55:56Z</time>
      </trkpt>
      <trkpt lat="46.09252" lon="5.67836">
        <ele>1069.6</ele>
        <time>2026-05-10T12:55:57Z</time>
      </trkpt>
      <trkpt lat="46.09251" lon="5.67841">
        <ele>1069.2</ele>
        <time>2026-05-10T12:55:58Z</time>
      </trkpt>
      <trkpt lat="46.0925" lon="5.67845">
        <ele>1069.2</ele>
        <time>2026-05-10T12:55:59Z</time>
      </trkpt>
      <trkpt lat="46.09249" lon="5.67851">
        <ele>1068.8</ele>
        <time>2026-05-10T12:56:00Z</time>
      </trkpt>
      <trkpt lat="46.09247" lon="5.67856">
        <ele>1068.4</ele>
        <time>2026-05-10T12:56:01Z</time>
      </trkpt>
      <trkpt lat="46.09245" lon="5.67862">
        <ele>1068.4</ele>
        <time>2026-05-10T12:56:02Z</time>
      </trkpt>
      <trkpt lat="46.09243" lon="5.67868">
        <ele>1068</ele>
        <time>2026-05-10T12:56:03Z</time>
      </trkpt>
      <trkpt lat="46.09241" lon="5.67874">
        <ele>1067.4</ele>
        <time>2026-05-10T12:56:04Z</time>
      </trkpt>
      <trkpt lat="46.0924" lon="5.67881">
        <ele>1067.2</ele>
        <time>2026-05-10T12:56:05Z</time>
      </trkpt>
      <trkpt lat="46.09238" lon="5.67892">
        <ele>1066.2</ele>
        <time>2026-05-10T12:56:06Z</time>
      </trkpt>
      <trkpt lat="46.09237" lon="5.67897">
        <ele>1066.2</ele>
        <time>2026-05-10T12:56:07Z</time>
      </trkpt>
      <trkpt lat="46.09236" lon="5.67903">
        <ele>1066.2</ele>
        <time>2026-05-10T12:56:08Z</time>
      </trkpt>
      <trkpt lat="46.09235" lon="5.67909">
        <ele>1066.4</ele>
        <time>2026-05-10T12:56:09Z</time>
      </trkpt>
      <trkpt lat="46.09233" lon="5.67915">
        <ele>1066.4</ele>
        <time>2026-05-10T12:56:10Z</time>
      </trkpt>
      <trkpt lat="46.0923" lon="5.6792">
        <ele>1066.4</ele>
        <time>2026-05-10T12:56:11Z</time>
      </trkpt>
      <trkpt lat="46.09227" lon="5.67924">
        <ele>1066.4</ele>
        <time>2026-05-10T12:56:12Z</time>
      </trkpt>
      <trkpt lat="46.09225" lon="5.67927">
        <ele>1067</ele>
        <time>2026-05-10T12:56:13Z</time>
      </trkpt>
      <trkpt lat="46.09225" lon="5.67931">
        <ele>1067.6</ele>
        <time>2026-05-10T12:56:14Z</time>
      </trkpt>
      <trkpt lat="46.09221" lon="5.67934">
        <ele>1067.8</ele>
        <time>2026-05-10T12:56:15Z</time>
      </trkpt>
      <trkpt lat="46.09217" lon="5.67937">
        <ele>1067.8</ele>
        <time>2026-05-10T12:56:16Z</time>
      </trkpt>
      <trkpt lat="46.09216" lon="5.67941">
        <ele>1067.8</ele>
        <time>2026-05-10T12:56:17Z</time>
      </trkpt>
      <trkpt lat="46.09214" lon="5.67946">
        <ele>1067.8</ele>
        <time>2026-05-10T12:56:18Z</time>
      </trkpt>
      <trkpt lat="46.09209" lon="5.67948">
        <ele>1067.8</ele>
        <time>2026-05-10T12:56:19Z</time>
      </trkpt>
      <trkpt lat="46.09207" lon="5.67952">
        <ele>1067.8</ele>
        <time>2026-05-10T12:56:20Z</time>
      </trkpt>
      <trkpt lat="46.09203" lon="5.67953">
        <ele>1067.6</ele>
        <time>2026-05-10T12:56:21Z</time>
      </trkpt>
      <trkpt lat="46.092" lon="5.67956">
        <ele>1067.6</ele>
        <time>2026-05-10T12:56:22Z</time>
      </trkpt>
      <trkpt lat="46.09197" lon="5.67959">
        <ele>1067.6</ele>
        <time>2026-05-10T12:56:23Z</time>
      </trkpt>
      <trkpt lat="46.09195" lon="5.67961">
        <ele>1067.8</ele>
        <time>2026-05-10T12:56:24Z</time>
      </trkpt>
      <trkpt lat="46.09192" lon="5.67964">
        <ele>1067.6</ele>
        <time>2026-05-10T12:56:25Z</time>
      </trkpt>
      <trkpt lat="46.0919" lon="5.67965">
        <ele>1067.6</ele>
        <time>2026-05-10T12:56:26Z</time>
      </trkpt>
      <trkpt lat="46.09188" lon="5.67967">
        <ele>1067.6</ele>
        <time>2026-05-10T12:56:27Z</time>
      </trkpt>
      <trkpt lat="46.09183" lon="5.67971">
        <ele>1067.8</ele>
        <time>2026-05-10T12:56:28Z</time>
      </trkpt>
      <trkpt lat="46.0918" lon="5.67973">
        <ele>1067.8</ele>
        <time>2026-05-10T12:56:29Z</time>
      </trkpt>
      <trkpt lat="46.09177" lon="5.67976">
        <ele>1067.6</ele>
        <time>2026-05-10T12:56:30Z</time>
      </trkpt>
      <trkpt lat="46.09175" lon="5.67979">
        <ele>1067.6</ele>
        <time>2026-05-10T12:56:31Z</time>
      </trkpt>
      <trkpt lat="46.09172" lon="5.67981">
        <ele>1067.6</ele>
        <time>2026-05-10T12:56:32Z</time>
      </trkpt>
      <trkpt lat="46.0917" lon="5.67983">
        <ele>1067.8</ele>
        <time>2026-05-10T12:56:33Z</time>
      </trkpt>
      <trkpt lat="46.09168" lon="5.67985">
        <ele>1068.2</ele>
        <time>2026-05-10T12:56:34Z</time>
      </trkpt>
      <trkpt lat="46.09165" lon="5.67986">
        <ele>1068.4</ele>
        <time>2026-05-10T12:56:35Z</time>
      </trkpt>
      <trkpt lat="46.09164" lon="5.67988">
        <ele>1068.4</ele>
        <time>2026-05-10T12:56:36Z</time>
      </trkpt>
      <trkpt lat="46.09162" lon="5.6799">
        <ele>1068.4</ele>
        <time>2026-05-10T12:56:37Z</time>
      </trkpt>
      <trkpt lat="46.09159" lon="5.67992">
        <ele>1068.6</ele>
        <time>2026-05-10T12:56:38Z</time>
      </trkpt>
      <trkpt lat="46.09156" lon="5.67993">
        <ele>1069</ele>
        <time>2026-05-10T12:56:39Z</time>
      </trkpt>
      <trkpt lat="46.09155" lon="5.67994">
        <ele>1069.2</ele>
        <time>2026-05-10T12:56:40Z</time>
      </trkpt>
      <trkpt lat="46.09154" lon="5.67996">
        <ele>1069.4</ele>
        <time>2026-05-10T12:56:41Z</time>
      </trkpt>
      <trkpt lat="46.09153" lon="5.67999">
        <ele>1069.4</ele>
        <time>2026-05-10T12:56:42Z</time>
      </trkpt>
      <trkpt lat="46.09153" lon="5.68002">
        <ele>1069.8</ele>
        <time>2026-05-10T12:56:43Z</time>
      </trkpt>
      <trkpt lat="46.09152" lon="5.68004">
        <ele>1070</ele>
        <time>2026-05-10T12:56:44Z</time>
      </trkpt>
      <trkpt lat="46.09151" lon="5.68007">
        <ele>1070</ele>
        <time>2026-05-10T12:56:45Z</time>
      </trkpt>
      <trkpt lat="46.0915" lon="5.6801">
        <ele>1070.2</ele>
        <time>2026-05-10T12:56:46Z</time>
      </trkpt>
      <trkpt lat="46.09148" lon="5.68012">
        <ele>1070.2</ele>
        <time>2026-05-10T12:56:47Z</time>
      </trkpt>
      <trkpt lat="46.09147" lon="5.68014">
        <ele>1070.2</ele>
        <time>2026-05-10T12:56:48Z</time>
      </trkpt>
      <trkpt lat="46.09145" lon="5.68017">
        <ele>1070.2</ele>
        <time>2026-05-10T12:56:49Z</time>
      </trkpt>
      <trkpt lat="46.09144" lon="5.68018">
        <ele>1070.2</ele>
        <time>2026-05-10T12:56:50Z</time>
      </trkpt>
      <trkpt lat="46.09142" lon="5.68019">
        <ele>1070.2</ele>
        <time>2026-05-10T12:56:51Z</time>
      </trkpt>
      <trkpt lat="46.0914" lon="5.6802">
        <ele>1070.2</ele>
        <time>2026-05-10T12:56:52Z</time>
      </trkpt>
      <trkpt lat="46.09136" lon="5.68021">
        <ele>1070.4</ele>
        <time>2026-05-10T12:56:53Z</time>
      </trkpt>
      <trkpt lat="46.09134" lon="5.68021">
        <ele>1070.4</ele>
        <time>2026-05-10T12:56:54Z</time>
      </trkpt>
      <trkpt lat="46.09131" lon="5.68022">
        <ele>1070.6</ele>
        <time>2026-05-10T12:56:55Z</time>
      </trkpt>
      <trkpt lat="46.09129" lon="5.68022">
        <ele>1070.6</ele>
        <time>2026-05-10T12:56:56Z</time>
      </trkpt>
      <trkpt lat="46.09129" lon="5.68022">
        <ele>1070.6</ele>
        <time>2026-05-10T12:56:57Z</time>
      </trkpt>
      <trkpt lat="46.09127" lon="5.68024">
        <ele>1070.6</ele>
        <time>2026-05-10T12:56:58Z</time>
      </trkpt>
      <trkpt lat="46.09125" lon="5.68026">
        <ele>1070.6</ele>
        <time>2026-05-10T12:56:59Z</time>
      </trkpt>
      <trkpt lat="46.09123" lon="5.68027">
        <ele>1070.6</ele>
        <time>2026-05-10T12:57:00Z</time>
      </trkpt>
      <trkpt lat="46.09121" lon="5.6803">
        <ele>1070.6</ele>
        <time>2026-05-10T12:57:01Z</time>
      </trkpt>
      <trkpt lat="46.09119" lon="5.68032">
        <ele>1071</ele>
        <time>2026-05-10T12:57:02Z</time>
      </trkpt>
      <trkpt lat="46.09117" lon="5.68034">
        <ele>1071</ele>
        <time>2026-05-10T12:57:03Z</time>
      </trkpt>
      <trkpt lat="46.09115" lon="5.68036">
        <ele>1070.8</ele>
        <time>2026-05-10T12:57:04Z</time>
      </trkpt>
      <trkpt lat="46.09112" lon="5.68039">
        <ele>1070.8</ele>
        <time>2026-05-10T12:57:05Z</time>
      </trkpt>
      <trkpt lat="46.09109" lon="5.68041">
        <ele>1070.2</ele>
        <time>2026-05-10T12:57:06Z</time>
      </trkpt>
      <trkpt lat="46.09106" lon="5.68044">
        <ele>1070.2</ele>
        <time>2026-05-10T12:57:07Z</time>
      </trkpt>
      <trkpt lat="46.09103" lon="5.68046">
        <ele>1069.8</ele>
        <time>2026-05-10T12:57:08Z</time>
      </trkpt>
      <trkpt lat="46.09101" lon="5.68049">
        <ele>1070.2</ele>
        <time>2026-05-10T12:57:09Z</time>
      </trkpt>
      <trkpt lat="46.09098" lon="5.68052">
        <ele>1069.6</ele>
        <time>2026-05-10T12:57:10Z</time>
      </trkpt>
      <trkpt lat="46.09096" lon="5.68055">
        <ele>1069</ele>
        <time>2026-05-10T12:57:11Z</time>
      </trkpt>
      <trkpt lat="46.09093" lon="5.68062">
        <ele>1068.6</ele>
        <time>2026-05-10T12:57:12Z</time>
      </trkpt>
      <trkpt lat="46.09091" lon="5.68066">
        <ele>1068.6</ele>
        <time>2026-05-10T12:57:13Z</time>
      </trkpt>
      <trkpt lat="46.09089" lon="5.68071">
        <ele>1068.2</ele>
        <time>2026-05-10T12:57:14Z</time>
      </trkpt>
      <trkpt lat="46.09088" lon="5.68076">
        <ele>1067.8</ele>
        <time>2026-05-10T12:57:15Z</time>
      </trkpt>
      <trkpt lat="46.09087" lon="5.68081">
        <ele>1067.4</ele>
        <time>2026-05-10T12:57:16Z</time>
      </trkpt>
      <trkpt lat="46.09084" lon="5.68086">
        <ele>1066.8</ele>
        <time>2026-05-10T12:57:17Z</time>
      </trkpt>
      <trkpt lat="46.09081" lon="5.6809">
        <ele>1066.2</ele>
        <time>2026-05-10T12:57:18Z</time>
      </trkpt>
      <trkpt lat="46.09077" lon="5.68092">
        <ele>1065.4</ele>
        <time>2026-05-10T12:57:19Z</time>
      </trkpt>
      <trkpt lat="46.09074" lon="5.68092">
        <ele>1065.4</ele>
        <time>2026-05-10T12:57:20Z</time>
      </trkpt>
      <trkpt lat="46.09071" lon="5.68092">
        <ele>1065.2</ele>
        <time>2026-05-10T12:57:21Z</time>
      </trkpt>
      <trkpt lat="46.09067" lon="5.68092">
        <ele>1065.2</ele>
        <time>2026-05-10T12:57:22Z</time>
      </trkpt>
      <trkpt lat="46.09065" lon="5.68092">
        <ele>1065.2</ele>
        <time>2026-05-10T12:57:23Z</time>
      </trkpt>
      <trkpt lat="46.09061" lon="5.68092">
        <ele>1065.2</ele>
        <time>2026-05-10T12:57:24Z</time>
      </trkpt>
      <trkpt lat="46.09058" lon="5.68092">
        <ele>1065.2</ele>
        <time>2026-05-10T12:57:25Z</time>
      </trkpt>
      <trkpt lat="46.09056" lon="5.68092">
        <ele>1065.2</ele>
        <time>2026-05-10T12:57:26Z</time>
      </trkpt>
      <trkpt lat="46.09054" lon="5.68092">
        <ele>1065.2</ele>
        <time>2026-05-10T12:57:27Z</time>
      </trkpt>
      <trkpt lat="46.09052" lon="5.68093">
        <ele>1065.2</ele>
        <time>2026-05-10T12:57:28Z</time>
      </trkpt>
      <trkpt lat="46.09049" lon="5.68094">
        <ele>1065.2</ele>
        <time>2026-05-10T12:57:29Z</time>
      </trkpt>
      <trkpt lat="46.09047" lon="5.68095">
        <ele>1065.4</ele>
        <time>2026-05-10T12:57:30Z</time>
      </trkpt>
      <trkpt lat="46.09045" lon="5.68096">
        <ele>1065.6</ele>
        <time>2026-05-10T12:57:31Z</time>
      </trkpt>
      <trkpt lat="46.09044" lon="5.68096">
        <ele>1066</ele>
        <time>2026-05-10T12:57:32Z</time>
      </trkpt>
      <trkpt lat="46.09042" lon="5.68095">
        <ele>1066</ele>
        <time>2026-05-10T12:57:33Z</time>
      </trkpt>
      <trkpt lat="46.09041" lon="5.68093">
        <ele>1066.2</ele>
        <time>2026-05-10T12:57:34Z</time>
      </trkpt>
      <trkpt lat="46.0904" lon="5.6809">
        <ele>1066.2</ele>
        <time>2026-05-10T12:57:35Z</time>
      </trkpt>
      <trkpt lat="46.0904" lon="5.68087">
        <ele>1065.6</ele>
        <time>2026-05-10T12:57:36Z</time>
      </trkpt>
      <trkpt lat="46.0904" lon="5.68083">
        <ele>1065.8</ele>
        <time>2026-05-10T12:57:37Z</time>
      </trkpt>
      <trkpt lat="46.09039" lon="5.6808">
        <ele>1065.8</ele>
        <time>2026-05-10T12:57:38Z</time>
      </trkpt>
      <trkpt lat="46.09039" lon="5.68076">
        <ele>1065.8</ele>
        <time>2026-05-10T12:57:39Z</time>
      </trkpt>
      <trkpt lat="46.09039" lon="5.68073">
        <ele>1066.2</ele>
        <time>2026-05-10T12:57:40Z</time>
      </trkpt>
      <trkpt lat="46.09038" lon="5.68071">
        <ele>1066.2</ele>
        <time>2026-05-10T12:57:41Z</time>
      </trkpt>
      <trkpt lat="46.09038" lon="5.68069">
        <ele>1066.2</ele>
        <time>2026-05-10T12:57:42Z</time>
      </trkpt>
      <trkpt lat="46.09039" lon="5.68066">
        <ele>1066.2</ele>
        <time>2026-05-10T12:57:43Z</time>
      </trkpt>
      <trkpt lat="46.09039" lon="5.68063">
        <ele>1066.2</ele>
        <time>2026-05-10T12:57:44Z</time>
      </trkpt>
      <trkpt lat="46.09039" lon="5.6806">
        <ele>1066.2</ele>
        <time>2026-05-10T12:57:45Z</time>
      </trkpt>
      <trkpt lat="46.0904" lon="5.68056">
        <ele>1066</ele>
        <time>2026-05-10T12:57:46Z</time>
      </trkpt>
      <trkpt lat="46.0904" lon="5.68051">
        <ele>1066.4</ele>
        <time>2026-05-10T12:57:47Z</time>
      </trkpt>
      <trkpt lat="46.09039" lon="5.68047">
        <ele>1066.2</ele>
        <time>2026-05-10T12:57:48Z</time>
      </trkpt>
      <trkpt lat="46.09038" lon="5.68043">
        <ele>1066.2</ele>
        <time>2026-05-10T12:57:49Z</time>
      </trkpt>
      <trkpt lat="46.09037" lon="5.68039">
        <ele>1066.2</ele>
        <time>2026-05-10T12:57:50Z</time>
      </trkpt>
      <trkpt lat="46.09035" lon="5.68036">
        <ele>1066.2</ele>
        <time>2026-05-10T12:57:51Z</time>
      </trkpt>
      <trkpt lat="46.09033" lon="5.68033">
        <ele>1066</ele>
        <time>2026-05-10T12:57:52Z</time>
      </trkpt>
      <trkpt lat="46.0903" lon="5.6803">
        <ele>1066</ele>
        <time>2026-05-10T12:57:53Z</time>
      </trkpt>
      <trkpt lat="46.09028" lon="5.68027">
        <ele>1066</ele>
        <time>2026-05-10T12:57:54Z</time>
      </trkpt>
      <trkpt lat="46.09025" lon="5.68024">
        <ele>1065.8</ele>
        <time>2026-05-10T12:57:55Z</time>
      </trkpt>
      <trkpt lat="46.09023" lon="5.68022">
        <ele>1066</ele>
        <time>2026-05-10T12:57:56Z</time>
      </trkpt>
      <trkpt lat="46.09021" lon="5.68019">
        <ele>1066.4</ele>
        <time>2026-05-10T12:57:57Z</time>
      </trkpt>
      <trkpt lat="46.09019" lon="5.68017">
        <ele>1066.4</ele>
        <time>2026-05-10T12:57:58Z</time>
      </trkpt>
      <trkpt lat="46.09017" lon="5.68015">
        <ele>1066.6</ele>
        <time>2026-05-10T12:57:59Z</time>
      </trkpt>
      <trkpt lat="46.09015" lon="5.68013">
        <ele>1066.6</ele>
        <time>2026-05-10T12:58:00Z</time>
      </trkpt>
      <trkpt lat="46.09013" lon="5.68011">
        <ele>1066.6</ele>
        <time>2026-05-10T12:58:01Z</time>
      </trkpt>
      <trkpt lat="46.09011" lon="5.68008">
        <ele>1066.8</ele>
        <time>2026-05-10T12:58:02Z</time>
      </trkpt>
      <trkpt lat="46.09009" lon="5.68005">
        <ele>1066.8</ele>
        <time>2026-05-10T12:58:03Z</time>
      </trkpt>
      <trkpt lat="46.09007" lon="5.68002">
        <ele>1066.8</ele>
        <time>2026-05-10T12:58:04Z</time>
      </trkpt>
      <trkpt lat="46.09004" lon="5.68">
        <ele>1067</ele>
        <time>2026-05-10T12:58:05Z</time>
      </trkpt>
      <trkpt lat="46.09001" lon="5.67999">
        <ele>1067</ele>
        <time>2026-05-10T12:58:06Z</time>
      </trkpt>
      <trkpt lat="46.08999" lon="5.67997">
        <ele>1067.4</ele>
        <time>2026-05-10T12:58:07Z</time>
      </trkpt>
      <trkpt lat="46.08996" lon="5.67996">
        <ele>1067.4</ele>
        <time>2026-05-10T12:58:08Z</time>
      </trkpt>
      <trkpt lat="46.08993" lon="5.67995">
        <ele>1067.6</ele>
        <time>2026-05-10T12:58:09Z</time>
      </trkpt>
      <trkpt lat="46.0899" lon="5.67995">
        <ele>1067.8</ele>
        <time>2026-05-10T12:58:10Z</time>
      </trkpt>
      <trkpt lat="46.08988" lon="5.67995">
        <ele>1067.8</ele>
        <time>2026-05-10T12:58:11Z</time>
      </trkpt>
      <trkpt lat="46.08985" lon="5.67995">
        <ele>1068.2</ele>
        <time>2026-05-10T12:58:12Z</time>
      </trkpt>
      <trkpt lat="46.08982" lon="5.67995">
        <ele>1068.2</ele>
        <time>2026-05-10T12:58:13Z</time>
      </trkpt>
      <trkpt lat="46.0898" lon="5.67995">
        <ele>1068.4</ele>
        <time>2026-05-10T12:58:14Z</time>
      </trkpt>
      <trkpt lat="46.08977" lon="5.67995">
        <ele>1068.4</ele>
        <time>2026-05-10T12:58:15Z</time>
      </trkpt>
      <trkpt lat="46.08974" lon="5.67995">
        <ele>1068.6</ele>
        <time>2026-05-10T12:58:16Z</time>
      </trkpt>
      <trkpt lat="46.0897" lon="5.67995">
        <ele>1069</ele>
        <time>2026-05-10T12:58:17Z</time>
      </trkpt>
      <trkpt lat="46.08967" lon="5.67995">
        <ele>1069</ele>
        <time>2026-05-10T12:58:18Z</time>
      </trkpt>
      <trkpt lat="46.08965" lon="5.67994">
        <ele>1069</ele>
        <time>2026-05-10T12:58:19Z</time>
      </trkpt>
      <trkpt lat="46.08963" lon="5.67994">
        <ele>1069</ele>
        <time>2026-05-10T12:58:20Z</time>
      </trkpt>
      <trkpt lat="46.08961" lon="5.67995">
        <ele>1069</ele>
        <time>2026-05-10T12:58:21Z</time>
      </trkpt>
      <trkpt lat="46.08959" lon="5.67995">
        <ele>1069</ele>
        <time>2026-05-10T12:58:22Z</time>
      </trkpt>
      <trkpt lat="46.08957" lon="5.67995">
        <ele>1069</ele>
        <time>2026-05-10T12:58:23Z</time>
      </trkpt>
      <trkpt lat="46.08956" lon="5.67995">
        <ele>1069.2</ele>
        <time>2026-05-10T12:58:24Z</time>
      </trkpt>
      <trkpt lat="46.08954" lon="5.67995">
        <ele>1069.2</ele>
        <time>2026-05-10T12:58:25Z</time>
      </trkpt>
      <trkpt lat="46.08952" lon="5.67995">
        <ele>1069.2</ele>
        <time>2026-05-10T12:58:26Z</time>
      </trkpt>
      <trkpt lat="46.0895" lon="5.67994">
        <ele>1069</ele>
        <time>2026-05-10T12:58:27Z</time>
      </trkpt>
      <trkpt lat="46.08949" lon="5.67994">
        <ele>1069</ele>
        <time>2026-05-10T12:58:28Z</time>
      </trkpt>
      <trkpt lat="46.08947" lon="5.67993">
        <ele>1069</ele>
        <time>2026-05-10T12:58:29Z</time>
      </trkpt>
      <trkpt lat="46.08945" lon="5.67993">
        <ele>1069</ele>
        <time>2026-05-10T12:58:30Z</time>
      </trkpt>
      <trkpt lat="46.08943" lon="5.67992">
        <ele>1069</ele>
        <time>2026-05-10T12:58:31Z</time>
      </trkpt>
      <trkpt lat="46.08941" lon="5.67991">
        <ele>1069</ele>
        <time>2026-05-10T12:58:32Z</time>
      </trkpt>
      <trkpt lat="46.08938" lon="5.67991">
        <ele>1069</ele>
        <time>2026-05-10T12:58:33Z</time>
      </trkpt>
      <trkpt lat="46.08936" lon="5.6799">
        <ele>1069</ele>
        <time>2026-05-10T12:58:34Z</time>
      </trkpt>
      <trkpt lat="46.08934" lon="5.67989">
        <ele>1069</ele>
        <time>2026-05-10T12:58:35Z</time>
      </trkpt>
      <trkpt lat="46.08932" lon="5.67989">
        <ele>1069</ele>
        <time>2026-05-10T12:58:36Z</time>
      </trkpt>
      <trkpt lat="46.08931" lon="5.67989">
        <ele>1069</ele>
        <time>2026-05-10T12:58:37Z</time>
      </trkpt>
      <trkpt lat="46.08928" lon="5.67989">
        <ele>1069.2</ele>
        <time>2026-05-10T12:58:38Z</time>
      </trkpt>
      <trkpt lat="46.08925" lon="5.67988">
        <ele>1069</ele>
        <time>2026-05-10T12:58:39Z</time>
      </trkpt>
      <trkpt lat="46.08922" lon="5.67987">
        <ele>1069</ele>
        <time>2026-05-10T12:58:40Z</time>
      </trkpt>
      <trkpt lat="46.0892" lon="5.67987">
        <ele>1069</ele>
        <time>2026-05-10T12:58:41Z</time>
      </trkpt>
      <trkpt lat="46.08917" lon="5.67986">
        <ele>1069</ele>
        <time>2026-05-10T12:58:42Z</time>
      </trkpt>
      <trkpt lat="46.08915" lon="5.67985">
        <ele>1069</ele>
        <time>2026-05-10T12:58:43Z</time>
      </trkpt>
      <trkpt lat="46.08912" lon="5.67984">
        <ele>1069</ele>
        <time>2026-05-10T12:58:44Z</time>
      </trkpt>
      <trkpt lat="46.08909" lon="5.67983">
        <ele>1069</ele>
        <time>2026-05-10T12:58:45Z</time>
      </trkpt>
      <trkpt lat="46.08907" lon="5.67982">
        <ele>1069</ele>
        <time>2026-05-10T12:58:46Z</time>
      </trkpt>
      <trkpt lat="46.08904" lon="5.67981">
        <ele>1069</ele>
        <time>2026-05-10T12:58:47Z</time>
      </trkpt>
      <trkpt lat="46.08901" lon="5.67981">
        <ele>1069</ele>
        <time>2026-05-10T12:58:48Z</time>
      </trkpt>
      <trkpt lat="46.08898" lon="5.6798">
        <ele>1068.8</ele>
        <time>2026-05-10T12:58:49Z</time>
      </trkpt>
      <trkpt lat="46.08895" lon="5.6798">
        <ele>1068.8</ele>
        <time>2026-05-10T12:58:50Z</time>
      </trkpt>
      <trkpt lat="46.08893" lon="5.67981">
        <ele>1068.8</ele>
        <time>2026-05-10T12:58:51Z</time>
      </trkpt>
      <trkpt lat="46.0889" lon="5.67981">
        <ele>1068.8</ele>
        <time>2026-05-10T12:58:52Z</time>
      </trkpt>
      <trkpt lat="46.08888" lon="5.67981">
        <ele>1068.8</ele>
        <time>2026-05-10T12:58:53Z</time>
      </trkpt>
      <trkpt lat="46.08886" lon="5.67981">
        <ele>1068.8</ele>
        <time>2026-05-10T12:58:54Z</time>
      </trkpt>
      <trkpt lat="46.08883" lon="5.67982">
        <ele>1068.8</ele>
        <time>2026-05-10T12:58:55Z</time>
      </trkpt>
      <trkpt lat="46.0888" lon="5.67983">
        <ele>1068.4</ele>
        <time>2026-05-10T12:58:56Z</time>
      </trkpt>
      <trkpt lat="46.08878" lon="5.67985">
        <ele>1068.4</ele>
        <time>2026-05-10T12:58:57Z</time>
      </trkpt>
      <trkpt lat="46.08875" lon="5.67986">
        <ele>1068.4</ele>
        <time>2026-05-10T12:58:58Z</time>
      </trkpt>
      <trkpt lat="46.08873" lon="5.67987">
        <ele>1068.4</ele>
        <time>2026-05-10T12:58:59Z</time>
      </trkpt>
      <trkpt lat="46.0887" lon="5.67988">
        <ele>1068.2</ele>
        <time>2026-05-10T12:59:00Z</time>
      </trkpt>
      <trkpt lat="46.08866" lon="5.6799">
        <ele>1068.2</ele>
        <time>2026-05-10T12:59:01Z</time>
      </trkpt>
      <trkpt lat="46.08863" lon="5.67992">
        <ele>1068.2</ele>
        <time>2026-05-10T12:59:02Z</time>
      </trkpt>
      <trkpt lat="46.08861" lon="5.67995">
        <ele>1068.2</ele>
        <time>2026-05-10T12:59:03Z</time>
      </trkpt>
      <trkpt lat="46.08858" lon="5.67999">
        <ele>1067.6</ele>
        <time>2026-05-10T12:59:04Z</time>
      </trkpt>
      <trkpt lat="46.08855" lon="5.68003">
        <ele>1067.6</ele>
        <time>2026-05-10T12:59:05Z</time>
      </trkpt>
      <trkpt lat="46.08853" lon="5.68008">
        <ele>1067.2</ele>
        <time>2026-05-10T12:59:06Z</time>
      </trkpt>
      <trkpt lat="46.08852" lon="5.68016">
        <ele>1066.8</ele>
        <time>2026-05-10T12:59:07Z</time>
      </trkpt>
      <trkpt lat="46.0885" lon="5.6802">
        <ele>1066.8</ele>
        <time>2026-05-10T12:59:08Z</time>
      </trkpt>
      <trkpt lat="46.08848" lon="5.68024">
        <ele>1066.8</ele>
        <time>2026-05-10T12:59:09Z</time>
      </trkpt>
      <trkpt lat="46.08847" lon="5.68029">
        <ele>1066.8</ele>
        <time>2026-05-10T12:59:10Z</time>
      </trkpt>
      <trkpt lat="46.08844" lon="5.68034">
        <ele>1067.2</ele>
        <time>2026-05-10T12:59:11Z</time>
      </trkpt>
      <trkpt lat="46.08842" lon="5.68037">
        <ele>1067.2</ele>
        <time>2026-05-10T12:59:12Z</time>
      </trkpt>
      <trkpt lat="46.0884" lon="5.68041">
        <ele>1067.2</ele>
        <time>2026-05-10T12:59:13Z</time>
      </trkpt>
      <trkpt lat="46.08839" lon="5.68046">
        <ele>1066.4</ele>
        <time>2026-05-10T12:59:14Z</time>
      </trkpt>
      <trkpt lat="46.08834" lon="5.68043">
        <ele>1066.4</ele>
        <time>2026-05-10T12:59:15Z</time>
      </trkpt>
      <trkpt lat="46.08831" lon="5.68045">
        <ele>1066.8</ele>
        <time>2026-05-10T12:59:16Z</time>
      </trkpt>
      <trkpt lat="46.08827" lon="5.68046">
        <ele>1066.8</ele>
        <time>2026-05-10T12:59:17Z</time>
      </trkpt>
      <trkpt lat="46.08824" lon="5.68049">
        <ele>1066.6</ele>
        <time>2026-05-10T12:59:18Z</time>
      </trkpt>
      <trkpt lat="46.08821" lon="5.6805">
        <ele>1066.6</ele>
        <time>2026-05-10T12:59:19Z</time>
      </trkpt>
      <trkpt lat="46.08818" lon="5.68051">
        <ele>1066.6</ele>
        <time>2026-05-10T12:59:20Z</time>
      </trkpt>
      <trkpt lat="46.08815" lon="5.68053">
        <ele>1066.6</ele>
        <time>2026-05-10T12:59:21Z</time>
      </trkpt>
      <trkpt lat="46.08813" lon="5.68054">
        <ele>1066.6</ele>
        <time>2026-05-10T12:59:22Z</time>
      </trkpt>
      <trkpt lat="46.08811" lon="5.68054">
        <ele>1066.2</ele>
        <time>2026-05-10T12:59:23Z</time>
      </trkpt>
      <trkpt lat="46.08806" lon="5.68056">
        <ele>1066.2</ele>
        <time>2026-05-10T12:59:24Z</time>
      </trkpt>
      <trkpt lat="46.08802" lon="5.68057">
        <ele>1066.2</ele>
        <time>2026-05-10T12:59:25Z</time>
      </trkpt>
      <trkpt lat="46.08799" lon="5.68058">
        <ele>1066</ele>
        <time>2026-05-10T12:59:26Z</time>
      </trkpt>
      <trkpt lat="46.08796" lon="5.68059">
        <ele>1066</ele>
        <time>2026-05-10T12:59:27Z</time>
      </trkpt>
      <trkpt lat="46.08794" lon="5.6806">
        <ele>1066</ele>
        <time>2026-05-10T12:59:28Z</time>
      </trkpt>
      <trkpt lat="46.08791" lon="5.68061">
        <ele>1066</ele>
        <time>2026-05-10T12:59:29Z</time>
      </trkpt>
      <trkpt lat="46.08787" lon="5.68061">
        <ele>1066</ele>
        <time>2026-05-10T12:59:30Z</time>
      </trkpt>
      <trkpt lat="46.08783" lon="5.68061">
        <ele>1066</ele>
        <time>2026-05-10T12:59:31Z</time>
      </trkpt>
      <trkpt lat="46.0878" lon="5.68062">
        <ele>1066</ele>
        <time>2026-05-10T12:59:32Z</time>
      </trkpt>
      <trkpt lat="46.08776" lon="5.68062">
        <ele>1065.6</ele>
        <time>2026-05-10T12:59:33Z</time>
      </trkpt>
      <trkpt lat="46.08773" lon="5.68064">
        <ele>1065.4</ele>
        <time>2026-05-10T12:59:34Z</time>
      </trkpt>
      <trkpt lat="46.0877" lon="5.68065">
        <ele>1065.4</ele>
        <time>2026-05-10T12:59:35Z</time>
      </trkpt>
      <trkpt lat="46.08768" lon="5.68067">
        <ele>1065</ele>
        <time>2026-05-10T12:59:36Z</time>
      </trkpt>
      <trkpt lat="46.08765" lon="5.68069">
        <ele>1065</ele>
        <time>2026-05-10T12:59:37Z</time>
      </trkpt>
      <trkpt lat="46.08762" lon="5.68071">
        <ele>1064.8</ele>
        <time>2026-05-10T12:59:38Z</time>
      </trkpt>
      <trkpt lat="46.0876" lon="5.68076">
        <ele>1064.6</ele>
        <time>2026-05-10T12:59:39Z</time>
      </trkpt>
      <trkpt lat="46.08757" lon="5.68076">
        <ele>1064.6</ele>
        <time>2026-05-10T12:59:40Z</time>
      </trkpt>
      <trkpt lat="46.08752" lon="5.68077">
        <ele>1064.6</ele>
        <time>2026-05-10T12:59:41Z</time>
      </trkpt>
      <trkpt lat="46.08749" lon="5.68077">
        <ele>1064</ele>
        <time>2026-05-10T12:59:42Z</time>
      </trkpt>
      <trkpt lat="46.08745" lon="5.68079">
        <ele>1063.6</ele>
        <time>2026-05-10T12:59:43Z</time>
      </trkpt>
      <trkpt lat="46.08742" lon="5.6808">
        <ele>1063.4</ele>
        <time>2026-05-10T12:59:44Z</time>
      </trkpt>
      <trkpt lat="46.08737" lon="5.6808">
        <ele>1063.4</ele>
        <time>2026-05-10T12:59:45Z</time>
      </trkpt>
      <trkpt lat="46.08734" lon="5.68083">
        <ele>1063.8</ele>
        <time>2026-05-10T12:59:46Z</time>
      </trkpt>
      <trkpt lat="46.08731" lon="5.68084">
        <ele>1063.2</ele>
        <time>2026-05-10T12:59:47Z</time>
      </trkpt>
      <trkpt lat="46.08728" lon="5.68085">
        <ele>1063.2</ele>
        <time>2026-05-10T12:59:48Z</time>
      </trkpt>
      <trkpt lat="46.08725" lon="5.68086">
        <ele>1063.2</ele>
        <time>2026-05-10T12:59:49Z</time>
      </trkpt>
      <trkpt lat="46.08725" lon="5.68086">
        <ele>1062</ele>
        <time>2026-05-10T12:59:50Z</time>
      </trkpt>
      <trkpt lat="46.08722" lon="5.68087">
        <ele>1062.4</ele>
        <time>2026-05-10T12:59:51Z</time>
      </trkpt>
      <trkpt lat="46.0872" lon="5.6809">
        <ele>1062.4</ele>
        <time>2026-05-10T12:59:52Z</time>
      </trkpt>
      <trkpt lat="46.08718" lon="5.6809">
        <ele>1062.6</ele>
        <time>2026-05-10T12:59:53Z</time>
      </trkpt>
      <trkpt lat="46.08716" lon="5.6809">
        <ele>1062.8</ele>
        <time>2026-05-10T12:59:54Z</time>
      </trkpt>
      <trkpt lat="46.08714" lon="5.68089">
        <ele>1062.8</ele>
        <time>2026-05-10T12:59:55Z</time>
      </trkpt>
      <trkpt lat="46.08713" lon="5.68089">
        <ele>1062.8</ele>
        <time>2026-05-10T12:59:56Z</time>
      </trkpt>
      <trkpt lat="46.08711" lon="5.6809">
        <ele>1063.2</ele>
        <time>2026-05-10T12:59:57Z</time>
      </trkpt>
      <trkpt lat="46.08709" lon="5.68092">
        <ele>1063.2</ele>
        <time>2026-05-10T12:59:58Z</time>
      </trkpt>
      <trkpt lat="46.08708" lon="5.68094">
        <ele>1063.2</ele>
        <time>2026-05-10T12:59:59Z</time>
      </trkpt>
      <trkpt lat="46.08707" lon="5.68096">
        <ele>1063.2</ele>
        <time>2026-05-10T13:00:00Z</time>
      </trkpt>
      <trkpt lat="46.08706" lon="5.68098">
        <ele>1062.8</ele>
        <time>2026-05-10T13:00:01Z</time>
      </trkpt>
      <trkpt lat="46.08704" lon="5.68101">
        <ele>1062.8</ele>
        <time>2026-05-10T13:00:02Z</time>
      </trkpt>
      <trkpt lat="46.08702" lon="5.68104">
        <ele>1062.8</ele>
        <time>2026-05-10T13:00:03Z</time>
      </trkpt>
      <trkpt lat="46.08699" lon="5.68107">
        <ele>1062.4</ele>
        <time>2026-05-10T13:00:04Z</time>
      </trkpt>
      <trkpt lat="46.08697" lon="5.6811">
        <ele>1062.2</ele>
        <time>2026-05-10T13:00:05Z</time>
      </trkpt>
      <trkpt lat="46.08693" lon="5.68113">
        <ele>1061.6</ele>
        <time>2026-05-10T13:00:06Z</time>
      </trkpt>
      <trkpt lat="46.0869" lon="5.68115">
        <ele>1061.2</ele>
        <time>2026-05-10T13:00:07Z</time>
      </trkpt>
      <trkpt lat="46.08686" lon="5.68116">
        <ele>1061</ele>
        <time>2026-05-10T13:00:08Z</time>
      </trkpt>
      <trkpt lat="46.08683" lon="5.68117">
        <ele>1060.8</ele>
        <time>2026-05-10T13:00:09Z</time>
      </trkpt>
      <trkpt lat="46.0868" lon="5.68118">
        <ele>1060.4</ele>
        <time>2026-05-10T13:00:10Z</time>
      </trkpt>
      <trkpt lat="46.08677" lon="5.68119">
        <ele>1060.4</ele>
        <time>2026-05-10T13:00:11Z</time>
      </trkpt>
      <trkpt lat="46.08674" lon="5.6812">
        <ele>1060.2</ele>
        <time>2026-05-10T13:00:12Z</time>
      </trkpt>
      <trkpt lat="46.08671" lon="5.6812">
        <ele>1060</ele>
        <time>2026-05-10T13:00:13Z</time>
      </trkpt>
      <trkpt lat="46.08667" lon="5.68121">
        <ele>1060</ele>
        <time>2026-05-10T13:00:14Z</time>
      </trkpt>
      <trkpt lat="46.08664" lon="5.6812">
        <ele>1059.6</ele>
        <time>2026-05-10T13:00:15Z</time>
      </trkpt>
      <trkpt lat="46.0866" lon="5.68119">
        <ele>1059.6</ele>
        <time>2026-05-10T13:00:16Z</time>
      </trkpt>
      <trkpt lat="46.08656" lon="5.68119">
        <ele>1059.6</ele>
        <time>2026-05-10T13:00:17Z</time>
      </trkpt>
      <trkpt lat="46.08652" lon="5.68118">
        <ele>1059.6</ele>
        <time>2026-05-10T13:00:18Z</time>
      </trkpt>
      <trkpt lat="46.08648" lon="5.68119">
        <ele>1059.6</ele>
        <time>2026-05-10T13:00:19Z</time>
      </trkpt>
      <trkpt lat="46.08642" lon="5.68117">
        <ele>1059.2</ele>
        <time>2026-05-10T13:00:20Z</time>
      </trkpt>
      <trkpt lat="46.08638" lon="5.68116">
        <ele>1059.2</ele>
        <time>2026-05-10T13:00:21Z</time>
      </trkpt>
      <trkpt lat="46.08633" lon="5.68115">
        <ele>1058.8</ele>
        <time>2026-05-10T13:00:22Z</time>
      </trkpt>
      <trkpt lat="46.08628" lon="5.68114">
        <ele>1058.8</ele>
        <time>2026-05-10T13:00:23Z</time>
      </trkpt>
      <trkpt lat="46.08623" lon="5.68112">
        <ele>1058.4</ele>
        <time>2026-05-10T13:00:24Z</time>
      </trkpt>
      <trkpt lat="46.08618" lon="5.68111">
        <ele>1058</ele>
        <time>2026-05-10T13:00:25Z</time>
      </trkpt>
      <trkpt lat="46.08613" lon="5.6811">
        <ele>1057.2</ele>
        <time>2026-05-10T13:00:26Z</time>
      </trkpt>
      <trkpt lat="46.08609" lon="5.68109">
        <ele>1057.2</ele>
        <time>2026-05-10T13:00:27Z</time>
      </trkpt>
      <trkpt lat="46.08604" lon="5.68108">
        <ele>1057.2</ele>
        <time>2026-05-10T13:00:28Z</time>
      </trkpt>
      <trkpt lat="46.086" lon="5.68107">
        <ele>1057.2</ele>
        <time>2026-05-10T13:00:29Z</time>
      </trkpt>
      <trkpt lat="46.08596" lon="5.68106">
        <ele>1057.2</ele>
        <time>2026-05-10T13:00:30Z</time>
      </trkpt>
      <trkpt lat="46.08591" lon="5.68105">
        <ele>1057.4</ele>
        <time>2026-05-10T13:00:31Z</time>
      </trkpt>
      <trkpt lat="46.08587" lon="5.68103">
        <ele>1057</ele>
        <time>2026-05-10T13:00:32Z</time>
      </trkpt>
      <trkpt lat="46.08583" lon="5.68102">
        <ele>1057</ele>
        <time>2026-05-10T13:00:33Z</time>
      </trkpt>
      <trkpt lat="46.08578" lon="5.681">
        <ele>1057</ele>
        <time>2026-05-10T13:00:34Z</time>
      </trkpt>
      <trkpt lat="46.08575" lon="5.68097">
        <ele>1057</ele>
        <time>2026-05-10T13:00:35Z</time>
      </trkpt>
      <trkpt lat="46.08571" lon="5.68094">
        <ele>1056.6</ele>
        <time>2026-05-10T13:00:36Z</time>
      </trkpt>
      <trkpt lat="46.08567" lon="5.6809">
        <ele>1057</ele>
        <time>2026-05-10T13:00:37Z</time>
      </trkpt>
      <trkpt lat="46.08564" lon="5.68087">
        <ele>1056.6</ele>
        <time>2026-05-10T13:00:38Z</time>
      </trkpt>
      <trkpt lat="46.08562" lon="5.68085">
        <ele>1056.8</ele>
        <time>2026-05-10T13:00:39Z</time>
      </trkpt>
      <trkpt lat="46.0856" lon="5.68082">
        <ele>1056.8</ele>
        <time>2026-05-10T13:00:40Z</time>
      </trkpt>
      <trkpt lat="46.08558" lon="5.6808">
        <ele>1056.8</ele>
        <time>2026-05-10T13:00:41Z</time>
      </trkpt>
      <trkpt lat="46.08555" lon="5.68079">
        <ele>1056.8</ele>
        <time>2026-05-10T13:00:42Z</time>
      </trkpt>
      <trkpt lat="46.08552" lon="5.68078">
        <ele>1056.8</ele>
        <time>2026-05-10T13:00:43Z</time>
      </trkpt>
      <trkpt lat="46.08549" lon="5.68077">
        <ele>1057.2</ele>
        <time>2026-05-10T13:00:44Z</time>
      </trkpt>
      <trkpt lat="46.08547" lon="5.68076">
        <ele>1055.6</ele>
        <time>2026-05-10T13:00:45Z</time>
      </trkpt>
      <trkpt lat="46.08544" lon="5.68073">
        <ele>1056.2</ele>
        <time>2026-05-10T13:00:46Z</time>
      </trkpt>
      <trkpt lat="46.08542" lon="5.68071">
        <ele>1056.8</ele>
        <time>2026-05-10T13:00:47Z</time>
      </trkpt>
      <trkpt lat="46.08539" lon="5.68069">
        <ele>1056.8</ele>
        <time>2026-05-10T13:00:48Z</time>
      </trkpt>
      <trkpt lat="46.08538" lon="5.68068">
        <ele>1057</ele>
        <time>2026-05-10T13:00:49Z</time>
      </trkpt>
      <trkpt lat="46.08536" lon="5.68067">
        <ele>1057.4</ele>
        <time>2026-05-10T13:00:50Z</time>
      </trkpt>
      <trkpt lat="46.08534" lon="5.68065">
        <ele>1057.4</ele>
        <time>2026-05-10T13:00:51Z</time>
      </trkpt>
      <trkpt lat="46.08531" lon="5.68063">
        <ele>1057.4</ele>
        <time>2026-05-10T13:00:52Z</time>
      </trkpt>
      <trkpt lat="46.08529" lon="5.68061">
        <ele>1057.4</ele>
        <time>2026-05-10T13:00:53Z</time>
      </trkpt>
      <trkpt lat="46.08526" lon="5.6806">
        <ele>1057.4</ele>
        <time>2026-05-10T13:00:54Z</time>
      </trkpt>
      <trkpt lat="46.08524" lon="5.68059">
        <ele>1057.8</ele>
        <time>2026-05-10T13:00:55Z</time>
      </trkpt>
      <trkpt lat="46.08521" lon="5.68058">
        <ele>1057.8</ele>
        <time>2026-05-10T13:00:56Z</time>
      </trkpt>
      <trkpt lat="46.08519" lon="5.68057">
        <ele>1057.8</ele>
        <time>2026-05-10T13:00:57Z</time>
      </trkpt>
      <trkpt lat="46.08516" lon="5.68056">
        <ele>1058.2</ele>
        <time>2026-05-10T13:00:58Z</time>
      </trkpt>
      <trkpt lat="46.08514" lon="5.68056">
        <ele>1058.2</ele>
        <time>2026-05-10T13:00:59Z</time>
      </trkpt>
      <trkpt lat="46.08512" lon="5.68056">
        <ele>1058.2</ele>
        <time>2026-05-10T13:01:00Z</time>
      </trkpt>
      <trkpt lat="46.0851" lon="5.68055">
        <ele>1058.2</ele>
        <time>2026-05-10T13:01:01Z</time>
      </trkpt>
      <trkpt lat="46.08508" lon="5.68055">
        <ele>1057.4</ele>
        <time>2026-05-10T13:01:02Z</time>
      </trkpt>
      <trkpt lat="46.08505" lon="5.68054">
        <ele>1057.4</ele>
        <time>2026-05-10T13:01:03Z</time>
      </trkpt>
      <trkpt lat="46.08503" lon="5.68053">
        <ele>1057.4</ele>
        <time>2026-05-10T13:01:04Z</time>
      </trkpt>
      <trkpt lat="46.085" lon="5.68053">
        <ele>1057.6</ele>
        <time>2026-05-10T13:01:05Z</time>
      </trkpt>
      <trkpt lat="46.08497" lon="5.68053">
        <ele>1057.6</ele>
        <time>2026-05-10T13:01:06Z</time>
      </trkpt>
      <trkpt lat="46.08494" lon="5.68053">
        <ele>1057.6</ele>
        <time>2026-05-10T13:01:07Z</time>
      </trkpt>
      <trkpt lat="46.08491" lon="5.68053">
        <ele>1057.6</ele>
        <time>2026-05-10T13:01:08Z</time>
      </trkpt>
      <trkpt lat="46.08488" lon="5.68052">
        <ele>1057.6</ele>
        <time>2026-05-10T13:01:09Z</time>
      </trkpt>
      <trkpt lat="46.08485" lon="5.68052">
        <ele>1057.6</ele>
        <time>2026-05-10T13:01:10Z</time>
      </trkpt>
      <trkpt lat="46.08483" lon="5.68051">
        <ele>1058</ele>
        <time>2026-05-10T13:01:11Z</time>
      </trkpt>
      <trkpt lat="46.0848" lon="5.6805">
        <ele>1058.2</ele>
        <time>2026-05-10T13:01:12Z</time>
      </trkpt>
      <trkpt lat="46.08477" lon="5.6805">
        <ele>1058.2</ele>
        <time>2026-05-10T13:01:13Z</time>
      </trkpt>
      <trkpt lat="46.08475" lon="5.68049">
        <ele>1058.2</ele>
        <time>2026-05-10T13:01:14Z</time>
      </trkpt>
      <trkpt lat="46.08472" lon="5.68049">
        <ele>1058.2</ele>
        <time>2026-05-10T13:01:15Z</time>
      </trkpt>
      <trkpt lat="46.0847" lon="5.68048">
        <ele>1058.2</ele>
        <time>2026-05-10T13:01:16Z</time>
      </trkpt>
      <trkpt lat="46.08467" lon="5.68047">
        <ele>1057.8</ele>
        <time>2026-05-10T13:01:17Z</time>
      </trkpt>
      <trkpt lat="46.08465" lon="5.68046">
        <ele>1057.8</ele>
        <time>2026-05-10T13:01:18Z</time>
      </trkpt>
      <trkpt lat="46.08463" lon="5.68046">
        <ele>1057.8</ele>
        <time>2026-05-10T13:01:19Z</time>
      </trkpt>
      <trkpt lat="46.08461" lon="5.68045">
        <ele>1057.8</ele>
        <time>2026-05-10T13:01:20Z</time>
      </trkpt>
      <trkpt lat="46.08459" lon="5.68044">
        <ele>1058</ele>
        <time>2026-05-10T13:01:21Z</time>
      </trkpt>
      <trkpt lat="46.08457" lon="5.68044">
        <ele>1058</ele>
        <time>2026-05-10T13:01:22Z</time>
      </trkpt>
      <trkpt lat="46.08456" lon="5.68043">
        <ele>1058</ele>
        <time>2026-05-10T13:01:23Z</time>
      </trkpt>
      <trkpt lat="46.08453" lon="5.68042">
        <ele>1057.8</ele>
        <time>2026-05-10T13:01:24Z</time>
      </trkpt>
      <trkpt lat="46.08451" lon="5.68041">
        <ele>1057.8</ele>
        <time>2026-05-10T13:01:25Z</time>
      </trkpt>
      <trkpt lat="46.08449" lon="5.68041">
        <ele>1057.8</ele>
        <time>2026-05-10T13:01:26Z</time>
      </trkpt>
      <trkpt lat="46.08447" lon="5.6804">
        <ele>1057.8</ele>
        <time>2026-05-10T13:01:27Z</time>
      </trkpt>
      <trkpt lat="46.08445" lon="5.6804">
        <ele>1057.4</ele>
        <time>2026-05-10T13:01:28Z</time>
      </trkpt>
      <trkpt lat="46.08442" lon="5.68039">
        <ele>1057.2</ele>
        <time>2026-05-10T13:01:29Z</time>
      </trkpt>
      <trkpt lat="46.0844" lon="5.68038">
        <ele>1057.2</ele>
        <time>2026-05-10T13:01:30Z</time>
      </trkpt>
      <trkpt lat="46.08437" lon="5.68037">
        <ele>1057.2</ele>
        <time>2026-05-10T13:01:31Z</time>
      </trkpt>
      <trkpt lat="46.08435" lon="5.68036">
        <ele>1057.4</ele>
        <time>2026-05-10T13:01:32Z</time>
      </trkpt>
      <trkpt lat="46.08433" lon="5.68036">
        <ele>1057.4</ele>
        <time>2026-05-10T13:01:33Z</time>
      </trkpt>
      <trkpt lat="46.08431" lon="5.68036">
        <ele>1057.4</ele>
        <time>2026-05-10T13:01:34Z</time>
      </trkpt>
      <trkpt lat="46.0843" lon="5.68035">
        <ele>1057.4</ele>
        <time>2026-05-10T13:01:35Z</time>
      </trkpt>
      <trkpt lat="46.08429" lon="5.68035">
        <ele>1057.4</ele>
        <time>2026-05-10T13:01:36Z</time>
      </trkpt>
      <trkpt lat="46.08429" lon="5.68036">
        <ele>1057.4</ele>
        <time>2026-05-10T13:01:37Z</time>
      </trkpt>
      <trkpt lat="46.08429" lon="5.68035">
        <ele>1057.4</ele>
        <time>2026-05-10T13:01:38Z</time>
      </trkpt>
      <trkpt lat="46.08428" lon="5.68034">
        <ele>1057.4</ele>
        <time>2026-05-10T13:01:39Z</time>
      </trkpt>
      <trkpt lat="46.08428" lon="5.68032">
        <ele>1057.4</ele>
        <time>2026-05-10T13:01:40Z</time>
      </trkpt>
      <trkpt lat="46.08427" lon="5.68031">
        <ele>1057.4</ele>
        <time>2026-05-10T13:01:41Z</time>
      </trkpt>
      <trkpt lat="46.08428" lon="5.68031">
        <ele>1057.6</ele>
        <time>2026-05-10T13:01:42Z</time>
      </trkpt>
      <trkpt lat="46.08427" lon="5.68028">
        <ele>1058</ele>
        <time>2026-05-10T13:02:00Z</time>
      </trkpt>
      <trkpt lat="46.08427" lon="5.68027">
        <ele>1058</ele>
        <time>2026-05-10T13:02:01Z</time>
      </trkpt>
      <trkpt lat="46.08426" lon="5.68027">
        <ele>1058</ele>
        <time>2026-05-10T13:02:02Z</time>
      </trkpt>
      <trkpt lat="46.08426" lon="5.68027">
        <ele>1058</ele>
        <time>2026-05-10T13:02:03Z</time>
      </trkpt>
      <trkpt lat="46.08424" lon="5.68028">
        <ele>1058</ele>
        <time>2026-05-10T13:02:07Z</time>
      </trkpt>
      <trkpt lat="46.08422" lon="5.68027">
        <ele>1058</ele>
        <time>2026-05-10T13:02:08Z</time>
      </trkpt>
      <trkpt lat="46.08421" lon="5.68026">
        <ele>1058</ele>
        <time>2026-05-10T13:02:09Z</time>
      </trkpt>
      <trkpt lat="46.08419" lon="5.68024">
        <ele>1057.6</ele>
        <time>2026-05-10T13:02:10Z</time>
      </trkpt>
      <trkpt lat="46.08417" lon="5.68023">
        <ele>1057.6</ele>
        <time>2026-05-10T13:02:11Z</time>
      </trkpt>
      <trkpt lat="46.08415" lon="5.68021">
        <ele>1057.6</ele>
        <time>2026-05-10T13:02:12Z</time>
      </trkpt>
      <trkpt lat="46.08413" lon="5.6802">
        <ele>1057.6</ele>
        <time>2026-05-10T13:02:13Z</time>
      </trkpt>
      <trkpt lat="46.08411" lon="5.68019">
        <ele>1057.6</ele>
        <time>2026-05-10T13:02:14Z</time>
      </trkpt>
      <trkpt lat="46.08409" lon="5.68018">
        <ele>1057.4</ele>
        <time>2026-05-10T13:02:15Z</time>
      </trkpt>
      <trkpt lat="46.08407" lon="5.68017">
        <ele>1057.4</ele>
        <time>2026-05-10T13:02:16Z</time>
      </trkpt>
      <trkpt lat="46.08404" lon="5.68016">
        <ele>1057.2</ele>
        <time>2026-05-10T13:02:17Z</time>
      </trkpt>
      <trkpt lat="46.08402" lon="5.68015">
        <ele>1057.2</ele>
        <time>2026-05-10T13:02:18Z</time>
      </trkpt>
      <trkpt lat="46.08399" lon="5.68015">
        <ele>1057.2</ele>
        <time>2026-05-10T13:02:19Z</time>
      </trkpt>
      <trkpt lat="46.08396" lon="5.68014">
        <ele>1057.2</ele>
        <time>2026-05-10T13:02:20Z</time>
      </trkpt>
      <trkpt lat="46.08394" lon="5.68013">
        <ele>1057</ele>
        <time>2026-05-10T13:02:21Z</time>
      </trkpt>
      <trkpt lat="46.08391" lon="5.68012">
        <ele>1056.6</ele>
        <time>2026-05-10T13:02:22Z</time>
      </trkpt>
      <trkpt lat="46.08388" lon="5.68011">
        <ele>1056.6</ele>
        <time>2026-05-10T13:02:23Z</time>
      </trkpt>
      <trkpt lat="46.08386" lon="5.6801">
        <ele>1056.6</ele>
        <time>2026-05-10T13:02:24Z</time>
      </trkpt>
      <trkpt lat="46.08382" lon="5.68009">
        <ele>1056.6</ele>
        <time>2026-05-10T13:02:25Z</time>
      </trkpt>
      <trkpt lat="46.0838" lon="5.68008">
        <ele>1056.2</ele>
        <time>2026-05-10T13:02:26Z</time>
      </trkpt>
      <trkpt lat="46.08377" lon="5.68007">
        <ele>1056.6</ele>
        <time>2026-05-10T13:02:27Z</time>
      </trkpt>
      <trkpt lat="46.08375" lon="5.68006">
        <ele>1056.6</ele>
        <time>2026-05-10T13:02:28Z</time>
      </trkpt>
      <trkpt lat="46.08372" lon="5.68004">
        <ele>1056.6</ele>
        <time>2026-05-10T13:02:29Z</time>
      </trkpt>
      <trkpt lat="46.0837" lon="5.68003">
        <ele>1056.6</ele>
        <time>2026-05-10T13:02:30Z</time>
      </trkpt>
      <trkpt lat="46.08368" lon="5.68002">
        <ele>1056.8</ele>
        <time>2026-05-10T13:02:31Z</time>
      </trkpt>
      <trkpt lat="46.08366" lon="5.68002">
        <ele>1056.8</ele>
        <time>2026-05-10T13:02:32Z</time>
      </trkpt>
      <trkpt lat="46.08364" lon="5.68003">
        <ele>1056.8</ele>
        <time>2026-05-10T13:02:33Z</time>
      </trkpt>
      <trkpt lat="46.08363" lon="5.68005">
        <ele>1056.8</ele>
        <time>2026-05-10T13:02:34Z</time>
      </trkpt>
      <trkpt lat="46.08362" lon="5.68009">
        <ele>1056.4</ele>
        <time>2026-05-10T13:02:35Z</time>
      </trkpt>
      <trkpt lat="46.08362" lon="5.68014">
        <ele>1056.4</ele>
        <time>2026-05-10T13:02:36Z</time>
      </trkpt>
      <trkpt lat="46.08363" lon="5.68019">
        <ele>1056.4</ele>
        <time>2026-05-10T13:02:37Z</time>
      </trkpt>
      <trkpt lat="46.08364" lon="5.68024">
        <ele>1056.4</ele>
        <time>2026-05-10T13:02:38Z</time>
      </trkpt>
      <trkpt lat="46.08365" lon="5.68028">
        <ele>1056.4</ele>
        <time>2026-05-10T13:02:39Z</time>
      </trkpt>
      <trkpt lat="46.08366" lon="5.68034">
        <ele>1056.4</ele>
        <time>2026-05-10T13:02:40Z</time>
      </trkpt>
      <trkpt lat="46.08366" lon="5.68039">
        <ele>1056.2</ele>
        <time>2026-05-10T13:02:41Z</time>
      </trkpt>
      <trkpt lat="46.08366" lon="5.68044">
        <ele>1055.8</ele>
        <time>2026-05-10T13:02:42Z</time>
      </trkpt>
      <trkpt lat="46.08367" lon="5.68049">
        <ele>1055.8</ele>
        <time>2026-05-10T13:02:43Z</time>
      </trkpt>
      <trkpt lat="46.08367" lon="5.68049">
        <ele>1055.6</ele>
        <time>2026-05-10T13:02:44Z</time>
      </trkpt>
      <trkpt lat="46.08367" lon="5.68049">
        <ele>1055.6</ele>
        <time>2026-05-10T13:02:45Z</time>
      </trkpt>
      <trkpt lat="46.08368" lon="5.68071">
        <ele>1055.6</ele>
        <time>2026-05-10T13:02:47Z</time>
      </trkpt>
      <trkpt lat="46.08369" lon="5.68076">
        <ele>1055.4</ele>
        <time>2026-05-10T13:02:48Z</time>
      </trkpt>
      <trkpt lat="46.08369" lon="5.68081">
        <ele>1055.4</ele>
        <time>2026-05-10T13:02:49Z</time>
      </trkpt>
      <trkpt lat="46.08369" lon="5.68087">
        <ele>1055.6</ele>
        <time>2026-05-10T13:02:50Z</time>
      </trkpt>
      <trkpt lat="46.08369" lon="5.68092">
        <ele>1056</ele>
        <time>2026-05-10T13:02:51Z</time>
      </trkpt>
      <trkpt lat="46.08369" lon="5.68098">
        <ele>1056.2</ele>
        <time>2026-05-10T13:02:52Z</time>
      </trkpt>
      <trkpt lat="46.0837" lon="5.68103">
        <ele>1056.2</ele>
        <time>2026-05-10T13:02:53Z</time>
      </trkpt>
      <trkpt lat="46.0837" lon="5.68108">
        <ele>1056.2</ele>
        <time>2026-05-10T13:02:54Z</time>
      </trkpt>
      <trkpt lat="46.08371" lon="5.68114">
        <ele>1056.2</ele>
        <time>2026-05-10T13:02:55Z</time>
      </trkpt>
      <trkpt lat="46.08372" lon="5.68119">
        <ele>1056.2</ele>
        <time>2026-05-10T13:02:56Z</time>
      </trkpt>
      <trkpt lat="46.08372" lon="5.68123">
        <ele>1056.2</ele>
        <time>2026-05-10T13:02:57Z</time>
      </trkpt>
      <trkpt lat="46.08372" lon="5.68127">
        <ele>1056.2</ele>
        <time>2026-05-10T13:02:58Z</time>
      </trkpt>
      <trkpt lat="46.08372" lon="5.68131">
        <ele>1056.2</ele>
        <time>2026-05-10T13:02:59Z</time>
      </trkpt>
      <trkpt lat="46.08372" lon="5.68135">
        <ele>1056.2</ele>
        <time>2026-05-10T13:03:00Z</time>
      </trkpt>
      <trkpt lat="46.08373" lon="5.68139">
        <ele>1056.6</ele>
        <time>2026-05-10T13:03:01Z</time>
      </trkpt>
      <trkpt lat="46.08373" lon="5.68143">
        <ele>1056.6</ele>
        <time>2026-05-10T13:03:02Z</time>
      </trkpt>
      <trkpt lat="46.08373" lon="5.68148">
        <ele>1057</ele>
        <time>2026-05-10T13:03:03Z</time>
      </trkpt>
      <trkpt lat="46.08374" lon="5.68152">
        <ele>1057</ele>
        <time>2026-05-10T13:03:04Z</time>
      </trkpt>
      <trkpt lat="46.08374" lon="5.68157">
        <ele>1057.4</ele>
        <time>2026-05-10T13:03:05Z</time>
      </trkpt>
      <trkpt lat="46.08375" lon="5.68162">
        <ele>1057.4</ele>
        <time>2026-05-10T13:03:06Z</time>
      </trkpt>
      <trkpt lat="46.08375" lon="5.68166">
        <ele>1057.6</ele>
        <time>2026-05-10T13:03:07Z</time>
      </trkpt>
      <trkpt lat="46.08375" lon="5.68171">
        <ele>1057.6</ele>
        <time>2026-05-10T13:03:08Z</time>
      </trkpt>
      <trkpt lat="46.08376" lon="5.68175">
        <ele>1057.4</ele>
        <time>2026-05-10T13:03:09Z</time>
      </trkpt>
      <trkpt lat="46.08376" lon="5.6818">
        <ele>1057.4</ele>
        <time>2026-05-10T13:03:10Z</time>
      </trkpt>
      <trkpt lat="46.08377" lon="5.68184">
        <ele>1057.4</ele>
        <time>2026-05-10T13:03:11Z</time>
      </trkpt>
      <trkpt lat="46.08377" lon="5.68188">
        <ele>1057.4</ele>
        <time>2026-05-10T13:03:12Z</time>
      </trkpt>
      <trkpt lat="46.08377" lon="5.68193">
        <ele>1057.8</ele>
        <time>2026-05-10T13:03:13Z</time>
      </trkpt>
      <trkpt lat="46.08377" lon="5.68197">
        <ele>1057.8</ele>
        <time>2026-05-10T13:03:14Z</time>
      </trkpt>
      <trkpt lat="46.08377" lon="5.68201">
        <ele>1058.4</ele>
        <time>2026-05-10T13:03:15Z</time>
      </trkpt>
      <trkpt lat="46.08378" lon="5.68209">
        <ele>1058.4</ele>
        <time>2026-05-10T13:03:16Z</time>
      </trkpt>
      <trkpt lat="46.08378" lon="5.68213">
        <ele>1058.4</ele>
        <time>2026-05-10T13:03:17Z</time>
      </trkpt>
      <trkpt lat="46.08378" lon="5.68217">
        <ele>1058.4</ele>
        <time>2026-05-10T13:03:18Z</time>
      </trkpt>
      <trkpt lat="46.08379" lon="5.68221">
        <ele>1058.4</ele>
        <time>2026-05-10T13:03:19Z</time>
      </trkpt>
      <trkpt lat="46.08379" lon="5.68225">
        <ele>1058.6</ele>
        <time>2026-05-10T13:03:20Z</time>
      </trkpt>
      <trkpt lat="46.08379" lon="5.68229">
        <ele>1058.6</ele>
        <time>2026-05-10T13:03:21Z</time>
      </trkpt>
      <trkpt lat="46.08379" lon="5.68233">
        <ele>1058.6</ele>
        <time>2026-05-10T13:03:22Z</time>
      </trkpt>
      <trkpt lat="46.08379" lon="5.68238">
        <ele>1059.2</ele>
        <time>2026-05-10T13:03:23Z</time>
      </trkpt>
      <trkpt lat="46.08379" lon="5.68242">
        <ele>1059.2</ele>
        <time>2026-05-10T13:03:24Z</time>
      </trkpt>
      <trkpt lat="46.08379" lon="5.68246">
        <ele>1059.2</ele>
        <time>2026-05-10T13:03:25Z</time>
      </trkpt>
      <trkpt lat="46.08378" lon="5.68251">
        <ele>1059.4</ele>
        <time>2026-05-10T13:03:26Z</time>
      </trkpt>
      <trkpt lat="46.08378" lon="5.68255">
        <ele>1059.4</ele>
        <time>2026-05-10T13:03:27Z</time>
      </trkpt>
      <trkpt lat="46.08377" lon="5.68259">
        <ele>1059.6</ele>
        <time>2026-05-10T13:03:28Z</time>
      </trkpt>
      <trkpt lat="46.08375" lon="5.68264">
        <ele>1059.6</ele>
        <time>2026-05-10T13:03:29Z</time>
      </trkpt>
      <trkpt lat="46.08374" lon="5.68267">
        <ele>1059.6</ele>
        <time>2026-05-10T13:03:30Z</time>
      </trkpt>
      <trkpt lat="46.08374" lon="5.6827">
        <ele>1059.8</ele>
        <time>2026-05-10T13:03:31Z</time>
      </trkpt>
      <trkpt lat="46.08373" lon="5.68274">
        <ele>1060.2</ele>
        <time>2026-05-10T13:03:32Z</time>
      </trkpt>
      <trkpt lat="46.08373" lon="5.68277">
        <ele>1060.2</ele>
        <time>2026-05-10T13:03:33Z</time>
      </trkpt>
      <trkpt lat="46.08372" lon="5.6828">
        <ele>1060.2</ele>
        <time>2026-05-10T13:03:34Z</time>
      </trkpt>
      <trkpt lat="46.08372" lon="5.68283">
        <ele>1060.2</ele>
        <time>2026-05-10T13:03:35Z</time>
      </trkpt>
      <trkpt lat="46.08372" lon="5.68287">
        <ele>1060.8</ele>
        <time>2026-05-10T13:03:36Z</time>
      </trkpt>
      <trkpt lat="46.08371" lon="5.6829">
        <ele>1060.8</ele>
        <time>2026-05-10T13:03:37Z</time>
      </trkpt>
      <trkpt lat="46.08371" lon="5.68294">
        <ele>1061.2</ele>
        <time>2026-05-10T13:03:38Z</time>
      </trkpt>
      <trkpt lat="46.08371" lon="5.68297">
        <ele>1061.2</ele>
        <time>2026-05-10T13:03:39Z</time>
      </trkpt>
      <trkpt lat="46.08372" lon="5.683">
        <ele>1061.4</ele>
        <time>2026-05-10T13:03:40Z</time>
      </trkpt>
      <trkpt lat="46.08372" lon="5.68304">
        <ele>1061.4</ele>
        <time>2026-05-10T13:03:41Z</time>
      </trkpt>
      <trkpt lat="46.08372" lon="5.68307">
        <ele>1061.8</ele>
        <time>2026-05-10T13:03:42Z</time>
      </trkpt>
      <trkpt lat="46.08372" lon="5.68311">
        <ele>1061.8</ele>
        <time>2026-05-10T13:03:43Z</time>
      </trkpt>
      <trkpt lat="46.08372" lon="5.68311">
        <ele>1061.8</ele>
        <time>2026-05-10T13:03:44Z</time>
      </trkpt>
      <trkpt lat="46.08373" lon="5.68314">
        <ele>1061.8</ele>
        <time>2026-05-10T13:03:45Z</time>
      </trkpt>
      <trkpt lat="46.08373" lon="5.68318">
        <ele>1062</ele>
        <time>2026-05-10T13:03:46Z</time>
      </trkpt>
      <trkpt lat="46.08373" lon="5.68321">
        <ele>1062</ele>
        <time>2026-05-10T13:03:47Z</time>
      </trkpt>
      <trkpt lat="46.08373" lon="5.68325">
        <ele>1062</ele>
        <time>2026-05-10T13:03:48Z</time>
      </trkpt>
      <trkpt lat="46.08374" lon="5.68328">
        <ele>1062.4</ele>
        <time>2026-05-10T13:03:49Z</time>
      </trkpt>
      <trkpt lat="46.08375" lon="5.68331">
        <ele>1062.8</ele>
        <time>2026-05-10T13:03:50Z</time>
      </trkpt>
      <trkpt lat="46.08375" lon="5.68334">
        <ele>1062.8</ele>
        <time>2026-05-10T13:03:51Z</time>
      </trkpt>
      <trkpt lat="46.08376" lon="5.68336">
        <ele>1063</ele>
        <time>2026-05-10T13:03:52Z</time>
      </trkpt>
      <trkpt lat="46.08376" lon="5.68339">
        <ele>1063</ele>
        <time>2026-05-10T13:03:53Z</time>
      </trkpt>
      <trkpt lat="46.08377" lon="5.68342">
        <ele>1063</ele>
        <time>2026-05-10T13:03:54Z</time>
      </trkpt>
      <trkpt lat="46.08377" lon="5.68345">
        <ele>1063.4</ele>
        <time>2026-05-10T13:03:55Z</time>
      </trkpt>
      <trkpt lat="46.08378" lon="5.68348">
        <ele>1063.4</ele>
        <time>2026-05-10T13:03:56Z</time>
      </trkpt>
      <trkpt lat="46.08378" lon="5.68352">
        <ele>1063.6</ele>
        <time>2026-05-10T13:03:57Z</time>
      </trkpt>
      <trkpt lat="46.08379" lon="5.68355">
        <ele>1063.8</ele>
        <time>2026-05-10T13:03:58Z</time>
      </trkpt>
      <trkpt lat="46.08379" lon="5.68358">
        <ele>1064.2</ele>
        <time>2026-05-10T13:03:59Z</time>
      </trkpt>
      <trkpt lat="46.0838" lon="5.68361">
        <ele>1064.2</ele>
        <time>2026-05-10T13:04:00Z</time>
      </trkpt>
      <trkpt lat="46.08381" lon="5.68365">
        <ele>1064.4</ele>
        <time>2026-05-10T13:04:01Z</time>
      </trkpt>
      <trkpt lat="46.08381" lon="5.68368">
        <ele>1064.4</ele>
        <time>2026-05-10T13:04:02Z</time>
      </trkpt>
      <trkpt lat="46.08382" lon="5.68371">
        <ele>1064.8</ele>
        <time>2026-05-10T13:04:03Z</time>
      </trkpt>
      <trkpt lat="46.08383" lon="5.68374">
        <ele>1064.8</ele>
        <time>2026-05-10T13:04:04Z</time>
      </trkpt>
      <trkpt lat="46.08384" lon="5.68376">
        <ele>1064.8</ele>
        <time>2026-05-10T13:04:05Z</time>
      </trkpt>
      <trkpt lat="46.08384" lon="5.68379">
        <ele>1064.8</ele>
        <time>2026-05-10T13:04:06Z</time>
      </trkpt>
      <trkpt lat="46.08385" lon="5.68382">
        <ele>1064.8</ele>
        <time>2026-05-10T13:04:07Z</time>
      </trkpt>
      <trkpt lat="46.08385" lon="5.68385">
        <ele>1065</ele>
        <time>2026-05-10T13:04:08Z</time>
      </trkpt>
      <trkpt lat="46.08386" lon="5.68389">
        <ele>1065.2</ele>
        <time>2026-05-10T13:04:09Z</time>
      </trkpt>
      <trkpt lat="46.08387" lon="5.68392">
        <ele>1065.2</ele>
        <time>2026-05-10T13:04:10Z</time>
      </trkpt>
      <trkpt lat="46.08387" lon="5.68396">
        <ele>1065.6</ele>
        <time>2026-05-10T13:04:11Z</time>
      </trkpt>
      <trkpt lat="46.08388" lon="5.68399">
        <ele>1065.6</ele>
        <time>2026-05-10T13:04:12Z</time>
      </trkpt>
      <trkpt lat="46.08388" lon="5.68402">
        <ele>1066</ele>
        <time>2026-05-10T13:04:13Z</time>
      </trkpt>
      <trkpt lat="46.08388" lon="5.68405">
        <ele>1066</ele>
        <time>2026-05-10T13:04:14Z</time>
      </trkpt>
      <trkpt lat="46.08389" lon="5.68408">
        <ele>1066</ele>
        <time>2026-05-10T13:04:15Z</time>
      </trkpt>
      <trkpt lat="46.08389" lon="5.68412">
        <ele>1066</ele>
        <time>2026-05-10T13:04:16Z</time>
      </trkpt>
      <trkpt lat="46.08389" lon="5.68415">
        <ele>1066</ele>
        <time>2026-05-10T13:04:17Z</time>
      </trkpt>
      <trkpt lat="46.08389" lon="5.68418">
        <ele>1066</ele>
        <time>2026-05-10T13:04:18Z</time>
      </trkpt>
      <trkpt lat="46.08389" lon="5.68421">
        <ele>1066</ele>
        <time>2026-05-10T13:04:19Z</time>
      </trkpt>
      <trkpt lat="46.08389" lon="5.68424">
        <ele>1065.4</ele>
        <time>2026-05-10T13:04:20Z</time>
      </trkpt>
      <trkpt lat="46.08389" lon="5.68427">
        <ele>1066</ele>
        <time>2026-05-10T13:04:21Z</time>
      </trkpt>
      <trkpt lat="46.08388" lon="5.6843">
        <ele>1066</ele>
        <time>2026-05-10T13:04:22Z</time>
      </trkpt>
      <trkpt lat="46.08387" lon="5.68433">
        <ele>1066.4</ele>
        <time>2026-05-10T13:04:23Z</time>
      </trkpt>
      <trkpt lat="46.08387" lon="5.68436">
        <ele>1066.8</ele>
        <time>2026-05-10T13:04:24Z</time>
      </trkpt>
      <trkpt lat="46.08386" lon="5.68439">
        <ele>1066.8</ele>
        <time>2026-05-10T13:04:25Z</time>
      </trkpt>
      <trkpt lat="46.08386" lon="5.68442">
        <ele>1067</ele>
        <time>2026-05-10T13:04:26Z</time>
      </trkpt>
      <trkpt lat="46.08385" lon="5.68444">
        <ele>1067</ele>
        <time>2026-05-10T13:04:27Z</time>
      </trkpt>
      <trkpt lat="46.08384" lon="5.68447">
        <ele>1067.4</ele>
        <time>2026-05-10T13:04:28Z</time>
      </trkpt>
      <trkpt lat="46.08384" lon="5.68449">
        <ele>1067.4</ele>
        <time>2026-05-10T13:04:29Z</time>
      </trkpt>
      <trkpt lat="46.08383" lon="5.68451">
        <ele>1067.4</ele>
        <time>2026-05-10T13:04:30Z</time>
      </trkpt>
      <trkpt lat="46.08383" lon="5.68451">
        <ele>1067.6</ele>
        <time>2026-05-10T13:04:31Z</time>
      </trkpt>
      <trkpt lat="46.08383" lon="5.68456">
        <ele>1067.6</ele>
        <time>2026-05-10T13:04:32Z</time>
      </trkpt>
      <trkpt lat="46.08382" lon="5.68458">
        <ele>1067.8</ele>
        <time>2026-05-10T13:04:33Z</time>
      </trkpt>
      <trkpt lat="46.08381" lon="5.68461">
        <ele>1067.6</ele>
        <time>2026-05-10T13:04:34Z</time>
      </trkpt>
      <trkpt lat="46.08381" lon="5.68463">
        <ele>1067.8</ele>
        <time>2026-05-10T13:04:35Z</time>
      </trkpt>
      <trkpt lat="46.0838" lon="5.68466">
        <ele>1068</ele>
        <time>2026-05-10T13:04:36Z</time>
      </trkpt>
      <trkpt lat="46.08379" lon="5.68469">
        <ele>1068</ele>
        <time>2026-05-10T13:04:37Z</time>
      </trkpt>
      <trkpt lat="46.08379" lon="5.68472">
        <ele>1068.6</ele>
        <time>2026-05-10T13:04:38Z</time>
      </trkpt>
      <trkpt lat="46.08378" lon="5.68475">
        <ele>1068.8</ele>
        <time>2026-05-10T13:04:39Z</time>
      </trkpt>
      <trkpt lat="46.08377" lon="5.68478">
        <ele>1068.8</ele>
        <time>2026-05-10T13:04:40Z</time>
      </trkpt>
      <trkpt lat="46.08376" lon="5.6848">
        <ele>1068.6</ele>
        <time>2026-05-10T13:04:41Z</time>
      </trkpt>
      <trkpt lat="46.08375" lon="5.68483">
        <ele>1068.6</ele>
        <time>2026-05-10T13:04:42Z</time>
      </trkpt>
      <trkpt lat="46.08374" lon="5.68485">
        <ele>1069</ele>
        <time>2026-05-10T13:04:43Z</time>
      </trkpt>
      <trkpt lat="46.08374" lon="5.68488">
        <ele>1069.2</ele>
        <time>2026-05-10T13:04:44Z</time>
      </trkpt>
      <trkpt lat="46.08373" lon="5.68491">
        <ele>1069.2</ele>
        <time>2026-05-10T13:04:45Z</time>
      </trkpt>
      <trkpt lat="46.08372" lon="5.68494">
        <ele>1069.2</ele>
        <time>2026-05-10T13:04:46Z</time>
      </trkpt>
      <trkpt lat="46.08372" lon="5.68497">
        <ele>1069.2</ele>
        <time>2026-05-10T13:04:47Z</time>
      </trkpt>
      <trkpt lat="46.0837" lon="5.685">
        <ele>1069.2</ele>
        <time>2026-05-10T13:04:48Z</time>
      </trkpt>
      <trkpt lat="46.08369" lon="5.68503">
        <ele>1069</ele>
        <time>2026-05-10T13:04:49Z</time>
      </trkpt>
      <trkpt lat="46.08368" lon="5.68507">
        <ele>1069</ele>
        <time>2026-05-10T13:04:50Z</time>
      </trkpt>
      <trkpt lat="46.08368" lon="5.68511">
        <ele>1069.2</ele>
        <time>2026-05-10T13:04:51Z</time>
      </trkpt>
      <trkpt lat="46.08367" lon="5.68515">
        <ele>1069.2</ele>
        <time>2026-05-10T13:04:52Z</time>
      </trkpt>
      <trkpt lat="46.08367" lon="5.68518">
        <ele>1069.2</ele>
        <time>2026-05-10T13:04:53Z</time>
      </trkpt>
      <trkpt lat="46.08366" lon="5.68522">
        <ele>1069.2</ele>
        <time>2026-05-10T13:04:54Z</time>
      </trkpt>
      <trkpt lat="46.08366" lon="5.68526">
        <ele>1069.2</ele>
        <time>2026-05-10T13:04:55Z</time>
      </trkpt>
      <trkpt lat="46.08365" lon="5.6853">
        <ele>1069.2</ele>
        <time>2026-05-10T13:04:56Z</time>
      </trkpt>
      <trkpt lat="46.08364" lon="5.68535">
        <ele>1069.2</ele>
        <time>2026-05-10T13:04:57Z</time>
      </trkpt>
      <trkpt lat="46.08364" lon="5.68539">
        <ele>1069.2</ele>
        <time>2026-05-10T13:04:58Z</time>
      </trkpt>
      <trkpt lat="46.08363" lon="5.68544">
        <ele>1069.2</ele>
        <time>2026-05-10T13:04:59Z</time>
      </trkpt>
      <trkpt lat="46.08362" lon="5.68548">
        <ele>1069.2</ele>
        <time>2026-05-10T13:05:00Z</time>
      </trkpt>
      <trkpt lat="46.08362" lon="5.68553">
        <ele>1069.4</ele>
        <time>2026-05-10T13:05:01Z</time>
      </trkpt>
      <trkpt lat="46.08362" lon="5.68557">
        <ele>1069.4</ele>
        <time>2026-05-10T13:05:02Z</time>
      </trkpt>
      <trkpt lat="46.08361" lon="5.68562">
        <ele>1069.8</ele>
        <time>2026-05-10T13:05:03Z</time>
      </trkpt>
      <trkpt lat="46.08361" lon="5.68567">
        <ele>1069.8</ele>
        <time>2026-05-10T13:05:04Z</time>
      </trkpt>
      <trkpt lat="46.08361" lon="5.68571">
        <ele>1069.8</ele>
        <time>2026-05-10T13:05:05Z</time>
      </trkpt>
      <trkpt lat="46.0836" lon="5.68576">
        <ele>1069.8</ele>
        <time>2026-05-10T13:05:06Z</time>
      </trkpt>
      <trkpt lat="46.08359" lon="5.68581">
        <ele>1069.8</ele>
        <time>2026-05-10T13:05:07Z</time>
      </trkpt>
      <trkpt lat="46.08357" lon="5.68585">
        <ele>1069.8</ele>
        <time>2026-05-10T13:05:08Z</time>
      </trkpt>
      <trkpt lat="46.08356" lon="5.68589">
        <ele>1068.4</ele>
        <time>2026-05-10T13:05:09Z</time>
      </trkpt>
      <trkpt lat="46.08355" lon="5.68593">
        <ele>1068.4</ele>
        <time>2026-05-10T13:05:10Z</time>
      </trkpt>
      <trkpt lat="46.08354" lon="5.68597">
        <ele>1068.8</ele>
        <time>2026-05-10T13:05:11Z</time>
      </trkpt>
      <trkpt lat="46.08353" lon="5.68601">
        <ele>1069</ele>
        <time>2026-05-10T13:05:12Z</time>
      </trkpt>
      <trkpt lat="46.08351" lon="5.68604">
        <ele>1069.4</ele>
        <time>2026-05-10T13:05:13Z</time>
      </trkpt>
      <trkpt lat="46.08349" lon="5.68608">
        <ele>1069.4</ele>
        <time>2026-05-10T13:05:14Z</time>
      </trkpt>
      <trkpt lat="46.08348" lon="5.68612">
        <ele>1069.6</ele>
        <time>2026-05-10T13:05:15Z</time>
      </trkpt>
      <trkpt lat="46.08347" lon="5.68615">
        <ele>1069.6</ele>
        <time>2026-05-10T13:05:16Z</time>
      </trkpt>
      <trkpt lat="46.08345" lon="5.68619">
        <ele>1069.8</ele>
        <time>2026-05-10T13:05:17Z</time>
      </trkpt>
      <trkpt lat="46.08343" lon="5.68622">
        <ele>1069.8</ele>
        <time>2026-05-10T13:05:18Z</time>
      </trkpt>
      <trkpt lat="46.08341" lon="5.68624">
        <ele>1070.4</ele>
        <time>2026-05-10T13:05:19Z</time>
      </trkpt>
      <trkpt lat="46.08339" lon="5.68626">
        <ele>1070.6</ele>
        <time>2026-05-10T13:05:20Z</time>
      </trkpt>
      <trkpt lat="46.08337" lon="5.68628">
        <ele>1070.6</ele>
        <time>2026-05-10T13:05:21Z</time>
      </trkpt>
      <trkpt lat="46.08332" lon="5.68632">
        <ele>1070.6</ele>
        <time>2026-05-10T13:05:22Z</time>
      </trkpt>
      <trkpt lat="46.0833" lon="5.68633">
        <ele>1070.6</ele>
        <time>2026-05-10T13:05:23Z</time>
      </trkpt>
      <trkpt lat="46.08327" lon="5.68635">
        <ele>1070.6</ele>
        <time>2026-05-10T13:05:24Z</time>
      </trkpt>
      <trkpt lat="46.08324" lon="5.68636">
        <ele>1071</ele>
        <time>2026-05-10T13:05:25Z</time>
      </trkpt>
      <trkpt lat="46.08321" lon="5.68638">
        <ele>1071</ele>
        <time>2026-05-10T13:05:26Z</time>
      </trkpt>
      <trkpt lat="46.08318" lon="5.68639">
        <ele>1071</ele>
        <time>2026-05-10T13:05:27Z</time>
      </trkpt>
      <trkpt lat="46.08315" lon="5.68641">
        <ele>1071</ele>
        <time>2026-05-10T13:05:28Z</time>
      </trkpt>
      <trkpt lat="46.08311" lon="5.68643">
        <ele>1071</ele>
        <time>2026-05-10T13:05:29Z</time>
      </trkpt>
      <trkpt lat="46.08308" lon="5.68645">
        <ele>1071</ele>
        <time>2026-05-10T13:05:30Z</time>
      </trkpt>
      <trkpt lat="46.08304" lon="5.68648">
        <ele>1070.8</ele>
        <time>2026-05-10T13:05:31Z</time>
      </trkpt>
      <trkpt lat="46.08301" lon="5.6865">
        <ele>1070.8</ele>
        <time>2026-05-10T13:05:32Z</time>
      </trkpt>
      <trkpt lat="46.08298" lon="5.68653">
        <ele>1070.8</ele>
        <time>2026-05-10T13:05:33Z</time>
      </trkpt>
      <trkpt lat="46.08295" lon="5.68655">
        <ele>1070.4</ele>
        <time>2026-05-10T13:05:34Z</time>
      </trkpt>
      <trkpt lat="46.08292" lon="5.68658">
        <ele>1070.4</ele>
        <time>2026-05-10T13:05:35Z</time>
      </trkpt>
      <trkpt lat="46.08289" lon="5.68661">
        <ele>1070.4</ele>
        <time>2026-05-10T13:05:36Z</time>
      </trkpt>
      <trkpt lat="46.08286" lon="5.68663">
        <ele>1070.2</ele>
        <time>2026-05-10T13:05:37Z</time>
      </trkpt>
      <trkpt lat="46.08283" lon="5.68667">
        <ele>1070.2</ele>
        <time>2026-05-10T13:05:38Z</time>
      </trkpt>
      <trkpt lat="46.0828" lon="5.68671">
        <ele>1069.8</ele>
        <time>2026-05-10T13:05:39Z</time>
      </trkpt>
      <trkpt lat="46.08276" lon="5.68674">
        <ele>1069.8</ele>
        <time>2026-05-10T13:05:40Z</time>
      </trkpt>
      <trkpt lat="46.08272" lon="5.68678">
        <ele>1069.8</ele>
        <time>2026-05-10T13:05:41Z</time>
      </trkpt>
      <trkpt lat="46.08268" lon="5.68682">
        <ele>1069.4</ele>
        <time>2026-05-10T13:05:42Z</time>
      </trkpt>
      <trkpt lat="46.08265" lon="5.68686">
        <ele>1069.4</ele>
        <time>2026-05-10T13:05:43Z</time>
      </trkpt>
      <trkpt lat="46.08261" lon="5.68689">
        <ele>1068</ele>
        <time>2026-05-10T13:05:44Z</time>
      </trkpt>
      <trkpt lat="46.08261" lon="5.68689">
        <ele>1068</ele>
        <time>2026-05-10T13:05:45Z</time>
      </trkpt>
      <trkpt lat="46.08257" lon="5.68692">
        <ele>1068.6</ele>
        <time>2026-05-10T13:05:46Z</time>
      </trkpt>
      <trkpt lat="46.08254" lon="5.68695">
        <ele>1068.8</ele>
        <time>2026-05-10T13:05:47Z</time>
      </trkpt>
      <trkpt lat="46.0825" lon="5.68699">
        <ele>1068.8</ele>
        <time>2026-05-10T13:05:48Z</time>
      </trkpt>
      <trkpt lat="46.08246" lon="5.68702">
        <ele>1068.8</ele>
        <time>2026-05-10T13:05:49Z</time>
      </trkpt>
      <trkpt lat="46.08243" lon="5.68706">
        <ele>1068.8</ele>
        <time>2026-05-10T13:05:50Z</time>
      </trkpt>
      <trkpt lat="46.08239" lon="5.68709">
        <ele>1068.8</ele>
        <time>2026-05-10T13:05:51Z</time>
      </trkpt>
      <trkpt lat="46.08235" lon="5.68713">
        <ele>1068.8</ele>
        <time>2026-05-10T13:05:52Z</time>
      </trkpt>
      <trkpt lat="46.08231" lon="5.68716">
        <ele>1069</ele>
        <time>2026-05-10T13:05:53Z</time>
      </trkpt>
      <trkpt lat="46.08227" lon="5.6872">
        <ele>1069</ele>
        <time>2026-05-10T13:05:54Z</time>
      </trkpt>
      <trkpt lat="46.08224" lon="5.68724">
        <ele>1069</ele>
        <time>2026-05-10T13:05:55Z</time>
      </trkpt>
      <trkpt lat="46.0822" lon="5.68727">
        <ele>1069</ele>
        <time>2026-05-10T13:05:56Z</time>
      </trkpt>
      <trkpt lat="46.08215" lon="5.68731">
        <ele>1068.8</ele>
        <time>2026-05-10T13:05:57Z</time>
      </trkpt>
      <trkpt lat="46.08212" lon="5.68736">
        <ele>1068.8</ele>
        <time>2026-05-10T13:05:58Z</time>
      </trkpt>
      <trkpt lat="46.08208" lon="5.68738">
        <ele>1068.8</ele>
        <time>2026-05-10T13:05:59Z</time>
      </trkpt>
      <trkpt lat="46.08204" lon="5.68743">
        <ele>1069</ele>
        <time>2026-05-10T13:06:00Z</time>
      </trkpt>
      <trkpt lat="46.082" lon="5.68747">
        <ele>1069</ele>
        <time>2026-05-10T13:06:01Z</time>
      </trkpt>
      <trkpt lat="46.08196" lon="5.6875">
        <ele>1069</ele>
        <time>2026-05-10T13:06:02Z</time>
      </trkpt>
      <trkpt lat="46.08192" lon="5.68754">
        <ele>1069</ele>
        <time>2026-05-10T13:06:03Z</time>
      </trkpt>
      <trkpt lat="46.08188" lon="5.68758">
        <ele>1069.2</ele>
        <time>2026-05-10T13:06:04Z</time>
      </trkpt>
      <trkpt lat="46.08184" lon="5.68762">
        <ele>1069.2</ele>
        <time>2026-05-10T13:06:05Z</time>
      </trkpt>
      <trkpt lat="46.0818" lon="5.68766">
        <ele>1069.4</ele>
        <time>2026-05-10T13:06:06Z</time>
      </trkpt>
      <trkpt lat="46.08176" lon="5.6877">
        <ele>1069.4</ele>
        <time>2026-05-10T13:06:07Z</time>
      </trkpt>
      <trkpt lat="46.08172" lon="5.68774">
        <ele>1069.4</ele>
        <time>2026-05-10T13:06:08Z</time>
      </trkpt>
      <trkpt lat="46.08168" lon="5.68778">
        <ele>1069.4</ele>
        <time>2026-05-10T13:06:09Z</time>
      </trkpt>
      <trkpt lat="46.08164" lon="5.68782">
        <ele>1069.4</ele>
        <time>2026-05-10T13:06:10Z</time>
      </trkpt>
      <trkpt lat="46.08159" lon="5.68785">
        <ele>1069.4</ele>
        <time>2026-05-10T13:06:11Z</time>
      </trkpt>
      <trkpt lat="46.08155" lon="5.6879">
        <ele>1069.4</ele>
        <time>2026-05-10T13:06:12Z</time>
      </trkpt>
      <trkpt lat="46.08151" lon="5.68794">
        <ele>1069.4</ele>
        <time>2026-05-10T13:06:13Z</time>
      </trkpt>
      <trkpt lat="46.08147" lon="5.68798">
        <ele>1069.4</ele>
        <time>2026-05-10T13:06:14Z</time>
      </trkpt>
      <trkpt lat="46.08142" lon="5.68802">
        <ele>1069.4</ele>
        <time>2026-05-10T13:06:15Z</time>
      </trkpt>
      <trkpt lat="46.08138" lon="5.68806">
        <ele>1069.4</ele>
        <time>2026-05-10T13:06:16Z</time>
      </trkpt>
      <trkpt lat="46.08134" lon="5.6881">
        <ele>1069.4</ele>
        <time>2026-05-10T13:06:17Z</time>
      </trkpt>
      <trkpt lat="46.0813" lon="5.68815">
        <ele>1069.4</ele>
        <time>2026-05-10T13:06:18Z</time>
      </trkpt>
      <trkpt lat="46.08126" lon="5.68818">
        <ele>1069.4</ele>
        <time>2026-05-10T13:06:19Z</time>
      </trkpt>
      <trkpt lat="46.08121" lon="5.68821">
        <ele>1069.2</ele>
        <time>2026-05-10T13:06:20Z</time>
      </trkpt>
      <trkpt lat="46.08116" lon="5.68825">
        <ele>1069.2</ele>
        <time>2026-05-10T13:06:21Z</time>
      </trkpt>
      <trkpt lat="46.08113" lon="5.68829">
        <ele>1069.2</ele>
        <time>2026-05-10T13:06:22Z</time>
      </trkpt>
      <trkpt lat="46.08108" lon="5.68833">
        <ele>1069.2</ele>
        <time>2026-05-10T13:06:23Z</time>
      </trkpt>
      <trkpt lat="46.08104" lon="5.68837">
        <ele>1069.2</ele>
        <time>2026-05-10T13:06:24Z</time>
      </trkpt>
      <trkpt lat="46.08099" lon="5.68841">
        <ele>1068.8</ele>
        <time>2026-05-10T13:06:25Z</time>
      </trkpt>
      <trkpt lat="46.08095" lon="5.68845">
        <ele>1069</ele>
        <time>2026-05-10T13:06:26Z</time>
      </trkpt>
      <trkpt lat="46.0809" lon="5.68847">
        <ele>1069.4</ele>
        <time>2026-05-10T13:06:27Z</time>
      </trkpt>
      <trkpt lat="46.08086" lon="5.6885">
        <ele>1069.4</ele>
        <time>2026-05-10T13:06:28Z</time>
      </trkpt>
      <trkpt lat="46.08081" lon="5.68853">
        <ele>1069.4</ele>
        <time>2026-05-10T13:06:29Z</time>
      </trkpt>
      <trkpt lat="46.08076" lon="5.68855">
        <ele>1069.4</ele>
        <time>2026-05-10T13:06:30Z</time>
      </trkpt>
      <trkpt lat="46.08071" lon="5.68857">
        <ele>1069.6</ele>
        <time>2026-05-10T13:06:31Z</time>
      </trkpt>
      <trkpt lat="46.08066" lon="5.68859">
        <ele>1069.6</ele>
        <time>2026-05-10T13:06:32Z</time>
      </trkpt>
      <trkpt lat="46.08061" lon="5.68861">
        <ele>1069.6</ele>
        <time>2026-05-10T13:06:33Z</time>
      </trkpt>
      <trkpt lat="46.08056" lon="5.68863">
        <ele>1069.6</ele>
        <time>2026-05-10T13:06:34Z</time>
      </trkpt>
      <trkpt lat="46.08051" lon="5.68864">
        <ele>1069.6</ele>
        <time>2026-05-10T13:06:35Z</time>
      </trkpt>
      <trkpt lat="46.08047" lon="5.68867">
        <ele>1069.6</ele>
        <time>2026-05-10T13:06:36Z</time>
      </trkpt>
      <trkpt lat="46.08042" lon="5.68868">
        <ele>1069.6</ele>
        <time>2026-05-10T13:06:37Z</time>
      </trkpt>
      <trkpt lat="46.08037" lon="5.68869">
        <ele>1069.6</ele>
        <time>2026-05-10T13:06:38Z</time>
      </trkpt>
      <trkpt lat="46.08032" lon="5.6887">
        <ele>1070</ele>
        <time>2026-05-10T13:06:39Z</time>
      </trkpt>
      <trkpt lat="46.08027" lon="5.68871">
        <ele>1070.2</ele>
        <time>2026-05-10T13:06:40Z</time>
      </trkpt>
      <trkpt lat="46.08023" lon="5.68872">
        <ele>1070.4</ele>
        <time>2026-05-10T13:06:41Z</time>
      </trkpt>
      <trkpt lat="46.08018" lon="5.68872">
        <ele>1070.4</ele>
        <time>2026-05-10T13:06:42Z</time>
      </trkpt>
      <trkpt lat="46.08013" lon="5.68874">
        <ele>1070.6</ele>
        <time>2026-05-10T13:06:43Z</time>
      </trkpt>
      <trkpt lat="46.08008" lon="5.68874">
        <ele>1070.6</ele>
        <time>2026-05-10T13:06:44Z</time>
      </trkpt>
      <trkpt lat="46.08004" lon="5.68876">
        <ele>1071</ele>
        <time>2026-05-10T13:06:45Z</time>
      </trkpt>
      <trkpt lat="46.08" lon="5.68877">
        <ele>1071</ele>
        <time>2026-05-10T13:06:46Z</time>
      </trkpt>
      <trkpt lat="46.07995" lon="5.68878">
        <ele>1071.4</ele>
        <time>2026-05-10T13:06:47Z</time>
      </trkpt>
      <trkpt lat="46.07991" lon="5.6888">
        <ele>1071.6</ele>
        <time>2026-05-10T13:06:48Z</time>
      </trkpt>
      <trkpt lat="46.07988" lon="5.68881">
        <ele>1072</ele>
        <time>2026-05-10T13:06:49Z</time>
      </trkpt>
      <trkpt lat="46.07984" lon="5.68882">
        <ele>1072</ele>
        <time>2026-05-10T13:06:50Z</time>
      </trkpt>
      <trkpt lat="46.0798" lon="5.68884">
        <ele>1072</ele>
        <time>2026-05-10T13:06:51Z</time>
      </trkpt>
      <trkpt lat="46.07976" lon="5.68884">
        <ele>1072.2</ele>
        <time>2026-05-10T13:06:52Z</time>
      </trkpt>
      <trkpt lat="46.07973" lon="5.68886">
        <ele>1072.2</ele>
        <time>2026-05-10T13:06:53Z</time>
      </trkpt>
      <trkpt lat="46.07969" lon="5.68887">
        <ele>1072.2</ele>
        <time>2026-05-10T13:06:54Z</time>
      </trkpt>
      <trkpt lat="46.07965" lon="5.68889">
        <ele>1072.2</ele>
        <time>2026-05-10T13:06:55Z</time>
      </trkpt>
      <trkpt lat="46.07962" lon="5.68891">
        <ele>1072.2</ele>
        <time>2026-05-10T13:06:56Z</time>
      </trkpt>
      <trkpt lat="46.07958" lon="5.68892">
        <ele>1072.2</ele>
        <time>2026-05-10T13:06:57Z</time>
      </trkpt>
      <trkpt lat="46.07955" lon="5.68893">
        <ele>1072.2</ele>
        <time>2026-05-10T13:06:58Z</time>
      </trkpt>
      <trkpt lat="46.07951" lon="5.68895">
        <ele>1072.2</ele>
        <time>2026-05-10T13:06:59Z</time>
      </trkpt>
      <trkpt lat="46.07947" lon="5.68897">
        <ele>1072.6</ele>
        <time>2026-05-10T13:07:00Z</time>
      </trkpt>
      <trkpt lat="46.07943" lon="5.68898">
        <ele>1072.6</ele>
        <time>2026-05-10T13:07:01Z</time>
      </trkpt>
      <trkpt lat="46.0794" lon="5.68899">
        <ele>1072.6</ele>
        <time>2026-05-10T13:07:02Z</time>
      </trkpt>
      <trkpt lat="46.07937" lon="5.68901">
        <ele>1073</ele>
        <time>2026-05-10T13:07:03Z</time>
      </trkpt>
      <trkpt lat="46.07933" lon="5.68902">
        <ele>1073.2</ele>
        <time>2026-05-10T13:07:04Z</time>
      </trkpt>
      <trkpt lat="46.07929" lon="5.68903">
        <ele>1073.2</ele>
        <time>2026-05-10T13:07:05Z</time>
      </trkpt>
      <trkpt lat="46.07926" lon="5.68904">
        <ele>1073.4</ele>
        <time>2026-05-10T13:07:06Z</time>
      </trkpt>
      <trkpt lat="46.07923" lon="5.68904">
        <ele>1073.4</ele>
        <time>2026-05-10T13:07:07Z</time>
      </trkpt>
      <trkpt lat="46.07919" lon="5.68903">
        <ele>1073.4</ele>
        <time>2026-05-10T13:07:08Z</time>
      </trkpt>
      <trkpt lat="46.07916" lon="5.68902">
        <ele>1073.6</ele>
        <time>2026-05-10T13:07:09Z</time>
      </trkpt>
      <trkpt lat="46.07912" lon="5.68901">
        <ele>1074</ele>
        <time>2026-05-10T13:07:10Z</time>
      </trkpt>
      <trkpt lat="46.07909" lon="5.689">
        <ele>1074.2</ele>
        <time>2026-05-10T13:07:11Z</time>
      </trkpt>
      <trkpt lat="46.07906" lon="5.689">
        <ele>1074.4</ele>
        <time>2026-05-10T13:07:12Z</time>
      </trkpt>
      <trkpt lat="46.07903" lon="5.68899">
        <ele>1074.6</ele>
        <time>2026-05-10T13:07:13Z</time>
      </trkpt>
      <trkpt lat="46.07899" lon="5.68897">
        <ele>1074.8</ele>
        <time>2026-05-10T13:07:14Z</time>
      </trkpt>
      <trkpt lat="46.07896" lon="5.68895">
        <ele>1074.8</ele>
        <time>2026-05-10T13:07:15Z</time>
      </trkpt>
      <trkpt lat="46.07893" lon="5.68893">
        <ele>1075.2</ele>
        <time>2026-05-10T13:07:16Z</time>
      </trkpt>
      <trkpt lat="46.07891" lon="5.68891">
        <ele>1075.2</ele>
        <time>2026-05-10T13:07:17Z</time>
      </trkpt>
      <trkpt lat="46.07887" lon="5.68889">
        <ele>1075.6</ele>
        <time>2026-05-10T13:07:18Z</time>
      </trkpt>
      <trkpt lat="46.07884" lon="5.68888">
        <ele>1075.8</ele>
        <time>2026-05-10T13:07:19Z</time>
      </trkpt>
      <trkpt lat="46.07881" lon="5.68887">
        <ele>1075.8</ele>
        <time>2026-05-10T13:07:20Z</time>
      </trkpt>
      <trkpt lat="46.07878" lon="5.68885">
        <ele>1075.8</ele>
        <time>2026-05-10T13:07:21Z</time>
      </trkpt>
      <trkpt lat="46.07874" lon="5.68884">
        <ele>1075.8</ele>
        <time>2026-05-10T13:07:22Z</time>
      </trkpt>
      <trkpt lat="46.07871" lon="5.68883">
        <ele>1075.8</ele>
        <time>2026-05-10T13:07:23Z</time>
      </trkpt>
      <trkpt lat="46.07868" lon="5.68882">
        <ele>1075.8</ele>
        <time>2026-05-10T13:07:24Z</time>
      </trkpt>
      <trkpt lat="46.07865" lon="5.68881">
        <ele>1075.8</ele>
        <time>2026-05-10T13:07:25Z</time>
      </trkpt>
      <trkpt lat="46.07862" lon="5.68881">
        <ele>1076.2</ele>
        <time>2026-05-10T13:07:26Z</time>
      </trkpt>
      <trkpt lat="46.07859" lon="5.6888">
        <ele>1076.2</ele>
        <time>2026-05-10T13:07:27Z</time>
      </trkpt>
      <trkpt lat="46.07855" lon="5.6888">
        <ele>1076.2</ele>
        <time>2026-05-10T13:07:28Z</time>
      </trkpt>
      <trkpt lat="46.07852" lon="5.6888">
        <ele>1076.6</ele>
        <time>2026-05-10T13:07:29Z</time>
      </trkpt>
      <trkpt lat="46.07849" lon="5.68881">
        <ele>1076.6</ele>
        <time>2026-05-10T13:07:30Z</time>
      </trkpt>
      <trkpt lat="46.07845" lon="5.68881">
        <ele>1076.6</ele>
        <time>2026-05-10T13:07:31Z</time>
      </trkpt>
      <trkpt lat="46.07842" lon="5.68882">
        <ele>1076.4</ele>
        <time>2026-05-10T13:07:32Z</time>
      </trkpt>
      <trkpt lat="46.07839" lon="5.68884">
        <ele>1076.4</ele>
        <time>2026-05-10T13:07:33Z</time>
      </trkpt>
      <trkpt lat="46.07836" lon="5.68885">
        <ele>1076.4</ele>
        <time>2026-05-10T13:07:34Z</time>
      </trkpt>
      <trkpt lat="46.07832" lon="5.68887">
        <ele>1076.4</ele>
        <time>2026-05-10T13:07:35Z</time>
      </trkpt>
      <trkpt lat="46.07828" lon="5.68889">
        <ele>1076.4</ele>
        <time>2026-05-10T13:07:36Z</time>
      </trkpt>
      <trkpt lat="46.07825" lon="5.68891">
        <ele>1076</ele>
        <time>2026-05-10T13:07:37Z</time>
      </trkpt>
      <trkpt lat="46.07821" lon="5.68893">
        <ele>1076</ele>
        <time>2026-05-10T13:07:38Z</time>
      </trkpt>
      <trkpt lat="46.07818" lon="5.68896">
        <ele>1076</ele>
        <time>2026-05-10T13:07:39Z</time>
      </trkpt>
      <trkpt lat="46.07814" lon="5.68898">
        <ele>1075.8</ele>
        <time>2026-05-10T13:07:40Z</time>
      </trkpt>
      <trkpt lat="46.07811" lon="5.68901">
        <ele>1075.6</ele>
        <time>2026-05-10T13:07:41Z</time>
      </trkpt>
      <trkpt lat="46.07807" lon="5.68903">
        <ele>1075.6</ele>
        <time>2026-05-10T13:07:42Z</time>
      </trkpt>
      <trkpt lat="46.07803" lon="5.68905">
        <ele>1075.6</ele>
        <time>2026-05-10T13:07:43Z</time>
      </trkpt>
      <trkpt lat="46.07798" lon="5.68906">
        <ele>1075.2</ele>
        <time>2026-05-10T13:07:44Z</time>
      </trkpt>
      <trkpt lat="46.07793" lon="5.68908">
        <ele>1075</ele>
        <time>2026-05-10T13:07:45Z</time>
      </trkpt>
      <trkpt lat="46.07788" lon="5.68909">
        <ele>1075</ele>
        <time>2026-05-10T13:07:46Z</time>
      </trkpt>
      <trkpt lat="46.07783" lon="5.6891">
        <ele>1074.6</ele>
        <time>2026-05-10T13:07:47Z</time>
      </trkpt>
      <trkpt lat="46.07778" lon="5.68911">
        <ele>1074.2</ele>
        <time>2026-05-10T13:07:48Z</time>
      </trkpt>
      <trkpt lat="46.07772" lon="5.6891">
        <ele>1074.2</ele>
        <time>2026-05-10T13:07:49Z</time>
      </trkpt>
      <trkpt lat="46.07767" lon="5.68907">
        <ele>1073.6</ele>
        <time>2026-05-10T13:07:50Z</time>
      </trkpt>
      <trkpt lat="46.07761" lon="5.68904">
        <ele>1073.6</ele>
        <time>2026-05-10T13:07:51Z</time>
      </trkpt>
      <trkpt lat="46.07756" lon="5.68898">
        <ele>1073.2</ele>
        <time>2026-05-10T13:07:52Z</time>
      </trkpt>
      <trkpt lat="46.07752" lon="5.68893">
        <ele>1072.8</ele>
        <time>2026-05-10T13:07:53Z</time>
      </trkpt>
      <trkpt lat="46.07747" lon="5.68887">
        <ele>1072.8</ele>
        <time>2026-05-10T13:07:54Z</time>
      </trkpt>
      <trkpt lat="46.07743" lon="5.68881">
        <ele>1072.6</ele>
        <time>2026-05-10T13:07:55Z</time>
      </trkpt>
      <trkpt lat="46.07739" lon="5.68875">
        <ele>1072.2</ele>
        <time>2026-05-10T13:07:56Z</time>
      </trkpt>
      <trkpt lat="46.07734" lon="5.68869">
        <ele>1071.8</ele>
        <time>2026-05-10T13:07:57Z</time>
      </trkpt>
      <trkpt lat="46.0773" lon="5.68864">
        <ele>1071.8</ele>
        <time>2026-05-10T13:07:58Z</time>
      </trkpt>
      <trkpt lat="46.07726" lon="5.68856">
        <ele>1071.2</ele>
        <time>2026-05-10T13:07:59Z</time>
      </trkpt>
      <trkpt lat="46.07722" lon="5.6885">
        <ele>1071</ele>
        <time>2026-05-10T13:08:00Z</time>
      </trkpt>
      <trkpt lat="46.07717" lon="5.68843">
        <ele>1071</ele>
        <time>2026-05-10T13:08:01Z</time>
      </trkpt>
      <trkpt lat="46.07713" lon="5.68836">
        <ele>1070.6</ele>
        <time>2026-05-10T13:08:02Z</time>
      </trkpt>
      <trkpt lat="46.07708" lon="5.68829">
        <ele>1070.2</ele>
        <time>2026-05-10T13:08:03Z</time>
      </trkpt>
      <trkpt lat="46.07704" lon="5.68822">
        <ele>1070.2</ele>
        <time>2026-05-10T13:08:04Z</time>
      </trkpt>
      <trkpt lat="46.07699" lon="5.68815">
        <ele>1069.8</ele>
        <time>2026-05-10T13:08:05Z</time>
      </trkpt>
      <trkpt lat="46.07695" lon="5.68808">
        <ele>1069.4</ele>
        <time>2026-05-10T13:08:06Z</time>
      </trkpt>
      <trkpt lat="46.07691" lon="5.68801">
        <ele>1069.2</ele>
        <time>2026-05-10T13:08:07Z</time>
      </trkpt>
      <trkpt lat="46.07688" lon="5.68793">
        <ele>1069</ele>
        <time>2026-05-10T13:08:08Z</time>
      </trkpt>
      <trkpt lat="46.07685" lon="5.68785">
        <ele>1068.8</ele>
        <time>2026-05-10T13:08:09Z</time>
      </trkpt>
      <trkpt lat="46.07683" lon="5.68776">
        <ele>1068.8</ele>
        <time>2026-05-10T13:08:10Z</time>
      </trkpt>
      <trkpt lat="46.07681" lon="5.68767">
        <ele>1068.4</ele>
        <time>2026-05-10T13:08:11Z</time>
      </trkpt>
      <trkpt lat="46.07678" lon="5.68758">
        <ele>1068.2</ele>
        <time>2026-05-10T13:08:12Z</time>
      </trkpt>
      <trkpt lat="46.07677" lon="5.68749">
        <ele>1068.2</ele>
        <time>2026-05-10T13:08:13Z</time>
      </trkpt>
      <trkpt lat="46.07675" lon="5.68739">
        <ele>1068</ele>
        <time>2026-05-10T13:08:14Z</time>
      </trkpt>
      <trkpt lat="46.07674" lon="5.68732">
        <ele>1068</ele>
        <time>2026-05-10T13:08:15Z</time>
      </trkpt>
      <trkpt lat="46.07673" lon="5.68723">
        <ele>1067.6</ele>
        <time>2026-05-10T13:08:16Z</time>
      </trkpt>
      <trkpt lat="46.07671" lon="5.68706">
        <ele>1067.6</ele>
        <time>2026-05-10T13:08:17Z</time>
      </trkpt>
      <trkpt lat="46.0767" lon="5.68697">
        <ele>1067.6</ele>
        <time>2026-05-10T13:08:18Z</time>
      </trkpt>
      <trkpt lat="46.07668" lon="5.68688">
        <ele>1067.6</ele>
        <time>2026-05-10T13:08:19Z</time>
      </trkpt>
      <trkpt lat="46.07665" lon="5.68679">
        <ele>1067.6</ele>
        <time>2026-05-10T13:08:20Z</time>
      </trkpt>
      <trkpt lat="46.07661" lon="5.68671">
        <ele>1067.6</ele>
        <time>2026-05-10T13:08:21Z</time>
      </trkpt>
      <trkpt lat="46.07657" lon="5.68664">
        <ele>1067.6</ele>
        <time>2026-05-10T13:08:22Z</time>
      </trkpt>
      <trkpt lat="46.07653" lon="5.68658">
        <ele>1067.4</ele>
        <time>2026-05-10T13:08:23Z</time>
      </trkpt>
      <trkpt lat="46.07648" lon="5.68652">
        <ele>1067</ele>
        <time>2026-05-10T13:08:24Z</time>
      </trkpt>
      <trkpt lat="46.07642" lon="5.68647">
        <ele>1066.8</ele>
        <time>2026-05-10T13:08:25Z</time>
      </trkpt>
      <trkpt lat="46.07637" lon="5.68642">
        <ele>1066.8</ele>
        <time>2026-05-10T13:08:26Z</time>
      </trkpt>
      <trkpt lat="46.07632" lon="5.68641">
        <ele>1066.4</ele>
        <time>2026-05-10T13:08:27Z</time>
      </trkpt>
      <trkpt lat="46.07627" lon="5.68639">
        <ele>1066.4</ele>
        <time>2026-05-10T13:08:28Z</time>
      </trkpt>
      <trkpt lat="46.07621" lon="5.68636">
        <ele>1066</ele>
        <time>2026-05-10T13:08:29Z</time>
      </trkpt>
      <trkpt lat="46.07615" lon="5.68634">
        <ele>1065.8</ele>
        <time>2026-05-10T13:08:30Z</time>
      </trkpt>
      <trkpt lat="46.07609" lon="5.68632">
        <ele>1065.4</ele>
        <time>2026-05-10T13:08:31Z</time>
      </trkpt>
      <trkpt lat="46.07603" lon="5.6863">
        <ele>1065</ele>
        <time>2026-05-10T13:08:32Z</time>
      </trkpt>
      <trkpt lat="46.07596" lon="5.68626">
        <ele>1064.8</ele>
        <time>2026-05-10T13:08:33Z</time>
      </trkpt>
      <trkpt lat="46.0759" lon="5.68624">
        <ele>1064.4</ele>
        <time>2026-05-10T13:08:34Z</time>
      </trkpt>
      <trkpt lat="46.07583" lon="5.6862">
        <ele>1063.8</ele>
        <time>2026-05-10T13:08:35Z</time>
      </trkpt>
      <trkpt lat="46.07577" lon="5.68618">
        <ele>1063.6</ele>
        <time>2026-05-10T13:08:36Z</time>
      </trkpt>
      <trkpt lat="46.0757" lon="5.68616">
        <ele>1063.6</ele>
        <time>2026-05-10T13:08:37Z</time>
      </trkpt>
      <trkpt lat="46.07564" lon="5.68614">
        <ele>1063.2</ele>
        <time>2026-05-10T13:08:38Z</time>
      </trkpt>
      <trkpt lat="46.07558" lon="5.68611">
        <ele>1062.8</ele>
        <time>2026-05-10T13:08:39Z</time>
      </trkpt>
      <trkpt lat="46.07551" lon="5.68607">
        <ele>1062.8</ele>
        <time>2026-05-10T13:08:40Z</time>
      </trkpt>
      <trkpt lat="46.07545" lon="5.68604">
        <ele>1062.4</ele>
        <time>2026-05-10T13:08:41Z</time>
      </trkpt>
      <trkpt lat="46.07539" lon="5.68599">
        <ele>1062</ele>
        <time>2026-05-10T13:08:42Z</time>
      </trkpt>
      <trkpt lat="46.07533" lon="5.68595">
        <ele>1061.2</ele>
        <time>2026-05-10T13:08:43Z</time>
      </trkpt>
      <trkpt lat="46.07526" lon="5.68589">
        <ele>1060.4</ele>
        <time>2026-05-10T13:08:44Z</time>
      </trkpt>
      <trkpt lat="46.07521" lon="5.68585">
        <ele>1059.8</ele>
        <time>2026-05-10T13:08:45Z</time>
      </trkpt>
      <trkpt lat="46.07515" lon="5.68579">
        <ele>1059.8</ele>
        <time>2026-05-10T13:08:46Z</time>
      </trkpt>
      <trkpt lat="46.07509" lon="5.68574">
        <ele>1059.6</ele>
        <time>2026-05-10T13:08:47Z</time>
      </trkpt>
      <trkpt lat="46.07503" lon="5.6857">
        <ele>1059.6</ele>
        <time>2026-05-10T13:08:48Z</time>
      </trkpt>
      <trkpt lat="46.07497" lon="5.68565">
        <ele>1059.4</ele>
        <time>2026-05-10T13:08:49Z</time>
      </trkpt>
      <trkpt lat="46.0749" lon="5.68561">
        <ele>1059</ele>
        <time>2026-05-10T13:08:50Z</time>
      </trkpt>
      <trkpt lat="46.07484" lon="5.68556">
        <ele>1058.8</ele>
        <time>2026-05-10T13:08:51Z</time>
      </trkpt>
      <trkpt lat="46.07484" lon="5.68556">
        <ele>1058.6</ele>
        <time>2026-05-10T13:08:52Z</time>
      </trkpt>
      <trkpt lat="46.07479" lon="5.68551">
        <ele>1058.2</ele>
        <time>2026-05-10T13:08:53Z</time>
      </trkpt>
      <trkpt lat="46.07473" lon="5.68546">
        <ele>1057.8</ele>
        <time>2026-05-10T13:08:54Z</time>
      </trkpt>
      <trkpt lat="46.07467" lon="5.68541">
        <ele>1057.4</ele>
        <time>2026-05-10T13:08:55Z</time>
      </trkpt>
      <trkpt lat="46.07462" lon="5.68536">
        <ele>1056.8</ele>
        <time>2026-05-10T13:08:56Z</time>
      </trkpt>
      <trkpt lat="46.07456" lon="5.68531">
        <ele>1056.6</ele>
        <time>2026-05-10T13:08:57Z</time>
      </trkpt>
      <trkpt lat="46.0745" lon="5.68526">
        <ele>1056.2</ele>
        <time>2026-05-10T13:08:58Z</time>
      </trkpt>
      <trkpt lat="46.07444" lon="5.68521">
        <ele>1055.6</ele>
        <time>2026-05-10T13:08:59Z</time>
      </trkpt>
      <trkpt lat="46.07438" lon="5.68516">
        <ele>1055</ele>
        <time>2026-05-10T13:09:00Z</time>
      </trkpt>
      <trkpt lat="46.07432" lon="5.68511">
        <ele>1054.4</ele>
        <time>2026-05-10T13:09:01Z</time>
      </trkpt>
      <trkpt lat="46.07426" lon="5.68506">
        <ele>1053.8</ele>
        <time>2026-05-10T13:09:02Z</time>
      </trkpt>
      <trkpt lat="46.07419" lon="5.68501">
        <ele>1053.4</ele>
        <time>2026-05-10T13:09:03Z</time>
      </trkpt>
      <trkpt lat="46.07413" lon="5.68495">
        <ele>1053</ele>
        <time>2026-05-10T13:09:04Z</time>
      </trkpt>
      <trkpt lat="46.07407" lon="5.6849">
        <ele>1052.6</ele>
        <time>2026-05-10T13:09:05Z</time>
      </trkpt>
      <trkpt lat="46.07401" lon="5.68484">
        <ele>1052</ele>
        <time>2026-05-10T13:09:06Z</time>
      </trkpt>
      <trkpt lat="46.07395" lon="5.68479">
        <ele>1051.8</ele>
        <time>2026-05-10T13:09:07Z</time>
      </trkpt>
      <trkpt lat="46.07389" lon="5.68474">
        <ele>1051.6</ele>
        <time>2026-05-10T13:09:08Z</time>
      </trkpt>
      <trkpt lat="46.07383" lon="5.68468">
        <ele>1051</ele>
        <time>2026-05-10T13:09:09Z</time>
      </trkpt>
      <trkpt lat="46.07377" lon="5.68463">
        <ele>1050.6</ele>
        <time>2026-05-10T13:09:10Z</time>
      </trkpt>
      <trkpt lat="46.0737" lon="5.68457">
        <ele>1050</ele>
        <time>2026-05-10T13:09:11Z</time>
      </trkpt>
      <trkpt lat="46.07364" lon="5.68451">
        <ele>1049.2</ele>
        <time>2026-05-10T13:09:12Z</time>
      </trkpt>
      <trkpt lat="46.07358" lon="5.68441">
        <ele>1048.2</ele>
        <time>2026-05-10T13:09:13Z</time>
      </trkpt>
      <trkpt lat="46.07352" lon="5.68433">
        <ele>1048.2</ele>
        <time>2026-05-10T13:09:14Z</time>
      </trkpt>
      <trkpt lat="46.07347" lon="5.68423">
        <ele>1047.8</ele>
        <time>2026-05-10T13:09:15Z</time>
      </trkpt>
      <trkpt lat="46.07342" lon="5.68412">
        <ele>1047.2</ele>
        <time>2026-05-10T13:09:16Z</time>
      </trkpt>
      <trkpt lat="46.07337" lon="5.68401">
        <ele>1046.6</ele>
        <time>2026-05-10T13:09:17Z</time>
      </trkpt>
      <trkpt lat="46.07332" lon="5.68389">
        <ele>1045.8</ele>
        <time>2026-05-10T13:09:18Z</time>
      </trkpt>
      <trkpt lat="46.07327" lon="5.68377">
        <ele>1044.6</ele>
        <time>2026-05-10T13:09:19Z</time>
      </trkpt>
      <trkpt lat="46.07323" lon="5.68365">
        <ele>1043.2</ele>
        <time>2026-05-10T13:09:20Z</time>
      </trkpt>
      <trkpt lat="46.07319" lon="5.68352">
        <ele>1042</ele>
        <time>2026-05-10T13:09:21Z</time>
      </trkpt>
      <trkpt lat="46.07315" lon="5.68339">
        <ele>1041</ele>
        <time>2026-05-10T13:09:22Z</time>
      </trkpt>
      <trkpt lat="46.07313" lon="5.68326">
        <ele>1040.4</ele>
        <time>2026-05-10T13:09:23Z</time>
      </trkpt>
      <trkpt lat="46.07311" lon="5.68312">
        <ele>1039.6</ele>
        <time>2026-05-10T13:09:24Z</time>
      </trkpt>
      <trkpt lat="46.0731" lon="5.68298">
        <ele>1039.2</ele>
        <time>2026-05-10T13:09:25Z</time>
      </trkpt>
      <trkpt lat="46.07309" lon="5.68283">
        <ele>1038.6</ele>
        <time>2026-05-10T13:09:26Z</time>
      </trkpt>
      <trkpt lat="46.07308" lon="5.68268">
        <ele>1037.4</ele>
        <time>2026-05-10T13:09:27Z</time>
      </trkpt>
      <trkpt lat="46.07306" lon="5.68253">
        <ele>1036.8</ele>
        <time>2026-05-10T13:09:28Z</time>
      </trkpt>
      <trkpt lat="46.07303" lon="5.68239">
        <ele>1036.2</ele>
        <time>2026-05-10T13:09:29Z</time>
      </trkpt>
      <trkpt lat="46.073" lon="5.68224">
        <ele>1035.8</ele>
        <time>2026-05-10T13:09:30Z</time>
      </trkpt>
      <trkpt lat="46.07297" lon="5.68208">
        <ele>1035.2</ele>
        <time>2026-05-10T13:09:31Z</time>
      </trkpt>
      <trkpt lat="46.07294" lon="5.68192">
        <ele>1034.4</ele>
        <time>2026-05-10T13:09:32Z</time>
      </trkpt>
      <trkpt lat="46.0729" lon="5.68177">
        <ele>1033.4</ele>
        <time>2026-05-10T13:09:33Z</time>
      </trkpt>
      <trkpt lat="46.07287" lon="5.68161">
        <ele>1032.6</ele>
        <time>2026-05-10T13:09:34Z</time>
      </trkpt>
      <trkpt lat="46.07283" lon="5.68146">
        <ele>1031.4</ele>
        <time>2026-05-10T13:09:35Z</time>
      </trkpt>
      <trkpt lat="46.07279" lon="5.6813">
        <ele>1030.2</ele>
        <time>2026-05-10T13:09:36Z</time>
      </trkpt>
      <trkpt lat="46.07275" lon="5.68115">
        <ele>1029.4</ele>
        <time>2026-05-10T13:09:37Z</time>
      </trkpt>
      <trkpt lat="46.07271" lon="5.68101">
        <ele>1028.6</ele>
        <time>2026-05-10T13:09:38Z</time>
      </trkpt>
      <trkpt lat="46.07267" lon="5.68088">
        <ele>1027.8</ele>
        <time>2026-05-10T13:09:39Z</time>
      </trkpt>
      <trkpt lat="46.07262" lon="5.68075">
        <ele>1027.8</ele>
        <time>2026-05-10T13:09:40Z</time>
      </trkpt>
      <trkpt lat="46.07258" lon="5.68061">
        <ele>1027.2</ele>
        <time>2026-05-10T13:09:41Z</time>
      </trkpt>
      <trkpt lat="46.07255" lon="5.68047">
        <ele>1026.4</ele>
        <time>2026-05-10T13:09:42Z</time>
      </trkpt>
      <trkpt lat="46.07253" lon="5.68032">
        <ele>1025.6</ele>
        <time>2026-05-10T13:09:43Z</time>
      </trkpt>
      <trkpt lat="46.07251" lon="5.68017">
        <ele>1024.8</ele>
        <time>2026-05-10T13:09:44Z</time>
      </trkpt>
      <trkpt lat="46.07251" lon="5.68002">
        <ele>1024.2</ele>
        <time>2026-05-10T13:09:45Z</time>
      </trkpt>
      <trkpt lat="46.0725" lon="5.67987">
        <ele>1023.2</ele>
        <time>2026-05-10T13:09:46Z</time>
      </trkpt>
      <trkpt lat="46.0725" lon="5.67971">
        <ele>1022.2</ele>
        <time>2026-05-10T13:09:47Z</time>
      </trkpt>
      <trkpt lat="46.07249" lon="5.67956">
        <ele>1021.2</ele>
        <time>2026-05-10T13:09:48Z</time>
      </trkpt>
      <trkpt lat="46.07249" lon="5.6794">
        <ele>1020.6</ele>
        <time>2026-05-10T13:09:49Z</time>
      </trkpt>
      <trkpt lat="46.07249" lon="5.67925">
        <ele>1019.6</ele>
        <time>2026-05-10T13:09:50Z</time>
      </trkpt>
      <trkpt lat="46.0725" lon="5.67909">
        <ele>1018.4</ele>
        <time>2026-05-10T13:09:51Z</time>
      </trkpt>
      <trkpt lat="46.07252" lon="5.67893">
        <ele>1017.8</ele>
        <time>2026-05-10T13:09:52Z</time>
      </trkpt>
      <trkpt lat="46.07254" lon="5.67876">
        <ele>1017</ele>
        <time>2026-05-10T13:09:53Z</time>
      </trkpt>
      <trkpt lat="46.07255" lon="5.6786">
        <ele>1016</ele>
        <time>2026-05-10T13:09:54Z</time>
      </trkpt>
      <trkpt lat="46.07257" lon="5.67843">
        <ele>1014.8</ele>
        <time>2026-05-10T13:09:55Z</time>
      </trkpt>
      <trkpt lat="46.07258" lon="5.67827">
        <ele>1014.2</ele>
        <time>2026-05-10T13:09:56Z</time>
      </trkpt>
      <trkpt lat="46.07259" lon="5.67809">
        <ele>1013.2</ele>
        <time>2026-05-10T13:09:57Z</time>
      </trkpt>
      <trkpt lat="46.07259" lon="5.67793">
        <ele>1012</ele>
        <time>2026-05-10T13:09:58Z</time>
      </trkpt>
      <trkpt lat="46.07259" lon="5.67775">
        <ele>1010.8</ele>
        <time>2026-05-10T13:09:59Z</time>
      </trkpt>
      <trkpt lat="46.07257" lon="5.67758">
        <ele>1009.6</ele>
        <time>2026-05-10T13:10:00Z</time>
      </trkpt>
      <trkpt lat="46.07256" lon="5.67741">
        <ele>1008.4</ele>
        <time>2026-05-10T13:10:01Z</time>
      </trkpt>
      <trkpt lat="46.07255" lon="5.67724">
        <ele>1007.6</ele>
        <time>2026-05-10T13:10:02Z</time>
      </trkpt>
      <trkpt lat="46.07253" lon="5.67707">
        <ele>1006.6</ele>
        <time>2026-05-10T13:10:03Z</time>
      </trkpt>
      <trkpt lat="46.07252" lon="5.67689">
        <ele>1006</ele>
        <time>2026-05-10T13:10:04Z</time>
      </trkpt>
      <trkpt lat="46.07251" lon="5.6767">
        <ele>1005.4</ele>
        <time>2026-05-10T13:10:05Z</time>
      </trkpt>
      <trkpt lat="46.07249" lon="5.67653">
        <ele>1004.6</ele>
        <time>2026-05-10T13:10:06Z</time>
      </trkpt>
      <trkpt lat="46.07248" lon="5.67634">
        <ele>1003</ele>
        <time>2026-05-10T13:10:07Z</time>
      </trkpt>
      <trkpt lat="46.07246" lon="5.67617">
        <ele>1001.6</ele>
        <time>2026-05-10T13:10:08Z</time>
      </trkpt>
      <trkpt lat="46.07244" lon="5.676">
        <ele>1000.4</ele>
        <time>2026-05-10T13:10:09Z</time>
      </trkpt>
      <trkpt lat="46.07241" lon="5.67583">
        <ele>999.2</ele>
        <time>2026-05-10T13:10:10Z</time>
      </trkpt>
      <trkpt lat="46.07238" lon="5.67567">
        <ele>998.2</ele>
        <time>2026-05-10T13:10:11Z</time>
      </trkpt>
      <trkpt lat="46.07233" lon="5.67551">
        <ele>997.8</ele>
        <time>2026-05-10T13:10:12Z</time>
      </trkpt>
      <trkpt lat="46.07227" lon="5.67536">
        <ele>997</ele>
        <time>2026-05-10T13:10:13Z</time>
      </trkpt>
      <trkpt lat="46.0722" lon="5.67522">
        <ele>995.8</ele>
        <time>2026-05-10T13:10:14Z</time>
      </trkpt>
      <trkpt lat="46.07214" lon="5.67506">
        <ele>995.8</ele>
        <time>2026-05-10T13:10:15Z</time>
      </trkpt>
      <trkpt lat="46.07209" lon="5.67491">
        <ele>995</ele>
        <time>2026-05-10T13:10:16Z</time>
      </trkpt>
      <trkpt lat="46.07202" lon="5.67477">
        <ele>994</ele>
        <time>2026-05-10T13:10:17Z</time>
      </trkpt>
      <trkpt lat="46.07196" lon="5.67462">
        <ele>993</ele>
        <time>2026-05-10T13:10:18Z</time>
      </trkpt>
      <trkpt lat="46.0719" lon="5.67448">
        <ele>992.4</ele>
        <time>2026-05-10T13:10:19Z</time>
      </trkpt>
      <trkpt lat="46.07184" lon="5.67433">
        <ele>990.2</ele>
        <time>2026-05-10T13:10:20Z</time>
      </trkpt>
      <trkpt lat="46.07178" lon="5.67418">
        <ele>989.8</ele>
        <time>2026-05-10T13:10:21Z</time>
      </trkpt>
      <trkpt lat="46.07172" lon="5.67403">
        <ele>989</ele>
        <time>2026-05-10T13:10:22Z</time>
      </trkpt>
      <trkpt lat="46.07167" lon="5.67387">
        <ele>988</ele>
        <time>2026-05-10T13:10:23Z</time>
      </trkpt>
      <trkpt lat="46.07161" lon="5.67373">
        <ele>986.8</ele>
        <time>2026-05-10T13:10:24Z</time>
      </trkpt>
      <trkpt lat="46.07156" lon="5.67359">
        <ele>986</ele>
        <time>2026-05-10T13:10:25Z</time>
      </trkpt>
      <trkpt lat="46.0715" lon="5.67345">
        <ele>985.2</ele>
        <time>2026-05-10T13:10:26Z</time>
      </trkpt>
      <trkpt lat="46.07145" lon="5.67331">
        <ele>985</ele>
        <time>2026-05-10T13:10:27Z</time>
      </trkpt>
      <trkpt lat="46.07141" lon="5.67318">
        <ele>984.4</ele>
        <time>2026-05-10T13:10:28Z</time>
      </trkpt>
      <trkpt lat="46.07137" lon="5.67306">
        <ele>984.2</ele>
        <time>2026-05-10T13:10:29Z</time>
      </trkpt>
      <trkpt lat="46.07132" lon="5.67295">
        <ele>983.8</ele>
        <time>2026-05-10T13:10:30Z</time>
      </trkpt>
      <trkpt lat="46.07128" lon="5.67284">
        <ele>983.2</ele>
        <time>2026-05-10T13:10:31Z</time>
      </trkpt>
      <trkpt lat="46.07123" lon="5.67274">
        <ele>982.6</ele>
        <time>2026-05-10T13:10:32Z</time>
      </trkpt>
      <trkpt lat="46.07119" lon="5.67264">
        <ele>981.8</ele>
        <time>2026-05-10T13:10:33Z</time>
      </trkpt>
      <trkpt lat="46.07115" lon="5.67256">
        <ele>981.2</ele>
        <time>2026-05-10T13:10:34Z</time>
      </trkpt>
      <trkpt lat="46.0711" lon="5.67248">
        <ele>980.2</ele>
        <time>2026-05-10T13:10:35Z</time>
      </trkpt>
      <trkpt lat="46.07105" lon="5.67239">
        <ele>979.8</ele>
        <time>2026-05-10T13:10:36Z</time>
      </trkpt>
      <trkpt lat="46.071" lon="5.6723">
        <ele>979.2</ele>
        <time>2026-05-10T13:10:37Z</time>
      </trkpt>
      <trkpt lat="46.07095" lon="5.67221">
        <ele>978.6</ele>
        <time>2026-05-10T13:10:38Z</time>
      </trkpt>
      <trkpt lat="46.0709" lon="5.67212">
        <ele>978</ele>
        <time>2026-05-10T13:10:39Z</time>
      </trkpt>
      <trkpt lat="46.07087" lon="5.67202">
        <ele>977.2</ele>
        <time>2026-05-10T13:10:40Z</time>
      </trkpt>
      <trkpt lat="46.07086" lon="5.67191">
        <ele>976.4</ele>
        <time>2026-05-10T13:10:41Z</time>
      </trkpt>
      <trkpt lat="46.07087" lon="5.6718">
        <ele>975.8</ele>
        <time>2026-05-10T13:10:42Z</time>
      </trkpt>
      <trkpt lat="46.0709" lon="5.67169">
        <ele>975.2</ele>
        <time>2026-05-10T13:10:43Z</time>
      </trkpt>
      <trkpt lat="46.07095" lon="5.67158">
        <ele>974.6</ele>
        <time>2026-05-10T13:10:44Z</time>
      </trkpt>
      <trkpt lat="46.07099" lon="5.67148">
        <ele>974.2</ele>
        <time>2026-05-10T13:10:45Z</time>
      </trkpt>
      <trkpt lat="46.07104" lon="5.67138">
        <ele>973.6</ele>
        <time>2026-05-10T13:10:46Z</time>
      </trkpt>
      <trkpt lat="46.07108" lon="5.67128">
        <ele>973.2</ele>
        <time>2026-05-10T13:10:47Z</time>
      </trkpt>
      <trkpt lat="46.07113" lon="5.67118">
        <ele>972.6</ele>
        <time>2026-05-10T13:10:48Z</time>
      </trkpt>
      <trkpt lat="46.07117" lon="5.67108">
        <ele>971.6</ele>
        <time>2026-05-10T13:10:49Z</time>
      </trkpt>
      <trkpt lat="46.0712" lon="5.67096">
        <ele>970.6</ele>
        <time>2026-05-10T13:10:50Z</time>
      </trkpt>
      <trkpt lat="46.07121" lon="5.67084">
        <ele>970</ele>
        <time>2026-05-10T13:10:51Z</time>
      </trkpt>
      <trkpt lat="46.07119" lon="5.67072">
        <ele>968.8</ele>
        <time>2026-05-10T13:10:52Z</time>
      </trkpt>
      <trkpt lat="46.07116" lon="5.6706">
        <ele>968</ele>
        <time>2026-05-10T13:10:53Z</time>
      </trkpt>
      <trkpt lat="46.07111" lon="5.6705">
        <ele>967</ele>
        <time>2026-05-10T13:10:54Z</time>
      </trkpt>
      <trkpt lat="46.07104" lon="5.67041">
        <ele>966.4</ele>
        <time>2026-05-10T13:10:55Z</time>
      </trkpt>
      <trkpt lat="46.07097" lon="5.67033">
        <ele>965.4</ele>
        <time>2026-05-10T13:10:56Z</time>
      </trkpt>
      <trkpt lat="46.07088" lon="5.67026">
        <ele>964.4</ele>
        <time>2026-05-10T13:10:57Z</time>
      </trkpt>
      <trkpt lat="46.0708" lon="5.67021">
        <ele>963.2</ele>
        <time>2026-05-10T13:10:58Z</time>
      </trkpt>
      <trkpt lat="46.07071" lon="5.67018">
        <ele>962.4</ele>
        <time>2026-05-10T13:10:59Z</time>
      </trkpt>
      <trkpt lat="46.07062" lon="5.67017">
        <ele>961.4</ele>
        <time>2026-05-10T13:11:00Z</time>
      </trkpt>
      <trkpt lat="46.07053" lon="5.67017">
        <ele>960.6</ele>
        <time>2026-05-10T13:11:01Z</time>
      </trkpt>
      <trkpt lat="46.07045" lon="5.67018">
        <ele>959.6</ele>
        <time>2026-05-10T13:11:02Z</time>
      </trkpt>
      <trkpt lat="46.07036" lon="5.67019">
        <ele>959</ele>
        <time>2026-05-10T13:11:03Z</time>
      </trkpt>
      <trkpt lat="46.07028" lon="5.67019">
        <ele>958.4</ele>
        <time>2026-05-10T13:11:04Z</time>
      </trkpt>
      <trkpt lat="46.07018" lon="5.67019">
        <ele>957.8</ele>
        <time>2026-05-10T13:11:05Z</time>
      </trkpt>
      <trkpt lat="46.0701" lon="5.67018">
        <ele>957.2</ele>
        <time>2026-05-10T13:11:06Z</time>
      </trkpt>
      <trkpt lat="46.07002" lon="5.67018">
        <ele>956.8</ele>
        <time>2026-05-10T13:11:07Z</time>
      </trkpt>
      <trkpt lat="46.06994" lon="5.67018">
        <ele>956.6</ele>
        <time>2026-05-10T13:11:08Z</time>
      </trkpt>
      <trkpt lat="46.06986" lon="5.67019">
        <ele>956.6</ele>
        <time>2026-05-10T13:11:09Z</time>
      </trkpt>
      <trkpt lat="46.06978" lon="5.6702">
        <ele>956.2</ele>
        <time>2026-05-10T13:11:10Z</time>
      </trkpt>
      <trkpt lat="46.06963" lon="5.67027">
        <ele>955.8</ele>
        <time>2026-05-10T13:11:11Z</time>
      </trkpt>
      <trkpt lat="46.06956" lon="5.6703">
        <ele>955.4</ele>
        <time>2026-05-10T13:11:12Z</time>
      </trkpt>
      <trkpt lat="46.0695" lon="5.67034">
        <ele>955.2</ele>
        <time>2026-05-10T13:11:13Z</time>
      </trkpt>
      <trkpt lat="46.06943" lon="5.67038">
        <ele>955.2</ele>
        <time>2026-05-10T13:11:14Z</time>
      </trkpt>
      <trkpt lat="46.06936" lon="5.67041">
        <ele>954.8</ele>
        <time>2026-05-10T13:11:15Z</time>
      </trkpt>
      <trkpt lat="46.06929" lon="5.67045">
        <ele>954.4</ele>
        <time>2026-05-10T13:11:16Z</time>
      </trkpt>
      <trkpt lat="46.06922" lon="5.67046">
        <ele>954</ele>
        <time>2026-05-10T13:11:17Z</time>
      </trkpt>
      <trkpt lat="46.06915" lon="5.67047">
        <ele>954</ele>
        <time>2026-05-10T13:11:18Z</time>
      </trkpt>
      <trkpt lat="46.06908" lon="5.67047">
        <ele>953.6</ele>
        <time>2026-05-10T13:11:19Z</time>
      </trkpt>
      <trkpt lat="46.069" lon="5.67045">
        <ele>953.2</ele>
        <time>2026-05-10T13:11:20Z</time>
      </trkpt>
      <trkpt lat="46.06894" lon="5.67043">
        <ele>953.6</ele>
        <time>2026-05-10T13:11:21Z</time>
      </trkpt>
      <trkpt lat="46.06888" lon="5.67038">
        <ele>953</ele>
        <time>2026-05-10T13:11:22Z</time>
      </trkpt>
      <trkpt lat="46.06882" lon="5.67032">
        <ele>953</ele>
        <time>2026-05-10T13:11:23Z</time>
      </trkpt>
      <trkpt lat="46.06876" lon="5.67028">
        <ele>953</ele>
        <time>2026-05-10T13:11:24Z</time>
      </trkpt>
      <trkpt lat="46.06871" lon="5.67025">
        <ele>953</ele>
        <time>2026-05-10T13:11:25Z</time>
      </trkpt>
      <trkpt lat="46.06866" lon="5.67024">
        <ele>953</ele>
        <time>2026-05-10T13:11:26Z</time>
      </trkpt>
      <trkpt lat="46.06862" lon="5.67023">
        <ele>953</ele>
        <time>2026-05-10T13:11:27Z</time>
      </trkpt>
      <trkpt lat="46.06859" lon="5.67021">
        <ele>953</ele>
        <time>2026-05-10T13:11:28Z</time>
      </trkpt>
      <trkpt lat="46.06857" lon="5.67019">
        <ele>953.4</ele>
        <time>2026-05-10T13:11:29Z</time>
      </trkpt>
      <trkpt lat="46.06856" lon="5.67018">
        <ele>953.4</ele>
        <time>2026-05-10T13:11:30Z</time>
      </trkpt>
      <trkpt lat="46.06856" lon="5.67018">
        <ele>954</ele>
        <time>2026-05-10T13:11:31Z</time>
      </trkpt>
      <trkpt lat="46.06855" lon="5.67017">
        <ele>954.2</ele>
        <time>2026-05-10T13:11:32Z</time>
      </trkpt>
      <trkpt lat="46.06855" lon="5.67017">
        <ele>954.4</ele>
        <time>2026-05-10T13:11:33Z</time>
      </trkpt>
      <trkpt lat="46.06855" lon="5.67015">
        <ele>954.8</ele>
        <time>2026-05-10T13:12:36Z</time>
      </trkpt>
      <trkpt lat="46.06855" lon="5.67013">
        <ele>954.8</ele>
        <time>2026-05-10T13:12:37Z</time>
      </trkpt>
      <trkpt lat="46.06854" lon="5.6701">
        <ele>954.6</ele>
        <time>2026-05-10T13:12:38Z</time>
      </trkpt>
      <trkpt lat="46.06853" lon="5.67007">
        <ele>954.6</ele>
        <time>2026-05-10T13:12:39Z</time>
      </trkpt>
      <trkpt lat="46.06851" lon="5.67004">
        <ele>954.6</ele>
        <time>2026-05-10T13:12:40Z</time>
      </trkpt>
      <trkpt lat="46.06849" lon="5.67001">
        <ele>954.4</ele>
        <time>2026-05-10T13:12:41Z</time>
      </trkpt>
      <trkpt lat="46.06847" lon="5.66999">
        <ele>954.4</ele>
        <time>2026-05-10T13:12:42Z</time>
      </trkpt>
      <trkpt lat="46.06844" lon="5.66997">
        <ele>953.8</ele>
        <time>2026-05-10T13:12:43Z</time>
      </trkpt>
      <trkpt lat="46.06842" lon="5.66995">
        <ele>953.8</ele>
        <time>2026-05-10T13:12:44Z</time>
      </trkpt>
      <trkpt lat="46.0684" lon="5.66994">
        <ele>953.8</ele>
        <time>2026-05-10T13:12:45Z</time>
      </trkpt>
      <trkpt lat="46.06838" lon="5.66992">
        <ele>953.8</ele>
        <time>2026-05-10T13:12:46Z</time>
      </trkpt>
      <trkpt lat="46.06836" lon="5.66991">
        <ele>953.8</ele>
        <time>2026-05-10T13:12:47Z</time>
      </trkpt>
      <trkpt lat="46.06834" lon="5.6699">
        <ele>953.8</ele>
        <time>2026-05-10T13:12:48Z</time>
      </trkpt>
      <trkpt lat="46.06832" lon="5.66989">
        <ele>953.8</ele>
        <time>2026-05-10T13:12:49Z</time>
      </trkpt>
      <trkpt lat="46.0683" lon="5.66986">
        <ele>953.8</ele>
        <time>2026-05-10T13:12:50Z</time>
      </trkpt>
      <trkpt lat="46.06829" lon="5.66983">
        <ele>953.8</ele>
        <time>2026-05-10T13:12:51Z</time>
      </trkpt>
      <trkpt lat="46.06827" lon="5.66981">
        <ele>953.8</ele>
        <time>2026-05-10T13:12:52Z</time>
      </trkpt>
      <trkpt lat="46.06825" lon="5.66978">
        <ele>953.8</ele>
        <time>2026-05-10T13:12:53Z</time>
      </trkpt>
      <trkpt lat="46.06822" lon="5.66977">
        <ele>953.8</ele>
        <time>2026-05-10T13:12:54Z</time>
      </trkpt>
      <trkpt lat="46.0682" lon="5.66974">
        <ele>953.8</ele>
        <time>2026-05-10T13:12:55Z</time>
      </trkpt>
      <trkpt lat="46.06817" lon="5.66972">
        <ele>953.8</ele>
        <time>2026-05-10T13:12:56Z</time>
      </trkpt>
      <trkpt lat="46.06814" lon="5.66969">
        <ele>953.8</ele>
        <time>2026-05-10T13:12:57Z</time>
      </trkpt>
      <trkpt lat="46.06811" lon="5.66967">
        <ele>953.8</ele>
        <time>2026-05-10T13:12:58Z</time>
      </trkpt>
      <trkpt lat="46.06809" lon="5.66965">
        <ele>953.8</ele>
        <time>2026-05-10T13:12:59Z</time>
      </trkpt>
      <trkpt lat="46.06806" lon="5.66962">
        <ele>953.8</ele>
        <time>2026-05-10T13:13:00Z</time>
      </trkpt>
      <trkpt lat="46.06803" lon="5.6696">
        <ele>953.8</ele>
        <time>2026-05-10T13:13:01Z</time>
      </trkpt>
      <trkpt lat="46.06801" lon="5.66958">
        <ele>953.8</ele>
        <time>2026-05-10T13:13:02Z</time>
      </trkpt>
      <trkpt lat="46.06798" lon="5.66955">
        <ele>953.8</ele>
        <time>2026-05-10T13:13:03Z</time>
      </trkpt>
      <trkpt lat="46.06795" lon="5.66953">
        <ele>953.8</ele>
        <time>2026-05-10T13:13:04Z</time>
      </trkpt>
      <trkpt lat="46.06792" lon="5.6695">
        <ele>953.8</ele>
        <time>2026-05-10T13:13:05Z</time>
      </trkpt>
      <trkpt lat="46.06789" lon="5.66948">
        <ele>953.8</ele>
        <time>2026-05-10T13:13:06Z</time>
      </trkpt>
      <trkpt lat="46.06786" lon="5.66945">
        <ele>953.8</ele>
        <time>2026-05-10T13:13:07Z</time>
      </trkpt>
      <trkpt lat="46.06783" lon="5.66942">
        <ele>954.2</ele>
        <time>2026-05-10T13:13:08Z</time>
      </trkpt>
      <trkpt lat="46.0678" lon="5.6694">
        <ele>954.2</ele>
        <time>2026-05-10T13:13:09Z</time>
      </trkpt>
      <trkpt lat="46.06777" lon="5.66937">
        <ele>954.2</ele>
        <time>2026-05-10T13:13:10Z</time>
      </trkpt>
      <trkpt lat="46.06774" lon="5.66935">
        <ele>954.2</ele>
        <time>2026-05-10T13:13:11Z</time>
      </trkpt>
      <trkpt lat="46.06771" lon="5.66932">
        <ele>954.4</ele>
        <time>2026-05-10T13:13:12Z</time>
      </trkpt>
      <trkpt lat="46.06767" lon="5.6693">
        <ele>954.4</ele>
        <time>2026-05-10T13:13:13Z</time>
      </trkpt>
      <trkpt lat="46.06764" lon="5.66927">
        <ele>954.4</ele>
        <time>2026-05-10T13:13:14Z</time>
      </trkpt>
      <trkpt lat="46.06761" lon="5.66925">
        <ele>954.4</ele>
        <time>2026-05-10T13:13:15Z</time>
      </trkpt>
      <trkpt lat="46.06757" lon="5.66923">
        <ele>954.4</ele>
        <time>2026-05-10T13:13:16Z</time>
      </trkpt>
      <trkpt lat="46.06754" lon="5.66921">
        <ele>954.4</ele>
        <time>2026-05-10T13:13:17Z</time>
      </trkpt>
      <trkpt lat="46.0675" lon="5.66918">
        <ele>954.2</ele>
        <time>2026-05-10T13:13:18Z</time>
      </trkpt>
      <trkpt lat="46.06747" lon="5.66915">
        <ele>954.2</ele>
        <time>2026-05-10T13:13:19Z</time>
      </trkpt>
      <trkpt lat="46.06743" lon="5.66912">
        <ele>953.8</ele>
        <time>2026-05-10T13:13:20Z</time>
      </trkpt>
      <trkpt lat="46.06739" lon="5.6691">
        <ele>953.6</ele>
        <time>2026-05-10T13:13:21Z</time>
      </trkpt>
      <trkpt lat="46.06734" lon="5.66908">
        <ele>953.6</ele>
        <time>2026-05-10T13:13:22Z</time>
      </trkpt>
      <trkpt lat="46.06729" lon="5.66905">
        <ele>953</ele>
        <time>2026-05-10T13:13:23Z</time>
      </trkpt>
      <trkpt lat="46.06724" lon="5.66903">
        <ele>952.6</ele>
        <time>2026-05-10T13:13:24Z</time>
      </trkpt>
      <trkpt lat="46.06718" lon="5.669">
        <ele>952.2</ele>
        <time>2026-05-10T13:13:25Z</time>
      </trkpt>
      <trkpt lat="46.06712" lon="5.66897">
        <ele>951.8</ele>
        <time>2026-05-10T13:13:26Z</time>
      </trkpt>
      <trkpt lat="46.06706" lon="5.66894">
        <ele>951.2</ele>
        <time>2026-05-10T13:13:27Z</time>
      </trkpt>
      <trkpt lat="46.067" lon="5.66892">
        <ele>951.2</ele>
        <time>2026-05-10T13:13:28Z</time>
      </trkpt>
      <trkpt lat="46.06693" lon="5.66889">
        <ele>950.8</ele>
        <time>2026-05-10T13:13:29Z</time>
      </trkpt>
      <trkpt lat="46.06687" lon="5.66886">
        <ele>950.4</ele>
        <time>2026-05-10T13:13:30Z</time>
      </trkpt>
      <trkpt lat="46.0668" lon="5.66883">
        <ele>950</ele>
        <time>2026-05-10T13:13:31Z</time>
      </trkpt>
      <trkpt lat="46.06673" lon="5.6688">
        <ele>949.6</ele>
        <time>2026-05-10T13:13:32Z</time>
      </trkpt>
      <trkpt lat="46.06667" lon="5.66876">
        <ele>949.4</ele>
        <time>2026-05-10T13:13:33Z</time>
      </trkpt>
      <trkpt lat="46.0666" lon="5.66873">
        <ele>949</ele>
        <time>2026-05-10T13:13:34Z</time>
      </trkpt>
      <trkpt lat="46.06653" lon="5.6687">
        <ele>949</ele>
        <time>2026-05-10T13:13:35Z</time>
      </trkpt>
      <trkpt lat="46.06646" lon="5.66867">
        <ele>948.8</ele>
        <time>2026-05-10T13:13:36Z</time>
      </trkpt>
      <trkpt lat="46.06638" lon="5.66865">
        <ele>948.8</ele>
        <time>2026-05-10T13:13:37Z</time>
      </trkpt>
      <trkpt lat="46.06631" lon="5.66862">
        <ele>948.4</ele>
        <time>2026-05-10T13:13:38Z</time>
      </trkpt>
      <trkpt lat="46.06623" lon="5.66859">
        <ele>948.4</ele>
        <time>2026-05-10T13:13:39Z</time>
      </trkpt>
      <trkpt lat="46.06616" lon="5.66857">
        <ele>948</ele>
        <time>2026-05-10T13:13:40Z</time>
      </trkpt>
      <trkpt lat="46.06616" lon="5.66857">
        <ele>947.4</ele>
        <time>2026-05-10T13:13:41Z</time>
      </trkpt>
      <trkpt lat="46.06616" lon="5.66857">
        <ele>947.4</ele>
        <time>2026-05-10T13:13:42Z</time>
      </trkpt>
      <trkpt lat="46.06589" lon="5.66847">
        <ele>947.4</ele>
        <time>2026-05-10T13:13:44Z</time>
      </trkpt>
      <trkpt lat="46.06583" lon="5.66845">
        <ele>947.4</ele>
        <time>2026-05-10T13:13:45Z</time>
      </trkpt>
      <trkpt lat="46.06576" lon="5.66842">
        <ele>947.4</ele>
        <time>2026-05-10T13:13:46Z</time>
      </trkpt>
      <trkpt lat="46.0657" lon="5.6684">
        <ele>947.6</ele>
        <time>2026-05-10T13:13:47Z</time>
      </trkpt>
      <trkpt lat="46.06563" lon="5.66837">
        <ele>947.6</ele>
        <time>2026-05-10T13:13:48Z</time>
      </trkpt>
      <trkpt lat="46.06557" lon="5.66834">
        <ele>947.6</ele>
        <time>2026-05-10T13:13:49Z</time>
      </trkpt>
      <trkpt lat="46.06551" lon="5.6683">
        <ele>947.2</ele>
        <time>2026-05-10T13:13:50Z</time>
      </trkpt>
      <trkpt lat="46.06545" lon="5.66827">
        <ele>947.2</ele>
        <time>2026-05-10T13:13:51Z</time>
      </trkpt>
      <trkpt lat="46.06538" lon="5.66825">
        <ele>947.2</ele>
        <time>2026-05-10T13:13:52Z</time>
      </trkpt>
      <trkpt lat="46.06532" lon="5.66822">
        <ele>947.4</ele>
        <time>2026-05-10T13:13:53Z</time>
      </trkpt>
      <trkpt lat="46.06525" lon="5.66819">
        <ele>947.4</ele>
        <time>2026-05-10T13:13:54Z</time>
      </trkpt>
      <trkpt lat="46.06518" lon="5.66816">
        <ele>947.4</ele>
        <time>2026-05-10T13:13:55Z</time>
      </trkpt>
      <trkpt lat="46.06511" lon="5.66813">
        <ele>947.4</ele>
        <time>2026-05-10T13:13:56Z</time>
      </trkpt>
      <trkpt lat="46.06505" lon="5.66811">
        <ele>947.2</ele>
        <time>2026-05-10T13:13:57Z</time>
      </trkpt>
      <trkpt lat="46.06498" lon="5.66807">
        <ele>947.2</ele>
        <time>2026-05-10T13:13:58Z</time>
      </trkpt>
      <trkpt lat="46.06491" lon="5.66804">
        <ele>946.8</ele>
        <time>2026-05-10T13:13:59Z</time>
      </trkpt>
      <trkpt lat="46.06484" lon="5.66801">
        <ele>946.6</ele>
        <time>2026-05-10T13:14:00Z</time>
      </trkpt>
      <trkpt lat="46.06477" lon="5.66798">
        <ele>946.4</ele>
        <time>2026-05-10T13:14:01Z</time>
      </trkpt>
      <trkpt lat="46.0647" lon="5.66795">
        <ele>946.4</ele>
        <time>2026-05-10T13:14:02Z</time>
      </trkpt>
      <trkpt lat="46.06463" lon="5.66792">
        <ele>946.2</ele>
        <time>2026-05-10T13:14:03Z</time>
      </trkpt>
      <trkpt lat="46.06456" lon="5.66788">
        <ele>946.2</ele>
        <time>2026-05-10T13:14:04Z</time>
      </trkpt>
      <trkpt lat="46.0645" lon="5.66785">
        <ele>945.6</ele>
        <time>2026-05-10T13:14:05Z</time>
      </trkpt>
      <trkpt lat="46.06443" lon="5.66781">
        <ele>945.6</ele>
        <time>2026-05-10T13:14:06Z</time>
      </trkpt>
      <trkpt lat="46.0643" lon="5.66773">
        <ele>945.6</ele>
        <time>2026-05-10T13:14:07Z</time>
      </trkpt>
      <trkpt lat="46.06424" lon="5.66769">
        <ele>945.6</ele>
        <time>2026-05-10T13:14:08Z</time>
      </trkpt>
      <trkpt lat="46.06417" lon="5.66764">
        <ele>945.4</ele>
        <time>2026-05-10T13:14:09Z</time>
      </trkpt>
      <trkpt lat="46.06412" lon="5.6676">
        <ele>945.4</ele>
        <time>2026-05-10T13:14:10Z</time>
      </trkpt>
      <trkpt lat="46.06407" lon="5.66756">
        <ele>945.4</ele>
        <time>2026-05-10T13:14:11Z</time>
      </trkpt>
      <trkpt lat="46.06401" lon="5.66752">
        <ele>945.4</ele>
        <time>2026-05-10T13:14:12Z</time>
      </trkpt>
      <trkpt lat="46.06396" lon="5.66748">
        <ele>945.6</ele>
        <time>2026-05-10T13:14:13Z</time>
      </trkpt>
      <trkpt lat="46.06391" lon="5.66745">
        <ele>946</ele>
        <time>2026-05-10T13:14:14Z</time>
      </trkpt>
      <trkpt lat="46.06386" lon="5.66741">
        <ele>946</ele>
        <time>2026-05-10T13:14:15Z</time>
      </trkpt>
      <trkpt lat="46.06382" lon="5.66738">
        <ele>946.4</ele>
        <time>2026-05-10T13:14:16Z</time>
      </trkpt>
      <trkpt lat="46.06377" lon="5.66734">
        <ele>946.4</ele>
        <time>2026-05-10T13:14:17Z</time>
      </trkpt>
      <trkpt lat="46.06373" lon="5.66731">
        <ele>946.4</ele>
        <time>2026-05-10T13:14:18Z</time>
      </trkpt>
      <trkpt lat="46.06369" lon="5.66727">
        <ele>946.4</ele>
        <time>2026-05-10T13:14:19Z</time>
      </trkpt>
      <trkpt lat="46.06364" lon="5.66724">
        <ele>946.8</ele>
        <time>2026-05-10T13:14:20Z</time>
      </trkpt>
      <trkpt lat="46.06364" lon="5.66724">
        <ele>947</ele>
        <time>2026-05-10T13:14:21Z</time>
      </trkpt>
      <trkpt lat="46.0636" lon="5.66721">
        <ele>947</ele>
        <time>2026-05-10T13:14:22Z</time>
      </trkpt>
      <trkpt lat="46.06357" lon="5.66717">
        <ele>947.4</ele>
        <time>2026-05-10T13:14:23Z</time>
      </trkpt>
      <trkpt lat="46.06353" lon="5.66714">
        <ele>947.8</ele>
        <time>2026-05-10T13:14:24Z</time>
      </trkpt>
      <trkpt lat="46.0635" lon="5.66711">
        <ele>948</ele>
        <time>2026-05-10T13:14:25Z</time>
      </trkpt>
      <trkpt lat="46.06347" lon="5.66708">
        <ele>948.4</ele>
        <time>2026-05-10T13:14:26Z</time>
      </trkpt>
      <trkpt lat="46.06344" lon="5.66707">
        <ele>948.8</ele>
        <time>2026-05-10T13:14:27Z</time>
      </trkpt>
      <trkpt lat="46.06341" lon="5.66704">
        <ele>949</ele>
        <time>2026-05-10T13:14:28Z</time>
      </trkpt>
      <trkpt lat="46.06338" lon="5.66702">
        <ele>949.2</ele>
        <time>2026-05-10T13:14:29Z</time>
      </trkpt>
      <trkpt lat="46.06335" lon="5.66699">
        <ele>949.2</ele>
        <time>2026-05-10T13:14:30Z</time>
      </trkpt>
      <trkpt lat="46.06332" lon="5.66698">
        <ele>949.8</ele>
        <time>2026-05-10T13:14:31Z</time>
      </trkpt>
      <trkpt lat="46.06328" lon="5.66697">
        <ele>949.8</ele>
        <time>2026-05-10T13:14:32Z</time>
      </trkpt>
      <trkpt lat="46.06324" lon="5.66695">
        <ele>949.8</ele>
        <time>2026-05-10T13:14:33Z</time>
      </trkpt>
      <trkpt lat="46.06321" lon="5.66694">
        <ele>949.8</ele>
        <time>2026-05-10T13:14:34Z</time>
      </trkpt>
      <trkpt lat="46.06316" lon="5.66694">
        <ele>949.8</ele>
        <time>2026-05-10T13:14:35Z</time>
      </trkpt>
      <trkpt lat="46.06312" lon="5.66694">
        <ele>950</ele>
        <time>2026-05-10T13:14:36Z</time>
      </trkpt>
      <trkpt lat="46.06308" lon="5.66694">
        <ele>950</ele>
        <time>2026-05-10T13:14:37Z</time>
      </trkpt>
      <trkpt lat="46.06304" lon="5.66694">
        <ele>950</ele>
        <time>2026-05-10T13:14:38Z</time>
      </trkpt>
      <trkpt lat="46.06299" lon="5.66692">
        <ele>950</ele>
        <time>2026-05-10T13:14:39Z</time>
      </trkpt>
      <trkpt lat="46.06295" lon="5.66692">
        <ele>950</ele>
        <time>2026-05-10T13:14:40Z</time>
      </trkpt>
      <trkpt lat="46.06291" lon="5.66692">
        <ele>950</ele>
        <time>2026-05-10T13:14:41Z</time>
      </trkpt>
      <trkpt lat="46.06286" lon="5.66692">
        <ele>949.8</ele>
        <time>2026-05-10T13:14:42Z</time>
      </trkpt>
      <trkpt lat="46.06282" lon="5.66692">
        <ele>949.8</ele>
        <time>2026-05-10T13:14:43Z</time>
      </trkpt>
      <trkpt lat="46.06277" lon="5.66693">
        <ele>949.4</ele>
        <time>2026-05-10T13:14:44Z</time>
      </trkpt>
      <trkpt lat="46.06271" lon="5.66693">
        <ele>949.4</ele>
        <time>2026-05-10T13:14:45Z</time>
      </trkpt>
      <trkpt lat="46.06266" lon="5.66694">
        <ele>949</ele>
        <time>2026-05-10T13:14:46Z</time>
      </trkpt>
      <trkpt lat="46.0626" lon="5.66694">
        <ele>948.6</ele>
        <time>2026-05-10T13:14:47Z</time>
      </trkpt>
      <trkpt lat="46.06254" lon="5.66694">
        <ele>948.2</ele>
        <time>2026-05-10T13:14:48Z</time>
      </trkpt>
      <trkpt lat="46.06248" lon="5.66695">
        <ele>947.6</ele>
        <time>2026-05-10T13:14:49Z</time>
      </trkpt>
      <trkpt lat="46.06242" lon="5.66696">
        <ele>947.4</ele>
        <time>2026-05-10T13:14:50Z</time>
      </trkpt>
      <trkpt lat="46.06235" lon="5.66697">
        <ele>947.4</ele>
        <time>2026-05-10T13:14:51Z</time>
      </trkpt>
      <trkpt lat="46.06228" lon="5.66698">
        <ele>947.2</ele>
        <time>2026-05-10T13:14:52Z</time>
      </trkpt>
      <trkpt lat="46.06221" lon="5.667">
        <ele>947.2</ele>
        <time>2026-05-10T13:14:53Z</time>
      </trkpt>
      <trkpt lat="46.06214" lon="5.66703">
        <ele>946.6</ele>
        <time>2026-05-10T13:14:54Z</time>
      </trkpt>
      <trkpt lat="46.06207" lon="5.66706">
        <ele>946</ele>
        <time>2026-05-10T13:14:55Z</time>
      </trkpt>
      <trkpt lat="46.062" lon="5.66712">
        <ele>945.4</ele>
        <time>2026-05-10T13:14:56Z</time>
      </trkpt>
      <trkpt lat="46.06194" lon="5.66716">
        <ele>945</ele>
        <time>2026-05-10T13:14:57Z</time>
      </trkpt>
      <trkpt lat="46.06188" lon="5.66721">
        <ele>944.4</ele>
        <time>2026-05-10T13:14:58Z</time>
      </trkpt>
      <trkpt lat="46.06181" lon="5.66727">
        <ele>943.8</ele>
        <time>2026-05-10T13:14:59Z</time>
      </trkpt>
      <trkpt lat="46.06175" lon="5.66733">
        <ele>943.4</ele>
        <time>2026-05-10T13:15:00Z</time>
      </trkpt>
      <trkpt lat="46.06169" lon="5.66738">
        <ele>943.2</ele>
        <time>2026-05-10T13:15:01Z</time>
      </trkpt>
      <trkpt lat="46.06162" lon="5.66743">
        <ele>942.8</ele>
        <time>2026-05-10T13:15:02Z</time>
      </trkpt>
      <trkpt lat="46.06156" lon="5.66747">
        <ele>942.6</ele>
        <time>2026-05-10T13:15:03Z</time>
      </trkpt>
      <trkpt lat="46.06148" lon="5.66751">
        <ele>942.6</ele>
        <time>2026-05-10T13:15:04Z</time>
      </trkpt>
      <trkpt lat="46.06142" lon="5.66754">
        <ele>942.6</ele>
        <time>2026-05-10T13:15:05Z</time>
      </trkpt>
      <trkpt lat="46.06135" lon="5.66758">
        <ele>942.6</ele>
        <time>2026-05-10T13:15:06Z</time>
      </trkpt>
      <trkpt lat="46.06127" lon="5.66763">
        <ele>942.6</ele>
        <time>2026-05-10T13:15:07Z</time>
      </trkpt>
      <trkpt lat="46.0612" lon="5.66765">
        <ele>942.6</ele>
        <time>2026-05-10T13:15:08Z</time>
      </trkpt>
      <trkpt lat="46.06113" lon="5.66769">
        <ele>942.2</ele>
        <time>2026-05-10T13:15:09Z</time>
      </trkpt>
      <trkpt lat="46.06105" lon="5.66771">
        <ele>942.2</ele>
        <time>2026-05-10T13:15:10Z</time>
      </trkpt>
      <trkpt lat="46.06098" lon="5.66774">
        <ele>942.2</ele>
        <time>2026-05-10T13:15:11Z</time>
      </trkpt>
      <trkpt lat="46.06091" lon="5.66776">
        <ele>941.8</ele>
        <time>2026-05-10T13:15:12Z</time>
      </trkpt>
      <trkpt lat="46.06084" lon="5.6678">
        <ele>941.4</ele>
        <time>2026-05-10T13:15:13Z</time>
      </trkpt>
      <trkpt lat="46.06076" lon="5.66783">
        <ele>941</ele>
        <time>2026-05-10T13:15:14Z</time>
      </trkpt>
      <trkpt lat="46.06069" lon="5.66785">
        <ele>940.6</ele>
        <time>2026-05-10T13:15:15Z</time>
      </trkpt>
      <trkpt lat="46.06061" lon="5.66788">
        <ele>940.2</ele>
        <time>2026-05-10T13:15:16Z</time>
      </trkpt>
      <trkpt lat="46.06054" lon="5.6679">
        <ele>940.2</ele>
        <time>2026-05-10T13:15:17Z</time>
      </trkpt>
      <trkpt lat="46.06046" lon="5.66792">
        <ele>939.4</ele>
        <time>2026-05-10T13:15:18Z</time>
      </trkpt>
      <trkpt lat="46.06038" lon="5.66794">
        <ele>938.8</ele>
        <time>2026-05-10T13:15:19Z</time>
      </trkpt>
      <trkpt lat="46.06029" lon="5.66794">
        <ele>938.4</ele>
        <time>2026-05-10T13:15:20Z</time>
      </trkpt>
      <trkpt lat="46.06022" lon="5.66795">
        <ele>938.4</ele>
        <time>2026-05-10T13:15:21Z</time>
      </trkpt>
      <trkpt lat="46.06014" lon="5.66795">
        <ele>938</ele>
        <time>2026-05-10T13:15:22Z</time>
      </trkpt>
      <trkpt lat="46.06005" lon="5.66796">
        <ele>937.6</ele>
        <time>2026-05-10T13:15:23Z</time>
      </trkpt>
      <trkpt lat="46.05998" lon="5.66797">
        <ele>937.6</ele>
        <time>2026-05-10T13:15:24Z</time>
      </trkpt>
      <trkpt lat="46.05989" lon="5.66798">
        <ele>937</ele>
        <time>2026-05-10T13:15:25Z</time>
      </trkpt>
      <trkpt lat="46.05981" lon="5.66799">
        <ele>936.8</ele>
        <time>2026-05-10T13:15:26Z</time>
      </trkpt>
      <trkpt lat="46.05974" lon="5.668">
        <ele>936.6</ele>
        <time>2026-05-10T13:15:27Z</time>
      </trkpt>
      <trkpt lat="46.05965" lon="5.66802">
        <ele>936.2</ele>
        <time>2026-05-10T13:15:28Z</time>
      </trkpt>
      <trkpt lat="46.05957" lon="5.66804">
        <ele>936</ele>
        <time>2026-05-10T13:15:29Z</time>
      </trkpt>
      <trkpt lat="46.05949" lon="5.66806">
        <ele>935.4</ele>
        <time>2026-05-10T13:15:30Z</time>
      </trkpt>
      <trkpt lat="46.0594" lon="5.66808">
        <ele>935.2</ele>
        <time>2026-05-10T13:15:31Z</time>
      </trkpt>
      <trkpt lat="46.05932" lon="5.6681">
        <ele>934.8</ele>
        <time>2026-05-10T13:15:32Z</time>
      </trkpt>
      <trkpt lat="46.05924" lon="5.66812">
        <ele>934.2</ele>
        <time>2026-05-10T13:15:33Z</time>
      </trkpt>
      <trkpt lat="46.05916" lon="5.66813">
        <ele>934.4</ele>
        <time>2026-05-10T13:15:34Z</time>
      </trkpt>
      <trkpt lat="46.05907" lon="5.66815">
        <ele>934.4</ele>
        <time>2026-05-10T13:15:35Z</time>
      </trkpt>
      <trkpt lat="46.059" lon="5.66816">
        <ele>934.2</ele>
        <time>2026-05-10T13:15:36Z</time>
      </trkpt>
      <trkpt lat="46.05891" lon="5.66818">
        <ele>933.6</ele>
        <time>2026-05-10T13:15:37Z</time>
      </trkpt>
      <trkpt lat="46.05883" lon="5.66819">
        <ele>933.4</ele>
        <time>2026-05-10T13:15:38Z</time>
      </trkpt>
      <trkpt lat="46.05875" lon="5.6682">
        <ele>933</ele>
        <time>2026-05-10T13:15:39Z</time>
      </trkpt>
      <trkpt lat="46.05867" lon="5.66821">
        <ele>932.6</ele>
        <time>2026-05-10T13:15:40Z</time>
      </trkpt>
      <trkpt lat="46.05859" lon="5.66823">
        <ele>932.2</ele>
        <time>2026-05-10T13:15:41Z</time>
      </trkpt>
      <trkpt lat="46.05851" lon="5.66824">
        <ele>931.8</ele>
        <time>2026-05-10T13:15:42Z</time>
      </trkpt>
      <trkpt lat="46.05842" lon="5.66825">
        <ele>931.8</ele>
        <time>2026-05-10T13:15:43Z</time>
      </trkpt>
      <trkpt lat="46.05834" lon="5.66823">
        <ele>931.8</ele>
        <time>2026-05-10T13:15:44Z</time>
      </trkpt>
      <trkpt lat="46.05826" lon="5.66825">
        <ele>931.6</ele>
        <time>2026-05-10T13:15:45Z</time>
      </trkpt>
      <trkpt lat="46.05818" lon="5.66826">
        <ele>931.6</ele>
        <time>2026-05-10T13:15:46Z</time>
      </trkpt>
      <trkpt lat="46.0581" lon="5.66828">
        <ele>931.4</ele>
        <time>2026-05-10T13:15:47Z</time>
      </trkpt>
      <trkpt lat="46.05802" lon="5.6683">
        <ele>931</ele>
        <time>2026-05-10T13:15:48Z</time>
      </trkpt>
      <trkpt lat="46.05793" lon="5.66833">
        <ele>930.8</ele>
        <time>2026-05-10T13:15:49Z</time>
      </trkpt>
      <trkpt lat="46.05786" lon="5.66835">
        <ele>930.6</ele>
        <time>2026-05-10T13:15:50Z</time>
      </trkpt>
      <trkpt lat="46.05778" lon="5.66838">
        <ele>930.6</ele>
        <time>2026-05-10T13:15:51Z</time>
      </trkpt>
      <trkpt lat="46.0577" lon="5.6684">
        <ele>930</ele>
        <time>2026-05-10T13:15:52Z</time>
      </trkpt>
      <trkpt lat="46.05762" lon="5.66843">
        <ele>928.4</ele>
        <time>2026-05-10T13:15:53Z</time>
      </trkpt>
      <trkpt lat="46.05753" lon="5.66845">
        <ele>928.8</ele>
        <time>2026-05-10T13:15:54Z</time>
      </trkpt>
      <trkpt lat="46.05745" lon="5.66846">
        <ele>928.8</ele>
        <time>2026-05-10T13:15:55Z</time>
      </trkpt>
      <trkpt lat="46.05738" lon="5.66849">
        <ele>928.8</ele>
        <time>2026-05-10T13:15:56Z</time>
      </trkpt>
      <trkpt lat="46.0573" lon="5.66851">
        <ele>928.4</ele>
        <time>2026-05-10T13:15:57Z</time>
      </trkpt>
      <trkpt lat="46.05722" lon="5.66853">
        <ele>928.2</ele>
        <time>2026-05-10T13:15:58Z</time>
      </trkpt>
      <trkpt lat="46.05714" lon="5.66855">
        <ele>927.6</ele>
        <time>2026-05-10T13:15:59Z</time>
      </trkpt>
      <trkpt lat="46.05705" lon="5.66857">
        <ele>926</ele>
        <time>2026-05-10T13:16:00Z</time>
      </trkpt>
      <trkpt lat="46.05697" lon="5.66858">
        <ele>926</ele>
        <time>2026-05-10T13:16:01Z</time>
      </trkpt>
      <trkpt lat="46.05687" lon="5.66861">
        <ele>926</ele>
        <time>2026-05-10T13:16:02Z</time>
      </trkpt>
      <trkpt lat="46.0568" lon="5.66863">
        <ele>925.8</ele>
        <time>2026-05-10T13:16:03Z</time>
      </trkpt>
      <trkpt lat="46.05671" lon="5.66862">
        <ele>925.4</ele>
        <time>2026-05-10T13:16:04Z</time>
      </trkpt>
      <trkpt lat="46.05663" lon="5.66863">
        <ele>925</ele>
        <time>2026-05-10T13:16:05Z</time>
      </trkpt>
      <trkpt lat="46.05655" lon="5.66865">
        <ele>925</ele>
        <time>2026-05-10T13:16:06Z</time>
      </trkpt>
      <trkpt lat="46.05647" lon="5.66865">
        <ele>924.6</ele>
        <time>2026-05-10T13:16:07Z</time>
      </trkpt>
      <trkpt lat="46.05638" lon="5.66865">
        <ele>924.6</ele>
        <time>2026-05-10T13:16:08Z</time>
      </trkpt>
      <trkpt lat="46.05629" lon="5.66866">
        <ele>924</ele>
        <time>2026-05-10T13:16:09Z</time>
      </trkpt>
      <trkpt lat="46.05621" lon="5.66866">
        <ele>923.8</ele>
        <time>2026-05-10T13:16:10Z</time>
      </trkpt>
      <trkpt lat="46.05612" lon="5.66866">
        <ele>923.4</ele>
        <time>2026-05-10T13:16:11Z</time>
      </trkpt>
      <trkpt lat="46.05603" lon="5.66866">
        <ele>923.4</ele>
        <time>2026-05-10T13:16:12Z</time>
      </trkpt>
      <trkpt lat="46.05594" lon="5.66866">
        <ele>923.4</ele>
        <time>2026-05-10T13:16:13Z</time>
      </trkpt>
      <trkpt lat="46.05586" lon="5.66867">
        <ele>923.2</ele>
        <time>2026-05-10T13:16:14Z</time>
      </trkpt>
      <trkpt lat="46.05577" lon="5.66866">
        <ele>923.2</ele>
        <time>2026-05-10T13:16:15Z</time>
      </trkpt>
      <trkpt lat="46.05568" lon="5.66867">
        <ele>923</ele>
        <time>2026-05-10T13:16:16Z</time>
      </trkpt>
      <trkpt lat="46.0556" lon="5.66867">
        <ele>922.8</ele>
        <time>2026-05-10T13:16:17Z</time>
      </trkpt>
      <trkpt lat="46.05552" lon="5.66867">
        <ele>922.8</ele>
        <time>2026-05-10T13:16:18Z</time>
      </trkpt>
      <trkpt lat="46.05543" lon="5.66868">
        <ele>922.4</ele>
        <time>2026-05-10T13:16:19Z</time>
      </trkpt>
      <trkpt lat="46.05535" lon="5.66868">
        <ele>922.4</ele>
        <time>2026-05-10T13:16:20Z</time>
      </trkpt>
      <trkpt lat="46.05526" lon="5.66869">
        <ele>922.2</ele>
        <time>2026-05-10T13:16:21Z</time>
      </trkpt>
      <trkpt lat="46.05511" lon="5.66869">
        <ele>922.2</ele>
        <time>2026-05-10T13:16:22Z</time>
      </trkpt>
      <trkpt lat="46.05503" lon="5.66869">
        <ele>922.2</ele>
        <time>2026-05-10T13:16:23Z</time>
      </trkpt>
      <trkpt lat="46.05495" lon="5.66869">
        <ele>922.2</ele>
        <time>2026-05-10T13:16:24Z</time>
      </trkpt>
      <trkpt lat="46.05487" lon="5.6687">
        <ele>922</ele>
        <time>2026-05-10T13:16:25Z</time>
      </trkpt>
      <trkpt lat="46.05479" lon="5.66871">
        <ele>922</ele>
        <time>2026-05-10T13:16:26Z</time>
      </trkpt>
      <trkpt lat="46.05471" lon="5.66872">
        <ele>921.6</ele>
        <time>2026-05-10T13:16:27Z</time>
      </trkpt>
      <trkpt lat="46.05464" lon="5.66873">
        <ele>921.6</ele>
        <time>2026-05-10T13:16:28Z</time>
      </trkpt>
      <trkpt lat="46.05456" lon="5.66872">
        <ele>921.4</ele>
        <time>2026-05-10T13:16:29Z</time>
      </trkpt>
      <trkpt lat="46.0545" lon="5.66873">
        <ele>921.4</ele>
        <time>2026-05-10T13:16:30Z</time>
      </trkpt>
      <trkpt lat="46.05442" lon="5.66873">
        <ele>921.4</ele>
        <time>2026-05-10T13:16:31Z</time>
      </trkpt>
      <trkpt lat="46.05435" lon="5.66874">
        <ele>921.4</ele>
        <time>2026-05-10T13:16:32Z</time>
      </trkpt>
      <trkpt lat="46.05428" lon="5.66874">
        <ele>921.4</ele>
        <time>2026-05-10T13:16:33Z</time>
      </trkpt>
      <trkpt lat="46.05421" lon="5.66874">
        <ele>921.4</ele>
        <time>2026-05-10T13:16:34Z</time>
      </trkpt>
      <trkpt lat="46.05415" lon="5.66875">
        <ele>921.8</ele>
        <time>2026-05-10T13:16:35Z</time>
      </trkpt>
      <trkpt lat="46.05408" lon="5.66875">
        <ele>921.8</ele>
        <time>2026-05-10T13:16:36Z</time>
      </trkpt>
      <trkpt lat="46.05402" lon="5.66876">
        <ele>921.8</ele>
        <time>2026-05-10T13:16:37Z</time>
      </trkpt>
      <trkpt lat="46.05395" lon="5.66876">
        <ele>921.8</ele>
        <time>2026-05-10T13:16:38Z</time>
      </trkpt>
      <trkpt lat="46.05388" lon="5.66876">
        <ele>921.8</ele>
        <time>2026-05-10T13:16:39Z</time>
      </trkpt>
      <trkpt lat="46.05382" lon="5.66876">
        <ele>921.8</ele>
        <time>2026-05-10T13:16:40Z</time>
      </trkpt>
      <trkpt lat="46.05375" lon="5.66876">
        <ele>921.8</ele>
        <time>2026-05-10T13:16:41Z</time>
      </trkpt>
      <trkpt lat="46.05369" lon="5.66877">
        <ele>921.6</ele>
        <time>2026-05-10T13:16:42Z</time>
      </trkpt>
      <trkpt lat="46.05362" lon="5.66878">
        <ele>921.2</ele>
        <time>2026-05-10T13:16:43Z</time>
      </trkpt>
      <trkpt lat="46.05355" lon="5.66879">
        <ele>921.2</ele>
        <time>2026-05-10T13:16:44Z</time>
      </trkpt>
      <trkpt lat="46.05348" lon="5.6688">
        <ele>921.2</ele>
        <time>2026-05-10T13:16:45Z</time>
      </trkpt>
      <trkpt lat="46.05342" lon="5.66881">
        <ele>921.2</ele>
        <time>2026-05-10T13:16:46Z</time>
      </trkpt>
      <trkpt lat="46.05336" lon="5.66883">
        <ele>921.2</ele>
        <time>2026-05-10T13:16:47Z</time>
      </trkpt>
      <trkpt lat="46.05329" lon="5.66885">
        <ele>921.2</ele>
        <time>2026-05-10T13:16:48Z</time>
      </trkpt>
      <trkpt lat="46.05323" lon="5.66887">
        <ele>921.2</ele>
        <time>2026-05-10T13:16:49Z</time>
      </trkpt>
      <trkpt lat="46.05323" lon="5.66887">
        <ele>921.2</ele>
        <time>2026-05-10T13:16:50Z</time>
      </trkpt>
      <trkpt lat="46.05317" lon="5.66889">
        <ele>921</ele>
        <time>2026-05-10T13:16:51Z</time>
      </trkpt>
      <trkpt lat="46.05311" lon="5.66892">
        <ele>921</ele>
        <time>2026-05-10T13:16:52Z</time>
      </trkpt>
      <trkpt lat="46.05306" lon="5.66896">
        <ele>921</ele>
        <time>2026-05-10T13:16:53Z</time>
      </trkpt>
      <trkpt lat="46.05301" lon="5.66898">
        <ele>921</ele>
        <time>2026-05-10T13:16:54Z</time>
      </trkpt>
      <trkpt lat="46.05296" lon="5.66901">
        <ele>921</ele>
        <time>2026-05-10T13:16:55Z</time>
      </trkpt>
      <trkpt lat="46.0529" lon="5.66902">
        <ele>921</ele>
        <time>2026-05-10T13:16:56Z</time>
      </trkpt>
      <trkpt lat="46.05286" lon="5.66902">
        <ele>921</ele>
        <time>2026-05-10T13:16:57Z</time>
      </trkpt>
      <trkpt lat="46.05281" lon="5.669">
        <ele>921.2</ele>
        <time>2026-05-10T13:16:58Z</time>
      </trkpt>
      <trkpt lat="46.05276" lon="5.66897">
        <ele>921</ele>
        <time>2026-05-10T13:16:59Z</time>
      </trkpt>
      <trkpt lat="46.05273" lon="5.66893">
        <ele>921</ele>
        <time>2026-05-10T13:17:00Z</time>
      </trkpt>
      <trkpt lat="46.0527" lon="5.66889">
        <ele>920.6</ele>
        <time>2026-05-10T13:17:01Z</time>
      </trkpt>
      <trkpt lat="46.05267" lon="5.66882">
        <ele>920.4</ele>
        <time>2026-05-10T13:17:02Z</time>
      </trkpt>
      <trkpt lat="46.05266" lon="5.66875">
        <ele>920.4</ele>
        <time>2026-05-10T13:17:03Z</time>
      </trkpt>
      <trkpt lat="46.05265" lon="5.66869">
        <ele>920.2</ele>
        <time>2026-05-10T13:17:04Z</time>
      </trkpt>
      <trkpt lat="46.05266" lon="5.66862">
        <ele>920.2</ele>
        <time>2026-05-10T13:17:05Z</time>
      </trkpt>
      <trkpt lat="46.05266" lon="5.66855">
        <ele>919.8</ele>
        <time>2026-05-10T13:17:06Z</time>
      </trkpt>
      <trkpt lat="46.05267" lon="5.66849">
        <ele>919.8</ele>
        <time>2026-05-10T13:17:07Z</time>
      </trkpt>
      <trkpt lat="46.05268" lon="5.66844">
        <ele>919.2</ele>
        <time>2026-05-10T13:17:08Z</time>
      </trkpt>
      <trkpt lat="46.0527" lon="5.66838">
        <ele>919</ele>
        <time>2026-05-10T13:17:09Z</time>
      </trkpt>
      <trkpt lat="46.05271" lon="5.66832">
        <ele>919</ele>
        <time>2026-05-10T13:17:10Z</time>
      </trkpt>
      <trkpt lat="46.05273" lon="5.66826">
        <ele>918.6</ele>
        <time>2026-05-10T13:17:11Z</time>
      </trkpt>
      <trkpt lat="46.05275" lon="5.6682">
        <ele>918.6</ele>
        <time>2026-05-10T13:17:12Z</time>
      </trkpt>
      <trkpt lat="46.05276" lon="5.66812">
        <ele>918</ele>
        <time>2026-05-10T13:17:13Z</time>
      </trkpt>
      <trkpt lat="46.05278" lon="5.66805">
        <ele>917.4</ele>
        <time>2026-05-10T13:17:14Z</time>
      </trkpt>
      <trkpt lat="46.0528" lon="5.66798">
        <ele>917.4</ele>
        <time>2026-05-10T13:17:15Z</time>
      </trkpt>
      <trkpt lat="46.05282" lon="5.6679">
        <ele>916.8</ele>
        <time>2026-05-10T13:17:16Z</time>
      </trkpt>
      <trkpt lat="46.05284" lon="5.66781">
        <ele>916.4</ele>
        <time>2026-05-10T13:17:17Z</time>
      </trkpt>
      <trkpt lat="46.05286" lon="5.66772">
        <ele>916</ele>
        <time>2026-05-10T13:17:18Z</time>
      </trkpt>
      <trkpt lat="46.05289" lon="5.66762">
        <ele>915.4</ele>
        <time>2026-05-10T13:17:19Z</time>
      </trkpt>
      <trkpt lat="46.05292" lon="5.66752">
        <ele>915</ele>
        <time>2026-05-10T13:17:20Z</time>
      </trkpt>
      <trkpt lat="46.05295" lon="5.66741">
        <ele>914.4</ele>
        <time>2026-05-10T13:17:21Z</time>
      </trkpt>
      <trkpt lat="46.05299" lon="5.66731">
        <ele>913.6</ele>
        <time>2026-05-10T13:17:22Z</time>
      </trkpt>
      <trkpt lat="46.05302" lon="5.66719">
        <ele>913</ele>
        <time>2026-05-10T13:17:23Z</time>
      </trkpt>
      <trkpt lat="46.05306" lon="5.66709">
        <ele>912.4</ele>
        <time>2026-05-10T13:17:24Z</time>
      </trkpt>
      <trkpt lat="46.0531" lon="5.66699">
        <ele>911.6</ele>
        <time>2026-05-10T13:17:25Z</time>
      </trkpt>
      <trkpt lat="46.05315" lon="5.66688">
        <ele>910.6</ele>
        <time>2026-05-10T13:17:26Z</time>
      </trkpt>
      <trkpt lat="46.0532" lon="5.66679">
        <ele>910.2</ele>
        <time>2026-05-10T13:17:27Z</time>
      </trkpt>
      <trkpt lat="46.05325" lon="5.66668">
        <ele>909.8</ele>
        <time>2026-05-10T13:17:28Z</time>
      </trkpt>
      <trkpt lat="46.05331" lon="5.66658">
        <ele>909</ele>
        <time>2026-05-10T13:17:29Z</time>
      </trkpt>
      <trkpt lat="46.05337" lon="5.66649">
        <ele>908.6</ele>
        <time>2026-05-10T13:17:30Z</time>
      </trkpt>
      <trkpt lat="46.05343" lon="5.66639">
        <ele>908</ele>
        <time>2026-05-10T13:17:31Z</time>
      </trkpt>
      <trkpt lat="46.0535" lon="5.66631">
        <ele>908</ele>
        <time>2026-05-10T13:17:32Z</time>
      </trkpt>
      <trkpt lat="46.05358" lon="5.66623">
        <ele>907.6</ele>
        <time>2026-05-10T13:17:33Z</time>
      </trkpt>
      <trkpt lat="46.05365" lon="5.66615">
        <ele>907.2</ele>
        <time>2026-05-10T13:17:34Z</time>
      </trkpt>
      <trkpt lat="46.05373" lon="5.66607">
        <ele>906.4</ele>
        <time>2026-05-10T13:17:35Z</time>
      </trkpt>
      <trkpt lat="46.0538" lon="5.66599">
        <ele>905.6</ele>
        <time>2026-05-10T13:17:36Z</time>
      </trkpt>
      <trkpt lat="46.05388" lon="5.66591">
        <ele>905</ele>
        <time>2026-05-10T13:17:37Z</time>
      </trkpt>
      <trkpt lat="46.05396" lon="5.66583">
        <ele>904.4</ele>
        <time>2026-05-10T13:17:38Z</time>
      </trkpt>
      <trkpt lat="46.05403" lon="5.66574">
        <ele>903.8</ele>
        <time>2026-05-10T13:17:39Z</time>
      </trkpt>
      <trkpt lat="46.05411" lon="5.66565">
        <ele>903.4</ele>
        <time>2026-05-10T13:17:40Z</time>
      </trkpt>
      <trkpt lat="46.05418" lon="5.66557">
        <ele>903</ele>
        <time>2026-05-10T13:17:41Z</time>
      </trkpt>
      <trkpt lat="46.05425" lon="5.66547">
        <ele>902.6</ele>
        <time>2026-05-10T13:17:42Z</time>
      </trkpt>
      <trkpt lat="46.05432" lon="5.66537">
        <ele>902.2</ele>
        <time>2026-05-10T13:17:43Z</time>
      </trkpt>
      <trkpt lat="46.05438" lon="5.66526">
        <ele>901.6</ele>
        <time>2026-05-10T13:17:44Z</time>
      </trkpt>
      <trkpt lat="46.05444" lon="5.66515">
        <ele>901</ele>
        <time>2026-05-10T13:17:45Z</time>
      </trkpt>
      <trkpt lat="46.05449" lon="5.66503">
        <ele>900.4</ele>
        <time>2026-05-10T13:17:46Z</time>
      </trkpt>
      <trkpt lat="46.05453" lon="5.66491">
        <ele>900</ele>
        <time>2026-05-10T13:17:47Z</time>
      </trkpt>
      <trkpt lat="46.05457" lon="5.66478">
        <ele>900</ele>
        <time>2026-05-10T13:17:48Z</time>
      </trkpt>
      <trkpt lat="46.05459" lon="5.66466">
        <ele>899.6</ele>
        <time>2026-05-10T13:17:49Z</time>
      </trkpt>
      <trkpt lat="46.05461" lon="5.66453">
        <ele>899.6</ele>
        <time>2026-05-10T13:17:50Z</time>
      </trkpt>
      <trkpt lat="46.05462" lon="5.66439">
        <ele>899.2</ele>
        <time>2026-05-10T13:17:51Z</time>
      </trkpt>
      <trkpt lat="46.05462" lon="5.66425">
        <ele>899.2</ele>
        <time>2026-05-10T13:17:52Z</time>
      </trkpt>
      <trkpt lat="46.05462" lon="5.66413">
        <ele>899.2</ele>
        <time>2026-05-10T13:17:53Z</time>
      </trkpt>
      <trkpt lat="46.05462" lon="5.66401">
        <ele>898.8</ele>
        <time>2026-05-10T13:17:54Z</time>
      </trkpt>
      <trkpt lat="46.05463" lon="5.6639">
        <ele>898.8</ele>
        <time>2026-05-10T13:17:55Z</time>
      </trkpt>
      <trkpt lat="46.05461" lon="5.66378">
        <ele>899.2</ele>
        <time>2026-05-10T13:17:56Z</time>
      </trkpt>
      <trkpt lat="46.0546" lon="5.66367">
        <ele>898.8</ele>
        <time>2026-05-10T13:17:57Z</time>
      </trkpt>
      <trkpt lat="46.05459" lon="5.66357">
        <ele>899</ele>
        <time>2026-05-10T13:17:58Z</time>
      </trkpt>
      <trkpt lat="46.05459" lon="5.66347">
        <ele>899.8</ele>
        <time>2026-05-10T13:17:59Z</time>
      </trkpt>
      <trkpt lat="46.05458" lon="5.66338">
        <ele>900.4</ele>
        <time>2026-05-10T13:18:00Z</time>
      </trkpt>
      <trkpt lat="46.05458" lon="5.66329">
        <ele>901</ele>
        <time>2026-05-10T13:18:01Z</time>
      </trkpt>
      <trkpt lat="46.05457" lon="5.66321">
        <ele>901.4</ele>
        <time>2026-05-10T13:18:02Z</time>
      </trkpt>
      <trkpt lat="46.05457" lon="5.66313">
        <ele>901.6</ele>
        <time>2026-05-10T13:18:03Z</time>
      </trkpt>
      <trkpt lat="46.05457" lon="5.66307">
        <ele>902.2</ele>
        <time>2026-05-10T13:18:04Z</time>
      </trkpt>
      <trkpt lat="46.05457" lon="5.66299">
        <ele>902.6</ele>
        <time>2026-05-10T13:18:05Z</time>
      </trkpt>
      <trkpt lat="46.05457" lon="5.66291">
        <ele>903.2</ele>
        <time>2026-05-10T13:18:06Z</time>
      </trkpt>
      <trkpt lat="46.05457" lon="5.66284">
        <ele>903.6</ele>
        <time>2026-05-10T13:18:07Z</time>
      </trkpt>
      <trkpt lat="46.05457" lon="5.66277">
        <ele>904</ele>
        <time>2026-05-10T13:18:08Z</time>
      </trkpt>
      <trkpt lat="46.05456" lon="5.66271">
        <ele>904.4</ele>
        <time>2026-05-10T13:18:09Z</time>
      </trkpt>
      <trkpt lat="46.05456" lon="5.66265">
        <ele>904.8</ele>
        <time>2026-05-10T13:18:10Z</time>
      </trkpt>
      <trkpt lat="46.05456" lon="5.66259">
        <ele>905.2</ele>
        <time>2026-05-10T13:18:11Z</time>
      </trkpt>
      <trkpt lat="46.05456" lon="5.66254">
        <ele>906</ele>
        <time>2026-05-10T13:18:12Z</time>
      </trkpt>
      <trkpt lat="46.05457" lon="5.66248">
        <ele>906.4</ele>
        <time>2026-05-10T13:18:13Z</time>
      </trkpt>
      <trkpt lat="46.05457" lon="5.66243">
        <ele>907</ele>
        <time>2026-05-10T13:18:14Z</time>
      </trkpt>
      <trkpt lat="46.05458" lon="5.66239">
        <ele>907.4</ele>
        <time>2026-05-10T13:18:15Z</time>
      </trkpt>
      <trkpt lat="46.05459" lon="5.66233">
        <ele>907.6</ele>
        <time>2026-05-10T13:18:16Z</time>
      </trkpt>
      <trkpt lat="46.05459" lon="5.66228">
        <ele>908</ele>
        <time>2026-05-10T13:18:17Z</time>
      </trkpt>
      <trkpt lat="46.05459" lon="5.66224">
        <ele>908.2</ele>
        <time>2026-05-10T13:18:18Z</time>
      </trkpt>
      <trkpt lat="46.0546" lon="5.66219">
        <ele>908.2</ele>
        <time>2026-05-10T13:18:19Z</time>
      </trkpt>
      <trkpt lat="46.0546" lon="5.66214">
        <ele>908.4</ele>
        <time>2026-05-10T13:18:20Z</time>
      </trkpt>
      <trkpt lat="46.05461" lon="5.66209">
        <ele>908.8</ele>
        <time>2026-05-10T13:18:21Z</time>
      </trkpt>
      <trkpt lat="46.05461" lon="5.66205">
        <ele>909</ele>
        <time>2026-05-10T13:18:22Z</time>
      </trkpt>
      <trkpt lat="46.05462" lon="5.662">
        <ele>909.4</ele>
        <time>2026-05-10T13:18:23Z</time>
      </trkpt>
      <trkpt lat="46.05462" lon="5.66196">
        <ele>909.6</ele>
        <time>2026-05-10T13:18:24Z</time>
      </trkpt>
      <trkpt lat="46.05463" lon="5.66191">
        <ele>909.6</ele>
        <time>2026-05-10T13:18:25Z</time>
      </trkpt>
      <trkpt lat="46.05464" lon="5.66187">
        <ele>910</ele>
        <time>2026-05-10T13:18:26Z</time>
      </trkpt>
      <trkpt lat="46.05464" lon="5.66183">
        <ele>910.4</ele>
        <time>2026-05-10T13:18:27Z</time>
      </trkpt>
      <trkpt lat="46.05464" lon="5.66179">
        <ele>910.4</ele>
        <time>2026-05-10T13:18:28Z</time>
      </trkpt>
      <trkpt lat="46.05464" lon="5.66175">
        <ele>910.6</ele>
        <time>2026-05-10T13:18:29Z</time>
      </trkpt>
      <trkpt lat="46.05465" lon="5.66171">
        <ele>910.6</ele>
        <time>2026-05-10T13:18:30Z</time>
      </trkpt>
      <trkpt lat="46.05465" lon="5.66168">
        <ele>911</ele>
        <time>2026-05-10T13:18:31Z</time>
      </trkpt>
      <trkpt lat="46.05465" lon="5.66164">
        <ele>911.2</ele>
        <time>2026-05-10T13:18:32Z</time>
      </trkpt>
      <trkpt lat="46.05466" lon="5.66161">
        <ele>911.2</ele>
        <time>2026-05-10T13:18:33Z</time>
      </trkpt>
      <trkpt lat="46.05466" lon="5.66157">
        <ele>911.6</ele>
        <time>2026-05-10T13:18:34Z</time>
      </trkpt>
      <trkpt lat="46.05467" lon="5.66154">
        <ele>911.8</ele>
        <time>2026-05-10T13:18:35Z</time>
      </trkpt>
      <trkpt lat="46.05468" lon="5.66151">
        <ele>911.8</ele>
        <time>2026-05-10T13:18:36Z</time>
      </trkpt>
      <trkpt lat="46.05468" lon="5.66148">
        <ele>912.2</ele>
        <time>2026-05-10T13:18:37Z</time>
      </trkpt>
      <trkpt lat="46.05469" lon="5.66145">
        <ele>912.2</ele>
        <time>2026-05-10T13:18:38Z</time>
      </trkpt>
      <trkpt lat="46.0547" lon="5.66142">
        <ele>912.6</ele>
        <time>2026-05-10T13:18:39Z</time>
      </trkpt>
      <trkpt lat="46.05471" lon="5.66139">
        <ele>912.8</ele>
        <time>2026-05-10T13:18:40Z</time>
      </trkpt>
      <trkpt lat="46.05472" lon="5.66137">
        <ele>912.8</ele>
        <time>2026-05-10T13:18:41Z</time>
      </trkpt>
      <trkpt lat="46.05474" lon="5.66135">
        <ele>913</ele>
        <time>2026-05-10T13:18:42Z</time>
      </trkpt>
      <trkpt lat="46.05476" lon="5.66133">
        <ele>913.2</ele>
        <time>2026-05-10T13:18:43Z</time>
      </trkpt>
      <trkpt lat="46.05478" lon="5.66132">
        <ele>913.2</ele>
        <time>2026-05-10T13:18:44Z</time>
      </trkpt>
      <trkpt lat="46.0548" lon="5.6613">
        <ele>913.2</ele>
        <time>2026-05-10T13:18:45Z</time>
      </trkpt>
      <trkpt lat="46.05482" lon="5.66129">
        <ele>913.4</ele>
        <time>2026-05-10T13:18:46Z</time>
      </trkpt>
      <trkpt lat="46.05484" lon="5.66128">
        <ele>913.8</ele>
        <time>2026-05-10T13:18:47Z</time>
      </trkpt>
      <trkpt lat="46.05486" lon="5.66127">
        <ele>914</ele>
        <time>2026-05-10T13:18:48Z</time>
      </trkpt>
      <trkpt lat="46.05488" lon="5.66126">
        <ele>914.2</ele>
        <time>2026-05-10T13:18:49Z</time>
      </trkpt>
      <trkpt lat="46.0549" lon="5.66124">
        <ele>914.4</ele>
        <time>2026-05-10T13:18:50Z</time>
      </trkpt>
      <trkpt lat="46.05492" lon="5.66123">
        <ele>914.6</ele>
        <time>2026-05-10T13:18:51Z</time>
      </trkpt>
      <trkpt lat="46.05495" lon="5.66123">
        <ele>914.8</ele>
        <time>2026-05-10T13:18:52Z</time>
      </trkpt>
      <trkpt lat="46.05497" lon="5.66122">
        <ele>914.8</ele>
        <time>2026-05-10T13:18:53Z</time>
      </trkpt>
      <trkpt lat="46.05499" lon="5.6612">
        <ele>915</ele>
        <time>2026-05-10T13:18:54Z</time>
      </trkpt>
      <trkpt lat="46.05501" lon="5.66119">
        <ele>915</ele>
        <time>2026-05-10T13:18:55Z</time>
      </trkpt>
      <trkpt lat="46.05504" lon="5.66118">
        <ele>915</ele>
        <time>2026-05-10T13:18:56Z</time>
      </trkpt>
      <trkpt lat="46.05506" lon="5.66117">
        <ele>915</ele>
        <time>2026-05-10T13:18:57Z</time>
      </trkpt>
      <trkpt lat="46.05508" lon="5.66116">
        <ele>914.2</ele>
        <time>2026-05-10T13:18:58Z</time>
      </trkpt>
      <trkpt lat="46.05511" lon="5.66114">
        <ele>914.6</ele>
        <time>2026-05-10T13:18:59Z</time>
      </trkpt>
      <trkpt lat="46.05513" lon="5.66113">
        <ele>915</ele>
        <time>2026-05-10T13:19:00Z</time>
      </trkpt>
      <trkpt lat="46.05515" lon="5.66112">
        <ele>915</ele>
        <time>2026-05-10T13:19:01Z</time>
      </trkpt>
      <trkpt lat="46.05517" lon="5.66111">
        <ele>915.4</ele>
        <time>2026-05-10T13:19:02Z</time>
      </trkpt>
      <trkpt lat="46.05519" lon="5.6611">
        <ele>915.4</ele>
        <time>2026-05-10T13:19:03Z</time>
      </trkpt>
      <trkpt lat="46.05522" lon="5.6611">
        <ele>915.6</ele>
        <time>2026-05-10T13:19:04Z</time>
      </trkpt>
      <trkpt lat="46.05524" lon="5.66109">
        <ele>916</ele>
        <time>2026-05-10T13:19:05Z</time>
      </trkpt>
      <trkpt lat="46.05526" lon="5.66108">
        <ele>916</ele>
        <time>2026-05-10T13:19:06Z</time>
      </trkpt>
      <trkpt lat="46.05528" lon="5.66107">
        <ele>916.2</ele>
        <time>2026-05-10T13:19:07Z</time>
      </trkpt>
      <trkpt lat="46.0553" lon="5.66106">
        <ele>916.2</ele>
        <time>2026-05-10T13:19:08Z</time>
      </trkpt>
      <trkpt lat="46.05532" lon="5.66105">
        <ele>916.4</ele>
        <time>2026-05-10T13:19:09Z</time>
      </trkpt>
      <trkpt lat="46.05534" lon="5.66104">
        <ele>916.4</ele>
        <time>2026-05-10T13:19:10Z</time>
      </trkpt>
      <trkpt lat="46.05537" lon="5.66102">
        <ele>916.8</ele>
        <time>2026-05-10T13:19:11Z</time>
      </trkpt>
      <trkpt lat="46.05539" lon="5.66101">
        <ele>917</ele>
        <time>2026-05-10T13:19:12Z</time>
      </trkpt>
      <trkpt lat="46.0554" lon="5.661">
        <ele>917</ele>
        <time>2026-05-10T13:19:13Z</time>
      </trkpt>
      <trkpt lat="46.05542" lon="5.66099">
        <ele>917.4</ele>
        <time>2026-05-10T13:19:14Z</time>
      </trkpt>
      <trkpt lat="46.05544" lon="5.66098">
        <ele>917.4</ele>
        <time>2026-05-10T13:19:15Z</time>
      </trkpt>
      <trkpt lat="46.05547" lon="5.66097">
        <ele>917.6</ele>
        <time>2026-05-10T13:19:16Z</time>
      </trkpt>
      <trkpt lat="46.05549" lon="5.66096">
        <ele>917.6</ele>
        <time>2026-05-10T13:19:17Z</time>
      </trkpt>
      <trkpt lat="46.05551" lon="5.66095">
        <ele>917.6</ele>
        <time>2026-05-10T13:19:18Z</time>
      </trkpt>
      <trkpt lat="46.05553" lon="5.66094">
        <ele>917.6</ele>
        <time>2026-05-10T13:19:19Z</time>
      </trkpt>
      <trkpt lat="46.05555" lon="5.66092">
        <ele>917.8</ele>
        <time>2026-05-10T13:19:20Z</time>
      </trkpt>
      <trkpt lat="46.05557" lon="5.6609">
        <ele>917.8</ele>
        <time>2026-05-10T13:19:21Z</time>
      </trkpt>
      <trkpt lat="46.0556" lon="5.66088">
        <ele>917.8</ele>
        <time>2026-05-10T13:19:22Z</time>
      </trkpt>
      <trkpt lat="46.05562" lon="5.66087">
        <ele>918.2</ele>
        <time>2026-05-10T13:19:23Z</time>
      </trkpt>
      <trkpt lat="46.05563" lon="5.66085">
        <ele>918.2</ele>
        <time>2026-05-10T13:19:24Z</time>
      </trkpt>
      <trkpt lat="46.05565" lon="5.66083">
        <ele>918.2</ele>
        <time>2026-05-10T13:19:25Z</time>
      </trkpt>
      <trkpt lat="46.05567" lon="5.66081">
        <ele>918.2</ele>
        <time>2026-05-10T13:19:26Z</time>
      </trkpt>
      <trkpt lat="46.05569" lon="5.66079">
        <ele>918.2</ele>
        <time>2026-05-10T13:19:27Z</time>
      </trkpt>
      <trkpt lat="46.05571" lon="5.66077">
        <ele>918.4</ele>
        <time>2026-05-10T13:19:28Z</time>
      </trkpt>
      <trkpt lat="46.05573" lon="5.66075">
        <ele>918.4</ele>
        <time>2026-05-10T13:19:29Z</time>
      </trkpt>
      <trkpt lat="46.05575" lon="5.66073">
        <ele>918.4</ele>
        <time>2026-05-10T13:19:30Z</time>
      </trkpt>
      <trkpt lat="46.05576" lon="5.66071">
        <ele>918.8</ele>
        <time>2026-05-10T13:19:31Z</time>
      </trkpt>
      <trkpt lat="46.05578" lon="5.66068">
        <ele>918.8</ele>
        <time>2026-05-10T13:19:32Z</time>
      </trkpt>
      <trkpt lat="46.05579" lon="5.66066">
        <ele>918.8</ele>
        <time>2026-05-10T13:19:33Z</time>
      </trkpt>
      <trkpt lat="46.05581" lon="5.66063">
        <ele>918.8</ele>
        <time>2026-05-10T13:19:34Z</time>
      </trkpt>
      <trkpt lat="46.05583" lon="5.66061">
        <ele>919</ele>
        <time>2026-05-10T13:19:35Z</time>
      </trkpt>
      <trkpt lat="46.05585" lon="5.66059">
        <ele>919</ele>
        <time>2026-05-10T13:19:36Z</time>
      </trkpt>
      <trkpt lat="46.05587" lon="5.66057">
        <ele>919.4</ele>
        <time>2026-05-10T13:19:37Z</time>
      </trkpt>
      <trkpt lat="46.05588" lon="5.66055">
        <ele>919.4</ele>
        <time>2026-05-10T13:19:38Z</time>
      </trkpt>
      <trkpt lat="46.0559" lon="5.66052">
        <ele>919.6</ele>
        <time>2026-05-10T13:19:39Z</time>
      </trkpt>
      <trkpt lat="46.05591" lon="5.6605">
        <ele>919.6</ele>
        <time>2026-05-10T13:19:40Z</time>
      </trkpt>
      <trkpt lat="46.05593" lon="5.66047">
        <ele>920</ele>
        <time>2026-05-10T13:19:41Z</time>
      </trkpt>
      <trkpt lat="46.05594" lon="5.66045">
        <ele>920</ele>
        <time>2026-05-10T13:19:42Z</time>
      </trkpt>
      <trkpt lat="46.05596" lon="5.66042">
        <ele>920.2</ele>
        <time>2026-05-10T13:19:43Z</time>
      </trkpt>
      <trkpt lat="46.05598" lon="5.6604">
        <ele>920.2</ele>
        <time>2026-05-10T13:19:44Z</time>
      </trkpt>
      <trkpt lat="46.05599" lon="5.66037">
        <ele>920.4</ele>
        <time>2026-05-10T13:19:45Z</time>
      </trkpt>
      <trkpt lat="46.05601" lon="5.66034">
        <ele>920.4</ele>
        <time>2026-05-10T13:19:46Z</time>
      </trkpt>
      <trkpt lat="46.05603" lon="5.66031">
        <ele>920.4</ele>
        <time>2026-05-10T13:19:47Z</time>
      </trkpt>
      <trkpt lat="46.05604" lon="5.66029">
        <ele>920.6</ele>
        <time>2026-05-10T13:19:48Z</time>
      </trkpt>
      <trkpt lat="46.05606" lon="5.66026">
        <ele>921</ele>
        <time>2026-05-10T13:19:49Z</time>
      </trkpt>
      <trkpt lat="46.05607" lon="5.66024">
        <ele>921.2</ele>
        <time>2026-05-10T13:19:50Z</time>
      </trkpt>
      <trkpt lat="46.05609" lon="5.66021">
        <ele>921.4</ele>
        <time>2026-05-10T13:19:51Z</time>
      </trkpt>
      <trkpt lat="46.0561" lon="5.66019">
        <ele>921.6</ele>
        <time>2026-05-10T13:19:52Z</time>
      </trkpt>
      <trkpt lat="46.05613" lon="5.66014">
        <ele>921.6</ele>
        <time>2026-05-10T13:19:53Z</time>
      </trkpt>
      <trkpt lat="46.05614" lon="5.66011">
        <ele>921.6</ele>
        <time>2026-05-10T13:19:54Z</time>
      </trkpt>
      <trkpt lat="46.05616" lon="5.66009">
        <ele>921.6</ele>
        <time>2026-05-10T13:19:55Z</time>
      </trkpt>
      <trkpt lat="46.05617" lon="5.66006">
        <ele>922</ele>
        <time>2026-05-10T13:19:56Z</time>
      </trkpt>
      <trkpt lat="46.05618" lon="5.66003">
        <ele>922</ele>
        <time>2026-05-10T13:19:57Z</time>
      </trkpt>
      <trkpt lat="46.0562" lon="5.66001">
        <ele>922</ele>
        <time>2026-05-10T13:19:58Z</time>
      </trkpt>
      <trkpt lat="46.05621" lon="5.65998">
        <ele>922.4</ele>
        <time>2026-05-10T13:19:59Z</time>
      </trkpt>
      <trkpt lat="46.05623" lon="5.65996">
        <ele>922.6</ele>
        <time>2026-05-10T13:20:00Z</time>
      </trkpt>
      <trkpt lat="46.05624" lon="5.65993">
        <ele>922.8</ele>
        <time>2026-05-10T13:20:01Z</time>
      </trkpt>
      <trkpt lat="46.05625" lon="5.65991">
        <ele>922.8</ele>
        <time>2026-05-10T13:20:02Z</time>
      </trkpt>
      <trkpt lat="46.05626" lon="5.65988">
        <ele>922.8</ele>
        <time>2026-05-10T13:20:03Z</time>
      </trkpt>
      <trkpt lat="46.05628" lon="5.65985">
        <ele>923.2</ele>
        <time>2026-05-10T13:20:04Z</time>
      </trkpt>
      <trkpt lat="46.05629" lon="5.65983">
        <ele>923.2</ele>
        <time>2026-05-10T13:20:05Z</time>
      </trkpt>
      <trkpt lat="46.0563" lon="5.6598">
        <ele>923.2</ele>
        <time>2026-05-10T13:20:06Z</time>
      </trkpt>
      <trkpt lat="46.05631" lon="5.65977">
        <ele>923.4</ele>
        <time>2026-05-10T13:20:07Z</time>
      </trkpt>
      <trkpt lat="46.05632" lon="5.65974">
        <ele>923.4</ele>
        <time>2026-05-10T13:20:08Z</time>
      </trkpt>
      <trkpt lat="46.05633" lon="5.65972">
        <ele>923.4</ele>
        <time>2026-05-10T13:20:09Z</time>
      </trkpt>
      <trkpt lat="46.05634" lon="5.65969">
        <ele>923.6</ele>
        <time>2026-05-10T13:20:10Z</time>
      </trkpt>
      <trkpt lat="46.05635" lon="5.65966">
        <ele>923.6</ele>
        <time>2026-05-10T13:20:11Z</time>
      </trkpt>
      <trkpt lat="46.05636" lon="5.65963">
        <ele>923.6</ele>
        <time>2026-05-10T13:20:12Z</time>
      </trkpt>
      <trkpt lat="46.05637" lon="5.6596">
        <ele>924</ele>
        <time>2026-05-10T13:20:13Z</time>
      </trkpt>
      <trkpt lat="46.05638" lon="5.65957">
        <ele>924</ele>
        <time>2026-05-10T13:20:14Z</time>
      </trkpt>
      <trkpt lat="46.0564" lon="5.65955">
        <ele>924</ele>
        <time>2026-05-10T13:20:15Z</time>
      </trkpt>
      <trkpt lat="46.05641" lon="5.65951">
        <ele>924.2</ele>
        <time>2026-05-10T13:20:16Z</time>
      </trkpt>
      <trkpt lat="46.05642" lon="5.65948">
        <ele>924.2</ele>
        <time>2026-05-10T13:20:17Z</time>
      </trkpt>
      <trkpt lat="46.05643" lon="5.65944">
        <ele>924.2</ele>
        <time>2026-05-10T13:20:18Z</time>
      </trkpt>
      <trkpt lat="46.05643" lon="5.6594">
        <ele>924.2</ele>
        <time>2026-05-10T13:20:19Z</time>
      </trkpt>
      <trkpt lat="46.05643" lon="5.65936">
        <ele>924.2</ele>
        <time>2026-05-10T13:20:20Z</time>
      </trkpt>
      <trkpt lat="46.05643" lon="5.65932">
        <ele>924.2</ele>
        <time>2026-05-10T13:20:21Z</time>
      </trkpt>
      <trkpt lat="46.05643" lon="5.65927">
        <ele>924.2</ele>
        <time>2026-05-10T13:20:22Z</time>
      </trkpt>
      <trkpt lat="46.05643" lon="5.65923">
        <ele>924.2</ele>
        <time>2026-05-10T13:20:23Z</time>
      </trkpt>
      <trkpt lat="46.05643" lon="5.6592">
        <ele>924.2</ele>
        <time>2026-05-10T13:20:24Z</time>
      </trkpt>
      <trkpt lat="46.05643" lon="5.65916">
        <ele>924.2</ele>
        <time>2026-05-10T13:20:25Z</time>
      </trkpt>
      <trkpt lat="46.05643" lon="5.65912">
        <ele>924.2</ele>
        <time>2026-05-10T13:20:26Z</time>
      </trkpt>
      <trkpt lat="46.05643" lon="5.65908">
        <ele>924.4</ele>
        <time>2026-05-10T13:20:27Z</time>
      </trkpt>
      <trkpt lat="46.05643" lon="5.65905">
        <ele>924.4</ele>
        <time>2026-05-10T13:20:28Z</time>
      </trkpt>
      <trkpt lat="46.05643" lon="5.659">
        <ele>924.8</ele>
        <time>2026-05-10T13:20:29Z</time>
      </trkpt>
      <trkpt lat="46.05642" lon="5.65896">
        <ele>924.8</ele>
        <time>2026-05-10T13:20:30Z</time>
      </trkpt>
      <trkpt lat="46.05642" lon="5.65892">
        <ele>925</ele>
        <time>2026-05-10T13:20:31Z</time>
      </trkpt>
      <trkpt lat="46.05641" lon="5.65889">
        <ele>925</ele>
        <time>2026-05-10T13:20:32Z</time>
      </trkpt>
      <trkpt lat="46.0564" lon="5.65885">
        <ele>925.4</ele>
        <time>2026-05-10T13:20:33Z</time>
      </trkpt>
      <trkpt lat="46.05638" lon="5.65881">
        <ele>925.6</ele>
        <time>2026-05-10T13:20:34Z</time>
      </trkpt>
      <trkpt lat="46.05636" lon="5.65878">
        <ele>925.6</ele>
        <time>2026-05-10T13:20:35Z</time>
      </trkpt>
      <trkpt lat="46.05635" lon="5.65875">
        <ele>925.6</ele>
        <time>2026-05-10T13:20:36Z</time>
      </trkpt>
      <trkpt lat="46.05633" lon="5.65873">
        <ele>925.8</ele>
        <time>2026-05-10T13:20:37Z</time>
      </trkpt>
      <trkpt lat="46.05631" lon="5.6587">
        <ele>925.8</ele>
        <time>2026-05-10T13:20:38Z</time>
      </trkpt>
      <trkpt lat="46.05629" lon="5.65867">
        <ele>925.8</ele>
        <time>2026-05-10T13:20:39Z</time>
      </trkpt>
      <trkpt lat="46.05627" lon="5.65863">
        <ele>926.2</ele>
        <time>2026-05-10T13:20:40Z</time>
      </trkpt>
      <trkpt lat="46.05625" lon="5.6586">
        <ele>926.2</ele>
        <time>2026-05-10T13:20:41Z</time>
      </trkpt>
      <trkpt lat="46.05623" lon="5.65856">
        <ele>926.2</ele>
        <time>2026-05-10T13:20:42Z</time>
      </trkpt>
      <trkpt lat="46.05621" lon="5.65852">
        <ele>926.2</ele>
        <time>2026-05-10T13:20:43Z</time>
      </trkpt>
      <trkpt lat="46.05619" lon="5.65848">
        <ele>926.2</ele>
        <time>2026-05-10T13:20:44Z</time>
      </trkpt>
      <trkpt lat="46.05617" lon="5.65845">
        <ele>926.4</ele>
        <time>2026-05-10T13:20:45Z</time>
      </trkpt>
      <trkpt lat="46.05615" lon="5.65842">
        <ele>926.6</ele>
        <time>2026-05-10T13:20:46Z</time>
      </trkpt>
      <trkpt lat="46.05614" lon="5.65838">
        <ele>926.8</ele>
        <time>2026-05-10T13:20:47Z</time>
      </trkpt>
      <trkpt lat="46.05612" lon="5.65835">
        <ele>926.8</ele>
        <time>2026-05-10T13:20:48Z</time>
      </trkpt>
      <trkpt lat="46.0561" lon="5.65832">
        <ele>927.2</ele>
        <time>2026-05-10T13:20:49Z</time>
      </trkpt>
      <trkpt lat="46.05609" lon="5.65828">
        <ele>927.2</ele>
        <time>2026-05-10T13:20:50Z</time>
      </trkpt>
      <trkpt lat="46.05607" lon="5.65825">
        <ele>927.4</ele>
        <time>2026-05-10T13:20:51Z</time>
      </trkpt>
      <trkpt lat="46.05605" lon="5.65821">
        <ele>927.4</ele>
        <time>2026-05-10T13:20:52Z</time>
      </trkpt>
      <trkpt lat="46.05604" lon="5.65818">
        <ele>927.6</ele>
        <time>2026-05-10T13:20:53Z</time>
      </trkpt>
      <trkpt lat="46.05602" lon="5.65814">
        <ele>927.6</ele>
        <time>2026-05-10T13:20:54Z</time>
      </trkpt>
      <trkpt lat="46.05601" lon="5.6581">
        <ele>927.6</ele>
        <time>2026-05-10T13:20:55Z</time>
      </trkpt>
      <trkpt lat="46.05599" lon="5.65806">
        <ele>927.6</ele>
        <time>2026-05-10T13:20:56Z</time>
      </trkpt>
      <trkpt lat="46.05598" lon="5.65802">
        <ele>928</ele>
        <time>2026-05-10T13:20:57Z</time>
      </trkpt>
      <trkpt lat="46.05596" lon="5.65799">
        <ele>928</ele>
        <time>2026-05-10T13:20:58Z</time>
      </trkpt>
      <trkpt lat="46.05595" lon="5.65795">
        <ele>928</ele>
        <time>2026-05-10T13:20:59Z</time>
      </trkpt>
      <trkpt lat="46.05593" lon="5.65791">
        <ele>928</ele>
        <time>2026-05-10T13:21:00Z</time>
      </trkpt>
      <trkpt lat="46.05592" lon="5.65787">
        <ele>928</ele>
        <time>2026-05-10T13:21:01Z</time>
      </trkpt>
      <trkpt lat="46.0559" lon="5.65783">
        <ele>928.2</ele>
        <time>2026-05-10T13:21:02Z</time>
      </trkpt>
      <trkpt lat="46.05588" lon="5.65779">
        <ele>928.2</ele>
        <time>2026-05-10T13:21:03Z</time>
      </trkpt>
      <trkpt lat="46.05587" lon="5.65774">
        <ele>928.2</ele>
        <time>2026-05-10T13:21:04Z</time>
      </trkpt>
      <trkpt lat="46.05585" lon="5.6577">
        <ele>928.2</ele>
        <time>2026-05-10T13:21:05Z</time>
      </trkpt>
      <trkpt lat="46.05584" lon="5.65766">
        <ele>928.2</ele>
        <time>2026-05-10T13:21:06Z</time>
      </trkpt>
      <trkpt lat="46.05583" lon="5.65762">
        <ele>928.4</ele>
        <time>2026-05-10T13:21:07Z</time>
      </trkpt>
      <trkpt lat="46.05582" lon="5.65758">
        <ele>928.4</ele>
        <time>2026-05-10T13:21:08Z</time>
      </trkpt>
      <trkpt lat="46.05581" lon="5.65753">
        <ele>928.4</ele>
        <time>2026-05-10T13:21:09Z</time>
      </trkpt>
      <trkpt lat="46.05581" lon="5.65753">
        <ele>928.4</ele>
        <time>2026-05-10T13:21:10Z</time>
      </trkpt>
      <trkpt lat="46.05579" lon="5.65749">
        <ele>928.4</ele>
        <time>2026-05-10T13:21:11Z</time>
      </trkpt>
      <trkpt lat="46.05578" lon="5.65746">
        <ele>928.4</ele>
        <time>2026-05-10T13:21:12Z</time>
      </trkpt>
      <trkpt lat="46.05577" lon="5.65742">
        <ele>928.8</ele>
        <time>2026-05-10T13:21:13Z</time>
      </trkpt>
      <trkpt lat="46.05576" lon="5.65739">
        <ele>928.8</ele>
        <time>2026-05-10T13:21:14Z</time>
      </trkpt>
      <trkpt lat="46.05574" lon="5.65736">
        <ele>928.8</ele>
        <time>2026-05-10T13:21:15Z</time>
      </trkpt>
      <trkpt lat="46.05573" lon="5.65732">
        <ele>929</ele>
        <time>2026-05-10T13:21:16Z</time>
      </trkpt>
      <trkpt lat="46.05572" lon="5.65729">
        <ele>929</ele>
        <time>2026-05-10T13:21:17Z</time>
      </trkpt>
      <trkpt lat="46.05571" lon="5.65726">
        <ele>929</ele>
        <time>2026-05-10T13:21:18Z</time>
      </trkpt>
      <trkpt lat="46.05569" lon="5.65722">
        <ele>929.6</ele>
        <time>2026-05-10T13:21:19Z</time>
      </trkpt>
      <trkpt lat="46.05569" lon="5.65719">
        <ele>929.8</ele>
        <time>2026-05-10T13:21:20Z</time>
      </trkpt>
      <trkpt lat="46.05568" lon="5.65716">
        <ele>929.8</ele>
        <time>2026-05-10T13:21:21Z</time>
      </trkpt>
      <trkpt lat="46.05567" lon="5.65713">
        <ele>929.8</ele>
        <time>2026-05-10T13:21:22Z</time>
      </trkpt>
      <trkpt lat="46.05566" lon="5.65709">
        <ele>930</ele>
        <time>2026-05-10T13:21:23Z</time>
      </trkpt>
      <trkpt lat="46.05565" lon="5.65706">
        <ele>930</ele>
        <time>2026-05-10T13:21:24Z</time>
      </trkpt>
      <trkpt lat="46.05564" lon="5.65703">
        <ele>930.4</ele>
        <time>2026-05-10T13:21:25Z</time>
      </trkpt>
      <trkpt lat="46.05563" lon="5.657">
        <ele>930.4</ele>
        <time>2026-05-10T13:21:26Z</time>
      </trkpt>
      <trkpt lat="46.05561" lon="5.65697">
        <ele>930.8</ele>
        <time>2026-05-10T13:21:27Z</time>
      </trkpt>
      <trkpt lat="46.0556" lon="5.65694">
        <ele>930.8</ele>
        <time>2026-05-10T13:21:28Z</time>
      </trkpt>
      <trkpt lat="46.05559" lon="5.6569">
        <ele>931</ele>
        <time>2026-05-10T13:21:29Z</time>
      </trkpt>
      <trkpt lat="46.05557" lon="5.65687">
        <ele>931</ele>
        <time>2026-05-10T13:21:30Z</time>
      </trkpt>
      <trkpt lat="46.05556" lon="5.65683">
        <ele>931.2</ele>
        <time>2026-05-10T13:21:31Z</time>
      </trkpt>
      <trkpt lat="46.05555" lon="5.6568">
        <ele>931.2</ele>
        <time>2026-05-10T13:21:32Z</time>
      </trkpt>
      <trkpt lat="46.05554" lon="5.65677">
        <ele>931.6</ele>
        <time>2026-05-10T13:21:33Z</time>
      </trkpt>
      <trkpt lat="46.05553" lon="5.65673">
        <ele>931.6</ele>
        <time>2026-05-10T13:21:34Z</time>
      </trkpt>
      <trkpt lat="46.05552" lon="5.6567">
        <ele>931.8</ele>
        <time>2026-05-10T13:21:35Z</time>
      </trkpt>
      <trkpt lat="46.05551" lon="5.65667">
        <ele>931.8</ele>
        <time>2026-05-10T13:21:36Z</time>
      </trkpt>
      <trkpt lat="46.0555" lon="5.65663">
        <ele>932.2</ele>
        <time>2026-05-10T13:21:37Z</time>
      </trkpt>
      <trkpt lat="46.05549" lon="5.6566">
        <ele>932.4</ele>
        <time>2026-05-10T13:21:38Z</time>
      </trkpt>
      <trkpt lat="46.05548" lon="5.65656">
        <ele>932.6</ele>
        <time>2026-05-10T13:21:39Z</time>
      </trkpt>
      <trkpt lat="46.05548" lon="5.65652">
        <ele>932.6</ele>
        <time>2026-05-10T13:21:40Z</time>
      </trkpt>
      <trkpt lat="46.05547" lon="5.65649">
        <ele>932.6</ele>
        <time>2026-05-10T13:21:41Z</time>
      </trkpt>
      <trkpt lat="46.05546" lon="5.65646">
        <ele>932.6</ele>
        <time>2026-05-10T13:21:42Z</time>
      </trkpt>
      <trkpt lat="46.05545" lon="5.65644">
        <ele>932.8</ele>
        <time>2026-05-10T13:21:43Z</time>
      </trkpt>
      <trkpt lat="46.05544" lon="5.65641">
        <ele>933.2</ele>
        <time>2026-05-10T13:21:44Z</time>
      </trkpt>
      <trkpt lat="46.05543" lon="5.65638">
        <ele>933.2</ele>
        <time>2026-05-10T13:21:45Z</time>
      </trkpt>
      <trkpt lat="46.05542" lon="5.65635">
        <ele>933.6</ele>
        <time>2026-05-10T13:21:46Z</time>
      </trkpt>
      <trkpt lat="46.05541" lon="5.65632">
        <ele>934</ele>
        <time>2026-05-10T13:21:47Z</time>
      </trkpt>
      <trkpt lat="46.0554" lon="5.65631">
        <ele>934</ele>
        <time>2026-05-10T13:21:48Z</time>
      </trkpt>
      <trkpt lat="46.0554" lon="5.65629">
        <ele>934.4</ele>
        <time>2026-05-10T13:21:49Z</time>
      </trkpt>
      <trkpt lat="46.05539" lon="5.65625">
        <ele>934.4</ele>
        <time>2026-05-10T13:21:50Z</time>
      </trkpt>
      <trkpt lat="46.05538" lon="5.65622">
        <ele>934.6</ele>
        <time>2026-05-10T13:21:51Z</time>
      </trkpt>
      <trkpt lat="46.05537" lon="5.65619">
        <ele>935</ele>
        <time>2026-05-10T13:21:52Z</time>
      </trkpt>
      <trkpt lat="46.05536" lon="5.65617">
        <ele>935</ele>
        <time>2026-05-10T13:21:53Z</time>
      </trkpt>
      <trkpt lat="46.05535" lon="5.65615">
        <ele>935.4</ele>
        <time>2026-05-10T13:21:54Z</time>
      </trkpt>
      <trkpt lat="46.05533" lon="5.65612">
        <ele>935.6</ele>
        <time>2026-05-10T13:21:55Z</time>
      </trkpt>
      <trkpt lat="46.05532" lon="5.6561">
        <ele>935.6</ele>
        <time>2026-05-10T13:21:56Z</time>
      </trkpt>
      <trkpt lat="46.05531" lon="5.65607">
        <ele>935.6</ele>
        <time>2026-05-10T13:21:57Z</time>
      </trkpt>
      <trkpt lat="46.05529" lon="5.65605">
        <ele>936</ele>
        <time>2026-05-10T13:21:58Z</time>
      </trkpt>
      <trkpt lat="46.05527" lon="5.65602">
        <ele>936</ele>
        <time>2026-05-10T13:21:59Z</time>
      </trkpt>
      <trkpt lat="46.05525" lon="5.65601">
        <ele>936.2</ele>
        <time>2026-05-10T13:22:00Z</time>
      </trkpt>
      <trkpt lat="46.05523" lon="5.65599">
        <ele>936.2</ele>
        <time>2026-05-10T13:22:01Z</time>
      </trkpt>
      <trkpt lat="46.05521" lon="5.65597">
        <ele>936.2</ele>
        <time>2026-05-10T13:22:02Z</time>
      </trkpt>
      <trkpt lat="46.05519" lon="5.65595">
        <ele>936.6</ele>
        <time>2026-05-10T13:22:03Z</time>
      </trkpt>
      <trkpt lat="46.05517" lon="5.65594">
        <ele>936.6</ele>
        <time>2026-05-10T13:22:04Z</time>
      </trkpt>
      <trkpt lat="46.05515" lon="5.65592">
        <ele>936.6</ele>
        <time>2026-05-10T13:22:05Z</time>
      </trkpt>
      <trkpt lat="46.05513" lon="5.6559">
        <ele>937</ele>
        <time>2026-05-10T13:22:06Z</time>
      </trkpt>
      <trkpt lat="46.0551" lon="5.65588">
        <ele>937</ele>
        <time>2026-05-10T13:22:07Z</time>
      </trkpt>
      <trkpt lat="46.05508" lon="5.65586">
        <ele>937</ele>
        <time>2026-05-10T13:22:08Z</time>
      </trkpt>
      <trkpt lat="46.05506" lon="5.65585">
        <ele>937</ele>
        <time>2026-05-10T13:22:09Z</time>
      </trkpt>
      <trkpt lat="46.05503" lon="5.65583">
        <ele>937.2</ele>
        <time>2026-05-10T13:22:10Z</time>
      </trkpt>
      <trkpt lat="46.05501" lon="5.65582">
        <ele>937.2</ele>
        <time>2026-05-10T13:22:11Z</time>
      </trkpt>
      <trkpt lat="46.05498" lon="5.6558">
        <ele>937.2</ele>
        <time>2026-05-10T13:22:12Z</time>
      </trkpt>
      <trkpt lat="46.05496" lon="5.65579">
        <ele>937.6</ele>
        <time>2026-05-10T13:22:13Z</time>
      </trkpt>
      <trkpt lat="46.05493" lon="5.65578">
        <ele>937.6</ele>
        <time>2026-05-10T13:22:14Z</time>
      </trkpt>
      <trkpt lat="46.05491" lon="5.65577">
        <ele>937.6</ele>
        <time>2026-05-10T13:22:15Z</time>
      </trkpt>
      <trkpt lat="46.05489" lon="5.65575">
        <ele>937.6</ele>
        <time>2026-05-10T13:22:16Z</time>
      </trkpt>
      <trkpt lat="46.05487" lon="5.65574">
        <ele>937.6</ele>
        <time>2026-05-10T13:22:17Z</time>
      </trkpt>
      <trkpt lat="46.05485" lon="5.65573">
        <ele>937.6</ele>
        <time>2026-05-10T13:22:18Z</time>
      </trkpt>
      <trkpt lat="46.05482" lon="5.65573">
        <ele>937.6</ele>
        <time>2026-05-10T13:22:19Z</time>
      </trkpt>
      <trkpt lat="46.0548" lon="5.65572">
        <ele>937.6</ele>
        <time>2026-05-10T13:22:20Z</time>
      </trkpt>
      <trkpt lat="46.05477" lon="5.6557">
        <ele>937.6</ele>
        <time>2026-05-10T13:22:21Z</time>
      </trkpt>
      <trkpt lat="46.05475" lon="5.65569">
        <ele>937.6</ele>
        <time>2026-05-10T13:22:22Z</time>
      </trkpt>
      <trkpt lat="46.05472" lon="5.65569">
        <ele>937.6</ele>
        <time>2026-05-10T13:22:23Z</time>
      </trkpt>
      <trkpt lat="46.05469" lon="5.65568">
        <ele>937.6</ele>
        <time>2026-05-10T13:22:24Z</time>
      </trkpt>
      <trkpt lat="46.05466" lon="5.65567">
        <ele>937</ele>
        <time>2026-05-10T13:22:25Z</time>
      </trkpt>
      <trkpt lat="46.05463" lon="5.65566">
        <ele>937</ele>
        <time>2026-05-10T13:22:26Z</time>
      </trkpt>
      <trkpt lat="46.0546" lon="5.65565">
        <ele>936.6</ele>
        <time>2026-05-10T13:22:27Z</time>
      </trkpt>
      <trkpt lat="46.05457" lon="5.65564">
        <ele>936.6</ele>
        <time>2026-05-10T13:22:28Z</time>
      </trkpt>
      <trkpt lat="46.05453" lon="5.65563">
        <ele>936.2</ele>
        <time>2026-05-10T13:22:29Z</time>
      </trkpt>
      <trkpt lat="46.0545" lon="5.65561">
        <ele>936.2</ele>
        <time>2026-05-10T13:22:30Z</time>
      </trkpt>
      <trkpt lat="46.05444" lon="5.6556">
        <ele>936.2</ele>
        <time>2026-05-10T13:22:31Z</time>
      </trkpt>
      <trkpt lat="46.0544" lon="5.65558">
        <ele>936.2</ele>
        <time>2026-05-10T13:22:32Z</time>
      </trkpt>
      <trkpt lat="46.05435" lon="5.65556">
        <ele>936</ele>
        <time>2026-05-10T13:22:33Z</time>
      </trkpt>
      <trkpt lat="46.05429" lon="5.65554">
        <ele>935.8</ele>
        <time>2026-05-10T13:22:34Z</time>
      </trkpt>
      <trkpt lat="46.05424" lon="5.65551">
        <ele>935.8</ele>
        <time>2026-05-10T13:22:35Z</time>
      </trkpt>
      <trkpt lat="46.05419" lon="5.65549">
        <ele>935.6</ele>
        <time>2026-05-10T13:22:36Z</time>
      </trkpt>
      <trkpt lat="46.05414" lon="5.65546">
        <ele>935.6</ele>
        <time>2026-05-10T13:22:37Z</time>
      </trkpt>
      <trkpt lat="46.05408" lon="5.65544">
        <ele>935.6</ele>
        <time>2026-05-10T13:22:38Z</time>
      </trkpt>
      <trkpt lat="46.05403" lon="5.65541">
        <ele>935.4</ele>
        <time>2026-05-10T13:22:39Z</time>
      </trkpt>
      <trkpt lat="46.05398" lon="5.65539">
        <ele>935</ele>
        <time>2026-05-10T13:22:40Z</time>
      </trkpt>
      <trkpt lat="46.05393" lon="5.65537">
        <ele>935</ele>
        <time>2026-05-10T13:22:41Z</time>
      </trkpt>
      <trkpt lat="46.05388" lon="5.65536">
        <ele>935</ele>
        <time>2026-05-10T13:22:42Z</time>
      </trkpt>
      <trkpt lat="46.05383" lon="5.65535">
        <ele>935.2</ele>
        <time>2026-05-10T13:22:43Z</time>
      </trkpt>
      <trkpt lat="46.05378" lon="5.6553">
        <ele>934.8</ele>
        <time>2026-05-10T13:22:44Z</time>
      </trkpt>
      <trkpt lat="46.05373" lon="5.65527">
        <ele>935</ele>
        <time>2026-05-10T13:22:45Z</time>
      </trkpt>
      <trkpt lat="46.05368" lon="5.65525">
        <ele>934.8</ele>
        <time>2026-05-10T13:22:46Z</time>
      </trkpt>
      <trkpt lat="46.05363" lon="5.65523">
        <ele>934.8</ele>
        <time>2026-05-10T13:22:47Z</time>
      </trkpt>
      <trkpt lat="46.05358" lon="5.65521">
        <ele>934.8</ele>
        <time>2026-05-10T13:22:48Z</time>
      </trkpt>
      <trkpt lat="46.05353" lon="5.65518">
        <ele>934.4</ele>
        <time>2026-05-10T13:22:49Z</time>
      </trkpt>
      <trkpt lat="46.05348" lon="5.65516">
        <ele>934.4</ele>
        <time>2026-05-10T13:22:50Z</time>
      </trkpt>
      <trkpt lat="46.05343" lon="5.65514">
        <ele>934.4</ele>
        <time>2026-05-10T13:22:51Z</time>
      </trkpt>
      <trkpt lat="46.05338" lon="5.65512">
        <ele>934.4</ele>
        <time>2026-05-10T13:22:52Z</time>
      </trkpt>
      <trkpt lat="46.05333" lon="5.65509">
        <ele>934.4</ele>
        <time>2026-05-10T13:22:53Z</time>
      </trkpt>
      <trkpt lat="46.05327" lon="5.65506">
        <ele>934.4</ele>
        <time>2026-05-10T13:22:54Z</time>
      </trkpt>
      <trkpt lat="46.05323" lon="5.65503">
        <ele>934.4</ele>
        <time>2026-05-10T13:22:55Z</time>
      </trkpt>
      <trkpt lat="46.05317" lon="5.655">
        <ele>934.2</ele>
        <time>2026-05-10T13:22:56Z</time>
      </trkpt>
      <trkpt lat="46.05312" lon="5.65497">
        <ele>934.2</ele>
        <time>2026-05-10T13:22:57Z</time>
      </trkpt>
      <trkpt lat="46.05308" lon="5.65493">
        <ele>934.2</ele>
        <time>2026-05-10T13:22:58Z</time>
      </trkpt>
      <trkpt lat="46.05303" lon="5.65488">
        <ele>934.2</ele>
        <time>2026-05-10T13:22:59Z</time>
      </trkpt>
      <trkpt lat="46.053" lon="5.65481">
        <ele>934.2</ele>
        <time>2026-05-10T13:23:00Z</time>
      </trkpt>
      <trkpt lat="46.05296" lon="5.65476">
        <ele>934.2</ele>
        <time>2026-05-10T13:23:01Z</time>
      </trkpt>
      <trkpt lat="46.05293" lon="5.6547">
        <ele>934</ele>
        <time>2026-05-10T13:23:02Z</time>
      </trkpt>
      <trkpt lat="46.05289" lon="5.65465">
        <ele>934</ele>
        <time>2026-05-10T13:23:03Z</time>
      </trkpt>
      <trkpt lat="46.05285" lon="5.65459">
        <ele>934</ele>
        <time>2026-05-10T13:23:04Z</time>
      </trkpt>
      <trkpt lat="46.05281" lon="5.65455">
        <ele>934</ele>
        <time>2026-05-10T13:23:05Z</time>
      </trkpt>
      <trkpt lat="46.05276" lon="5.6545">
        <ele>934</ele>
        <time>2026-05-10T13:23:06Z</time>
      </trkpt>
      <trkpt lat="46.05273" lon="5.65446">
        <ele>934.2</ele>
        <time>2026-05-10T13:23:07Z</time>
      </trkpt>
      <trkpt lat="46.0527" lon="5.65442">
        <ele>934.4</ele>
        <time>2026-05-10T13:23:08Z</time>
      </trkpt>
      <trkpt lat="46.05266" lon="5.65438">
        <ele>934.6</ele>
        <time>2026-05-10T13:23:09Z</time>
      </trkpt>
      <trkpt lat="46.05263" lon="5.65435">
        <ele>934.6</ele>
        <time>2026-05-10T13:23:10Z</time>
      </trkpt>
      <trkpt lat="46.0526" lon="5.65432">
        <ele>935.4</ele>
        <time>2026-05-10T13:23:11Z</time>
      </trkpt>
      <trkpt lat="46.05256" lon="5.65429">
        <ele>935.8</ele>
        <time>2026-05-10T13:23:12Z</time>
      </trkpt>
      <trkpt lat="46.05253" lon="5.65426">
        <ele>935.8</ele>
        <time>2026-05-10T13:23:13Z</time>
      </trkpt>
      <trkpt lat="46.0525" lon="5.65423">
        <ele>935.8</ele>
        <time>2026-05-10T13:23:14Z</time>
      </trkpt>
      <trkpt lat="46.05247" lon="5.65419">
        <ele>936</ele>
        <time>2026-05-10T13:23:15Z</time>
      </trkpt>
      <trkpt lat="46.05245" lon="5.65415">
        <ele>936</ele>
        <time>2026-05-10T13:23:16Z</time>
      </trkpt>
      <trkpt lat="46.05242" lon="5.65413">
        <ele>936</ele>
        <time>2026-05-10T13:23:17Z</time>
      </trkpt>
      <trkpt lat="46.05239" lon="5.6541">
        <ele>936</ele>
        <time>2026-05-10T13:23:18Z</time>
      </trkpt>
      <trkpt lat="46.05237" lon="5.65407">
        <ele>936.4</ele>
        <time>2026-05-10T13:23:19Z</time>
      </trkpt>
      <trkpt lat="46.05233" lon="5.65405">
        <ele>936.6</ele>
        <time>2026-05-10T13:23:20Z</time>
      </trkpt>
      <trkpt lat="46.0523" lon="5.65402">
        <ele>936.6</ele>
        <time>2026-05-10T13:23:21Z</time>
      </trkpt>
      <trkpt lat="46.05228" lon="5.654">
        <ele>936.8</ele>
        <time>2026-05-10T13:23:22Z</time>
      </trkpt>
      <trkpt lat="46.05225" lon="5.65397">
        <ele>936.8</ele>
        <time>2026-05-10T13:23:23Z</time>
      </trkpt>
      <trkpt lat="46.05222" lon="5.65395">
        <ele>937.2</ele>
        <time>2026-05-10T13:23:24Z</time>
      </trkpt>
      <trkpt lat="46.0522" lon="5.65392">
        <ele>937.2</ele>
        <time>2026-05-10T13:23:25Z</time>
      </trkpt>
      <trkpt lat="46.05217" lon="5.65389">
        <ele>937.4</ele>
        <time>2026-05-10T13:23:26Z</time>
      </trkpt>
      <trkpt lat="46.05215" lon="5.65387">
        <ele>937.4</ele>
        <time>2026-05-10T13:23:27Z</time>
      </trkpt>
      <trkpt lat="46.05212" lon="5.65384">
        <ele>937.4</ele>
        <time>2026-05-10T13:23:28Z</time>
      </trkpt>
      <trkpt lat="46.0521" lon="5.65382">
        <ele>937.6</ele>
        <time>2026-05-10T13:23:29Z</time>
      </trkpt>
      <trkpt lat="46.05207" lon="5.65379">
        <ele>937.6</ele>
        <time>2026-05-10T13:23:30Z</time>
      </trkpt>
      <trkpt lat="46.05204" lon="5.65376">
        <ele>937.6</ele>
        <time>2026-05-10T13:23:31Z</time>
      </trkpt>
      <trkpt lat="46.05201" lon="5.65373">
        <ele>937.8</ele>
        <time>2026-05-10T13:23:32Z</time>
      </trkpt>
      <trkpt lat="46.05199" lon="5.6537">
        <ele>937.8</ele>
        <time>2026-05-10T13:23:33Z</time>
      </trkpt>
      <trkpt lat="46.05196" lon="5.65367">
        <ele>938.2</ele>
        <time>2026-05-10T13:23:34Z</time>
      </trkpt>
      <trkpt lat="46.05194" lon="5.65365">
        <ele>938.2</ele>
        <time>2026-05-10T13:23:35Z</time>
      </trkpt>
      <trkpt lat="46.05191" lon="5.65362">
        <ele>938.6</ele>
        <time>2026-05-10T13:23:36Z</time>
      </trkpt>
      <trkpt lat="46.05189" lon="5.65359">
        <ele>938.6</ele>
        <time>2026-05-10T13:23:37Z</time>
      </trkpt>
      <trkpt lat="46.05186" lon="5.65356">
        <ele>939</ele>
        <time>2026-05-10T13:23:38Z</time>
      </trkpt>
      <trkpt lat="46.05183" lon="5.65353">
        <ele>939</ele>
        <time>2026-05-10T13:23:39Z</time>
      </trkpt>
      <trkpt lat="46.05181" lon="5.65351">
        <ele>939</ele>
        <time>2026-05-10T13:23:40Z</time>
      </trkpt>
      <trkpt lat="46.05178" lon="5.65348">
        <ele>939.2</ele>
        <time>2026-05-10T13:23:41Z</time>
      </trkpt>
      <trkpt lat="46.05176" lon="5.65345">
        <ele>939.4</ele>
        <time>2026-05-10T13:23:42Z</time>
      </trkpt>
      <trkpt lat="46.05173" lon="5.65342">
        <ele>939.4</ele>
        <time>2026-05-10T13:23:43Z</time>
      </trkpt>
      <trkpt lat="46.0517" lon="5.65339">
        <ele>939.4</ele>
        <time>2026-05-10T13:23:44Z</time>
      </trkpt>
      <trkpt lat="46.05168" lon="5.65337">
        <ele>939.4</ele>
        <time>2026-05-10T13:23:45Z</time>
      </trkpt>
      <trkpt lat="46.05165" lon="5.65334">
        <ele>939.4</ele>
        <time>2026-05-10T13:23:46Z</time>
      </trkpt>
      <trkpt lat="46.05163" lon="5.65332">
        <ele>939.8</ele>
        <time>2026-05-10T13:23:47Z</time>
      </trkpt>
      <trkpt lat="46.0516" lon="5.65329">
        <ele>939.8</ele>
        <time>2026-05-10T13:23:48Z</time>
      </trkpt>
      <trkpt lat="46.05158" lon="5.65327">
        <ele>939.8</ele>
        <time>2026-05-10T13:23:49Z</time>
      </trkpt>
      <trkpt lat="46.05156" lon="5.65324">
        <ele>940</ele>
        <time>2026-05-10T13:23:50Z</time>
      </trkpt>
      <trkpt lat="46.05154" lon="5.65321">
        <ele>940</ele>
        <time>2026-05-10T13:23:51Z</time>
      </trkpt>
      <trkpt lat="46.05154" lon="5.65321">
        <ele>940</ele>
        <time>2026-05-10T13:23:52Z</time>
      </trkpt>
      <trkpt lat="46.05154" lon="5.65321">
        <ele>940</ele>
        <time>2026-05-10T13:23:53Z</time>
      </trkpt>
      <trkpt lat="46.05142" lon="5.65311">
        <ele>940.4</ele>
        <time>2026-05-10T13:23:55Z</time>
      </trkpt>
      <trkpt lat="46.0514" lon="5.65309">
        <ele>940.4</ele>
        <time>2026-05-10T13:23:56Z</time>
      </trkpt>
      <trkpt lat="46.05137" lon="5.65306">
        <ele>940.6</ele>
        <time>2026-05-10T13:23:57Z</time>
      </trkpt>
      <trkpt lat="46.05135" lon="5.65304">
        <ele>940.6</ele>
        <time>2026-05-10T13:23:58Z</time>
      </trkpt>
      <trkpt lat="46.05132" lon="5.65301">
        <ele>940.6</ele>
        <time>2026-05-10T13:23:59Z</time>
      </trkpt>
      <trkpt lat="46.05129" lon="5.65298">
        <ele>941</ele>
        <time>2026-05-10T13:24:00Z</time>
      </trkpt>
      <trkpt lat="46.05127" lon="5.65295">
        <ele>941.2</ele>
        <time>2026-05-10T13:24:01Z</time>
      </trkpt>
      <trkpt lat="46.05124" lon="5.65293">
        <ele>941.2</ele>
        <time>2026-05-10T13:24:02Z</time>
      </trkpt>
      <trkpt lat="46.05122" lon="5.65291">
        <ele>941.4</ele>
        <time>2026-05-10T13:24:03Z</time>
      </trkpt>
      <trkpt lat="46.05119" lon="5.65289">
        <ele>941.4</ele>
        <time>2026-05-10T13:24:04Z</time>
      </trkpt>
      <trkpt lat="46.05117" lon="5.65287">
        <ele>941.6</ele>
        <time>2026-05-10T13:24:05Z</time>
      </trkpt>
      <trkpt lat="46.05114" lon="5.65284">
        <ele>941.6</ele>
        <time>2026-05-10T13:24:06Z</time>
      </trkpt>
      <trkpt lat="46.05112" lon="5.65282">
        <ele>942</ele>
        <time>2026-05-10T13:24:07Z</time>
      </trkpt>
      <trkpt lat="46.05109" lon="5.6528">
        <ele>942</ele>
        <time>2026-05-10T13:24:08Z</time>
      </trkpt>
      <trkpt lat="46.05106" lon="5.65278">
        <ele>942.2</ele>
        <time>2026-05-10T13:24:09Z</time>
      </trkpt>
      <trkpt lat="46.05104" lon="5.65276">
        <ele>942.2</ele>
        <time>2026-05-10T13:24:10Z</time>
      </trkpt>
      <trkpt lat="46.05101" lon="5.65274">
        <ele>942.2</ele>
        <time>2026-05-10T13:24:11Z</time>
      </trkpt>
      <trkpt lat="46.05098" lon="5.65272">
        <ele>942.6</ele>
        <time>2026-05-10T13:24:12Z</time>
      </trkpt>
      <trkpt lat="46.05095" lon="5.65269">
        <ele>942.6</ele>
        <time>2026-05-10T13:24:13Z</time>
      </trkpt>
      <trkpt lat="46.05092" lon="5.65267">
        <ele>942.8</ele>
        <time>2026-05-10T13:24:14Z</time>
      </trkpt>
      <trkpt lat="46.0509" lon="5.65265">
        <ele>943.2</ele>
        <time>2026-05-10T13:24:15Z</time>
      </trkpt>
      <trkpt lat="46.05087" lon="5.65264">
        <ele>943.4</ele>
        <time>2026-05-10T13:24:16Z</time>
      </trkpt>
      <trkpt lat="46.05084" lon="5.65263">
        <ele>943.4</ele>
        <time>2026-05-10T13:24:17Z</time>
      </trkpt>
      <trkpt lat="46.05081" lon="5.65261">
        <ele>943.8</ele>
        <time>2026-05-10T13:24:18Z</time>
      </trkpt>
      <trkpt lat="46.05078" lon="5.6526">
        <ele>943.8</ele>
        <time>2026-05-10T13:24:19Z</time>
      </trkpt>
      <trkpt lat="46.05075" lon="5.65259">
        <ele>944</ele>
        <time>2026-05-10T13:24:20Z</time>
      </trkpt>
      <trkpt lat="46.05072" lon="5.65258">
        <ele>944</ele>
        <time>2026-05-10T13:24:21Z</time>
      </trkpt>
      <trkpt lat="46.0507" lon="5.65257">
        <ele>944</ele>
        <time>2026-05-10T13:24:22Z</time>
      </trkpt>
      <trkpt lat="46.05067" lon="5.65256">
        <ele>944</ele>
        <time>2026-05-10T13:24:23Z</time>
      </trkpt>
      <trkpt lat="46.05065" lon="5.65254">
        <ele>944</ele>
        <time>2026-05-10T13:24:24Z</time>
      </trkpt>
      <trkpt lat="46.05062" lon="5.65252">
        <ele>944.2</ele>
        <time>2026-05-10T13:24:25Z</time>
      </trkpt>
      <trkpt lat="46.05059" lon="5.6525">
        <ele>944.2</ele>
        <time>2026-05-10T13:24:26Z</time>
      </trkpt>
      <trkpt lat="46.05056" lon="5.65248">
        <ele>944.4</ele>
        <time>2026-05-10T13:24:27Z</time>
      </trkpt>
      <trkpt lat="46.05053" lon="5.65247">
        <ele>944.4</ele>
        <time>2026-05-10T13:24:28Z</time>
      </trkpt>
      <trkpt lat="46.0505" lon="5.65245">
        <ele>944.4</ele>
        <time>2026-05-10T13:24:29Z</time>
      </trkpt>
      <trkpt lat="46.05047" lon="5.65244">
        <ele>944.4</ele>
        <time>2026-05-10T13:24:30Z</time>
      </trkpt>
      <trkpt lat="46.05043" lon="5.65243">
        <ele>944.4</ele>
        <time>2026-05-10T13:24:31Z</time>
      </trkpt>
      <trkpt lat="46.0504" lon="5.65241">
        <ele>944.4</ele>
        <time>2026-05-10T13:24:32Z</time>
      </trkpt>
      <trkpt lat="46.05037" lon="5.6524">
        <ele>944.4</ele>
        <time>2026-05-10T13:24:33Z</time>
      </trkpt>
      <trkpt lat="46.05034" lon="5.6524">
        <ele>944.4</ele>
        <time>2026-05-10T13:24:34Z</time>
      </trkpt>
      <trkpt lat="46.0503" lon="5.65239">
        <ele>944.4</ele>
        <time>2026-05-10T13:24:35Z</time>
      </trkpt>
      <trkpt lat="46.05027" lon="5.65239">
        <ele>944.4</ele>
        <time>2026-05-10T13:24:36Z</time>
      </trkpt>
      <trkpt lat="46.05027" lon="5.65239">
        <ele>944.2</ele>
        <time>2026-05-10T13:24:37Z</time>
      </trkpt>
      <trkpt lat="46.05016" lon="5.65244">
        <ele>944</ele>
        <time>2026-05-10T13:24:38Z</time>
      </trkpt>
      <trkpt lat="46.05012" lon="5.65244">
        <ele>944</ele>
        <time>2026-05-10T13:24:39Z</time>
      </trkpt>
      <trkpt lat="46.05008" lon="5.65245">
        <ele>943.6</ele>
        <time>2026-05-10T13:24:40Z</time>
      </trkpt>
      <trkpt lat="46.05003" lon="5.65245">
        <ele>943.2</ele>
        <time>2026-05-10T13:24:41Z</time>
      </trkpt>
      <trkpt lat="46.04999" lon="5.65245">
        <ele>943</ele>
        <time>2026-05-10T13:24:42Z</time>
      </trkpt>
      <trkpt lat="46.04995" lon="5.65245">
        <ele>942.6</ele>
        <time>2026-05-10T13:24:43Z</time>
      </trkpt>
      <trkpt lat="46.04992" lon="5.65247">
        <ele>942.2</ele>
        <time>2026-05-10T13:24:44Z</time>
      </trkpt>
      <trkpt lat="46.04985" lon="5.65248">
        <ele>942</ele>
        <time>2026-05-10T13:24:45Z</time>
      </trkpt>
      <trkpt lat="46.04978" lon="5.65252">
        <ele>941.6</ele>
        <time>2026-05-10T13:24:46Z</time>
      </trkpt>
      <trkpt lat="46.04972" lon="5.65258">
        <ele>941.6</ele>
        <time>2026-05-10T13:24:47Z</time>
      </trkpt>
      <trkpt lat="46.04969" lon="5.65259">
        <ele>941</ele>
        <time>2026-05-10T13:24:48Z</time>
      </trkpt>
      <trkpt lat="46.04962" lon="5.65262">
        <ele>940.6</ele>
        <time>2026-05-10T13:24:49Z</time>
      </trkpt>
      <trkpt lat="46.04955" lon="5.65261">
        <ele>940.6</ele>
        <time>2026-05-10T13:24:50Z</time>
      </trkpt>
      <trkpt lat="46.04949" lon="5.65264">
        <ele>939.6</ele>
        <time>2026-05-10T13:24:51Z</time>
      </trkpt>
      <trkpt lat="46.04943" lon="5.65268">
        <ele>939.6</ele>
        <time>2026-05-10T13:24:52Z</time>
      </trkpt>
      <trkpt lat="46.04943" lon="5.65268">
        <ele>939</ele>
        <time>2026-05-10T13:24:53Z</time>
      </trkpt>
      <trkpt lat="46.04936" lon="5.65271">
        <ele>938.4</ele>
        <time>2026-05-10T13:24:54Z</time>
      </trkpt>
      <trkpt lat="46.04931" lon="5.65276">
        <ele>938.4</ele>
        <time>2026-05-10T13:24:55Z</time>
      </trkpt>
      <trkpt lat="46.04925" lon="5.65278">
        <ele>937.6</ele>
        <time>2026-05-10T13:24:56Z</time>
      </trkpt>
      <trkpt lat="46.04919" lon="5.65283">
        <ele>937.2</ele>
        <time>2026-05-10T13:24:57Z</time>
      </trkpt>
      <trkpt lat="46.04913" lon="5.65287">
        <ele>937.2</ele>
        <time>2026-05-10T13:24:58Z</time>
      </trkpt>
      <trkpt lat="46.04908" lon="5.6529">
        <ele>936.2</ele>
        <time>2026-05-10T13:24:59Z</time>
      </trkpt>
      <trkpt lat="46.04902" lon="5.65294">
        <ele>935.6</ele>
        <time>2026-05-10T13:25:00Z</time>
      </trkpt>
      <trkpt lat="46.04896" lon="5.65297">
        <ele>935.6</ele>
        <time>2026-05-10T13:25:01Z</time>
      </trkpt>
      <trkpt lat="46.04891" lon="5.65301">
        <ele>935.2</ele>
        <time>2026-05-10T13:25:02Z</time>
      </trkpt>
      <trkpt lat="46.04885" lon="5.65304">
        <ele>934.8</ele>
        <time>2026-05-10T13:25:03Z</time>
      </trkpt>
      <trkpt lat="46.0488" lon="5.65307">
        <ele>934.2</ele>
        <time>2026-05-10T13:25:04Z</time>
      </trkpt>
      <trkpt lat="46.04874" lon="5.6531">
        <ele>933.6</ele>
        <time>2026-05-10T13:25:05Z</time>
      </trkpt>
      <trkpt lat="46.04868" lon="5.65312">
        <ele>933.6</ele>
        <time>2026-05-10T13:25:06Z</time>
      </trkpt>
      <trkpt lat="46.0486" lon="5.65312">
        <ele>933.2</ele>
        <time>2026-05-10T13:25:07Z</time>
      </trkpt>
      <trkpt lat="46.04853" lon="5.65313">
        <ele>932.6</ele>
        <time>2026-05-10T13:25:08Z</time>
      </trkpt>
      <trkpt lat="46.04846" lon="5.65315">
        <ele>932</ele>
        <time>2026-05-10T13:25:09Z</time>
      </trkpt>
      <trkpt lat="46.04838" lon="5.65314">
        <ele>931.2</ele>
        <time>2026-05-10T13:25:10Z</time>
      </trkpt>
      <trkpt lat="46.04832" lon="5.65313">
        <ele>931.2</ele>
        <time>2026-05-10T13:25:11Z</time>
      </trkpt>
      <trkpt lat="46.04826" lon="5.65311">
        <ele>930.6</ele>
        <time>2026-05-10T13:25:12Z</time>
      </trkpt>
      <trkpt lat="46.04819" lon="5.65307">
        <ele>930.2</ele>
        <time>2026-05-10T13:25:13Z</time>
      </trkpt>
      <trkpt lat="46.04813" lon="5.65308">
        <ele>930.2</ele>
        <time>2026-05-10T13:25:14Z</time>
      </trkpt>
      <trkpt lat="46.04806" lon="5.65307">
        <ele>929.8</ele>
        <time>2026-05-10T13:25:15Z</time>
      </trkpt>
      <trkpt lat="46.04799" lon="5.65305">
        <ele>929.8</ele>
        <time>2026-05-10T13:25:16Z</time>
      </trkpt>
      <trkpt lat="46.04793" lon="5.65303">
        <ele>929.2</ele>
        <time>2026-05-10T13:25:17Z</time>
      </trkpt>
      <trkpt lat="46.04787" lon="5.65304">
        <ele>929.2</ele>
        <time>2026-05-10T13:25:18Z</time>
      </trkpt>
      <trkpt lat="46.0478" lon="5.65303">
        <ele>929.2</ele>
        <time>2026-05-10T13:25:19Z</time>
      </trkpt>
      <trkpt lat="46.04774" lon="5.65302">
        <ele>929.2</ele>
        <time>2026-05-10T13:25:20Z</time>
      </trkpt>
      <trkpt lat="46.04767" lon="5.65301">
        <ele>929.2</ele>
        <time>2026-05-10T13:25:21Z</time>
      </trkpt>
      <trkpt lat="46.04761" lon="5.653">
        <ele>928.6</ele>
        <time>2026-05-10T13:25:22Z</time>
      </trkpt>
      <trkpt lat="46.04755" lon="5.65299">
        <ele>928.6</ele>
        <time>2026-05-10T13:25:23Z</time>
      </trkpt>
      <trkpt lat="46.04748" lon="5.65299">
        <ele>928.6</ele>
        <time>2026-05-10T13:25:24Z</time>
      </trkpt>
      <trkpt lat="46.04742" lon="5.65299">
        <ele>928.6</ele>
        <time>2026-05-10T13:25:25Z</time>
      </trkpt>
      <trkpt lat="46.04735" lon="5.65298">
        <ele>929.4</ele>
        <time>2026-05-10T13:25:26Z</time>
      </trkpt>
      <trkpt lat="46.04729" lon="5.65296">
        <ele>929.4</ele>
        <time>2026-05-10T13:25:27Z</time>
      </trkpt>
      <trkpt lat="46.04723" lon="5.65293">
        <ele>929.2</ele>
        <time>2026-05-10T13:25:28Z</time>
      </trkpt>
      <trkpt lat="46.04718" lon="5.6529">
        <ele>928.8</ele>
        <time>2026-05-10T13:25:29Z</time>
      </trkpt>
      <trkpt lat="46.04712" lon="5.65285">
        <ele>928.6</ele>
        <time>2026-05-10T13:25:30Z</time>
      </trkpt>
      <trkpt lat="46.04708" lon="5.65281">
        <ele>928.6</ele>
        <time>2026-05-10T13:25:31Z</time>
      </trkpt>
      <trkpt lat="46.04703" lon="5.65276">
        <ele>929</ele>
        <time>2026-05-10T13:25:32Z</time>
      </trkpt>
      <trkpt lat="46.047" lon="5.65271">
        <ele>929</ele>
        <time>2026-05-10T13:25:33Z</time>
      </trkpt>
      <trkpt lat="46.04695" lon="5.65266">
        <ele>928.6</ele>
        <time>2026-05-10T13:25:34Z</time>
      </trkpt>
      <trkpt lat="46.0469" lon="5.65261">
        <ele>928.6</ele>
        <time>2026-05-10T13:25:35Z</time>
      </trkpt>
      <trkpt lat="46.04686" lon="5.65257">
        <ele>929</ele>
        <time>2026-05-10T13:25:36Z</time>
      </trkpt>
      <trkpt lat="46.04682" lon="5.65252">
        <ele>929</ele>
        <time>2026-05-10T13:25:37Z</time>
      </trkpt>
      <trkpt lat="46.04678" lon="5.65248">
        <ele>929.4</ele>
        <time>2026-05-10T13:25:38Z</time>
      </trkpt>
      <trkpt lat="46.04674" lon="5.65243">
        <ele>929.8</ele>
        <time>2026-05-10T13:25:39Z</time>
      </trkpt>
      <trkpt lat="46.0467" lon="5.65239">
        <ele>930</ele>
        <time>2026-05-10T13:25:40Z</time>
      </trkpt>
      <trkpt lat="46.04666" lon="5.65234">
        <ele>930.2</ele>
        <time>2026-05-10T13:25:41Z</time>
      </trkpt>
      <trkpt lat="46.04662" lon="5.6523">
        <ele>930.2</ele>
        <time>2026-05-10T13:25:42Z</time>
      </trkpt>
      <trkpt lat="46.04659" lon="5.65226">
        <ele>930.2</ele>
        <time>2026-05-10T13:25:43Z</time>
      </trkpt>
      <trkpt lat="46.04655" lon="5.65222">
        <ele>930.2</ele>
        <time>2026-05-10T13:25:44Z</time>
      </trkpt>
      <trkpt lat="46.04652" lon="5.65218">
        <ele>930.2</ele>
        <time>2026-05-10T13:25:45Z</time>
      </trkpt>
      <trkpt lat="46.04648" lon="5.65214">
        <ele>930.2</ele>
        <time>2026-05-10T13:25:46Z</time>
      </trkpt>
      <trkpt lat="46.04643" lon="5.65211">
        <ele>930.2</ele>
        <time>2026-05-10T13:25:47Z</time>
      </trkpt>
      <trkpt lat="46.04639" lon="5.65208">
        <ele>929.8</ele>
        <time>2026-05-10T13:25:48Z</time>
      </trkpt>
      <trkpt lat="46.04634" lon="5.65207">
        <ele>929.8</ele>
        <time>2026-05-10T13:25:49Z</time>
      </trkpt>
      <trkpt lat="46.04629" lon="5.65207">
        <ele>929.6</ele>
        <time>2026-05-10T13:25:50Z</time>
      </trkpt>
      <trkpt lat="46.04623" lon="5.65206">
        <ele>929</ele>
        <time>2026-05-10T13:25:51Z</time>
      </trkpt>
      <trkpt lat="46.04617" lon="5.65205">
        <ele>928.8</ele>
        <time>2026-05-10T13:25:52Z</time>
      </trkpt>
      <trkpt lat="46.04613" lon="5.65213">
        <ele>928.6</ele>
        <time>2026-05-10T13:25:53Z</time>
      </trkpt>
      <trkpt lat="46.04608" lon="5.65218">
        <ele>928.6</ele>
        <time>2026-05-10T13:25:54Z</time>
      </trkpt>
      <trkpt lat="46.04605" lon="5.65223">
        <ele>928.6</ele>
        <time>2026-05-10T13:25:55Z</time>
      </trkpt>
      <trkpt lat="46.04601" lon="5.65226">
        <ele>928.8</ele>
        <time>2026-05-10T13:25:56Z</time>
      </trkpt>
      <trkpt lat="46.04597" lon="5.6523">
        <ele>928.4</ele>
        <time>2026-05-10T13:25:57Z</time>
      </trkpt>
      <trkpt lat="46.04595" lon="5.65234">
        <ele>928.4</ele>
        <time>2026-05-10T13:25:58Z</time>
      </trkpt>
      <trkpt lat="46.04592" lon="5.65238">
        <ele>928.4</ele>
        <time>2026-05-10T13:25:59Z</time>
      </trkpt>
      <trkpt lat="46.04589" lon="5.65242">
        <ele>928.8</ele>
        <time>2026-05-10T13:26:00Z</time>
      </trkpt>
      <trkpt lat="46.04587" lon="5.65245">
        <ele>929.2</ele>
        <time>2026-05-10T13:26:01Z</time>
      </trkpt>
      <trkpt lat="46.04582" lon="5.65247">
        <ele>929.2</ele>
        <time>2026-05-10T13:26:02Z</time>
      </trkpt>
      <trkpt lat="46.04578" lon="5.65247">
        <ele>929.6</ele>
        <time>2026-05-10T13:26:03Z</time>
      </trkpt>
      <trkpt lat="46.04574" lon="5.65249">
        <ele>929.8</ele>
        <time>2026-05-10T13:26:04Z</time>
      </trkpt>
      <trkpt lat="46.0457" lon="5.6525">
        <ele>929.8</ele>
        <time>2026-05-10T13:26:05Z</time>
      </trkpt>
      <trkpt lat="46.04566" lon="5.6525">
        <ele>929.8</ele>
        <time>2026-05-10T13:26:06Z</time>
      </trkpt>
      <trkpt lat="46.04561" lon="5.65251">
        <ele>929.8</ele>
        <time>2026-05-10T13:26:07Z</time>
      </trkpt>
      <trkpt lat="46.04556" lon="5.65251">
        <ele>929.8</ele>
        <time>2026-05-10T13:26:08Z</time>
      </trkpt>
      <trkpt lat="46.04552" lon="5.65252">
        <ele>929.8</ele>
        <time>2026-05-10T13:26:09Z</time>
      </trkpt>
      <trkpt lat="46.04548" lon="5.6525">
        <ele>929.8</ele>
        <time>2026-05-10T13:26:10Z</time>
      </trkpt>
      <trkpt lat="46.04544" lon="5.65251">
        <ele>929.8</ele>
        <time>2026-05-10T13:26:11Z</time>
      </trkpt>
      <trkpt lat="46.04539" lon="5.65251">
        <ele>929.8</ele>
        <time>2026-05-10T13:26:12Z</time>
      </trkpt>
      <trkpt lat="46.04535" lon="5.65252">
        <ele>929.8</ele>
        <time>2026-05-10T13:26:13Z</time>
      </trkpt>
      <trkpt lat="46.04532" lon="5.65252">
        <ele>929.8</ele>
        <time>2026-05-10T13:26:14Z</time>
      </trkpt>
      <trkpt lat="46.04527" lon="5.65251">
        <ele>929.8</ele>
        <time>2026-05-10T13:26:15Z</time>
      </trkpt>
      <trkpt lat="46.04523" lon="5.6525">
        <ele>929.8</ele>
        <time>2026-05-10T13:26:16Z</time>
      </trkpt>
      <trkpt lat="46.04518" lon="5.65249">
        <ele>929.8</ele>
        <time>2026-05-10T13:26:17Z</time>
      </trkpt>
      <trkpt lat="46.04514" lon="5.65247">
        <ele>929.8</ele>
        <time>2026-05-10T13:26:18Z</time>
      </trkpt>
      <trkpt lat="46.0451" lon="5.65246">
        <ele>929.8</ele>
        <time>2026-05-10T13:26:19Z</time>
      </trkpt>
      <trkpt lat="46.04505" lon="5.65244">
        <ele>929.8</ele>
        <time>2026-05-10T13:26:20Z</time>
      </trkpt>
      <trkpt lat="46.045" lon="5.65243">
        <ele>929.2</ele>
        <time>2026-05-10T13:26:21Z</time>
      </trkpt>
      <trkpt lat="46.04496" lon="5.65242">
        <ele>929.2</ele>
        <time>2026-05-10T13:26:22Z</time>
      </trkpt>
      <trkpt lat="46.04492" lon="5.65241">
        <ele>929</ele>
        <time>2026-05-10T13:26:23Z</time>
      </trkpt>
      <trkpt lat="46.04489" lon="5.65238">
        <ele>929</ele>
        <time>2026-05-10T13:26:24Z</time>
      </trkpt>
      <trkpt lat="46.04484" lon="5.65236">
        <ele>929</ele>
        <time>2026-05-10T13:26:25Z</time>
      </trkpt>
      <trkpt lat="46.0448" lon="5.65234">
        <ele>929</ele>
        <time>2026-05-10T13:26:26Z</time>
      </trkpt>
      <trkpt lat="46.04476" lon="5.65231">
        <ele>929</ele>
        <time>2026-05-10T13:26:27Z</time>
      </trkpt>
      <trkpt lat="46.04472" lon="5.65229">
        <ele>929.2</ele>
        <time>2026-05-10T13:26:28Z</time>
      </trkpt>
      <trkpt lat="46.04467" lon="5.65227">
        <ele>929.6</ele>
        <time>2026-05-10T13:26:29Z</time>
      </trkpt>
      <trkpt lat="46.04463" lon="5.65224">
        <ele>929.6</ele>
        <time>2026-05-10T13:26:30Z</time>
      </trkpt>
      <trkpt lat="46.04459" lon="5.6522">
        <ele>929.6</ele>
        <time>2026-05-10T13:26:31Z</time>
      </trkpt>
      <trkpt lat="46.04455" lon="5.65217">
        <ele>929.6</ele>
        <time>2026-05-10T13:26:32Z</time>
      </trkpt>
      <trkpt lat="46.0445" lon="5.65213">
        <ele>929.6</ele>
        <time>2026-05-10T13:26:33Z</time>
      </trkpt>
      <trkpt lat="46.04446" lon="5.6521">
        <ele>929.6</ele>
        <time>2026-05-10T13:26:34Z</time>
      </trkpt>
      <trkpt lat="46.04442" lon="5.65205">
        <ele>929.6</ele>
        <time>2026-05-10T13:26:35Z</time>
      </trkpt>
      <trkpt lat="46.04438" lon="5.65201">
        <ele>929.6</ele>
        <time>2026-05-10T13:26:36Z</time>
      </trkpt>
      <trkpt lat="46.04435" lon="5.65196">
        <ele>929.6</ele>
        <time>2026-05-10T13:26:37Z</time>
      </trkpt>
      <trkpt lat="46.0443" lon="5.65192">
        <ele>929.6</ele>
        <time>2026-05-10T13:26:38Z</time>
      </trkpt>
      <trkpt lat="46.04426" lon="5.65188">
        <ele>929.6</ele>
        <time>2026-05-10T13:26:39Z</time>
      </trkpt>
      <trkpt lat="46.04422" lon="5.65183">
        <ele>929.6</ele>
        <time>2026-05-10T13:26:40Z</time>
      </trkpt>
      <trkpt lat="46.04418" lon="5.65181">
        <ele>929.6</ele>
        <time>2026-05-10T13:26:41Z</time>
      </trkpt>
      <trkpt lat="46.04413" lon="5.65178">
        <ele>929.6</ele>
        <time>2026-05-10T13:26:42Z</time>
      </trkpt>
      <trkpt lat="46.04409" lon="5.65175">
        <ele>929.6</ele>
        <time>2026-05-10T13:26:43Z</time>
      </trkpt>
      <trkpt lat="46.04405" lon="5.65172">
        <ele>929.2</ele>
        <time>2026-05-10T13:26:44Z</time>
      </trkpt>
      <trkpt lat="46.044" lon="5.65168">
        <ele>929.2</ele>
        <time>2026-05-10T13:26:45Z</time>
      </trkpt>
      <trkpt lat="46.04396" lon="5.65166">
        <ele>929.2</ele>
        <time>2026-05-10T13:26:46Z</time>
      </trkpt>
      <trkpt lat="46.04391" lon="5.65163">
        <ele>929</ele>
        <time>2026-05-10T13:26:47Z</time>
      </trkpt>
      <trkpt lat="46.04386" lon="5.6516">
        <ele>929</ele>
        <time>2026-05-10T13:26:48Z</time>
      </trkpt>
      <trkpt lat="46.04382" lon="5.65157">
        <ele>928.6</ele>
        <time>2026-05-10T13:26:49Z</time>
      </trkpt>
      <trkpt lat="46.04377" lon="5.65155">
        <ele>928.6</ele>
        <time>2026-05-10T13:26:50Z</time>
      </trkpt>
      <trkpt lat="46.04373" lon="5.65153">
        <ele>928.2</ele>
        <time>2026-05-10T13:26:51Z</time>
      </trkpt>
      <trkpt lat="46.04368" lon="5.65151">
        <ele>928.2</ele>
        <time>2026-05-10T13:26:52Z</time>
      </trkpt>
      <trkpt lat="46.04363" lon="5.65149">
        <ele>928.2</ele>
        <time>2026-05-10T13:26:53Z</time>
      </trkpt>
      <trkpt lat="46.04359" lon="5.65146">
        <ele>928.2</ele>
        <time>2026-05-10T13:26:54Z</time>
      </trkpt>
      <trkpt lat="46.04355" lon="5.65144">
        <ele>928.2</ele>
        <time>2026-05-10T13:26:55Z</time>
      </trkpt>
      <trkpt lat="46.04351" lon="5.6514">
        <ele>928</ele>
        <time>2026-05-10T13:26:56Z</time>
      </trkpt>
      <trkpt lat="46.04347" lon="5.65138">
        <ele>928</ele>
        <time>2026-05-10T13:26:57Z</time>
      </trkpt>
      <trkpt lat="46.04343" lon="5.65134">
        <ele>928</ele>
        <time>2026-05-10T13:26:58Z</time>
      </trkpt>
      <trkpt lat="46.04338" lon="5.65131">
        <ele>928</ele>
        <time>2026-05-10T13:26:59Z</time>
      </trkpt>
      <trkpt lat="46.04334" lon="5.65129">
        <ele>928</ele>
        <time>2026-05-10T13:27:00Z</time>
      </trkpt>
      <trkpt lat="46.04329" lon="5.65126">
        <ele>928</ele>
        <time>2026-05-10T13:27:01Z</time>
      </trkpt>
      <trkpt lat="46.04324" lon="5.65123">
        <ele>928</ele>
        <time>2026-05-10T13:27:02Z</time>
      </trkpt>
      <trkpt lat="46.04319" lon="5.65122">
        <ele>928</ele>
        <time>2026-05-10T13:27:03Z</time>
      </trkpt>
      <trkpt lat="46.04314" lon="5.65117">
        <ele>928</ele>
        <time>2026-05-10T13:27:04Z</time>
      </trkpt>
      <trkpt lat="46.04309" lon="5.65116">
        <ele>927.4</ele>
        <time>2026-05-10T13:27:05Z</time>
      </trkpt>
      <trkpt lat="46.04303" lon="5.65114">
        <ele>927.4</ele>
        <time>2026-05-10T13:27:06Z</time>
      </trkpt>
      <trkpt lat="46.04298" lon="5.65112">
        <ele>927.4</ele>
        <time>2026-05-10T13:27:07Z</time>
      </trkpt>
      <trkpt lat="46.04292" lon="5.65111">
        <ele>927.2</ele>
        <time>2026-05-10T13:27:08Z</time>
      </trkpt>
      <trkpt lat="46.04287" lon="5.6511">
        <ele>926.6</ele>
        <time>2026-05-10T13:27:09Z</time>
      </trkpt>
      <trkpt lat="46.04282" lon="5.65109">
        <ele>926.4</ele>
        <time>2026-05-10T13:27:10Z</time>
      </trkpt>
      <trkpt lat="46.04277" lon="5.65108">
        <ele>926</ele>
        <time>2026-05-10T13:27:11Z</time>
      </trkpt>
      <trkpt lat="46.04273" lon="5.65107">
        <ele>926</ele>
        <time>2026-05-10T13:27:12Z</time>
      </trkpt>
      <trkpt lat="46.04272" lon="5.65107">
        <ele>926</ele>
        <time>2026-05-10T13:27:13Z</time>
      </trkpt>
      <trkpt lat="46.04271" lon="5.65107">
        <ele>926.2</ele>
        <time>2026-05-10T13:27:14Z</time>
      </trkpt>
      <trkpt lat="46.04271" lon="5.65108">
        <ele>926.2</ele>
        <time>2026-05-10T13:27:15Z</time>
      </trkpt>
      <trkpt lat="46.04271" lon="5.65108">
        <ele>926.2</ele>
        <time>2026-05-10T13:27:16Z</time>
      </trkpt>
      <trkpt lat="46.04266" lon="5.65109">
        <ele>926.2</ele>
        <time>2026-05-10T13:33:05Z</time>
      </trkpt>
      <trkpt lat="46.04265" lon="5.6511">
        <ele>926</ele>
        <time>2026-05-10T13:33:06Z</time>
      </trkpt>
      <trkpt lat="46.04264" lon="5.6511">
        <ele>925.8</ele>
        <time>2026-05-10T13:33:07Z</time>
      </trkpt>
      <trkpt lat="46.04264" lon="5.6511">
        <ele>925.8</ele>
        <time>2026-05-10T13:33:08Z</time>
      </trkpt>
      <trkpt lat="46.04264" lon="5.6511">
        <ele>925.4</ele>
        <time>2026-05-10T13:33:09Z</time>
      </trkpt>
      <trkpt lat="46.04264" lon="5.6511">
        <ele>925.4</ele>
        <time>2026-05-10T13:33:10Z</time>
      </trkpt>
      <trkpt lat="46.0426" lon="5.65108">
        <ele>925.2</ele>
        <time>2026-05-10T13:33:15Z</time>
      </trkpt>
      <trkpt lat="46.04259" lon="5.65107">
        <ele>925.2</ele>
        <time>2026-05-10T13:33:16Z</time>
      </trkpt>
      <trkpt lat="46.04256" lon="5.65107">
        <ele>924.6</ele>
        <time>2026-05-10T13:33:17Z</time>
      </trkpt>
      <trkpt lat="46.04254" lon="5.65106">
        <ele>924.6</ele>
        <time>2026-05-10T13:33:18Z</time>
      </trkpt>
      <trkpt lat="46.04254" lon="5.65106">
        <ele>924.4</ele>
        <time>2026-05-10T13:33:19Z</time>
      </trkpt>
      <trkpt lat="46.04253" lon="5.65106">
        <ele>924.2</ele>
        <time>2026-05-10T13:33:20Z</time>
      </trkpt>
      <trkpt lat="46.0425" lon="5.65106">
        <ele>924</ele>
        <time>2026-05-10T13:33:21Z</time>
      </trkpt>
      <trkpt lat="46.04247" lon="5.65106">
        <ele>923.6</ele>
        <time>2026-05-10T13:33:22Z</time>
      </trkpt>
      <trkpt lat="46.04244" lon="5.65106">
        <ele>923.2</ele>
        <time>2026-05-10T13:33:23Z</time>
      </trkpt>
      <trkpt lat="46.04241" lon="5.65105">
        <ele>923.2</ele>
        <time>2026-05-10T13:33:24Z</time>
      </trkpt>
      <trkpt lat="46.04235" lon="5.65104">
        <ele>922.6</ele>
        <time>2026-05-10T13:33:25Z</time>
      </trkpt>
      <trkpt lat="46.04231" lon="5.65104">
        <ele>922.8</ele>
        <time>2026-05-10T13:33:26Z</time>
      </trkpt>
      <trkpt lat="46.04226" lon="5.65103">
        <ele>922.4</ele>
        <time>2026-05-10T13:33:27Z</time>
      </trkpt>
      <trkpt lat="46.0422" lon="5.65102">
        <ele>922</ele>
        <time>2026-05-10T13:33:28Z</time>
      </trkpt>
      <trkpt lat="46.04215" lon="5.65101">
        <ele>921.4</ele>
        <time>2026-05-10T13:33:29Z</time>
      </trkpt>
      <trkpt lat="46.04209" lon="5.65101">
        <ele>921</ele>
        <time>2026-05-10T13:33:30Z</time>
      </trkpt>
      <trkpt lat="46.04205" lon="5.65099">
        <ele>920.4</ele>
        <time>2026-05-10T13:33:31Z</time>
      </trkpt>
      <trkpt lat="46.04197" lon="5.65099">
        <ele>920</ele>
        <time>2026-05-10T13:33:32Z</time>
      </trkpt>
      <trkpt lat="46.04191" lon="5.65099">
        <ele>919.8</ele>
        <time>2026-05-10T13:33:33Z</time>
      </trkpt>
      <trkpt lat="46.04186" lon="5.65099">
        <ele>919.2</ele>
        <time>2026-05-10T13:33:34Z</time>
      </trkpt>
      <trkpt lat="46.0418" lon="5.65099">
        <ele>918.6</ele>
        <time>2026-05-10T13:33:35Z</time>
      </trkpt>
      <trkpt lat="46.04173" lon="5.65098">
        <ele>918</ele>
        <time>2026-05-10T13:33:36Z</time>
      </trkpt>
      <trkpt lat="46.04167" lon="5.65097">
        <ele>917.8</ele>
        <time>2026-05-10T13:33:37Z</time>
      </trkpt>
      <trkpt lat="46.04161" lon="5.65096">
        <ele>917.4</ele>
        <time>2026-05-10T13:33:38Z</time>
      </trkpt>
      <trkpt lat="46.04156" lon="5.65096">
        <ele>917</ele>
        <time>2026-05-10T13:33:39Z</time>
      </trkpt>
      <trkpt lat="46.04149" lon="5.65095">
        <ele>916.4</ele>
        <time>2026-05-10T13:33:40Z</time>
      </trkpt>
      <trkpt lat="46.04143" lon="5.65094">
        <ele>915.8</ele>
        <time>2026-05-10T13:33:41Z</time>
      </trkpt>
      <trkpt lat="46.04136" lon="5.65092">
        <ele>915.4</ele>
        <time>2026-05-10T13:33:42Z</time>
      </trkpt>
      <trkpt lat="46.0413" lon="5.65092">
        <ele>914.8</ele>
        <time>2026-05-10T13:33:43Z</time>
      </trkpt>
      <trkpt lat="46.04125" lon="5.65092">
        <ele>914.6</ele>
        <time>2026-05-10T13:33:44Z</time>
      </trkpt>
      <trkpt lat="46.0412" lon="5.6509">
        <ele>913.8</ele>
        <time>2026-05-10T13:33:45Z</time>
      </trkpt>
      <trkpt lat="46.04114" lon="5.65095">
        <ele>913.2</ele>
        <time>2026-05-10T13:33:46Z</time>
      </trkpt>
      <trkpt lat="46.04109" lon="5.65101">
        <ele>913</ele>
        <time>2026-05-10T13:33:47Z</time>
      </trkpt>
      <trkpt lat="46.04104" lon="5.65104">
        <ele>912.6</ele>
        <time>2026-05-10T13:33:48Z</time>
      </trkpt>
      <trkpt lat="46.04099" lon="5.65107">
        <ele>912.4</ele>
        <time>2026-05-10T13:33:49Z</time>
      </trkpt>
      <trkpt lat="46.04095" lon="5.65113">
        <ele>912.4</ele>
        <time>2026-05-10T13:33:50Z</time>
      </trkpt>
      <trkpt lat="46.04091" lon="5.65116">
        <ele>912</ele>
        <time>2026-05-10T13:33:51Z</time>
      </trkpt>
      <trkpt lat="46.04087" lon="5.6512">
        <ele>911.6</ele>
        <time>2026-05-10T13:33:52Z</time>
      </trkpt>
      <trkpt lat="46.04083" lon="5.65123">
        <ele>911.2</ele>
        <time>2026-05-10T13:33:53Z</time>
      </trkpt>
      <trkpt lat="46.04079" lon="5.65126">
        <ele>910.8</ele>
        <time>2026-05-10T13:33:54Z</time>
      </trkpt>
      <trkpt lat="46.04075" lon="5.65129">
        <ele>910.2</ele>
        <time>2026-05-10T13:33:55Z</time>
      </trkpt>
      <trkpt lat="46.0407" lon="5.6513">
        <ele>909.8</ele>
        <time>2026-05-10T13:33:56Z</time>
      </trkpt>
      <trkpt lat="46.04067" lon="5.65131">
        <ele>909.6</ele>
        <time>2026-05-10T13:33:57Z</time>
      </trkpt>
      <trkpt lat="46.04063" lon="5.65131">
        <ele>909.6</ele>
        <time>2026-05-10T13:33:58Z</time>
      </trkpt>
      <trkpt lat="46.04059" lon="5.65132">
        <ele>909.2</ele>
        <time>2026-05-10T13:33:59Z</time>
      </trkpt>
      <trkpt lat="46.04055" lon="5.65132">
        <ele>909.2</ele>
        <time>2026-05-10T13:34:00Z</time>
      </trkpt>
      <trkpt lat="46.0405" lon="5.65132">
        <ele>909</ele>
        <time>2026-05-10T13:34:01Z</time>
      </trkpt>
      <trkpt lat="46.04046" lon="5.65133">
        <ele>908.4</ele>
        <time>2026-05-10T13:34:02Z</time>
      </trkpt>
      <trkpt lat="46.04041" lon="5.65135">
        <ele>908.2</ele>
        <time>2026-05-10T13:34:03Z</time>
      </trkpt>
      <trkpt lat="46.04039" lon="5.65142">
        <ele>907.6</ele>
        <time>2026-05-10T13:34:04Z</time>
      </trkpt>
      <trkpt lat="46.04035" lon="5.65147">
        <ele>907.2</ele>
        <time>2026-05-10T13:34:05Z</time>
      </trkpt>
      <trkpt lat="46.04032" lon="5.65155">
        <ele>906.6</ele>
        <time>2026-05-10T13:34:06Z</time>
      </trkpt>
      <trkpt lat="46.0403" lon="5.65162">
        <ele>905.8</ele>
        <time>2026-05-10T13:34:07Z</time>
      </trkpt>
      <trkpt lat="46.04028" lon="5.65169">
        <ele>905</ele>
        <time>2026-05-10T13:34:08Z</time>
      </trkpt>
      <trkpt lat="46.04029" lon="5.65175">
        <ele>904.6</ele>
        <time>2026-05-10T13:34:09Z</time>
      </trkpt>
      <trkpt lat="46.04029" lon="5.65183">
        <ele>904.2</ele>
        <time>2026-05-10T13:34:10Z</time>
      </trkpt>
      <trkpt lat="46.04028" lon="5.65189">
        <ele>903.4</ele>
        <time>2026-05-10T13:34:11Z</time>
      </trkpt>
      <trkpt lat="46.04029" lon="5.65198">
        <ele>902.6</ele>
        <time>2026-05-10T13:34:12Z</time>
      </trkpt>
      <trkpt lat="46.04028" lon="5.65206">
        <ele>902</ele>
        <time>2026-05-10T13:34:13Z</time>
      </trkpt>
      <trkpt lat="46.04028" lon="5.65206">
        <ele>901.6</ele>
        <time>2026-05-10T13:34:14Z</time>
      </trkpt>
      <trkpt lat="46.04028" lon="5.65206">
        <ele>900.4</ele>
        <time>2026-05-10T13:34:15Z</time>
      </trkpt>
      <trkpt lat="46.04023" lon="5.6524">
        <ele>900.4</ele>
        <time>2026-05-10T13:34:17Z</time>
      </trkpt>
      <trkpt lat="46.04022" lon="5.65247">
        <ele>899.6</ele>
        <time>2026-05-10T13:34:18Z</time>
      </trkpt>
      <trkpt lat="46.04018" lon="5.65253">
        <ele>899.4</ele>
        <time>2026-05-10T13:34:19Z</time>
      </trkpt>
      <trkpt lat="46.04015" lon="5.65259">
        <ele>898.6</ele>
        <time>2026-05-10T13:34:20Z</time>
      </trkpt>
      <trkpt lat="46.04011" lon="5.65264">
        <ele>898.2</ele>
        <time>2026-05-10T13:34:21Z</time>
      </trkpt>
      <trkpt lat="46.04004" lon="5.65268">
        <ele>897.8</ele>
        <time>2026-05-10T13:34:22Z</time>
      </trkpt>
      <trkpt lat="46.03999" lon="5.65272">
        <ele>897</ele>
        <time>2026-05-10T13:34:23Z</time>
      </trkpt>
      <trkpt lat="46.03994" lon="5.65275">
        <ele>896.8</ele>
        <time>2026-05-10T13:34:24Z</time>
      </trkpt>
      <trkpt lat="46.03988" lon="5.65278">
        <ele>896.4</ele>
        <time>2026-05-10T13:34:25Z</time>
      </trkpt>
      <trkpt lat="46.03982" lon="5.6528">
        <ele>896.4</ele>
        <time>2026-05-10T13:34:26Z</time>
      </trkpt>
      <trkpt lat="46.03977" lon="5.65281">
        <ele>896.4</ele>
        <time>2026-05-10T13:34:27Z</time>
      </trkpt>
      <trkpt lat="46.03972" lon="5.65284">
        <ele>896</ele>
        <time>2026-05-10T13:34:28Z</time>
      </trkpt>
      <trkpt lat="46.03965" lon="5.65284">
        <ele>895.2</ele>
        <time>2026-05-10T13:34:29Z</time>
      </trkpt>
      <trkpt lat="46.03961" lon="5.65288">
        <ele>894.6</ele>
        <time>2026-05-10T13:34:30Z</time>
      </trkpt>
      <trkpt lat="46.03955" lon="5.6529">
        <ele>894.2</ele>
        <time>2026-05-10T13:34:31Z</time>
      </trkpt>
      <trkpt lat="46.03949" lon="5.65293">
        <ele>893.8</ele>
        <time>2026-05-10T13:34:32Z</time>
      </trkpt>
      <trkpt lat="46.03944" lon="5.65295">
        <ele>893.6</ele>
        <time>2026-05-10T13:34:33Z</time>
      </trkpt>
      <trkpt lat="46.03939" lon="5.65298">
        <ele>893</ele>
        <time>2026-05-10T13:34:34Z</time>
      </trkpt>
      <trkpt lat="46.03933" lon="5.65296">
        <ele>893</ele>
        <time>2026-05-10T13:34:35Z</time>
      </trkpt>
      <trkpt lat="46.03927" lon="5.65296">
        <ele>892.6</ele>
        <time>2026-05-10T13:34:36Z</time>
      </trkpt>
      <trkpt lat="46.03922" lon="5.65294">
        <ele>892.2</ele>
        <time>2026-05-10T13:34:37Z</time>
      </trkpt>
      <trkpt lat="46.03917" lon="5.65291">
        <ele>892</ele>
        <time>2026-05-10T13:34:38Z</time>
      </trkpt>
      <trkpt lat="46.03914" lon="5.65285">
        <ele>891.8</ele>
        <time>2026-05-10T13:34:39Z</time>
      </trkpt>
      <trkpt lat="46.03911" lon="5.65281">
        <ele>891.8</ele>
        <time>2026-05-10T13:34:40Z</time>
      </trkpt>
      <trkpt lat="46.03908" lon="5.65277">
        <ele>891.8</ele>
        <time>2026-05-10T13:34:41Z</time>
      </trkpt>
      <trkpt lat="46.03906" lon="5.65274">
        <ele>891.8</ele>
        <time>2026-05-10T13:34:42Z</time>
      </trkpt>
      <trkpt lat="46.03903" lon="5.65269">
        <ele>891.8</ele>
        <time>2026-05-10T13:34:43Z</time>
      </trkpt>
      <trkpt lat="46.03901" lon="5.65265">
        <ele>892</ele>
        <time>2026-05-10T13:34:44Z</time>
      </trkpt>
      <trkpt lat="46.039" lon="5.65261">
        <ele>892</ele>
        <time>2026-05-10T13:34:45Z</time>
      </trkpt>
      <trkpt lat="46.03898" lon="5.65257">
        <ele>892.4</ele>
        <time>2026-05-10T13:34:46Z</time>
      </trkpt>
      <trkpt lat="46.03897" lon="5.65252">
        <ele>892.6</ele>
        <time>2026-05-10T13:34:47Z</time>
      </trkpt>
      <trkpt lat="46.03895" lon="5.65248">
        <ele>892.6</ele>
        <time>2026-05-10T13:34:48Z</time>
      </trkpt>
      <trkpt lat="46.03894" lon="5.65245">
        <ele>893.2</ele>
        <time>2026-05-10T13:34:49Z</time>
      </trkpt>
      <trkpt lat="46.03894" lon="5.65241">
        <ele>893.4</ele>
        <time>2026-05-10T13:34:50Z</time>
      </trkpt>
      <trkpt lat="46.03892" lon="5.65238">
        <ele>893.4</ele>
        <time>2026-05-10T13:34:51Z</time>
      </trkpt>
      <trkpt lat="46.03891" lon="5.65235">
        <ele>893.8</ele>
        <time>2026-05-10T13:34:52Z</time>
      </trkpt>
      <trkpt lat="46.0389" lon="5.65231">
        <ele>893.8</ele>
        <time>2026-05-10T13:34:53Z</time>
      </trkpt>
      <trkpt lat="46.03888" lon="5.65228">
        <ele>894</ele>
        <time>2026-05-10T13:34:54Z</time>
      </trkpt>
      <trkpt lat="46.03888" lon="5.65224">
        <ele>894.4</ele>
        <time>2026-05-10T13:34:55Z</time>
      </trkpt>
      <trkpt lat="46.03888" lon="5.6522">
        <ele>894.6</ele>
        <time>2026-05-10T13:34:56Z</time>
      </trkpt>
      <trkpt lat="46.03887" lon="5.65216">
        <ele>894.6</ele>
        <time>2026-05-10T13:34:57Z</time>
      </trkpt>
      <trkpt lat="46.03887" lon="5.65216">
        <ele>894.8</ele>
        <time>2026-05-10T13:34:58Z</time>
      </trkpt>
      <trkpt lat="46.03886" lon="5.65209">
        <ele>895</ele>
        <time>2026-05-10T13:34:59Z</time>
      </trkpt>
      <trkpt lat="46.03886" lon="5.65205">
        <ele>895</ele>
        <time>2026-05-10T13:35:00Z</time>
      </trkpt>
      <trkpt lat="46.03885" lon="5.65201">
        <ele>895.4</ele>
        <time>2026-05-10T13:35:01Z</time>
      </trkpt>
      <trkpt lat="46.03885" lon="5.65197">
        <ele>895.4</ele>
        <time>2026-05-10T13:35:02Z</time>
      </trkpt>
      <trkpt lat="46.03885" lon="5.65193">
        <ele>895.6</ele>
        <time>2026-05-10T13:35:03Z</time>
      </trkpt>
      <trkpt lat="46.03884" lon="5.6519">
        <ele>895.6</ele>
        <time>2026-05-10T13:35:04Z</time>
      </trkpt>
      <trkpt lat="46.03884" lon="5.65186">
        <ele>895.2</ele>
        <time>2026-05-10T13:35:05Z</time>
      </trkpt>
      <trkpt lat="46.03883" lon="5.65182">
        <ele>895.8</ele>
        <time>2026-05-10T13:35:06Z</time>
      </trkpt>
      <trkpt lat="46.03882" lon="5.65178">
        <ele>896.2</ele>
        <time>2026-05-10T13:35:07Z</time>
      </trkpt>
      <trkpt lat="46.03882" lon="5.65174">
        <ele>896.2</ele>
        <time>2026-05-10T13:35:08Z</time>
      </trkpt>
      <trkpt lat="46.03881" lon="5.6517">
        <ele>896.2</ele>
        <time>2026-05-10T13:35:09Z</time>
      </trkpt>
      <trkpt lat="46.03881" lon="5.65166">
        <ele>896.6</ele>
        <time>2026-05-10T13:35:10Z</time>
      </trkpt>
      <trkpt lat="46.0388" lon="5.65162">
        <ele>896.6</ele>
        <time>2026-05-10T13:35:11Z</time>
      </trkpt>
      <trkpt lat="46.03879" lon="5.65158">
        <ele>896.6</ele>
        <time>2026-05-10T13:35:12Z</time>
      </trkpt>
      <trkpt lat="46.03879" lon="5.65154">
        <ele>896.8</ele>
        <time>2026-05-10T13:35:13Z</time>
      </trkpt>
      <trkpt lat="46.03879" lon="5.6515">
        <ele>896.8</ele>
        <time>2026-05-10T13:35:14Z</time>
      </trkpt>
      <trkpt lat="46.03878" lon="5.65146">
        <ele>896.8</ele>
        <time>2026-05-10T13:35:15Z</time>
      </trkpt>
      <trkpt lat="46.03876" lon="5.65142">
        <ele>896.4</ele>
        <time>2026-05-10T13:35:16Z</time>
      </trkpt>
      <trkpt lat="46.03875" lon="5.65138">
        <ele>896.6</ele>
        <time>2026-05-10T13:35:17Z</time>
      </trkpt>
      <trkpt lat="46.03873" lon="5.65135">
        <ele>896.6</ele>
        <time>2026-05-10T13:35:18Z</time>
      </trkpt>
      <trkpt lat="46.03871" lon="5.65131">
        <ele>896.6</ele>
        <time>2026-05-10T13:35:19Z</time>
      </trkpt>
      <trkpt lat="46.03869" lon="5.65128">
        <ele>897</ele>
        <time>2026-05-10T13:35:20Z</time>
      </trkpt>
      <trkpt lat="46.03867" lon="5.65125">
        <ele>897</ele>
        <time>2026-05-10T13:35:21Z</time>
      </trkpt>
      <trkpt lat="46.03865" lon="5.65121">
        <ele>897</ele>
        <time>2026-05-10T13:35:22Z</time>
      </trkpt>
      <trkpt lat="46.03863" lon="5.65118">
        <ele>897</ele>
        <time>2026-05-10T13:35:23Z</time>
      </trkpt>
      <trkpt lat="46.03861" lon="5.65114">
        <ele>897</ele>
        <time>2026-05-10T13:35:24Z</time>
      </trkpt>
      <trkpt lat="46.03858" lon="5.65111">
        <ele>897</ele>
        <time>2026-05-10T13:35:25Z</time>
      </trkpt>
      <trkpt lat="46.03856" lon="5.65107">
        <ele>897.2</ele>
        <time>2026-05-10T13:35:26Z</time>
      </trkpt>
      <trkpt lat="46.03853" lon="5.65104">
        <ele>897.2</ele>
        <time>2026-05-10T13:35:27Z</time>
      </trkpt>
      <trkpt lat="46.03851" lon="5.651">
        <ele>897.2</ele>
        <time>2026-05-10T13:35:28Z</time>
      </trkpt>
      <trkpt lat="46.03848" lon="5.65097">
        <ele>897.2</ele>
        <time>2026-05-10T13:35:29Z</time>
      </trkpt>
      <trkpt lat="46.03845" lon="5.65093">
        <ele>897</ele>
        <time>2026-05-10T13:35:30Z</time>
      </trkpt>
      <trkpt lat="46.03842" lon="5.6509">
        <ele>897</ele>
        <time>2026-05-10T13:35:31Z</time>
      </trkpt>
      <trkpt lat="46.0384" lon="5.65086">
        <ele>897.2</ele>
        <time>2026-05-10T13:35:32Z</time>
      </trkpt>
      <trkpt lat="46.03837" lon="5.65082">
        <ele>897.2</ele>
        <time>2026-05-10T13:35:33Z</time>
      </trkpt>
      <trkpt lat="46.03835" lon="5.65078">
        <ele>897.2</ele>
        <time>2026-05-10T13:35:34Z</time>
      </trkpt>
      <trkpt lat="46.03832" lon="5.65075">
        <ele>897.6</ele>
        <time>2026-05-10T13:35:35Z</time>
      </trkpt>
      <trkpt lat="46.03829" lon="5.65071">
        <ele>897.6</ele>
        <time>2026-05-10T13:35:36Z</time>
      </trkpt>
      <trkpt lat="46.03826" lon="5.65068">
        <ele>897.6</ele>
        <time>2026-05-10T13:35:37Z</time>
      </trkpt>
      <trkpt lat="46.03824" lon="5.65066">
        <ele>897.6</ele>
        <time>2026-05-10T13:35:38Z</time>
      </trkpt>
      <trkpt lat="46.03821" lon="5.65064">
        <ele>897.6</ele>
        <time>2026-05-10T13:35:39Z</time>
      </trkpt>
      <trkpt lat="46.03819" lon="5.65062">
        <ele>897.6</ele>
        <time>2026-05-10T13:35:40Z</time>
      </trkpt>
      <trkpt lat="46.03817" lon="5.65061">
        <ele>897.6</ele>
        <time>2026-05-10T13:35:41Z</time>
      </trkpt>
      <trkpt lat="46.03815" lon="5.65059">
        <ele>897.8</ele>
        <time>2026-05-10T13:35:42Z</time>
      </trkpt>
      <trkpt lat="46.03813" lon="5.65057">
        <ele>897.8</ele>
        <time>2026-05-10T13:35:43Z</time>
      </trkpt>
      <trkpt lat="46.03811" lon="5.65056">
        <ele>898</ele>
        <time>2026-05-10T13:35:44Z</time>
      </trkpt>
      <trkpt lat="46.03808" lon="5.65054">
        <ele>898</ele>
        <time>2026-05-10T13:35:45Z</time>
      </trkpt>
      <trkpt lat="46.03806" lon="5.65053">
        <ele>898</ele>
        <time>2026-05-10T13:35:46Z</time>
      </trkpt>
      <trkpt lat="46.03803" lon="5.65051">
        <ele>898.4</ele>
        <time>2026-05-10T13:35:47Z</time>
      </trkpt>
      <trkpt lat="46.03801" lon="5.6505">
        <ele>898.4</ele>
        <time>2026-05-10T13:35:48Z</time>
      </trkpt>
      <trkpt lat="46.03799" lon="5.65049">
        <ele>898.4</ele>
        <time>2026-05-10T13:35:49Z</time>
      </trkpt>
      <trkpt lat="46.03796" lon="5.65047">
        <ele>898.4</ele>
        <time>2026-05-10T13:35:50Z</time>
      </trkpt>
      <trkpt lat="46.03794" lon="5.65046">
        <ele>898.4</ele>
        <time>2026-05-10T13:35:51Z</time>
      </trkpt>
      <trkpt lat="46.03791" lon="5.65044">
        <ele>898.6</ele>
        <time>2026-05-10T13:35:52Z</time>
      </trkpt>
      <trkpt lat="46.03788" lon="5.65043">
        <ele>898.6</ele>
        <time>2026-05-10T13:35:53Z</time>
      </trkpt>
      <trkpt lat="46.03786" lon="5.65042">
        <ele>899</ele>
        <time>2026-05-10T13:35:54Z</time>
      </trkpt>
      <trkpt lat="46.03782" lon="5.6504">
        <ele>899</ele>
        <time>2026-05-10T13:35:55Z</time>
      </trkpt>
      <trkpt lat="46.03779" lon="5.6504">
        <ele>899</ele>
        <time>2026-05-10T13:35:56Z</time>
      </trkpt>
      <trkpt lat="46.03776" lon="5.65039">
        <ele>899.2</ele>
        <time>2026-05-10T13:35:57Z</time>
      </trkpt>
      <trkpt lat="46.03772" lon="5.65038">
        <ele>899.2</ele>
        <time>2026-05-10T13:35:58Z</time>
      </trkpt>
      <trkpt lat="46.03769" lon="5.65037">
        <ele>899.6</ele>
        <time>2026-05-10T13:35:59Z</time>
      </trkpt>
      <trkpt lat="46.03765" lon="5.65037">
        <ele>899.6</ele>
        <time>2026-05-10T13:36:00Z</time>
      </trkpt>
      <trkpt lat="46.03762" lon="5.65036">
        <ele>899.6</ele>
        <time>2026-05-10T13:36:01Z</time>
      </trkpt>
      <trkpt lat="46.03758" lon="5.65035">
        <ele>899.6</ele>
        <time>2026-05-10T13:36:02Z</time>
      </trkpt>
      <trkpt lat="46.03755" lon="5.65035">
        <ele>899.8</ele>
        <time>2026-05-10T13:36:03Z</time>
      </trkpt>
      <trkpt lat="46.03751" lon="5.65035">
        <ele>899.8</ele>
        <time>2026-05-10T13:36:04Z</time>
      </trkpt>
      <trkpt lat="46.03748" lon="5.65037">
        <ele>899.8</ele>
        <time>2026-05-10T13:36:05Z</time>
      </trkpt>
      <trkpt lat="46.03745" lon="5.65039">
        <ele>899.8</ele>
        <time>2026-05-10T13:36:06Z</time>
      </trkpt>
      <trkpt lat="46.03742" lon="5.65042">
        <ele>899.8</ele>
        <time>2026-05-10T13:36:07Z</time>
      </trkpt>
      <trkpt lat="46.03739" lon="5.65044">
        <ele>899.8</ele>
        <time>2026-05-10T13:36:08Z</time>
      </trkpt>
      <trkpt lat="46.03737" lon="5.65046">
        <ele>899.6</ele>
        <time>2026-05-10T13:36:09Z</time>
      </trkpt>
      <trkpt lat="46.03734" lon="5.65047">
        <ele>899.6</ele>
        <time>2026-05-10T13:36:10Z</time>
      </trkpt>
      <trkpt lat="46.03731" lon="5.6505">
        <ele>899.8</ele>
        <time>2026-05-10T13:36:11Z</time>
      </trkpt>
      <trkpt lat="46.03728" lon="5.65053">
        <ele>899.8</ele>
        <time>2026-05-10T13:36:12Z</time>
      </trkpt>
      <trkpt lat="46.03725" lon="5.65055">
        <ele>900</ele>
        <time>2026-05-10T13:36:13Z</time>
      </trkpt>
      <trkpt lat="46.03722" lon="5.65057">
        <ele>900</ele>
        <time>2026-05-10T13:36:14Z</time>
      </trkpt>
      <trkpt lat="46.03719" lon="5.65059">
        <ele>900</ele>
        <time>2026-05-10T13:36:15Z</time>
      </trkpt>
      <trkpt lat="46.03716" lon="5.65062">
        <ele>900</ele>
        <time>2026-05-10T13:36:16Z</time>
      </trkpt>
      <trkpt lat="46.03714" lon="5.65064">
        <ele>900</ele>
        <time>2026-05-10T13:36:17Z</time>
      </trkpt>
      <trkpt lat="46.03712" lon="5.65067">
        <ele>900</ele>
        <time>2026-05-10T13:36:18Z</time>
      </trkpt>
      <trkpt lat="46.03709" lon="5.6507">
        <ele>900</ele>
        <time>2026-05-10T13:36:19Z</time>
      </trkpt>
      <trkpt lat="46.03707" lon="5.65072">
        <ele>900.4</ele>
        <time>2026-05-10T13:36:20Z</time>
      </trkpt>
      <trkpt lat="46.03704" lon="5.65076">
        <ele>900.4</ele>
        <time>2026-05-10T13:36:21Z</time>
      </trkpt>
      <trkpt lat="46.03702" lon="5.65079">
        <ele>900.8</ele>
        <time>2026-05-10T13:36:22Z</time>
      </trkpt>
      <trkpt lat="46.037" lon="5.65081">
        <ele>900.8</ele>
        <time>2026-05-10T13:36:23Z</time>
      </trkpt>
      <trkpt lat="46.03698" lon="5.65083">
        <ele>901</ele>
        <time>2026-05-10T13:36:24Z</time>
      </trkpt>
      <trkpt lat="46.03696" lon="5.65085">
        <ele>901</ele>
        <time>2026-05-10T13:36:25Z</time>
      </trkpt>
      <trkpt lat="46.03695" lon="5.65088">
        <ele>901</ele>
        <time>2026-05-10T13:36:26Z</time>
      </trkpt>
      <trkpt lat="46.03694" lon="5.65091">
        <ele>901</ele>
        <time>2026-05-10T13:36:27Z</time>
      </trkpt>
      <trkpt lat="46.03692" lon="5.65094">
        <ele>901</ele>
        <time>2026-05-10T13:36:28Z</time>
      </trkpt>
      <trkpt lat="46.0369" lon="5.65097">
        <ele>901</ele>
        <time>2026-05-10T13:36:29Z</time>
      </trkpt>
      <trkpt lat="46.03688" lon="5.651">
        <ele>901</ele>
        <time>2026-05-10T13:36:30Z</time>
      </trkpt>
      <trkpt lat="46.03686" lon="5.65102">
        <ele>901</ele>
        <time>2026-05-10T13:36:31Z</time>
      </trkpt>
      <trkpt lat="46.03683" lon="5.65105">
        <ele>901</ele>
        <time>2026-05-10T13:36:32Z</time>
      </trkpt>
      <trkpt lat="46.0368" lon="5.65107">
        <ele>901</ele>
        <time>2026-05-10T13:36:33Z</time>
      </trkpt>
      <trkpt lat="46.03677" lon="5.65108">
        <ele>901</ele>
        <time>2026-05-10T13:36:34Z</time>
      </trkpt>
      <trkpt lat="46.03673" lon="5.65108">
        <ele>901</ele>
        <time>2026-05-10T13:36:35Z</time>
      </trkpt>
      <trkpt lat="46.03669" lon="5.65108">
        <ele>901</ele>
        <time>2026-05-10T13:36:36Z</time>
      </trkpt>
      <trkpt lat="46.03665" lon="5.65108">
        <ele>901</ele>
        <time>2026-05-10T13:36:37Z</time>
      </trkpt>
      <trkpt lat="46.03662" lon="5.65108">
        <ele>901</ele>
        <time>2026-05-10T13:36:38Z</time>
      </trkpt>
      <trkpt lat="46.03658" lon="5.65108">
        <ele>901</ele>
        <time>2026-05-10T13:36:39Z</time>
      </trkpt>
      <trkpt lat="46.03655" lon="5.65106">
        <ele>901</ele>
        <time>2026-05-10T13:36:40Z</time>
      </trkpt>
      <trkpt lat="46.03652" lon="5.65105">
        <ele>900.8</ele>
        <time>2026-05-10T13:36:41Z</time>
      </trkpt>
      <trkpt lat="46.03648" lon="5.65104">
        <ele>900.8</ele>
        <time>2026-05-10T13:36:42Z</time>
      </trkpt>
      <trkpt lat="46.03645" lon="5.65102">
        <ele>900.8</ele>
        <time>2026-05-10T13:36:43Z</time>
      </trkpt>
      <trkpt lat="46.03641" lon="5.651">
        <ele>900.8</ele>
        <time>2026-05-10T13:36:44Z</time>
      </trkpt>
      <trkpt lat="46.03638" lon="5.65097">
        <ele>900.8</ele>
        <time>2026-05-10T13:36:45Z</time>
      </trkpt>
      <trkpt lat="46.03635" lon="5.65094">
        <ele>900.4</ele>
        <time>2026-05-10T13:36:46Z</time>
      </trkpt>
      <trkpt lat="46.03632" lon="5.65092">
        <ele>900.4</ele>
        <time>2026-05-10T13:36:47Z</time>
      </trkpt>
      <trkpt lat="46.03629" lon="5.65089">
        <ele>900.6</ele>
        <time>2026-05-10T13:36:48Z</time>
      </trkpt>
      <trkpt lat="46.03625" lon="5.65086">
        <ele>900.6</ele>
        <time>2026-05-10T13:36:49Z</time>
      </trkpt>
      <trkpt lat="46.03622" lon="5.65083">
        <ele>900.6</ele>
        <time>2026-05-10T13:36:50Z</time>
      </trkpt>
      <trkpt lat="46.03619" lon="5.6508">
        <ele>900.6</ele>
        <time>2026-05-10T13:36:51Z</time>
      </trkpt>
      <trkpt lat="46.03615" lon="5.65078">
        <ele>900.6</ele>
        <time>2026-05-10T13:36:52Z</time>
      </trkpt>
      <trkpt lat="46.03612" lon="5.65075">
        <ele>900.6</ele>
        <time>2026-05-10T13:36:53Z</time>
      </trkpt>
      <trkpt lat="46.03608" lon="5.65072">
        <ele>900.6</ele>
        <time>2026-05-10T13:36:54Z</time>
      </trkpt>
      <trkpt lat="46.03604" lon="5.65069">
        <ele>900.6</ele>
        <time>2026-05-10T13:36:55Z</time>
      </trkpt>
      <trkpt lat="46.03601" lon="5.65067">
        <ele>900.4</ele>
        <time>2026-05-10T13:36:56Z</time>
      </trkpt>
      <trkpt lat="46.03597" lon="5.65064">
        <ele>900.4</ele>
        <time>2026-05-10T13:36:57Z</time>
      </trkpt>
      <trkpt lat="46.03593" lon="5.65062">
        <ele>900.4</ele>
        <time>2026-05-10T13:36:58Z</time>
      </trkpt>
      <trkpt lat="46.0359" lon="5.65059">
        <ele>900.4</ele>
        <time>2026-05-10T13:36:59Z</time>
      </trkpt>
      <trkpt lat="46.03586" lon="5.65056">
        <ele>900.4</ele>
        <time>2026-05-10T13:37:00Z</time>
      </trkpt>
      <trkpt lat="46.03583" lon="5.65054">
        <ele>900.4</ele>
        <time>2026-05-10T13:37:01Z</time>
      </trkpt>
      <trkpt lat="46.0358" lon="5.65052">
        <ele>900.4</ele>
        <time>2026-05-10T13:37:02Z</time>
      </trkpt>
      <trkpt lat="46.03577" lon="5.6505">
        <ele>900.4</ele>
        <time>2026-05-10T13:37:03Z</time>
      </trkpt>
      <trkpt lat="46.03573" lon="5.65049">
        <ele>900.6</ele>
        <time>2026-05-10T13:37:04Z</time>
      </trkpt>
      <trkpt lat="46.0357" lon="5.65047">
        <ele>900.8</ele>
        <time>2026-05-10T13:37:05Z</time>
      </trkpt>
      <trkpt lat="46.03567" lon="5.65045">
        <ele>901.2</ele>
        <time>2026-05-10T13:37:06Z</time>
      </trkpt>
      <trkpt lat="46.03565" lon="5.65043">
        <ele>901.4</ele>
        <time>2026-05-10T13:37:07Z</time>
      </trkpt>
      <trkpt lat="46.03562" lon="5.65041">
        <ele>901.8</ele>
        <time>2026-05-10T13:37:08Z</time>
      </trkpt>
      <trkpt lat="46.0356" lon="5.65038">
        <ele>902</ele>
        <time>2026-05-10T13:37:09Z</time>
      </trkpt>
      <trkpt lat="46.03559" lon="5.65036">
        <ele>902.4</ele>
        <time>2026-05-10T13:37:10Z</time>
      </trkpt>
      <trkpt lat="46.03557" lon="5.65033">
        <ele>902.8</ele>
        <time>2026-05-10T13:37:11Z</time>
      </trkpt>
      <trkpt lat="46.03556" lon="5.6503">
        <ele>903.2</ele>
        <time>2026-05-10T13:37:12Z</time>
      </trkpt>
      <trkpt lat="46.03555" lon="5.65028">
        <ele>903.4</ele>
        <time>2026-05-10T13:37:13Z</time>
      </trkpt>
      <trkpt lat="46.03553" lon="5.65021">
        <ele>903.6</ele>
        <time>2026-05-10T13:37:14Z</time>
      </trkpt>
      <trkpt lat="46.03552" lon="5.65017">
        <ele>904</ele>
        <time>2026-05-10T13:37:15Z</time>
      </trkpt>
      <trkpt lat="46.03551" lon="5.65014">
        <ele>904.4</ele>
        <time>2026-05-10T13:37:16Z</time>
      </trkpt>
      <trkpt lat="46.0355" lon="5.65011">
        <ele>904.8</ele>
        <time>2026-05-10T13:37:17Z</time>
      </trkpt>
      <trkpt lat="46.0355" lon="5.65007">
        <ele>904.8</ele>
        <time>2026-05-10T13:37:18Z</time>
      </trkpt>
      <trkpt lat="46.0355" lon="5.65004">
        <ele>905.2</ele>
        <time>2026-05-10T13:37:19Z</time>
      </trkpt>
      <trkpt lat="46.03549" lon="5.65001">
        <ele>905.4</ele>
        <time>2026-05-10T13:37:20Z</time>
      </trkpt>
      <trkpt lat="46.03549" lon="5.64998">
        <ele>905.6</ele>
        <time>2026-05-10T13:37:21Z</time>
      </trkpt>
      <trkpt lat="46.03549" lon="5.64995">
        <ele>905.6</ele>
        <time>2026-05-10T13:37:22Z</time>
      </trkpt>
      <trkpt lat="46.03548" lon="5.64993">
        <ele>906</ele>
        <time>2026-05-10T13:37:23Z</time>
      </trkpt>
      <trkpt lat="46.03548" lon="5.64989">
        <ele>906</ele>
        <time>2026-05-10T13:37:24Z</time>
      </trkpt>
      <trkpt lat="46.03548" lon="5.64986">
        <ele>906.2</ele>
        <time>2026-05-10T13:37:25Z</time>
      </trkpt>
      <trkpt lat="46.03548" lon="5.64984">
        <ele>906.8</ele>
        <time>2026-05-10T13:37:26Z</time>
      </trkpt>
      <trkpt lat="46.03548" lon="5.64981">
        <ele>906.8</ele>
        <time>2026-05-10T13:37:27Z</time>
      </trkpt>
      <trkpt lat="46.03548" lon="5.64978">
        <ele>906.8</ele>
        <time>2026-05-10T13:37:28Z</time>
      </trkpt>
      <trkpt lat="46.03548" lon="5.64975">
        <ele>906.8</ele>
        <time>2026-05-10T13:37:29Z</time>
      </trkpt>
      <trkpt lat="46.03547" lon="5.64972">
        <ele>906.8</ele>
        <time>2026-05-10T13:37:30Z</time>
      </trkpt>
      <trkpt lat="46.03547" lon="5.64969">
        <ele>906.8</ele>
        <time>2026-05-10T13:37:31Z</time>
      </trkpt>
      <trkpt lat="46.03547" lon="5.64966">
        <ele>906.8</ele>
        <time>2026-05-10T13:37:32Z</time>
      </trkpt>
      <trkpt lat="46.03547" lon="5.64964">
        <ele>907</ele>
        <time>2026-05-10T13:37:33Z</time>
      </trkpt>
      <trkpt lat="46.03547" lon="5.64961">
        <ele>907</ele>
        <time>2026-05-10T13:37:34Z</time>
      </trkpt>
      <trkpt lat="46.03547" lon="5.64958">
        <ele>907.4</ele>
        <time>2026-05-10T13:37:35Z</time>
      </trkpt>
      <trkpt lat="46.03547" lon="5.64954">
        <ele>907.4</ele>
        <time>2026-05-10T13:37:36Z</time>
      </trkpt>
      <trkpt lat="46.03547" lon="5.64951">
        <ele>907.6</ele>
        <time>2026-05-10T13:37:37Z</time>
      </trkpt>
      <trkpt lat="46.03547" lon="5.64948">
        <ele>907.6</ele>
        <time>2026-05-10T13:37:38Z</time>
      </trkpt>
      <trkpt lat="46.03546" lon="5.64945">
        <ele>908</ele>
        <time>2026-05-10T13:37:39Z</time>
      </trkpt>
      <trkpt lat="46.03546" lon="5.64945">
        <ele>908</ele>
        <time>2026-05-10T13:37:40Z</time>
      </trkpt>
      <trkpt lat="46.03546" lon="5.64942">
        <ele>908.4</ele>
        <time>2026-05-10T13:37:41Z</time>
      </trkpt>
      <trkpt lat="46.03546" lon="5.64939">
        <ele>908.4</ele>
        <time>2026-05-10T13:37:42Z</time>
      </trkpt>
      <trkpt lat="46.03546" lon="5.64936">
        <ele>908.8</ele>
        <time>2026-05-10T13:37:43Z</time>
      </trkpt>
      <trkpt lat="46.03546" lon="5.64933">
        <ele>908.8</ele>
        <time>2026-05-10T13:37:44Z</time>
      </trkpt>
      <trkpt lat="46.03546" lon="5.6493">
        <ele>909.2</ele>
        <time>2026-05-10T13:37:45Z</time>
      </trkpt>
      <trkpt lat="46.03546" lon="5.64927">
        <ele>909.2</ele>
        <time>2026-05-10T13:37:46Z</time>
      </trkpt>
      <trkpt lat="46.03546" lon="5.64924">
        <ele>909.2</ele>
        <time>2026-05-10T13:37:47Z</time>
      </trkpt>
      <trkpt lat="46.03545" lon="5.64922">
        <ele>909.2</ele>
        <time>2026-05-10T13:37:48Z</time>
      </trkpt>
      <trkpt lat="46.03545" lon="5.64919">
        <ele>909.4</ele>
        <time>2026-05-10T13:37:49Z</time>
      </trkpt>
      <trkpt lat="46.03545" lon="5.64916">
        <ele>909.4</ele>
        <time>2026-05-10T13:37:50Z</time>
      </trkpt>
      <trkpt lat="46.03545" lon="5.64913">
        <ele>909.8</ele>
        <time>2026-05-10T13:37:51Z</time>
      </trkpt>
      <trkpt lat="46.03545" lon="5.6491">
        <ele>910</ele>
        <time>2026-05-10T13:37:52Z</time>
      </trkpt>
      <trkpt lat="46.03545" lon="5.64907">
        <ele>910</ele>
        <time>2026-05-10T13:37:53Z</time>
      </trkpt>
      <trkpt lat="46.03545" lon="5.64904">
        <ele>910</ele>
        <time>2026-05-10T13:37:54Z</time>
      </trkpt>
      <trkpt lat="46.03546" lon="5.64901">
        <ele>910.6</ele>
        <time>2026-05-10T13:37:55Z</time>
      </trkpt>
      <trkpt lat="46.03546" lon="5.64898">
        <ele>910.6</ele>
        <time>2026-05-10T13:37:56Z</time>
      </trkpt>
      <trkpt lat="46.03546" lon="5.64896">
        <ele>910.8</ele>
        <time>2026-05-10T13:37:57Z</time>
      </trkpt>
      <trkpt lat="46.03546" lon="5.64893">
        <ele>910.8</ele>
        <time>2026-05-10T13:37:58Z</time>
      </trkpt>
      <trkpt lat="46.03546" lon="5.64891">
        <ele>911.2</ele>
        <time>2026-05-10T13:37:59Z</time>
      </trkpt>
      <trkpt lat="46.03546" lon="5.64888">
        <ele>911.2</ele>
        <time>2026-05-10T13:38:00Z</time>
      </trkpt>
      <trkpt lat="46.03546" lon="5.64885">
        <ele>911.4</ele>
        <time>2026-05-10T13:38:01Z</time>
      </trkpt>
      <trkpt lat="46.03546" lon="5.64882">
        <ele>911.8</ele>
        <time>2026-05-10T13:38:02Z</time>
      </trkpt>
      <trkpt lat="46.03545" lon="5.64879">
        <ele>911.8</ele>
        <time>2026-05-10T13:38:03Z</time>
      </trkpt>
      <trkpt lat="46.03545" lon="5.64877">
        <ele>912</ele>
        <time>2026-05-10T13:38:04Z</time>
      </trkpt>
      <trkpt lat="46.03545" lon="5.64874">
        <ele>912</ele>
        <time>2026-05-10T13:38:05Z</time>
      </trkpt>
      <trkpt lat="46.03545" lon="5.64871">
        <ele>912</ele>
        <time>2026-05-10T13:38:06Z</time>
      </trkpt>
      <trkpt lat="46.03545" lon="5.64869">
        <ele>912.4</ele>
        <time>2026-05-10T13:38:07Z</time>
      </trkpt>
      <trkpt lat="46.03545" lon="5.64866">
        <ele>912.4</ele>
        <time>2026-05-10T13:38:08Z</time>
      </trkpt>
      <trkpt lat="46.03544" lon="5.64863">
        <ele>912.4</ele>
        <time>2026-05-10T13:38:09Z</time>
      </trkpt>
      <trkpt lat="46.03544" lon="5.6486">
        <ele>912.8</ele>
        <time>2026-05-10T13:38:10Z</time>
      </trkpt>
      <trkpt lat="46.03544" lon="5.64858">
        <ele>912.8</ele>
        <time>2026-05-10T13:38:11Z</time>
      </trkpt>
      <trkpt lat="46.03544" lon="5.64855">
        <ele>913</ele>
        <time>2026-05-10T13:38:12Z</time>
      </trkpt>
      <trkpt lat="46.03544" lon="5.64852">
        <ele>913</ele>
        <time>2026-05-10T13:38:13Z</time>
      </trkpt>
      <trkpt lat="46.03544" lon="5.64849">
        <ele>913</ele>
        <time>2026-05-10T13:38:14Z</time>
      </trkpt>
      <trkpt lat="46.03543" lon="5.64847">
        <ele>913</ele>
        <time>2026-05-10T13:38:15Z</time>
      </trkpt>
      <trkpt lat="46.03543" lon="5.64844">
        <ele>913.4</ele>
        <time>2026-05-10T13:38:16Z</time>
      </trkpt>
      <trkpt lat="46.03543" lon="5.64841">
        <ele>913.4</ele>
        <time>2026-05-10T13:38:17Z</time>
      </trkpt>
      <trkpt lat="46.03543" lon="5.64838">
        <ele>913.4</ele>
        <time>2026-05-10T13:38:18Z</time>
      </trkpt>
      <trkpt lat="46.03542" lon="5.64835">
        <ele>913.6</ele>
        <time>2026-05-10T13:38:19Z</time>
      </trkpt>
      <trkpt lat="46.03542" lon="5.64832">
        <ele>913.6</ele>
        <time>2026-05-10T13:38:20Z</time>
      </trkpt>
      <trkpt lat="46.03543" lon="5.64829">
        <ele>913.8</ele>
        <time>2026-05-10T13:38:21Z</time>
      </trkpt>
      <trkpt lat="46.03543" lon="5.64827">
        <ele>913.8</ele>
        <time>2026-05-10T13:38:22Z</time>
      </trkpt>
      <trkpt lat="46.03543" lon="5.64824">
        <ele>914.2</ele>
        <time>2026-05-10T13:38:23Z</time>
      </trkpt>
      <trkpt lat="46.03543" lon="5.64822">
        <ele>914.2</ele>
        <time>2026-05-10T13:38:24Z</time>
      </trkpt>
      <trkpt lat="46.03543" lon="5.64819">
        <ele>914.4</ele>
        <time>2026-05-10T13:38:25Z</time>
      </trkpt>
      <trkpt lat="46.03543" lon="5.64816">
        <ele>914.4</ele>
        <time>2026-05-10T13:38:26Z</time>
      </trkpt>
      <trkpt lat="46.03543" lon="5.64814">
        <ele>914.6</ele>
        <time>2026-05-10T13:38:27Z</time>
      </trkpt>
      <trkpt lat="46.03543" lon="5.64811">
        <ele>914.6</ele>
        <time>2026-05-10T13:38:28Z</time>
      </trkpt>
      <trkpt lat="46.03542" lon="5.64808">
        <ele>914.6</ele>
        <time>2026-05-10T13:38:29Z</time>
      </trkpt>
      <trkpt lat="46.03542" lon="5.64805">
        <ele>915</ele>
        <time>2026-05-10T13:38:30Z</time>
      </trkpt>
      <trkpt lat="46.03542" lon="5.64803">
        <ele>915.2</ele>
        <time>2026-05-10T13:38:31Z</time>
      </trkpt>
      <trkpt lat="46.03542" lon="5.648">
        <ele>915.4</ele>
        <time>2026-05-10T13:38:32Z</time>
      </trkpt>
      <trkpt lat="46.03542" lon="5.64798">
        <ele>915.4</ele>
        <time>2026-05-10T13:38:33Z</time>
      </trkpt>
      <trkpt lat="46.03542" lon="5.64795">
        <ele>915.8</ele>
        <time>2026-05-10T13:38:34Z</time>
      </trkpt>
      <trkpt lat="46.03542" lon="5.64792">
        <ele>916</ele>
        <time>2026-05-10T13:38:35Z</time>
      </trkpt>
      <trkpt lat="46.03542" lon="5.6479">
        <ele>916</ele>
        <time>2026-05-10T13:38:36Z</time>
      </trkpt>
      <trkpt lat="46.03542" lon="5.64787">
        <ele>916</ele>
        <time>2026-05-10T13:38:37Z</time>
      </trkpt>
      <trkpt lat="46.03542" lon="5.64785">
        <ele>916.4</ele>
        <time>2026-05-10T13:38:38Z</time>
      </trkpt>
      <trkpt lat="46.03542" lon="5.64782">
        <ele>916.6</ele>
        <time>2026-05-10T13:38:39Z</time>
      </trkpt>
      <trkpt lat="46.03541" lon="5.6478">
        <ele>916.6</ele>
        <time>2026-05-10T13:38:40Z</time>
      </trkpt>
      <trkpt lat="46.03541" lon="5.64777">
        <ele>916.8</ele>
        <time>2026-05-10T13:38:41Z</time>
      </trkpt>
      <trkpt lat="46.03542" lon="5.64774">
        <ele>916.8</ele>
        <time>2026-05-10T13:38:42Z</time>
      </trkpt>
      <trkpt lat="46.03542" lon="5.64772">
        <ele>917</ele>
        <time>2026-05-10T13:38:43Z</time>
      </trkpt>
      <trkpt lat="46.03542" lon="5.64769">
        <ele>917</ele>
        <time>2026-05-10T13:38:44Z</time>
      </trkpt>
      <trkpt lat="46.03542" lon="5.64766">
        <ele>917</ele>
        <time>2026-05-10T13:38:45Z</time>
      </trkpt>
      <trkpt lat="46.03542" lon="5.64763">
        <ele>917.4</ele>
        <time>2026-05-10T13:38:46Z</time>
      </trkpt>
      <trkpt lat="46.03542" lon="5.64761">
        <ele>917.4</ele>
        <time>2026-05-10T13:38:47Z</time>
      </trkpt>
      <trkpt lat="46.03542" lon="5.64758">
        <ele>917.4</ele>
        <time>2026-05-10T13:38:48Z</time>
      </trkpt>
      <trkpt lat="46.03542" lon="5.64756">
        <ele>917.8</ele>
        <time>2026-05-10T13:38:49Z</time>
      </trkpt>
      <trkpt lat="46.03541" lon="5.64753">
        <ele>918</ele>
        <time>2026-05-10T13:38:50Z</time>
      </trkpt>
      <trkpt lat="46.03541" lon="5.64751">
        <ele>918</ele>
        <time>2026-05-10T13:38:51Z</time>
      </trkpt>
      <trkpt lat="46.03541" lon="5.64749">
        <ele>918.4</ele>
        <time>2026-05-10T13:38:52Z</time>
      </trkpt>
      <trkpt lat="46.03541" lon="5.64746">
        <ele>918.4</ele>
        <time>2026-05-10T13:38:53Z</time>
      </trkpt>
      <trkpt lat="46.03541" lon="5.64743">
        <ele>918.4</ele>
        <time>2026-05-10T13:38:54Z</time>
      </trkpt>
      <trkpt lat="46.03541" lon="5.64741">
        <ele>918.6</ele>
        <time>2026-05-10T13:38:55Z</time>
      </trkpt>
      <trkpt lat="46.03542" lon="5.64739">
        <ele>918.6</ele>
        <time>2026-05-10T13:38:56Z</time>
      </trkpt>
      <trkpt lat="46.03542" lon="5.64736">
        <ele>919</ele>
        <time>2026-05-10T13:38:57Z</time>
      </trkpt>
      <trkpt lat="46.03542" lon="5.64734">
        <ele>919</ele>
        <time>2026-05-10T13:38:58Z</time>
      </trkpt>
      <trkpt lat="46.03541" lon="5.64732">
        <ele>919</ele>
        <time>2026-05-10T13:38:59Z</time>
      </trkpt>
      <trkpt lat="46.03541" lon="5.64729">
        <ele>919.2</ele>
        <time>2026-05-10T13:39:00Z</time>
      </trkpt>
      <trkpt lat="46.03541" lon="5.64727">
        <ele>919.4</ele>
        <time>2026-05-10T13:39:01Z</time>
      </trkpt>
      <trkpt lat="46.0354" lon="5.64725">
        <ele>919.4</ele>
        <time>2026-05-10T13:39:02Z</time>
      </trkpt>
      <trkpt lat="46.0354" lon="5.64724">
        <ele>919.8</ele>
        <time>2026-05-10T13:39:03Z</time>
      </trkpt>
      <trkpt lat="46.0354" lon="5.64722">
        <ele>919.8</ele>
        <time>2026-05-10T13:39:04Z</time>
      </trkpt>
      <trkpt lat="46.03539" lon="5.64719">
        <ele>919.8</ele>
        <time>2026-05-10T13:39:05Z</time>
      </trkpt>
      <trkpt lat="46.03539" lon="5.64717">
        <ele>920.2</ele>
        <time>2026-05-10T13:39:06Z</time>
      </trkpt>
      <trkpt lat="46.03539" lon="5.64714">
        <ele>920.2</ele>
        <time>2026-05-10T13:39:07Z</time>
      </trkpt>
      <trkpt lat="46.03539" lon="5.64711">
        <ele>920.2</ele>
        <time>2026-05-10T13:39:08Z</time>
      </trkpt>
      <trkpt lat="46.03539" lon="5.64708">
        <ele>920.4</ele>
        <time>2026-05-10T13:39:09Z</time>
      </trkpt>
      <trkpt lat="46.03538" lon="5.64706">
        <ele>920.4</ele>
        <time>2026-05-10T13:39:10Z</time>
      </trkpt>
      <trkpt lat="46.03538" lon="5.64703">
        <ele>920.6</ele>
        <time>2026-05-10T13:39:11Z</time>
      </trkpt>
      <trkpt lat="46.03538" lon="5.647">
        <ele>920.6</ele>
        <time>2026-05-10T13:39:12Z</time>
      </trkpt>
      <trkpt lat="46.03538" lon="5.64697">
        <ele>920.6</ele>
        <time>2026-05-10T13:39:13Z</time>
      </trkpt>
      <trkpt lat="46.03538" lon="5.64694">
        <ele>920.8</ele>
        <time>2026-05-10T13:39:14Z</time>
      </trkpt>
      <trkpt lat="46.03538" lon="5.64692">
        <ele>920.8</ele>
        <time>2026-05-10T13:39:15Z</time>
      </trkpt>
      <trkpt lat="46.03538" lon="5.64689">
        <ele>921.2</ele>
        <time>2026-05-10T13:39:16Z</time>
      </trkpt>
      <trkpt lat="46.03538" lon="5.64687">
        <ele>921.2</ele>
        <time>2026-05-10T13:39:17Z</time>
      </trkpt>
      <trkpt lat="46.03538" lon="5.64684">
        <ele>921.2</ele>
        <time>2026-05-10T13:39:18Z</time>
      </trkpt>
      <trkpt lat="46.03538" lon="5.64682">
        <ele>921.4</ele>
        <time>2026-05-10T13:39:19Z</time>
      </trkpt>
      <trkpt lat="46.03538" lon="5.64679">
        <ele>921.4</ele>
        <time>2026-05-10T13:39:20Z</time>
      </trkpt>
      <trkpt lat="46.03538" lon="5.64677">
        <ele>921.8</ele>
        <time>2026-05-10T13:39:21Z</time>
      </trkpt>
      <trkpt lat="46.03537" lon="5.64675">
        <ele>921.8</ele>
        <time>2026-05-10T13:39:22Z</time>
      </trkpt>
      <trkpt lat="46.03537" lon="5.64673">
        <ele>921.8</ele>
        <time>2026-05-10T13:39:23Z</time>
      </trkpt>
      <trkpt lat="46.03537" lon="5.6467">
        <ele>922</ele>
        <time>2026-05-10T13:39:24Z</time>
      </trkpt>
      <trkpt lat="46.03537" lon="5.64668">
        <ele>922</ele>
        <time>2026-05-10T13:39:25Z</time>
      </trkpt>
      <trkpt lat="46.03536" lon="5.64666">
        <ele>922.4</ele>
        <time>2026-05-10T13:39:26Z</time>
      </trkpt>
      <trkpt lat="46.03536" lon="5.64664">
        <ele>922.4</ele>
        <time>2026-05-10T13:39:27Z</time>
      </trkpt>
      <trkpt lat="46.03536" lon="5.64662">
        <ele>922.4</ele>
        <time>2026-05-10T13:39:28Z</time>
      </trkpt>
      <trkpt lat="46.03536" lon="5.64659">
        <ele>922.6</ele>
        <time>2026-05-10T13:39:29Z</time>
      </trkpt>
      <trkpt lat="46.03536" lon="5.64657">
        <ele>923</ele>
        <time>2026-05-10T13:39:30Z</time>
      </trkpt>
      <trkpt lat="46.03536" lon="5.64654">
        <ele>923</ele>
        <time>2026-05-10T13:39:31Z</time>
      </trkpt>
      <trkpt lat="46.03535" lon="5.64652">
        <ele>923</ele>
        <time>2026-05-10T13:39:32Z</time>
      </trkpt>
      <trkpt lat="46.03535" lon="5.6465">
        <ele>923.2</ele>
        <time>2026-05-10T13:39:33Z</time>
      </trkpt>
      <trkpt lat="46.03535" lon="5.64647">
        <ele>923.2</ele>
        <time>2026-05-10T13:39:34Z</time>
      </trkpt>
      <trkpt lat="46.03534" lon="5.64645">
        <ele>923.6</ele>
        <time>2026-05-10T13:39:35Z</time>
      </trkpt>
      <trkpt lat="46.03534" lon="5.64642">
        <ele>924</ele>
        <time>2026-05-10T13:39:36Z</time>
      </trkpt>
      <trkpt lat="46.03534" lon="5.6464">
        <ele>924.2</ele>
        <time>2026-05-10T13:39:37Z</time>
      </trkpt>
      <trkpt lat="46.03534" lon="5.64637">
        <ele>924.4</ele>
        <time>2026-05-10T13:39:38Z</time>
      </trkpt>
      <trkpt lat="46.03535" lon="5.64635">
        <ele>924.4</ele>
        <time>2026-05-10T13:39:39Z</time>
      </trkpt>
      <trkpt lat="46.03535" lon="5.64633">
        <ele>924.8</ele>
        <time>2026-05-10T13:39:40Z</time>
      </trkpt>
      <trkpt lat="46.03534" lon="5.6463">
        <ele>924.8</ele>
        <time>2026-05-10T13:39:41Z</time>
      </trkpt>
      <trkpt lat="46.03534" lon="5.64628">
        <ele>924.8</ele>
        <time>2026-05-10T13:39:42Z</time>
      </trkpt>
      <trkpt lat="46.03534" lon="5.64625">
        <ele>925</ele>
        <time>2026-05-10T13:39:43Z</time>
      </trkpt>
      <trkpt lat="46.03533" lon="5.64623">
        <ele>925</ele>
        <time>2026-05-10T13:39:44Z</time>
      </trkpt>
      <trkpt lat="46.03533" lon="5.6462">
        <ele>925.4</ele>
        <time>2026-05-10T13:39:45Z</time>
      </trkpt>
      <trkpt lat="46.03533" lon="5.64618">
        <ele>925.4</ele>
        <time>2026-05-10T13:39:46Z</time>
      </trkpt>
      <trkpt lat="46.03533" lon="5.64615">
        <ele>925.6</ele>
        <time>2026-05-10T13:39:47Z</time>
      </trkpt>
      <trkpt lat="46.03532" lon="5.64613">
        <ele>925.6</ele>
        <time>2026-05-10T13:39:48Z</time>
      </trkpt>
      <trkpt lat="46.03532" lon="5.64611">
        <ele>926</ele>
        <time>2026-05-10T13:39:49Z</time>
      </trkpt>
      <trkpt lat="46.03532" lon="5.64609">
        <ele>926</ele>
        <time>2026-05-10T13:39:50Z</time>
      </trkpt>
      <trkpt lat="46.03532" lon="5.64606">
        <ele>926.4</ele>
        <time>2026-05-10T13:39:51Z</time>
      </trkpt>
      <trkpt lat="46.03532" lon="5.64604">
        <ele>926.4</ele>
        <time>2026-05-10T13:39:52Z</time>
      </trkpt>
      <trkpt lat="46.03532" lon="5.64601">
        <ele>926.6</ele>
        <time>2026-05-10T13:39:53Z</time>
      </trkpt>
      <trkpt lat="46.03532" lon="5.64599">
        <ele>926.6</ele>
        <time>2026-05-10T13:39:54Z</time>
      </trkpt>
      <trkpt lat="46.03532" lon="5.64596">
        <ele>927</ele>
        <time>2026-05-10T13:39:55Z</time>
      </trkpt>
      <trkpt lat="46.03532" lon="5.64593">
        <ele>927.4</ele>
        <time>2026-05-10T13:39:56Z</time>
      </trkpt>
      <trkpt lat="46.03532" lon="5.64591">
        <ele>927.4</ele>
        <time>2026-05-10T13:39:57Z</time>
      </trkpt>
      <trkpt lat="46.03531" lon="5.64588">
        <ele>927.4</ele>
        <time>2026-05-10T13:39:58Z</time>
      </trkpt>
      <trkpt lat="46.03531" lon="5.64586">
        <ele>927.6</ele>
        <time>2026-05-10T13:39:59Z</time>
      </trkpt>
      <trkpt lat="46.0353" lon="5.64583">
        <ele>927.6</ele>
        <time>2026-05-10T13:40:00Z</time>
      </trkpt>
      <trkpt lat="46.0353" lon="5.64581">
        <ele>927.6</ele>
        <time>2026-05-10T13:40:01Z</time>
      </trkpt>
      <trkpt lat="46.03529" lon="5.64578">
        <ele>928</ele>
        <time>2026-05-10T13:40:02Z</time>
      </trkpt>
      <trkpt lat="46.03529" lon="5.64576">
        <ele>928.2</ele>
        <time>2026-05-10T13:40:03Z</time>
      </trkpt>
      <trkpt lat="46.03529" lon="5.64573">
        <ele>928.2</ele>
        <time>2026-05-10T13:40:04Z</time>
      </trkpt>
      <trkpt lat="46.03528" lon="5.64571">
        <ele>928.2</ele>
        <time>2026-05-10T13:40:05Z</time>
      </trkpt>
      <trkpt lat="46.03528" lon="5.64568">
        <ele>928.2</ele>
        <time>2026-05-10T13:40:06Z</time>
      </trkpt>
      <trkpt lat="46.03528" lon="5.64565">
        <ele>928.4</ele>
        <time>2026-05-10T13:40:07Z</time>
      </trkpt>
      <trkpt lat="46.03527" lon="5.64563">
        <ele>928.8</ele>
        <time>2026-05-10T13:40:08Z</time>
      </trkpt>
      <trkpt lat="46.03527" lon="5.6456">
        <ele>928.8</ele>
        <time>2026-05-10T13:40:09Z</time>
      </trkpt>
      <trkpt lat="46.03526" lon="5.64558">
        <ele>928.8</ele>
        <time>2026-05-10T13:40:10Z</time>
      </trkpt>
      <trkpt lat="46.03525" lon="5.64555">
        <ele>929</ele>
        <time>2026-05-10T13:40:11Z</time>
      </trkpt>
      <trkpt lat="46.03525" lon="5.64553">
        <ele>929</ele>
        <time>2026-05-10T13:40:12Z</time>
      </trkpt>
      <trkpt lat="46.03524" lon="5.6455">
        <ele>929</ele>
        <time>2026-05-10T13:40:13Z</time>
      </trkpt>
      <trkpt lat="46.03523" lon="5.64548">
        <ele>929.2</ele>
        <time>2026-05-10T13:40:14Z</time>
      </trkpt>
      <trkpt lat="46.03523" lon="5.64546">
        <ele>929.2</ele>
        <time>2026-05-10T13:40:15Z</time>
      </trkpt>
      <trkpt lat="46.03521" lon="5.64543">
        <ele>929.2</ele>
        <time>2026-05-10T13:40:16Z</time>
      </trkpt>
      <trkpt lat="46.0352" lon="5.64541">
        <ele>929.6</ele>
        <time>2026-05-10T13:40:17Z</time>
      </trkpt>
      <trkpt lat="46.03519" lon="5.64539">
        <ele>929.6</ele>
        <time>2026-05-10T13:40:18Z</time>
      </trkpt>
      <trkpt lat="46.03518" lon="5.64537">
        <ele>930</ele>
        <time>2026-05-10T13:40:19Z</time>
      </trkpt>
      <trkpt lat="46.03517" lon="5.64535">
        <ele>930.2</ele>
        <time>2026-05-10T13:40:20Z</time>
      </trkpt>
      <trkpt lat="46.03515" lon="5.64533">
        <ele>930.6</ele>
        <time>2026-05-10T13:40:21Z</time>
      </trkpt>
      <trkpt lat="46.03513" lon="5.64532">
        <ele>930.8</ele>
        <time>2026-05-10T13:40:22Z</time>
      </trkpt>
      <trkpt lat="46.0351" lon="5.6453">
        <ele>930.8</ele>
        <time>2026-05-10T13:40:23Z</time>
      </trkpt>
      <trkpt lat="46.03508" lon="5.64528">
        <ele>930.8</ele>
        <time>2026-05-10T13:40:24Z</time>
      </trkpt>
      <trkpt lat="46.03505" lon="5.64527">
        <ele>930.8</ele>
        <time>2026-05-10T13:40:25Z</time>
      </trkpt>
      <trkpt lat="46.03503" lon="5.64526">
        <ele>931</ele>
        <time>2026-05-10T13:40:26Z</time>
      </trkpt>
      <trkpt lat="46.03501" lon="5.64525">
        <ele>931</ele>
        <time>2026-05-10T13:40:27Z</time>
      </trkpt>
      <trkpt lat="46.03499" lon="5.64525">
        <ele>931.2</ele>
        <time>2026-05-10T13:40:28Z</time>
      </trkpt>
      <trkpt lat="46.03497" lon="5.64525">
        <ele>931.2</ele>
        <time>2026-05-10T13:40:29Z</time>
      </trkpt>
      <trkpt lat="46.03494" lon="5.64525">
        <ele>931.2</ele>
        <time>2026-05-10T13:40:30Z</time>
      </trkpt>
      <trkpt lat="46.03492" lon="5.64526">
        <ele>931.2</ele>
        <time>2026-05-10T13:40:31Z</time>
      </trkpt>
      <trkpt lat="46.03489" lon="5.64528">
        <ele>931.2</ele>
        <time>2026-05-10T13:40:32Z</time>
      </trkpt>
      <trkpt lat="46.03487" lon="5.64528">
        <ele>931.6</ele>
        <time>2026-05-10T13:40:33Z</time>
      </trkpt>
      <trkpt lat="46.03486" lon="5.64528">
        <ele>931.6</ele>
        <time>2026-05-10T13:40:34Z</time>
      </trkpt>
      <trkpt lat="46.03484" lon="5.64528">
        <ele>931.8</ele>
        <time>2026-05-10T13:40:35Z</time>
      </trkpt>
      <trkpt lat="46.03482" lon="5.64529">
        <ele>931.8</ele>
        <time>2026-05-10T13:40:36Z</time>
      </trkpt>
      <trkpt lat="46.0348" lon="5.6453">
        <ele>932</ele>
        <time>2026-05-10T13:40:37Z</time>
      </trkpt>
      <trkpt lat="46.03479" lon="5.64532">
        <ele>932</ele>
        <time>2026-05-10T13:40:38Z</time>
      </trkpt>
      <trkpt lat="46.03476" lon="5.64534">
        <ele>932.4</ele>
        <time>2026-05-10T13:40:39Z</time>
      </trkpt>
      <trkpt lat="46.03474" lon="5.64535">
        <ele>932.4</ele>
        <time>2026-05-10T13:40:40Z</time>
      </trkpt>
      <trkpt lat="46.03472" lon="5.64536">
        <ele>932.6</ele>
        <time>2026-05-10T13:40:41Z</time>
      </trkpt>
      <trkpt lat="46.0347" lon="5.64537">
        <ele>932.6</ele>
        <time>2026-05-10T13:40:42Z</time>
      </trkpt>
      <trkpt lat="46.03468" lon="5.64538">
        <ele>932.6</ele>
        <time>2026-05-10T13:40:43Z</time>
      </trkpt>
      <trkpt lat="46.03467" lon="5.64539">
        <ele>933</ele>
        <time>2026-05-10T13:40:44Z</time>
      </trkpt>
      <trkpt lat="46.03465" lon="5.6454">
        <ele>933</ele>
        <time>2026-05-10T13:40:45Z</time>
      </trkpt>
      <trkpt lat="46.03464" lon="5.6454">
        <ele>933.2</ele>
        <time>2026-05-10T13:40:46Z</time>
      </trkpt>
      <trkpt lat="46.03462" lon="5.64542">
        <ele>933.6</ele>
        <time>2026-05-10T13:40:47Z</time>
      </trkpt>
      <trkpt lat="46.0346" lon="5.64543">
        <ele>933.6</ele>
        <time>2026-05-10T13:40:48Z</time>
      </trkpt>
      <trkpt lat="46.03458" lon="5.64544">
        <ele>933.8</ele>
        <time>2026-05-10T13:40:49Z</time>
      </trkpt>
      <trkpt lat="46.03457" lon="5.64545">
        <ele>933.8</ele>
        <time>2026-05-10T13:40:50Z</time>
      </trkpt>
      <trkpt lat="46.03455" lon="5.64545">
        <ele>933.8</ele>
        <time>2026-05-10T13:40:51Z</time>
      </trkpt>
      <trkpt lat="46.03453" lon="5.64546">
        <ele>934.4</ele>
        <time>2026-05-10T13:40:52Z</time>
      </trkpt>
      <trkpt lat="46.03451" lon="5.64547">
        <ele>934.4</ele>
        <time>2026-05-10T13:40:53Z</time>
      </trkpt>
      <trkpt lat="46.03449" lon="5.64548">
        <ele>934.6</ele>
        <time>2026-05-10T13:40:54Z</time>
      </trkpt>
      <trkpt lat="46.03448" lon="5.64549">
        <ele>934.6</ele>
        <time>2026-05-10T13:40:55Z</time>
      </trkpt>
      <trkpt lat="46.03448" lon="5.64549">
        <ele>935</ele>
        <time>2026-05-10T13:40:56Z</time>
      </trkpt>
      <trkpt lat="46.03446" lon="5.6455">
        <ele>935</ele>
        <time>2026-05-10T13:40:57Z</time>
      </trkpt>
      <trkpt lat="46.03444" lon="5.64551">
        <ele>935.2</ele>
        <time>2026-05-10T13:40:58Z</time>
      </trkpt>
      <trkpt lat="46.03443" lon="5.64551">
        <ele>935.2</ele>
        <time>2026-05-10T13:40:59Z</time>
      </trkpt>
      <trkpt lat="46.03441" lon="5.64553">
        <ele>935.4</ele>
        <time>2026-05-10T13:41:00Z</time>
      </trkpt>
      <trkpt lat="46.03439" lon="5.64554">
        <ele>935.4</ele>
        <time>2026-05-10T13:41:01Z</time>
      </trkpt>
      <trkpt lat="46.03437" lon="5.64554">
        <ele>935.4</ele>
        <time>2026-05-10T13:41:02Z</time>
      </trkpt>
      <trkpt lat="46.03435" lon="5.64555">
        <ele>935.6</ele>
        <time>2026-05-10T13:41:03Z</time>
      </trkpt>
      <trkpt lat="46.03433" lon="5.64556">
        <ele>936</ele>
        <time>2026-05-10T13:41:04Z</time>
      </trkpt>
      <trkpt lat="46.03431" lon="5.64558">
        <ele>936.2</ele>
        <time>2026-05-10T13:41:05Z</time>
      </trkpt>
      <trkpt lat="46.03429" lon="5.64559">
        <ele>936.4</ele>
        <time>2026-05-10T13:41:06Z</time>
      </trkpt>
      <trkpt lat="46.03427" lon="5.64559">
        <ele>936.6</ele>
        <time>2026-05-10T13:41:07Z</time>
      </trkpt>
      <trkpt lat="46.03426" lon="5.64561">
        <ele>936.6</ele>
        <time>2026-05-10T13:41:08Z</time>
      </trkpt>
      <trkpt lat="46.03424" lon="5.64562">
        <ele>936.6</ele>
        <time>2026-05-10T13:41:09Z</time>
      </trkpt>
      <trkpt lat="46.03422" lon="5.64564">
        <ele>936.8</ele>
        <time>2026-05-10T13:41:10Z</time>
      </trkpt>
      <trkpt lat="46.03421" lon="5.64565">
        <ele>936.8</ele>
        <time>2026-05-10T13:41:11Z</time>
      </trkpt>
      <trkpt lat="46.03419" lon="5.64566">
        <ele>937</ele>
        <time>2026-05-10T13:41:12Z</time>
      </trkpt>
      <trkpt lat="46.03417" lon="5.64567">
        <ele>937</ele>
        <time>2026-05-10T13:41:13Z</time>
      </trkpt>
      <trkpt lat="46.03415" lon="5.64568">
        <ele>937.2</ele>
        <time>2026-05-10T13:41:14Z</time>
      </trkpt>
      <trkpt lat="46.03414" lon="5.64569">
        <ele>937.2</ele>
        <time>2026-05-10T13:41:15Z</time>
      </trkpt>
      <trkpt lat="46.03412" lon="5.6457">
        <ele>937.4</ele>
        <time>2026-05-10T13:41:16Z</time>
      </trkpt>
      <trkpt lat="46.0341" lon="5.64571">
        <ele>937.4</ele>
        <time>2026-05-10T13:41:17Z</time>
      </trkpt>
      <trkpt lat="46.03409" lon="5.64572">
        <ele>937.4</ele>
        <time>2026-05-10T13:41:18Z</time>
      </trkpt>
      <trkpt lat="46.03407" lon="5.64573">
        <ele>937.6</ele>
        <time>2026-05-10T13:41:19Z</time>
      </trkpt>
      <trkpt lat="46.03406" lon="5.64574">
        <ele>937.6</ele>
        <time>2026-05-10T13:41:20Z</time>
      </trkpt>
      <trkpt lat="46.03404" lon="5.64575">
        <ele>937.6</ele>
        <time>2026-05-10T13:41:21Z</time>
      </trkpt>
      <trkpt lat="46.03403" lon="5.64576">
        <ele>938</ele>
        <time>2026-05-10T13:41:22Z</time>
      </trkpt>
      <trkpt lat="46.03401" lon="5.64577">
        <ele>938.2</ele>
        <time>2026-05-10T13:41:23Z</time>
      </trkpt>
      <trkpt lat="46.034" lon="5.64578">
        <ele>938.2</ele>
        <time>2026-05-10T13:41:24Z</time>
      </trkpt>
      <trkpt lat="46.03399" lon="5.64578">
        <ele>938.4</ele>
        <time>2026-05-10T13:41:25Z</time>
      </trkpt>
      <trkpt lat="46.03397" lon="5.64579">
        <ele>938.8</ele>
        <time>2026-05-10T13:41:26Z</time>
      </trkpt>
      <trkpt lat="46.03396" lon="5.6458">
        <ele>938.8</ele>
        <time>2026-05-10T13:41:27Z</time>
      </trkpt>
      <trkpt lat="46.03394" lon="5.64581">
        <ele>939.2</ele>
        <time>2026-05-10T13:41:28Z</time>
      </trkpt>
      <trkpt lat="46.03392" lon="5.64582">
        <ele>939.2</ele>
        <time>2026-05-10T13:41:29Z</time>
      </trkpt>
      <trkpt lat="46.03391" lon="5.64583">
        <ele>939.4</ele>
        <time>2026-05-10T13:41:30Z</time>
      </trkpt>
      <trkpt lat="46.03389" lon="5.64585">
        <ele>939.4</ele>
        <time>2026-05-10T13:41:31Z</time>
      </trkpt>
      <trkpt lat="46.03388" lon="5.64586">
        <ele>939.4</ele>
        <time>2026-05-10T13:41:32Z</time>
      </trkpt>
      <trkpt lat="46.03386" lon="5.64587">
        <ele>939.4</ele>
        <time>2026-05-10T13:41:33Z</time>
      </trkpt>
      <trkpt lat="46.03385" lon="5.64588">
        <ele>939.8</ele>
        <time>2026-05-10T13:41:34Z</time>
      </trkpt>
      <trkpt lat="46.03383" lon="5.64589">
        <ele>939.8</ele>
        <time>2026-05-10T13:41:35Z</time>
      </trkpt>
      <trkpt lat="46.03381" lon="5.64589">
        <ele>940</ele>
        <time>2026-05-10T13:41:36Z</time>
      </trkpt>
      <trkpt lat="46.03379" lon="5.6459">
        <ele>940</ele>
        <time>2026-05-10T13:41:37Z</time>
      </trkpt>
      <trkpt lat="46.03378" lon="5.64592">
        <ele>940.4</ele>
        <time>2026-05-10T13:41:38Z</time>
      </trkpt>
      <trkpt lat="46.03376" lon="5.64593">
        <ele>940.4</ele>
        <time>2026-05-10T13:41:39Z</time>
      </trkpt>
      <trkpt lat="46.03375" lon="5.64593">
        <ele>940.6</ele>
        <time>2026-05-10T13:41:40Z</time>
      </trkpt>
      <trkpt lat="46.03373" lon="5.64594">
        <ele>940.6</ele>
        <time>2026-05-10T13:41:41Z</time>
      </trkpt>
      <trkpt lat="46.03371" lon="5.64594">
        <ele>940.8</ele>
        <time>2026-05-10T13:41:42Z</time>
      </trkpt>
      <trkpt lat="46.0337" lon="5.64595">
        <ele>940.8</ele>
        <time>2026-05-10T13:41:43Z</time>
      </trkpt>
      <trkpt lat="46.03369" lon="5.64596">
        <ele>941.2</ele>
        <time>2026-05-10T13:41:44Z</time>
      </trkpt>
      <trkpt lat="46.03367" lon="5.64598">
        <ele>941.2</ele>
        <time>2026-05-10T13:41:45Z</time>
      </trkpt>
      <trkpt lat="46.03366" lon="5.64599">
        <ele>941.2</ele>
        <time>2026-05-10T13:41:46Z</time>
      </trkpt>
      <trkpt lat="46.03364" lon="5.64599">
        <ele>941.4</ele>
        <time>2026-05-10T13:41:47Z</time>
      </trkpt>
      <trkpt lat="46.03362" lon="5.64599">
        <ele>941.4</ele>
        <time>2026-05-10T13:41:48Z</time>
      </trkpt>
      <trkpt lat="46.03361" lon="5.64599">
        <ele>941.4</ele>
        <time>2026-05-10T13:41:49Z</time>
      </trkpt>
      <trkpt lat="46.03359" lon="5.646">
        <ele>941.6</ele>
        <time>2026-05-10T13:41:50Z</time>
      </trkpt>
      <trkpt lat="46.03358" lon="5.64601">
        <ele>941.6</ele>
        <time>2026-05-10T13:41:51Z</time>
      </trkpt>
      <trkpt lat="46.03356" lon="5.64602">
        <ele>941.6</ele>
        <time>2026-05-10T13:41:52Z</time>
      </trkpt>
      <trkpt lat="46.03355" lon="5.64602">
        <ele>942.2</ele>
        <time>2026-05-10T13:41:53Z</time>
      </trkpt>
      <trkpt lat="46.03353" lon="5.64603">
        <ele>942.2</ele>
        <time>2026-05-10T13:41:54Z</time>
      </trkpt>
      <trkpt lat="46.03352" lon="5.64602">
        <ele>942.4</ele>
        <time>2026-05-10T13:41:55Z</time>
      </trkpt>
      <trkpt lat="46.0335" lon="5.64601">
        <ele>942.6</ele>
        <time>2026-05-10T13:41:56Z</time>
      </trkpt>
      <trkpt lat="46.03349" lon="5.64601">
        <ele>942.6</ele>
        <time>2026-05-10T13:41:57Z</time>
      </trkpt>
      <trkpt lat="46.03347" lon="5.64601">
        <ele>942.8</ele>
        <time>2026-05-10T13:41:58Z</time>
      </trkpt>
      <trkpt lat="46.03345" lon="5.64601">
        <ele>942.8</ele>
        <time>2026-05-10T13:41:59Z</time>
      </trkpt>
      <trkpt lat="46.03344" lon="5.64601">
        <ele>942.8</ele>
        <time>2026-05-10T13:42:00Z</time>
      </trkpt>
      <trkpt lat="46.03342" lon="5.64601">
        <ele>943</ele>
        <time>2026-05-10T13:42:01Z</time>
      </trkpt>
      <trkpt lat="46.03341" lon="5.646">
        <ele>943</ele>
        <time>2026-05-10T13:42:02Z</time>
      </trkpt>
      <trkpt lat="46.03339" lon="5.646">
        <ele>943.4</ele>
        <time>2026-05-10T13:42:03Z</time>
      </trkpt>
      <trkpt lat="46.03338" lon="5.646">
        <ele>943.6</ele>
        <time>2026-05-10T13:42:04Z</time>
      </trkpt>
      <trkpt lat="46.03336" lon="5.64601">
        <ele>943.6</ele>
        <time>2026-05-10T13:42:05Z</time>
      </trkpt>
      <trkpt lat="46.03335" lon="5.64601">
        <ele>943.6</ele>
        <time>2026-05-10T13:42:06Z</time>
      </trkpt>
      <trkpt lat="46.03333" lon="5.646">
        <ele>944</ele>
        <time>2026-05-10T13:42:07Z</time>
      </trkpt>
      <trkpt lat="46.03332" lon="5.646">
        <ele>944</ele>
        <time>2026-05-10T13:42:08Z</time>
      </trkpt>
      <trkpt lat="46.0333" lon="5.64599">
        <ele>944.4</ele>
        <time>2026-05-10T13:42:09Z</time>
      </trkpt>
      <trkpt lat="46.03329" lon="5.64599">
        <ele>944.4</ele>
        <time>2026-05-10T13:42:10Z</time>
      </trkpt>
      <trkpt lat="46.03327" lon="5.64599">
        <ele>944.6</ele>
        <time>2026-05-10T13:42:11Z</time>
      </trkpt>
      <trkpt lat="46.03326" lon="5.64599">
        <ele>944.6</ele>
        <time>2026-05-10T13:42:12Z</time>
      </trkpt>
      <trkpt lat="46.03324" lon="5.64599">
        <ele>944.8</ele>
        <time>2026-05-10T13:42:13Z</time>
      </trkpt>
      <trkpt lat="46.03323" lon="5.64599">
        <ele>944.8</ele>
        <time>2026-05-10T13:42:14Z</time>
      </trkpt>
      <trkpt lat="46.03321" lon="5.64599">
        <ele>945</ele>
        <time>2026-05-10T13:42:15Z</time>
      </trkpt>
      <trkpt lat="46.0332" lon="5.64598">
        <ele>945</ele>
        <time>2026-05-10T13:42:16Z</time>
      </trkpt>
      <trkpt lat="46.03318" lon="5.64598">
        <ele>945.2</ele>
        <time>2026-05-10T13:42:17Z</time>
      </trkpt>
      <trkpt lat="46.03316" lon="5.64597">
        <ele>945.2</ele>
        <time>2026-05-10T13:42:18Z</time>
      </trkpt>
      <trkpt lat="46.03315" lon="5.64596">
        <ele>945.6</ele>
        <time>2026-05-10T13:42:19Z</time>
      </trkpt>
      <trkpt lat="46.03313" lon="5.64595">
        <ele>945.6</ele>
        <time>2026-05-10T13:42:20Z</time>
      </trkpt>
      <trkpt lat="46.03312" lon="5.64594">
        <ele>945.8</ele>
        <time>2026-05-10T13:42:21Z</time>
      </trkpt>
      <trkpt lat="46.0331" lon="5.64593">
        <ele>945.8</ele>
        <time>2026-05-10T13:42:22Z</time>
      </trkpt>
      <trkpt lat="46.03309" lon="5.64592">
        <ele>945.8</ele>
        <time>2026-05-10T13:42:23Z</time>
      </trkpt>
      <trkpt lat="46.03307" lon="5.64592">
        <ele>946.2</ele>
        <time>2026-05-10T13:42:24Z</time>
      </trkpt>
      <trkpt lat="46.03306" lon="5.64592">
        <ele>946.2</ele>
        <time>2026-05-10T13:42:25Z</time>
      </trkpt>
      <trkpt lat="46.03304" lon="5.64592">
        <ele>946.2</ele>
        <time>2026-05-10T13:42:26Z</time>
      </trkpt>
      <trkpt lat="46.03302" lon="5.64592">
        <ele>946.6</ele>
        <time>2026-05-10T13:42:27Z</time>
      </trkpt>
      <trkpt lat="46.033" lon="5.64593">
        <ele>946.8</ele>
        <time>2026-05-10T13:42:28Z</time>
      </trkpt>
      <trkpt lat="46.03297" lon="5.64593">
        <ele>946.8</ele>
        <time>2026-05-10T13:42:29Z</time>
      </trkpt>
      <trkpt lat="46.03296" lon="5.64594">
        <ele>947.2</ele>
        <time>2026-05-10T13:42:30Z</time>
      </trkpt>
      <trkpt lat="46.03294" lon="5.64594">
        <ele>947.2</ele>
        <time>2026-05-10T13:42:31Z</time>
      </trkpt>
      <trkpt lat="46.03293" lon="5.64594">
        <ele>947.4</ele>
        <time>2026-05-10T13:42:32Z</time>
      </trkpt>
      <trkpt lat="46.03291" lon="5.64593">
        <ele>947.4</ele>
        <time>2026-05-10T13:42:33Z</time>
      </trkpt>
      <trkpt lat="46.03289" lon="5.64594">
        <ele>947.4</ele>
        <time>2026-05-10T13:42:34Z</time>
      </trkpt>
      <trkpt lat="46.03288" lon="5.64594">
        <ele>947.4</ele>
        <time>2026-05-10T13:42:35Z</time>
      </trkpt>
      <trkpt lat="46.03286" lon="5.64594">
        <ele>947.8</ele>
        <time>2026-05-10T13:42:36Z</time>
      </trkpt>
      <trkpt lat="46.03284" lon="5.64594">
        <ele>947.8</ele>
        <time>2026-05-10T13:42:37Z</time>
      </trkpt>
      <trkpt lat="46.03283" lon="5.64593">
        <ele>948</ele>
        <time>2026-05-10T13:42:38Z</time>
      </trkpt>
      <trkpt lat="46.03281" lon="5.64593">
        <ele>948</ele>
        <time>2026-05-10T13:42:39Z</time>
      </trkpt>
      <trkpt lat="46.0328" lon="5.64593">
        <ele>948.4</ele>
        <time>2026-05-10T13:42:40Z</time>
      </trkpt>
      <trkpt lat="46.03278" lon="5.64592">
        <ele>948.4</ele>
        <time>2026-05-10T13:42:41Z</time>
      </trkpt>
      <trkpt lat="46.03277" lon="5.64591">
        <ele>948.8</ele>
        <time>2026-05-10T13:42:42Z</time>
      </trkpt>
      <trkpt lat="46.03275" lon="5.64591">
        <ele>949</ele>
        <time>2026-05-10T13:42:43Z</time>
      </trkpt>
      <trkpt lat="46.03274" lon="5.6459">
        <ele>949</ele>
        <time>2026-05-10T13:42:44Z</time>
      </trkpt>
      <trkpt lat="46.03272" lon="5.6459">
        <ele>949.2</ele>
        <time>2026-05-10T13:42:45Z</time>
      </trkpt>
      <trkpt lat="46.03271" lon="5.6459">
        <ele>949.2</ele>
        <time>2026-05-10T13:42:46Z</time>
      </trkpt>
      <trkpt lat="46.03269" lon="5.64589">
        <ele>949.6</ele>
        <time>2026-05-10T13:42:47Z</time>
      </trkpt>
      <trkpt lat="46.03268" lon="5.64589">
        <ele>949.6</ele>
        <time>2026-05-10T13:42:48Z</time>
      </trkpt>
      <trkpt lat="46.03266" lon="5.64589">
        <ele>950</ele>
        <time>2026-05-10T13:42:49Z</time>
      </trkpt>
      <trkpt lat="46.03264" lon="5.64588">
        <ele>950</ele>
        <time>2026-05-10T13:42:50Z</time>
      </trkpt>
      <trkpt lat="46.03262" lon="5.64588">
        <ele>950</ele>
        <time>2026-05-10T13:42:51Z</time>
      </trkpt>
      <trkpt lat="46.03261" lon="5.64587">
        <ele>950.2</ele>
        <time>2026-05-10T13:42:52Z</time>
      </trkpt>
      <trkpt lat="46.03259" lon="5.64586">
        <ele>950.6</ele>
        <time>2026-05-10T13:42:53Z</time>
      </trkpt>
      <trkpt lat="46.03258" lon="5.64585">
        <ele>950.6</ele>
        <time>2026-05-10T13:42:54Z</time>
      </trkpt>
      <trkpt lat="46.03257" lon="5.64584">
        <ele>950.8</ele>
        <time>2026-05-10T13:42:55Z</time>
      </trkpt>
      <trkpt lat="46.03255" lon="5.64583">
        <ele>951.2</ele>
        <time>2026-05-10T13:42:56Z</time>
      </trkpt>
      <trkpt lat="46.03254" lon="5.64583">
        <ele>951.2</ele>
        <time>2026-05-10T13:42:57Z</time>
      </trkpt>
      <trkpt lat="46.03252" lon="5.64582">
        <ele>951.6</ele>
        <time>2026-05-10T13:42:58Z</time>
      </trkpt>
      <trkpt lat="46.03251" lon="5.64581">
        <ele>951.8</ele>
        <time>2026-05-10T13:42:59Z</time>
      </trkpt>
      <trkpt lat="46.03249" lon="5.64581">
        <ele>951.8</ele>
        <time>2026-05-10T13:43:00Z</time>
      </trkpt>
      <trkpt lat="46.03248" lon="5.6458">
        <ele>951.8</ele>
        <time>2026-05-10T13:43:01Z</time>
      </trkpt>
      <trkpt lat="46.03246" lon="5.64579">
        <ele>952</ele>
        <time>2026-05-10T13:43:02Z</time>
      </trkpt>
      <trkpt lat="46.03245" lon="5.64578">
        <ele>952</ele>
        <time>2026-05-10T13:43:03Z</time>
      </trkpt>
      <trkpt lat="46.03244" lon="5.64577">
        <ele>952.4</ele>
        <time>2026-05-10T13:43:04Z</time>
      </trkpt>
      <trkpt lat="46.03242" lon="5.64576">
        <ele>952.4</ele>
        <time>2026-05-10T13:43:05Z</time>
      </trkpt>
      <trkpt lat="46.03241" lon="5.64575">
        <ele>952.6</ele>
        <time>2026-05-10T13:43:06Z</time>
      </trkpt>
      <trkpt lat="46.0324" lon="5.64574">
        <ele>952.6</ele>
        <time>2026-05-10T13:43:07Z</time>
      </trkpt>
      <trkpt lat="46.03238" lon="5.64573">
        <ele>952.6</ele>
        <time>2026-05-10T13:43:08Z</time>
      </trkpt>
      <trkpt lat="46.03237" lon="5.64572">
        <ele>953.2</ele>
        <time>2026-05-10T13:43:09Z</time>
      </trkpt>
      <trkpt lat="46.03236" lon="5.64571">
        <ele>953.4</ele>
        <time>2026-05-10T13:43:10Z</time>
      </trkpt>
      <trkpt lat="46.03234" lon="5.6457">
        <ele>953.6</ele>
        <time>2026-05-10T13:43:11Z</time>
      </trkpt>
      <trkpt lat="46.03233" lon="5.64568">
        <ele>953.8</ele>
        <time>2026-05-10T13:43:12Z</time>
      </trkpt>
      <trkpt lat="46.03231" lon="5.64567">
        <ele>954</ele>
        <time>2026-05-10T13:43:13Z</time>
      </trkpt>
      <trkpt lat="46.0323" lon="5.64565">
        <ele>954.4</ele>
        <time>2026-05-10T13:43:14Z</time>
      </trkpt>
      <trkpt lat="46.03229" lon="5.64564">
        <ele>954.4</ele>
        <time>2026-05-10T13:43:15Z</time>
      </trkpt>
      <trkpt lat="46.03227" lon="5.64563">
        <ele>954.4</ele>
        <time>2026-05-10T13:43:16Z</time>
      </trkpt>
      <trkpt lat="46.03226" lon="5.64562">
        <ele>954.6</ele>
        <time>2026-05-10T13:43:17Z</time>
      </trkpt>
      <trkpt lat="46.03224" lon="5.6456">
        <ele>955</ele>
        <time>2026-05-10T13:43:18Z</time>
      </trkpt>
      <trkpt lat="46.03223" lon="5.64559">
        <ele>955.2</ele>
        <time>2026-05-10T13:43:19Z</time>
      </trkpt>
      <trkpt lat="46.03222" lon="5.64557">
        <ele>955.2</ele>
        <time>2026-05-10T13:43:20Z</time>
      </trkpt>
      <trkpt lat="46.03221" lon="5.64555">
        <ele>955.2</ele>
        <time>2026-05-10T13:43:21Z</time>
      </trkpt>
      <trkpt lat="46.0322" lon="5.64553">
        <ele>955.2</ele>
        <time>2026-05-10T13:43:22Z</time>
      </trkpt>
      <trkpt lat="46.03219" lon="5.64552">
        <ele>955.2</ele>
        <time>2026-05-10T13:43:23Z</time>
      </trkpt>
      <trkpt lat="46.03218" lon="5.6455">
        <ele>955.2</ele>
        <time>2026-05-10T13:43:24Z</time>
      </trkpt>
      <trkpt lat="46.03217" lon="5.64549">
        <ele>955.2</ele>
        <time>2026-05-10T13:43:25Z</time>
      </trkpt>
      <trkpt lat="46.03216" lon="5.64547">
        <ele>955.4</ele>
        <time>2026-05-10T13:43:26Z</time>
      </trkpt>
      <trkpt lat="46.03214" lon="5.64546">
        <ele>955.8</ele>
        <time>2026-05-10T13:43:27Z</time>
      </trkpt>
      <trkpt lat="46.03213" lon="5.64544">
        <ele>955.8</ele>
        <time>2026-05-10T13:43:28Z</time>
      </trkpt>
      <trkpt lat="46.03212" lon="5.64543">
        <ele>956</ele>
        <time>2026-05-10T13:43:29Z</time>
      </trkpt>
      <trkpt lat="46.0321" lon="5.64542">
        <ele>956</ele>
        <time>2026-05-10T13:43:30Z</time>
      </trkpt>
      <trkpt lat="46.03209" lon="5.6454">
        <ele>956</ele>
        <time>2026-05-10T13:43:31Z</time>
      </trkpt>
      <trkpt lat="46.03208" lon="5.64539">
        <ele>956.4</ele>
        <time>2026-05-10T13:43:32Z</time>
      </trkpt>
      <trkpt lat="46.03206" lon="5.64537">
        <ele>956.4</ele>
        <time>2026-05-10T13:43:33Z</time>
      </trkpt>
      <trkpt lat="46.03205" lon="5.64536">
        <ele>956.4</ele>
        <time>2026-05-10T13:43:34Z</time>
      </trkpt>
      <trkpt lat="46.03204" lon="5.64534">
        <ele>956.4</ele>
        <time>2026-05-10T13:43:35Z</time>
      </trkpt>
      <trkpt lat="46.03203" lon="5.64532">
        <ele>956.8</ele>
        <time>2026-05-10T13:43:36Z</time>
      </trkpt>
      <trkpt lat="46.03202" lon="5.64531">
        <ele>956.8</ele>
        <time>2026-05-10T13:43:37Z</time>
      </trkpt>
      <trkpt lat="46.03201" lon="5.64529">
        <ele>957</ele>
        <time>2026-05-10T13:43:38Z</time>
      </trkpt>
      <trkpt lat="46.032" lon="5.64528">
        <ele>957.2</ele>
        <time>2026-05-10T13:43:39Z</time>
      </trkpt>
      <trkpt lat="46.03198" lon="5.64526">
        <ele>957.2</ele>
        <time>2026-05-10T13:43:40Z</time>
      </trkpt>
      <trkpt lat="46.03197" lon="5.64525">
        <ele>957.2</ele>
        <time>2026-05-10T13:43:41Z</time>
      </trkpt>
      <trkpt lat="46.03196" lon="5.64523">
        <ele>957.6</ele>
        <time>2026-05-10T13:43:42Z</time>
      </trkpt>
      <trkpt lat="46.03195" lon="5.64522">
        <ele>957.6</ele>
        <time>2026-05-10T13:43:43Z</time>
      </trkpt>
      <trkpt lat="46.03193" lon="5.6452">
        <ele>958</ele>
        <time>2026-05-10T13:43:44Z</time>
      </trkpt>
      <trkpt lat="46.03191" lon="5.64517">
        <ele>958</ele>
        <time>2026-05-10T13:43:45Z</time>
      </trkpt>
      <trkpt lat="46.03189" lon="5.64515">
        <ele>958.2</ele>
        <time>2026-05-10T13:43:46Z</time>
      </trkpt>
      <trkpt lat="46.03188" lon="5.64514">
        <ele>958.2</ele>
        <time>2026-05-10T13:43:47Z</time>
      </trkpt>
      <trkpt lat="46.03187" lon="5.64512">
        <ele>958.4</ele>
        <time>2026-05-10T13:43:48Z</time>
      </trkpt>
      <trkpt lat="46.03186" lon="5.6451">
        <ele>958.8</ele>
        <time>2026-05-10T13:43:49Z</time>
      </trkpt>
      <trkpt lat="46.03185" lon="5.64508">
        <ele>958.8</ele>
        <time>2026-05-10T13:43:50Z</time>
      </trkpt>
      <trkpt lat="46.03184" lon="5.64507">
        <ele>958.8</ele>
        <time>2026-05-10T13:43:51Z</time>
      </trkpt>
      <trkpt lat="46.03183" lon="5.64506">
        <ele>959</ele>
        <time>2026-05-10T13:43:52Z</time>
      </trkpt>
      <trkpt lat="46.03182" lon="5.64505">
        <ele>959</ele>
        <time>2026-05-10T13:43:53Z</time>
      </trkpt>
      <trkpt lat="46.03181" lon="5.64504">
        <ele>959</ele>
        <time>2026-05-10T13:43:54Z</time>
      </trkpt>
      <trkpt lat="46.0318" lon="5.64502">
        <ele>959.2</ele>
        <time>2026-05-10T13:43:55Z</time>
      </trkpt>
      <trkpt lat="46.0318" lon="5.645">
        <ele>959.2</ele>
        <time>2026-05-10T13:43:56Z</time>
      </trkpt>
      <trkpt lat="46.03179" lon="5.64498">
        <ele>959.6</ele>
        <time>2026-05-10T13:43:57Z</time>
      </trkpt>
      <trkpt lat="46.03179" lon="5.64496">
        <ele>959.8</ele>
        <time>2026-05-10T13:43:58Z</time>
      </trkpt>
      <trkpt lat="46.03179" lon="5.64495">
        <ele>959.8</ele>
        <time>2026-05-10T13:43:59Z</time>
      </trkpt>
      <trkpt lat="46.03179" lon="5.64495">
        <ele>959.8</ele>
        <time>2026-05-10T13:44:00Z</time>
      </trkpt>
      <trkpt lat="46.03179" lon="5.64495">
        <ele>960.2</ele>
        <time>2026-05-10T13:44:01Z</time>
      </trkpt>
      <trkpt lat="46.03179" lon="5.64495">
        <ele>960.4</ele>
        <time>2026-05-10T13:44:02Z</time>
      </trkpt>
      <trkpt lat="46.03179" lon="5.64494">
        <ele>960.4</ele>
        <time>2026-05-10T13:44:05Z</time>
      </trkpt>
      <trkpt lat="46.03178" lon="5.64493">
        <ele>960.8</ele>
        <time>2026-05-10T13:44:06Z</time>
      </trkpt>
      <trkpt lat="46.03178" lon="5.64494">
        <ele>960.8</ele>
        <time>2026-05-10T13:44:07Z</time>
      </trkpt>
      <trkpt lat="46.03178" lon="5.64494">
        <ele>960.8</ele>
        <time>2026-05-10T13:44:08Z</time>
      </trkpt>
      <trkpt lat="46.03177" lon="5.64494">
        <ele>960.8</ele>
        <time>2026-05-10T13:44:11Z</time>
      </trkpt>
      <trkpt lat="46.03177" lon="5.64494">
        <ele>960.8</ele>
        <time>2026-05-10T13:44:12Z</time>
      </trkpt>
      <trkpt lat="46.03176" lon="5.64499">
        <ele>962.2</ele>
        <time>2026-05-10T13:55:41Z</time>
      </trkpt>
      <trkpt lat="46.03176" lon="5.64499">
        <ele>962.2</ele>
        <time>2026-05-10T13:55:42Z</time>
      </trkpt>
      <trkpt lat="46.03176" lon="5.64499">
        <ele>962.2</ele>
        <time>2026-05-10T13:55:43Z</time>
      </trkpt>
      <trkpt lat="46.03176" lon="5.64499">
        <ele>961.8</ele>
        <time>2026-05-10T13:55:44Z</time>
      </trkpt>
      <trkpt lat="46.03176" lon="5.64498">
        <ele>962.4</ele>
        <time>2026-05-10T13:56:03Z</time>
      </trkpt>
      <trkpt lat="46.03175" lon="5.64499">
        <ele>962.4</ele>
        <time>2026-05-10T13:56:04Z</time>
      </trkpt>
      <trkpt lat="46.03174" lon="5.64499">
        <ele>962.2</ele>
        <time>2026-05-10T13:56:05Z</time>
      </trkpt>
      <trkpt lat="46.03174" lon="5.64499">
        <ele>962.2</ele>
        <time>2026-05-10T13:56:06Z</time>
      </trkpt>
      <trkpt lat="46.03173" lon="5.64499">
        <ele>962.2</ele>
        <time>2026-05-10T13:56:07Z</time>
      </trkpt>
      <trkpt lat="46.03173" lon="5.64499">
        <ele>962.2</ele>
        <time>2026-05-10T13:56:08Z</time>
      </trkpt>
      <trkpt lat="46.03172" lon="5.64497">
        <ele>962.2</ele>
        <time>2026-05-10T13:56:12Z</time>
      </trkpt>
      <trkpt lat="46.03171" lon="5.64497">
        <ele>962.2</ele>
        <time>2026-05-10T13:56:13Z</time>
      </trkpt>
      <trkpt lat="46.0317" lon="5.64496">
        <ele>962.2</ele>
        <time>2026-05-10T13:56:14Z</time>
      </trkpt>
      <trkpt lat="46.03169" lon="5.64495">
        <ele>962.6</ele>
        <time>2026-05-10T13:56:15Z</time>
      </trkpt>
      <trkpt lat="46.03168" lon="5.64493">
        <ele>962.6</ele>
        <time>2026-05-10T13:56:16Z</time>
      </trkpt>
      <trkpt lat="46.03167" lon="5.64492">
        <ele>962.8</ele>
        <time>2026-05-10T13:56:17Z</time>
      </trkpt>
      <trkpt lat="46.03165" lon="5.64491">
        <ele>962.8</ele>
        <time>2026-05-10T13:56:18Z</time>
      </trkpt>
      <trkpt lat="46.03164" lon="5.64491">
        <ele>963</ele>
        <time>2026-05-10T13:56:19Z</time>
      </trkpt>
      <trkpt lat="46.03162" lon="5.6449">
        <ele>963</ele>
        <time>2026-05-10T13:56:20Z</time>
      </trkpt>
      <trkpt lat="46.03161" lon="5.64489">
        <ele>963</ele>
        <time>2026-05-10T13:56:21Z</time>
      </trkpt>
      <trkpt lat="46.0316" lon="5.64488">
        <ele>963.4</ele>
        <time>2026-05-10T13:56:22Z</time>
      </trkpt>
      <trkpt lat="46.03159" lon="5.64487">
        <ele>963.4</ele>
        <time>2026-05-10T13:56:23Z</time>
      </trkpt>
      <trkpt lat="46.03158" lon="5.64487">
        <ele>963.4</ele>
        <time>2026-05-10T13:56:24Z</time>
      </trkpt>
      <trkpt lat="46.03156" lon="5.64486">
        <ele>963.4</ele>
        <time>2026-05-10T13:56:25Z</time>
      </trkpt>
      <trkpt lat="46.03155" lon="5.64485">
        <ele>963.6</ele>
        <time>2026-05-10T13:56:26Z</time>
      </trkpt>
      <trkpt lat="46.03153" lon="5.64484">
        <ele>963.6</ele>
        <time>2026-05-10T13:56:27Z</time>
      </trkpt>
      <trkpt lat="46.03152" lon="5.64484">
        <ele>964</ele>
        <time>2026-05-10T13:56:28Z</time>
      </trkpt>
      <trkpt lat="46.0315" lon="5.64483">
        <ele>964.4</ele>
        <time>2026-05-10T13:56:29Z</time>
      </trkpt>
      <trkpt lat="46.03149" lon="5.64482">
        <ele>964.4</ele>
        <time>2026-05-10T13:56:30Z</time>
      </trkpt>
      <trkpt lat="46.03147" lon="5.64481">
        <ele>964.4</ele>
        <time>2026-05-10T13:56:31Z</time>
      </trkpt>
      <trkpt lat="46.03146" lon="5.64481">
        <ele>964.8</ele>
        <time>2026-05-10T13:56:32Z</time>
      </trkpt>
      <trkpt lat="46.03145" lon="5.6448">
        <ele>964.8</ele>
        <time>2026-05-10T13:56:33Z</time>
      </trkpt>
      <trkpt lat="46.03143" lon="5.6448">
        <ele>965</ele>
        <time>2026-05-10T13:56:34Z</time>
      </trkpt>
      <trkpt lat="46.03141" lon="5.6448">
        <ele>965.2</ele>
        <time>2026-05-10T13:56:35Z</time>
      </trkpt>
      <trkpt lat="46.0314" lon="5.6448">
        <ele>965.2</ele>
        <time>2026-05-10T13:56:36Z</time>
      </trkpt>
      <trkpt lat="46.03138" lon="5.64479">
        <ele>965.6</ele>
        <time>2026-05-10T13:56:37Z</time>
      </trkpt>
      <trkpt lat="46.03137" lon="5.64478">
        <ele>965.6</ele>
        <time>2026-05-10T13:56:38Z</time>
      </trkpt>
      <trkpt lat="46.03135" lon="5.64477">
        <ele>966</ele>
        <time>2026-05-10T13:56:39Z</time>
      </trkpt>
      <trkpt lat="46.03134" lon="5.64476">
        <ele>966</ele>
        <time>2026-05-10T13:56:40Z</time>
      </trkpt>
      <trkpt lat="46.03132" lon="5.64475">
        <ele>966</ele>
        <time>2026-05-10T13:56:41Z</time>
      </trkpt>
      <trkpt lat="46.03131" lon="5.64474">
        <ele>966.2</ele>
        <time>2026-05-10T13:56:42Z</time>
      </trkpt>
      <trkpt lat="46.03129" lon="5.64473">
        <ele>966.2</ele>
        <time>2026-05-10T13:56:43Z</time>
      </trkpt>
      <trkpt lat="46.03128" lon="5.64472">
        <ele>966.6</ele>
        <time>2026-05-10T13:56:44Z</time>
      </trkpt>
      <trkpt lat="46.03127" lon="5.64471">
        <ele>966.6</ele>
        <time>2026-05-10T13:56:45Z</time>
      </trkpt>
      <trkpt lat="46.03125" lon="5.6447">
        <ele>966.8</ele>
        <time>2026-05-10T13:56:46Z</time>
      </trkpt>
      <trkpt lat="46.03124" lon="5.64469">
        <ele>966.8</ele>
        <time>2026-05-10T13:56:47Z</time>
      </trkpt>
      <trkpt lat="46.03123" lon="5.64468">
        <ele>966.8</ele>
        <time>2026-05-10T13:56:48Z</time>
      </trkpt>
      <trkpt lat="46.03123" lon="5.64468">
        <ele>967.2</ele>
        <time>2026-05-10T13:56:49Z</time>
      </trkpt>
      <trkpt lat="46.03118" lon="5.64465">
        <ele>967.2</ele>
        <time>2026-05-10T13:56:50Z</time>
      </trkpt>
      <trkpt lat="46.03117" lon="5.64464">
        <ele>967.6</ele>
        <time>2026-05-10T13:56:51Z</time>
      </trkpt>
      <trkpt lat="46.03115" lon="5.64463">
        <ele>967.6</ele>
        <time>2026-05-10T13:56:52Z</time>
      </trkpt>
      <trkpt lat="46.03114" lon="5.64463">
        <ele>967.8</ele>
        <time>2026-05-10T13:56:53Z</time>
      </trkpt>
      <trkpt lat="46.03112" lon="5.64462">
        <ele>967.8</ele>
        <time>2026-05-10T13:56:54Z</time>
      </trkpt>
      <trkpt lat="46.03111" lon="5.64461">
        <ele>968</ele>
        <time>2026-05-10T13:56:55Z</time>
      </trkpt>
      <trkpt lat="46.0311" lon="5.64461">
        <ele>968.4</ele>
        <time>2026-05-10T13:56:56Z</time>
      </trkpt>
      <trkpt lat="46.0311" lon="5.64461">
        <ele>968.4</ele>
        <time>2026-05-10T13:56:57Z</time>
      </trkpt>
      <trkpt lat="46.03109" lon="5.64461">
        <ele>968.6</ele>
        <time>2026-05-10T13:56:58Z</time>
      </trkpt>
      <trkpt lat="46.03107" lon="5.64461">
        <ele>968.6</ele>
        <time>2026-05-10T13:56:59Z</time>
      </trkpt>
      <trkpt lat="46.03106" lon="5.64461">
        <ele>968.6</ele>
        <time>2026-05-10T13:57:00Z</time>
      </trkpt>
      <trkpt lat="46.03104" lon="5.64461">
        <ele>969</ele>
        <time>2026-05-10T13:57:01Z</time>
      </trkpt>
      <trkpt lat="46.03103" lon="5.6446">
        <ele>969</ele>
        <time>2026-05-10T13:57:02Z</time>
      </trkpt>
      <trkpt lat="46.03102" lon="5.6446">
        <ele>969.2</ele>
        <time>2026-05-10T13:57:03Z</time>
      </trkpt>
      <trkpt lat="46.031" lon="5.64459">
        <ele>969.2</ele>
        <time>2026-05-10T13:57:04Z</time>
      </trkpt>
      <trkpt lat="46.03099" lon="5.64458">
        <ele>969.4</ele>
        <time>2026-05-10T13:57:05Z</time>
      </trkpt>
      <trkpt lat="46.03098" lon="5.64457">
        <ele>969.4</ele>
        <time>2026-05-10T13:57:06Z</time>
      </trkpt>
      <trkpt lat="46.03096" lon="5.64456">
        <ele>969.6</ele>
        <time>2026-05-10T13:57:07Z</time>
      </trkpt>
      <trkpt lat="46.03095" lon="5.64455">
        <ele>969.6</ele>
        <time>2026-05-10T13:57:08Z</time>
      </trkpt>
      <trkpt lat="46.03094" lon="5.64454">
        <ele>969.6</ele>
        <time>2026-05-10T13:57:09Z</time>
      </trkpt>
      <trkpt lat="46.03092" lon="5.64453">
        <ele>970.2</ele>
        <time>2026-05-10T13:57:10Z</time>
      </trkpt>
      <trkpt lat="46.03091" lon="5.64452">
        <ele>970.2</ele>
        <time>2026-05-10T13:57:11Z</time>
      </trkpt>
      <trkpt lat="46.0309" lon="5.64451">
        <ele>970.2</ele>
        <time>2026-05-10T13:57:12Z</time>
      </trkpt>
      <trkpt lat="46.03088" lon="5.6445">
        <ele>970.4</ele>
        <time>2026-05-10T13:57:13Z</time>
      </trkpt>
      <trkpt lat="46.03087" lon="5.64449">
        <ele>970.4</ele>
        <time>2026-05-10T13:57:14Z</time>
      </trkpt>
      <trkpt lat="46.03085" lon="5.64449">
        <ele>970.4</ele>
        <time>2026-05-10T13:57:15Z</time>
      </trkpt>
      <trkpt lat="46.03083" lon="5.64449">
        <ele>970.8</ele>
        <time>2026-05-10T13:57:16Z</time>
      </trkpt>
      <trkpt lat="46.03082" lon="5.64448">
        <ele>970.8</ele>
        <time>2026-05-10T13:57:17Z</time>
      </trkpt>
      <trkpt lat="46.03081" lon="5.64448">
        <ele>971.2</ele>
        <time>2026-05-10T13:57:18Z</time>
      </trkpt>
      <trkpt lat="46.03079" lon="5.64447">
        <ele>971.4</ele>
        <time>2026-05-10T13:57:19Z</time>
      </trkpt>
      <trkpt lat="46.03078" lon="5.64446">
        <ele>971.4</ele>
        <time>2026-05-10T13:57:20Z</time>
      </trkpt>
      <trkpt lat="46.03076" lon="5.64446">
        <ele>971.6</ele>
        <time>2026-05-10T13:57:21Z</time>
      </trkpt>
      <trkpt lat="46.03075" lon="5.64445">
        <ele>971.6</ele>
        <time>2026-05-10T13:57:22Z</time>
      </trkpt>
      <trkpt lat="46.03073" lon="5.64445">
        <ele>971.8</ele>
        <time>2026-05-10T13:57:23Z</time>
      </trkpt>
      <trkpt lat="46.03072" lon="5.64444">
        <ele>971.8</ele>
        <time>2026-05-10T13:57:24Z</time>
      </trkpt>
      <trkpt lat="46.0307" lon="5.64444">
        <ele>971.8</ele>
        <time>2026-05-10T13:57:25Z</time>
      </trkpt>
      <trkpt lat="46.03068" lon="5.64443">
        <ele>972.2</ele>
        <time>2026-05-10T13:57:26Z</time>
      </trkpt>
      <trkpt lat="46.03067" lon="5.64442">
        <ele>972.2</ele>
        <time>2026-05-10T13:57:27Z</time>
      </trkpt>
      <trkpt lat="46.03066" lon="5.64441">
        <ele>972.4</ele>
        <time>2026-05-10T13:57:28Z</time>
      </trkpt>
      <trkpt lat="46.03065" lon="5.6444">
        <ele>972.4</ele>
        <time>2026-05-10T13:57:29Z</time>
      </trkpt>
      <trkpt lat="46.03064" lon="5.64439">
        <ele>972.4</ele>
        <time>2026-05-10T13:57:30Z</time>
      </trkpt>
      <trkpt lat="46.03062" lon="5.64438">
        <ele>972.8</ele>
        <time>2026-05-10T13:57:31Z</time>
      </trkpt>
      <trkpt lat="46.03061" lon="5.64437">
        <ele>972.8</ele>
        <time>2026-05-10T13:57:32Z</time>
      </trkpt>
      <trkpt lat="46.03059" lon="5.64436">
        <ele>973.2</ele>
        <time>2026-05-10T13:57:33Z</time>
      </trkpt>
      <trkpt lat="46.03058" lon="5.64435">
        <ele>973.2</ele>
        <time>2026-05-10T13:57:34Z</time>
      </trkpt>
      <trkpt lat="46.03056" lon="5.64435">
        <ele>973.4</ele>
        <time>2026-05-10T13:57:35Z</time>
      </trkpt>
      <trkpt lat="46.03055" lon="5.64434">
        <ele>973.4</ele>
        <time>2026-05-10T13:57:36Z</time>
      </trkpt>
      <trkpt lat="46.03053" lon="5.64434">
        <ele>973.6</ele>
        <time>2026-05-10T13:57:37Z</time>
      </trkpt>
      <trkpt lat="46.03051" lon="5.64433">
        <ele>973.6</ele>
        <time>2026-05-10T13:57:38Z</time>
      </trkpt>
      <trkpt lat="46.0305" lon="5.64432">
        <ele>974</ele>
        <time>2026-05-10T13:57:39Z</time>
      </trkpt>
      <trkpt lat="46.03048" lon="5.6443">
        <ele>974</ele>
        <time>2026-05-10T13:57:40Z</time>
      </trkpt>
      <trkpt lat="46.03047" lon="5.64429">
        <ele>974.2</ele>
        <time>2026-05-10T13:57:41Z</time>
      </trkpt>
      <trkpt lat="46.03046" lon="5.64428">
        <ele>974.2</ele>
        <time>2026-05-10T13:57:42Z</time>
      </trkpt>
      <trkpt lat="46.03045" lon="5.64426">
        <ele>974.2</ele>
        <time>2026-05-10T13:57:43Z</time>
      </trkpt>
      <trkpt lat="46.03044" lon="5.64425">
        <ele>974.2</ele>
        <time>2026-05-10T13:57:44Z</time>
      </trkpt>
      <trkpt lat="46.03043" lon="5.64423">
        <ele>974.2</ele>
        <time>2026-05-10T13:57:45Z</time>
      </trkpt>
      <trkpt lat="46.03042" lon="5.64421">
        <ele>974.4</ele>
        <time>2026-05-10T13:57:46Z</time>
      </trkpt>
      <trkpt lat="46.03041" lon="5.64419">
        <ele>974.4</ele>
        <time>2026-05-10T13:57:47Z</time>
      </trkpt>
      <trkpt lat="46.03041" lon="5.64417">
        <ele>974.6</ele>
        <time>2026-05-10T13:57:48Z</time>
      </trkpt>
      <trkpt lat="46.0304" lon="5.64415">
        <ele>974.6</ele>
        <time>2026-05-10T13:57:49Z</time>
      </trkpt>
      <trkpt lat="46.03039" lon="5.64413">
        <ele>975</ele>
        <time>2026-05-10T13:57:50Z</time>
      </trkpt>
      <trkpt lat="46.03039" lon="5.64411">
        <ele>975</ele>
        <time>2026-05-10T13:57:51Z</time>
      </trkpt>
      <trkpt lat="46.03038" lon="5.64409">
        <ele>975.4</ele>
        <time>2026-05-10T13:57:52Z</time>
      </trkpt>
      <trkpt lat="46.03037" lon="5.64407">
        <ele>975.4</ele>
        <time>2026-05-10T13:57:53Z</time>
      </trkpt>
      <trkpt lat="46.03037" lon="5.64405">
        <ele>975.6</ele>
        <time>2026-05-10T13:57:54Z</time>
      </trkpt>
      <trkpt lat="46.03037" lon="5.64404">
        <ele>975.6</ele>
        <time>2026-05-10T13:57:55Z</time>
      </trkpt>
      <trkpt lat="46.03036" lon="5.64402">
        <ele>976</ele>
        <time>2026-05-10T13:57:56Z</time>
      </trkpt>
      <trkpt lat="46.03036" lon="5.64399">
        <ele>976</ele>
        <time>2026-05-10T13:57:57Z</time>
      </trkpt>
      <trkpt lat="46.03035" lon="5.64398">
        <ele>976.2</ele>
        <time>2026-05-10T13:57:58Z</time>
      </trkpt>
      <trkpt lat="46.03035" lon="5.64396">
        <ele>976.2</ele>
        <time>2026-05-10T13:57:59Z</time>
      </trkpt>
      <trkpt lat="46.03035" lon="5.64393">
        <ele>976.6</ele>
        <time>2026-05-10T13:58:00Z</time>
      </trkpt>
      <trkpt lat="46.03035" lon="5.64391">
        <ele>976.6</ele>
        <time>2026-05-10T13:58:01Z</time>
      </trkpt>
      <trkpt lat="46.03035" lon="5.64389">
        <ele>976.8</ele>
        <time>2026-05-10T13:58:02Z</time>
      </trkpt>
      <trkpt lat="46.03035" lon="5.64388">
        <ele>976.8</ele>
        <time>2026-05-10T13:58:03Z</time>
      </trkpt>
      <trkpt lat="46.03035" lon="5.64386">
        <ele>977</ele>
        <time>2026-05-10T13:58:04Z</time>
      </trkpt>
      <trkpt lat="46.03035" lon="5.64384">
        <ele>977</ele>
        <time>2026-05-10T13:58:05Z</time>
      </trkpt>
      <trkpt lat="46.03036" lon="5.64382">
        <ele>977.4</ele>
        <time>2026-05-10T13:58:06Z</time>
      </trkpt>
      <trkpt lat="46.03036" lon="5.64381">
        <ele>977.4</ele>
        <time>2026-05-10T13:58:07Z</time>
      </trkpt>
      <trkpt lat="46.03037" lon="5.64379">
        <ele>977.8</ele>
        <time>2026-05-10T13:58:08Z</time>
      </trkpt>
      <trkpt lat="46.03037" lon="5.64377">
        <ele>977.8</ele>
        <time>2026-05-10T13:58:09Z</time>
      </trkpt>
      <trkpt lat="46.03038" lon="5.64376">
        <ele>978</ele>
        <time>2026-05-10T13:58:10Z</time>
      </trkpt>
      <trkpt lat="46.03038" lon="5.64374">
        <ele>978</ele>
        <time>2026-05-10T13:58:11Z</time>
      </trkpt>
      <trkpt lat="46.03039" lon="5.64373">
        <ele>978.4</ele>
        <time>2026-05-10T13:58:12Z</time>
      </trkpt>
      <trkpt lat="46.03039" lon="5.64371">
        <ele>978.4</ele>
        <time>2026-05-10T13:58:13Z</time>
      </trkpt>
      <trkpt lat="46.0304" lon="5.64369">
        <ele>978.8</ele>
        <time>2026-05-10T13:58:14Z</time>
      </trkpt>
      <trkpt lat="46.03041" lon="5.64368">
        <ele>978.4</ele>
        <time>2026-05-10T13:58:15Z</time>
      </trkpt>
      <trkpt lat="46.03041" lon="5.64367">
        <ele>978.8</ele>
        <time>2026-05-10T13:58:16Z</time>
      </trkpt>
      <trkpt lat="46.03042" lon="5.64366">
        <ele>979</ele>
        <time>2026-05-10T13:58:17Z</time>
      </trkpt>
      <trkpt lat="46.03043" lon="5.64364">
        <ele>979.2</ele>
        <time>2026-05-10T13:58:18Z</time>
      </trkpt>
      <trkpt lat="46.03043" lon="5.64362">
        <ele>979.2</ele>
        <time>2026-05-10T13:58:19Z</time>
      </trkpt>
      <trkpt lat="46.03044" lon="5.64361">
        <ele>979.6</ele>
        <time>2026-05-10T13:58:20Z</time>
      </trkpt>
      <trkpt lat="46.03045" lon="5.64359">
        <ele>979.6</ele>
        <time>2026-05-10T13:58:21Z</time>
      </trkpt>
      <trkpt lat="46.03046" lon="5.64357">
        <ele>980</ele>
        <time>2026-05-10T13:58:22Z</time>
      </trkpt>
      <trkpt lat="46.03047" lon="5.64355">
        <ele>980.2</ele>
        <time>2026-05-10T13:58:23Z</time>
      </trkpt>
      <trkpt lat="46.03047" lon="5.64354">
        <ele>980.4</ele>
        <time>2026-05-10T13:58:24Z</time>
      </trkpt>
      <trkpt lat="46.03048" lon="5.64353">
        <ele>980.8</ele>
        <time>2026-05-10T13:58:25Z</time>
      </trkpt>
      <trkpt lat="46.03048" lon="5.64351">
        <ele>980.8</ele>
        <time>2026-05-10T13:58:26Z</time>
      </trkpt>
      <trkpt lat="46.03049" lon="5.6435">
        <ele>981.2</ele>
        <time>2026-05-10T13:58:27Z</time>
      </trkpt>
      <trkpt lat="46.03049" lon="5.64349">
        <ele>981.4</ele>
        <time>2026-05-10T13:58:28Z</time>
      </trkpt>
      <trkpt lat="46.03051" lon="5.64348">
        <ele>981.4</ele>
        <time>2026-05-10T13:58:29Z</time>
      </trkpt>
      <trkpt lat="46.03052" lon="5.64347">
        <ele>981.6</ele>
        <time>2026-05-10T13:58:30Z</time>
      </trkpt>
      <trkpt lat="46.03053" lon="5.64346">
        <ele>981.8</ele>
        <time>2026-05-10T13:58:31Z</time>
      </trkpt>
      <trkpt lat="46.03054" lon="5.64345">
        <ele>982</ele>
        <time>2026-05-10T13:58:32Z</time>
      </trkpt>
      <trkpt lat="46.03056" lon="5.64344">
        <ele>982.2</ele>
        <time>2026-05-10T13:58:33Z</time>
      </trkpt>
      <trkpt lat="46.03057" lon="5.64343">
        <ele>982.2</ele>
        <time>2026-05-10T13:58:34Z</time>
      </trkpt>
      <trkpt lat="46.03058" lon="5.64342">
        <ele>982.6</ele>
        <time>2026-05-10T13:58:35Z</time>
      </trkpt>
      <trkpt lat="46.03059" lon="5.64341">
        <ele>982.6</ele>
        <time>2026-05-10T13:58:36Z</time>
      </trkpt>
      <trkpt lat="46.0306" lon="5.64341">
        <ele>982.6</ele>
        <time>2026-05-10T13:58:37Z</time>
      </trkpt>
      <trkpt lat="46.03061" lon="5.6434">
        <ele>982.6</ele>
        <time>2026-05-10T13:58:38Z</time>
      </trkpt>
      <trkpt lat="46.03063" lon="5.64339">
        <ele>982.6</ele>
        <time>2026-05-10T13:58:39Z</time>
      </trkpt>
      <trkpt lat="46.03065" lon="5.64338">
        <ele>983</ele>
        <time>2026-05-10T13:58:40Z</time>
      </trkpt>
      <trkpt lat="46.03066" lon="5.64336">
        <ele>983</ele>
        <time>2026-05-10T13:58:41Z</time>
      </trkpt>
      <trkpt lat="46.03067" lon="5.64335">
        <ele>983.2</ele>
        <time>2026-05-10T13:58:42Z</time>
      </trkpt>
      <trkpt lat="46.03068" lon="5.64334">
        <ele>983.2</ele>
        <time>2026-05-10T13:58:43Z</time>
      </trkpt>
      <trkpt lat="46.0307" lon="5.64333">
        <ele>983.6</ele>
        <time>2026-05-10T13:58:44Z</time>
      </trkpt>
      <trkpt lat="46.03071" lon="5.64332">
        <ele>983.6</ele>
        <time>2026-05-10T13:58:45Z</time>
      </trkpt>
      <trkpt lat="46.03073" lon="5.64331">
        <ele>983.8</ele>
        <time>2026-05-10T13:58:46Z</time>
      </trkpt>
      <trkpt lat="46.03074" lon="5.6433">
        <ele>983.8</ele>
        <time>2026-05-10T13:58:47Z</time>
      </trkpt>
      <trkpt lat="46.03075" lon="5.6433">
        <ele>984.2</ele>
        <time>2026-05-10T13:58:48Z</time>
      </trkpt>
      <trkpt lat="46.03076" lon="5.64329">
        <ele>984.2</ele>
        <time>2026-05-10T13:58:49Z</time>
      </trkpt>
      <trkpt lat="46.03078" lon="5.64327">
        <ele>984.4</ele>
        <time>2026-05-10T13:58:50Z</time>
      </trkpt>
      <trkpt lat="46.0308" lon="5.64326">
        <ele>984.4</ele>
        <time>2026-05-10T13:58:51Z</time>
      </trkpt>
      <trkpt lat="46.03081" lon="5.64326">
        <ele>984.8</ele>
        <time>2026-05-10T13:58:52Z</time>
      </trkpt>
      <trkpt lat="46.03083" lon="5.64326">
        <ele>984.8</ele>
        <time>2026-05-10T13:58:53Z</time>
      </trkpt>
      <trkpt lat="46.03085" lon="5.64325">
        <ele>985</ele>
        <time>2026-05-10T13:58:54Z</time>
      </trkpt>
      <trkpt lat="46.03086" lon="5.64325">
        <ele>985</ele>
        <time>2026-05-10T13:58:55Z</time>
      </trkpt>
      <trkpt lat="46.03087" lon="5.64324">
        <ele>985.4</ele>
        <time>2026-05-10T13:58:56Z</time>
      </trkpt>
      <trkpt lat="46.03088" lon="5.64323">
        <ele>985.4</ele>
        <time>2026-05-10T13:58:57Z</time>
      </trkpt>
      <trkpt lat="46.0309" lon="5.64323">
        <ele>985.6</ele>
        <time>2026-05-10T13:58:58Z</time>
      </trkpt>
      <trkpt lat="46.03091" lon="5.64322">
        <ele>985.8</ele>
        <time>2026-05-10T13:58:59Z</time>
      </trkpt>
      <trkpt lat="46.03092" lon="5.64322">
        <ele>985.8</ele>
        <time>2026-05-10T13:59:00Z</time>
      </trkpt>
      <trkpt lat="46.03094" lon="5.64322">
        <ele>985.8</ele>
        <time>2026-05-10T13:59:01Z</time>
      </trkpt>
      <trkpt lat="46.03095" lon="5.64321">
        <ele>985.8</ele>
        <time>2026-05-10T13:59:02Z</time>
      </trkpt>
      <trkpt lat="46.03096" lon="5.64321">
        <ele>985.8</ele>
        <time>2026-05-10T13:59:03Z</time>
      </trkpt>
      <trkpt lat="46.03098" lon="5.64319">
        <ele>986.2</ele>
        <time>2026-05-10T13:59:04Z</time>
      </trkpt>
      <trkpt lat="46.03099" lon="5.64319">
        <ele>986.2</ele>
        <time>2026-05-10T13:59:05Z</time>
      </trkpt>
      <trkpt lat="46.031" lon="5.64318">
        <ele>986.4</ele>
        <time>2026-05-10T13:59:06Z</time>
      </trkpt>
      <trkpt lat="46.03101" lon="5.64318">
        <ele>986.4</ele>
        <time>2026-05-10T13:59:07Z</time>
      </trkpt>
      <trkpt lat="46.03103" lon="5.64317">
        <ele>986.8</ele>
        <time>2026-05-10T13:59:08Z</time>
      </trkpt>
      <trkpt lat="46.03104" lon="5.64316">
        <ele>986.8</ele>
        <time>2026-05-10T13:59:09Z</time>
      </trkpt>
      <trkpt lat="46.03105" lon="5.64315">
        <ele>986.8</ele>
        <time>2026-05-10T13:59:10Z</time>
      </trkpt>
      <trkpt lat="46.03106" lon="5.64314">
        <ele>987</ele>
        <time>2026-05-10T13:59:11Z</time>
      </trkpt>
      <trkpt lat="46.03107" lon="5.64313">
        <ele>987</ele>
        <time>2026-05-10T13:59:12Z</time>
      </trkpt>
      <trkpt lat="46.03109" lon="5.64312">
        <ele>987.4</ele>
        <time>2026-05-10T13:59:13Z</time>
      </trkpt>
      <trkpt lat="46.0311" lon="5.64311">
        <ele>987.4</ele>
        <time>2026-05-10T13:59:14Z</time>
      </trkpt>
      <trkpt lat="46.03111" lon="5.6431">
        <ele>987.6</ele>
        <time>2026-05-10T13:59:15Z</time>
      </trkpt>
      <trkpt lat="46.03113" lon="5.64309">
        <ele>987.8</ele>
        <time>2026-05-10T13:59:16Z</time>
      </trkpt>
      <trkpt lat="46.03114" lon="5.64309">
        <ele>988.2</ele>
        <time>2026-05-10T13:59:17Z</time>
      </trkpt>
      <trkpt lat="46.03115" lon="5.64308">
        <ele>988.2</ele>
        <time>2026-05-10T13:59:18Z</time>
      </trkpt>
      <trkpt lat="46.03117" lon="5.64307">
        <ele>988.4</ele>
        <time>2026-05-10T13:59:19Z</time>
      </trkpt>
      <trkpt lat="46.03118" lon="5.64306">
        <ele>988.4</ele>
        <time>2026-05-10T13:59:20Z</time>
      </trkpt>
      <trkpt lat="46.03119" lon="5.64305">
        <ele>988.6</ele>
        <time>2026-05-10T13:59:21Z</time>
      </trkpt>
      <trkpt lat="46.0312" lon="5.64305">
        <ele>988.6</ele>
        <time>2026-05-10T13:59:22Z</time>
      </trkpt>
      <trkpt lat="46.03122" lon="5.64304">
        <ele>988.8</ele>
        <time>2026-05-10T13:59:23Z</time>
      </trkpt>
      <trkpt lat="46.03124" lon="5.64304">
        <ele>988.8</ele>
        <time>2026-05-10T13:59:24Z</time>
      </trkpt>
      <trkpt lat="46.03125" lon="5.64302">
        <ele>988.8</ele>
        <time>2026-05-10T13:59:25Z</time>
      </trkpt>
      <trkpt lat="46.03126" lon="5.64301">
        <ele>989.2</ele>
        <time>2026-05-10T13:59:26Z</time>
      </trkpt>
      <trkpt lat="46.03127" lon="5.643">
        <ele>988.8</ele>
        <time>2026-05-10T13:59:27Z</time>
      </trkpt>
      <trkpt lat="46.03128" lon="5.64299">
        <ele>988.8</ele>
        <time>2026-05-10T13:59:28Z</time>
      </trkpt>
      <trkpt lat="46.0313" lon="5.64299">
        <ele>989.6</ele>
        <time>2026-05-10T13:59:29Z</time>
      </trkpt>
      <trkpt lat="46.03131" lon="5.64298">
        <ele>990</ele>
        <time>2026-05-10T13:59:30Z</time>
      </trkpt>
      <trkpt lat="46.03132" lon="5.64297">
        <ele>990</ele>
        <time>2026-05-10T13:59:31Z</time>
      </trkpt>
      <trkpt lat="46.03133" lon="5.64296">
        <ele>990</ele>
        <time>2026-05-10T13:59:32Z</time>
      </trkpt>
      <trkpt lat="46.03135" lon="5.64296">
        <ele>990</ele>
        <time>2026-05-10T13:59:33Z</time>
      </trkpt>
      <trkpt lat="46.03136" lon="5.64295">
        <ele>990.4</ele>
        <time>2026-05-10T13:59:34Z</time>
      </trkpt>
      <trkpt lat="46.03138" lon="5.64293">
        <ele>991</ele>
        <time>2026-05-10T13:59:35Z</time>
      </trkpt>
      <trkpt lat="46.03139" lon="5.64292">
        <ele>991.6</ele>
        <time>2026-05-10T13:59:36Z</time>
      </trkpt>
      <trkpt lat="46.0314" lon="5.64291">
        <ele>991.6</ele>
        <time>2026-05-10T13:59:37Z</time>
      </trkpt>
      <trkpt lat="46.03142" lon="5.6429">
        <ele>991.2</ele>
        <time>2026-05-10T13:59:38Z</time>
      </trkpt>
      <trkpt lat="46.03143" lon="5.6429">
        <ele>991.2</ele>
        <time>2026-05-10T13:59:39Z</time>
      </trkpt>
      <trkpt lat="46.03144" lon="5.64289">
        <ele>991.8</ele>
        <time>2026-05-10T13:59:40Z</time>
      </trkpt>
      <trkpt lat="46.03145" lon="5.64289">
        <ele>991.8</ele>
        <time>2026-05-10T13:59:41Z</time>
      </trkpt>
      <trkpt lat="46.03146" lon="5.64288">
        <ele>991.8</ele>
        <time>2026-05-10T13:59:42Z</time>
      </trkpt>
      <trkpt lat="46.03147" lon="5.64288">
        <ele>991.8</ele>
        <time>2026-05-10T13:59:43Z</time>
      </trkpt>
      <trkpt lat="46.03148" lon="5.64287">
        <ele>991.8</ele>
        <time>2026-05-10T13:59:44Z</time>
      </trkpt>
      <trkpt lat="46.03149" lon="5.64287">
        <ele>991.8</ele>
        <time>2026-05-10T13:59:45Z</time>
      </trkpt>
      <trkpt lat="46.03151" lon="5.64287">
        <ele>991.8</ele>
        <time>2026-05-10T13:59:46Z</time>
      </trkpt>
      <trkpt lat="46.03152" lon="5.64286">
        <ele>991.8</ele>
        <time>2026-05-10T13:59:47Z</time>
      </trkpt>
      <trkpt lat="46.03153" lon="5.64286">
        <ele>992</ele>
        <time>2026-05-10T13:59:48Z</time>
      </trkpt>
      <trkpt lat="46.03154" lon="5.64285">
        <ele>992</ele>
        <time>2026-05-10T13:59:49Z</time>
      </trkpt>
      <trkpt lat="46.03155" lon="5.64283">
        <ele>992</ele>
        <time>2026-05-10T13:59:50Z</time>
      </trkpt>
      <trkpt lat="46.03157" lon="5.64282">
        <ele>992.4</ele>
        <time>2026-05-10T13:59:51Z</time>
      </trkpt>
      <trkpt lat="46.03158" lon="5.64281">
        <ele>992.4</ele>
        <time>2026-05-10T13:59:52Z</time>
      </trkpt>
      <trkpt lat="46.03159" lon="5.64281">
        <ele>992.6</ele>
        <time>2026-05-10T13:59:53Z</time>
      </trkpt>
      <trkpt lat="46.0316" lon="5.6428">
        <ele>992.6</ele>
        <time>2026-05-10T13:59:54Z</time>
      </trkpt>
      <trkpt lat="46.03163" lon="5.64279">
        <ele>993</ele>
        <time>2026-05-10T13:59:55Z</time>
      </trkpt>
      <trkpt lat="46.03164" lon="5.64278">
        <ele>993</ele>
        <time>2026-05-10T13:59:56Z</time>
      </trkpt>
      <trkpt lat="46.03165" lon="5.64277">
        <ele>993</ele>
        <time>2026-05-10T13:59:57Z</time>
      </trkpt>
      <trkpt lat="46.03166" lon="5.64276">
        <ele>993.2</ele>
        <time>2026-05-10T13:59:58Z</time>
      </trkpt>
      <trkpt lat="46.03167" lon="5.64275">
        <ele>993.2</ele>
        <time>2026-05-10T13:59:59Z</time>
      </trkpt>
      <trkpt lat="46.03169" lon="5.64274">
        <ele>993.2</ele>
        <time>2026-05-10T14:00:00Z</time>
      </trkpt>
      <trkpt lat="46.0317" lon="5.64273">
        <ele>993.6</ele>
        <time>2026-05-10T14:00:01Z</time>
      </trkpt>
      <trkpt lat="46.0317" lon="5.64273">
        <ele>993.6</ele>
        <time>2026-05-10T14:00:02Z</time>
      </trkpt>
      <trkpt lat="46.03171" lon="5.64272">
        <ele>993.6</ele>
        <time>2026-05-10T14:00:03Z</time>
      </trkpt>
      <trkpt lat="46.03172" lon="5.64271">
        <ele>993.6</ele>
        <time>2026-05-10T14:00:04Z</time>
      </trkpt>
      <trkpt lat="46.03173" lon="5.6427">
        <ele>993.8</ele>
        <time>2026-05-10T14:00:05Z</time>
      </trkpt>
      <trkpt lat="46.03175" lon="5.64269">
        <ele>993.8</ele>
        <time>2026-05-10T14:00:06Z</time>
      </trkpt>
      <trkpt lat="46.03175" lon="5.64269">
        <ele>994</ele>
        <time>2026-05-10T14:00:07Z</time>
      </trkpt>
      <trkpt lat="46.03176" lon="5.64269">
        <ele>994</ele>
        <time>2026-05-10T14:00:08Z</time>
      </trkpt>
      <trkpt lat="46.03178" lon="5.64268">
        <ele>994.4</ele>
        <time>2026-05-10T14:00:09Z</time>
      </trkpt>
      <trkpt lat="46.03179" lon="5.64268">
        <ele>994.4</ele>
        <time>2026-05-10T14:00:10Z</time>
      </trkpt>
      <trkpt lat="46.0318" lon="5.64267">
        <ele>994.8</ele>
        <time>2026-05-10T14:00:11Z</time>
      </trkpt>
      <trkpt lat="46.03181" lon="5.64267">
        <ele>994.8</ele>
        <time>2026-05-10T14:00:12Z</time>
      </trkpt>
      <trkpt lat="46.03182" lon="5.64266">
        <ele>995.2</ele>
        <time>2026-05-10T14:00:13Z</time>
      </trkpt>
      <trkpt lat="46.03184" lon="5.64266">
        <ele>995.4</ele>
        <time>2026-05-10T14:00:14Z</time>
      </trkpt>
      <trkpt lat="46.03184" lon="5.64266">
        <ele>995.4</ele>
        <time>2026-05-10T14:00:15Z</time>
      </trkpt>
      <trkpt lat="46.03185" lon="5.64265">
        <ele>995.6</ele>
        <time>2026-05-10T14:00:16Z</time>
      </trkpt>
      <trkpt lat="46.03187" lon="5.64264">
        <ele>995.6</ele>
        <time>2026-05-10T14:00:17Z</time>
      </trkpt>
      <trkpt lat="46.03188" lon="5.64264">
        <ele>996</ele>
        <time>2026-05-10T14:00:18Z</time>
      </trkpt>
      <trkpt lat="46.03189" lon="5.64263">
        <ele>996.2</ele>
        <time>2026-05-10T14:00:19Z</time>
      </trkpt>
      <trkpt lat="46.0319" lon="5.64262">
        <ele>996.2</ele>
        <time>2026-05-10T14:00:20Z</time>
      </trkpt>
      <trkpt lat="46.03191" lon="5.6426">
        <ele>996.4</ele>
        <time>2026-05-10T14:00:21Z</time>
      </trkpt>
      <trkpt lat="46.03193" lon="5.64259">
        <ele>996.4</ele>
        <time>2026-05-10T14:00:22Z</time>
      </trkpt>
      <trkpt lat="46.03194" lon="5.64258">
        <ele>996.8</ele>
        <time>2026-05-10T14:00:23Z</time>
      </trkpt>
      <trkpt lat="46.03195" lon="5.64258">
        <ele>996.8</ele>
        <time>2026-05-10T14:00:24Z</time>
      </trkpt>
      <trkpt lat="46.03197" lon="5.64258">
        <ele>997</ele>
        <time>2026-05-10T14:00:25Z</time>
      </trkpt>
      <trkpt lat="46.03198" lon="5.64257">
        <ele>997.2</ele>
        <time>2026-05-10T14:00:26Z</time>
      </trkpt>
      <trkpt lat="46.03199" lon="5.64257">
        <ele>997.2</ele>
        <time>2026-05-10T14:00:27Z</time>
      </trkpt>
      <trkpt lat="46.03201" lon="5.64257">
        <ele>997.6</ele>
        <time>2026-05-10T14:00:28Z</time>
      </trkpt>
      <trkpt lat="46.03202" lon="5.64256">
        <ele>997.6</ele>
        <time>2026-05-10T14:00:29Z</time>
      </trkpt>
      <trkpt lat="46.03203" lon="5.64256">
        <ele>997.8</ele>
        <time>2026-05-10T14:00:30Z</time>
      </trkpt>
      <trkpt lat="46.03204" lon="5.64255">
        <ele>997.8</ele>
        <time>2026-05-10T14:00:31Z</time>
      </trkpt>
      <trkpt lat="46.03205" lon="5.64254">
        <ele>998.2</ele>
        <time>2026-05-10T14:00:32Z</time>
      </trkpt>
      <trkpt lat="46.03206" lon="5.64253">
        <ele>998.2</ele>
        <time>2026-05-10T14:00:33Z</time>
      </trkpt>
      <trkpt lat="46.03207" lon="5.64252">
        <ele>998.2</ele>
        <time>2026-05-10T14:00:34Z</time>
      </trkpt>
      <trkpt lat="46.03209" lon="5.64252">
        <ele>998.4</ele>
        <time>2026-05-10T14:00:35Z</time>
      </trkpt>
      <trkpt lat="46.0321" lon="5.64251">
        <ele>998.4</ele>
        <time>2026-05-10T14:00:36Z</time>
      </trkpt>
      <trkpt lat="46.03211" lon="5.6425">
        <ele>998.4</ele>
        <time>2026-05-10T14:00:37Z</time>
      </trkpt>
      <trkpt lat="46.03212" lon="5.64249">
        <ele>998.8</ele>
        <time>2026-05-10T14:00:38Z</time>
      </trkpt>
      <trkpt lat="46.03213" lon="5.64247">
        <ele>998.8</ele>
        <time>2026-05-10T14:00:39Z</time>
      </trkpt>
      <trkpt lat="46.03214" lon="5.64246">
        <ele>999</ele>
        <time>2026-05-10T14:00:40Z</time>
      </trkpt>
      <trkpt lat="46.03216" lon="5.64245">
        <ele>999.2</ele>
        <time>2026-05-10T14:00:41Z</time>
      </trkpt>
      <trkpt lat="46.03217" lon="5.64244">
        <ele>999.2</ele>
        <time>2026-05-10T14:00:42Z</time>
      </trkpt>
      <trkpt lat="46.03218" lon="5.64243">
        <ele>999.6</ele>
        <time>2026-05-10T14:00:43Z</time>
      </trkpt>
      <trkpt lat="46.03219" lon="5.64241">
        <ele>999.8</ele>
        <time>2026-05-10T14:00:44Z</time>
      </trkpt>
      <trkpt lat="46.03221" lon="5.6424">
        <ele>999.8</ele>
        <time>2026-05-10T14:00:45Z</time>
      </trkpt>
      <trkpt lat="46.03222" lon="5.64239">
        <ele>1000.2</ele>
        <time>2026-05-10T14:00:46Z</time>
      </trkpt>
      <trkpt lat="46.03223" lon="5.64238">
        <ele>1000.2</ele>
        <time>2026-05-10T14:00:47Z</time>
      </trkpt>
      <trkpt lat="46.03224" lon="5.64237">
        <ele>1000.6</ele>
        <time>2026-05-10T14:00:48Z</time>
      </trkpt>
      <trkpt lat="46.03225" lon="5.64235">
        <ele>1000.6</ele>
        <time>2026-05-10T14:00:49Z</time>
      </trkpt>
      <trkpt lat="46.03226" lon="5.64234">
        <ele>1000.6</ele>
        <time>2026-05-10T14:00:50Z</time>
      </trkpt>
      <trkpt lat="46.03227" lon="5.64232">
        <ele>1000.6</ele>
        <time>2026-05-10T14:00:51Z</time>
      </trkpt>
      <trkpt lat="46.03228" lon="5.64231">
        <ele>1001.2</ele>
        <time>2026-05-10T14:00:52Z</time>
      </trkpt>
      <trkpt lat="46.03229" lon="5.6423">
        <ele>1001.2</ele>
        <time>2026-05-10T14:00:53Z</time>
      </trkpt>
      <trkpt lat="46.0323" lon="5.64228">
        <ele>1001.4</ele>
        <time>2026-05-10T14:00:54Z</time>
      </trkpt>
      <trkpt lat="46.0323" lon="5.64227">
        <ele>1001.4</ele>
        <time>2026-05-10T14:00:55Z</time>
      </trkpt>
      <trkpt lat="46.03231" lon="5.64226">
        <ele>1001.6</ele>
        <time>2026-05-10T14:00:56Z</time>
      </trkpt>
      <trkpt lat="46.03232" lon="5.64225">
        <ele>1001.6</ele>
        <time>2026-05-10T14:00:57Z</time>
      </trkpt>
      <trkpt lat="46.03233" lon="5.64223">
        <ele>1002</ele>
        <time>2026-05-10T14:00:58Z</time>
      </trkpt>
      <trkpt lat="46.03234" lon="5.64222">
        <ele>1002</ele>
        <time>2026-05-10T14:00:59Z</time>
      </trkpt>
      <trkpt lat="46.03235" lon="5.6422">
        <ele>1002.2</ele>
        <time>2026-05-10T14:01:00Z</time>
      </trkpt>
      <trkpt lat="46.03236" lon="5.64219">
        <ele>1002.2</ele>
        <time>2026-05-10T14:01:01Z</time>
      </trkpt>
      <trkpt lat="46.03237" lon="5.64217">
        <ele>1002.6</ele>
        <time>2026-05-10T14:01:02Z</time>
      </trkpt>
      <trkpt lat="46.03238" lon="5.64215">
        <ele>1002.6</ele>
        <time>2026-05-10T14:01:03Z</time>
      </trkpt>
      <trkpt lat="46.03239" lon="5.64213">
        <ele>1002.8</ele>
        <time>2026-05-10T14:01:04Z</time>
      </trkpt>
      <trkpt lat="46.0324" lon="5.64211">
        <ele>1002.8</ele>
        <time>2026-05-10T14:01:05Z</time>
      </trkpt>
      <trkpt lat="46.03241" lon="5.64209">
        <ele>1003.2</ele>
        <time>2026-05-10T14:01:06Z</time>
      </trkpt>
      <trkpt lat="46.03243" lon="5.64207">
        <ele>1003.2</ele>
        <time>2026-05-10T14:01:07Z</time>
      </trkpt>
      <trkpt lat="46.03243" lon="5.64205">
        <ele>1003.2</ele>
        <time>2026-05-10T14:01:08Z</time>
      </trkpt>
      <trkpt lat="46.03244" lon="5.64203">
        <ele>1003.2</ele>
        <time>2026-05-10T14:01:09Z</time>
      </trkpt>
      <trkpt lat="46.03245" lon="5.64201">
        <ele>1003.4</ele>
        <time>2026-05-10T14:01:10Z</time>
      </trkpt>
      <trkpt lat="46.03246" lon="5.64199">
        <ele>1003.4</ele>
        <time>2026-05-10T14:01:11Z</time>
      </trkpt>
      <trkpt lat="46.03247" lon="5.64197">
        <ele>1003.4</ele>
        <time>2026-05-10T14:01:12Z</time>
      </trkpt>
      <trkpt lat="46.03247" lon="5.64195">
        <ele>1003.6</ele>
        <time>2026-05-10T14:01:13Z</time>
      </trkpt>
      <trkpt lat="46.03248" lon="5.64193">
        <ele>1003.6</ele>
        <time>2026-05-10T14:01:14Z</time>
      </trkpt>
      <trkpt lat="46.03249" lon="5.6419">
        <ele>1003.6</ele>
        <time>2026-05-10T14:01:15Z</time>
      </trkpt>
      <trkpt lat="46.03249" lon="5.64188">
        <ele>1004</ele>
        <time>2026-05-10T14:01:16Z</time>
      </trkpt>
      <trkpt lat="46.0325" lon="5.64186">
        <ele>1004</ele>
        <time>2026-05-10T14:01:17Z</time>
      </trkpt>
      <trkpt lat="46.03251" lon="5.64184">
        <ele>1004</ele>
        <time>2026-05-10T14:01:18Z</time>
      </trkpt>
      <trkpt lat="46.03252" lon="5.64183">
        <ele>1004</ele>
        <time>2026-05-10T14:01:19Z</time>
      </trkpt>
      <trkpt lat="46.03253" lon="5.64181">
        <ele>1004.2</ele>
        <time>2026-05-10T14:01:20Z</time>
      </trkpt>
      <trkpt lat="46.03253" lon="5.64179">
        <ele>1004.4</ele>
        <time>2026-05-10T14:01:21Z</time>
      </trkpt>
      <trkpt lat="46.03254" lon="5.64177">
        <ele>1004.4</ele>
        <time>2026-05-10T14:01:22Z</time>
      </trkpt>
      <trkpt lat="46.03255" lon="5.64174">
        <ele>1004.8</ele>
        <time>2026-05-10T14:01:23Z</time>
      </trkpt>
      <trkpt lat="46.03255" lon="5.64172">
        <ele>1004.8</ele>
        <time>2026-05-10T14:01:24Z</time>
      </trkpt>
      <trkpt lat="46.03256" lon="5.6417">
        <ele>1004.8</ele>
        <time>2026-05-10T14:01:25Z</time>
      </trkpt>
      <trkpt lat="46.03257" lon="5.64168">
        <ele>1004.8</ele>
        <time>2026-05-10T14:01:26Z</time>
      </trkpt>
      <trkpt lat="46.03258" lon="5.64167">
        <ele>1005</ele>
        <time>2026-05-10T14:01:27Z</time>
      </trkpt>
      <trkpt lat="46.03259" lon="5.64165">
        <ele>1005.2</ele>
        <time>2026-05-10T14:01:28Z</time>
      </trkpt>
      <trkpt lat="46.0326" lon="5.64164">
        <ele>1005.2</ele>
        <time>2026-05-10T14:01:29Z</time>
      </trkpt>
      <trkpt lat="46.03261" lon="5.64162">
        <ele>1005.4</ele>
        <time>2026-05-10T14:01:30Z</time>
      </trkpt>
      <trkpt lat="46.03262" lon="5.6416">
        <ele>1005.4</ele>
        <time>2026-05-10T14:01:31Z</time>
      </trkpt>
      <trkpt lat="46.03263" lon="5.64158">
        <ele>1005.8</ele>
        <time>2026-05-10T14:01:32Z</time>
      </trkpt>
      <trkpt lat="46.03264" lon="5.64157">
        <ele>1006.2</ele>
        <time>2026-05-10T14:01:33Z</time>
      </trkpt>
      <trkpt lat="46.03265" lon="5.64156">
        <ele>1006.2</ele>
        <time>2026-05-10T14:01:34Z</time>
      </trkpt>
      <trkpt lat="46.03266" lon="5.64155">
        <ele>1006.2</ele>
        <time>2026-05-10T14:01:35Z</time>
      </trkpt>
      <trkpt lat="46.03267" lon="5.64153">
        <ele>1006.4</ele>
        <time>2026-05-10T14:01:36Z</time>
      </trkpt>
      <trkpt lat="46.03267" lon="5.6415">
        <ele>1006.6</ele>
        <time>2026-05-10T14:01:37Z</time>
      </trkpt>
      <trkpt lat="46.03268" lon="5.64148">
        <ele>1006.8</ele>
        <time>2026-05-10T14:01:38Z</time>
      </trkpt>
      <trkpt lat="46.03269" lon="5.64146">
        <ele>1006.8</ele>
        <time>2026-05-10T14:01:39Z</time>
      </trkpt>
      <trkpt lat="46.03269" lon="5.64144">
        <ele>1007.2</ele>
        <time>2026-05-10T14:01:40Z</time>
      </trkpt>
      <trkpt lat="46.0327" lon="5.64143">
        <ele>1007.2</ele>
        <time>2026-05-10T14:01:41Z</time>
      </trkpt>
      <trkpt lat="46.03271" lon="5.64141">
        <ele>1007.6</ele>
        <time>2026-05-10T14:01:42Z</time>
      </trkpt>
      <trkpt lat="46.03272" lon="5.64139">
        <ele>1007.6</ele>
        <time>2026-05-10T14:01:43Z</time>
      </trkpt>
      <trkpt lat="46.03272" lon="5.64137">
        <ele>1007.6</ele>
        <time>2026-05-10T14:01:44Z</time>
      </trkpt>
      <trkpt lat="46.03273" lon="5.64135">
        <ele>1007.8</ele>
        <time>2026-05-10T14:01:45Z</time>
      </trkpt>
      <trkpt lat="46.03274" lon="5.64133">
        <ele>1008.2</ele>
        <time>2026-05-10T14:01:46Z</time>
      </trkpt>
      <trkpt lat="46.03275" lon="5.64131">
        <ele>1008.4</ele>
        <time>2026-05-10T14:01:47Z</time>
      </trkpt>
      <trkpt lat="46.03275" lon="5.64128">
        <ele>1008.4</ele>
        <time>2026-05-10T14:01:48Z</time>
      </trkpt>
      <trkpt lat="46.03276" lon="5.64126">
        <ele>1008.6</ele>
        <time>2026-05-10T14:01:49Z</time>
      </trkpt>
      <trkpt lat="46.03277" lon="5.64124">
        <ele>1008.6</ele>
        <time>2026-05-10T14:01:50Z</time>
      </trkpt>
      <trkpt lat="46.03278" lon="5.64122">
        <ele>1009</ele>
        <time>2026-05-10T14:01:51Z</time>
      </trkpt>
      <trkpt lat="46.03279" lon="5.64121">
        <ele>1009</ele>
        <time>2026-05-10T14:01:52Z</time>
      </trkpt>
      <trkpt lat="46.03279" lon="5.64119">
        <ele>1009.2</ele>
        <time>2026-05-10T14:01:53Z</time>
      </trkpt>
      <trkpt lat="46.03281" lon="5.64117">
        <ele>1009.2</ele>
        <time>2026-05-10T14:01:54Z</time>
      </trkpt>
      <trkpt lat="46.03282" lon="5.64116">
        <ele>1009.6</ele>
        <time>2026-05-10T14:01:55Z</time>
      </trkpt>
      <trkpt lat="46.03282" lon="5.64114">
        <ele>1009.8</ele>
        <time>2026-05-10T14:01:56Z</time>
      </trkpt>
      <trkpt lat="46.03283" lon="5.64111">
        <ele>1009.8</ele>
        <time>2026-05-10T14:01:57Z</time>
      </trkpt>
      <trkpt lat="46.03283" lon="5.64109">
        <ele>1009.8</ele>
        <time>2026-05-10T14:01:58Z</time>
      </trkpt>
      <trkpt lat="46.03284" lon="5.64107">
        <ele>1010</ele>
        <time>2026-05-10T14:01:59Z</time>
      </trkpt>
      <trkpt lat="46.03284" lon="5.64105">
        <ele>1010</ele>
        <time>2026-05-10T14:02:00Z</time>
      </trkpt>
      <trkpt lat="46.03285" lon="5.64102">
        <ele>1010.4</ele>
        <time>2026-05-10T14:02:01Z</time>
      </trkpt>
      <trkpt lat="46.03285" lon="5.641">
        <ele>1010.4</ele>
        <time>2026-05-10T14:02:02Z</time>
      </trkpt>
      <trkpt lat="46.03286" lon="5.64098">
        <ele>1010.8</ele>
        <time>2026-05-10T14:02:03Z</time>
      </trkpt>
      <trkpt lat="46.03286" lon="5.64095">
        <ele>1010.8</ele>
        <time>2026-05-10T14:02:04Z</time>
      </trkpt>
      <trkpt lat="46.03286" lon="5.64093">
        <ele>1011</ele>
        <time>2026-05-10T14:02:05Z</time>
      </trkpt>
      <trkpt lat="46.03286" lon="5.6409">
        <ele>1011</ele>
        <time>2026-05-10T14:02:06Z</time>
      </trkpt>
      <trkpt lat="46.03286" lon="5.64088">
        <ele>1011.2</ele>
        <time>2026-05-10T14:02:07Z</time>
      </trkpt>
      <trkpt lat="46.03286" lon="5.64086">
        <ele>1011.2</ele>
        <time>2026-05-10T14:02:08Z</time>
      </trkpt>
      <trkpt lat="46.03286" lon="5.64083">
        <ele>1011.6</ele>
        <time>2026-05-10T14:02:09Z</time>
      </trkpt>
      <trkpt lat="46.03286" lon="5.64081">
        <ele>1011.6</ele>
        <time>2026-05-10T14:02:10Z</time>
      </trkpt>
      <trkpt lat="46.03286" lon="5.64078">
        <ele>1011.8</ele>
        <time>2026-05-10T14:02:11Z</time>
      </trkpt>
      <trkpt lat="46.03286" lon="5.64076">
        <ele>1011.8</ele>
        <time>2026-05-10T14:02:12Z</time>
      </trkpt>
      <trkpt lat="46.03285" lon="5.64073">
        <ele>1012.2</ele>
        <time>2026-05-10T14:02:13Z</time>
      </trkpt>
      <trkpt lat="46.03286" lon="5.64071">
        <ele>1012.2</ele>
        <time>2026-05-10T14:02:14Z</time>
      </trkpt>
      <trkpt lat="46.03286" lon="5.64068">
        <ele>1012.4</ele>
        <time>2026-05-10T14:02:15Z</time>
      </trkpt>
      <trkpt lat="46.03285" lon="5.64066">
        <ele>1012.8</ele>
        <time>2026-05-10T14:02:16Z</time>
      </trkpt>
      <trkpt lat="46.03285" lon="5.64063">
        <ele>1012.8</ele>
        <time>2026-05-10T14:02:17Z</time>
      </trkpt>
      <trkpt lat="46.03285" lon="5.6406">
        <ele>1012.8</ele>
        <time>2026-05-10T14:02:18Z</time>
      </trkpt>
      <trkpt lat="46.03285" lon="5.64058">
        <ele>1013</ele>
        <time>2026-05-10T14:02:19Z</time>
      </trkpt>
      <trkpt lat="46.03285" lon="5.64056">
        <ele>1013</ele>
        <time>2026-05-10T14:02:20Z</time>
      </trkpt>
      <trkpt lat="46.03285" lon="5.64054">
        <ele>1013</ele>
        <time>2026-05-10T14:02:21Z</time>
      </trkpt>
      <trkpt lat="46.03285" lon="5.64051">
        <ele>1013.4</ele>
        <time>2026-05-10T14:02:22Z</time>
      </trkpt>
      <trkpt lat="46.03285" lon="5.64049">
        <ele>1013.4</ele>
        <time>2026-05-10T14:02:23Z</time>
      </trkpt>
      <trkpt lat="46.03285" lon="5.64046">
        <ele>1013.4</ele>
        <time>2026-05-10T14:02:24Z</time>
      </trkpt>
      <trkpt lat="46.03284" lon="5.64044">
        <ele>1013.8</ele>
        <time>2026-05-10T14:02:25Z</time>
      </trkpt>
      <trkpt lat="46.03284" lon="5.64041">
        <ele>1013.8</ele>
        <time>2026-05-10T14:02:26Z</time>
      </trkpt>
      <trkpt lat="46.03284" lon="5.64039">
        <ele>1013.8</ele>
        <time>2026-05-10T14:02:27Z</time>
      </trkpt>
      <trkpt lat="46.03284" lon="5.64036">
        <ele>1013.8</ele>
        <time>2026-05-10T14:02:28Z</time>
      </trkpt>
      <trkpt lat="46.03284" lon="5.64034">
        <ele>1013.8</ele>
        <time>2026-05-10T14:02:29Z</time>
      </trkpt>
      <trkpt lat="46.03284" lon="5.64032">
        <ele>1014</ele>
        <time>2026-05-10T14:02:30Z</time>
      </trkpt>
      <trkpt lat="46.03284" lon="5.6403">
        <ele>1014</ele>
        <time>2026-05-10T14:02:31Z</time>
      </trkpt>
      <trkpt lat="46.03283" lon="5.64027">
        <ele>1014.2</ele>
        <time>2026-05-10T14:02:32Z</time>
      </trkpt>
      <trkpt lat="46.03283" lon="5.64025">
        <ele>1014.2</ele>
        <time>2026-05-10T14:02:33Z</time>
      </trkpt>
      <trkpt lat="46.03283" lon="5.64023">
        <ele>1014.2</ele>
        <time>2026-05-10T14:02:34Z</time>
      </trkpt>
      <trkpt lat="46.03282" lon="5.6402">
        <ele>1014.4</ele>
        <time>2026-05-10T14:02:35Z</time>
      </trkpt>
      <trkpt lat="46.03282" lon="5.64018">
        <ele>1014.6</ele>
        <time>2026-05-10T14:02:36Z</time>
      </trkpt>
      <trkpt lat="46.03283" lon="5.64015">
        <ele>1014.6</ele>
        <time>2026-05-10T14:02:37Z</time>
      </trkpt>
      <trkpt lat="46.03283" lon="5.64013">
        <ele>1015</ele>
        <time>2026-05-10T14:02:38Z</time>
      </trkpt>
      <trkpt lat="46.03283" lon="5.64011">
        <ele>1015</ele>
        <time>2026-05-10T14:02:39Z</time>
      </trkpt>
      <trkpt lat="46.03283" lon="5.64009">
        <ele>1015.4</ele>
        <time>2026-05-10T14:02:40Z</time>
      </trkpt>
      <trkpt lat="46.03283" lon="5.64006">
        <ele>1015.6</ele>
        <time>2026-05-10T14:02:41Z</time>
      </trkpt>
      <trkpt lat="46.03283" lon="5.64004">
        <ele>1015.6</ele>
        <time>2026-05-10T14:02:42Z</time>
      </trkpt>
      <trkpt lat="46.03282" lon="5.64002">
        <ele>1016</ele>
        <time>2026-05-10T14:02:43Z</time>
      </trkpt>
      <trkpt lat="46.03282" lon="5.64">
        <ele>1016</ele>
        <time>2026-05-10T14:02:44Z</time>
      </trkpt>
      <trkpt lat="46.03282" lon="5.63998">
        <ele>1016.2</ele>
        <time>2026-05-10T14:02:45Z</time>
      </trkpt>
      <trkpt lat="46.03281" lon="5.63995">
        <ele>1016.2</ele>
        <time>2026-05-10T14:02:46Z</time>
      </trkpt>
      <trkpt lat="46.03281" lon="5.63993">
        <ele>1016.2</ele>
        <time>2026-05-10T14:02:47Z</time>
      </trkpt>
      <trkpt lat="46.0328" lon="5.6399">
        <ele>1016.6</ele>
        <time>2026-05-10T14:02:48Z</time>
      </trkpt>
      <trkpt lat="46.0328" lon="5.63987">
        <ele>1016.6</ele>
        <time>2026-05-10T14:02:49Z</time>
      </trkpt>
      <trkpt lat="46.0328" lon="5.63985">
        <ele>1016.8</ele>
        <time>2026-05-10T14:02:50Z</time>
      </trkpt>
      <trkpt lat="46.0328" lon="5.63983">
        <ele>1016.8</ele>
        <time>2026-05-10T14:02:51Z</time>
      </trkpt>
      <trkpt lat="46.0328" lon="5.6398">
        <ele>1016.8</ele>
        <time>2026-05-10T14:02:52Z</time>
      </trkpt>
      <trkpt lat="46.0328" lon="5.63978">
        <ele>1017</ele>
        <time>2026-05-10T14:02:53Z</time>
      </trkpt>
      <trkpt lat="46.03281" lon="5.63975">
        <ele>1017.4</ele>
        <time>2026-05-10T14:02:54Z</time>
      </trkpt>
      <trkpt lat="46.03281" lon="5.63973">
        <ele>1017.4</ele>
        <time>2026-05-10T14:02:55Z</time>
      </trkpt>
      <trkpt lat="46.03281" lon="5.63971">
        <ele>1017.6</ele>
        <time>2026-05-10T14:02:56Z</time>
      </trkpt>
      <trkpt lat="46.03282" lon="5.63968">
        <ele>1017.6</ele>
        <time>2026-05-10T14:02:57Z</time>
      </trkpt>
      <trkpt lat="46.03282" lon="5.63965">
        <ele>1018</ele>
        <time>2026-05-10T14:02:58Z</time>
      </trkpt>
      <trkpt lat="46.03281" lon="5.63963">
        <ele>1018</ele>
        <time>2026-05-10T14:02:59Z</time>
      </trkpt>
      <trkpt lat="46.03281" lon="5.63961">
        <ele>1018</ele>
        <time>2026-05-10T14:03:00Z</time>
      </trkpt>
      <trkpt lat="46.03281" lon="5.63958">
        <ele>1018</ele>
        <time>2026-05-10T14:03:01Z</time>
      </trkpt>
      <trkpt lat="46.03281" lon="5.63956">
        <ele>1018.4</ele>
        <time>2026-05-10T14:03:02Z</time>
      </trkpt>
      <trkpt lat="46.03281" lon="5.63954">
        <ele>1018.6</ele>
        <time>2026-05-10T14:03:03Z</time>
      </trkpt>
      <trkpt lat="46.03281" lon="5.63951">
        <ele>1019</ele>
        <time>2026-05-10T14:03:04Z</time>
      </trkpt>
      <trkpt lat="46.0328" lon="5.6395">
        <ele>1019</ele>
        <time>2026-05-10T14:03:05Z</time>
      </trkpt>
      <trkpt lat="46.0328" lon="5.63947">
        <ele>1019</ele>
        <time>2026-05-10T14:03:06Z</time>
      </trkpt>
      <trkpt lat="46.0328" lon="5.63942">
        <ele>1019.4</ele>
        <time>2026-05-10T14:03:07Z</time>
      </trkpt>
      <trkpt lat="46.0328" lon="5.6394">
        <ele>1019.4</ele>
        <time>2026-05-10T14:03:08Z</time>
      </trkpt>
      <trkpt lat="46.0328" lon="5.63937">
        <ele>1019.6</ele>
        <time>2026-05-10T14:03:09Z</time>
      </trkpt>
      <trkpt lat="46.0328" lon="5.63935">
        <ele>1019.6</ele>
        <time>2026-05-10T14:03:10Z</time>
      </trkpt>
      <trkpt lat="46.03279" lon="5.63932">
        <ele>1019.8</ele>
        <time>2026-05-10T14:03:11Z</time>
      </trkpt>
      <trkpt lat="46.03279" lon="5.6393">
        <ele>1019.8</ele>
        <time>2026-05-10T14:03:12Z</time>
      </trkpt>
      <trkpt lat="46.03278" lon="5.63928">
        <ele>1019.8</ele>
        <time>2026-05-10T14:03:13Z</time>
      </trkpt>
      <trkpt lat="46.03278" lon="5.63926">
        <ele>1020.2</ele>
        <time>2026-05-10T14:03:14Z</time>
      </trkpt>
      <trkpt lat="46.03277" lon="5.63924">
        <ele>1020.2</ele>
        <time>2026-05-10T14:03:15Z</time>
      </trkpt>
      <trkpt lat="46.03277" lon="5.63923">
        <ele>1020.6</ele>
        <time>2026-05-10T14:03:16Z</time>
      </trkpt>
      <trkpt lat="46.03277" lon="5.63921">
        <ele>1020.6</ele>
        <time>2026-05-10T14:03:17Z</time>
      </trkpt>
      <trkpt lat="46.03276" lon="5.63918">
        <ele>1020.8</ele>
        <time>2026-05-10T14:03:18Z</time>
      </trkpt>
      <trkpt lat="46.03276" lon="5.63916">
        <ele>1020.8</ele>
        <time>2026-05-10T14:03:19Z</time>
      </trkpt>
      <trkpt lat="46.03276" lon="5.63914">
        <ele>1021.2</ele>
        <time>2026-05-10T14:03:20Z</time>
      </trkpt>
      <trkpt lat="46.03276" lon="5.63911">
        <ele>1021.2</ele>
        <time>2026-05-10T14:03:21Z</time>
      </trkpt>
      <trkpt lat="46.03276" lon="5.63909">
        <ele>1021.4</ele>
        <time>2026-05-10T14:03:22Z</time>
      </trkpt>
      <trkpt lat="46.03276" lon="5.63907">
        <ele>1021.4</ele>
        <time>2026-05-10T14:03:23Z</time>
      </trkpt>
      <trkpt lat="46.03276" lon="5.63905">
        <ele>1021.4</ele>
        <time>2026-05-10T14:03:24Z</time>
      </trkpt>
      <trkpt lat="46.03276" lon="5.63903">
        <ele>1021.8</ele>
        <time>2026-05-10T14:03:25Z</time>
      </trkpt>
      <trkpt lat="46.03275" lon="5.63901">
        <ele>1021.8</ele>
        <time>2026-05-10T14:03:26Z</time>
      </trkpt>
      <trkpt lat="46.03275" lon="5.63899">
        <ele>1022.4</ele>
        <time>2026-05-10T14:03:27Z</time>
      </trkpt>
      <trkpt lat="46.03275" lon="5.63896">
        <ele>1022.4</ele>
        <time>2026-05-10T14:03:28Z</time>
      </trkpt>
      <trkpt lat="46.03274" lon="5.63895">
        <ele>1022.6</ele>
        <time>2026-05-10T14:03:29Z</time>
      </trkpt>
      <trkpt lat="46.03274" lon="5.63893">
        <ele>1022.6</ele>
        <time>2026-05-10T14:03:30Z</time>
      </trkpt>
      <trkpt lat="46.03274" lon="5.6389">
        <ele>1023</ele>
        <time>2026-05-10T14:03:31Z</time>
      </trkpt>
      <trkpt lat="46.03273" lon="5.63888">
        <ele>1023</ele>
        <time>2026-05-10T14:03:32Z</time>
      </trkpt>
      <trkpt lat="46.03272" lon="5.63887">
        <ele>1023.2</ele>
        <time>2026-05-10T14:03:33Z</time>
      </trkpt>
      <trkpt lat="46.03272" lon="5.63884">
        <ele>1023.6</ele>
        <time>2026-05-10T14:03:34Z</time>
      </trkpt>
      <trkpt lat="46.03271" lon="5.63882">
        <ele>1023.6</ele>
        <time>2026-05-10T14:03:35Z</time>
      </trkpt>
      <trkpt lat="46.03271" lon="5.63882">
        <ele>1023.8</ele>
        <time>2026-05-10T14:03:36Z</time>
      </trkpt>
      <trkpt lat="46.0327" lon="5.63879">
        <ele>1023.8</ele>
        <time>2026-05-10T14:03:37Z</time>
      </trkpt>
      <trkpt lat="46.0327" lon="5.63877">
        <ele>1023.8</ele>
        <time>2026-05-10T14:03:38Z</time>
      </trkpt>
      <trkpt lat="46.0327" lon="5.63874">
        <ele>1024.2</ele>
        <time>2026-05-10T14:03:39Z</time>
      </trkpt>
      <trkpt lat="46.0327" lon="5.63872">
        <ele>1024.4</ele>
        <time>2026-05-10T14:03:40Z</time>
      </trkpt>
      <trkpt lat="46.0327" lon="5.6387">
        <ele>1024.4</ele>
        <time>2026-05-10T14:03:41Z</time>
      </trkpt>
      <trkpt lat="46.0327" lon="5.63868">
        <ele>1024.4</ele>
        <time>2026-05-10T14:03:42Z</time>
      </trkpt>
      <trkpt lat="46.0327" lon="5.63865">
        <ele>1024.8</ele>
        <time>2026-05-10T14:03:43Z</time>
      </trkpt>
      <trkpt lat="46.0327" lon="5.63863">
        <ele>1024.8</ele>
        <time>2026-05-10T14:03:44Z</time>
      </trkpt>
      <trkpt lat="46.03269" lon="5.63861">
        <ele>1025</ele>
        <time>2026-05-10T14:03:45Z</time>
      </trkpt>
      <trkpt lat="46.03269" lon="5.63858">
        <ele>1025</ele>
        <time>2026-05-10T14:03:46Z</time>
      </trkpt>
      <trkpt lat="46.03269" lon="5.63855">
        <ele>1025.2</ele>
        <time>2026-05-10T14:03:47Z</time>
      </trkpt>
      <trkpt lat="46.03268" lon="5.63852">
        <ele>1025.2</ele>
        <time>2026-05-10T14:03:48Z</time>
      </trkpt>
      <trkpt lat="46.03268" lon="5.6385">
        <ele>1025.2</ele>
        <time>2026-05-10T14:03:49Z</time>
      </trkpt>
      <trkpt lat="46.03267" lon="5.63847">
        <ele>1025.2</ele>
        <time>2026-05-10T14:03:50Z</time>
      </trkpt>
      <trkpt lat="46.03267" lon="5.63845">
        <ele>1025.4</ele>
        <time>2026-05-10T14:03:51Z</time>
      </trkpt>
      <trkpt lat="46.03267" lon="5.63842">
        <ele>1025.4</ele>
        <time>2026-05-10T14:03:52Z</time>
      </trkpt>
      <trkpt lat="46.03266" lon="5.63839">
        <ele>1025.4</ele>
        <time>2026-05-10T14:03:53Z</time>
      </trkpt>
      <trkpt lat="46.03266" lon="5.63837">
        <ele>1025.4</ele>
        <time>2026-05-10T14:03:54Z</time>
      </trkpt>
      <trkpt lat="46.03265" lon="5.63833">
        <ele>1025.4</ele>
        <time>2026-05-10T14:03:55Z</time>
      </trkpt>
      <trkpt lat="46.03265" lon="5.6383">
        <ele>1025.4</ele>
        <time>2026-05-10T14:03:56Z</time>
      </trkpt>
      <trkpt lat="46.03265" lon="5.63827">
        <ele>1025.4</ele>
        <time>2026-05-10T14:03:57Z</time>
      </trkpt>
      <trkpt lat="46.03265" lon="5.63824">
        <ele>1025.4</ele>
        <time>2026-05-10T14:03:58Z</time>
      </trkpt>
      <trkpt lat="46.03265" lon="5.6382">
        <ele>1025.4</ele>
        <time>2026-05-10T14:03:59Z</time>
      </trkpt>
      <trkpt lat="46.03265" lon="5.63816">
        <ele>1025.8</ele>
        <time>2026-05-10T14:04:00Z</time>
      </trkpt>
      <trkpt lat="46.03264" lon="5.63813">
        <ele>1025.8</ele>
        <time>2026-05-10T14:04:01Z</time>
      </trkpt>
      <trkpt lat="46.03264" lon="5.6381">
        <ele>1025.8</ele>
        <time>2026-05-10T14:04:02Z</time>
      </trkpt>
      <trkpt lat="46.03263" lon="5.63807">
        <ele>1025.8</ele>
        <time>2026-05-10T14:04:03Z</time>
      </trkpt>
      <trkpt lat="46.03262" lon="5.63803">
        <ele>1025.8</ele>
        <time>2026-05-10T14:04:04Z</time>
      </trkpt>
      <trkpt lat="46.03262" lon="5.63799">
        <ele>1025.8</ele>
        <time>2026-05-10T14:04:05Z</time>
      </trkpt>
      <trkpt lat="46.03261" lon="5.63795">
        <ele>1025.8</ele>
        <time>2026-05-10T14:04:06Z</time>
      </trkpt>
      <trkpt lat="46.03261" lon="5.63792">
        <ele>1025.8</ele>
        <time>2026-05-10T14:04:07Z</time>
      </trkpt>
      <trkpt lat="46.03261" lon="5.63788">
        <ele>1025.8</ele>
        <time>2026-05-10T14:04:08Z</time>
      </trkpt>
      <trkpt lat="46.03262" lon="5.63784">
        <ele>1026.2</ele>
        <time>2026-05-10T14:04:09Z</time>
      </trkpt>
      <trkpt lat="46.03262" lon="5.63781">
        <ele>1026.2</ele>
        <time>2026-05-10T14:04:10Z</time>
      </trkpt>
      <trkpt lat="46.03262" lon="5.63778">
        <ele>1026.2</ele>
        <time>2026-05-10T14:04:11Z</time>
      </trkpt>
      <trkpt lat="46.03263" lon="5.63774">
        <ele>1026.2</ele>
        <time>2026-05-10T14:04:12Z</time>
      </trkpt>
      <trkpt lat="46.03264" lon="5.6377">
        <ele>1026.2</ele>
        <time>2026-05-10T14:04:13Z</time>
      </trkpt>
      <trkpt lat="46.03264" lon="5.63766">
        <ele>1026.4</ele>
        <time>2026-05-10T14:04:14Z</time>
      </trkpt>
      <trkpt lat="46.03264" lon="5.63761">
        <ele>1026.4</ele>
        <time>2026-05-10T14:04:15Z</time>
      </trkpt>
      <trkpt lat="46.03264" lon="5.63756">
        <ele>1026.4</ele>
        <time>2026-05-10T14:04:16Z</time>
      </trkpt>
      <trkpt lat="46.03265" lon="5.63753">
        <ele>1026.6</ele>
        <time>2026-05-10T14:04:17Z</time>
      </trkpt>
      <trkpt lat="46.03266" lon="5.63749">
        <ele>1026.6</ele>
        <time>2026-05-10T14:04:18Z</time>
      </trkpt>
      <trkpt lat="46.03267" lon="5.63745">
        <ele>1026.8</ele>
        <time>2026-05-10T14:04:19Z</time>
      </trkpt>
      <trkpt lat="46.03268" lon="5.63741">
        <ele>1026.8</ele>
        <time>2026-05-10T14:04:20Z</time>
      </trkpt>
      <trkpt lat="46.03268" lon="5.63738">
        <ele>1026.8</ele>
        <time>2026-05-10T14:04:21Z</time>
      </trkpt>
      <trkpt lat="46.03268" lon="5.63733">
        <ele>1026.8</ele>
        <time>2026-05-10T14:04:22Z</time>
      </trkpt>
      <trkpt lat="46.03268" lon="5.63729">
        <ele>1026.8</ele>
        <time>2026-05-10T14:04:23Z</time>
      </trkpt>
      <trkpt lat="46.03268" lon="5.63726">
        <ele>1026.8</ele>
        <time>2026-05-10T14:04:24Z</time>
      </trkpt>
      <trkpt lat="46.03268" lon="5.63721">
        <ele>1026.8</ele>
        <time>2026-05-10T14:04:25Z</time>
      </trkpt>
      <trkpt lat="46.03268" lon="5.63717">
        <ele>1026.8</ele>
        <time>2026-05-10T14:04:26Z</time>
      </trkpt>
      <trkpt lat="46.03267" lon="5.63713">
        <ele>1026.8</ele>
        <time>2026-05-10T14:04:27Z</time>
      </trkpt>
      <trkpt lat="46.03267" lon="5.63708">
        <ele>1026.8</ele>
        <time>2026-05-10T14:04:28Z</time>
      </trkpt>
      <trkpt lat="46.03267" lon="5.63704">
        <ele>1026.8</ele>
        <time>2026-05-10T14:04:29Z</time>
      </trkpt>
      <trkpt lat="46.03268" lon="5.637">
        <ele>1026.8</ele>
        <time>2026-05-10T14:04:30Z</time>
      </trkpt>
      <trkpt lat="46.03269" lon="5.63696">
        <ele>1026.8</ele>
        <time>2026-05-10T14:04:31Z</time>
      </trkpt>
      <trkpt lat="46.03269" lon="5.63692">
        <ele>1026.8</ele>
        <time>2026-05-10T14:04:32Z</time>
      </trkpt>
      <trkpt lat="46.03269" lon="5.63688">
        <ele>1026.8</ele>
        <time>2026-05-10T14:04:33Z</time>
      </trkpt>
      <trkpt lat="46.03269" lon="5.63684">
        <ele>1026.8</ele>
        <time>2026-05-10T14:04:34Z</time>
      </trkpt>
      <trkpt lat="46.0327" lon="5.63679">
        <ele>1027</ele>
        <time>2026-05-10T14:04:35Z</time>
      </trkpt>
      <trkpt lat="46.0327" lon="5.63674">
        <ele>1027</ele>
        <time>2026-05-10T14:04:36Z</time>
      </trkpt>
      <trkpt lat="46.0327" lon="5.63669">
        <ele>1027</ele>
        <time>2026-05-10T14:04:37Z</time>
      </trkpt>
      <trkpt lat="46.0327" lon="5.63664">
        <ele>1027</ele>
        <time>2026-05-10T14:04:38Z</time>
      </trkpt>
      <trkpt lat="46.0327" lon="5.63659">
        <ele>1027</ele>
        <time>2026-05-10T14:04:39Z</time>
      </trkpt>
      <trkpt lat="46.0327" lon="5.63654">
        <ele>1027</ele>
        <time>2026-05-10T14:04:40Z</time>
      </trkpt>
      <trkpt lat="46.0327" lon="5.63649">
        <ele>1027.4</ele>
        <time>2026-05-10T14:04:41Z</time>
      </trkpt>
      <trkpt lat="46.0327" lon="5.63644">
        <ele>1027.4</ele>
        <time>2026-05-10T14:04:42Z</time>
      </trkpt>
      <trkpt lat="46.0327" lon="5.6364">
        <ele>1027.4</ele>
        <time>2026-05-10T14:04:43Z</time>
      </trkpt>
      <trkpt lat="46.0327" lon="5.63636">
        <ele>1027.8</ele>
        <time>2026-05-10T14:04:44Z</time>
      </trkpt>
      <trkpt lat="46.03269" lon="5.63632">
        <ele>1027.8</ele>
        <time>2026-05-10T14:04:45Z</time>
      </trkpt>
      <trkpt lat="46.03268" lon="5.63627">
        <ele>1028</ele>
        <time>2026-05-10T14:04:46Z</time>
      </trkpt>
      <trkpt lat="46.03267" lon="5.63623">
        <ele>1028</ele>
        <time>2026-05-10T14:04:47Z</time>
      </trkpt>
      <trkpt lat="46.03266" lon="5.63619">
        <ele>1028.2</ele>
        <time>2026-05-10T14:04:48Z</time>
      </trkpt>
      <trkpt lat="46.03265" lon="5.63615">
        <ele>1028.4</ele>
        <time>2026-05-10T14:04:49Z</time>
      </trkpt>
      <trkpt lat="46.03264" lon="5.6361">
        <ele>1028.8</ele>
        <time>2026-05-10T14:04:50Z</time>
      </trkpt>
      <trkpt lat="46.03263" lon="5.63607">
        <ele>1028.8</ele>
        <time>2026-05-10T14:04:51Z</time>
      </trkpt>
      <trkpt lat="46.03262" lon="5.63603">
        <ele>1029.2</ele>
        <time>2026-05-10T14:04:52Z</time>
      </trkpt>
      <trkpt lat="46.03261" lon="5.636">
        <ele>1029.4</ele>
        <time>2026-05-10T14:04:53Z</time>
      </trkpt>
      <trkpt lat="46.0326" lon="5.63596">
        <ele>1029.4</ele>
        <time>2026-05-10T14:04:54Z</time>
      </trkpt>
      <trkpt lat="46.03259" lon="5.63592">
        <ele>1029.8</ele>
        <time>2026-05-10T14:04:55Z</time>
      </trkpt>
      <trkpt lat="46.03258" lon="5.63589">
        <ele>1030</ele>
        <time>2026-05-10T14:04:56Z</time>
      </trkpt>
      <trkpt lat="46.03257" lon="5.63586">
        <ele>1030</ele>
        <time>2026-05-10T14:04:57Z</time>
      </trkpt>
      <trkpt lat="46.03256" lon="5.63583">
        <ele>1030.4</ele>
        <time>2026-05-10T14:04:58Z</time>
      </trkpt>
      <trkpt lat="46.03255" lon="5.63579">
        <ele>1030.4</ele>
        <time>2026-05-10T14:04:59Z</time>
      </trkpt>
      <trkpt lat="46.03254" lon="5.63576">
        <ele>1030.6</ele>
        <time>2026-05-10T14:05:00Z</time>
      </trkpt>
      <trkpt lat="46.03253" lon="5.63572">
        <ele>1030.6</ele>
        <time>2026-05-10T14:05:01Z</time>
      </trkpt>
      <trkpt lat="46.03252" lon="5.6357">
        <ele>1030.8</ele>
        <time>2026-05-10T14:05:02Z</time>
      </trkpt>
      <trkpt lat="46.03251" lon="5.63567">
        <ele>1031</ele>
        <time>2026-05-10T14:05:03Z</time>
      </trkpt>
      <trkpt lat="46.0325" lon="5.63564">
        <ele>1031</ele>
        <time>2026-05-10T14:05:04Z</time>
      </trkpt>
      <trkpt lat="46.03248" lon="5.63562">
        <ele>1031.4</ele>
        <time>2026-05-10T14:05:05Z</time>
      </trkpt>
      <trkpt lat="46.03247" lon="5.6356">
        <ele>1031.4</ele>
        <time>2026-05-10T14:05:06Z</time>
      </trkpt>
      <trkpt lat="46.03245" lon="5.63558">
        <ele>1031.4</ele>
        <time>2026-05-10T14:05:07Z</time>
      </trkpt>
      <trkpt lat="46.03243" lon="5.63556">
        <ele>1032</ele>
        <time>2026-05-10T14:05:08Z</time>
      </trkpt>
      <trkpt lat="46.03242" lon="5.63554">
        <ele>1032.2</ele>
        <time>2026-05-10T14:05:09Z</time>
      </trkpt>
      <trkpt lat="46.03241" lon="5.63551">
        <ele>1032.2</ele>
        <time>2026-05-10T14:05:10Z</time>
      </trkpt>
      <trkpt lat="46.0324" lon="5.63548">
        <ele>1032.2</ele>
        <time>2026-05-10T14:05:11Z</time>
      </trkpt>
      <trkpt lat="46.03239" lon="5.63546">
        <ele>1032.6</ele>
        <time>2026-05-10T14:05:12Z</time>
      </trkpt>
      <trkpt lat="46.03237" lon="5.63543">
        <ele>1032.8</ele>
        <time>2026-05-10T14:05:13Z</time>
      </trkpt>
      <trkpt lat="46.03236" lon="5.6354">
        <ele>1033</ele>
        <time>2026-05-10T14:05:14Z</time>
      </trkpt>
      <trkpt lat="46.03235" lon="5.63537">
        <ele>1033.4</ele>
        <time>2026-05-10T14:05:15Z</time>
      </trkpt>
      <trkpt lat="46.03234" lon="5.63534">
        <ele>1033.4</ele>
        <time>2026-05-10T14:05:16Z</time>
      </trkpt>
      <trkpt lat="46.03234" lon="5.63532">
        <ele>1033.6</ele>
        <time>2026-05-10T14:05:17Z</time>
      </trkpt>
      <trkpt lat="46.03232" lon="5.63529">
        <ele>1033.6</ele>
        <time>2026-05-10T14:05:18Z</time>
      </trkpt>
      <trkpt lat="46.03231" lon="5.63527">
        <ele>1034</ele>
        <time>2026-05-10T14:05:19Z</time>
      </trkpt>
      <trkpt lat="46.03229" lon="5.63525">
        <ele>1034</ele>
        <time>2026-05-10T14:05:20Z</time>
      </trkpt>
      <trkpt lat="46.03228" lon="5.63523">
        <ele>1034.2</ele>
        <time>2026-05-10T14:05:21Z</time>
      </trkpt>
      <trkpt lat="46.03227" lon="5.63521">
        <ele>1034.4</ele>
        <time>2026-05-10T14:05:22Z</time>
      </trkpt>
      <trkpt lat="46.03226" lon="5.63518">
        <ele>1034.4</ele>
        <time>2026-05-10T14:05:23Z</time>
      </trkpt>
      <trkpt lat="46.03225" lon="5.63516">
        <ele>1034.6</ele>
        <time>2026-05-10T14:05:24Z</time>
      </trkpt>
      <trkpt lat="46.03225" lon="5.63514">
        <ele>1035</ele>
        <time>2026-05-10T14:05:25Z</time>
      </trkpt>
      <trkpt lat="46.03224" lon="5.63513">
        <ele>1035</ele>
        <time>2026-05-10T14:05:26Z</time>
      </trkpt>
      <trkpt lat="46.03222" lon="5.63512">
        <ele>1035.2</ele>
        <time>2026-05-10T14:05:27Z</time>
      </trkpt>
      <trkpt lat="46.03221" lon="5.63511">
        <ele>1035.4</ele>
        <time>2026-05-10T14:05:28Z</time>
      </trkpt>
      <trkpt lat="46.03219" lon="5.6351">
        <ele>1035.4</ele>
        <time>2026-05-10T14:05:29Z</time>
      </trkpt>
      <trkpt lat="46.03218" lon="5.63508">
        <ele>1035.8</ele>
        <time>2026-05-10T14:05:30Z</time>
      </trkpt>
      <trkpt lat="46.03217" lon="5.63507">
        <ele>1035.8</ele>
        <time>2026-05-10T14:05:31Z</time>
      </trkpt>
      <trkpt lat="46.03216" lon="5.63505">
        <ele>1036.2</ele>
        <time>2026-05-10T14:05:32Z</time>
      </trkpt>
      <trkpt lat="46.03214" lon="5.63502">
        <ele>1036.2</ele>
        <time>2026-05-10T14:05:33Z</time>
      </trkpt>
      <trkpt lat="46.03213" lon="5.635">
        <ele>1036.6</ele>
        <time>2026-05-10T14:05:34Z</time>
      </trkpt>
      <trkpt lat="46.03212" lon="5.63499">
        <ele>1036.6</ele>
        <time>2026-05-10T14:05:35Z</time>
      </trkpt>
      <trkpt lat="46.03211" lon="5.63496">
        <ele>1037</ele>
        <time>2026-05-10T14:05:36Z</time>
      </trkpt>
      <trkpt lat="46.03209" lon="5.63493">
        <ele>1037.2</ele>
        <time>2026-05-10T14:05:37Z</time>
      </trkpt>
      <trkpt lat="46.03208" lon="5.63492">
        <ele>1037.2</ele>
        <time>2026-05-10T14:05:38Z</time>
      </trkpt>
      <trkpt lat="46.03206" lon="5.63491">
        <ele>1037.2</ele>
        <time>2026-05-10T14:05:39Z</time>
      </trkpt>
      <trkpt lat="46.03204" lon="5.63489">
        <ele>1037</ele>
        <time>2026-05-10T14:05:40Z</time>
      </trkpt>
      <trkpt lat="46.03203" lon="5.63487">
        <ele>1037.4</ele>
        <time>2026-05-10T14:05:41Z</time>
      </trkpt>
      <trkpt lat="46.03201" lon="5.63484">
        <ele>1037.6</ele>
        <time>2026-05-10T14:05:42Z</time>
      </trkpt>
      <trkpt lat="46.03199" lon="5.63482">
        <ele>1037.8</ele>
        <time>2026-05-10T14:05:43Z</time>
      </trkpt>
      <trkpt lat="46.03198" lon="5.6348">
        <ele>1037.8</ele>
        <time>2026-05-10T14:05:44Z</time>
      </trkpt>
      <trkpt lat="46.03196" lon="5.63478">
        <ele>1037.8</ele>
        <time>2026-05-10T14:05:45Z</time>
      </trkpt>
      <trkpt lat="46.03195" lon="5.63475">
        <ele>1038.2</ele>
        <time>2026-05-10T14:05:46Z</time>
      </trkpt>
      <trkpt lat="46.03193" lon="5.63473">
        <ele>1038.2</ele>
        <time>2026-05-10T14:05:47Z</time>
      </trkpt>
      <trkpt lat="46.03191" lon="5.63472">
        <ele>1038.2</ele>
        <time>2026-05-10T14:05:48Z</time>
      </trkpt>
      <trkpt lat="46.03189" lon="5.63471">
        <ele>1038.4</ele>
        <time>2026-05-10T14:05:49Z</time>
      </trkpt>
      <trkpt lat="46.03186" lon="5.6347">
        <ele>1038.6</ele>
        <time>2026-05-10T14:05:50Z</time>
      </trkpt>
      <trkpt lat="46.03184" lon="5.63469">
        <ele>1038.6</ele>
        <time>2026-05-10T14:05:51Z</time>
      </trkpt>
      <trkpt lat="46.03181" lon="5.63469">
        <ele>1038.8</ele>
        <time>2026-05-10T14:05:52Z</time>
      </trkpt>
      <trkpt lat="46.03179" lon="5.63468">
        <ele>1038.8</ele>
        <time>2026-05-10T14:05:53Z</time>
      </trkpt>
      <trkpt lat="46.03177" lon="5.63467">
        <ele>1038.8</ele>
        <time>2026-05-10T14:05:54Z</time>
      </trkpt>
      <trkpt lat="46.03175" lon="5.63466">
        <ele>1039.2</ele>
        <time>2026-05-10T14:05:55Z</time>
      </trkpt>
      <trkpt lat="46.03172" lon="5.63465">
        <ele>1039.2</ele>
        <time>2026-05-10T14:05:56Z</time>
      </trkpt>
      <trkpt lat="46.0317" lon="5.63465">
        <ele>1039.2</ele>
        <time>2026-05-10T14:05:57Z</time>
      </trkpt>
      <trkpt lat="46.03168" lon="5.63465">
        <ele>1039.4</ele>
        <time>2026-05-10T14:05:58Z</time>
      </trkpt>
      <trkpt lat="46.03165" lon="5.63464">
        <ele>1039.4</ele>
        <time>2026-05-10T14:05:59Z</time>
      </trkpt>
      <trkpt lat="46.03163" lon="5.63463">
        <ele>1039.6</ele>
        <time>2026-05-10T14:06:00Z</time>
      </trkpt>
      <trkpt lat="46.03161" lon="5.63463">
        <ele>1039.6</ele>
        <time>2026-05-10T14:06:01Z</time>
      </trkpt>
      <trkpt lat="46.03159" lon="5.63462">
        <ele>1039.6</ele>
        <time>2026-05-10T14:06:02Z</time>
      </trkpt>
      <trkpt lat="46.03154" lon="5.63459">
        <ele>1039.6</ele>
        <time>2026-05-10T14:06:03Z</time>
      </trkpt>
      <trkpt lat="46.03152" lon="5.63459">
        <ele>1040.2</ele>
        <time>2026-05-10T14:06:04Z</time>
      </trkpt>
      <trkpt lat="46.03151" lon="5.63458">
        <ele>1040.4</ele>
        <time>2026-05-10T14:06:05Z</time>
      </trkpt>
      <trkpt lat="46.03149" lon="5.63457">
        <ele>1040.4</ele>
        <time>2026-05-10T14:06:06Z</time>
      </trkpt>
      <trkpt lat="46.03148" lon="5.63456">
        <ele>1040.4</ele>
        <time>2026-05-10T14:06:07Z</time>
      </trkpt>
      <trkpt lat="46.03145" lon="5.63455">
        <ele>1040.6</ele>
        <time>2026-05-10T14:06:08Z</time>
      </trkpt>
      <trkpt lat="46.03142" lon="5.63454">
        <ele>1040.6</ele>
        <time>2026-05-10T14:06:09Z</time>
      </trkpt>
      <trkpt lat="46.0314" lon="5.63454">
        <ele>1040.6</ele>
        <time>2026-05-10T14:06:10Z</time>
      </trkpt>
      <trkpt lat="46.03137" lon="5.63454">
        <ele>1041</ele>
        <time>2026-05-10T14:06:11Z</time>
      </trkpt>
      <trkpt lat="46.03135" lon="5.63454">
        <ele>1041</ele>
        <time>2026-05-10T14:06:12Z</time>
      </trkpt>
      <trkpt lat="46.03133" lon="5.63452">
        <ele>1041</ele>
        <time>2026-05-10T14:06:13Z</time>
      </trkpt>
      <trkpt lat="46.03132" lon="5.63451">
        <ele>1041</ele>
        <time>2026-05-10T14:06:14Z</time>
      </trkpt>
      <trkpt lat="46.0313" lon="5.6345">
        <ele>1041</ele>
        <time>2026-05-10T14:06:15Z</time>
      </trkpt>
      <trkpt lat="46.03128" lon="5.63449">
        <ele>1041</ele>
        <time>2026-05-10T14:06:16Z</time>
      </trkpt>
      <trkpt lat="46.03126" lon="5.63449">
        <ele>1041.2</ele>
        <time>2026-05-10T14:06:17Z</time>
      </trkpt>
      <trkpt lat="46.03126" lon="5.63449">
        <ele>1041.4</ele>
        <time>2026-05-10T14:06:18Z</time>
      </trkpt>
      <trkpt lat="46.03124" lon="5.63449">
        <ele>1041.4</ele>
        <time>2026-05-10T14:06:19Z</time>
      </trkpt>
      <trkpt lat="46.03122" lon="5.63449">
        <ele>1041.4</ele>
        <time>2026-05-10T14:06:20Z</time>
      </trkpt>
      <trkpt lat="46.0312" lon="5.63448">
        <ele>1041.8</ele>
        <time>2026-05-10T14:06:21Z</time>
      </trkpt>
      <trkpt lat="46.0312" lon="5.63448">
        <ele>1041.8</ele>
        <time>2026-05-10T14:06:22Z</time>
      </trkpt>
      <trkpt lat="46.0312" lon="5.63448">
        <ele>1041.8</ele>
        <time>2026-05-10T14:06:23Z</time>
      </trkpt>
      <trkpt lat="46.03111" lon="5.63445">
        <ele>1042.2</ele>
        <time>2026-05-10T14:06:25Z</time>
      </trkpt>
      <trkpt lat="46.03109" lon="5.63444">
        <ele>1042.2</ele>
        <time>2026-05-10T14:06:26Z</time>
      </trkpt>
      <trkpt lat="46.03106" lon="5.63443">
        <ele>1042.4</ele>
        <time>2026-05-10T14:06:27Z</time>
      </trkpt>
      <trkpt lat="46.03104" lon="5.63442">
        <ele>1042.4</ele>
        <time>2026-05-10T14:06:28Z</time>
      </trkpt>
      <trkpt lat="46.03101" lon="5.63442">
        <ele>1042.8</ele>
        <time>2026-05-10T14:06:29Z</time>
      </trkpt>
      <trkpt lat="46.03098" lon="5.63441">
        <ele>1042.8</ele>
        <time>2026-05-10T14:06:30Z</time>
      </trkpt>
      <trkpt lat="46.03096" lon="5.6344">
        <ele>1043</ele>
        <time>2026-05-10T14:06:31Z</time>
      </trkpt>
      <trkpt lat="46.03093" lon="5.63439">
        <ele>1043</ele>
        <time>2026-05-10T14:06:32Z</time>
      </trkpt>
      <trkpt lat="46.0309" lon="5.63437">
        <ele>1043</ele>
        <time>2026-05-10T14:06:33Z</time>
      </trkpt>
      <trkpt lat="46.03087" lon="5.63436">
        <ele>1043</ele>
        <time>2026-05-10T14:06:34Z</time>
      </trkpt>
      <trkpt lat="46.03085" lon="5.63435">
        <ele>1043</ele>
        <time>2026-05-10T14:06:35Z</time>
      </trkpt>
      <trkpt lat="46.03082" lon="5.63434">
        <ele>1043</ele>
        <time>2026-05-10T14:06:36Z</time>
      </trkpt>
      <trkpt lat="46.0308" lon="5.63433">
        <ele>1043</ele>
        <time>2026-05-10T14:06:37Z</time>
      </trkpt>
      <trkpt lat="46.03077" lon="5.63432">
        <ele>1043</ele>
        <time>2026-05-10T14:06:38Z</time>
      </trkpt>
      <trkpt lat="46.03075" lon="5.63431">
        <ele>1043</ele>
        <time>2026-05-10T14:06:39Z</time>
      </trkpt>
      <trkpt lat="46.03073" lon="5.6343">
        <ele>1043.4</ele>
        <time>2026-05-10T14:06:40Z</time>
      </trkpt>
      <trkpt lat="46.0307" lon="5.63429">
        <ele>1043.4</ele>
        <time>2026-05-10T14:06:41Z</time>
      </trkpt>
      <trkpt lat="46.03068" lon="5.63428">
        <ele>1043.4</ele>
        <time>2026-05-10T14:06:42Z</time>
      </trkpt>
      <trkpt lat="46.03065" lon="5.63427">
        <ele>1043.6</ele>
        <time>2026-05-10T14:06:43Z</time>
      </trkpt>
      <trkpt lat="46.03062" lon="5.63426">
        <ele>1043.6</ele>
        <time>2026-05-10T14:06:44Z</time>
      </trkpt>
      <trkpt lat="46.03059" lon="5.63425">
        <ele>1043.6</ele>
        <time>2026-05-10T14:06:45Z</time>
      </trkpt>
      <trkpt lat="46.03057" lon="5.63424">
        <ele>1043.6</ele>
        <time>2026-05-10T14:06:46Z</time>
      </trkpt>
      <trkpt lat="46.03055" lon="5.63422">
        <ele>1043.8</ele>
        <time>2026-05-10T14:06:47Z</time>
      </trkpt>
      <trkpt lat="46.03052" lon="5.6342">
        <ele>1043.8</ele>
        <time>2026-05-10T14:06:48Z</time>
      </trkpt>
      <trkpt lat="46.0305" lon="5.63418">
        <ele>1043.8</ele>
        <time>2026-05-10T14:06:49Z</time>
      </trkpt>
      <trkpt lat="46.03047" lon="5.63417">
        <ele>1043.8</ele>
        <time>2026-05-10T14:06:50Z</time>
      </trkpt>
      <trkpt lat="46.03044" lon="5.63416">
        <ele>1044</ele>
        <time>2026-05-10T14:06:51Z</time>
      </trkpt>
      <trkpt lat="46.03042" lon="5.63415">
        <ele>1044</ele>
        <time>2026-05-10T14:06:52Z</time>
      </trkpt>
      <trkpt lat="46.03039" lon="5.63414">
        <ele>1044</ele>
        <time>2026-05-10T14:06:53Z</time>
      </trkpt>
      <trkpt lat="46.03036" lon="5.63413">
        <ele>1044.4</ele>
        <time>2026-05-10T14:06:54Z</time>
      </trkpt>
      <trkpt lat="46.03033" lon="5.63412">
        <ele>1044.4</ele>
        <time>2026-05-10T14:06:55Z</time>
      </trkpt>
      <trkpt lat="46.03031" lon="5.63411">
        <ele>1044.4</ele>
        <time>2026-05-10T14:06:56Z</time>
      </trkpt>
      <trkpt lat="46.03028" lon="5.6341">
        <ele>1044.6</ele>
        <time>2026-05-10T14:06:57Z</time>
      </trkpt>
      <trkpt lat="46.03025" lon="5.63409">
        <ele>1044.6</ele>
        <time>2026-05-10T14:06:58Z</time>
      </trkpt>
      <trkpt lat="46.03023" lon="5.63407">
        <ele>1044.6</ele>
        <time>2026-05-10T14:06:59Z</time>
      </trkpt>
      <trkpt lat="46.0302" lon="5.63406">
        <ele>1044.8</ele>
        <time>2026-05-10T14:07:00Z</time>
      </trkpt>
      <trkpt lat="46.03018" lon="5.63404">
        <ele>1044.8</ele>
        <time>2026-05-10T14:07:01Z</time>
      </trkpt>
      <trkpt lat="46.03015" lon="5.63403">
        <ele>1044.8</ele>
        <time>2026-05-10T14:07:02Z</time>
      </trkpt>
      <trkpt lat="46.03013" lon="5.63401">
        <ele>1045.2</ele>
        <time>2026-05-10T14:07:03Z</time>
      </trkpt>
      <trkpt lat="46.0301" lon="5.63398">
        <ele>1045.2</ele>
        <time>2026-05-10T14:07:04Z</time>
      </trkpt>
      <trkpt lat="46.03008" lon="5.63395">
        <ele>1045.4</ele>
        <time>2026-05-10T14:07:05Z</time>
      </trkpt>
      <trkpt lat="46.03006" lon="5.63392">
        <ele>1045.4</ele>
        <time>2026-05-10T14:07:06Z</time>
      </trkpt>
      <trkpt lat="46.03004" lon="5.63389">
        <ele>1045.4</ele>
        <time>2026-05-10T14:07:07Z</time>
      </trkpt>
      <trkpt lat="46.03002" lon="5.63387">
        <ele>1045.4</ele>
        <time>2026-05-10T14:07:08Z</time>
      </trkpt>
      <trkpt lat="46.03" lon="5.63385">
        <ele>1045.6</ele>
        <time>2026-05-10T14:07:09Z</time>
      </trkpt>
      <trkpt lat="46.02998" lon="5.63382">
        <ele>1045.6</ele>
        <time>2026-05-10T14:07:10Z</time>
      </trkpt>
      <trkpt lat="46.02996" lon="5.6338">
        <ele>1045.8</ele>
        <time>2026-05-10T14:07:11Z</time>
      </trkpt>
      <trkpt lat="46.02995" lon="5.63378">
        <ele>1045.8</ele>
        <time>2026-05-10T14:07:12Z</time>
      </trkpt>
      <trkpt lat="46.02993" lon="5.63376">
        <ele>1046.2</ele>
        <time>2026-05-10T14:07:13Z</time>
      </trkpt>
      <trkpt lat="46.02991" lon="5.63373">
        <ele>1046.2</ele>
        <time>2026-05-10T14:07:14Z</time>
      </trkpt>
      <trkpt lat="46.0299" lon="5.6337">
        <ele>1046.4</ele>
        <time>2026-05-10T14:07:15Z</time>
      </trkpt>
      <trkpt lat="46.02988" lon="5.63368">
        <ele>1046.8</ele>
        <time>2026-05-10T14:07:16Z</time>
      </trkpt>
      <trkpt lat="46.02987" lon="5.63366">
        <ele>1047.2</ele>
        <time>2026-05-10T14:07:17Z</time>
      </trkpt>
      <trkpt lat="46.02986" lon="5.63363">
        <ele>1047.2</ele>
        <time>2026-05-10T14:07:18Z</time>
      </trkpt>
      <trkpt lat="46.02985" lon="5.63361">
        <ele>1047.4</ele>
        <time>2026-05-10T14:07:19Z</time>
      </trkpt>
      <trkpt lat="46.02984" lon="5.63358">
        <ele>1047.6</ele>
        <time>2026-05-10T14:07:20Z</time>
      </trkpt>
      <trkpt lat="46.02982" lon="5.63356">
        <ele>1047.6</ele>
        <time>2026-05-10T14:07:21Z</time>
      </trkpt>
      <trkpt lat="46.02981" lon="5.63353">
        <ele>1047.8</ele>
        <time>2026-05-10T14:07:22Z</time>
      </trkpt>
      <trkpt lat="46.0298" lon="5.63351">
        <ele>1048.2</ele>
        <time>2026-05-10T14:07:23Z</time>
      </trkpt>
      <trkpt lat="46.02979" lon="5.63349">
        <ele>1048.2</ele>
        <time>2026-05-10T14:07:24Z</time>
      </trkpt>
      <trkpt lat="46.02978" lon="5.63346">
        <ele>1048.6</ele>
        <time>2026-05-10T14:07:25Z</time>
      </trkpt>
      <trkpt lat="46.02976" lon="5.63344">
        <ele>1048.8</ele>
        <time>2026-05-10T14:07:26Z</time>
      </trkpt>
      <trkpt lat="46.02974" lon="5.63343">
        <ele>1048.8</ele>
        <time>2026-05-10T14:07:27Z</time>
      </trkpt>
      <trkpt lat="46.02973" lon="5.63341">
        <ele>1049</ele>
        <time>2026-05-10T14:07:28Z</time>
      </trkpt>
      <trkpt lat="46.02972" lon="5.63338">
        <ele>1049.2</ele>
        <time>2026-05-10T14:07:29Z</time>
      </trkpt>
      <trkpt lat="46.02971" lon="5.63335">
        <ele>1049.2</ele>
        <time>2026-05-10T14:07:30Z</time>
      </trkpt>
      <trkpt lat="46.0297" lon="5.63332">
        <ele>1049.6</ele>
        <time>2026-05-10T14:07:31Z</time>
      </trkpt>
      <trkpt lat="46.0297" lon="5.63329">
        <ele>1049.8</ele>
        <time>2026-05-10T14:07:32Z</time>
      </trkpt>
      <trkpt lat="46.02969" lon="5.63326">
        <ele>1049.8</ele>
        <time>2026-05-10T14:07:33Z</time>
      </trkpt>
      <trkpt lat="46.02969" lon="5.63323">
        <ele>1050</ele>
        <time>2026-05-10T14:07:34Z</time>
      </trkpt>
      <trkpt lat="46.02969" lon="5.63321">
        <ele>1050</ele>
        <time>2026-05-10T14:07:35Z</time>
      </trkpt>
      <trkpt lat="46.02968" lon="5.63318">
        <ele>1050.6</ele>
        <time>2026-05-10T14:07:36Z</time>
      </trkpt>
      <trkpt lat="46.02968" lon="5.63314">
        <ele>1050.6</ele>
        <time>2026-05-10T14:07:37Z</time>
      </trkpt>
      <trkpt lat="46.02968" lon="5.63311">
        <ele>1051</ele>
        <time>2026-05-10T14:07:38Z</time>
      </trkpt>
      <trkpt lat="46.02967" lon="5.63308">
        <ele>1051.2</ele>
        <time>2026-05-10T14:07:39Z</time>
      </trkpt>
      <trkpt lat="46.02967" lon="5.63305">
        <ele>1051.4</ele>
        <time>2026-05-10T14:07:40Z</time>
      </trkpt>
      <trkpt lat="46.02966" lon="5.63302">
        <ele>1051.8</ele>
        <time>2026-05-10T14:07:41Z</time>
      </trkpt>
      <trkpt lat="46.02966" lon="5.633">
        <ele>1051.8</ele>
        <time>2026-05-10T14:07:42Z</time>
      </trkpt>
      <trkpt lat="46.02966" lon="5.63298">
        <ele>1051.8</ele>
        <time>2026-05-10T14:07:43Z</time>
      </trkpt>
      <trkpt lat="46.02966" lon="5.63296">
        <ele>1052.2</ele>
        <time>2026-05-10T14:07:44Z</time>
      </trkpt>
      <trkpt lat="46.02965" lon="5.63292">
        <ele>1052.2</ele>
        <time>2026-05-10T14:07:45Z</time>
      </trkpt>
      <trkpt lat="46.02965" lon="5.63289">
        <ele>1052.4</ele>
        <time>2026-05-10T14:07:46Z</time>
      </trkpt>
      <trkpt lat="46.02965" lon="5.63287">
        <ele>1052.4</ele>
        <time>2026-05-10T14:07:47Z</time>
      </trkpt>
      <trkpt lat="46.02965" lon="5.63284">
        <ele>1052.6</ele>
        <time>2026-05-10T14:07:48Z</time>
      </trkpt>
      <trkpt lat="46.02964" lon="5.63282">
        <ele>1052.6</ele>
        <time>2026-05-10T14:07:49Z</time>
      </trkpt>
      <trkpt lat="46.02963" lon="5.63279">
        <ele>1053</ele>
        <time>2026-05-10T14:07:50Z</time>
      </trkpt>
      <trkpt lat="46.02962" lon="5.63277">
        <ele>1053</ele>
        <time>2026-05-10T14:07:51Z</time>
      </trkpt>
      <trkpt lat="46.02962" lon="5.63274">
        <ele>1053.2</ele>
        <time>2026-05-10T14:07:52Z</time>
      </trkpt>
      <trkpt lat="46.02961" lon="5.63272">
        <ele>1053.2</ele>
        <time>2026-05-10T14:07:53Z</time>
      </trkpt>
      <trkpt lat="46.02961" lon="5.63269">
        <ele>1053.2</ele>
        <time>2026-05-10T14:07:54Z</time>
      </trkpt>
      <trkpt lat="46.02961" lon="5.63266">
        <ele>1053.6</ele>
        <time>2026-05-10T14:07:55Z</time>
      </trkpt>
      <trkpt lat="46.02961" lon="5.63263">
        <ele>1053.6</ele>
        <time>2026-05-10T14:07:56Z</time>
      </trkpt>
      <trkpt lat="46.02961" lon="5.6326">
        <ele>1053.8</ele>
        <time>2026-05-10T14:07:57Z</time>
      </trkpt>
      <trkpt lat="46.02961" lon="5.63257">
        <ele>1053.8</ele>
        <time>2026-05-10T14:07:58Z</time>
      </trkpt>
      <trkpt lat="46.0296" lon="5.63254">
        <ele>1054</ele>
        <time>2026-05-10T14:07:59Z</time>
      </trkpt>
      <trkpt lat="46.0296" lon="5.63251">
        <ele>1054</ele>
        <time>2026-05-10T14:08:00Z</time>
      </trkpt>
      <trkpt lat="46.0296" lon="5.63248">
        <ele>1054.4</ele>
        <time>2026-05-10T14:08:01Z</time>
      </trkpt>
      <trkpt lat="46.02959" lon="5.63246">
        <ele>1054.4</ele>
        <time>2026-05-10T14:08:02Z</time>
      </trkpt>
      <trkpt lat="46.02959" lon="5.63243">
        <ele>1054.4</ele>
        <time>2026-05-10T14:08:03Z</time>
      </trkpt>
      <trkpt lat="46.02958" lon="5.6324">
        <ele>1054.6</ele>
        <time>2026-05-10T14:08:04Z</time>
      </trkpt>
      <trkpt lat="46.02958" lon="5.63237">
        <ele>1055</ele>
        <time>2026-05-10T14:08:05Z</time>
      </trkpt>
      <trkpt lat="46.02958" lon="5.63234">
        <ele>1055</ele>
        <time>2026-05-10T14:08:06Z</time>
      </trkpt>
      <trkpt lat="46.02958" lon="5.63231">
        <ele>1055</ele>
        <time>2026-05-10T14:08:07Z</time>
      </trkpt>
      <trkpt lat="46.02957" lon="5.63228">
        <ele>1055</ele>
        <time>2026-05-10T14:08:08Z</time>
      </trkpt>
      <trkpt lat="46.02957" lon="5.63225">
        <ele>1055.2</ele>
        <time>2026-05-10T14:08:09Z</time>
      </trkpt>
      <trkpt lat="46.02956" lon="5.63223">
        <ele>1055.2</ele>
        <time>2026-05-10T14:08:10Z</time>
      </trkpt>
      <trkpt lat="46.02956" lon="5.6322">
        <ele>1055.4</ele>
        <time>2026-05-10T14:08:11Z</time>
      </trkpt>
      <trkpt lat="46.02955" lon="5.63217">
        <ele>1055.6</ele>
        <time>2026-05-10T14:08:12Z</time>
      </trkpt>
      <trkpt lat="46.02955" lon="5.63215">
        <ele>1055.6</ele>
        <time>2026-05-10T14:08:13Z</time>
      </trkpt>
      <trkpt lat="46.02955" lon="5.63212">
        <ele>1056.2</ele>
        <time>2026-05-10T14:08:14Z</time>
      </trkpt>
      <trkpt lat="46.02955" lon="5.63209">
        <ele>1056.2</ele>
        <time>2026-05-10T14:08:15Z</time>
      </trkpt>
      <trkpt lat="46.02955" lon="5.63206">
        <ele>1056.4</ele>
        <time>2026-05-10T14:08:16Z</time>
      </trkpt>
      <trkpt lat="46.02955" lon="5.63203">
        <ele>1056.4</ele>
        <time>2026-05-10T14:08:17Z</time>
      </trkpt>
      <trkpt lat="46.02955" lon="5.632">
        <ele>1056.8</ele>
        <time>2026-05-10T14:08:18Z</time>
      </trkpt>
      <trkpt lat="46.02954" lon="5.63198">
        <ele>1057</ele>
        <time>2026-05-10T14:08:19Z</time>
      </trkpt>
      <trkpt lat="46.02954" lon="5.63195">
        <ele>1057</ele>
        <time>2026-05-10T14:08:20Z</time>
      </trkpt>
      <trkpt lat="46.02954" lon="5.63192">
        <ele>1057.4</ele>
        <time>2026-05-10T14:08:21Z</time>
      </trkpt>
      <trkpt lat="46.02954" lon="5.63189">
        <ele>1057.4</ele>
        <time>2026-05-10T14:08:22Z</time>
      </trkpt>
      <trkpt lat="46.02954" lon="5.63186">
        <ele>1057.6</ele>
        <time>2026-05-10T14:08:23Z</time>
      </trkpt>
      <trkpt lat="46.02954" lon="5.63184">
        <ele>1057.6</ele>
        <time>2026-05-10T14:08:24Z</time>
      </trkpt>
      <trkpt lat="46.02954" lon="5.63181">
        <ele>1057.8</ele>
        <time>2026-05-10T14:08:25Z</time>
      </trkpt>
      <trkpt lat="46.02954" lon="5.63179">
        <ele>1057.8</ele>
        <time>2026-05-10T14:08:26Z</time>
      </trkpt>
      <trkpt lat="46.02954" lon="5.63176">
        <ele>1058.2</ele>
        <time>2026-05-10T14:08:27Z</time>
      </trkpt>
      <trkpt lat="46.02954" lon="5.63174">
        <ele>1058.6</ele>
        <time>2026-05-10T14:08:28Z</time>
      </trkpt>
      <trkpt lat="46.02954" lon="5.63172">
        <ele>1058.6</ele>
        <time>2026-05-10T14:08:29Z</time>
      </trkpt>
      <trkpt lat="46.02954" lon="5.63169">
        <ele>1059</ele>
        <time>2026-05-10T14:08:30Z</time>
      </trkpt>
      <trkpt lat="46.02954" lon="5.63166">
        <ele>1059</ele>
        <time>2026-05-10T14:08:31Z</time>
      </trkpt>
      <trkpt lat="46.02954" lon="5.63164">
        <ele>1059</ele>
        <time>2026-05-10T14:08:32Z</time>
      </trkpt>
      <trkpt lat="46.02954" lon="5.63163">
        <ele>1059.4</ele>
        <time>2026-05-10T14:08:33Z</time>
      </trkpt>
      <trkpt lat="46.02954" lon="5.6316">
        <ele>1059.4</ele>
        <time>2026-05-10T14:08:34Z</time>
      </trkpt>
      <trkpt lat="46.02955" lon="5.63158">
        <ele>1059.6</ele>
        <time>2026-05-10T14:08:35Z</time>
      </trkpt>
      <trkpt lat="46.02955" lon="5.63156">
        <ele>1060</ele>
        <time>2026-05-10T14:08:36Z</time>
      </trkpt>
      <trkpt lat="46.02955" lon="5.63153">
        <ele>1060</ele>
        <time>2026-05-10T14:08:37Z</time>
      </trkpt>
      <trkpt lat="46.02955" lon="5.63151">
        <ele>1060.2</ele>
        <time>2026-05-10T14:08:38Z</time>
      </trkpt>
      <trkpt lat="46.02955" lon="5.63148">
        <ele>1060.6</ele>
        <time>2026-05-10T14:08:39Z</time>
      </trkpt>
      <trkpt lat="46.02956" lon="5.63146">
        <ele>1060.2</ele>
        <time>2026-05-10T14:08:40Z</time>
      </trkpt>
      <trkpt lat="46.02956" lon="5.63146">
        <ele>1060.4</ele>
        <time>2026-05-10T14:08:41Z</time>
      </trkpt>
      <trkpt lat="46.02956" lon="5.63146">
        <ele>1060.4</ele>
        <time>2026-05-10T14:08:42Z</time>
      </trkpt>
      <trkpt lat="46.02956" lon="5.63138">
        <ele>1060.6</ele>
        <time>2026-05-10T14:08:43Z</time>
      </trkpt>
      <trkpt lat="46.02956" lon="5.63135">
        <ele>1060.6</ele>
        <time>2026-05-10T14:08:44Z</time>
      </trkpt>
      <trkpt lat="46.02956" lon="5.63133">
        <ele>1060.8</ele>
        <time>2026-05-10T14:08:45Z</time>
      </trkpt>
      <trkpt lat="46.02957" lon="5.6313">
        <ele>1060.8</ele>
        <time>2026-05-10T14:08:46Z</time>
      </trkpt>
      <trkpt lat="46.02957" lon="5.63127">
        <ele>1060.8</ele>
        <time>2026-05-10T14:08:47Z</time>
      </trkpt>
      <trkpt lat="46.02957" lon="5.63124">
        <ele>1060.8</ele>
        <time>2026-05-10T14:08:48Z</time>
      </trkpt>
      <trkpt lat="46.02957" lon="5.63123">
        <ele>1061.2</ele>
        <time>2026-05-10T14:08:49Z</time>
      </trkpt>
      <trkpt lat="46.02958" lon="5.6312">
        <ele>1061.4</ele>
        <time>2026-05-10T14:08:50Z</time>
      </trkpt>
      <trkpt lat="46.02958" lon="5.63118">
        <ele>1061.4</ele>
        <time>2026-05-10T14:08:51Z</time>
      </trkpt>
      <trkpt lat="46.02958" lon="5.63115">
        <ele>1061.4</ele>
        <time>2026-05-10T14:08:52Z</time>
      </trkpt>
      <trkpt lat="46.02958" lon="5.63112">
        <ele>1061.8</ele>
        <time>2026-05-10T14:08:53Z</time>
      </trkpt>
      <trkpt lat="46.02958" lon="5.63109">
        <ele>1061.8</ele>
        <time>2026-05-10T14:08:54Z</time>
      </trkpt>
      <trkpt lat="46.02957" lon="5.63107">
        <ele>1061.8</ele>
        <time>2026-05-10T14:08:55Z</time>
      </trkpt>
      <trkpt lat="46.02958" lon="5.63104">
        <ele>1062.2</ele>
        <time>2026-05-10T14:08:56Z</time>
      </trkpt>
      <trkpt lat="46.02958" lon="5.63101">
        <ele>1062.2</ele>
        <time>2026-05-10T14:08:57Z</time>
      </trkpt>
      <trkpt lat="46.02957" lon="5.63098">
        <ele>1062.4</ele>
        <time>2026-05-10T14:08:58Z</time>
      </trkpt>
      <trkpt lat="46.02956" lon="5.63094">
        <ele>1062.8</ele>
        <time>2026-05-10T14:08:59Z</time>
      </trkpt>
      <trkpt lat="46.02955" lon="5.63091">
        <ele>1062.8</ele>
        <time>2026-05-10T14:09:00Z</time>
      </trkpt>
      <trkpt lat="46.02955" lon="5.63089">
        <ele>1062.8</ele>
        <time>2026-05-10T14:09:01Z</time>
      </trkpt>
      <trkpt lat="46.02954" lon="5.63086">
        <ele>1063</ele>
        <time>2026-05-10T14:09:02Z</time>
      </trkpt>
      <trkpt lat="46.02954" lon="5.63084">
        <ele>1063</ele>
        <time>2026-05-10T14:09:03Z</time>
      </trkpt>
      <trkpt lat="46.02954" lon="5.63081">
        <ele>1063.2</ele>
        <time>2026-05-10T14:09:04Z</time>
      </trkpt>
      <trkpt lat="46.02954" lon="5.63078">
        <ele>1063.2</ele>
        <time>2026-05-10T14:09:05Z</time>
      </trkpt>
      <trkpt lat="46.02954" lon="5.63075">
        <ele>1063.6</ele>
        <time>2026-05-10T14:09:06Z</time>
      </trkpt>
      <trkpt lat="46.02953" lon="5.63072">
        <ele>1063.6</ele>
        <time>2026-05-10T14:09:07Z</time>
      </trkpt>
      <trkpt lat="46.02953" lon="5.63069">
        <ele>1064</ele>
        <time>2026-05-10T14:09:08Z</time>
      </trkpt>
      <trkpt lat="46.02952" lon="5.63067">
        <ele>1064</ele>
        <time>2026-05-10T14:09:09Z</time>
      </trkpt>
      <trkpt lat="46.02951" lon="5.63064">
        <ele>1064.2</ele>
        <time>2026-05-10T14:09:10Z</time>
      </trkpt>
      <trkpt lat="46.02951" lon="5.63061">
        <ele>1064.2</ele>
        <time>2026-05-10T14:09:11Z</time>
      </trkpt>
      <trkpt lat="46.0295" lon="5.63057">
        <ele>1064.2</ele>
        <time>2026-05-10T14:09:12Z</time>
      </trkpt>
      <trkpt lat="46.0295" lon="5.63054">
        <ele>1064.2</ele>
        <time>2026-05-10T14:09:13Z</time>
      </trkpt>
      <trkpt lat="46.0295" lon="5.63051">
        <ele>1064.2</ele>
        <time>2026-05-10T14:09:14Z</time>
      </trkpt>
      <trkpt lat="46.02949" lon="5.63048">
        <ele>1064.2</ele>
        <time>2026-05-10T14:09:15Z</time>
      </trkpt>
      <trkpt lat="46.02949" lon="5.63045">
        <ele>1064.2</ele>
        <time>2026-05-10T14:09:16Z</time>
      </trkpt>
      <trkpt lat="46.02949" lon="5.63042">
        <ele>1064.2</ele>
        <time>2026-05-10T14:09:17Z</time>
      </trkpt>
      <trkpt lat="46.02949" lon="5.63038">
        <ele>1064.2</ele>
        <time>2026-05-10T14:09:18Z</time>
      </trkpt>
      <trkpt lat="46.02948" lon="5.63034">
        <ele>1064.2</ele>
        <time>2026-05-10T14:09:19Z</time>
      </trkpt>
      <trkpt lat="46.02948" lon="5.63029">
        <ele>1064</ele>
        <time>2026-05-10T14:09:20Z</time>
      </trkpt>
      <trkpt lat="46.02948" lon="5.63025">
        <ele>1064</ele>
        <time>2026-05-10T14:09:21Z</time>
      </trkpt>
      <trkpt lat="46.02948" lon="5.63021">
        <ele>1064</ele>
        <time>2026-05-10T14:09:22Z</time>
      </trkpt>
      <trkpt lat="46.02948" lon="5.63017">
        <ele>1063.6</ele>
        <time>2026-05-10T14:09:23Z</time>
      </trkpt>
      <trkpt lat="46.02948" lon="5.63013">
        <ele>1063.6</ele>
        <time>2026-05-10T14:09:24Z</time>
      </trkpt>
      <trkpt lat="46.02949" lon="5.63009">
        <ele>1063.6</ele>
        <time>2026-05-10T14:09:25Z</time>
      </trkpt>
      <trkpt lat="46.02949" lon="5.63005">
        <ele>1063.6</ele>
        <time>2026-05-10T14:09:26Z</time>
      </trkpt>
      <trkpt lat="46.02949" lon="5.63">
        <ele>1063.6</ele>
        <time>2026-05-10T14:09:27Z</time>
      </trkpt>
      <trkpt lat="46.02948" lon="5.62995">
        <ele>1063.4</ele>
        <time>2026-05-10T14:09:28Z</time>
      </trkpt>
      <trkpt lat="46.02948" lon="5.62991">
        <ele>1063.4</ele>
        <time>2026-05-10T14:09:29Z</time>
      </trkpt>
      <trkpt lat="46.02948" lon="5.62986">
        <ele>1063.4</ele>
        <time>2026-05-10T14:09:30Z</time>
      </trkpt>
      <trkpt lat="46.02948" lon="5.62981">
        <ele>1063.4</ele>
        <time>2026-05-10T14:09:31Z</time>
      </trkpt>
      <trkpt lat="46.02948" lon="5.62976">
        <ele>1063.6</ele>
        <time>2026-05-10T14:09:32Z</time>
      </trkpt>
      <trkpt lat="46.02948" lon="5.62971">
        <ele>1063.2</ele>
        <time>2026-05-10T14:09:33Z</time>
      </trkpt>
      <trkpt lat="46.02948" lon="5.62967">
        <ele>1063.2</ele>
        <time>2026-05-10T14:09:34Z</time>
      </trkpt>
      <trkpt lat="46.02949" lon="5.62962">
        <ele>1063.2</ele>
        <time>2026-05-10T14:09:35Z</time>
      </trkpt>
      <trkpt lat="46.02949" lon="5.62957">
        <ele>1062.8</ele>
        <time>2026-05-10T14:09:36Z</time>
      </trkpt>
      <trkpt lat="46.02949" lon="5.62953">
        <ele>1063</ele>
        <time>2026-05-10T14:09:37Z</time>
      </trkpt>
      <trkpt lat="46.0295" lon="5.62948">
        <ele>1063</ele>
        <time>2026-05-10T14:09:38Z</time>
      </trkpt>
      <trkpt lat="46.0295" lon="5.62944">
        <ele>1062.8</ele>
        <time>2026-05-10T14:09:39Z</time>
      </trkpt>
      <trkpt lat="46.02951" lon="5.62939">
        <ele>1062.8</ele>
        <time>2026-05-10T14:09:40Z</time>
      </trkpt>
      <trkpt lat="46.02951" lon="5.62935">
        <ele>1062.4</ele>
        <time>2026-05-10T14:09:41Z</time>
      </trkpt>
      <trkpt lat="46.02951" lon="5.6293">
        <ele>1062.4</ele>
        <time>2026-05-10T14:09:42Z</time>
      </trkpt>
      <trkpt lat="46.02951" lon="5.62926">
        <ele>1062.2</ele>
        <time>2026-05-10T14:09:43Z</time>
      </trkpt>
      <trkpt lat="46.02951" lon="5.62921">
        <ele>1062.2</ele>
        <time>2026-05-10T14:09:44Z</time>
      </trkpt>
      <trkpt lat="46.02951" lon="5.62916">
        <ele>1062.2</ele>
        <time>2026-05-10T14:09:45Z</time>
      </trkpt>
      <trkpt lat="46.02952" lon="5.62911">
        <ele>1062.2</ele>
        <time>2026-05-10T14:09:46Z</time>
      </trkpt>
      <trkpt lat="46.02953" lon="5.62906">
        <ele>1061.8</ele>
        <time>2026-05-10T14:09:47Z</time>
      </trkpt>
      <trkpt lat="46.02954" lon="5.629">
        <ele>1061.8</ele>
        <time>2026-05-10T14:09:48Z</time>
      </trkpt>
      <trkpt lat="46.02954" lon="5.62895">
        <ele>1061.8</ele>
        <time>2026-05-10T14:09:49Z</time>
      </trkpt>
      <trkpt lat="46.02955" lon="5.62889">
        <ele>1061.8</ele>
        <time>2026-05-10T14:09:50Z</time>
      </trkpt>
      <trkpt lat="46.02956" lon="5.62883">
        <ele>1061.6</ele>
        <time>2026-05-10T14:09:51Z</time>
      </trkpt>
      <trkpt lat="46.02957" lon="5.62878">
        <ele>1061.6</ele>
        <time>2026-05-10T14:09:52Z</time>
      </trkpt>
      <trkpt lat="46.02958" lon="5.62872">
        <ele>1061.4</ele>
        <time>2026-05-10T14:09:53Z</time>
      </trkpt>
      <trkpt lat="46.02959" lon="5.62867">
        <ele>1061.4</ele>
        <time>2026-05-10T14:09:54Z</time>
      </trkpt>
      <trkpt lat="46.0296" lon="5.62861">
        <ele>1061.4</ele>
        <time>2026-05-10T14:09:55Z</time>
      </trkpt>
      <trkpt lat="46.0296" lon="5.62855">
        <ele>1061.6</ele>
        <time>2026-05-10T14:09:56Z</time>
      </trkpt>
      <trkpt lat="46.02961" lon="5.62849">
        <ele>1061.8</ele>
        <time>2026-05-10T14:09:57Z</time>
      </trkpt>
      <trkpt lat="46.02962" lon="5.62843">
        <ele>1061.8</ele>
        <time>2026-05-10T14:09:58Z</time>
      </trkpt>
      <trkpt lat="46.02963" lon="5.62837">
        <ele>1061.4</ele>
        <time>2026-05-10T14:09:59Z</time>
      </trkpt>
      <trkpt lat="46.02964" lon="5.62831">
        <ele>1061.4</ele>
        <time>2026-05-10T14:10:00Z</time>
      </trkpt>
      <trkpt lat="46.02965" lon="5.62824">
        <ele>1061</ele>
        <time>2026-05-10T14:10:01Z</time>
      </trkpt>
      <trkpt lat="46.02966" lon="5.62818">
        <ele>1061</ele>
        <time>2026-05-10T14:10:02Z</time>
      </trkpt>
      <trkpt lat="46.02966" lon="5.62812">
        <ele>1061</ele>
        <time>2026-05-10T14:10:03Z</time>
      </trkpt>
      <trkpt lat="46.02967" lon="5.62806">
        <ele>1060.8</ele>
        <time>2026-05-10T14:10:04Z</time>
      </trkpt>
      <trkpt lat="46.02967" lon="5.628">
        <ele>1060.8</ele>
        <time>2026-05-10T14:10:05Z</time>
      </trkpt>
      <trkpt lat="46.02968" lon="5.62795">
        <ele>1060.4</ele>
        <time>2026-05-10T14:10:06Z</time>
      </trkpt>
      <trkpt lat="46.02969" lon="5.62788">
        <ele>1060.4</ele>
        <time>2026-05-10T14:10:07Z</time>
      </trkpt>
      <trkpt lat="46.0297" lon="5.62783">
        <ele>1060.4</ele>
        <time>2026-05-10T14:10:08Z</time>
      </trkpt>
      <trkpt lat="46.02972" lon="5.62777">
        <ele>1060.2</ele>
        <time>2026-05-10T14:10:09Z</time>
      </trkpt>
      <trkpt lat="46.02974" lon="5.62772">
        <ele>1060.2</ele>
        <time>2026-05-10T14:10:10Z</time>
      </trkpt>
      <trkpt lat="46.02977" lon="5.62767">
        <ele>1060.2</ele>
        <time>2026-05-10T14:10:11Z</time>
      </trkpt>
      <trkpt lat="46.0298" lon="5.62762">
        <ele>1059.8</ele>
        <time>2026-05-10T14:10:12Z</time>
      </trkpt>
      <trkpt lat="46.02982" lon="5.62757">
        <ele>1059.8</ele>
        <time>2026-05-10T14:10:13Z</time>
      </trkpt>
      <trkpt lat="46.02985" lon="5.62751">
        <ele>1059.8</ele>
        <time>2026-05-10T14:10:14Z</time>
      </trkpt>
      <trkpt lat="46.02988" lon="5.62746">
        <ele>1060</ele>
        <time>2026-05-10T14:10:15Z</time>
      </trkpt>
      <trkpt lat="46.0299" lon="5.62742">
        <ele>1060</ele>
        <time>2026-05-10T14:10:16Z</time>
      </trkpt>
      <trkpt lat="46.02994" lon="5.62737">
        <ele>1060</ele>
        <time>2026-05-10T14:10:17Z</time>
      </trkpt>
      <trkpt lat="46.02997" lon="5.62732">
        <ele>1060</ele>
        <time>2026-05-10T14:10:18Z</time>
      </trkpt>
      <trkpt lat="46.03" lon="5.62728">
        <ele>1060.4</ele>
        <time>2026-05-10T14:10:19Z</time>
      </trkpt>
      <trkpt lat="46.03004" lon="5.62723">
        <ele>1060.4</ele>
        <time>2026-05-10T14:10:20Z</time>
      </trkpt>
      <trkpt lat="46.03007" lon="5.62719">
        <ele>1060.4</ele>
        <time>2026-05-10T14:10:21Z</time>
      </trkpt>
      <trkpt lat="46.03013" lon="5.62707">
        <ele>1060.4</ele>
        <time>2026-05-10T14:10:22Z</time>
      </trkpt>
      <trkpt lat="46.03016" lon="5.62702">
        <ele>1060.4</ele>
        <time>2026-05-10T14:10:23Z</time>
      </trkpt>
      <trkpt lat="46.0302" lon="5.62696">
        <ele>1060.4</ele>
        <time>2026-05-10T14:10:24Z</time>
      </trkpt>
      <trkpt lat="46.03023" lon="5.62692">
        <ele>1060.4</ele>
        <time>2026-05-10T14:10:25Z</time>
      </trkpt>
      <trkpt lat="46.03027" lon="5.62686">
        <ele>1060.4</ele>
        <time>2026-05-10T14:10:26Z</time>
      </trkpt>
      <trkpt lat="46.0303" lon="5.62681">
        <ele>1060.4</ele>
        <time>2026-05-10T14:10:27Z</time>
      </trkpt>
      <trkpt lat="46.03034" lon="5.62676">
        <ele>1060.4</ele>
        <time>2026-05-10T14:10:28Z</time>
      </trkpt>
      <trkpt lat="46.03037" lon="5.62671">
        <ele>1060.4</ele>
        <time>2026-05-10T14:10:29Z</time>
      </trkpt>
      <trkpt lat="46.0304" lon="5.62666">
        <ele>1060.4</ele>
        <time>2026-05-10T14:10:30Z</time>
      </trkpt>
      <trkpt lat="46.03043" lon="5.62661">
        <ele>1060.4</ele>
        <time>2026-05-10T14:10:31Z</time>
      </trkpt>
      <trkpt lat="46.03046" lon="5.62656">
        <ele>1060.4</ele>
        <time>2026-05-10T14:10:32Z</time>
      </trkpt>
      <trkpt lat="46.03049" lon="5.62651">
        <ele>1060.4</ele>
        <time>2026-05-10T14:10:33Z</time>
      </trkpt>
      <trkpt lat="46.03052" lon="5.62647">
        <ele>1060.4</ele>
        <time>2026-05-10T14:10:34Z</time>
      </trkpt>
      <trkpt lat="46.03055" lon="5.62643">
        <ele>1060.4</ele>
        <time>2026-05-10T14:10:35Z</time>
      </trkpt>
      <trkpt lat="46.03058" lon="5.62639">
        <ele>1060.4</ele>
        <time>2026-05-10T14:10:36Z</time>
      </trkpt>
      <trkpt lat="46.03061" lon="5.62635">
        <ele>1060.4</ele>
        <time>2026-05-10T14:10:37Z</time>
      </trkpt>
      <trkpt lat="46.03063" lon="5.6263">
        <ele>1060.6</ele>
        <time>2026-05-10T14:10:38Z</time>
      </trkpt>
      <trkpt lat="46.03066" lon="5.62626">
        <ele>1061</ele>
        <time>2026-05-10T14:10:39Z</time>
      </trkpt>
      <trkpt lat="46.03069" lon="5.62623">
        <ele>1061</ele>
        <time>2026-05-10T14:10:40Z</time>
      </trkpt>
      <trkpt lat="46.03072" lon="5.6262">
        <ele>1061</ele>
        <time>2026-05-10T14:10:41Z</time>
      </trkpt>
      <trkpt lat="46.03074" lon="5.62616">
        <ele>1061.4</ele>
        <time>2026-05-10T14:10:42Z</time>
      </trkpt>
      <trkpt lat="46.03077" lon="5.62612">
        <ele>1061.4</ele>
        <time>2026-05-10T14:10:43Z</time>
      </trkpt>
      <trkpt lat="46.0308" lon="5.62609">
        <ele>1061.6</ele>
        <time>2026-05-10T14:10:44Z</time>
      </trkpt>
      <trkpt lat="46.03083" lon="5.62606">
        <ele>1061.6</ele>
        <time>2026-05-10T14:10:45Z</time>
      </trkpt>
      <trkpt lat="46.03086" lon="5.62603">
        <ele>1061.6</ele>
        <time>2026-05-10T14:10:46Z</time>
      </trkpt>
      <trkpt lat="46.03089" lon="5.62601">
        <ele>1061.6</ele>
        <time>2026-05-10T14:10:47Z</time>
      </trkpt>
      <trkpt lat="46.03092" lon="5.62598">
        <ele>1061.8</ele>
        <time>2026-05-10T14:10:48Z</time>
      </trkpt>
      <trkpt lat="46.03095" lon="5.62596">
        <ele>1061.8</ele>
        <time>2026-05-10T14:10:49Z</time>
      </trkpt>
      <trkpt lat="46.03095" lon="5.62596">
        <ele>1061.8</ele>
        <time>2026-05-10T14:10:50Z</time>
      </trkpt>
      <trkpt lat="46.03098" lon="5.62594">
        <ele>1062.2</ele>
        <time>2026-05-10T14:10:51Z</time>
      </trkpt>
      <trkpt lat="46.031" lon="5.62592">
        <ele>1062.4</ele>
        <time>2026-05-10T14:10:52Z</time>
      </trkpt>
      <trkpt lat="46.03103" lon="5.6259">
        <ele>1062.8</ele>
        <time>2026-05-10T14:10:53Z</time>
      </trkpt>
      <trkpt lat="46.03105" lon="5.62588">
        <ele>1063</ele>
        <time>2026-05-10T14:10:54Z</time>
      </trkpt>
      <trkpt lat="46.03108" lon="5.62586">
        <ele>1063</ele>
        <time>2026-05-10T14:10:55Z</time>
      </trkpt>
      <trkpt lat="46.0311" lon="5.62585">
        <ele>1063.4</ele>
        <time>2026-05-10T14:10:56Z</time>
      </trkpt>
      <trkpt lat="46.03112" lon="5.62583">
        <ele>1063.8</ele>
        <time>2026-05-10T14:10:57Z</time>
      </trkpt>
      <trkpt lat="46.03115" lon="5.62581">
        <ele>1064</ele>
        <time>2026-05-10T14:10:58Z</time>
      </trkpt>
      <trkpt lat="46.03117" lon="5.62579">
        <ele>1064</ele>
        <time>2026-05-10T14:10:59Z</time>
      </trkpt>
      <trkpt lat="46.03119" lon="5.62577">
        <ele>1064.4</ele>
        <time>2026-05-10T14:11:00Z</time>
      </trkpt>
      <trkpt lat="46.03121" lon="5.62575">
        <ele>1064.4</ele>
        <time>2026-05-10T14:11:01Z</time>
      </trkpt>
      <trkpt lat="46.03123" lon="5.62573">
        <ele>1063.6</ele>
        <time>2026-05-10T14:11:02Z</time>
      </trkpt>
      <trkpt lat="46.03125" lon="5.6257">
        <ele>1064.6</ele>
        <time>2026-05-10T14:11:03Z</time>
      </trkpt>
      <trkpt lat="46.03127" lon="5.62566">
        <ele>1065</ele>
        <time>2026-05-10T14:11:04Z</time>
      </trkpt>
      <trkpt lat="46.03128" lon="5.62563">
        <ele>1065</ele>
        <time>2026-05-10T14:11:05Z</time>
      </trkpt>
      <trkpt lat="46.0313" lon="5.62561">
        <ele>1065.4</ele>
        <time>2026-05-10T14:11:06Z</time>
      </trkpt>
      <trkpt lat="46.03132" lon="5.62558">
        <ele>1065.6</ele>
        <time>2026-05-10T14:11:07Z</time>
      </trkpt>
      <trkpt lat="46.03133" lon="5.62555">
        <ele>1065.6</ele>
        <time>2026-05-10T14:11:08Z</time>
      </trkpt>
      <trkpt lat="46.03135" lon="5.62553">
        <ele>1065.8</ele>
        <time>2026-05-10T14:11:09Z</time>
      </trkpt>
      <trkpt lat="46.03136" lon="5.6255">
        <ele>1066</ele>
        <time>2026-05-10T14:11:10Z</time>
      </trkpt>
      <trkpt lat="46.03138" lon="5.62546">
        <ele>1066.2</ele>
        <time>2026-05-10T14:11:11Z</time>
      </trkpt>
      <trkpt lat="46.03139" lon="5.62543">
        <ele>1066.2</ele>
        <time>2026-05-10T14:11:12Z</time>
      </trkpt>
      <trkpt lat="46.03141" lon="5.6254">
        <ele>1066.2</ele>
        <time>2026-05-10T14:11:13Z</time>
      </trkpt>
      <trkpt lat="46.03143" lon="5.62537">
        <ele>1066.2</ele>
        <time>2026-05-10T14:11:14Z</time>
      </trkpt>
      <trkpt lat="46.03144" lon="5.62534">
        <ele>1066.6</ele>
        <time>2026-05-10T14:11:15Z</time>
      </trkpt>
      <trkpt lat="46.03146" lon="5.62531">
        <ele>1066.6</ele>
        <time>2026-05-10T14:11:16Z</time>
      </trkpt>
      <trkpt lat="46.03146" lon="5.62528">
        <ele>1067</ele>
        <time>2026-05-10T14:11:17Z</time>
      </trkpt>
      <trkpt lat="46.03147" lon="5.62525">
        <ele>1067</ele>
        <time>2026-05-10T14:11:18Z</time>
      </trkpt>
      <trkpt lat="46.03149" lon="5.62522">
        <ele>1067.2</ele>
        <time>2026-05-10T14:11:19Z</time>
      </trkpt>
      <trkpt lat="46.0315" lon="5.6252">
        <ele>1067.2</ele>
        <time>2026-05-10T14:11:20Z</time>
      </trkpt>
      <trkpt lat="46.03151" lon="5.62517">
        <ele>1067.4</ele>
        <time>2026-05-10T14:11:21Z</time>
      </trkpt>
      <trkpt lat="46.03152" lon="5.62514">
        <ele>1067.4</ele>
        <time>2026-05-10T14:11:22Z</time>
      </trkpt>
      <trkpt lat="46.03154" lon="5.62512">
        <ele>1067.8</ele>
        <time>2026-05-10T14:11:23Z</time>
      </trkpt>
      <trkpt lat="46.03156" lon="5.6251">
        <ele>1067.8</ele>
        <time>2026-05-10T14:11:24Z</time>
      </trkpt>
      <trkpt lat="46.03157" lon="5.62508">
        <ele>1067.8</ele>
        <time>2026-05-10T14:11:25Z</time>
      </trkpt>
      <trkpt lat="46.03159" lon="5.62506">
        <ele>1068</ele>
        <time>2026-05-10T14:11:26Z</time>
      </trkpt>
      <trkpt lat="46.0316" lon="5.62503">
        <ele>1068</ele>
        <time>2026-05-10T14:11:27Z</time>
      </trkpt>
      <trkpt lat="46.03161" lon="5.625">
        <ele>1068</ele>
        <time>2026-05-10T14:11:28Z</time>
      </trkpt>
      <trkpt lat="46.03162" lon="5.62498">
        <ele>1068.4</ele>
        <time>2026-05-10T14:11:29Z</time>
      </trkpt>
      <trkpt lat="46.03163" lon="5.62495">
        <ele>1068.6</ele>
        <time>2026-05-10T14:11:30Z</time>
      </trkpt>
      <trkpt lat="46.03164" lon="5.62492">
        <ele>1068.8</ele>
        <time>2026-05-10T14:11:31Z</time>
      </trkpt>
      <trkpt lat="46.03165" lon="5.62489">
        <ele>1068.8</ele>
        <time>2026-05-10T14:11:32Z</time>
      </trkpt>
      <trkpt lat="46.03165" lon="5.62485">
        <ele>1068.8</ele>
        <time>2026-05-10T14:11:33Z</time>
      </trkpt>
      <trkpt lat="46.03166" lon="5.62482">
        <ele>1069</ele>
        <time>2026-05-10T14:11:34Z</time>
      </trkpt>
      <trkpt lat="46.03166" lon="5.62479">
        <ele>1069</ele>
        <time>2026-05-10T14:11:35Z</time>
      </trkpt>
      <trkpt lat="46.03167" lon="5.62475">
        <ele>1069</ele>
        <time>2026-05-10T14:11:36Z</time>
      </trkpt>
      <trkpt lat="46.03168" lon="5.62472">
        <ele>1069.4</ele>
        <time>2026-05-10T14:11:37Z</time>
      </trkpt>
      <trkpt lat="46.03168" lon="5.62469">
        <ele>1069.4</ele>
        <time>2026-05-10T14:11:38Z</time>
      </trkpt>
      <trkpt lat="46.03169" lon="5.62465">
        <ele>1069.8</ele>
        <time>2026-05-10T14:11:39Z</time>
      </trkpt>
      <trkpt lat="46.03169" lon="5.62463">
        <ele>1069.8</ele>
        <time>2026-05-10T14:11:40Z</time>
      </trkpt>
      <trkpt lat="46.03169" lon="5.6246">
        <ele>1069.8</ele>
        <time>2026-05-10T14:11:41Z</time>
      </trkpt>
      <trkpt lat="46.0317" lon="5.62458">
        <ele>1069.8</ele>
        <time>2026-05-10T14:11:42Z</time>
      </trkpt>
      <trkpt lat="46.03171" lon="5.62456">
        <ele>1069.8</ele>
        <time>2026-05-10T14:11:43Z</time>
      </trkpt>
      <trkpt lat="46.03172" lon="5.62453">
        <ele>1069.8</ele>
        <time>2026-05-10T14:11:44Z</time>
      </trkpt>
      <trkpt lat="46.03173" lon="5.6245">
        <ele>1070</ele>
        <time>2026-05-10T14:11:45Z</time>
      </trkpt>
      <trkpt lat="46.03173" lon="5.62447">
        <ele>1070.2</ele>
        <time>2026-05-10T14:11:46Z</time>
      </trkpt>
      <trkpt lat="46.03173" lon="5.62444">
        <ele>1070.6</ele>
        <time>2026-05-10T14:11:47Z</time>
      </trkpt>
      <trkpt lat="46.03173" lon="5.62441">
        <ele>1070.8</ele>
        <time>2026-05-10T14:11:48Z</time>
      </trkpt>
      <trkpt lat="46.03174" lon="5.62438">
        <ele>1071.2</ele>
        <time>2026-05-10T14:11:49Z</time>
      </trkpt>
      <trkpt lat="46.03174" lon="5.62436">
        <ele>1071.6</ele>
        <time>2026-05-10T14:11:50Z</time>
      </trkpt>
      <trkpt lat="46.03175" lon="5.62433">
        <ele>1071.6</ele>
        <time>2026-05-10T14:11:51Z</time>
      </trkpt>
      <trkpt lat="46.03176" lon="5.62429">
        <ele>1071.8</ele>
        <time>2026-05-10T14:11:52Z</time>
      </trkpt>
      <trkpt lat="46.03176" lon="5.62426">
        <ele>1071.8</ele>
        <time>2026-05-10T14:11:53Z</time>
      </trkpt>
      <trkpt lat="46.03177" lon="5.62423">
        <ele>1072.2</ele>
        <time>2026-05-10T14:11:54Z</time>
      </trkpt>
      <trkpt lat="46.03178" lon="5.6242">
        <ele>1072.2</ele>
        <time>2026-05-10T14:11:55Z</time>
      </trkpt>
      <trkpt lat="46.03178" lon="5.62416">
        <ele>1072.4</ele>
        <time>2026-05-10T14:11:56Z</time>
      </trkpt>
      <trkpt lat="46.03178" lon="5.62413">
        <ele>1072.4</ele>
        <time>2026-05-10T14:11:57Z</time>
      </trkpt>
      <trkpt lat="46.03179" lon="5.62411">
        <ele>1072.6</ele>
        <time>2026-05-10T14:11:58Z</time>
      </trkpt>
      <trkpt lat="46.03179" lon="5.62409">
        <ele>1072.6</ele>
        <time>2026-05-10T14:11:59Z</time>
      </trkpt>
      <trkpt lat="46.0318" lon="5.62406">
        <ele>1072.6</ele>
        <time>2026-05-10T14:12:00Z</time>
      </trkpt>
      <trkpt lat="46.03181" lon="5.62403">
        <ele>1072.6</ele>
        <time>2026-05-10T14:12:01Z</time>
      </trkpt>
      <trkpt lat="46.03182" lon="5.624">
        <ele>1073</ele>
        <time>2026-05-10T14:12:02Z</time>
      </trkpt>
      <trkpt lat="46.03182" lon="5.62397">
        <ele>1073</ele>
        <time>2026-05-10T14:12:03Z</time>
      </trkpt>
      <trkpt lat="46.03183" lon="5.62395">
        <ele>1073</ele>
        <time>2026-05-10T14:12:04Z</time>
      </trkpt>
      <trkpt lat="46.03184" lon="5.62392">
        <ele>1073</ele>
        <time>2026-05-10T14:12:05Z</time>
      </trkpt>
      <trkpt lat="46.03185" lon="5.62389">
        <ele>1073.2</ele>
        <time>2026-05-10T14:12:06Z</time>
      </trkpt>
      <trkpt lat="46.03185" lon="5.62386">
        <ele>1073.2</ele>
        <time>2026-05-10T14:12:07Z</time>
      </trkpt>
      <trkpt lat="46.03186" lon="5.62382">
        <ele>1073.2</ele>
        <time>2026-05-10T14:12:08Z</time>
      </trkpt>
      <trkpt lat="46.03187" lon="5.62379">
        <ele>1073.4</ele>
        <time>2026-05-10T14:12:09Z</time>
      </trkpt>
      <trkpt lat="46.03188" lon="5.62376">
        <ele>1073.4</ele>
        <time>2026-05-10T14:12:10Z</time>
      </trkpt>
      <trkpt lat="46.0319" lon="5.62373">
        <ele>1073.4</ele>
        <time>2026-05-10T14:12:11Z</time>
      </trkpt>
      <trkpt lat="46.03191" lon="5.6237">
        <ele>1073.4</ele>
        <time>2026-05-10T14:12:12Z</time>
      </trkpt>
      <trkpt lat="46.03192" lon="5.62366">
        <ele>1073.4</ele>
        <time>2026-05-10T14:12:13Z</time>
      </trkpt>
      <trkpt lat="46.03193" lon="5.62363">
        <ele>1073.4</ele>
        <time>2026-05-10T14:12:14Z</time>
      </trkpt>
      <trkpt lat="46.03194" lon="5.62359">
        <ele>1073.4</ele>
        <time>2026-05-10T14:12:15Z</time>
      </trkpt>
      <trkpt lat="46.03195" lon="5.62356">
        <ele>1073.4</ele>
        <time>2026-05-10T14:12:16Z</time>
      </trkpt>
      <trkpt lat="46.03196" lon="5.62354">
        <ele>1073.8</ele>
        <time>2026-05-10T14:12:17Z</time>
      </trkpt>
      <trkpt lat="46.03197" lon="5.62352">
        <ele>1073.8</ele>
        <time>2026-05-10T14:12:18Z</time>
      </trkpt>
      <trkpt lat="46.03199" lon="5.62349">
        <ele>1074</ele>
        <time>2026-05-10T14:12:19Z</time>
      </trkpt>
      <trkpt lat="46.03201" lon="5.62346">
        <ele>1074</ele>
        <time>2026-05-10T14:12:20Z</time>
      </trkpt>
      <trkpt lat="46.03202" lon="5.62343">
        <ele>1074.2</ele>
        <time>2026-05-10T14:12:21Z</time>
      </trkpt>
      <trkpt lat="46.03203" lon="5.6234">
        <ele>1074.2</ele>
        <time>2026-05-10T14:12:22Z</time>
      </trkpt>
      <trkpt lat="46.03204" lon="5.62337">
        <ele>1074.6</ele>
        <time>2026-05-10T14:12:23Z</time>
      </trkpt>
      <trkpt lat="46.03206" lon="5.62334">
        <ele>1074.6</ele>
        <time>2026-05-10T14:12:24Z</time>
      </trkpt>
      <trkpt lat="46.03207" lon="5.62331">
        <ele>1074.6</ele>
        <time>2026-05-10T14:12:25Z</time>
      </trkpt>
      <trkpt lat="46.03209" lon="5.62329">
        <ele>1075</ele>
        <time>2026-05-10T14:12:26Z</time>
      </trkpt>
      <trkpt lat="46.0321" lon="5.62326">
        <ele>1075</ele>
        <time>2026-05-10T14:12:27Z</time>
      </trkpt>
      <trkpt lat="46.03212" lon="5.62323">
        <ele>1075</ele>
        <time>2026-05-10T14:12:28Z</time>
      </trkpt>
      <trkpt lat="46.03213" lon="5.6232">
        <ele>1075.4</ele>
        <time>2026-05-10T14:12:29Z</time>
      </trkpt>
      <trkpt lat="46.03215" lon="5.62318">
        <ele>1075.4</ele>
        <time>2026-05-10T14:12:30Z</time>
      </trkpt>
      <trkpt lat="46.03216" lon="5.62315">
        <ele>1075.4</ele>
        <time>2026-05-10T14:12:31Z</time>
      </trkpt>
      <trkpt lat="46.03218" lon="5.62313">
        <ele>1075.6</ele>
        <time>2026-05-10T14:12:32Z</time>
      </trkpt>
      <trkpt lat="46.03219" lon="5.62309">
        <ele>1075.6</ele>
        <time>2026-05-10T14:12:33Z</time>
      </trkpt>
      <trkpt lat="46.0322" lon="5.62306">
        <ele>1075.6</ele>
        <time>2026-05-10T14:12:34Z</time>
      </trkpt>
      <trkpt lat="46.03221" lon="5.62303">
        <ele>1075.6</ele>
        <time>2026-05-10T14:12:35Z</time>
      </trkpt>
      <trkpt lat="46.03222" lon="5.62301">
        <ele>1076</ele>
        <time>2026-05-10T14:12:36Z</time>
      </trkpt>
      <trkpt lat="46.03223" lon="5.62298">
        <ele>1076.2</ele>
        <time>2026-05-10T14:12:37Z</time>
      </trkpt>
      <trkpt lat="46.03224" lon="5.62295">
        <ele>1076.2</ele>
        <time>2026-05-10T14:12:38Z</time>
      </trkpt>
      <trkpt lat="46.03225" lon="5.62292">
        <ele>1076.2</ele>
        <time>2026-05-10T14:12:39Z</time>
      </trkpt>
      <trkpt lat="46.03226" lon="5.62289">
        <ele>1076.2</ele>
        <time>2026-05-10T14:12:40Z</time>
      </trkpt>
      <trkpt lat="46.03227" lon="5.62285">
        <ele>1076.2</ele>
        <time>2026-05-10T14:12:41Z</time>
      </trkpt>
      <trkpt lat="46.03228" lon="5.62281">
        <ele>1076.4</ele>
        <time>2026-05-10T14:12:42Z</time>
      </trkpt>
      <trkpt lat="46.03228" lon="5.62279">
        <ele>1076.4</ele>
        <time>2026-05-10T14:12:43Z</time>
      </trkpt>
      <trkpt lat="46.03228" lon="5.62276">
        <ele>1076.4</ele>
        <time>2026-05-10T14:12:44Z</time>
      </trkpt>
      <trkpt lat="46.03228" lon="5.62273">
        <ele>1076.8</ele>
        <time>2026-05-10T14:12:45Z</time>
      </trkpt>
      <trkpt lat="46.03228" lon="5.62269">
        <ele>1076.8</ele>
        <time>2026-05-10T14:12:46Z</time>
      </trkpt>
      <trkpt lat="46.03228" lon="5.62265">
        <ele>1076.8</ele>
        <time>2026-05-10T14:12:47Z</time>
      </trkpt>
      <trkpt lat="46.03227" lon="5.62262">
        <ele>1077.2</ele>
        <time>2026-05-10T14:12:48Z</time>
      </trkpt>
      <trkpt lat="46.03226" lon="5.62258">
        <ele>1077.2</ele>
        <time>2026-05-10T14:12:49Z</time>
      </trkpt>
      <trkpt lat="46.03225" lon="5.62254">
        <ele>1077.6</ele>
        <time>2026-05-10T14:12:50Z</time>
      </trkpt>
      <trkpt lat="46.03225" lon="5.62251">
        <ele>1076</ele>
        <time>2026-05-10T14:12:51Z</time>
      </trkpt>
      <trkpt lat="46.03225" lon="5.62247">
        <ele>1076.8</ele>
        <time>2026-05-10T14:12:52Z</time>
      </trkpt>
      <trkpt lat="46.03224" lon="5.62243">
        <ele>1077</ele>
        <time>2026-05-10T14:12:53Z</time>
      </trkpt>
      <trkpt lat="46.03224" lon="5.6224">
        <ele>1077.4</ele>
        <time>2026-05-10T14:12:54Z</time>
      </trkpt>
      <trkpt lat="46.03223" lon="5.62236">
        <ele>1077.6</ele>
        <time>2026-05-10T14:12:55Z</time>
      </trkpt>
      <trkpt lat="46.03222" lon="5.62233">
        <ele>1077.6</ele>
        <time>2026-05-10T14:12:56Z</time>
      </trkpt>
      <trkpt lat="46.03222" lon="5.6223">
        <ele>1077.8</ele>
        <time>2026-05-10T14:12:57Z</time>
      </trkpt>
      <trkpt lat="46.03222" lon="5.62227">
        <ele>1078.2</ele>
        <time>2026-05-10T14:12:58Z</time>
      </trkpt>
      <trkpt lat="46.03221" lon="5.62225">
        <ele>1078.4</ele>
        <time>2026-05-10T14:12:59Z</time>
      </trkpt>
      <trkpt lat="46.03222" lon="5.62222">
        <ele>1078.4</ele>
        <time>2026-05-10T14:13:00Z</time>
      </trkpt>
      <trkpt lat="46.03222" lon="5.6222">
        <ele>1078.6</ele>
        <time>2026-05-10T14:13:01Z</time>
      </trkpt>
      <trkpt lat="46.03221" lon="5.62217">
        <ele>1078.6</ele>
        <time>2026-05-10T14:13:02Z</time>
      </trkpt>
      <trkpt lat="46.03221" lon="5.62215">
        <ele>1078.6</ele>
        <time>2026-05-10T14:13:03Z</time>
      </trkpt>
      <trkpt lat="46.03221" lon="5.62212">
        <ele>1078.6</ele>
        <time>2026-05-10T14:13:04Z</time>
      </trkpt>
      <trkpt lat="46.03221" lon="5.6221">
        <ele>1078.6</ele>
        <time>2026-05-10T14:13:05Z</time>
      </trkpt>
      <trkpt lat="46.0322" lon="5.62209">
        <ele>1078.6</ele>
        <time>2026-05-10T14:13:06Z</time>
      </trkpt>
      <trkpt lat="46.0322" lon="5.62207">
        <ele>1078.6</ele>
        <time>2026-05-10T14:13:07Z</time>
      </trkpt>
      <trkpt lat="46.03219" lon="5.62205">
        <ele>1078.6</ele>
        <time>2026-05-10T14:13:08Z</time>
      </trkpt>
      <trkpt lat="46.03218" lon="5.62204">
        <ele>1078.8</ele>
        <time>2026-05-10T14:13:09Z</time>
      </trkpt>
      <trkpt lat="46.03218" lon="5.62204">
        <ele>1078.8</ele>
        <time>2026-05-10T14:13:10Z</time>
      </trkpt>
      <trkpt lat="46.03218" lon="5.62203">
        <ele>1078.8</ele>
        <time>2026-05-10T14:13:11Z</time>
      </trkpt>
      <trkpt lat="46.03218" lon="5.62203">
        <ele>1078.8</ele>
        <time>2026-05-10T14:13:12Z</time>
      </trkpt>
      <trkpt lat="46.03218" lon="5.62204">
        <ele>1078.2</ele>
        <time>2026-05-10T14:13:13Z</time>
      </trkpt>
      <trkpt lat="46.03217" lon="5.62202">
        <ele>1079</ele>
        <time>2026-05-10T14:13:45Z</time>
      </trkpt>
      <trkpt lat="46.03216" lon="5.62201">
        <ele>1079</ele>
        <time>2026-05-10T14:13:46Z</time>
      </trkpt>
      <trkpt lat="46.03214" lon="5.622">
        <ele>1079</ele>
        <time>2026-05-10T14:13:47Z</time>
      </trkpt>
      <trkpt lat="46.03212" lon="5.62199">
        <ele>1079</ele>
        <time>2026-05-10T14:13:48Z</time>
      </trkpt>
      <trkpt lat="46.03211" lon="5.62197">
        <ele>1079.4</ele>
        <time>2026-05-10T14:13:49Z</time>
      </trkpt>
      <trkpt lat="46.0321" lon="5.62196">
        <ele>1079.4</ele>
        <time>2026-05-10T14:13:50Z</time>
      </trkpt>
      <trkpt lat="46.03209" lon="5.62194">
        <ele>1079.6</ele>
        <time>2026-05-10T14:13:51Z</time>
      </trkpt>
      <trkpt lat="46.03208" lon="5.62192">
        <ele>1079.8</ele>
        <time>2026-05-10T14:13:52Z</time>
      </trkpt>
      <trkpt lat="46.03208" lon="5.62191">
        <ele>1080.2</ele>
        <time>2026-05-10T14:13:53Z</time>
      </trkpt>
      <trkpt lat="46.03207" lon="5.62189">
        <ele>1080.2</ele>
        <time>2026-05-10T14:13:54Z</time>
      </trkpt>
      <trkpt lat="46.03206" lon="5.62188">
        <ele>1080.6</ele>
        <time>2026-05-10T14:13:55Z</time>
      </trkpt>
      <trkpt lat="46.03206" lon="5.62187">
        <ele>1080.6</ele>
        <time>2026-05-10T14:13:56Z</time>
      </trkpt>
      <trkpt lat="46.03205" lon="5.62186">
        <ele>1080.4</ele>
        <time>2026-05-10T14:13:57Z</time>
      </trkpt>
      <trkpt lat="46.03204" lon="5.62185">
        <ele>1080.6</ele>
        <time>2026-05-10T14:13:58Z</time>
      </trkpt>
      <trkpt lat="46.03203" lon="5.62183">
        <ele>1080.4</ele>
        <time>2026-05-10T14:13:59Z</time>
      </trkpt>
      <trkpt lat="46.03202" lon="5.62181">
        <ele>1080.2</ele>
        <time>2026-05-10T14:14:00Z</time>
      </trkpt>
      <trkpt lat="46.032" lon="5.6218">
        <ele>1080.2</ele>
        <time>2026-05-10T14:14:01Z</time>
      </trkpt>
      <trkpt lat="46.03198" lon="5.6218">
        <ele>1080.4</ele>
        <time>2026-05-10T14:14:02Z</time>
      </trkpt>
      <trkpt lat="46.03196" lon="5.62179">
        <ele>1079.4</ele>
        <time>2026-05-10T14:14:03Z</time>
      </trkpt>
      <trkpt lat="46.03194" lon="5.62179">
        <ele>1079</ele>
        <time>2026-05-10T14:14:04Z</time>
      </trkpt>
      <trkpt lat="46.03191" lon="5.62177">
        <ele>1078.4</ele>
        <time>2026-05-10T14:14:05Z</time>
      </trkpt>
      <trkpt lat="46.03188" lon="5.62176">
        <ele>1078</ele>
        <time>2026-05-10T14:14:06Z</time>
      </trkpt>
      <trkpt lat="46.03186" lon="5.62175">
        <ele>1077.8</ele>
        <time>2026-05-10T14:14:07Z</time>
      </trkpt>
      <trkpt lat="46.03184" lon="5.62174">
        <ele>1077.4</ele>
        <time>2026-05-10T14:14:08Z</time>
      </trkpt>
      <trkpt lat="46.03182" lon="5.62173">
        <ele>1077.4</ele>
        <time>2026-05-10T14:14:09Z</time>
      </trkpt>
      <trkpt lat="46.0318" lon="5.62172">
        <ele>1077.4</ele>
        <time>2026-05-10T14:14:10Z</time>
      </trkpt>
      <trkpt lat="46.03178" lon="5.62171">
        <ele>1077</ele>
        <time>2026-05-10T14:14:11Z</time>
      </trkpt>
      <trkpt lat="46.03176" lon="5.6217">
        <ele>1077</ele>
        <time>2026-05-10T14:14:12Z</time>
      </trkpt>
      <trkpt lat="46.03175" lon="5.6217">
        <ele>1077</ele>
        <time>2026-05-10T14:14:13Z</time>
      </trkpt>
      <trkpt lat="46.03174" lon="5.62169">
        <ele>1077</ele>
        <time>2026-05-10T14:14:14Z</time>
      </trkpt>
      <trkpt lat="46.03171" lon="5.62168">
        <ele>1077</ele>
        <time>2026-05-10T14:14:15Z</time>
      </trkpt>
      <trkpt lat="46.03169" lon="5.62167">
        <ele>1077</ele>
        <time>2026-05-10T14:14:16Z</time>
      </trkpt>
      <trkpt lat="46.03167" lon="5.62166">
        <ele>1076.8</ele>
        <time>2026-05-10T14:14:17Z</time>
      </trkpt>
      <trkpt lat="46.03166" lon="5.62165">
        <ele>1077</ele>
        <time>2026-05-10T14:14:18Z</time>
      </trkpt>
      <trkpt lat="46.03164" lon="5.62164">
        <ele>1077.4</ele>
        <time>2026-05-10T14:14:19Z</time>
      </trkpt>
      <trkpt lat="46.03162" lon="5.62163">
        <ele>1077.6</ele>
        <time>2026-05-10T14:14:20Z</time>
      </trkpt>
      <trkpt lat="46.0316" lon="5.62163">
        <ele>1077.6</ele>
        <time>2026-05-10T14:14:21Z</time>
      </trkpt>
      <trkpt lat="46.03159" lon="5.62162">
        <ele>1078</ele>
        <time>2026-05-10T14:14:22Z</time>
      </trkpt>
      <trkpt lat="46.03157" lon="5.62161">
        <ele>1078.2</ele>
        <time>2026-05-10T14:14:23Z</time>
      </trkpt>
      <trkpt lat="46.03156" lon="5.6216">
        <ele>1078.2</ele>
        <time>2026-05-10T14:14:24Z</time>
      </trkpt>
      <trkpt lat="46.03154" lon="5.62158">
        <ele>1078.6</ele>
        <time>2026-05-10T14:14:25Z</time>
      </trkpt>
      <trkpt lat="46.03153" lon="5.62157">
        <ele>1079</ele>
        <time>2026-05-10T14:14:26Z</time>
      </trkpt>
      <trkpt lat="46.03152" lon="5.62156">
        <ele>1079.4</ele>
        <time>2026-05-10T14:14:27Z</time>
      </trkpt>
      <trkpt lat="46.0315" lon="5.62154">
        <ele>1079.6</ele>
        <time>2026-05-10T14:14:28Z</time>
      </trkpt>
      <trkpt lat="46.03149" lon="5.62153">
        <ele>1079.8</ele>
        <time>2026-05-10T14:14:29Z</time>
      </trkpt>
      <trkpt lat="46.03148" lon="5.62151">
        <ele>1080.2</ele>
        <time>2026-05-10T14:14:30Z</time>
      </trkpt>
      <trkpt lat="46.03146" lon="5.62149">
        <ele>1080.2</ele>
        <time>2026-05-10T14:14:31Z</time>
      </trkpt>
      <trkpt lat="46.03144" lon="5.62146">
        <ele>1080.4</ele>
        <time>2026-05-10T14:14:32Z</time>
      </trkpt>
      <trkpt lat="46.03143" lon="5.62144">
        <ele>1080.4</ele>
        <time>2026-05-10T14:14:33Z</time>
      </trkpt>
      <trkpt lat="46.03141" lon="5.62142">
        <ele>1080.4</ele>
        <time>2026-05-10T14:14:34Z</time>
      </trkpt>
      <trkpt lat="46.03139" lon="5.62139">
        <ele>1080.4</ele>
        <time>2026-05-10T14:14:35Z</time>
      </trkpt>
      <trkpt lat="46.03136" lon="5.62134">
        <ele>1080</ele>
        <time>2026-05-10T14:14:36Z</time>
      </trkpt>
      <trkpt lat="46.03134" lon="5.62131">
        <ele>1080</ele>
        <time>2026-05-10T14:14:37Z</time>
      </trkpt>
      <trkpt lat="46.03133" lon="5.62129">
        <ele>1079.8</ele>
        <time>2026-05-10T14:14:38Z</time>
      </trkpt>
      <trkpt lat="46.03131" lon="5.62127">
        <ele>1079.8</ele>
        <time>2026-05-10T14:14:39Z</time>
      </trkpt>
      <trkpt lat="46.03128" lon="5.62124">
        <ele>1079.6</ele>
        <time>2026-05-10T14:14:40Z</time>
      </trkpt>
      <trkpt lat="46.03126" lon="5.62121">
        <ele>1079.6</ele>
        <time>2026-05-10T14:14:41Z</time>
      </trkpt>
      <trkpt lat="46.03124" lon="5.62119">
        <ele>1079.2</ele>
        <time>2026-05-10T14:14:42Z</time>
      </trkpt>
      <trkpt lat="46.03123" lon="5.62117">
        <ele>1079.2</ele>
        <time>2026-05-10T14:14:43Z</time>
      </trkpt>
      <trkpt lat="46.03122" lon="5.62114">
        <ele>1078.6</ele>
        <time>2026-05-10T14:14:44Z</time>
      </trkpt>
      <trkpt lat="46.0312" lon="5.6211">
        <ele>1077.8</ele>
        <time>2026-05-10T14:14:45Z</time>
      </trkpt>
      <trkpt lat="46.03117" lon="5.62105">
        <ele>1077.2</ele>
        <time>2026-05-10T14:14:46Z</time>
      </trkpt>
      <trkpt lat="46.03114" lon="5.621">
        <ele>1076.8</ele>
        <time>2026-05-10T14:14:47Z</time>
      </trkpt>
      <trkpt lat="46.03112" lon="5.62095">
        <ele>1076</ele>
        <time>2026-05-10T14:14:48Z</time>
      </trkpt>
      <trkpt lat="46.0311" lon="5.62092">
        <ele>1075.6</ele>
        <time>2026-05-10T14:14:49Z</time>
      </trkpt>
      <trkpt lat="46.03108" lon="5.6209">
        <ele>1075.4</ele>
        <time>2026-05-10T14:14:50Z</time>
      </trkpt>
      <trkpt lat="46.03105" lon="5.62086">
        <ele>1075.4</ele>
        <time>2026-05-10T14:14:51Z</time>
      </trkpt>
      <trkpt lat="46.03102" lon="5.62083">
        <ele>1075.4</ele>
        <time>2026-05-10T14:14:52Z</time>
      </trkpt>
      <trkpt lat="46.03098" lon="5.6208">
        <ele>1075.6</ele>
        <time>2026-05-10T14:14:53Z</time>
      </trkpt>
      <trkpt lat="46.03096" lon="5.62077">
        <ele>1075.6</ele>
        <time>2026-05-10T14:14:54Z</time>
      </trkpt>
      <trkpt lat="46.03094" lon="5.62074">
        <ele>1075.6</ele>
        <time>2026-05-10T14:14:55Z</time>
      </trkpt>
      <trkpt lat="46.03093" lon="5.62071">
        <ele>1075.8</ele>
        <time>2026-05-10T14:14:56Z</time>
      </trkpt>
      <trkpt lat="46.03092" lon="5.62069">
        <ele>1076.2</ele>
        <time>2026-05-10T14:14:57Z</time>
      </trkpt>
      <trkpt lat="46.0309" lon="5.62068">
        <ele>1076.4</ele>
        <time>2026-05-10T14:14:58Z</time>
      </trkpt>
      <trkpt lat="46.03087" lon="5.62067">
        <ele>1076.4</ele>
        <time>2026-05-10T14:14:59Z</time>
      </trkpt>
      <trkpt lat="46.03084" lon="5.62066">
        <ele>1076.4</ele>
        <time>2026-05-10T14:15:00Z</time>
      </trkpt>
      <trkpt lat="46.03081" lon="5.62066">
        <ele>1076.4</ele>
        <time>2026-05-10T14:15:01Z</time>
      </trkpt>
      <trkpt lat="46.03077" lon="5.62066">
        <ele>1076.2</ele>
        <time>2026-05-10T14:15:02Z</time>
      </trkpt>
      <trkpt lat="46.03074" lon="5.62066">
        <ele>1076.2</ele>
        <time>2026-05-10T14:15:03Z</time>
      </trkpt>
      <trkpt lat="46.03071" lon="5.62066">
        <ele>1076.2</ele>
        <time>2026-05-10T14:15:04Z</time>
      </trkpt>
      <trkpt lat="46.03068" lon="5.62068">
        <ele>1076.4</ele>
        <time>2026-05-10T14:15:05Z</time>
      </trkpt>
      <trkpt lat="46.03065" lon="5.62069">
        <ele>1076.4</ele>
        <time>2026-05-10T14:15:06Z</time>
      </trkpt>
      <trkpt lat="46.03063" lon="5.62069">
        <ele>1076.8</ele>
        <time>2026-05-10T14:15:07Z</time>
      </trkpt>
      <trkpt lat="46.03061" lon="5.62069">
        <ele>1077</ele>
        <time>2026-05-10T14:15:08Z</time>
      </trkpt>
      <trkpt lat="46.03059" lon="5.6207">
        <ele>1077</ele>
        <time>2026-05-10T14:15:09Z</time>
      </trkpt>
      <trkpt lat="46.03058" lon="5.62071">
        <ele>1077</ele>
        <time>2026-05-10T14:15:10Z</time>
      </trkpt>
      <trkpt lat="46.03056" lon="5.62072">
        <ele>1077.6</ele>
        <time>2026-05-10T14:15:11Z</time>
      </trkpt>
      <trkpt lat="46.03055" lon="5.62073">
        <ele>1077.8</ele>
        <time>2026-05-10T14:15:12Z</time>
      </trkpt>
      <trkpt lat="46.03053" lon="5.62073">
        <ele>1077.8</ele>
        <time>2026-05-10T14:15:13Z</time>
      </trkpt>
      <trkpt lat="46.03051" lon="5.62073">
        <ele>1078.2</ele>
        <time>2026-05-10T14:15:14Z</time>
      </trkpt>
      <trkpt lat="46.0305" lon="5.62073">
        <ele>1078.6</ele>
        <time>2026-05-10T14:15:15Z</time>
      </trkpt>
      <trkpt lat="46.03049" lon="5.62073">
        <ele>1078.8</ele>
        <time>2026-05-10T14:15:16Z</time>
      </trkpt>
      <trkpt lat="46.03048" lon="5.62073">
        <ele>1079</ele>
        <time>2026-05-10T14:15:17Z</time>
      </trkpt>
      <trkpt lat="46.03047" lon="5.62074">
        <ele>1079</ele>
        <time>2026-05-10T14:15:18Z</time>
      </trkpt>
      <trkpt lat="46.03045" lon="5.62074">
        <ele>1079.4</ele>
        <time>2026-05-10T14:15:19Z</time>
      </trkpt>
      <trkpt lat="46.03044" lon="5.62075">
        <ele>1079.8</ele>
        <time>2026-05-10T14:15:20Z</time>
      </trkpt>
      <trkpt lat="46.03043" lon="5.62075">
        <ele>1080</ele>
        <time>2026-05-10T14:15:21Z</time>
      </trkpt>
      <trkpt lat="46.03041" lon="5.62075">
        <ele>1080.4</ele>
        <time>2026-05-10T14:15:22Z</time>
      </trkpt>
      <trkpt lat="46.0304" lon="5.62075">
        <ele>1080.8</ele>
        <time>2026-05-10T14:15:23Z</time>
      </trkpt>
      <trkpt lat="46.03038" lon="5.62075">
        <ele>1080.8</ele>
        <time>2026-05-10T14:15:24Z</time>
      </trkpt>
      <trkpt lat="46.03037" lon="5.62075">
        <ele>1080.8</ele>
        <time>2026-05-10T14:15:25Z</time>
      </trkpt>
      <trkpt lat="46.03035" lon="5.62076">
        <ele>1081</ele>
        <time>2026-05-10T14:15:26Z</time>
      </trkpt>
      <trkpt lat="46.03033" lon="5.62076">
        <ele>1081</ele>
        <time>2026-05-10T14:15:27Z</time>
      </trkpt>
      <trkpt lat="46.03032" lon="5.62076">
        <ele>1081.4</ele>
        <time>2026-05-10T14:15:28Z</time>
      </trkpt>
      <trkpt lat="46.0303" lon="5.62076">
        <ele>1081.6</ele>
        <time>2026-05-10T14:15:29Z</time>
      </trkpt>
      <trkpt lat="46.03029" lon="5.62076">
        <ele>1081.6</ele>
        <time>2026-05-10T14:15:30Z</time>
      </trkpt>
      <trkpt lat="46.03027" lon="5.62075">
        <ele>1081.6</ele>
        <time>2026-05-10T14:15:31Z</time>
      </trkpt>
      <trkpt lat="46.03026" lon="5.62075">
        <ele>1081.6</ele>
        <time>2026-05-10T14:15:32Z</time>
      </trkpt>
      <trkpt lat="46.03024" lon="5.62076">
        <ele>1081.8</ele>
        <time>2026-05-10T14:15:33Z</time>
      </trkpt>
      <trkpt lat="46.03022" lon="5.62076">
        <ele>1081.8</ele>
        <time>2026-05-10T14:15:34Z</time>
      </trkpt>
      <trkpt lat="46.0302" lon="5.62076">
        <ele>1081.8</ele>
        <time>2026-05-10T14:15:35Z</time>
      </trkpt>
      <trkpt lat="46.03019" lon="5.62076">
        <ele>1082</ele>
        <time>2026-05-10T14:15:36Z</time>
      </trkpt>
      <trkpt lat="46.03017" lon="5.62077">
        <ele>1082</ele>
        <time>2026-05-10T14:15:37Z</time>
      </trkpt>
      <trkpt lat="46.03015" lon="5.62078">
        <ele>1082.2</ele>
        <time>2026-05-10T14:15:38Z</time>
      </trkpt>
      <trkpt lat="46.03014" lon="5.62078">
        <ele>1082.2</ele>
        <time>2026-05-10T14:15:39Z</time>
      </trkpt>
      <trkpt lat="46.0301" lon="5.62079">
        <ele>1082.2</ele>
        <time>2026-05-10T14:15:40Z</time>
      </trkpt>
      <trkpt lat="46.03008" lon="5.62079">
        <ele>1082.6</ele>
        <time>2026-05-10T14:15:41Z</time>
      </trkpt>
      <trkpt lat="46.03007" lon="5.62078">
        <ele>1082.6</ele>
        <time>2026-05-10T14:15:42Z</time>
      </trkpt>
      <trkpt lat="46.03005" lon="5.62079">
        <ele>1082.8</ele>
        <time>2026-05-10T14:15:43Z</time>
      </trkpt>
      <trkpt lat="46.03003" lon="5.62079">
        <ele>1082.8</ele>
        <time>2026-05-10T14:15:44Z</time>
      </trkpt>
      <trkpt lat="46.03002" lon="5.62079">
        <ele>1082.8</ele>
        <time>2026-05-10T14:15:45Z</time>
      </trkpt>
      <trkpt lat="46.03001" lon="5.62079">
        <ele>1082.8</ele>
        <time>2026-05-10T14:15:46Z</time>
      </trkpt>
      <trkpt lat="46.02999" lon="5.62078">
        <ele>1083.2</ele>
        <time>2026-05-10T14:15:47Z</time>
      </trkpt>
      <trkpt lat="46.02997" lon="5.62078">
        <ele>1083.2</ele>
        <time>2026-05-10T14:15:48Z</time>
      </trkpt>
      <trkpt lat="46.02996" lon="5.62078">
        <ele>1083.2</ele>
        <time>2026-05-10T14:15:49Z</time>
      </trkpt>
      <trkpt lat="46.02994" lon="5.62079">
        <ele>1083.4</ele>
        <time>2026-05-10T14:15:50Z</time>
      </trkpt>
      <trkpt lat="46.02993" lon="5.62079">
        <ele>1083.4</ele>
        <time>2026-05-10T14:15:51Z</time>
      </trkpt>
      <trkpt lat="46.02991" lon="5.62079">
        <ele>1083.8</ele>
        <time>2026-05-10T14:15:52Z</time>
      </trkpt>
      <trkpt lat="46.0299" lon="5.62079">
        <ele>1083.8</ele>
        <time>2026-05-10T14:15:53Z</time>
      </trkpt>
      <trkpt lat="46.02988" lon="5.62079">
        <ele>1083.8</ele>
        <time>2026-05-10T14:15:54Z</time>
      </trkpt>
      <trkpt lat="46.02987" lon="5.62079">
        <ele>1084.2</ele>
        <time>2026-05-10T14:15:55Z</time>
      </trkpt>
      <trkpt lat="46.02985" lon="5.62079">
        <ele>1084.2</ele>
        <time>2026-05-10T14:15:56Z</time>
      </trkpt>
      <trkpt lat="46.02984" lon="5.62079">
        <ele>1084.4</ele>
        <time>2026-05-10T14:15:57Z</time>
      </trkpt>
      <trkpt lat="46.02982" lon="5.62078">
        <ele>1084.4</ele>
        <time>2026-05-10T14:15:58Z</time>
      </trkpt>
      <trkpt lat="46.0298" lon="5.62078">
        <ele>1084.8</ele>
        <time>2026-05-10T14:15:59Z</time>
      </trkpt>
      <trkpt lat="46.02979" lon="5.62078">
        <ele>1085</ele>
        <time>2026-05-10T14:16:00Z</time>
      </trkpt>
      <trkpt lat="46.02977" lon="5.62078">
        <ele>1085</ele>
        <time>2026-05-10T14:16:01Z</time>
      </trkpt>
      <trkpt lat="46.02975" lon="5.62078">
        <ele>1085.2</ele>
        <time>2026-05-10T14:16:02Z</time>
      </trkpt>
      <trkpt lat="46.02973" lon="5.62078">
        <ele>1085.6</ele>
        <time>2026-05-10T14:16:03Z</time>
      </trkpt>
      <trkpt lat="46.02971" lon="5.62078">
        <ele>1085.8</ele>
        <time>2026-05-10T14:16:04Z</time>
      </trkpt>
      <trkpt lat="46.0297" lon="5.62078">
        <ele>1085.8</ele>
        <time>2026-05-10T14:16:05Z</time>
      </trkpt>
      <trkpt lat="46.02968" lon="5.62079">
        <ele>1086.2</ele>
        <time>2026-05-10T14:16:06Z</time>
      </trkpt>
      <trkpt lat="46.02966" lon="5.62079">
        <ele>1086.2</ele>
        <time>2026-05-10T14:16:07Z</time>
      </trkpt>
      <trkpt lat="46.02964" lon="5.62079">
        <ele>1086.2</ele>
        <time>2026-05-10T14:16:08Z</time>
      </trkpt>
      <trkpt lat="46.02962" lon="5.62078">
        <ele>1086.2</ele>
        <time>2026-05-10T14:16:09Z</time>
      </trkpt>
      <trkpt lat="46.0296" lon="5.62078">
        <ele>1086.2</ele>
        <time>2026-05-10T14:16:10Z</time>
      </trkpt>
      <trkpt lat="46.02958" lon="5.62078">
        <ele>1086.4</ele>
        <time>2026-05-10T14:16:11Z</time>
      </trkpt>
      <trkpt lat="46.02957" lon="5.62078">
        <ele>1086.4</ele>
        <time>2026-05-10T14:16:12Z</time>
      </trkpt>
      <trkpt lat="46.02955" lon="5.62077">
        <ele>1086.4</ele>
        <time>2026-05-10T14:16:13Z</time>
      </trkpt>
      <trkpt lat="46.02953" lon="5.62076">
        <ele>1086.4</ele>
        <time>2026-05-10T14:16:14Z</time>
      </trkpt>
      <trkpt lat="46.02951" lon="5.62075">
        <ele>1086.4</ele>
        <time>2026-05-10T14:16:15Z</time>
      </trkpt>
      <trkpt lat="46.02949" lon="5.62074">
        <ele>1086.4</ele>
        <time>2026-05-10T14:16:16Z</time>
      </trkpt>
      <trkpt lat="46.02948" lon="5.62074">
        <ele>1086.4</ele>
        <time>2026-05-10T14:16:17Z</time>
      </trkpt>
      <trkpt lat="46.02946" lon="5.62074">
        <ele>1086.4</ele>
        <time>2026-05-10T14:16:18Z</time>
      </trkpt>
      <trkpt lat="46.02944" lon="5.62074">
        <ele>1086.4</ele>
        <time>2026-05-10T14:16:19Z</time>
      </trkpt>
      <trkpt lat="46.02943" lon="5.62075">
        <ele>1086.4</ele>
        <time>2026-05-10T14:16:20Z</time>
      </trkpt>
      <trkpt lat="46.02941" lon="5.62075">
        <ele>1086.4</ele>
        <time>2026-05-10T14:16:21Z</time>
      </trkpt>
      <trkpt lat="46.0294" lon="5.62076">
        <ele>1086.4</ele>
        <time>2026-05-10T14:16:22Z</time>
      </trkpt>
      <trkpt lat="46.02939" lon="5.62077">
        <ele>1086.6</ele>
        <time>2026-05-10T14:16:23Z</time>
      </trkpt>
      <trkpt lat="46.02938" lon="5.62077">
        <ele>1086.6</ele>
        <time>2026-05-10T14:16:24Z</time>
      </trkpt>
      <trkpt lat="46.02936" lon="5.62077">
        <ele>1086.6</ele>
        <time>2026-05-10T14:16:25Z</time>
      </trkpt>
      <trkpt lat="46.02934" lon="5.62078">
        <ele>1087</ele>
        <time>2026-05-10T14:16:26Z</time>
      </trkpt>
      <trkpt lat="46.02933" lon="5.62079">
        <ele>1087</ele>
        <time>2026-05-10T14:16:27Z</time>
      </trkpt>
      <trkpt lat="46.02932" lon="5.62079">
        <ele>1087.4</ele>
        <time>2026-05-10T14:16:28Z</time>
      </trkpt>
      <trkpt lat="46.02931" lon="5.6208">
        <ele>1087.6</ele>
        <time>2026-05-10T14:16:29Z</time>
      </trkpt>
      <trkpt lat="46.02929" lon="5.6208">
        <ele>1088</ele>
        <time>2026-05-10T14:16:30Z</time>
      </trkpt>
      <trkpt lat="46.02928" lon="5.62081">
        <ele>1088.4</ele>
        <time>2026-05-10T14:16:31Z</time>
      </trkpt>
      <trkpt lat="46.02926" lon="5.62081">
        <ele>1088.4</ele>
        <time>2026-05-10T14:16:32Z</time>
      </trkpt>
      <trkpt lat="46.02925" lon="5.62081">
        <ele>1088.6</ele>
        <time>2026-05-10T14:16:33Z</time>
      </trkpt>
      <trkpt lat="46.02923" lon="5.62081">
        <ele>1088.8</ele>
        <time>2026-05-10T14:16:34Z</time>
      </trkpt>
      <trkpt lat="46.02922" lon="5.62081">
        <ele>1089.4</ele>
        <time>2026-05-10T14:16:35Z</time>
      </trkpt>
      <trkpt lat="46.02921" lon="5.6208">
        <ele>1089.4</ele>
        <time>2026-05-10T14:16:36Z</time>
      </trkpt>
      <trkpt lat="46.02921" lon="5.6208">
        <ele>1089.4</ele>
        <time>2026-05-10T14:16:37Z</time>
      </trkpt>
      <trkpt lat="46.02921" lon="5.6208">
        <ele>1089.4</ele>
        <time>2026-05-10T14:16:38Z</time>
      </trkpt>
      <trkpt lat="46.02921" lon="5.6208">
        <ele>1089.6</ele>
        <time>2026-05-10T14:16:39Z</time>
      </trkpt>
      <trkpt lat="46.02916" lon="5.62078">
        <ele>1089.6</ele>
        <time>2026-05-10T14:16:41Z</time>
      </trkpt>
      <trkpt lat="46.02914" lon="5.62077">
        <ele>1089.6</ele>
        <time>2026-05-10T14:16:42Z</time>
      </trkpt>
      <trkpt lat="46.02912" lon="5.62076">
        <ele>1089</ele>
        <time>2026-05-10T14:16:43Z</time>
      </trkpt>
      <trkpt lat="46.0291" lon="5.62074">
        <ele>1088.8</ele>
        <time>2026-05-10T14:16:44Z</time>
      </trkpt>
      <trkpt lat="46.02909" lon="5.62073">
        <ele>1088.8</ele>
        <time>2026-05-10T14:16:45Z</time>
      </trkpt>
      <trkpt lat="46.02906" lon="5.62072">
        <ele>1088.2</ele>
        <time>2026-05-10T14:16:46Z</time>
      </trkpt>
      <trkpt lat="46.02904" lon="5.6207">
        <ele>1088</ele>
        <time>2026-05-10T14:16:47Z</time>
      </trkpt>
      <trkpt lat="46.02901" lon="5.62068">
        <ele>1087.8</ele>
        <time>2026-05-10T14:16:48Z</time>
      </trkpt>
      <trkpt lat="46.02899" lon="5.62067">
        <ele>1087.8</ele>
        <time>2026-05-10T14:16:49Z</time>
      </trkpt>
      <trkpt lat="46.02897" lon="5.62066">
        <ele>1086.4</ele>
        <time>2026-05-10T14:16:50Z</time>
      </trkpt>
      <trkpt lat="46.02895" lon="5.62065">
        <ele>1085.8</ele>
        <time>2026-05-10T14:16:51Z</time>
      </trkpt>
      <trkpt lat="46.02889" lon="5.62062">
        <ele>1085.2</ele>
        <time>2026-05-10T14:16:52Z</time>
      </trkpt>
      <trkpt lat="46.02886" lon="5.62061">
        <ele>1085.2</ele>
        <time>2026-05-10T14:16:53Z</time>
      </trkpt>
      <trkpt lat="46.02883" lon="5.62062">
        <ele>1085.2</ele>
        <time>2026-05-10T14:16:54Z</time>
      </trkpt>
      <trkpt lat="46.0288" lon="5.62063">
        <ele>1085.2</ele>
        <time>2026-05-10T14:16:55Z</time>
      </trkpt>
      <trkpt lat="46.02877" lon="5.62064">
        <ele>1084.8</ele>
        <time>2026-05-10T14:16:56Z</time>
      </trkpt>
      <trkpt lat="46.02873" lon="5.62065">
        <ele>1084.4</ele>
        <time>2026-05-10T14:16:57Z</time>
      </trkpt>
      <trkpt lat="46.0287" lon="5.62066">
        <ele>1084.4</ele>
        <time>2026-05-10T14:16:58Z</time>
      </trkpt>
      <trkpt lat="46.0287" lon="5.62066">
        <ele>1084.4</ele>
        <time>2026-05-10T14:16:59Z</time>
      </trkpt>
      <trkpt lat="46.02867" lon="5.62066">
        <ele>1084.2</ele>
        <time>2026-05-10T14:17:00Z</time>
      </trkpt>
      <trkpt lat="46.02865" lon="5.62066">
        <ele>1084.2</ele>
        <time>2026-05-10T14:17:01Z</time>
      </trkpt>
      <trkpt lat="46.02861" lon="5.62067">
        <ele>1084.2</ele>
        <time>2026-05-10T14:17:02Z</time>
      </trkpt>
      <trkpt lat="46.02859" lon="5.62067">
        <ele>1084.2</ele>
        <time>2026-05-10T14:17:03Z</time>
      </trkpt>
      <trkpt lat="46.02857" lon="5.62067">
        <ele>1084.2</ele>
        <time>2026-05-10T14:17:04Z</time>
      </trkpt>
      <trkpt lat="46.02856" lon="5.62067">
        <ele>1084.4</ele>
        <time>2026-05-10T14:17:05Z</time>
      </trkpt>
      <trkpt lat="46.02854" lon="5.62067">
        <ele>1084.8</ele>
        <time>2026-05-10T14:17:06Z</time>
      </trkpt>
      <trkpt lat="46.02852" lon="5.62068">
        <ele>1084.8</ele>
        <time>2026-05-10T14:17:07Z</time>
      </trkpt>
      <trkpt lat="46.02851" lon="5.62068">
        <ele>1085</ele>
        <time>2026-05-10T14:17:08Z</time>
      </trkpt>
      <trkpt lat="46.02849" lon="5.62068">
        <ele>1085</ele>
        <time>2026-05-10T14:17:09Z</time>
      </trkpt>
      <trkpt lat="46.02847" lon="5.62068">
        <ele>1085</ele>
        <time>2026-05-10T14:17:10Z</time>
      </trkpt>
      <trkpt lat="46.02846" lon="5.62068">
        <ele>1085</ele>
        <time>2026-05-10T14:17:11Z</time>
      </trkpt>
      <trkpt lat="46.02844" lon="5.62069">
        <ele>1085</ele>
        <time>2026-05-10T14:17:12Z</time>
      </trkpt>
      <trkpt lat="46.02841" lon="5.62069">
        <ele>1085.4</ele>
        <time>2026-05-10T14:17:13Z</time>
      </trkpt>
      <trkpt lat="46.0284" lon="5.6207">
        <ele>1085.4</ele>
        <time>2026-05-10T14:17:14Z</time>
      </trkpt>
      <trkpt lat="46.02838" lon="5.6207">
        <ele>1085.4</ele>
        <time>2026-05-10T14:17:15Z</time>
      </trkpt>
      <trkpt lat="46.02837" lon="5.62072">
        <ele>1085.4</ele>
        <time>2026-05-10T14:17:16Z</time>
      </trkpt>
      <trkpt lat="46.02834" lon="5.62073">
        <ele>1085.4</ele>
        <time>2026-05-10T14:17:17Z</time>
      </trkpt>
      <trkpt lat="46.02832" lon="5.62073">
        <ele>1085.4</ele>
        <time>2026-05-10T14:17:18Z</time>
      </trkpt>
      <trkpt lat="46.02831" lon="5.62073">
        <ele>1085.6</ele>
        <time>2026-05-10T14:17:19Z</time>
      </trkpt>
      <trkpt lat="46.0283" lon="5.62073">
        <ele>1085.6</ele>
        <time>2026-05-10T14:17:20Z</time>
      </trkpt>
      <trkpt lat="46.0283" lon="5.62073">
        <ele>1085.6</ele>
        <time>2026-05-10T14:17:21Z</time>
      </trkpt>
      <trkpt lat="46.0283" lon="5.62073">
        <ele>1085.8</ele>
        <time>2026-05-10T14:17:22Z</time>
      </trkpt>
      <trkpt lat="46.0283" lon="5.62072">
        <ele>1085.8</ele>
        <time>2026-05-10T14:17:23Z</time>
      </trkpt>
      <trkpt lat="46.0283" lon="5.62072">
        <ele>1086</ele>
        <time>2026-05-10T14:17:24Z</time>
      </trkpt>
      <trkpt lat="46.02829" lon="5.62072">
        <ele>1086</ele>
        <time>2026-05-10T14:17:25Z</time>
      </trkpt>
      <trkpt lat="46.02828" lon="5.62072">
        <ele>1086</ele>
        <time>2026-05-10T14:17:26Z</time>
      </trkpt>
      <trkpt lat="46.02827" lon="5.62072">
        <ele>1086.2</ele>
        <time>2026-05-10T14:17:27Z</time>
      </trkpt>
      <trkpt lat="46.02825" lon="5.62072">
        <ele>1086.2</ele>
        <time>2026-05-10T14:17:28Z</time>
      </trkpt>
      <trkpt lat="46.02824" lon="5.62072">
        <ele>1086.8</ele>
        <time>2026-05-10T14:17:29Z</time>
      </trkpt>
      <trkpt lat="46.02824" lon="5.62072">
        <ele>1086.8</ele>
        <time>2026-05-10T14:17:30Z</time>
      </trkpt>
      <trkpt lat="46.02823" lon="5.62072">
        <ele>1086.8</ele>
        <time>2026-05-10T14:17:31Z</time>
      </trkpt>
      <trkpt lat="46.02823" lon="5.62073">
        <ele>1087.2</ele>
        <time>2026-05-10T14:17:32Z</time>
      </trkpt>
      <trkpt lat="46.02823" lon="5.62073">
        <ele>1087.2</ele>
        <time>2026-05-10T14:17:33Z</time>
      </trkpt>
      <trkpt lat="46.02823" lon="5.62074">
        <ele>1087.2</ele>
        <time>2026-05-10T14:17:34Z</time>
      </trkpt>
      <trkpt lat="46.02824" lon="5.62075">
        <ele>1087.6</ele>
        <time>2026-05-10T14:17:35Z</time>
      </trkpt>
      <trkpt lat="46.02824" lon="5.62076">
        <ele>1087.8</ele>
        <time>2026-05-10T14:17:36Z</time>
      </trkpt>
      <trkpt lat="46.02825" lon="5.62076">
        <ele>1087.8</ele>
        <time>2026-05-10T14:17:37Z</time>
      </trkpt>
      <trkpt lat="46.02824" lon="5.62076">
        <ele>1088.6</ele>
        <time>2026-05-10T14:17:46Z</time>
      </trkpt>
      <trkpt lat="46.02823" lon="5.62077">
        <ele>1089</ele>
        <time>2026-05-10T14:17:47Z</time>
      </trkpt>
      <trkpt lat="46.02821" lon="5.62077">
        <ele>1089.4</ele>
        <time>2026-05-10T14:17:48Z</time>
      </trkpt>
      <trkpt lat="46.0282" lon="5.62076">
        <ele>1089.6</ele>
        <time>2026-05-10T14:17:49Z</time>
      </trkpt>
      <trkpt lat="46.02819" lon="5.62076">
        <ele>1089.6</ele>
        <time>2026-05-10T14:17:50Z</time>
      </trkpt>
      <trkpt lat="46.02819" lon="5.62075">
        <ele>1090</ele>
        <time>2026-05-10T14:17:51Z</time>
      </trkpt>
      <trkpt lat="46.02818" lon="5.62075">
        <ele>1090.2</ele>
        <time>2026-05-10T14:17:52Z</time>
      </trkpt>
      <trkpt lat="46.02817" lon="5.62075">
        <ele>1090.4</ele>
        <time>2026-05-10T14:17:53Z</time>
      </trkpt>
      <trkpt lat="46.02815" lon="5.62074">
        <ele>1090.4</ele>
        <time>2026-05-10T14:17:54Z</time>
      </trkpt>
      <trkpt lat="46.02813" lon="5.62074">
        <ele>1090.4</ele>
        <time>2026-05-10T14:17:55Z</time>
      </trkpt>
      <trkpt lat="46.02812" lon="5.62075">
        <ele>1090.8</ele>
        <time>2026-05-10T14:17:56Z</time>
      </trkpt>
      <trkpt lat="46.02811" lon="5.62076">
        <ele>1090.8</ele>
        <time>2026-05-10T14:17:57Z</time>
      </trkpt>
      <trkpt lat="46.02811" lon="5.62077">
        <ele>1090.8</ele>
        <time>2026-05-10T14:17:58Z</time>
      </trkpt>
      <trkpt lat="46.02811" lon="5.62078">
        <ele>1091.2</ele>
        <time>2026-05-10T14:17:59Z</time>
      </trkpt>
      <trkpt lat="46.02811" lon="5.62078">
        <ele>1091.4</ele>
        <time>2026-05-10T14:18:00Z</time>
      </trkpt>
      <trkpt lat="46.0281" lon="5.62079">
        <ele>1091.4</ele>
        <time>2026-05-10T14:18:01Z</time>
      </trkpt>
      <trkpt lat="46.02809" lon="5.62079">
        <ele>1091.8</ele>
        <time>2026-05-10T14:18:02Z</time>
      </trkpt>
      <trkpt lat="46.02808" lon="5.6208">
        <ele>1091.8</ele>
        <time>2026-05-10T14:18:03Z</time>
      </trkpt>
      <trkpt lat="46.02807" lon="5.6208">
        <ele>1092</ele>
        <time>2026-05-10T14:18:04Z</time>
      </trkpt>
      <trkpt lat="46.02806" lon="5.62081">
        <ele>1092</ele>
        <time>2026-05-10T14:18:05Z</time>
      </trkpt>
      <trkpt lat="46.02806" lon="5.62081">
        <ele>1092</ele>
        <time>2026-05-10T14:18:06Z</time>
      </trkpt>
      <trkpt lat="46.02806" lon="5.62082">
        <ele>1092.2</ele>
        <time>2026-05-10T14:18:07Z</time>
      </trkpt>
      <trkpt lat="46.02805" lon="5.62082">
        <ele>1092.8</ele>
        <time>2026-05-10T14:18:08Z</time>
      </trkpt>
      <trkpt lat="46.02804" lon="5.62083">
        <ele>1092.8</ele>
        <time>2026-05-10T14:18:09Z</time>
      </trkpt>
      <trkpt lat="46.02803" lon="5.62083">
        <ele>1092.8</ele>
        <time>2026-05-10T14:18:10Z</time>
      </trkpt>
      <trkpt lat="46.02802" lon="5.62084">
        <ele>1092.8</ele>
        <time>2026-05-10T14:18:11Z</time>
      </trkpt>
      <trkpt lat="46.02801" lon="5.62085">
        <ele>1092.8</ele>
        <time>2026-05-10T14:18:12Z</time>
      </trkpt>
      <trkpt lat="46.028" lon="5.62085">
        <ele>1092.8</ele>
        <time>2026-05-10T14:18:13Z</time>
      </trkpt>
      <trkpt lat="46.028" lon="5.62085">
        <ele>1092.8</ele>
        <time>2026-05-10T14:18:14Z</time>
      </trkpt>
      <trkpt lat="46.02796" lon="5.62082">
        <ele>1093.4</ele>
        <time>2026-05-10T14:18:35Z</time>
      </trkpt>
      <trkpt lat="46.02796" lon="5.62082">
        <ele>1093.4</ele>
        <time>2026-05-10T14:18:36Z</time>
      </trkpt>
      <trkpt lat="46.02796" lon="5.62082">
        <ele>1093.4</ele>
        <time>2026-05-10T14:18:37Z</time>
      </trkpt>
      <trkpt lat="46.02794" lon="5.62079">
        <ele>1093.2</ele>
        <time>2026-05-10T14:18:58Z</time>
      </trkpt>
      <trkpt lat="46.02794" lon="5.62079">
        <ele>1093.2</ele>
        <time>2026-05-10T14:18:59Z</time>
      </trkpt>
      <trkpt lat="46.02793" lon="5.6208">
        <ele>1093.2</ele>
        <time>2026-05-10T14:19:00Z</time>
      </trkpt>
      <trkpt lat="46.02793" lon="5.62081">
        <ele>1093.2</ele>
        <time>2026-05-10T14:19:01Z</time>
      </trkpt>
      <trkpt lat="46.02793" lon="5.62082">
        <ele>1093.2</ele>
        <time>2026-05-10T14:19:02Z</time>
      </trkpt>
      <trkpt lat="46.02793" lon="5.62082">
        <ele>1093.2</ele>
        <time>2026-05-10T14:19:03Z</time>
      </trkpt>
      <trkpt lat="46.02792" lon="5.62081">
        <ele>1093.2</ele>
        <time>2026-05-10T14:19:04Z</time>
      </trkpt>
      <trkpt lat="46.0279" lon="5.62081">
        <ele>1093.2</ele>
        <time>2026-05-10T14:19:05Z</time>
      </trkpt>
      <trkpt lat="46.02788" lon="5.6208">
        <ele>1093.6</ele>
        <time>2026-05-10T14:19:06Z</time>
      </trkpt>
      <trkpt lat="46.02786" lon="5.62079">
        <ele>1093.6</ele>
        <time>2026-05-10T14:19:07Z</time>
      </trkpt>
      <trkpt lat="46.02784" lon="5.62078">
        <ele>1093.8</ele>
        <time>2026-05-10T14:19:08Z</time>
      </trkpt>
      <trkpt lat="46.02783" lon="5.62079">
        <ele>1093.8</ele>
        <time>2026-05-10T14:19:09Z</time>
      </trkpt>
      <trkpt lat="46.02781" lon="5.6208">
        <ele>1093.8</ele>
        <time>2026-05-10T14:19:10Z</time>
      </trkpt>
      <trkpt lat="46.0278" lon="5.62081">
        <ele>1093.4</ele>
        <time>2026-05-10T14:19:11Z</time>
      </trkpt>
      <trkpt lat="46.02779" lon="5.62081">
        <ele>1093.4</ele>
        <time>2026-05-10T14:19:12Z</time>
      </trkpt>
      <trkpt lat="46.02777" lon="5.62082">
        <ele>1093.4</ele>
        <time>2026-05-10T14:19:13Z</time>
      </trkpt>
      <trkpt lat="46.02776" lon="5.62083">
        <ele>1093</ele>
        <time>2026-05-10T14:19:14Z</time>
      </trkpt>
      <trkpt lat="46.0277" lon="5.62079">
        <ele>1093</ele>
        <time>2026-05-10T14:19:15Z</time>
      </trkpt>
      <trkpt lat="46.0277" lon="5.62079">
        <ele>1092.8</ele>
        <time>2026-05-10T14:19:16Z</time>
      </trkpt>
      <trkpt lat="46.02768" lon="5.62077">
        <ele>1092.8</ele>
        <time>2026-05-10T14:19:17Z</time>
      </trkpt>
      <trkpt lat="46.02764" lon="5.62076">
        <ele>1092.8</ele>
        <time>2026-05-10T14:19:18Z</time>
      </trkpt>
      <trkpt lat="46.02765" lon="5.62078">
        <ele>1092.6</ele>
        <time>2026-05-10T14:19:19Z</time>
      </trkpt>
      <trkpt lat="46.02762" lon="5.62077">
        <ele>1092.2</ele>
        <time>2026-05-10T14:19:20Z</time>
      </trkpt>
      <trkpt lat="46.02761" lon="5.62077">
        <ele>1092.4</ele>
        <time>2026-05-10T14:19:21Z</time>
      </trkpt>
      <trkpt lat="46.02758" lon="5.62078">
        <ele>1092.4</ele>
        <time>2026-05-10T14:19:22Z</time>
      </trkpt>
      <trkpt lat="46.02756" lon="5.62078">
        <ele>1092.8</ele>
        <time>2026-05-10T14:19:23Z</time>
      </trkpt>
      <trkpt lat="46.02754" lon="5.62078">
        <ele>1092.8</ele>
        <time>2026-05-10T14:19:24Z</time>
      </trkpt>
      <trkpt lat="46.02752" lon="5.62078">
        <ele>1092.8</ele>
        <time>2026-05-10T14:19:25Z</time>
      </trkpt>
      <trkpt lat="46.0275" lon="5.62079">
        <ele>1093.2</ele>
        <time>2026-05-10T14:19:26Z</time>
      </trkpt>
      <trkpt lat="46.02748" lon="5.6208">
        <ele>1093.4</ele>
        <time>2026-05-10T14:19:27Z</time>
      </trkpt>
      <trkpt lat="46.02746" lon="5.6208">
        <ele>1093.4</ele>
        <time>2026-05-10T14:19:28Z</time>
      </trkpt>
      <trkpt lat="46.02745" lon="5.6208">
        <ele>1093.4</ele>
        <time>2026-05-10T14:19:29Z</time>
      </trkpt>
      <trkpt lat="46.02742" lon="5.62081">
        <ele>1092.8</ele>
        <time>2026-05-10T14:19:30Z</time>
      </trkpt>
      <trkpt lat="46.02738" lon="5.62081">
        <ele>1092</ele>
        <time>2026-05-10T14:19:31Z</time>
      </trkpt>
      <trkpt lat="46.02735" lon="5.62081">
        <ele>1092</ele>
        <time>2026-05-10T14:19:32Z</time>
      </trkpt>
      <trkpt lat="46.02731" lon="5.62082">
        <ele>1092</ele>
        <time>2026-05-10T14:19:33Z</time>
      </trkpt>
      <trkpt lat="46.02728" lon="5.62084">
        <ele>1091.8</ele>
        <time>2026-05-10T14:19:34Z</time>
      </trkpt>
      <trkpt lat="46.02724" lon="5.62086">
        <ele>1091.4</ele>
        <time>2026-05-10T14:19:35Z</time>
      </trkpt>
      <trkpt lat="46.02721" lon="5.62086">
        <ele>1091.2</ele>
        <time>2026-05-10T14:19:36Z</time>
      </trkpt>
      <trkpt lat="46.02718" lon="5.62084">
        <ele>1091.2</ele>
        <time>2026-05-10T14:19:37Z</time>
      </trkpt>
      <trkpt lat="46.02716" lon="5.62082">
        <ele>1091.2</ele>
        <time>2026-05-10T14:19:38Z</time>
      </trkpt>
      <trkpt lat="46.02713" lon="5.6208">
        <ele>1090.8</ele>
        <time>2026-05-10T14:19:39Z</time>
      </trkpt>
      <trkpt lat="46.0271" lon="5.62079">
        <ele>1090.8</ele>
        <time>2026-05-10T14:19:40Z</time>
      </trkpt>
      <trkpt lat="46.02707" lon="5.62079">
        <ele>1090.8</ele>
        <time>2026-05-10T14:19:41Z</time>
      </trkpt>
      <trkpt lat="46.02705" lon="5.6208">
        <ele>1090.8</ele>
        <time>2026-05-10T14:19:42Z</time>
      </trkpt>
      <trkpt lat="46.02703" lon="5.62081">
        <ele>1090.6</ele>
        <time>2026-05-10T14:19:43Z</time>
      </trkpt>
      <trkpt lat="46.02701" lon="5.62081">
        <ele>1090.6</ele>
        <time>2026-05-10T14:19:44Z</time>
      </trkpt>
      <trkpt lat="46.02699" lon="5.62082">
        <ele>1090.6</ele>
        <time>2026-05-10T14:19:45Z</time>
      </trkpt>
      <trkpt lat="46.02696" lon="5.62083">
        <ele>1090.6</ele>
        <time>2026-05-10T14:19:46Z</time>
      </trkpt>
      <trkpt lat="46.02693" lon="5.62083">
        <ele>1090.6</ele>
        <time>2026-05-10T14:19:47Z</time>
      </trkpt>
      <trkpt lat="46.02692" lon="5.62081">
        <ele>1091.2</ele>
        <time>2026-05-10T14:19:48Z</time>
      </trkpt>
      <trkpt lat="46.0269" lon="5.6208">
        <ele>1091.4</ele>
        <time>2026-05-10T14:19:49Z</time>
      </trkpt>
      <trkpt lat="46.02688" lon="5.6208">
        <ele>1091.6</ele>
        <time>2026-05-10T14:19:50Z</time>
      </trkpt>
      <trkpt lat="46.02686" lon="5.62081">
        <ele>1091.6</ele>
        <time>2026-05-10T14:19:51Z</time>
      </trkpt>
      <trkpt lat="46.02685" lon="5.62083">
        <ele>1092</ele>
        <time>2026-05-10T14:19:52Z</time>
      </trkpt>
      <trkpt lat="46.02683" lon="5.62085">
        <ele>1092</ele>
        <time>2026-05-10T14:19:53Z</time>
      </trkpt>
      <trkpt lat="46.02681" lon="5.62086">
        <ele>1092.2</ele>
        <time>2026-05-10T14:19:54Z</time>
      </trkpt>
      <trkpt lat="46.02679" lon="5.62088">
        <ele>1092.6</ele>
        <time>2026-05-10T14:19:55Z</time>
      </trkpt>
      <trkpt lat="46.02678" lon="5.62089">
        <ele>1093</ele>
        <time>2026-05-10T14:19:56Z</time>
      </trkpt>
      <trkpt lat="46.02676" lon="5.6209">
        <ele>1093</ele>
        <time>2026-05-10T14:19:57Z</time>
      </trkpt>
      <trkpt lat="46.02675" lon="5.62091">
        <ele>1093.2</ele>
        <time>2026-05-10T14:19:58Z</time>
      </trkpt>
      <trkpt lat="46.02674" lon="5.62091">
        <ele>1093.2</ele>
        <time>2026-05-10T14:19:59Z</time>
      </trkpt>
      <trkpt lat="46.02673" lon="5.62093">
        <ele>1093.2</ele>
        <time>2026-05-10T14:20:00Z</time>
      </trkpt>
      <trkpt lat="46.02671" lon="5.62094">
        <ele>1093.2</ele>
        <time>2026-05-10T14:20:01Z</time>
      </trkpt>
      <trkpt lat="46.02669" lon="5.62095">
        <ele>1093.2</ele>
        <time>2026-05-10T14:20:02Z</time>
      </trkpt>
      <trkpt lat="46.02667" lon="5.62095">
        <ele>1093.2</ele>
        <time>2026-05-10T14:20:03Z</time>
      </trkpt>
      <trkpt lat="46.02665" lon="5.62094">
        <ele>1093.6</ele>
        <time>2026-05-10T14:20:04Z</time>
      </trkpt>
      <trkpt lat="46.02662" lon="5.62093">
        <ele>1093.8</ele>
        <time>2026-05-10T14:20:05Z</time>
      </trkpt>
      <trkpt lat="46.0266" lon="5.62093">
        <ele>1093.8</ele>
        <time>2026-05-10T14:20:06Z</time>
      </trkpt>
      <trkpt lat="46.0266" lon="5.62093">
        <ele>1094</ele>
        <time>2026-05-10T14:20:07Z</time>
      </trkpt>
      <trkpt lat="46.0266" lon="5.62093">
        <ele>1094</ele>
        <time>2026-05-10T14:20:08Z</time>
      </trkpt>
      <trkpt lat="46.02662" lon="5.62094">
        <ele>1093.8</ele>
        <time>2026-05-10T14:20:15Z</time>
      </trkpt>
      <trkpt lat="46.0266" lon="5.62096">
        <ele>1093.8</ele>
        <time>2026-05-10T14:20:16Z</time>
      </trkpt>
      <trkpt lat="46.02658" lon="5.62098">
        <ele>1093.8</ele>
        <time>2026-05-10T14:20:17Z</time>
      </trkpt>
      <trkpt lat="46.02658" lon="5.62099">
        <ele>1094</ele>
        <time>2026-05-10T14:20:18Z</time>
      </trkpt>
      <trkpt lat="46.02657" lon="5.62101">
        <ele>1094</ele>
        <time>2026-05-10T14:20:19Z</time>
      </trkpt>
      <trkpt lat="46.02657" lon="5.62102">
        <ele>1094.2</ele>
        <time>2026-05-10T14:20:20Z</time>
      </trkpt>
      <trkpt lat="46.02656" lon="5.62103">
        <ele>1094.2</ele>
        <time>2026-05-10T14:20:21Z</time>
      </trkpt>
      <trkpt lat="46.02655" lon="5.62103">
        <ele>1094.2</ele>
        <time>2026-05-10T14:20:22Z</time>
      </trkpt>
      <trkpt lat="46.02654" lon="5.62104">
        <ele>1094.6</ele>
        <time>2026-05-10T14:20:23Z</time>
      </trkpt>
      <trkpt lat="46.02653" lon="5.62104">
        <ele>1094.6</ele>
        <time>2026-05-10T14:20:24Z</time>
      </trkpt>
      <trkpt lat="46.02653" lon="5.62105">
        <ele>1094.6</ele>
        <time>2026-05-10T14:20:25Z</time>
      </trkpt>
      <trkpt lat="46.02651" lon="5.62105">
        <ele>1095</ele>
        <time>2026-05-10T14:20:26Z</time>
      </trkpt>
      <trkpt lat="46.0265" lon="5.62105">
        <ele>1095.4</ele>
        <time>2026-05-10T14:20:27Z</time>
      </trkpt>
      <trkpt lat="46.02649" lon="5.62105">
        <ele>1095.6</ele>
        <time>2026-05-10T14:20:28Z</time>
      </trkpt>
      <trkpt lat="46.02647" lon="5.62106">
        <ele>1095.6</ele>
        <time>2026-05-10T14:20:29Z</time>
      </trkpt>
      <trkpt lat="46.02646" lon="5.62107">
        <ele>1096</ele>
        <time>2026-05-10T14:20:30Z</time>
      </trkpt>
      <trkpt lat="46.02644" lon="5.62107">
        <ele>1096.2</ele>
        <time>2026-05-10T14:20:31Z</time>
      </trkpt>
      <trkpt lat="46.02644" lon="5.62108">
        <ele>1096.4</ele>
        <time>2026-05-10T14:20:32Z</time>
      </trkpt>
      <trkpt lat="46.02644" lon="5.62107">
        <ele>1096.4</ele>
        <time>2026-05-10T14:20:33Z</time>
      </trkpt>
      <trkpt lat="46.02643" lon="5.62107">
        <ele>1096.6</ele>
        <time>2026-05-10T14:20:39Z</time>
      </trkpt>
      <trkpt lat="46.02643" lon="5.62107">
        <ele>1096.6</ele>
        <time>2026-05-10T14:20:40Z</time>
      </trkpt>
      <trkpt lat="46.02642" lon="5.62107">
        <ele>1096.6</ele>
        <time>2026-05-10T14:20:41Z</time>
      </trkpt>
      <trkpt lat="46.02642" lon="5.62108">
        <ele>1097</ele>
        <time>2026-05-10T14:20:42Z</time>
      </trkpt>
      <trkpt lat="46.02642" lon="5.62108">
        <ele>1097.2</ele>
        <time>2026-05-10T14:20:43Z</time>
      </trkpt>
      <trkpt lat="46.0264" lon="5.62109">
        <ele>1097.2</ele>
        <time>2026-05-10T14:20:47Z</time>
      </trkpt>
      <trkpt lat="46.02639" lon="5.6211">
        <ele>1097.2</ele>
        <time>2026-05-10T14:20:48Z</time>
      </trkpt>
      <trkpt lat="46.02638" lon="5.62111">
        <ele>1097.4</ele>
        <time>2026-05-10T14:20:49Z</time>
      </trkpt>
      <trkpt lat="46.02638" lon="5.62112">
        <ele>1097.4</ele>
        <time>2026-05-10T14:20:50Z</time>
      </trkpt>
      <trkpt lat="46.02638" lon="5.62114">
        <ele>1097.6</ele>
        <time>2026-05-10T14:20:51Z</time>
      </trkpt>
      <trkpt lat="46.02638" lon="5.62116">
        <ele>1098</ele>
        <time>2026-05-10T14:20:52Z</time>
      </trkpt>
      <trkpt lat="46.02638" lon="5.62117">
        <ele>1098.2</ele>
        <time>2026-05-10T14:20:53Z</time>
      </trkpt>
      <trkpt lat="46.02639" lon="5.62118">
        <ele>1098.2</ele>
        <time>2026-05-10T14:20:54Z</time>
      </trkpt>
      <trkpt lat="46.02639" lon="5.62119">
        <ele>1098.2</ele>
        <time>2026-05-10T14:20:55Z</time>
      </trkpt>
      <trkpt lat="46.02639" lon="5.6212">
        <ele>1098.6</ele>
        <time>2026-05-10T14:20:56Z</time>
      </trkpt>
      <trkpt lat="46.02639" lon="5.62121">
        <ele>1098.8</ele>
        <time>2026-05-10T14:20:57Z</time>
      </trkpt>
      <trkpt lat="46.02639" lon="5.62122">
        <ele>1098.8</ele>
        <time>2026-05-10T14:20:58Z</time>
      </trkpt>
      <trkpt lat="46.02639" lon="5.62122">
        <ele>1099.2</ele>
        <time>2026-05-10T14:20:59Z</time>
      </trkpt>
      <trkpt lat="46.02638" lon="5.62123">
        <ele>1099.4</ele>
        <time>2026-05-10T14:21:00Z</time>
      </trkpt>
      <trkpt lat="46.02638" lon="5.62123">
        <ele>1099.4</ele>
        <time>2026-05-10T14:21:01Z</time>
      </trkpt>
      <trkpt lat="46.02638" lon="5.62124">
        <ele>1099.4</ele>
        <time>2026-05-10T14:21:02Z</time>
      </trkpt>
      <trkpt lat="46.02639" lon="5.62125">
        <ele>1099.8</ele>
        <time>2026-05-10T14:21:03Z</time>
      </trkpt>
      <trkpt lat="46.02639" lon="5.62125">
        <ele>1099.8</ele>
        <time>2026-05-10T14:21:04Z</time>
      </trkpt>
      <trkpt lat="46.02639" lon="5.62126">
        <ele>1100</ele>
        <time>2026-05-10T14:21:05Z</time>
      </trkpt>
      <trkpt lat="46.02639" lon="5.62126">
        <ele>1100.4</ele>
        <time>2026-05-10T14:21:06Z</time>
      </trkpt>
      <trkpt lat="46.02638" lon="5.62127">
        <ele>1100.4</ele>
        <time>2026-05-10T14:21:07Z</time>
      </trkpt>
      <trkpt lat="46.02638" lon="5.62127">
        <ele>1100.6</ele>
        <time>2026-05-10T14:21:08Z</time>
      </trkpt>
      <trkpt lat="46.02638" lon="5.62128">
        <ele>1100.6</ele>
        <time>2026-05-10T14:21:09Z</time>
      </trkpt>
      <trkpt lat="46.02638" lon="5.62128">
        <ele>1100.8</ele>
        <time>2026-05-10T14:21:10Z</time>
      </trkpt>
      <trkpt lat="46.02638" lon="5.62129">
        <ele>1100.8</ele>
        <time>2026-05-10T14:21:11Z</time>
      </trkpt>
      <trkpt lat="46.02638" lon="5.62129">
        <ele>1100.8</ele>
        <time>2026-05-10T14:21:12Z</time>
      </trkpt>
      <trkpt lat="46.02638" lon="5.62136">
        <ele>1101.6</ele>
        <time>2026-05-10T14:21:23Z</time>
      </trkpt>
      <trkpt lat="46.02639" lon="5.62138">
        <ele>1102</ele>
        <time>2026-05-10T14:21:24Z</time>
      </trkpt>
      <trkpt lat="46.02639" lon="5.6214">
        <ele>1102</ele>
        <time>2026-05-10T14:21:25Z</time>
      </trkpt>
      <trkpt lat="46.02638" lon="5.62141">
        <ele>1102.2</ele>
        <time>2026-05-10T14:21:26Z</time>
      </trkpt>
      <trkpt lat="46.02637" lon="5.62142">
        <ele>1102.4</ele>
        <time>2026-05-10T14:21:27Z</time>
      </trkpt>
      <trkpt lat="46.02636" lon="5.62142">
        <ele>1102.4</ele>
        <time>2026-05-10T14:21:28Z</time>
      </trkpt>
      <trkpt lat="46.02635" lon="5.62143">
        <ele>1102.4</ele>
        <time>2026-05-10T14:21:29Z</time>
      </trkpt>
      <trkpt lat="46.02635" lon="5.62145">
        <ele>1102.4</ele>
        <time>2026-05-10T14:21:30Z</time>
      </trkpt>
      <trkpt lat="46.02635" lon="5.62146">
        <ele>1102.8</ele>
        <time>2026-05-10T14:21:31Z</time>
      </trkpt>
      <trkpt lat="46.02635" lon="5.62146">
        <ele>1102.8</ele>
        <time>2026-05-10T14:21:32Z</time>
      </trkpt>
      <trkpt lat="46.02636" lon="5.62147">
        <ele>1103</ele>
        <time>2026-05-10T14:21:33Z</time>
      </trkpt>
      <trkpt lat="46.02636" lon="5.62148">
        <ele>1103</ele>
        <time>2026-05-10T14:21:34Z</time>
      </trkpt>
      <trkpt lat="46.02637" lon="5.62149">
        <ele>1103</ele>
        <time>2026-05-10T14:21:35Z</time>
      </trkpt>
      <trkpt lat="46.02637" lon="5.6215">
        <ele>1103.4</ele>
        <time>2026-05-10T14:21:36Z</time>
      </trkpt>
      <trkpt lat="46.02637" lon="5.62152">
        <ele>1103.4</ele>
        <time>2026-05-10T14:21:37Z</time>
      </trkpt>
      <trkpt lat="46.02637" lon="5.62154">
        <ele>1103.6</ele>
        <time>2026-05-10T14:21:38Z</time>
      </trkpt>
      <trkpt lat="46.02638" lon="5.62156">
        <ele>1104</ele>
        <time>2026-05-10T14:21:39Z</time>
      </trkpt>
      <trkpt lat="46.02638" lon="5.62156">
        <ele>1104.4</ele>
        <time>2026-05-10T14:21:40Z</time>
      </trkpt>
      <trkpt lat="46.02638" lon="5.62157">
        <ele>1104.4</ele>
        <time>2026-05-10T14:21:41Z</time>
      </trkpt>
      <trkpt lat="46.02638" lon="5.62158">
        <ele>1104.4</ele>
        <time>2026-05-10T14:21:42Z</time>
      </trkpt>
      <trkpt lat="46.02638" lon="5.62159">
        <ele>1104.8</ele>
        <time>2026-05-10T14:21:43Z</time>
      </trkpt>
      <trkpt lat="46.02638" lon="5.62161">
        <ele>1104.8</ele>
        <time>2026-05-10T14:21:44Z</time>
      </trkpt>
      <trkpt lat="46.02638" lon="5.62162">
        <ele>1104.8</ele>
        <time>2026-05-10T14:21:45Z</time>
      </trkpt>
      <trkpt lat="46.02638" lon="5.62163">
        <ele>1105.2</ele>
        <time>2026-05-10T14:21:46Z</time>
      </trkpt>
      <trkpt lat="46.02639" lon="5.62164">
        <ele>1105.4</ele>
        <time>2026-05-10T14:21:47Z</time>
      </trkpt>
      <trkpt lat="46.02639" lon="5.62165">
        <ele>1105.6</ele>
        <time>2026-05-10T14:21:48Z</time>
      </trkpt>
      <trkpt lat="46.02639" lon="5.62165">
        <ele>1105.6</ele>
        <time>2026-05-10T14:21:49Z</time>
      </trkpt>
      <trkpt lat="46.02639" lon="5.62166">
        <ele>1106</ele>
        <time>2026-05-10T14:21:50Z</time>
      </trkpt>
      <trkpt lat="46.02639" lon="5.62167">
        <ele>1106</ele>
        <time>2026-05-10T14:21:51Z</time>
      </trkpt>
      <trkpt lat="46.02639" lon="5.62168">
        <ele>1106.4</ele>
        <time>2026-05-10T14:21:52Z</time>
      </trkpt>
      <trkpt lat="46.02639" lon="5.62168">
        <ele>1106.4</ele>
        <time>2026-05-10T14:21:53Z</time>
      </trkpt>
      <trkpt lat="46.02639" lon="5.62169">
        <ele>1106.6</ele>
        <time>2026-05-10T14:21:54Z</time>
      </trkpt>
      <trkpt lat="46.02638" lon="5.62169">
        <ele>1106.6</ele>
        <time>2026-05-10T14:21:55Z</time>
      </trkpt>
      <trkpt lat="46.02638" lon="5.6217">
        <ele>1107</ele>
        <time>2026-05-10T14:21:56Z</time>
      </trkpt>
      <trkpt lat="46.02637" lon="5.62171">
        <ele>1107.2</ele>
        <time>2026-05-10T14:21:57Z</time>
      </trkpt>
      <trkpt lat="46.02636" lon="5.62172">
        <ele>1107.4</ele>
        <time>2026-05-10T14:21:58Z</time>
      </trkpt>
      <trkpt lat="46.02635" lon="5.62174">
        <ele>1107.4</ele>
        <time>2026-05-10T14:21:59Z</time>
      </trkpt>
      <trkpt lat="46.02633" lon="5.62176">
        <ele>1107.8</ele>
        <time>2026-05-10T14:22:00Z</time>
      </trkpt>
      <trkpt lat="46.02631" lon="5.62177">
        <ele>1107.8</ele>
        <time>2026-05-10T14:22:01Z</time>
      </trkpt>
      <trkpt lat="46.02629" lon="5.62178">
        <ele>1108</ele>
        <time>2026-05-10T14:22:02Z</time>
      </trkpt>
      <trkpt lat="46.02628" lon="5.62179">
        <ele>1108</ele>
        <time>2026-05-10T14:22:03Z</time>
      </trkpt>
      <trkpt lat="46.02627" lon="5.6218">
        <ele>1108.4</ele>
        <time>2026-05-10T14:22:04Z</time>
      </trkpt>
      <trkpt lat="46.02627" lon="5.62181">
        <ele>1108.4</ele>
        <time>2026-05-10T14:22:05Z</time>
      </trkpt>
      <trkpt lat="46.02627" lon="5.62183">
        <ele>1108.6</ele>
        <time>2026-05-10T14:22:06Z</time>
      </trkpt>
      <trkpt lat="46.02629" lon="5.62186">
        <ele>1108.6</ele>
        <time>2026-05-10T14:22:07Z</time>
      </trkpt>
      <trkpt lat="46.02629" lon="5.62187">
        <ele>1108.6</ele>
        <time>2026-05-10T14:22:08Z</time>
      </trkpt>
      <trkpt lat="46.0263" lon="5.62188">
        <ele>1108.8</ele>
        <time>2026-05-10T14:22:09Z</time>
      </trkpt>
      <trkpt lat="46.0263" lon="5.62189">
        <ele>1108.8</ele>
        <time>2026-05-10T14:22:10Z</time>
      </trkpt>
      <trkpt lat="46.0263" lon="5.6219">
        <ele>1109.2</ele>
        <time>2026-05-10T14:22:11Z</time>
      </trkpt>
      <trkpt lat="46.0263" lon="5.62192">
        <ele>1109.2</ele>
        <time>2026-05-10T14:22:12Z</time>
      </trkpt>
      <trkpt lat="46.0263" lon="5.62193">
        <ele>1109.4</ele>
        <time>2026-05-10T14:22:13Z</time>
      </trkpt>
      <trkpt lat="46.0263" lon="5.62194">
        <ele>1109.4</ele>
        <time>2026-05-10T14:22:14Z</time>
      </trkpt>
      <trkpt lat="46.0263" lon="5.62195">
        <ele>1109.8</ele>
        <time>2026-05-10T14:22:15Z</time>
      </trkpt>
      <trkpt lat="46.02631" lon="5.62196">
        <ele>1110</ele>
        <time>2026-05-10T14:22:16Z</time>
      </trkpt>
      <trkpt lat="46.02631" lon="5.62197">
        <ele>1110</ele>
        <time>2026-05-10T14:22:17Z</time>
      </trkpt>
      <trkpt lat="46.0263" lon="5.62197">
        <ele>1110</ele>
        <time>2026-05-10T14:22:18Z</time>
      </trkpt>
      <trkpt lat="46.0263" lon="5.62198">
        <ele>1110.4</ele>
        <time>2026-05-10T14:22:19Z</time>
      </trkpt>
      <trkpt lat="46.02629" lon="5.62199">
        <ele>1110.4</ele>
        <time>2026-05-10T14:22:20Z</time>
      </trkpt>
      <trkpt lat="46.02629" lon="5.62201">
        <ele>1110.8</ele>
        <time>2026-05-10T14:22:21Z</time>
      </trkpt>
      <trkpt lat="46.0263" lon="5.62202">
        <ele>1110.8</ele>
        <time>2026-05-10T14:22:22Z</time>
      </trkpt>
      <trkpt lat="46.0263" lon="5.62203">
        <ele>1111</ele>
        <time>2026-05-10T14:22:23Z</time>
      </trkpt>
      <trkpt lat="46.0263" lon="5.62204">
        <ele>1111.4</ele>
        <time>2026-05-10T14:22:24Z</time>
      </trkpt>
      <trkpt lat="46.02629" lon="5.62204">
        <ele>1111.4</ele>
        <time>2026-05-10T14:22:25Z</time>
      </trkpt>
      <trkpt lat="46.02628" lon="5.62205">
        <ele>1111.4</ele>
        <time>2026-05-10T14:22:26Z</time>
      </trkpt>
      <trkpt lat="46.02627" lon="5.62205">
        <ele>1111.6</ele>
        <time>2026-05-10T14:22:27Z</time>
      </trkpt>
      <trkpt lat="46.02627" lon="5.62206">
        <ele>1111.6</ele>
        <time>2026-05-10T14:22:28Z</time>
      </trkpt>
      <trkpt lat="46.02626" lon="5.62206">
        <ele>1112</ele>
        <time>2026-05-10T14:22:29Z</time>
      </trkpt>
      <trkpt lat="46.02626" lon="5.62207">
        <ele>1112</ele>
        <time>2026-05-10T14:22:30Z</time>
      </trkpt>
      <trkpt lat="46.02626" lon="5.62207">
        <ele>1112.2</ele>
        <time>2026-05-10T14:22:31Z</time>
      </trkpt>
      <trkpt lat="46.02626" lon="5.62207">
        <ele>1112.2</ele>
        <time>2026-05-10T14:22:32Z</time>
      </trkpt>
      <trkpt lat="46.02626" lon="5.62206">
        <ele>1112.6</ele>
        <time>2026-05-10T14:22:33Z</time>
      </trkpt>
      <trkpt lat="46.02622" lon="5.62199">
        <ele>1113</ele>
        <time>2026-05-10T14:22:57Z</time>
      </trkpt>
      <trkpt lat="46.02622" lon="5.62199">
        <ele>1113</ele>
        <time>2026-05-10T14:22:58Z</time>
      </trkpt>
      <trkpt lat="46.02622" lon="5.62199">
        <ele>1113</ele>
        <time>2026-05-10T14:22:59Z</time>
      </trkpt>
      <trkpt lat="46.02621" lon="5.62199">
        <ele>1113</ele>
        <time>2026-05-10T14:23:00Z</time>
      </trkpt>
      <trkpt lat="46.02621" lon="5.62198">
        <ele>1112.8</ele>
        <time>2026-05-10T14:23:01Z</time>
      </trkpt>
      <trkpt lat="46.0262" lon="5.62197">
        <ele>1112.8</ele>
        <time>2026-05-10T14:23:02Z</time>
      </trkpt>
      <trkpt lat="46.0262" lon="5.62196">
        <ele>1112.8</ele>
        <time>2026-05-10T14:23:03Z</time>
      </trkpt>
      <trkpt lat="46.02619" lon="5.62194">
        <ele>1112.8</ele>
        <time>2026-05-10T14:23:04Z</time>
      </trkpt>
      <trkpt lat="46.02617" lon="5.62194">
        <ele>1112.6</ele>
        <time>2026-05-10T14:23:05Z</time>
      </trkpt>
      <trkpt lat="46.02617" lon="5.62194">
        <ele>1112.6</ele>
        <time>2026-05-10T14:23:06Z</time>
      </trkpt>
      <trkpt lat="46.02616" lon="5.62195">
        <ele>1112.6</ele>
        <time>2026-05-10T14:23:07Z</time>
      </trkpt>
      <trkpt lat="46.02615" lon="5.62196">
        <ele>1112.6</ele>
        <time>2026-05-10T14:23:08Z</time>
      </trkpt>
      <trkpt lat="46.02615" lon="5.62197">
        <ele>1112.6</ele>
        <time>2026-05-10T14:23:09Z</time>
      </trkpt>
      <trkpt lat="46.02615" lon="5.62196">
        <ele>1112.6</ele>
        <time>2026-05-10T14:23:10Z</time>
      </trkpt>
      <trkpt lat="46.02622" lon="5.62196">
        <ele>1112.8</ele>
        <time>2026-05-10T14:26:15Z</time>
      </trkpt>
      <trkpt lat="46.02623" lon="5.62196">
        <ele>1112.8</ele>
        <time>2026-05-10T14:26:16Z</time>
      </trkpt>
      <trkpt lat="46.02623" lon="5.62197">
        <ele>1112.8</ele>
        <time>2026-05-10T14:26:17Z</time>
      </trkpt>
      <trkpt lat="46.02627" lon="5.62197">
        <ele>1113.4</ele>
        <time>2026-05-10T14:29:10Z</time>
      </trkpt>
      <trkpt lat="46.02627" lon="5.62197">
        <ele>1113.4</ele>
        <time>2026-05-10T14:29:11Z</time>
      </trkpt>
      <trkpt lat="46.02627" lon="5.62197">
        <ele>1113.6</ele>
        <time>2026-05-10T14:29:12Z</time>
      </trkpt>
      <trkpt lat="46.02627" lon="5.62197">
        <ele>1113.4</ele>
        <time>2026-05-10T14:29:13Z</time>
      </trkpt>
      <trkpt lat="46.02625" lon="5.62192">
        <ele>1113.4</ele>
        <time>2026-05-10T14:31:49Z</time>
      </trkpt>
      <trkpt lat="46.02625" lon="5.62192">
        <ele>1113.6</ele>
        <time>2026-05-10T14:31:50Z</time>
      </trkpt>
      <trkpt lat="46.02626" lon="5.62192">
        <ele>1113.6</ele>
        <time>2026-05-10T14:31:51Z</time>
      </trkpt>
      <trkpt lat="46.02626" lon="5.62191">
        <ele>1113.4</ele>
        <time>2026-05-10T14:31:52Z</time>
      </trkpt>
      <trkpt lat="46.02626" lon="5.62191">
        <ele>1113.4</ele>
        <time>2026-05-10T14:31:53Z</time>
      </trkpt>
      <trkpt lat="46.02626" lon="5.62187">
        <ele>1113.4</ele>
        <time>2026-05-10T14:32:49Z</time>
      </trkpt>
      <trkpt lat="46.02627" lon="5.62187">
        <ele>1113.4</ele>
        <time>2026-05-10T14:32:50Z</time>
      </trkpt>
      <trkpt lat="46.02627" lon="5.62187">
        <ele>1113.8</ele>
        <time>2026-05-10T14:32:51Z</time>
      </trkpt>
      <trkpt lat="46.02627" lon="5.62187">
        <ele>1113.8</ele>
        <time>2026-05-10T14:32:52Z</time>
      </trkpt>
      <trkpt lat="46.02627" lon="5.62187">
        <ele>1113.8</ele>
        <time>2026-05-10T14:32:53Z</time>
      </trkpt>
      <trkpt lat="46.02624" lon="5.62188">
        <ele>1113.8</ele>
        <time>2026-05-10T14:33:20Z</time>
      </trkpt>
      <trkpt lat="46.02624" lon="5.62189">
        <ele>1113.8</ele>
        <time>2026-05-10T14:33:21Z</time>
      </trkpt>
      <trkpt lat="46.02623" lon="5.62191">
        <ele>1113.8</ele>
        <time>2026-05-10T14:33:22Z</time>
      </trkpt>
      <trkpt lat="46.02623" lon="5.62193">
        <ele>1113.4</ele>
        <time>2026-05-10T14:33:23Z</time>
      </trkpt>
      <trkpt lat="46.02623" lon="5.62195">
        <ele>1113.4</ele>
        <time>2026-05-10T14:33:24Z</time>
      </trkpt>
      <trkpt lat="46.02623" lon="5.62196">
        <ele>1113.6</ele>
        <time>2026-05-10T14:33:25Z</time>
      </trkpt>
      <trkpt lat="46.02623" lon="5.62197">
        <ele>1113.6</ele>
        <time>2026-05-10T14:33:26Z</time>
      </trkpt>
      <trkpt lat="46.02624" lon="5.62198">
        <ele>1113.6</ele>
        <time>2026-05-10T14:33:27Z</time>
      </trkpt>
      <trkpt lat="46.02624" lon="5.62199">
        <ele>1114</ele>
        <time>2026-05-10T14:33:28Z</time>
      </trkpt>
      <trkpt lat="46.02623" lon="5.62201">
        <ele>1114.2</ele>
        <time>2026-05-10T14:33:40Z</time>
      </trkpt>
      <trkpt lat="46.02623" lon="5.62201">
        <ele>1114.2</ele>
        <time>2026-05-10T14:33:41Z</time>
      </trkpt>
      <trkpt lat="46.02626" lon="5.622">
        <ele>1114.8</ele>
        <time>2026-05-10T14:37:15Z</time>
      </trkpt>
      <trkpt lat="46.02627" lon="5.62199">
        <ele>1114.6</ele>
        <time>2026-05-10T14:37:16Z</time>
      </trkpt>
      <trkpt lat="46.02627" lon="5.62199">
        <ele>1114.8</ele>
        <time>2026-05-10T14:37:17Z</time>
      </trkpt>
      <trkpt lat="46.02627" lon="5.62199">
        <ele>1114.8</ele>
        <time>2026-05-10T14:37:18Z</time>
      </trkpt>
      <trkpt lat="46.02626" lon="5.62192">
        <ele>1114.4</ele>
        <time>2026-05-10T14:37:20Z</time>
      </trkpt>
      <trkpt lat="46.02625" lon="5.62191">
        <ele>1114</ele>
        <time>2026-05-10T14:37:21Z</time>
      </trkpt>
      <trkpt lat="46.02624" lon="5.6219">
        <ele>1113.8</ele>
        <time>2026-05-10T14:37:22Z</time>
      </trkpt>
      <trkpt lat="46.02624" lon="5.6219">
        <ele>1113.8</ele>
        <time>2026-05-10T14:37:23Z</time>
      </trkpt>
      <trkpt lat="46.02624" lon="5.6219">
        <ele>1113.8</ele>
        <time>2026-05-10T14:37:24Z</time>
      </trkpt>
      <trkpt lat="46.02624" lon="5.6219">
        <ele>1113.8</ele>
        <time>2026-05-10T14:37:25Z</time>
      </trkpt>
      <trkpt lat="46.0262" lon="5.62192">
        <ele>1114.4</ele>
        <time>2026-05-10T14:40:30Z</time>
      </trkpt>
      <trkpt lat="46.02619" lon="5.62193">
        <ele>1114.4</ele>
        <time>2026-05-10T14:40:31Z</time>
      </trkpt>
      <trkpt lat="46.02619" lon="5.62194">
        <ele>1114.4</ele>
        <time>2026-05-10T14:40:32Z</time>
      </trkpt>
      <trkpt lat="46.02619" lon="5.62196">
        <ele>1114.4</ele>
        <time>2026-05-10T14:40:33Z</time>
      </trkpt>
      <trkpt lat="46.02619" lon="5.62196">
        <ele>1114.4</ele>
        <time>2026-05-10T14:40:34Z</time>
      </trkpt>
      <trkpt lat="46.0262" lon="5.62197">
        <ele>1114.4</ele>
        <time>2026-05-10T14:40:35Z</time>
      </trkpt>
      <trkpt lat="46.02621" lon="5.62197">
        <ele>1114.4</ele>
        <time>2026-05-10T14:40:36Z</time>
      </trkpt>
      <trkpt lat="46.02621" lon="5.62197">
        <ele>1114.4</ele>
        <time>2026-05-10T14:40:37Z</time>
      </trkpt>
      <trkpt lat="46.02622" lon="5.62198">
        <ele>1114.4</ele>
        <time>2026-05-10T14:40:41Z</time>
      </trkpt>
      <trkpt lat="46.02623" lon="5.62198">
        <ele>1114.4</ele>
        <time>2026-05-10T14:40:42Z</time>
      </trkpt>
      <trkpt lat="46.02623" lon="5.62199">
        <ele>1114.4</ele>
        <time>2026-05-10T14:40:43Z</time>
      </trkpt>
      <trkpt lat="46.02624" lon="5.62199">
        <ele>1114.4</ele>
        <time>2026-05-10T14:40:44Z</time>
      </trkpt>
      <trkpt lat="46.02625" lon="5.62201">
        <ele>1114.4</ele>
        <time>2026-05-10T14:40:45Z</time>
      </trkpt>
      <trkpt lat="46.02625" lon="5.62202">
        <ele>1114.4</ele>
        <time>2026-05-10T14:40:46Z</time>
      </trkpt>
      <trkpt lat="46.02626" lon="5.62204">
        <ele>1114.6</ele>
        <time>2026-05-10T14:40:47Z</time>
      </trkpt>
      <trkpt lat="46.02628" lon="5.62205">
        <ele>1114.6</ele>
        <time>2026-05-10T14:40:48Z</time>
      </trkpt>
      <trkpt lat="46.02629" lon="5.62206">
        <ele>1115</ele>
        <time>2026-05-10T14:40:49Z</time>
      </trkpt>
      <trkpt lat="46.02629" lon="5.62207">
        <ele>1115.2</ele>
        <time>2026-05-10T14:40:50Z</time>
      </trkpt>
      <trkpt lat="46.0263" lon="5.62209">
        <ele>1115.2</ele>
        <time>2026-05-10T14:40:51Z</time>
      </trkpt>
      <trkpt lat="46.02631" lon="5.62211">
        <ele>1115.6</ele>
        <time>2026-05-10T14:40:52Z</time>
      </trkpt>
      <trkpt lat="46.02632" lon="5.62212">
        <ele>1115.6</ele>
        <time>2026-05-10T14:40:53Z</time>
      </trkpt>
      <trkpt lat="46.02632" lon="5.62213">
        <ele>1115.8</ele>
        <time>2026-05-10T14:40:54Z</time>
      </trkpt>
      <trkpt lat="46.02633" lon="5.62214">
        <ele>1115.8</ele>
        <time>2026-05-10T14:40:55Z</time>
      </trkpt>
      <trkpt lat="46.02634" lon="5.62215">
        <ele>1116</ele>
        <time>2026-05-10T14:40:56Z</time>
      </trkpt>
      <trkpt lat="46.02635" lon="5.62216">
        <ele>1116.4</ele>
        <time>2026-05-10T14:40:57Z</time>
      </trkpt>
      <trkpt lat="46.02636" lon="5.62218">
        <ele>1116.6</ele>
        <time>2026-05-10T14:40:58Z</time>
      </trkpt>
      <trkpt lat="46.02637" lon="5.6222">
        <ele>1116.6</ele>
        <time>2026-05-10T14:40:59Z</time>
      </trkpt>
      <trkpt lat="46.02637" lon="5.62221">
        <ele>1116.6</ele>
        <time>2026-05-10T14:41:00Z</time>
      </trkpt>
      <trkpt lat="46.02638" lon="5.62223">
        <ele>1117</ele>
        <time>2026-05-10T14:41:01Z</time>
      </trkpt>
      <trkpt lat="46.02639" lon="5.62224">
        <ele>1117.4</ele>
        <time>2026-05-10T14:41:02Z</time>
      </trkpt>
      <trkpt lat="46.0264" lon="5.62225">
        <ele>1117.4</ele>
        <time>2026-05-10T14:41:03Z</time>
      </trkpt>
      <trkpt lat="46.02641" lon="5.62227">
        <ele>1117.6</ele>
        <time>2026-05-10T14:41:04Z</time>
      </trkpt>
      <trkpt lat="46.02643" lon="5.62228">
        <ele>1118</ele>
        <time>2026-05-10T14:41:05Z</time>
      </trkpt>
      <trkpt lat="46.02643" lon="5.62228">
        <ele>1118</ele>
        <time>2026-05-10T14:41:06Z</time>
      </trkpt>
      <trkpt lat="46.02643" lon="5.62228">
        <ele>1118.2</ele>
        <time>2026-05-10T14:41:07Z</time>
      </trkpt>
      <trkpt lat="46.02644" lon="5.62229">
        <ele>1118.4</ele>
        <time>2026-05-10T14:41:08Z</time>
      </trkpt>
      <trkpt lat="46.02645" lon="5.62229">
        <ele>1118.8</ele>
        <time>2026-05-10T14:41:09Z</time>
      </trkpt>
      <trkpt lat="46.02646" lon="5.62229">
        <ele>1119.2</ele>
        <time>2026-05-10T14:41:10Z</time>
      </trkpt>
      <trkpt lat="46.02648" lon="5.62229">
        <ele>1119.6</ele>
        <time>2026-05-10T14:41:11Z</time>
      </trkpt>
      <trkpt lat="46.0265" lon="5.62229">
        <ele>1119.6</ele>
        <time>2026-05-10T14:41:12Z</time>
      </trkpt>
      <trkpt lat="46.02653" lon="5.6223">
        <ele>1119.8</ele>
        <time>2026-05-10T14:41:13Z</time>
      </trkpt>
      <trkpt lat="46.02655" lon="5.6223">
        <ele>1120</ele>
        <time>2026-05-10T14:41:14Z</time>
      </trkpt>
      <trkpt lat="46.02657" lon="5.62231">
        <ele>1120</ele>
        <time>2026-05-10T14:41:15Z</time>
      </trkpt>
      <trkpt lat="46.02658" lon="5.62231">
        <ele>1120.4</ele>
        <time>2026-05-10T14:41:16Z</time>
      </trkpt>
      <trkpt lat="46.02659" lon="5.62231">
        <ele>1120.4</ele>
        <time>2026-05-10T14:41:17Z</time>
      </trkpt>
      <trkpt lat="46.0266" lon="5.62231">
        <ele>1120.6</ele>
        <time>2026-05-10T14:41:18Z</time>
      </trkpt>
      <trkpt lat="46.02662" lon="5.62232">
        <ele>1121</ele>
        <time>2026-05-10T14:41:19Z</time>
      </trkpt>
      <trkpt lat="46.02664" lon="5.62232">
        <ele>1121</ele>
        <time>2026-05-10T14:41:20Z</time>
      </trkpt>
      <trkpt lat="46.02666" lon="5.62233">
        <ele>1121.2</ele>
        <time>2026-05-10T14:41:21Z</time>
      </trkpt>
      <trkpt lat="46.02667" lon="5.62233">
        <ele>1121.6</ele>
        <time>2026-05-10T14:41:22Z</time>
      </trkpt>
      <trkpt lat="46.02668" lon="5.62233">
        <ele>1121.6</ele>
        <time>2026-05-10T14:41:23Z</time>
      </trkpt>
      <trkpt lat="46.0267" lon="5.62233">
        <ele>1121.8</ele>
        <time>2026-05-10T14:41:24Z</time>
      </trkpt>
      <trkpt lat="46.02671" lon="5.62233">
        <ele>1122.2</ele>
        <time>2026-05-10T14:41:25Z</time>
      </trkpt>
      <trkpt lat="46.02673" lon="5.62233">
        <ele>1122.6</ele>
        <time>2026-05-10T14:41:26Z</time>
      </trkpt>
      <trkpt lat="46.02674" lon="5.62233">
        <ele>1122.8</ele>
        <time>2026-05-10T14:41:27Z</time>
      </trkpt>
      <trkpt lat="46.02675" lon="5.62233">
        <ele>1122.8</ele>
        <time>2026-05-10T14:41:28Z</time>
      </trkpt>
      <trkpt lat="46.02677" lon="5.62233">
        <ele>1123</ele>
        <time>2026-05-10T14:41:29Z</time>
      </trkpt>
      <trkpt lat="46.02678" lon="5.62233">
        <ele>1123</ele>
        <time>2026-05-10T14:41:30Z</time>
      </trkpt>
      <trkpt lat="46.0268" lon="5.62233">
        <ele>1123</ele>
        <time>2026-05-10T14:41:31Z</time>
      </trkpt>
      <trkpt lat="46.02681" lon="5.62232">
        <ele>1123.2</ele>
        <time>2026-05-10T14:41:32Z</time>
      </trkpt>
      <trkpt lat="46.02683" lon="5.62231">
        <ele>1123.6</ele>
        <time>2026-05-10T14:41:33Z</time>
      </trkpt>
      <trkpt lat="46.02685" lon="5.6223">
        <ele>1123.6</ele>
        <time>2026-05-10T14:41:34Z</time>
      </trkpt>
      <trkpt lat="46.02687" lon="5.6223">
        <ele>1124</ele>
        <time>2026-05-10T14:41:35Z</time>
      </trkpt>
      <trkpt lat="46.02689" lon="5.62229">
        <ele>1124</ele>
        <time>2026-05-10T14:41:36Z</time>
      </trkpt>
      <trkpt lat="46.0269" lon="5.62229">
        <ele>1124.2</ele>
        <time>2026-05-10T14:41:37Z</time>
      </trkpt>
      <trkpt lat="46.02692" lon="5.62229">
        <ele>1124.2</ele>
        <time>2026-05-10T14:41:38Z</time>
      </trkpt>
      <trkpt lat="46.02695" lon="5.62229">
        <ele>1124.2</ele>
        <time>2026-05-10T14:41:39Z</time>
      </trkpt>
      <trkpt lat="46.02697" lon="5.62228">
        <ele>1124.2</ele>
        <time>2026-05-10T14:41:40Z</time>
      </trkpt>
      <trkpt lat="46.02698" lon="5.62228">
        <ele>1124.4</ele>
        <time>2026-05-10T14:41:41Z</time>
      </trkpt>
      <trkpt lat="46.027" lon="5.62228">
        <ele>1124.4</ele>
        <time>2026-05-10T14:41:42Z</time>
      </trkpt>
      <trkpt lat="46.02701" lon="5.62228">
        <ele>1124.4</ele>
        <time>2026-05-10T14:41:43Z</time>
      </trkpt>
      <trkpt lat="46.02703" lon="5.62228">
        <ele>1124.6</ele>
        <time>2026-05-10T14:41:44Z</time>
      </trkpt>
      <trkpt lat="46.02705" lon="5.62227">
        <ele>1124.6</ele>
        <time>2026-05-10T14:41:45Z</time>
      </trkpt>
      <trkpt lat="46.02707" lon="5.62227">
        <ele>1124.6</ele>
        <time>2026-05-10T14:41:46Z</time>
      </trkpt>
      <trkpt lat="46.02709" lon="5.62226">
        <ele>1124.6</ele>
        <time>2026-05-10T14:41:47Z</time>
      </trkpt>
      <trkpt lat="46.0271" lon="5.62226">
        <ele>1124.6</ele>
        <time>2026-05-10T14:41:48Z</time>
      </trkpt>
      <trkpt lat="46.02712" lon="5.62227">
        <ele>1124.6</ele>
        <time>2026-05-10T14:41:49Z</time>
      </trkpt>
      <trkpt lat="46.02714" lon="5.62227">
        <ele>1124.6</ele>
        <time>2026-05-10T14:41:50Z</time>
      </trkpt>
      <trkpt lat="46.02715" lon="5.62228">
        <ele>1125</ele>
        <time>2026-05-10T14:41:51Z</time>
      </trkpt>
      <trkpt lat="46.02716" lon="5.62228">
        <ele>1125</ele>
        <time>2026-05-10T14:41:52Z</time>
      </trkpt>
      <trkpt lat="46.02717" lon="5.62229">
        <ele>1125</ele>
        <time>2026-05-10T14:41:53Z</time>
      </trkpt>
      <trkpt lat="46.02717" lon="5.62229">
        <ele>1125.4</ele>
        <time>2026-05-10T14:41:54Z</time>
      </trkpt>
      <trkpt lat="46.02718" lon="5.6223">
        <ele>1125.4</ele>
        <time>2026-05-10T14:41:55Z</time>
      </trkpt>
      <trkpt lat="46.02719" lon="5.62232">
        <ele>1125.6</ele>
        <time>2026-05-10T14:41:56Z</time>
      </trkpt>
      <trkpt lat="46.02719" lon="5.62235">
        <ele>1125.6</ele>
        <time>2026-05-10T14:41:57Z</time>
      </trkpt>
      <trkpt lat="46.0272" lon="5.62237">
        <ele>1125.8</ele>
        <time>2026-05-10T14:41:58Z</time>
      </trkpt>
      <trkpt lat="46.0272" lon="5.62239">
        <ele>1125.8</ele>
        <time>2026-05-10T14:41:59Z</time>
      </trkpt>
      <trkpt lat="46.0272" lon="5.62241">
        <ele>1126.2</ele>
        <time>2026-05-10T14:42:00Z</time>
      </trkpt>
      <trkpt lat="46.0272" lon="5.62243">
        <ele>1126.2</ele>
        <time>2026-05-10T14:42:01Z</time>
      </trkpt>
      <trkpt lat="46.0272" lon="5.62245">
        <ele>1126.6</ele>
        <time>2026-05-10T14:42:02Z</time>
      </trkpt>
      <trkpt lat="46.0272" lon="5.62246">
        <ele>1126.6</ele>
        <time>2026-05-10T14:42:03Z</time>
      </trkpt>
      <trkpt lat="46.02719" lon="5.62248">
        <ele>1127</ele>
        <time>2026-05-10T14:42:04Z</time>
      </trkpt>
      <trkpt lat="46.02718" lon="5.62251">
        <ele>1127.2</ele>
        <time>2026-05-10T14:42:05Z</time>
      </trkpt>
      <trkpt lat="46.02717" lon="5.62253">
        <ele>1127.2</ele>
        <time>2026-05-10T14:42:06Z</time>
      </trkpt>
      <trkpt lat="46.02717" lon="5.62255">
        <ele>1127.4</ele>
        <time>2026-05-10T14:42:07Z</time>
      </trkpt>
      <trkpt lat="46.02716" lon="5.62257">
        <ele>1127.4</ele>
        <time>2026-05-10T14:42:08Z</time>
      </trkpt>
      <trkpt lat="46.02714" lon="5.62258">
        <ele>1127.4</ele>
        <time>2026-05-10T14:42:09Z</time>
      </trkpt>
      <trkpt lat="46.02713" lon="5.62259">
        <ele>1127.6</ele>
        <time>2026-05-10T14:42:10Z</time>
      </trkpt>
      <trkpt lat="46.02711" lon="5.6226">
        <ele>1127.6</ele>
        <time>2026-05-10T14:42:11Z</time>
      </trkpt>
      <trkpt lat="46.02709" lon="5.62261">
        <ele>1127.6</ele>
        <time>2026-05-10T14:42:12Z</time>
      </trkpt>
      <trkpt lat="46.02707" lon="5.62261">
        <ele>1128</ele>
        <time>2026-05-10T14:42:13Z</time>
      </trkpt>
      <trkpt lat="46.02706" lon="5.62261">
        <ele>1128</ele>
        <time>2026-05-10T14:42:14Z</time>
      </trkpt>
      <trkpt lat="46.02704" lon="5.62262">
        <ele>1128.2</ele>
        <time>2026-05-10T14:42:15Z</time>
      </trkpt>
      <trkpt lat="46.02703" lon="5.62262">
        <ele>1128.2</ele>
        <time>2026-05-10T14:42:16Z</time>
      </trkpt>
      <trkpt lat="46.02702" lon="5.62263">
        <ele>1128.4</ele>
        <time>2026-05-10T14:42:17Z</time>
      </trkpt>
      <trkpt lat="46.027" lon="5.62265">
        <ele>1128.4</ele>
        <time>2026-05-10T14:42:18Z</time>
      </trkpt>
      <trkpt lat="46.02698" lon="5.62266">
        <ele>1128.8</ele>
        <time>2026-05-10T14:42:19Z</time>
      </trkpt>
      <trkpt lat="46.02697" lon="5.62267">
        <ele>1129</ele>
        <time>2026-05-10T14:42:20Z</time>
      </trkpt>
      <trkpt lat="46.02695" lon="5.62268">
        <ele>1129</ele>
        <time>2026-05-10T14:42:21Z</time>
      </trkpt>
      <trkpt lat="46.0269" lon="5.62269">
        <ele>1129</ele>
        <time>2026-05-10T14:42:22Z</time>
      </trkpt>
      <trkpt lat="46.02689" lon="5.6227">
        <ele>1129</ele>
        <time>2026-05-10T14:42:23Z</time>
      </trkpt>
      <trkpt lat="46.02686" lon="5.62271">
        <ele>1129.4</ele>
        <time>2026-05-10T14:42:24Z</time>
      </trkpt>
      <trkpt lat="46.02684" lon="5.62272">
        <ele>1129.4</ele>
        <time>2026-05-10T14:42:25Z</time>
      </trkpt>
      <trkpt lat="46.02683" lon="5.62273">
        <ele>1129.6</ele>
        <time>2026-05-10T14:42:26Z</time>
      </trkpt>
      <trkpt lat="46.02681" lon="5.62274">
        <ele>1129.6</ele>
        <time>2026-05-10T14:42:27Z</time>
      </trkpt>
      <trkpt lat="46.02678" lon="5.62274">
        <ele>1129.6</ele>
        <time>2026-05-10T14:42:28Z</time>
      </trkpt>
      <trkpt lat="46.02676" lon="5.62275">
        <ele>1129.8</ele>
        <time>2026-05-10T14:42:29Z</time>
      </trkpt>
      <trkpt lat="46.02674" lon="5.62276">
        <ele>1129.8</ele>
        <time>2026-05-10T14:42:30Z</time>
      </trkpt>
      <trkpt lat="46.02672" lon="5.62276">
        <ele>1129.8</ele>
        <time>2026-05-10T14:42:31Z</time>
      </trkpt>
      <trkpt lat="46.02669" lon="5.62277">
        <ele>1129.8</ele>
        <time>2026-05-10T14:42:32Z</time>
      </trkpt>
      <trkpt lat="46.02667" lon="5.62278">
        <ele>1129.8</ele>
        <time>2026-05-10T14:42:33Z</time>
      </trkpt>
      <trkpt lat="46.02665" lon="5.62279">
        <ele>1129.8</ele>
        <time>2026-05-10T14:42:34Z</time>
      </trkpt>
      <trkpt lat="46.02662" lon="5.62279">
        <ele>1130</ele>
        <time>2026-05-10T14:42:35Z</time>
      </trkpt>
      <trkpt lat="46.02659" lon="5.6228">
        <ele>1129.8</ele>
        <time>2026-05-10T14:42:36Z</time>
      </trkpt>
      <trkpt lat="46.02655" lon="5.62281">
        <ele>1130</ele>
        <time>2026-05-10T14:42:37Z</time>
      </trkpt>
      <trkpt lat="46.02652" lon="5.62282">
        <ele>1128.2</ele>
        <time>2026-05-10T14:42:38Z</time>
      </trkpt>
      <trkpt lat="46.02648" lon="5.62283">
        <ele>1128.2</ele>
        <time>2026-05-10T14:42:39Z</time>
      </trkpt>
      <trkpt lat="46.02645" lon="5.62285">
        <ele>1128.8</ele>
        <time>2026-05-10T14:42:40Z</time>
      </trkpt>
      <trkpt lat="46.02641" lon="5.62287">
        <ele>1128.8</ele>
        <time>2026-05-10T14:42:41Z</time>
      </trkpt>
      <trkpt lat="46.02637" lon="5.62289">
        <ele>1128.8</ele>
        <time>2026-05-10T14:42:42Z</time>
      </trkpt>
      <trkpt lat="46.02634" lon="5.62291">
        <ele>1128.8</ele>
        <time>2026-05-10T14:42:43Z</time>
      </trkpt>
      <trkpt lat="46.02631" lon="5.62293">
        <ele>1129</ele>
        <time>2026-05-10T14:42:44Z</time>
      </trkpt>
      <trkpt lat="46.02627" lon="5.62295">
        <ele>1129</ele>
        <time>2026-05-10T14:42:45Z</time>
      </trkpt>
      <trkpt lat="46.02624" lon="5.62297">
        <ele>1129.4</ele>
        <time>2026-05-10T14:42:46Z</time>
      </trkpt>
      <trkpt lat="46.02624" lon="5.62297">
        <ele>1129.4</ele>
        <time>2026-05-10T14:42:47Z</time>
      </trkpt>
      <trkpt lat="46.02622" lon="5.623">
        <ele>1129.6</ele>
        <time>2026-05-10T14:42:48Z</time>
      </trkpt>
      <trkpt lat="46.02619" lon="5.62303">
        <ele>1129.6</ele>
        <time>2026-05-10T14:42:49Z</time>
      </trkpt>
      <trkpt lat="46.02616" lon="5.62306">
        <ele>1129.4</ele>
        <time>2026-05-10T14:42:50Z</time>
      </trkpt>
      <trkpt lat="46.02614" lon="5.62309">
        <ele>1129.6</ele>
        <time>2026-05-10T14:42:51Z</time>
      </trkpt>
      <trkpt lat="46.02611" lon="5.62312">
        <ele>1129.6</ele>
        <time>2026-05-10T14:42:52Z</time>
      </trkpt>
      <trkpt lat="46.02609" lon="5.62315">
        <ele>1130.2</ele>
        <time>2026-05-10T14:42:53Z</time>
      </trkpt>
      <trkpt lat="46.02607" lon="5.62317">
        <ele>1130.6</ele>
        <time>2026-05-10T14:42:54Z</time>
      </trkpt>
      <trkpt lat="46.02605" lon="5.6232">
        <ele>1130.6</ele>
        <time>2026-05-10T14:42:55Z</time>
      </trkpt>
      <trkpt lat="46.02604" lon="5.62322">
        <ele>1130.8</ele>
        <time>2026-05-10T14:42:56Z</time>
      </trkpt>
      <trkpt lat="46.02603" lon="5.62323">
        <ele>1131</ele>
        <time>2026-05-10T14:42:57Z</time>
      </trkpt>
      <trkpt lat="46.02601" lon="5.62325">
        <ele>1131</ele>
        <time>2026-05-10T14:42:58Z</time>
      </trkpt>
      <trkpt lat="46.026" lon="5.62327">
        <ele>1131.4</ele>
        <time>2026-05-10T14:42:59Z</time>
      </trkpt>
      <trkpt lat="46.02599" lon="5.62329">
        <ele>1131.6</ele>
        <time>2026-05-10T14:43:00Z</time>
      </trkpt>
      <trkpt lat="46.02597" lon="5.62331">
        <ele>1131.6</ele>
        <time>2026-05-10T14:43:01Z</time>
      </trkpt>
      <trkpt lat="46.02596" lon="5.62333">
        <ele>1132.2</ele>
        <time>2026-05-10T14:43:02Z</time>
      </trkpt>
      <trkpt lat="46.02595" lon="5.62334">
        <ele>1132.6</ele>
        <time>2026-05-10T14:43:03Z</time>
      </trkpt>
      <trkpt lat="46.02594" lon="5.62336">
        <ele>1132.8</ele>
        <time>2026-05-10T14:43:04Z</time>
      </trkpt>
      <trkpt lat="46.02593" lon="5.62337">
        <ele>1133.2</ele>
        <time>2026-05-10T14:43:05Z</time>
      </trkpt>
      <trkpt lat="46.02592" lon="5.62339">
        <ele>1133.2</ele>
        <time>2026-05-10T14:43:06Z</time>
      </trkpt>
      <trkpt lat="46.02591" lon="5.62341">
        <ele>1133.2</ele>
        <time>2026-05-10T14:43:07Z</time>
      </trkpt>
      <trkpt lat="46.02589" lon="5.62342">
        <ele>1133.6</ele>
        <time>2026-05-10T14:43:08Z</time>
      </trkpt>
      <trkpt lat="46.02589" lon="5.62344">
        <ele>1133.6</ele>
        <time>2026-05-10T14:43:09Z</time>
      </trkpt>
      <trkpt lat="46.02588" lon="5.62345">
        <ele>1134</ele>
        <time>2026-05-10T14:43:10Z</time>
      </trkpt>
      <trkpt lat="46.02587" lon="5.62346">
        <ele>1134.2</ele>
        <time>2026-05-10T14:43:11Z</time>
      </trkpt>
      <trkpt lat="46.02586" lon="5.62348">
        <ele>1134.2</ele>
        <time>2026-05-10T14:43:12Z</time>
      </trkpt>
      <trkpt lat="46.02585" lon="5.6235">
        <ele>1134.4</ele>
        <time>2026-05-10T14:43:13Z</time>
      </trkpt>
      <trkpt lat="46.02583" lon="5.62353">
        <ele>1134.4</ele>
        <time>2026-05-10T14:43:14Z</time>
      </trkpt>
      <trkpt lat="46.02582" lon="5.62354">
        <ele>1134.4</ele>
        <time>2026-05-10T14:43:15Z</time>
      </trkpt>
      <trkpt lat="46.02581" lon="5.62356">
        <ele>1134.4</ele>
        <time>2026-05-10T14:43:16Z</time>
      </trkpt>
      <trkpt lat="46.02579" lon="5.62357">
        <ele>1134.4</ele>
        <time>2026-05-10T14:43:17Z</time>
      </trkpt>
      <trkpt lat="46.02578" lon="5.62359">
        <ele>1135</ele>
        <time>2026-05-10T14:43:18Z</time>
      </trkpt>
      <trkpt lat="46.02577" lon="5.6236">
        <ele>1135</ele>
        <time>2026-05-10T14:43:19Z</time>
      </trkpt>
      <trkpt lat="46.02575" lon="5.62361">
        <ele>1135</ele>
        <time>2026-05-10T14:43:20Z</time>
      </trkpt>
      <trkpt lat="46.02573" lon="5.62362">
        <ele>1135</ele>
        <time>2026-05-10T14:43:21Z</time>
      </trkpt>
      <trkpt lat="46.02572" lon="5.62363">
        <ele>1135.2</ele>
        <time>2026-05-10T14:43:22Z</time>
      </trkpt>
      <trkpt lat="46.02571" lon="5.62364">
        <ele>1135.2</ele>
        <time>2026-05-10T14:43:23Z</time>
      </trkpt>
      <trkpt lat="46.02569" lon="5.62365">
        <ele>1135.6</ele>
        <time>2026-05-10T14:43:24Z</time>
      </trkpt>
      <trkpt lat="46.02568" lon="5.62367">
        <ele>1135.6</ele>
        <time>2026-05-10T14:43:25Z</time>
      </trkpt>
      <trkpt lat="46.02566" lon="5.62368">
        <ele>1135.6</ele>
        <time>2026-05-10T14:43:26Z</time>
      </trkpt>
      <trkpt lat="46.02565" lon="5.6237">
        <ele>1135.6</ele>
        <time>2026-05-10T14:43:27Z</time>
      </trkpt>
      <trkpt lat="46.02564" lon="5.62372">
        <ele>1135.6</ele>
        <time>2026-05-10T14:43:28Z</time>
      </trkpt>
      <trkpt lat="46.02563" lon="5.62374">
        <ele>1136</ele>
        <time>2026-05-10T14:43:29Z</time>
      </trkpt>
      <trkpt lat="46.02562" lon="5.62375">
        <ele>1136</ele>
        <time>2026-05-10T14:43:30Z</time>
      </trkpt>
      <trkpt lat="46.02561" lon="5.62377">
        <ele>1136.2</ele>
        <time>2026-05-10T14:43:31Z</time>
      </trkpt>
      <trkpt lat="46.02559" lon="5.62378">
        <ele>1136.2</ele>
        <time>2026-05-10T14:43:32Z</time>
      </trkpt>
      <trkpt lat="46.02557" lon="5.62379">
        <ele>1136.6</ele>
        <time>2026-05-10T14:43:33Z</time>
      </trkpt>
      <trkpt lat="46.02556" lon="5.6238">
        <ele>1136.6</ele>
        <time>2026-05-10T14:43:34Z</time>
      </trkpt>
      <trkpt lat="46.02555" lon="5.6238">
        <ele>1136.8</ele>
        <time>2026-05-10T14:43:35Z</time>
      </trkpt>
      <trkpt lat="46.02554" lon="5.62381">
        <ele>1136.8</ele>
        <time>2026-05-10T14:43:36Z</time>
      </trkpt>
      <trkpt lat="46.02553" lon="5.62382">
        <ele>1137.2</ele>
        <time>2026-05-10T14:43:37Z</time>
      </trkpt>
      <trkpt lat="46.02552" lon="5.62383">
        <ele>1137.2</ele>
        <time>2026-05-10T14:43:38Z</time>
      </trkpt>
      <trkpt lat="46.02551" lon="5.62384">
        <ele>1137.4</ele>
        <time>2026-05-10T14:43:39Z</time>
      </trkpt>
      <trkpt lat="46.0255" lon="5.62384">
        <ele>1137.4</ele>
        <time>2026-05-10T14:43:40Z</time>
      </trkpt>
      <trkpt lat="46.02549" lon="5.62385">
        <ele>1137.4</ele>
        <time>2026-05-10T14:43:41Z</time>
      </trkpt>
      <trkpt lat="46.02548" lon="5.62385">
        <ele>1137.8</ele>
        <time>2026-05-10T14:43:42Z</time>
      </trkpt>
      <trkpt lat="46.02547" lon="5.62386">
        <ele>1137.8</ele>
        <time>2026-05-10T14:43:43Z</time>
      </trkpt>
      <trkpt lat="46.02545" lon="5.62387">
        <ele>1138.4</ele>
        <time>2026-05-10T14:43:44Z</time>
      </trkpt>
      <trkpt lat="46.02544" lon="5.62387">
        <ele>1138.8</ele>
        <time>2026-05-10T14:43:45Z</time>
      </trkpt>
      <trkpt lat="46.02542" lon="5.62388">
        <ele>1138.8</ele>
        <time>2026-05-10T14:43:46Z</time>
      </trkpt>
      <trkpt lat="46.02541" lon="5.62388">
        <ele>1139</ele>
        <time>2026-05-10T14:43:47Z</time>
      </trkpt>
      <trkpt lat="46.0254" lon="5.62389">
        <ele>1139</ele>
        <time>2026-05-10T14:43:48Z</time>
      </trkpt>
      <trkpt lat="46.02538" lon="5.6239">
        <ele>1139</ele>
        <time>2026-05-10T14:43:49Z</time>
      </trkpt>
      <trkpt lat="46.02537" lon="5.6239">
        <ele>1139.4</ele>
        <time>2026-05-10T14:43:50Z</time>
      </trkpt>
      <trkpt lat="46.02535" lon="5.62391">
        <ele>1139.4</ele>
        <time>2026-05-10T14:43:51Z</time>
      </trkpt>
      <trkpt lat="46.02534" lon="5.62391">
        <ele>1139.6</ele>
        <time>2026-05-10T14:43:52Z</time>
      </trkpt>
      <trkpt lat="46.02532" lon="5.62392">
        <ele>1139.6</ele>
        <time>2026-05-10T14:43:53Z</time>
      </trkpt>
      <trkpt lat="46.0253" lon="5.62393">
        <ele>1139.8</ele>
        <time>2026-05-10T14:43:54Z</time>
      </trkpt>
      <trkpt lat="46.02528" lon="5.62393">
        <ele>1139.8</ele>
        <time>2026-05-10T14:43:55Z</time>
      </trkpt>
      <trkpt lat="46.02527" lon="5.62393">
        <ele>1140</ele>
        <time>2026-05-10T14:43:56Z</time>
      </trkpt>
      <trkpt lat="46.02526" lon="5.62394">
        <ele>1140</ele>
        <time>2026-05-10T14:43:57Z</time>
      </trkpt>
      <trkpt lat="46.02524" lon="5.62394">
        <ele>1140</ele>
        <time>2026-05-10T14:43:58Z</time>
      </trkpt>
      <trkpt lat="46.02523" lon="5.62394">
        <ele>1140</ele>
        <time>2026-05-10T14:43:59Z</time>
      </trkpt>
      <trkpt lat="46.02521" lon="5.62395">
        <ele>1140</ele>
        <time>2026-05-10T14:44:00Z</time>
      </trkpt>
      <trkpt lat="46.02519" lon="5.62395">
        <ele>1140</ele>
        <time>2026-05-10T14:44:01Z</time>
      </trkpt>
      <trkpt lat="46.02518" lon="5.62395">
        <ele>1139.8</ele>
        <time>2026-05-10T14:44:02Z</time>
      </trkpt>
      <trkpt lat="46.02517" lon="5.62395">
        <ele>1140</ele>
        <time>2026-05-10T14:44:03Z</time>
      </trkpt>
      <trkpt lat="46.02515" lon="5.62395">
        <ele>1140</ele>
        <time>2026-05-10T14:44:04Z</time>
      </trkpt>
      <trkpt lat="46.02513" lon="5.62396">
        <ele>1140</ele>
        <time>2026-05-10T14:44:05Z</time>
      </trkpt>
      <trkpt lat="46.0251" lon="5.62397">
        <ele>1140</ele>
        <time>2026-05-10T14:44:06Z</time>
      </trkpt>
      <trkpt lat="46.02508" lon="5.62398">
        <ele>1140</ele>
        <time>2026-05-10T14:44:07Z</time>
      </trkpt>
      <trkpt lat="46.02505" lon="5.62399">
        <ele>1140</ele>
        <time>2026-05-10T14:44:08Z</time>
      </trkpt>
      <trkpt lat="46.02502" lon="5.624">
        <ele>1140</ele>
        <time>2026-05-10T14:44:09Z</time>
      </trkpt>
      <trkpt lat="46.02499" lon="5.62402">
        <ele>1140</ele>
        <time>2026-05-10T14:44:10Z</time>
      </trkpt>
      <trkpt lat="46.02496" lon="5.62404">
        <ele>1140.4</ele>
        <time>2026-05-10T14:44:11Z</time>
      </trkpt>
      <trkpt lat="46.02494" lon="5.62406">
        <ele>1140.4</ele>
        <time>2026-05-10T14:44:12Z</time>
      </trkpt>
      <trkpt lat="46.02491" lon="5.62408">
        <ele>1140.4</ele>
        <time>2026-05-10T14:44:13Z</time>
      </trkpt>
      <trkpt lat="46.02488" lon="5.62409">
        <ele>1140.4</ele>
        <time>2026-05-10T14:44:14Z</time>
      </trkpt>
      <trkpt lat="46.02485" lon="5.62411">
        <ele>1140.4</ele>
        <time>2026-05-10T14:44:15Z</time>
      </trkpt>
      <trkpt lat="46.02482" lon="5.62412">
        <ele>1140.4</ele>
        <time>2026-05-10T14:44:16Z</time>
      </trkpt>
      <trkpt lat="46.0248" lon="5.62413">
        <ele>1140.4</ele>
        <time>2026-05-10T14:44:17Z</time>
      </trkpt>
      <trkpt lat="46.02477" lon="5.62414">
        <ele>1140.4</ele>
        <time>2026-05-10T14:44:18Z</time>
      </trkpt>
      <trkpt lat="46.02475" lon="5.62415">
        <ele>1140.6</ele>
        <time>2026-05-10T14:44:19Z</time>
      </trkpt>
      <trkpt lat="46.02473" lon="5.62416">
        <ele>1140.6</ele>
        <time>2026-05-10T14:44:20Z</time>
      </trkpt>
      <trkpt lat="46.02471" lon="5.62417">
        <ele>1140.8</ele>
        <time>2026-05-10T14:44:21Z</time>
      </trkpt>
      <trkpt lat="46.02469" lon="5.62418">
        <ele>1140.8</ele>
        <time>2026-05-10T14:44:22Z</time>
      </trkpt>
      <trkpt lat="46.02467" lon="5.6242">
        <ele>1140.8</ele>
        <time>2026-05-10T14:44:23Z</time>
      </trkpt>
      <trkpt lat="46.02465" lon="5.62421">
        <ele>1140.8</ele>
        <time>2026-05-10T14:44:24Z</time>
      </trkpt>
      <trkpt lat="46.02462" lon="5.62422">
        <ele>1141.2</ele>
        <time>2026-05-10T14:44:25Z</time>
      </trkpt>
      <trkpt lat="46.0246" lon="5.62424">
        <ele>1141.2</ele>
        <time>2026-05-10T14:44:26Z</time>
      </trkpt>
      <trkpt lat="46.02458" lon="5.62425">
        <ele>1141.2</ele>
        <time>2026-05-10T14:44:27Z</time>
      </trkpt>
      <trkpt lat="46.02456" lon="5.62426">
        <ele>1141.4</ele>
        <time>2026-05-10T14:44:28Z</time>
      </trkpt>
      <trkpt lat="46.02454" lon="5.62428">
        <ele>1141.4</ele>
        <time>2026-05-10T14:44:29Z</time>
      </trkpt>
      <trkpt lat="46.02451" lon="5.6243">
        <ele>1142</ele>
        <time>2026-05-10T14:44:30Z</time>
      </trkpt>
      <trkpt lat="46.02448" lon="5.62433">
        <ele>1142</ele>
        <time>2026-05-10T14:44:31Z</time>
      </trkpt>
      <trkpt lat="46.02446" lon="5.62435">
        <ele>1142</ele>
        <time>2026-05-10T14:44:32Z</time>
      </trkpt>
      <trkpt lat="46.02443" lon="5.62437">
        <ele>1142</ele>
        <time>2026-05-10T14:44:33Z</time>
      </trkpt>
      <trkpt lat="46.0244" lon="5.62439">
        <ele>1142</ele>
        <time>2026-05-10T14:44:34Z</time>
      </trkpt>
      <trkpt lat="46.02438" lon="5.62442">
        <ele>1142</ele>
        <time>2026-05-10T14:44:35Z</time>
      </trkpt>
      <trkpt lat="46.02435" lon="5.62444">
        <ele>1141.6</ele>
        <time>2026-05-10T14:44:36Z</time>
      </trkpt>
      <trkpt lat="46.02433" lon="5.62446">
        <ele>1141.4</ele>
        <time>2026-05-10T14:44:37Z</time>
      </trkpt>
      <trkpt lat="46.0243" lon="5.62448">
        <ele>1141.2</ele>
        <time>2026-05-10T14:44:38Z</time>
      </trkpt>
      <trkpt lat="46.02427" lon="5.62451">
        <ele>1141</ele>
        <time>2026-05-10T14:44:39Z</time>
      </trkpt>
      <trkpt lat="46.02425" lon="5.62454">
        <ele>1141</ele>
        <time>2026-05-10T14:44:40Z</time>
      </trkpt>
      <trkpt lat="46.02422" lon="5.62457">
        <ele>1141</ele>
        <time>2026-05-10T14:44:41Z</time>
      </trkpt>
      <trkpt lat="46.02419" lon="5.6246">
        <ele>1141</ele>
        <time>2026-05-10T14:44:42Z</time>
      </trkpt>
      <trkpt lat="46.02415" lon="5.62462">
        <ele>1141</ele>
        <time>2026-05-10T14:44:43Z</time>
      </trkpt>
      <trkpt lat="46.02413" lon="5.62464">
        <ele>1141</ele>
        <time>2026-05-10T14:44:44Z</time>
      </trkpt>
      <trkpt lat="46.0241" lon="5.62467">
        <ele>1141</ele>
        <time>2026-05-10T14:44:45Z</time>
      </trkpt>
      <trkpt lat="46.02408" lon="5.62471">
        <ele>1141</ele>
        <time>2026-05-10T14:44:46Z</time>
      </trkpt>
      <trkpt lat="46.02405" lon="5.62474">
        <ele>1141</ele>
        <time>2026-05-10T14:44:47Z</time>
      </trkpt>
      <trkpt lat="46.02402" lon="5.62478">
        <ele>1141</ele>
        <time>2026-05-10T14:44:48Z</time>
      </trkpt>
      <trkpt lat="46.02399" lon="5.62481">
        <ele>1140.8</ele>
        <time>2026-05-10T14:44:49Z</time>
      </trkpt>
      <trkpt lat="46.02396" lon="5.62484">
        <ele>1141</ele>
        <time>2026-05-10T14:44:50Z</time>
      </trkpt>
      <trkpt lat="46.02393" lon="5.62486">
        <ele>1141</ele>
        <time>2026-05-10T14:44:51Z</time>
      </trkpt>
      <trkpt lat="46.0239" lon="5.62488">
        <ele>1141</ele>
        <time>2026-05-10T14:44:52Z</time>
      </trkpt>
      <trkpt lat="46.02386" lon="5.6249">
        <ele>1141</ele>
        <time>2026-05-10T14:44:53Z</time>
      </trkpt>
      <trkpt lat="46.02382" lon="5.62492">
        <ele>1141</ele>
        <time>2026-05-10T14:44:54Z</time>
      </trkpt>
      <trkpt lat="46.02378" lon="5.62493">
        <ele>1141</ele>
        <time>2026-05-10T14:44:55Z</time>
      </trkpt>
      <trkpt lat="46.02375" lon="5.62494">
        <ele>1141.2</ele>
        <time>2026-05-10T14:44:56Z</time>
      </trkpt>
      <trkpt lat="46.02372" lon="5.62495">
        <ele>1140.6</ele>
        <time>2026-05-10T14:44:57Z</time>
      </trkpt>
      <trkpt lat="46.02369" lon="5.62496">
        <ele>1141</ele>
        <time>2026-05-10T14:44:58Z</time>
      </trkpt>
      <trkpt lat="46.02366" lon="5.62497">
        <ele>1141</ele>
        <time>2026-05-10T14:44:59Z</time>
      </trkpt>
      <trkpt lat="46.02362" lon="5.62498">
        <ele>1141</ele>
        <time>2026-05-10T14:45:00Z</time>
      </trkpt>
      <trkpt lat="46.02358" lon="5.62499">
        <ele>1140.6</ele>
        <time>2026-05-10T14:45:01Z</time>
      </trkpt>
      <trkpt lat="46.02354" lon="5.625">
        <ele>1140.6</ele>
        <time>2026-05-10T14:45:02Z</time>
      </trkpt>
      <trkpt lat="46.0235" lon="5.62502">
        <ele>1140.6</ele>
        <time>2026-05-10T14:45:03Z</time>
      </trkpt>
      <trkpt lat="46.02347" lon="5.62504">
        <ele>1140.6</ele>
        <time>2026-05-10T14:45:04Z</time>
      </trkpt>
      <trkpt lat="46.02344" lon="5.62505">
        <ele>1141</ele>
        <time>2026-05-10T14:45:05Z</time>
      </trkpt>
      <trkpt lat="46.0234" lon="5.62507">
        <ele>1141</ele>
        <time>2026-05-10T14:45:06Z</time>
      </trkpt>
      <trkpt lat="46.02336" lon="5.62508">
        <ele>1141</ele>
        <time>2026-05-10T14:45:07Z</time>
      </trkpt>
      <trkpt lat="46.02333" lon="5.62508">
        <ele>1141</ele>
        <time>2026-05-10T14:45:08Z</time>
      </trkpt>
      <trkpt lat="46.02329" lon="5.62508">
        <ele>1141</ele>
        <time>2026-05-10T14:45:09Z</time>
      </trkpt>
      <trkpt lat="46.02325" lon="5.62509">
        <ele>1141</ele>
        <time>2026-05-10T14:45:10Z</time>
      </trkpt>
      <trkpt lat="46.02321" lon="5.62509">
        <ele>1141</ele>
        <time>2026-05-10T14:45:11Z</time>
      </trkpt>
      <trkpt lat="46.02318" lon="5.6251">
        <ele>1141</ele>
        <time>2026-05-10T14:45:12Z</time>
      </trkpt>
      <trkpt lat="46.02315" lon="5.62512">
        <ele>1141</ele>
        <time>2026-05-10T14:45:13Z</time>
      </trkpt>
      <trkpt lat="46.02311" lon="5.62515">
        <ele>1140.8</ele>
        <time>2026-05-10T14:45:14Z</time>
      </trkpt>
      <trkpt lat="46.02308" lon="5.62518">
        <ele>1140.8</ele>
        <time>2026-05-10T14:45:15Z</time>
      </trkpt>
      <trkpt lat="46.02304" lon="5.62521">
        <ele>1141.2</ele>
        <time>2026-05-10T14:45:16Z</time>
      </trkpt>
      <trkpt lat="46.02302" lon="5.62524">
        <ele>1141</ele>
        <time>2026-05-10T14:45:17Z</time>
      </trkpt>
      <trkpt lat="46.02299" lon="5.62527">
        <ele>1141</ele>
        <time>2026-05-10T14:45:18Z</time>
      </trkpt>
      <trkpt lat="46.02296" lon="5.6253">
        <ele>1141</ele>
        <time>2026-05-10T14:45:19Z</time>
      </trkpt>
      <trkpt lat="46.02293" lon="5.62534">
        <ele>1141</ele>
        <time>2026-05-10T14:45:20Z</time>
      </trkpt>
      <trkpt lat="46.0229" lon="5.62537">
        <ele>1141</ele>
        <time>2026-05-10T14:45:21Z</time>
      </trkpt>
      <trkpt lat="46.02286" lon="5.6254">
        <ele>1140.6</ele>
        <time>2026-05-10T14:45:22Z</time>
      </trkpt>
      <trkpt lat="46.02282" lon="5.62544">
        <ele>1140.2</ele>
        <time>2026-05-10T14:45:23Z</time>
      </trkpt>
      <trkpt lat="46.02278" lon="5.62546">
        <ele>1140.2</ele>
        <time>2026-05-10T14:45:24Z</time>
      </trkpt>
      <trkpt lat="46.02274" lon="5.62548">
        <ele>1140.2</ele>
        <time>2026-05-10T14:45:25Z</time>
      </trkpt>
      <trkpt lat="46.02269" lon="5.62552">
        <ele>1139.6</ele>
        <time>2026-05-10T14:45:26Z</time>
      </trkpt>
      <trkpt lat="46.02265" lon="5.62554">
        <ele>1139.2</ele>
        <time>2026-05-10T14:45:27Z</time>
      </trkpt>
      <trkpt lat="46.0226" lon="5.62558">
        <ele>1138.8</ele>
        <time>2026-05-10T14:45:28Z</time>
      </trkpt>
      <trkpt lat="46.02255" lon="5.6256">
        <ele>1138.8</ele>
        <time>2026-05-10T14:45:29Z</time>
      </trkpt>
      <trkpt lat="46.02252" lon="5.62565">
        <ele>1138.8</ele>
        <time>2026-05-10T14:45:30Z</time>
      </trkpt>
      <trkpt lat="46.02246" lon="5.62565">
        <ele>1138.4</ele>
        <time>2026-05-10T14:45:31Z</time>
      </trkpt>
      <trkpt lat="46.02242" lon="5.62568">
        <ele>1138</ele>
        <time>2026-05-10T14:45:32Z</time>
      </trkpt>
      <trkpt lat="46.02238" lon="5.6257">
        <ele>1138</ele>
        <time>2026-05-10T14:45:33Z</time>
      </trkpt>
      <trkpt lat="46.02234" lon="5.62572">
        <ele>1138.6</ele>
        <time>2026-05-10T14:45:34Z</time>
      </trkpt>
      <trkpt lat="46.02229" lon="5.62575">
        <ele>1139</ele>
        <time>2026-05-10T14:45:35Z</time>
      </trkpt>
      <trkpt lat="46.02225" lon="5.62577">
        <ele>1139.4</ele>
        <time>2026-05-10T14:45:36Z</time>
      </trkpt>
      <trkpt lat="46.02221" lon="5.62581">
        <ele>1139.4</ele>
        <time>2026-05-10T14:45:37Z</time>
      </trkpt>
      <trkpt lat="46.02217" lon="5.62583">
        <ele>1138.8</ele>
        <time>2026-05-10T14:45:38Z</time>
      </trkpt>
      <trkpt lat="46.02213" lon="5.62586">
        <ele>1138.8</ele>
        <time>2026-05-10T14:45:39Z</time>
      </trkpt>
      <trkpt lat="46.02209" lon="5.62588">
        <ele>1139.2</ele>
        <time>2026-05-10T14:45:40Z</time>
      </trkpt>
      <trkpt lat="46.02205" lon="5.62591">
        <ele>1139</ele>
        <time>2026-05-10T14:45:41Z</time>
      </trkpt>
      <trkpt lat="46.02201" lon="5.62594">
        <ele>1139</ele>
        <time>2026-05-10T14:45:42Z</time>
      </trkpt>
      <trkpt lat="46.02197" lon="5.62597">
        <ele>1138.6</ele>
        <time>2026-05-10T14:45:43Z</time>
      </trkpt>
      <trkpt lat="46.02193" lon="5.62601">
        <ele>1138.6</ele>
        <time>2026-05-10T14:45:44Z</time>
      </trkpt>
      <trkpt lat="46.0219" lon="5.62605">
        <ele>1138.8</ele>
        <time>2026-05-10T14:45:45Z</time>
      </trkpt>
      <trkpt lat="46.02186" lon="5.62608">
        <ele>1138.8</ele>
        <time>2026-05-10T14:45:46Z</time>
      </trkpt>
      <trkpt lat="46.02183" lon="5.62611">
        <ele>1138.8</ele>
        <time>2026-05-10T14:45:47Z</time>
      </trkpt>
      <trkpt lat="46.02179" lon="5.62614">
        <ele>1139.4</ele>
        <time>2026-05-10T14:45:48Z</time>
      </trkpt>
      <trkpt lat="46.02176" lon="5.62617">
        <ele>1139.4</ele>
        <time>2026-05-10T14:45:49Z</time>
      </trkpt>
      <trkpt lat="46.02174" lon="5.6262">
        <ele>1140.2</ele>
        <time>2026-05-10T14:45:50Z</time>
      </trkpt>
      <trkpt lat="46.02169" lon="5.6262">
        <ele>1140</ele>
        <time>2026-05-10T14:45:51Z</time>
      </trkpt>
      <trkpt lat="46.02169" lon="5.62624">
        <ele>1139.6</ele>
        <time>2026-05-10T14:45:52Z</time>
      </trkpt>
      <trkpt lat="46.02166" lon="5.62626">
        <ele>1139.6</ele>
        <time>2026-05-10T14:45:53Z</time>
      </trkpt>
      <trkpt lat="46.02163" lon="5.6263">
        <ele>1139.6</ele>
        <time>2026-05-10T14:45:54Z</time>
      </trkpt>
      <trkpt lat="46.0216" lon="5.62633">
        <ele>1139.2</ele>
        <time>2026-05-10T14:45:55Z</time>
      </trkpt>
      <trkpt lat="46.02157" lon="5.62636">
        <ele>1139.2</ele>
        <time>2026-05-10T14:45:56Z</time>
      </trkpt>
      <trkpt lat="46.02154" lon="5.6264">
        <ele>1139.2</ele>
        <time>2026-05-10T14:45:57Z</time>
      </trkpt>
      <trkpt lat="46.02151" lon="5.62643">
        <ele>1139.2</ele>
        <time>2026-05-10T14:45:58Z</time>
      </trkpt>
      <trkpt lat="46.02147" lon="5.62647">
        <ele>1139.2</ele>
        <time>2026-05-10T14:45:59Z</time>
      </trkpt>
      <trkpt lat="46.02142" lon="5.6265">
        <ele>1139.4</ele>
        <time>2026-05-10T14:46:00Z</time>
      </trkpt>
      <trkpt lat="46.02139" lon="5.62654">
        <ele>1139.4</ele>
        <time>2026-05-10T14:46:01Z</time>
      </trkpt>
      <trkpt lat="46.02135" lon="5.62657">
        <ele>1139.4</ele>
        <time>2026-05-10T14:46:02Z</time>
      </trkpt>
      <trkpt lat="46.02131" lon="5.62661">
        <ele>1139.8</ele>
        <time>2026-05-10T14:46:03Z</time>
      </trkpt>
      <trkpt lat="46.02128" lon="5.62664">
        <ele>1139.8</ele>
        <time>2026-05-10T14:46:04Z</time>
      </trkpt>
      <trkpt lat="46.02124" lon="5.62667">
        <ele>1139.8</ele>
        <time>2026-05-10T14:46:05Z</time>
      </trkpt>
      <trkpt lat="46.02121" lon="5.6267">
        <ele>1140</ele>
        <time>2026-05-10T14:46:06Z</time>
      </trkpt>
      <trkpt lat="46.02117" lon="5.62673">
        <ele>1140</ele>
        <time>2026-05-10T14:46:07Z</time>
      </trkpt>
      <trkpt lat="46.02114" lon="5.62676">
        <ele>1140.2</ele>
        <time>2026-05-10T14:46:08Z</time>
      </trkpt>
      <trkpt lat="46.0211" lon="5.62678">
        <ele>1140.2</ele>
        <time>2026-05-10T14:46:09Z</time>
      </trkpt>
      <trkpt lat="46.02105" lon="5.62679">
        <ele>1140.2</ele>
        <time>2026-05-10T14:46:10Z</time>
      </trkpt>
      <trkpt lat="46.02102" lon="5.62682">
        <ele>1140.2</ele>
        <time>2026-05-10T14:46:11Z</time>
      </trkpt>
      <trkpt lat="46.021" lon="5.62684">
        <ele>1140.2</ele>
        <time>2026-05-10T14:46:12Z</time>
      </trkpt>
      <trkpt lat="46.02097" lon="5.62686">
        <ele>1140.2</ele>
        <time>2026-05-10T14:46:13Z</time>
      </trkpt>
      <trkpt lat="46.02093" lon="5.62689">
        <ele>1140.6</ele>
        <time>2026-05-10T14:46:14Z</time>
      </trkpt>
      <trkpt lat="46.02089" lon="5.62691">
        <ele>1140.6</ele>
        <time>2026-05-10T14:46:15Z</time>
      </trkpt>
      <trkpt lat="46.02088" lon="5.62693">
        <ele>1140.6</ele>
        <time>2026-05-10T14:46:16Z</time>
      </trkpt>
      <trkpt lat="46.02084" lon="5.62696">
        <ele>1140.4</ele>
        <time>2026-05-10T14:46:17Z</time>
      </trkpt>
      <trkpt lat="46.02081" lon="5.62697">
        <ele>1140.4</ele>
        <time>2026-05-10T14:46:18Z</time>
      </trkpt>
      <trkpt lat="46.02079" lon="5.627">
        <ele>1140.8</ele>
        <time>2026-05-10T14:46:19Z</time>
      </trkpt>
      <trkpt lat="46.02077" lon="5.62701">
        <ele>1141</ele>
        <time>2026-05-10T14:46:20Z</time>
      </trkpt>
      <trkpt lat="46.02075" lon="5.62704">
        <ele>1141</ele>
        <time>2026-05-10T14:46:21Z</time>
      </trkpt>
      <trkpt lat="46.02072" lon="5.62707">
        <ele>1141</ele>
        <time>2026-05-10T14:46:22Z</time>
      </trkpt>
      <trkpt lat="46.0207" lon="5.6271">
        <ele>1141.2</ele>
        <time>2026-05-10T14:46:23Z</time>
      </trkpt>
      <trkpt lat="46.02067" lon="5.62713">
        <ele>1141.2</ele>
        <time>2026-05-10T14:46:24Z</time>
      </trkpt>
      <trkpt lat="46.02064" lon="5.62716">
        <ele>1141.2</ele>
        <time>2026-05-10T14:46:25Z</time>
      </trkpt>
      <trkpt lat="46.02061" lon="5.62719">
        <ele>1141.2</ele>
        <time>2026-05-10T14:46:26Z</time>
      </trkpt>
      <trkpt lat="46.02057" lon="5.62721">
        <ele>1141.2</ele>
        <time>2026-05-10T14:46:27Z</time>
      </trkpt>
      <trkpt lat="46.02054" lon="5.62723">
        <ele>1141.2</ele>
        <time>2026-05-10T14:46:28Z</time>
      </trkpt>
      <trkpt lat="46.0205" lon="5.62725">
        <ele>1141.2</ele>
        <time>2026-05-10T14:46:29Z</time>
      </trkpt>
      <trkpt lat="46.02046" lon="5.62727">
        <ele>1141.2</ele>
        <time>2026-05-10T14:46:30Z</time>
      </trkpt>
      <trkpt lat="46.02044" lon="5.62729">
        <ele>1141.8</ele>
        <time>2026-05-10T14:46:31Z</time>
      </trkpt>
      <trkpt lat="46.02041" lon="5.62732">
        <ele>1141.8</ele>
        <time>2026-05-10T14:46:32Z</time>
      </trkpt>
      <trkpt lat="46.02039" lon="5.62735">
        <ele>1141.8</ele>
        <time>2026-05-10T14:46:33Z</time>
      </trkpt>
      <trkpt lat="46.02036" lon="5.62737">
        <ele>1142.2</ele>
        <time>2026-05-10T14:46:34Z</time>
      </trkpt>
      <trkpt lat="46.02033" lon="5.62739">
        <ele>1142.2</ele>
        <time>2026-05-10T14:46:35Z</time>
      </trkpt>
      <trkpt lat="46.02031" lon="5.6274">
        <ele>1142.6</ele>
        <time>2026-05-10T14:46:36Z</time>
      </trkpt>
      <trkpt lat="46.02028" lon="5.62742">
        <ele>1142.6</ele>
        <time>2026-05-10T14:46:37Z</time>
      </trkpt>
      <trkpt lat="46.02025" lon="5.62745">
        <ele>1143.6</ele>
        <time>2026-05-10T14:46:38Z</time>
      </trkpt>
      <trkpt lat="46.02023" lon="5.62747">
        <ele>1143.6</ele>
        <time>2026-05-10T14:46:39Z</time>
      </trkpt>
      <trkpt lat="46.02021" lon="5.6275">
        <ele>1143.6</ele>
        <time>2026-05-10T14:46:40Z</time>
      </trkpt>
      <trkpt lat="46.02018" lon="5.62752">
        <ele>1143.6</ele>
        <time>2026-05-10T14:46:41Z</time>
      </trkpt>
      <trkpt lat="46.02016" lon="5.62753">
        <ele>1143.8</ele>
        <time>2026-05-10T14:46:42Z</time>
      </trkpt>
      <trkpt lat="46.02013" lon="5.62755">
        <ele>1143.8</ele>
        <time>2026-05-10T14:46:43Z</time>
      </trkpt>
      <trkpt lat="46.02011" lon="5.62757">
        <ele>1144.2</ele>
        <time>2026-05-10T14:46:44Z</time>
      </trkpt>
      <trkpt lat="46.02009" lon="5.62759">
        <ele>1144.2</ele>
        <time>2026-05-10T14:46:45Z</time>
      </trkpt>
      <trkpt lat="46.02007" lon="5.6276">
        <ele>1144.4</ele>
        <time>2026-05-10T14:46:46Z</time>
      </trkpt>
      <trkpt lat="46.02005" lon="5.62761">
        <ele>1144.4</ele>
        <time>2026-05-10T14:46:47Z</time>
      </trkpt>
      <trkpt lat="46.02003" lon="5.62763">
        <ele>1144.8</ele>
        <time>2026-05-10T14:46:48Z</time>
      </trkpt>
      <trkpt lat="46.02" lon="5.62764">
        <ele>1145</ele>
        <time>2026-05-10T14:46:49Z</time>
      </trkpt>
      <trkpt lat="46.01998" lon="5.62766">
        <ele>1145</ele>
        <time>2026-05-10T14:46:50Z</time>
      </trkpt>
      <trkpt lat="46.01995" lon="5.62768">
        <ele>1145</ele>
        <time>2026-05-10T14:46:51Z</time>
      </trkpt>
      <trkpt lat="46.01992" lon="5.62769">
        <ele>1145.2</ele>
        <time>2026-05-10T14:46:52Z</time>
      </trkpt>
      <trkpt lat="46.01989" lon="5.62772">
        <ele>1145.2</ele>
        <time>2026-05-10T14:46:53Z</time>
      </trkpt>
      <trkpt lat="46.01986" lon="5.62773">
        <ele>1145.2</ele>
        <time>2026-05-10T14:46:54Z</time>
      </trkpt>
      <trkpt lat="46.01983" lon="5.62775">
        <ele>1145.2</ele>
        <time>2026-05-10T14:46:55Z</time>
      </trkpt>
      <trkpt lat="46.01981" lon="5.62776">
        <ele>1145.2</ele>
        <time>2026-05-10T14:46:56Z</time>
      </trkpt>
      <trkpt lat="46.01978" lon="5.62778">
        <ele>1145.2</ele>
        <time>2026-05-10T14:46:57Z</time>
      </trkpt>
      <trkpt lat="46.01972" lon="5.62782">
        <ele>1145</ele>
        <time>2026-05-10T14:46:58Z</time>
      </trkpt>
      <trkpt lat="46.01968" lon="5.62783">
        <ele>1145</ele>
        <time>2026-05-10T14:46:59Z</time>
      </trkpt>
      <trkpt lat="46.01964" lon="5.62784">
        <ele>1145</ele>
        <time>2026-05-10T14:47:00Z</time>
      </trkpt>
      <trkpt lat="46.0196" lon="5.62786">
        <ele>1144.6</ele>
        <time>2026-05-10T14:47:01Z</time>
      </trkpt>
      <trkpt lat="46.01956" lon="5.62787">
        <ele>1145</ele>
        <time>2026-05-10T14:47:02Z</time>
      </trkpt>
      <trkpt lat="46.01952" lon="5.62789">
        <ele>1144.6</ele>
        <time>2026-05-10T14:47:03Z</time>
      </trkpt>
      <trkpt lat="46.01947" lon="5.6279">
        <ele>1144.4</ele>
        <time>2026-05-10T14:47:04Z</time>
      </trkpt>
      <trkpt lat="46.01943" lon="5.62791">
        <ele>1144.2</ele>
        <time>2026-05-10T14:47:05Z</time>
      </trkpt>
      <trkpt lat="46.01939" lon="5.62793">
        <ele>1144.2</ele>
        <time>2026-05-10T14:47:06Z</time>
      </trkpt>
      <trkpt lat="46.01935" lon="5.62794">
        <ele>1143.8</ele>
        <time>2026-05-10T14:47:07Z</time>
      </trkpt>
      <trkpt lat="46.01929" lon="5.62795">
        <ele>1143.8</ele>
        <time>2026-05-10T14:47:08Z</time>
      </trkpt>
      <trkpt lat="46.01925" lon="5.62796">
        <ele>1143.4</ele>
        <time>2026-05-10T14:47:09Z</time>
      </trkpt>
      <trkpt lat="46.01921" lon="5.62796">
        <ele>1143</ele>
        <time>2026-05-10T14:47:10Z</time>
      </trkpt>
      <trkpt lat="46.01918" lon="5.62796">
        <ele>1143</ele>
        <time>2026-05-10T14:47:11Z</time>
      </trkpt>
      <trkpt lat="46.01912" lon="5.62798">
        <ele>1143.4</ele>
        <time>2026-05-10T14:47:12Z</time>
      </trkpt>
      <trkpt lat="46.01907" lon="5.62799">
        <ele>1143.4</ele>
        <time>2026-05-10T14:47:13Z</time>
      </trkpt>
      <trkpt lat="46.01902" lon="5.628">
        <ele>1143</ele>
        <time>2026-05-10T14:47:14Z</time>
      </trkpt>
      <trkpt lat="46.01897" lon="5.628">
        <ele>1143</ele>
        <time>2026-05-10T14:47:15Z</time>
      </trkpt>
      <trkpt lat="46.01892" lon="5.62803">
        <ele>1141.2</ele>
        <time>2026-05-10T14:47:16Z</time>
      </trkpt>
      <trkpt lat="46.01886" lon="5.62804">
        <ele>1141.8</ele>
        <time>2026-05-10T14:47:17Z</time>
      </trkpt>
      <trkpt lat="46.0188" lon="5.62805">
        <ele>1141.4</ele>
        <time>2026-05-10T14:47:18Z</time>
      </trkpt>
      <trkpt lat="46.01875" lon="5.62808">
        <ele>1141</ele>
        <time>2026-05-10T14:47:19Z</time>
      </trkpt>
      <trkpt lat="46.0187" lon="5.6281">
        <ele>1141</ele>
        <time>2026-05-10T14:47:20Z</time>
      </trkpt>
      <trkpt lat="46.01865" lon="5.62812">
        <ele>1140.8</ele>
        <time>2026-05-10T14:47:21Z</time>
      </trkpt>
      <trkpt lat="46.0186" lon="5.62817">
        <ele>1140.6</ele>
        <time>2026-05-10T14:47:22Z</time>
      </trkpt>
      <trkpt lat="46.01854" lon="5.62821">
        <ele>1140</ele>
        <time>2026-05-10T14:47:23Z</time>
      </trkpt>
      <trkpt lat="46.01848" lon="5.62824">
        <ele>1139.6</ele>
        <time>2026-05-10T14:47:24Z</time>
      </trkpt>
      <trkpt lat="46.01843" lon="5.62828">
        <ele>1139</ele>
        <time>2026-05-10T14:47:25Z</time>
      </trkpt>
      <trkpt lat="46.01839" lon="5.62831">
        <ele>1138.2</ele>
        <time>2026-05-10T14:47:26Z</time>
      </trkpt>
      <trkpt lat="46.01833" lon="5.62835">
        <ele>1139</ele>
        <time>2026-05-10T14:47:27Z</time>
      </trkpt>
      <trkpt lat="46.01828" lon="5.6284">
        <ele>1139.4</ele>
        <time>2026-05-10T14:47:28Z</time>
      </trkpt>
      <trkpt lat="46.01824" lon="5.62844">
        <ele>1139</ele>
        <time>2026-05-10T14:47:29Z</time>
      </trkpt>
      <trkpt lat="46.01821" lon="5.62848">
        <ele>1139.2</ele>
        <time>2026-05-10T14:47:30Z</time>
      </trkpt>
      <trkpt lat="46.01817" lon="5.62851">
        <ele>1139.2</ele>
        <time>2026-05-10T14:47:31Z</time>
      </trkpt>
      <trkpt lat="46.01815" lon="5.62856">
        <ele>1139.6</ele>
        <time>2026-05-10T14:47:32Z</time>
      </trkpt>
      <trkpt lat="46.01812" lon="5.6286">
        <ele>1140</ele>
        <time>2026-05-10T14:47:33Z</time>
      </trkpt>
      <trkpt lat="46.01812" lon="5.6286">
        <ele>1140</ele>
        <time>2026-05-10T14:47:34Z</time>
      </trkpt>
      <trkpt lat="46.01809" lon="5.62863">
        <ele>1141</ele>
        <time>2026-05-10T14:47:35Z</time>
      </trkpt>
      <trkpt lat="46.01805" lon="5.62866">
        <ele>1141</ele>
        <time>2026-05-10T14:47:36Z</time>
      </trkpt>
      <trkpt lat="46.01805" lon="5.62866">
        <ele>1141.4</ele>
        <time>2026-05-10T14:47:37Z</time>
      </trkpt>
      <trkpt lat="46.01805" lon="5.62866">
        <ele>1141</ele>
        <time>2026-05-10T14:47:38Z</time>
      </trkpt>
      <trkpt lat="46.01797" lon="5.62878">
        <ele>1141.6</ele>
        <time>2026-05-10T14:47:40Z</time>
      </trkpt>
      <trkpt lat="46.01796" lon="5.62882">
        <ele>1142</ele>
        <time>2026-05-10T14:47:41Z</time>
      </trkpt>
      <trkpt lat="46.01794" lon="5.62885">
        <ele>1142.4</ele>
        <time>2026-05-10T14:47:42Z</time>
      </trkpt>
      <trkpt lat="46.01792" lon="5.62888">
        <ele>1142.4</ele>
        <time>2026-05-10T14:47:43Z</time>
      </trkpt>
      <trkpt lat="46.0179" lon="5.62891">
        <ele>1142.6</ele>
        <time>2026-05-10T14:47:44Z</time>
      </trkpt>
      <trkpt lat="46.01788" lon="5.62895">
        <ele>1142.6</ele>
        <time>2026-05-10T14:47:45Z</time>
      </trkpt>
      <trkpt lat="46.01786" lon="5.62898">
        <ele>1142.6</ele>
        <time>2026-05-10T14:47:46Z</time>
      </trkpt>
      <trkpt lat="46.01784" lon="5.62901">
        <ele>1142.6</ele>
        <time>2026-05-10T14:47:47Z</time>
      </trkpt>
      <trkpt lat="46.01783" lon="5.62903">
        <ele>1142.8</ele>
        <time>2026-05-10T14:47:48Z</time>
      </trkpt>
      <trkpt lat="46.01781" lon="5.62906">
        <ele>1142.6</ele>
        <time>2026-05-10T14:47:49Z</time>
      </trkpt>
      <trkpt lat="46.01779" lon="5.6291">
        <ele>1142.6</ele>
        <time>2026-05-10T14:47:50Z</time>
      </trkpt>
      <trkpt lat="46.01777" lon="5.62913">
        <ele>1142.6</ele>
        <time>2026-05-10T14:47:51Z</time>
      </trkpt>
      <trkpt lat="46.01775" lon="5.62916">
        <ele>1142.6</ele>
        <time>2026-05-10T14:47:52Z</time>
      </trkpt>
      <trkpt lat="46.01773" lon="5.62919">
        <ele>1142.6</ele>
        <time>2026-05-10T14:47:53Z</time>
      </trkpt>
      <trkpt lat="46.0177" lon="5.62922">
        <ele>1142.6</ele>
        <time>2026-05-10T14:47:54Z</time>
      </trkpt>
      <trkpt lat="46.01768" lon="5.62925">
        <ele>1142.6</ele>
        <time>2026-05-10T14:47:55Z</time>
      </trkpt>
      <trkpt lat="46.01765" lon="5.62928">
        <ele>1143</ele>
        <time>2026-05-10T14:47:56Z</time>
      </trkpt>
      <trkpt lat="46.01763" lon="5.6293">
        <ele>1143.2</ele>
        <time>2026-05-10T14:47:57Z</time>
      </trkpt>
      <trkpt lat="46.01761" lon="5.62933">
        <ele>1143.2</ele>
        <time>2026-05-10T14:47:58Z</time>
      </trkpt>
      <trkpt lat="46.01759" lon="5.62936">
        <ele>1143.2</ele>
        <time>2026-05-10T14:47:59Z</time>
      </trkpt>
      <trkpt lat="46.01756" lon="5.62938">
        <ele>1143.2</ele>
        <time>2026-05-10T14:48:00Z</time>
      </trkpt>
      <trkpt lat="46.01753" lon="5.6294">
        <ele>1143.2</ele>
        <time>2026-05-10T14:48:01Z</time>
      </trkpt>
      <trkpt lat="46.01749" lon="5.62942">
        <ele>1143.2</ele>
        <time>2026-05-10T14:48:02Z</time>
      </trkpt>
      <trkpt lat="46.01745" lon="5.62945">
        <ele>1143.2</ele>
        <time>2026-05-10T14:48:03Z</time>
      </trkpt>
      <trkpt lat="46.01742" lon="5.62948">
        <ele>1143.2</ele>
        <time>2026-05-10T14:48:04Z</time>
      </trkpt>
      <trkpt lat="46.01739" lon="5.62952">
        <ele>1143.2</ele>
        <time>2026-05-10T14:48:05Z</time>
      </trkpt>
      <trkpt lat="46.01734" lon="5.62956">
        <ele>1143.2</ele>
        <time>2026-05-10T14:48:06Z</time>
      </trkpt>
      <trkpt lat="46.01731" lon="5.62959">
        <ele>1143.2</ele>
        <time>2026-05-10T14:48:07Z</time>
      </trkpt>
      <trkpt lat="46.01727" lon="5.62963">
        <ele>1143.2</ele>
        <time>2026-05-10T14:48:08Z</time>
      </trkpt>
      <trkpt lat="46.01724" lon="5.62967">
        <ele>1142.8</ele>
        <time>2026-05-10T14:48:09Z</time>
      </trkpt>
      <trkpt lat="46.0172" lon="5.6297">
        <ele>1142</ele>
        <time>2026-05-10T14:48:10Z</time>
      </trkpt>
      <trkpt lat="46.01717" lon="5.62975">
        <ele>1142.2</ele>
        <time>2026-05-10T14:48:11Z</time>
      </trkpt>
      <trkpt lat="46.01714" lon="5.62978">
        <ele>1142.2</ele>
        <time>2026-05-10T14:48:12Z</time>
      </trkpt>
      <trkpt lat="46.01711" lon="5.62981">
        <ele>1142.4</ele>
        <time>2026-05-10T14:48:13Z</time>
      </trkpt>
      <trkpt lat="46.01708" lon="5.62983">
        <ele>1142.4</ele>
        <time>2026-05-10T14:48:14Z</time>
      </trkpt>
      <trkpt lat="46.01705" lon="5.62987">
        <ele>1142</ele>
        <time>2026-05-10T14:48:15Z</time>
      </trkpt>
      <trkpt lat="46.01702" lon="5.62992">
        <ele>1142.4</ele>
        <time>2026-05-10T14:48:16Z</time>
      </trkpt>
      <trkpt lat="46.01698" lon="5.62995">
        <ele>1142.4</ele>
        <time>2026-05-10T14:48:17Z</time>
      </trkpt>
      <trkpt lat="46.01695" lon="5.62999">
        <ele>1142.4</ele>
        <time>2026-05-10T14:48:18Z</time>
      </trkpt>
      <trkpt lat="46.01692" lon="5.63003">
        <ele>1142.2</ele>
        <time>2026-05-10T14:48:19Z</time>
      </trkpt>
      <trkpt lat="46.01688" lon="5.63008">
        <ele>1142.6</ele>
        <time>2026-05-10T14:48:20Z</time>
      </trkpt>
      <trkpt lat="46.01685" lon="5.63012">
        <ele>1141.8</ele>
        <time>2026-05-10T14:48:21Z</time>
      </trkpt>
      <trkpt lat="46.01681" lon="5.63016">
        <ele>1141.8</ele>
        <time>2026-05-10T14:48:22Z</time>
      </trkpt>
      <trkpt lat="46.01678" lon="5.6302">
        <ele>1142</ele>
        <time>2026-05-10T14:48:23Z</time>
      </trkpt>
      <trkpt lat="46.01674" lon="5.63022">
        <ele>1142.4</ele>
        <time>2026-05-10T14:48:24Z</time>
      </trkpt>
      <trkpt lat="46.01672" lon="5.63025">
        <ele>1142.6</ele>
        <time>2026-05-10T14:48:25Z</time>
      </trkpt>
      <trkpt lat="46.0167" lon="5.63029">
        <ele>1142.6</ele>
        <time>2026-05-10T14:48:26Z</time>
      </trkpt>
      <trkpt lat="46.01667" lon="5.63032">
        <ele>1142.4</ele>
        <time>2026-05-10T14:48:27Z</time>
      </trkpt>
      <trkpt lat="46.01665" lon="5.63036">
        <ele>1142.4</ele>
        <time>2026-05-10T14:48:28Z</time>
      </trkpt>
      <trkpt lat="46.01662" lon="5.6304">
        <ele>1142.4</ele>
        <time>2026-05-10T14:48:29Z</time>
      </trkpt>
      <trkpt lat="46.01659" lon="5.63044">
        <ele>1142.4</ele>
        <time>2026-05-10T14:48:30Z</time>
      </trkpt>
      <trkpt lat="46.01656" lon="5.63048">
        <ele>1141.6</ele>
        <time>2026-05-10T14:48:31Z</time>
      </trkpt>
      <trkpt lat="46.01653" lon="5.63052">
        <ele>1141.6</ele>
        <time>2026-05-10T14:48:32Z</time>
      </trkpt>
      <trkpt lat="46.0165" lon="5.63057">
        <ele>1141.6</ele>
        <time>2026-05-10T14:48:33Z</time>
      </trkpt>
      <trkpt lat="46.01646" lon="5.63061">
        <ele>1141.6</ele>
        <time>2026-05-10T14:48:34Z</time>
      </trkpt>
      <trkpt lat="46.01642" lon="5.63065">
        <ele>1141.6</ele>
        <time>2026-05-10T14:48:35Z</time>
      </trkpt>
      <trkpt lat="46.01639" lon="5.6307">
        <ele>1141.6</ele>
        <time>2026-05-10T14:48:36Z</time>
      </trkpt>
      <trkpt lat="46.01636" lon="5.63075">
        <ele>1141.6</ele>
        <time>2026-05-10T14:48:37Z</time>
      </trkpt>
      <trkpt lat="46.01632" lon="5.63079">
        <ele>1141</ele>
        <time>2026-05-10T14:48:38Z</time>
      </trkpt>
      <trkpt lat="46.01629" lon="5.63084">
        <ele>1140.8</ele>
        <time>2026-05-10T14:48:39Z</time>
      </trkpt>
      <trkpt lat="46.01626" lon="5.6309">
        <ele>1140.4</ele>
        <time>2026-05-10T14:48:40Z</time>
      </trkpt>
      <trkpt lat="46.01622" lon="5.63095">
        <ele>1140</ele>
        <time>2026-05-10T14:48:41Z</time>
      </trkpt>
      <trkpt lat="46.0162" lon="5.63103">
        <ele>1140</ele>
        <time>2026-05-10T14:48:42Z</time>
      </trkpt>
      <trkpt lat="46.01618" lon="5.63109">
        <ele>1140.6</ele>
        <time>2026-05-10T14:48:43Z</time>
      </trkpt>
      <trkpt lat="46.01616" lon="5.63116">
        <ele>1140.4</ele>
        <time>2026-05-10T14:48:44Z</time>
      </trkpt>
      <trkpt lat="46.01614" lon="5.63123">
        <ele>1140.2</ele>
        <time>2026-05-10T14:48:45Z</time>
      </trkpt>
      <trkpt lat="46.01613" lon="5.6313">
        <ele>1140.2</ele>
        <time>2026-05-10T14:48:46Z</time>
      </trkpt>
      <trkpt lat="46.01611" lon="5.63135">
        <ele>1140.2</ele>
        <time>2026-05-10T14:48:47Z</time>
      </trkpt>
      <trkpt lat="46.0161" lon="5.63139">
        <ele>1140.2</ele>
        <time>2026-05-10T14:48:48Z</time>
      </trkpt>
      <trkpt lat="46.01609" lon="5.63145">
        <ele>1140.2</ele>
        <time>2026-05-10T14:48:49Z</time>
      </trkpt>
      <trkpt lat="46.01609" lon="5.6315">
        <ele>1140.2</ele>
        <time>2026-05-10T14:48:50Z</time>
      </trkpt>
      <trkpt lat="46.01606" lon="5.63156">
        <ele>1140.2</ele>
        <time>2026-05-10T14:48:51Z</time>
      </trkpt>
      <trkpt lat="46.01605" lon="5.63161">
        <ele>1140.2</ele>
        <time>2026-05-10T14:48:52Z</time>
      </trkpt>
      <trkpt lat="46.01603" lon="5.63168">
        <ele>1140.2</ele>
        <time>2026-05-10T14:48:53Z</time>
      </trkpt>
      <trkpt lat="46.01602" lon="5.63175">
        <ele>1139.8</ele>
        <time>2026-05-10T14:48:54Z</time>
      </trkpt>
      <trkpt lat="46.016" lon="5.63182">
        <ele>1139.8</ele>
        <time>2026-05-10T14:48:55Z</time>
      </trkpt>
      <trkpt lat="46.01597" lon="5.63189">
        <ele>1139.8</ele>
        <time>2026-05-10T14:48:56Z</time>
      </trkpt>
      <trkpt lat="46.01595" lon="5.63196">
        <ele>1139</ele>
        <time>2026-05-10T14:48:57Z</time>
      </trkpt>
      <trkpt lat="46.01592" lon="5.63204">
        <ele>1138.6</ele>
        <time>2026-05-10T14:48:58Z</time>
      </trkpt>
      <trkpt lat="46.01589" lon="5.63212">
        <ele>1138.6</ele>
        <time>2026-05-10T14:48:59Z</time>
      </trkpt>
      <trkpt lat="46.01586" lon="5.63219">
        <ele>1138.6</ele>
        <time>2026-05-10T14:49:00Z</time>
      </trkpt>
      <trkpt lat="46.01583" lon="5.63225">
        <ele>1138.6</ele>
        <time>2026-05-10T14:49:01Z</time>
      </trkpt>
      <trkpt lat="46.0158" lon="5.63232">
        <ele>1138.6</ele>
        <time>2026-05-10T14:49:02Z</time>
      </trkpt>
      <trkpt lat="46.01577" lon="5.63238">
        <ele>1138.6</ele>
        <time>2026-05-10T14:49:03Z</time>
      </trkpt>
      <trkpt lat="46.01574" lon="5.63244">
        <ele>1139.4</ele>
        <time>2026-05-10T14:49:04Z</time>
      </trkpt>
      <trkpt lat="46.0157" lon="5.6325">
        <ele>1139.4</ele>
        <time>2026-05-10T14:49:05Z</time>
      </trkpt>
      <trkpt lat="46.01567" lon="5.63255">
        <ele>1139.2</ele>
        <time>2026-05-10T14:49:06Z</time>
      </trkpt>
      <trkpt lat="46.01563" lon="5.63261">
        <ele>1139.2</ele>
        <time>2026-05-10T14:49:07Z</time>
      </trkpt>
      <trkpt lat="46.0156" lon="5.63267">
        <ele>1139.2</ele>
        <time>2026-05-10T14:49:08Z</time>
      </trkpt>
      <trkpt lat="46.01557" lon="5.63273">
        <ele>1139.2</ele>
        <time>2026-05-10T14:49:09Z</time>
      </trkpt>
      <trkpt lat="46.01553" lon="5.63279">
        <ele>1137.2</ele>
        <time>2026-05-10T14:49:10Z</time>
      </trkpt>
      <trkpt lat="46.0155" lon="5.63284">
        <ele>1137.2</ele>
        <time>2026-05-10T14:49:11Z</time>
      </trkpt>
      <trkpt lat="46.01545" lon="5.63289">
        <ele>1137.2</ele>
        <time>2026-05-10T14:49:12Z</time>
      </trkpt>
      <trkpt lat="46.01543" lon="5.63294">
        <ele>1136.8</ele>
        <time>2026-05-10T14:49:13Z</time>
      </trkpt>
      <trkpt lat="46.01539" lon="5.633">
        <ele>1136.8</ele>
        <time>2026-05-10T14:49:14Z</time>
      </trkpt>
      <trkpt lat="46.01536" lon="5.63305">
        <ele>1136.4</ele>
        <time>2026-05-10T14:49:15Z</time>
      </trkpt>
      <trkpt lat="46.01533" lon="5.63312">
        <ele>1135.6</ele>
        <time>2026-05-10T14:49:16Z</time>
      </trkpt>
      <trkpt lat="46.01529" lon="5.6332">
        <ele>1136</ele>
        <time>2026-05-10T14:49:17Z</time>
      </trkpt>
      <trkpt lat="46.01526" lon="5.63326">
        <ele>1134.8</ele>
        <time>2026-05-10T14:49:18Z</time>
      </trkpt>
      <trkpt lat="46.01524" lon="5.63334">
        <ele>1134.2</ele>
        <time>2026-05-10T14:49:19Z</time>
      </trkpt>
      <trkpt lat="46.01522" lon="5.63341">
        <ele>1134.2</ele>
        <time>2026-05-10T14:49:20Z</time>
      </trkpt>
      <trkpt lat="46.01519" lon="5.63348">
        <ele>1133.2</ele>
        <time>2026-05-10T14:49:21Z</time>
      </trkpt>
      <trkpt lat="46.01516" lon="5.63356">
        <ele>1132.4</ele>
        <time>2026-05-10T14:49:22Z</time>
      </trkpt>
      <trkpt lat="46.01513" lon="5.63364">
        <ele>1131.6</ele>
        <time>2026-05-10T14:49:23Z</time>
      </trkpt>
      <trkpt lat="46.0151" lon="5.63373">
        <ele>1131.6</ele>
        <time>2026-05-10T14:49:24Z</time>
      </trkpt>
      <trkpt lat="46.01508" lon="5.63382">
        <ele>1130.6</ele>
        <time>2026-05-10T14:49:25Z</time>
      </trkpt>
      <trkpt lat="46.01505" lon="5.63392">
        <ele>1129.8</ele>
        <time>2026-05-10T14:49:26Z</time>
      </trkpt>
      <trkpt lat="46.01503" lon="5.63402">
        <ele>1128.8</ele>
        <time>2026-05-10T14:49:27Z</time>
      </trkpt>
      <trkpt lat="46.01499" lon="5.63421">
        <ele>1128.4</ele>
        <time>2026-05-10T14:49:28Z</time>
      </trkpt>
      <trkpt lat="46.01497" lon="5.63429">
        <ele>1127.4</ele>
        <time>2026-05-10T14:49:29Z</time>
      </trkpt>
      <trkpt lat="46.01495" lon="5.63437">
        <ele>1127.2</ele>
        <time>2026-05-10T14:49:30Z</time>
      </trkpt>
      <trkpt lat="46.01491" lon="5.63445">
        <ele>1126.4</ele>
        <time>2026-05-10T14:49:31Z</time>
      </trkpt>
      <trkpt lat="46.01488" lon="5.6345">
        <ele>1126</ele>
        <time>2026-05-10T14:49:32Z</time>
      </trkpt>
      <trkpt lat="46.01483" lon="5.63454">
        <ele>1125.8</ele>
        <time>2026-05-10T14:49:33Z</time>
      </trkpt>
      <trkpt lat="46.01479" lon="5.63458">
        <ele>1126</ele>
        <time>2026-05-10T14:49:34Z</time>
      </trkpt>
      <trkpt lat="46.01474" lon="5.6346">
        <ele>1126.4</ele>
        <time>2026-05-10T14:49:35Z</time>
      </trkpt>
      <trkpt lat="46.01469" lon="5.63463">
        <ele>1126.4</ele>
        <time>2026-05-10T14:49:36Z</time>
      </trkpt>
      <trkpt lat="46.01463" lon="5.63464">
        <ele>1126</ele>
        <time>2026-05-10T14:49:37Z</time>
      </trkpt>
      <trkpt lat="46.01459" lon="5.63468">
        <ele>1125.4</ele>
        <time>2026-05-10T14:49:38Z</time>
      </trkpt>
      <trkpt lat="46.01456" lon="5.63471">
        <ele>1124.8</ele>
        <time>2026-05-10T14:49:39Z</time>
      </trkpt>
      <trkpt lat="46.01452" lon="5.63476">
        <ele>1124.2</ele>
        <time>2026-05-10T14:49:40Z</time>
      </trkpt>
      <trkpt lat="46.01451" lon="5.63482">
        <ele>1123.8</ele>
        <time>2026-05-10T14:49:41Z</time>
      </trkpt>
      <trkpt lat="46.01449" lon="5.63489">
        <ele>1123.4</ele>
        <time>2026-05-10T14:49:42Z</time>
      </trkpt>
      <trkpt lat="46.01449" lon="5.63496">
        <ele>1122.6</ele>
        <time>2026-05-10T14:49:43Z</time>
      </trkpt>
      <trkpt lat="46.01449" lon="5.63503">
        <ele>1122.2</ele>
        <time>2026-05-10T14:49:44Z</time>
      </trkpt>
      <trkpt lat="46.0145" lon="5.6351">
        <ele>1122.2</ele>
        <time>2026-05-10T14:49:45Z</time>
      </trkpt>
      <trkpt lat="46.01451" lon="5.63516">
        <ele>1121.6</ele>
        <time>2026-05-10T14:49:46Z</time>
      </trkpt>
      <trkpt lat="46.01452" lon="5.63521">
        <ele>1121</ele>
        <time>2026-05-10T14:49:47Z</time>
      </trkpt>
      <trkpt lat="46.01453" lon="5.63526">
        <ele>1121</ele>
        <time>2026-05-10T14:49:48Z</time>
      </trkpt>
      <trkpt lat="46.01456" lon="5.63529">
        <ele>1120.6</ele>
        <time>2026-05-10T14:49:49Z</time>
      </trkpt>
      <trkpt lat="46.01459" lon="5.63532">
        <ele>1120</ele>
        <time>2026-05-10T14:49:50Z</time>
      </trkpt>
      <trkpt lat="46.01459" lon="5.63532">
        <ele>1120</ele>
        <time>2026-05-10T14:49:51Z</time>
      </trkpt>
      <trkpt lat="46.01462" lon="5.63535">
        <ele>1119.6</ele>
        <time>2026-05-10T14:49:52Z</time>
      </trkpt>
      <trkpt lat="46.01464" lon="5.63538">
        <ele>1119.6</ele>
        <time>2026-05-10T14:49:53Z</time>
      </trkpt>
      <trkpt lat="46.01464" lon="5.63538">
        <ele>1119.6</ele>
        <time>2026-05-10T14:49:54Z</time>
      </trkpt>
      <trkpt lat="46.01464" lon="5.63538">
        <ele>1119</ele>
        <time>2026-05-10T14:49:55Z</time>
      </trkpt>
      <trkpt lat="46.01472" lon="5.63544">
        <ele>1118.8</ele>
        <time>2026-05-10T14:49:56Z</time>
      </trkpt>
      <trkpt lat="46.01475" lon="5.63547">
        <ele>1118.8</ele>
        <time>2026-05-10T14:49:57Z</time>
      </trkpt>
      <trkpt lat="46.01478" lon="5.63548">
        <ele>1118.8</ele>
        <time>2026-05-10T14:49:58Z</time>
      </trkpt>
      <trkpt lat="46.01481" lon="5.6355">
        <ele>1118</ele>
        <time>2026-05-10T14:49:59Z</time>
      </trkpt>
      <trkpt lat="46.01484" lon="5.63552">
        <ele>1117.8</ele>
        <time>2026-05-10T14:50:00Z</time>
      </trkpt>
      <trkpt lat="46.01487" lon="5.63554">
        <ele>1117.8</ele>
        <time>2026-05-10T14:50:01Z</time>
      </trkpt>
      <trkpt lat="46.0149" lon="5.63556">
        <ele>1117.4</ele>
        <time>2026-05-10T14:50:02Z</time>
      </trkpt>
      <trkpt lat="46.01493" lon="5.63557">
        <ele>1117.4</ele>
        <time>2026-05-10T14:50:03Z</time>
      </trkpt>
      <trkpt lat="46.01496" lon="5.63558">
        <ele>1116.8</ele>
        <time>2026-05-10T14:50:04Z</time>
      </trkpt>
      <trkpt lat="46.01499" lon="5.63559">
        <ele>1115.8</ele>
        <time>2026-05-10T14:50:05Z</time>
      </trkpt>
      <trkpt lat="46.01501" lon="5.63559">
        <ele>1115</ele>
        <time>2026-05-10T14:50:06Z</time>
      </trkpt>
      <trkpt lat="46.01504" lon="5.6356">
        <ele>1114.6</ele>
        <time>2026-05-10T14:50:07Z</time>
      </trkpt>
      <trkpt lat="46.01508" lon="5.63562">
        <ele>1113.8</ele>
        <time>2026-05-10T14:50:08Z</time>
      </trkpt>
      <trkpt lat="46.01512" lon="5.63564">
        <ele>1113.4</ele>
        <time>2026-05-10T14:50:09Z</time>
      </trkpt>
      <trkpt lat="46.01515" lon="5.63571">
        <ele>1112.6</ele>
        <time>2026-05-10T14:50:10Z</time>
      </trkpt>
      <trkpt lat="46.01517" lon="5.63578">
        <ele>1112.6</ele>
        <time>2026-05-10T14:50:11Z</time>
      </trkpt>
      <trkpt lat="46.01519" lon="5.63586">
        <ele>1111.8</ele>
        <time>2026-05-10T14:50:12Z</time>
      </trkpt>
      <trkpt lat="46.01522" lon="5.63591">
        <ele>1111.8</ele>
        <time>2026-05-10T14:50:13Z</time>
      </trkpt>
      <trkpt lat="46.01523" lon="5.63598">
        <ele>1111.4</ele>
        <time>2026-05-10T14:50:14Z</time>
      </trkpt>
      <trkpt lat="46.01523" lon="5.63607">
        <ele>1111.4</ele>
        <time>2026-05-10T14:50:15Z</time>
      </trkpt>
      <trkpt lat="46.01524" lon="5.63614">
        <ele>1110.8</ele>
        <time>2026-05-10T14:50:16Z</time>
      </trkpt>
      <trkpt lat="46.01523" lon="5.63622">
        <ele>1110.8</ele>
        <time>2026-05-10T14:50:17Z</time>
      </trkpt>
      <trkpt lat="46.01523" lon="5.63631">
        <ele>1110.4</ele>
        <time>2026-05-10T14:50:18Z</time>
      </trkpt>
      <trkpt lat="46.01521" lon="5.63638">
        <ele>1109.2</ele>
        <time>2026-05-10T14:50:19Z</time>
      </trkpt>
      <trkpt lat="46.01521" lon="5.63646">
        <ele>1108.6</ele>
        <time>2026-05-10T14:50:20Z</time>
      </trkpt>
      <trkpt lat="46.0152" lon="5.63653">
        <ele>1108.6</ele>
        <time>2026-05-10T14:50:21Z</time>
      </trkpt>
      <trkpt lat="46.01518" lon="5.63659">
        <ele>1108</ele>
        <time>2026-05-10T14:50:22Z</time>
      </trkpt>
      <trkpt lat="46.01516" lon="5.63666">
        <ele>1106.2</ele>
        <time>2026-05-10T14:50:23Z</time>
      </trkpt>
      <trkpt lat="46.01516" lon="5.63671">
        <ele>1106.6</ele>
        <time>2026-05-10T14:50:24Z</time>
      </trkpt>
      <trkpt lat="46.01516" lon="5.63679">
        <ele>1106.4</ele>
        <time>2026-05-10T14:50:25Z</time>
      </trkpt>
      <trkpt lat="46.01518" lon="5.63685">
        <ele>1106.4</ele>
        <time>2026-05-10T14:50:26Z</time>
      </trkpt>
      <trkpt lat="46.0152" lon="5.63691">
        <ele>1106.4</ele>
        <time>2026-05-10T14:50:27Z</time>
      </trkpt>
      <trkpt lat="46.01523" lon="5.63697">
        <ele>1106.2</ele>
        <time>2026-05-10T14:50:28Z</time>
      </trkpt>
      <trkpt lat="46.01526" lon="5.63701">
        <ele>1105.4</ele>
        <time>2026-05-10T14:50:29Z</time>
      </trkpt>
      <trkpt lat="46.01528" lon="5.63707">
        <ele>1105</ele>
        <time>2026-05-10T14:50:30Z</time>
      </trkpt>
      <trkpt lat="46.0153" lon="5.63711">
        <ele>1105.4</ele>
        <time>2026-05-10T14:50:31Z</time>
      </trkpt>
      <trkpt lat="46.01533" lon="5.63714">
        <ele>1104.6</ele>
        <time>2026-05-10T14:50:32Z</time>
      </trkpt>
      <trkpt lat="46.01536" lon="5.63719">
        <ele>1104.6</ele>
        <time>2026-05-10T14:50:33Z</time>
      </trkpt>
      <trkpt lat="46.01539" lon="5.63724">
        <ele>1104.6</ele>
        <time>2026-05-10T14:50:34Z</time>
      </trkpt>
      <trkpt lat="46.01541" lon="5.63731">
        <ele>1103.8</ele>
        <time>2026-05-10T14:50:35Z</time>
      </trkpt>
      <trkpt lat="46.01544" lon="5.63736">
        <ele>1103.6</ele>
        <time>2026-05-10T14:50:36Z</time>
      </trkpt>
      <trkpt lat="46.01546" lon="5.63743">
        <ele>1103</ele>
        <time>2026-05-10T14:50:37Z</time>
      </trkpt>
      <trkpt lat="46.01548" lon="5.6375">
        <ele>1102.8</ele>
        <time>2026-05-10T14:50:38Z</time>
      </trkpt>
      <trkpt lat="46.01551" lon="5.63757">
        <ele>1102.6</ele>
        <time>2026-05-10T14:50:39Z</time>
      </trkpt>
      <trkpt lat="46.01552" lon="5.63763">
        <ele>1102.2</ele>
        <time>2026-05-10T14:50:40Z</time>
      </trkpt>
      <trkpt lat="46.01554" lon="5.63767">
        <ele>1102.2</ele>
        <time>2026-05-10T14:50:41Z</time>
      </trkpt>
      <trkpt lat="46.01555" lon="5.63773">
        <ele>1101.8</ele>
        <time>2026-05-10T14:50:42Z</time>
      </trkpt>
      <trkpt lat="46.01556" lon="5.63777">
        <ele>1100.8</ele>
        <time>2026-05-10T14:50:43Z</time>
      </trkpt>
      <trkpt lat="46.01557" lon="5.63781">
        <ele>1100.4</ele>
        <time>2026-05-10T14:50:44Z</time>
      </trkpt>
      <trkpt lat="46.01556" lon="5.63784">
        <ele>1100.4</ele>
        <time>2026-05-10T14:50:45Z</time>
      </trkpt>
      <trkpt lat="46.01559" lon="5.63788">
        <ele>1101</ele>
        <time>2026-05-10T14:50:46Z</time>
      </trkpt>
      <trkpt lat="46.0156" lon="5.63791">
        <ele>1101</ele>
        <time>2026-05-10T14:50:47Z</time>
      </trkpt>
      <trkpt lat="46.01561" lon="5.63794">
        <ele>1101</ele>
        <time>2026-05-10T14:50:48Z</time>
      </trkpt>
      <trkpt lat="46.01562" lon="5.63799">
        <ele>1100.4</ele>
        <time>2026-05-10T14:50:49Z</time>
      </trkpt>
      <trkpt lat="46.01562" lon="5.63803">
        <ele>1100</ele>
        <time>2026-05-10T14:50:50Z</time>
      </trkpt>
      <trkpt lat="46.01564" lon="5.63807">
        <ele>1100</ele>
        <time>2026-05-10T14:50:51Z</time>
      </trkpt>
      <trkpt lat="46.01566" lon="5.63809">
        <ele>1099</ele>
        <time>2026-05-10T14:50:52Z</time>
      </trkpt>
      <trkpt lat="46.01569" lon="5.63813">
        <ele>1098.6</ele>
        <time>2026-05-10T14:50:53Z</time>
      </trkpt>
      <trkpt lat="46.01571" lon="5.63817">
        <ele>1098</ele>
        <time>2026-05-10T14:50:54Z</time>
      </trkpt>
      <trkpt lat="46.01574" lon="5.6382">
        <ele>1097.4</ele>
        <time>2026-05-10T14:50:55Z</time>
      </trkpt>
      <trkpt lat="46.01576" lon="5.63823">
        <ele>1097.4</ele>
        <time>2026-05-10T14:50:56Z</time>
      </trkpt>
      <trkpt lat="46.01579" lon="5.63827">
        <ele>1097.4</ele>
        <time>2026-05-10T14:50:57Z</time>
      </trkpt>
      <trkpt lat="46.01581" lon="5.63833">
        <ele>1097.4</ele>
        <time>2026-05-10T14:50:58Z</time>
      </trkpt>
      <trkpt lat="46.01582" lon="5.63838">
        <ele>1097.2</ele>
        <time>2026-05-10T14:50:59Z</time>
      </trkpt>
      <trkpt lat="46.01584" lon="5.63842">
        <ele>1097.8</ele>
        <time>2026-05-10T14:51:00Z</time>
      </trkpt>
      <trkpt lat="46.01587" lon="5.63845">
        <ele>1097.2</ele>
        <time>2026-05-10T14:51:01Z</time>
      </trkpt>
      <trkpt lat="46.01588" lon="5.63849">
        <ele>1096.8</ele>
        <time>2026-05-10T14:51:02Z</time>
      </trkpt>
      <trkpt lat="46.0159" lon="5.63854">
        <ele>1096.4</ele>
        <time>2026-05-10T14:51:03Z</time>
      </trkpt>
      <trkpt lat="46.01593" lon="5.63856">
        <ele>1096.4</ele>
        <time>2026-05-10T14:51:04Z</time>
      </trkpt>
      <trkpt lat="46.01596" lon="5.63858">
        <ele>1096</ele>
        <time>2026-05-10T14:51:05Z</time>
      </trkpt>
      <trkpt lat="46.01599" lon="5.63859">
        <ele>1095.8</ele>
        <time>2026-05-10T14:51:06Z</time>
      </trkpt>
      <trkpt lat="46.01603" lon="5.6386">
        <ele>1095.2</ele>
        <time>2026-05-10T14:51:07Z</time>
      </trkpt>
      <trkpt lat="46.01609" lon="5.63859">
        <ele>1094.6</ele>
        <time>2026-05-10T14:51:08Z</time>
      </trkpt>
      <trkpt lat="46.01612" lon="5.63858">
        <ele>1094</ele>
        <time>2026-05-10T14:51:09Z</time>
      </trkpt>
      <trkpt lat="46.01616" lon="5.63857">
        <ele>1093.8</ele>
        <time>2026-05-10T14:51:10Z</time>
      </trkpt>
      <trkpt lat="46.01619" lon="5.63855">
        <ele>1093.4</ele>
        <time>2026-05-10T14:51:11Z</time>
      </trkpt>
      <trkpt lat="46.01621" lon="5.63854">
        <ele>1093</ele>
        <time>2026-05-10T14:51:12Z</time>
      </trkpt>
      <trkpt lat="46.01624" lon="5.63852">
        <ele>1093</ele>
        <time>2026-05-10T14:51:13Z</time>
      </trkpt>
      <trkpt lat="46.01626" lon="5.63851">
        <ele>1092.4</ele>
        <time>2026-05-10T14:51:14Z</time>
      </trkpt>
      <trkpt lat="46.01629" lon="5.63849">
        <ele>1092.2</ele>
        <time>2026-05-10T14:51:15Z</time>
      </trkpt>
      <trkpt lat="46.01632" lon="5.63847">
        <ele>1091.6</ele>
        <time>2026-05-10T14:51:16Z</time>
      </trkpt>
      <trkpt lat="46.01635" lon="5.63847">
        <ele>1091.4</ele>
        <time>2026-05-10T14:51:17Z</time>
      </trkpt>
      <trkpt lat="46.01638" lon="5.63847">
        <ele>1091.2</ele>
        <time>2026-05-10T14:51:18Z</time>
      </trkpt>
      <trkpt lat="46.0164" lon="5.63849">
        <ele>1090.8</ele>
        <time>2026-05-10T14:51:19Z</time>
      </trkpt>
      <trkpt lat="46.01643" lon="5.63851">
        <ele>1090.4</ele>
        <time>2026-05-10T14:51:20Z</time>
      </trkpt>
      <trkpt lat="46.01645" lon="5.63853">
        <ele>1090.2</ele>
        <time>2026-05-10T14:51:21Z</time>
      </trkpt>
      <trkpt lat="46.01647" lon="5.63856">
        <ele>1089.8</ele>
        <time>2026-05-10T14:51:22Z</time>
      </trkpt>
      <trkpt lat="46.01649" lon="5.63859">
        <ele>1087.8</ele>
        <time>2026-05-10T14:51:23Z</time>
      </trkpt>
      <trkpt lat="46.0165" lon="5.63861">
        <ele>1088</ele>
        <time>2026-05-10T14:51:24Z</time>
      </trkpt>
      <trkpt lat="46.01651" lon="5.63862">
        <ele>1088</ele>
        <time>2026-05-10T14:51:25Z</time>
      </trkpt>
      <trkpt lat="46.01653" lon="5.63865">
        <ele>1088</ele>
        <time>2026-05-10T14:51:26Z</time>
      </trkpt>
      <trkpt lat="46.01654" lon="5.63867">
        <ele>1088</ele>
        <time>2026-05-10T14:51:27Z</time>
      </trkpt>
      <trkpt lat="46.01656" lon="5.6387">
        <ele>1087.2</ele>
        <time>2026-05-10T14:51:28Z</time>
      </trkpt>
      <trkpt lat="46.01656" lon="5.6387">
        <ele>1087.2</ele>
        <time>2026-05-10T14:51:29Z</time>
      </trkpt>
      <trkpt lat="46.01658" lon="5.63872">
        <ele>1087.2</ele>
        <time>2026-05-10T14:51:30Z</time>
      </trkpt>
      <trkpt lat="46.0166" lon="5.63874">
        <ele>1086.8</ele>
        <time>2026-05-10T14:51:31Z</time>
      </trkpt>
      <trkpt lat="46.01661" lon="5.63877">
        <ele>1086.8</ele>
        <time>2026-05-10T14:51:32Z</time>
      </trkpt>
      <trkpt lat="46.01661" lon="5.63881">
        <ele>1086.8</ele>
        <time>2026-05-10T14:51:33Z</time>
      </trkpt>
      <trkpt lat="46.01661" lon="5.63885">
        <ele>1086.8</ele>
        <time>2026-05-10T14:51:34Z</time>
      </trkpt>
      <trkpt lat="46.0166" lon="5.63889">
        <ele>1086.4</ele>
        <time>2026-05-10T14:51:35Z</time>
      </trkpt>
      <trkpt lat="46.01657" lon="5.63892">
        <ele>1086.4</ele>
        <time>2026-05-10T14:51:36Z</time>
      </trkpt>
      <trkpt lat="46.01655" lon="5.63896">
        <ele>1086</ele>
        <time>2026-05-10T14:51:37Z</time>
      </trkpt>
      <trkpt lat="46.01651" lon="5.63899">
        <ele>1085.8</ele>
        <time>2026-05-10T14:51:38Z</time>
      </trkpt>
      <trkpt lat="46.01648" lon="5.63902">
        <ele>1085.8</ele>
        <time>2026-05-10T14:51:39Z</time>
      </trkpt>
      <trkpt lat="46.01645" lon="5.63905">
        <ele>1085.4</ele>
        <time>2026-05-10T14:51:40Z</time>
      </trkpt>
      <trkpt lat="46.01642" lon="5.63908">
        <ele>1085</ele>
        <time>2026-05-10T14:51:41Z</time>
      </trkpt>
      <trkpt lat="46.01639" lon="5.63911">
        <ele>1084.6</ele>
        <time>2026-05-10T14:51:42Z</time>
      </trkpt>
      <trkpt lat="46.01636" lon="5.63914">
        <ele>1084.4</ele>
        <time>2026-05-10T14:51:43Z</time>
      </trkpt>
      <trkpt lat="46.01633" lon="5.63917">
        <ele>1083.8</ele>
        <time>2026-05-10T14:51:44Z</time>
      </trkpt>
      <trkpt lat="46.0163" lon="5.6392">
        <ele>1083.8</ele>
        <time>2026-05-10T14:51:45Z</time>
      </trkpt>
      <trkpt lat="46.01627" lon="5.63922">
        <ele>1083.6</ele>
        <time>2026-05-10T14:51:46Z</time>
      </trkpt>
      <trkpt lat="46.01624" lon="5.63924">
        <ele>1083.6</ele>
        <time>2026-05-10T14:51:47Z</time>
      </trkpt>
      <trkpt lat="46.01621" lon="5.63927">
        <ele>1083.6</ele>
        <time>2026-05-10T14:51:48Z</time>
      </trkpt>
      <trkpt lat="46.01617" lon="5.6393">
        <ele>1083.2</ele>
        <time>2026-05-10T14:51:49Z</time>
      </trkpt>
      <trkpt lat="46.01614" lon="5.63932">
        <ele>1083.2</ele>
        <time>2026-05-10T14:51:50Z</time>
      </trkpt>
      <trkpt lat="46.01611" lon="5.63935">
        <ele>1083</ele>
        <time>2026-05-10T14:51:51Z</time>
      </trkpt>
      <trkpt lat="46.01607" lon="5.63937">
        <ele>1082.4</ele>
        <time>2026-05-10T14:51:52Z</time>
      </trkpt>
      <trkpt lat="46.01603" lon="5.63939">
        <ele>1081.8</ele>
        <time>2026-05-10T14:51:53Z</time>
      </trkpt>
      <trkpt lat="46.01599" lon="5.63941">
        <ele>1081.6</ele>
        <time>2026-05-10T14:51:54Z</time>
      </trkpt>
      <trkpt lat="46.01594" lon="5.63941">
        <ele>1080.8</ele>
        <time>2026-05-10T14:51:55Z</time>
      </trkpt>
      <trkpt lat="46.0159" lon="5.63941">
        <ele>1080.8</ele>
        <time>2026-05-10T14:51:56Z</time>
      </trkpt>
      <trkpt lat="46.01587" lon="5.63941">
        <ele>1080.4</ele>
        <time>2026-05-10T14:51:57Z</time>
      </trkpt>
      <trkpt lat="46.01584" lon="5.6394">
        <ele>1080.4</ele>
        <time>2026-05-10T14:51:58Z</time>
      </trkpt>
      <trkpt lat="46.01582" lon="5.6394">
        <ele>1080</ele>
        <time>2026-05-10T14:51:59Z</time>
      </trkpt>
      <trkpt lat="46.01579" lon="5.63939">
        <ele>1080</ele>
        <time>2026-05-10T14:52:00Z</time>
      </trkpt>
      <trkpt lat="46.01575" lon="5.6394">
        <ele>1079.8</ele>
        <time>2026-05-10T14:52:01Z</time>
      </trkpt>
      <trkpt lat="46.01572" lon="5.6394">
        <ele>1079.4</ele>
        <time>2026-05-10T14:52:02Z</time>
      </trkpt>
      <trkpt lat="46.01568" lon="5.6394">
        <ele>1079</ele>
        <time>2026-05-10T14:52:03Z</time>
      </trkpt>
      <trkpt lat="46.01565" lon="5.6394">
        <ele>1079</ele>
        <time>2026-05-10T14:52:04Z</time>
      </trkpt>
      <trkpt lat="46.01561" lon="5.6394">
        <ele>1079</ele>
        <time>2026-05-10T14:52:05Z</time>
      </trkpt>
      <trkpt lat="46.01557" lon="5.63939">
        <ele>1078.2</ele>
        <time>2026-05-10T14:52:06Z</time>
      </trkpt>
      <trkpt lat="46.01553" lon="5.63938">
        <ele>1078.2</ele>
        <time>2026-05-10T14:52:07Z</time>
      </trkpt>
      <trkpt lat="46.01549" lon="5.63938">
        <ele>1077.6</ele>
        <time>2026-05-10T14:52:08Z</time>
      </trkpt>
      <trkpt lat="46.01545" lon="5.63937">
        <ele>1077</ele>
        <time>2026-05-10T14:52:09Z</time>
      </trkpt>
      <trkpt lat="46.0154" lon="5.63937">
        <ele>1076.4</ele>
        <time>2026-05-10T14:52:10Z</time>
      </trkpt>
      <trkpt lat="46.01537" lon="5.63936">
        <ele>1075.8</ele>
        <time>2026-05-10T14:52:11Z</time>
      </trkpt>
      <trkpt lat="46.01535" lon="5.63935">
        <ele>1074.8</ele>
        <time>2026-05-10T14:52:12Z</time>
      </trkpt>
      <trkpt lat="46.01531" lon="5.63935">
        <ele>1074.8</ele>
        <time>2026-05-10T14:52:13Z</time>
      </trkpt>
      <trkpt lat="46.01527" lon="5.63935">
        <ele>1074</ele>
        <time>2026-05-10T14:52:14Z</time>
      </trkpt>
      <trkpt lat="46.01521" lon="5.63933">
        <ele>1072.8</ele>
        <time>2026-05-10T14:52:15Z</time>
      </trkpt>
      <trkpt lat="46.01516" lon="5.63932">
        <ele>1072.2</ele>
        <time>2026-05-10T14:52:16Z</time>
      </trkpt>
      <trkpt lat="46.0151" lon="5.63932">
        <ele>1071.4</ele>
        <time>2026-05-10T14:52:17Z</time>
      </trkpt>
      <trkpt lat="46.01504" lon="5.63931">
        <ele>1070.8</ele>
        <time>2026-05-10T14:52:18Z</time>
      </trkpt>
      <trkpt lat="46.01498" lon="5.63931">
        <ele>1070.4</ele>
        <time>2026-05-10T14:52:19Z</time>
      </trkpt>
      <trkpt lat="46.01492" lon="5.63932">
        <ele>1070</ele>
        <time>2026-05-10T14:52:20Z</time>
      </trkpt>
      <trkpt lat="46.01486" lon="5.63933">
        <ele>1069.6</ele>
        <time>2026-05-10T14:52:21Z</time>
      </trkpt>
      <trkpt lat="46.01482" lon="5.63933">
        <ele>1069.4</ele>
        <time>2026-05-10T14:52:22Z</time>
      </trkpt>
      <trkpt lat="46.01477" lon="5.63934">
        <ele>1069</ele>
        <time>2026-05-10T14:52:23Z</time>
      </trkpt>
      <trkpt lat="46.01472" lon="5.63935">
        <ele>1068</ele>
        <time>2026-05-10T14:52:24Z</time>
      </trkpt>
      <trkpt lat="46.01465" lon="5.63935">
        <ele>1067.4</ele>
        <time>2026-05-10T14:52:25Z</time>
      </trkpt>
      <trkpt lat="46.01458" lon="5.63936">
        <ele>1066.8</ele>
        <time>2026-05-10T14:52:26Z</time>
      </trkpt>
      <trkpt lat="46.0145" lon="5.63935">
        <ele>1066.4</ele>
        <time>2026-05-10T14:52:27Z</time>
      </trkpt>
      <trkpt lat="46.01442" lon="5.63935">
        <ele>1065.8</ele>
        <time>2026-05-10T14:52:28Z</time>
      </trkpt>
      <trkpt lat="46.01434" lon="5.63933">
        <ele>1065.4</ele>
        <time>2026-05-10T14:52:29Z</time>
      </trkpt>
      <trkpt lat="46.01427" lon="5.63932">
        <ele>1065</ele>
        <time>2026-05-10T14:52:30Z</time>
      </trkpt>
      <trkpt lat="46.0142" lon="5.63929">
        <ele>1064.6</ele>
        <time>2026-05-10T14:52:31Z</time>
      </trkpt>
      <trkpt lat="46.01414" lon="5.63927">
        <ele>1065</ele>
        <time>2026-05-10T14:52:32Z</time>
      </trkpt>
      <trkpt lat="46.01407" lon="5.63926">
        <ele>1064.6</ele>
        <time>2026-05-10T14:52:33Z</time>
      </trkpt>
      <trkpt lat="46.01401" lon="5.63923">
        <ele>1063.4</ele>
        <time>2026-05-10T14:52:34Z</time>
      </trkpt>
      <trkpt lat="46.01395" lon="5.63921">
        <ele>1063.8</ele>
        <time>2026-05-10T14:52:35Z</time>
      </trkpt>
      <trkpt lat="46.0139" lon="5.63917">
        <ele>1064.2</ele>
        <time>2026-05-10T14:52:36Z</time>
      </trkpt>
      <trkpt lat="46.01385" lon="5.63914">
        <ele>1064.2</ele>
        <time>2026-05-10T14:52:37Z</time>
      </trkpt>
      <trkpt lat="46.0138" lon="5.63911">
        <ele>1064</ele>
        <time>2026-05-10T14:52:38Z</time>
      </trkpt>
      <trkpt lat="46.01375" lon="5.63907">
        <ele>1064</ele>
        <time>2026-05-10T14:52:39Z</time>
      </trkpt>
      <trkpt lat="46.0137" lon="5.63905">
        <ele>1064</ele>
        <time>2026-05-10T14:52:40Z</time>
      </trkpt>
      <trkpt lat="46.01365" lon="5.63902">
        <ele>1064</ele>
        <time>2026-05-10T14:52:41Z</time>
      </trkpt>
      <trkpt lat="46.01359" lon="5.63899">
        <ele>1063.6</ele>
        <time>2026-05-10T14:52:42Z</time>
      </trkpt>
      <trkpt lat="46.01354" lon="5.63898">
        <ele>1062.8</ele>
        <time>2026-05-10T14:52:43Z</time>
      </trkpt>
      <trkpt lat="46.01349" lon="5.63897">
        <ele>1063.2</ele>
        <time>2026-05-10T14:52:44Z</time>
      </trkpt>
      <trkpt lat="46.01344" lon="5.63895">
        <ele>1063.8</ele>
        <time>2026-05-10T14:52:45Z</time>
      </trkpt>
      <trkpt lat="46.01341" lon="5.63894">
        <ele>1064.4</ele>
        <time>2026-05-10T14:52:46Z</time>
      </trkpt>
      <trkpt lat="46.01337" lon="5.63893">
        <ele>1064.4</ele>
        <time>2026-05-10T14:52:47Z</time>
      </trkpt>
      <trkpt lat="46.01333" lon="5.63893">
        <ele>1065.2</ele>
        <time>2026-05-10T14:52:48Z</time>
      </trkpt>
      <trkpt lat="46.01329" lon="5.63892">
        <ele>1065.2</ele>
        <time>2026-05-10T14:52:49Z</time>
      </trkpt>
      <trkpt lat="46.01325" lon="5.63891">
        <ele>1065.2</ele>
        <time>2026-05-10T14:52:50Z</time>
      </trkpt>
      <trkpt lat="46.0132" lon="5.6389">
        <ele>1064.8</ele>
        <time>2026-05-10T14:52:51Z</time>
      </trkpt>
      <trkpt lat="46.01316" lon="5.6389">
        <ele>1064.4</ele>
        <time>2026-05-10T14:52:52Z</time>
      </trkpt>
      <trkpt lat="46.01311" lon="5.6389">
        <ele>1064.4</ele>
        <time>2026-05-10T14:52:53Z</time>
      </trkpt>
      <trkpt lat="46.01306" lon="5.6389">
        <ele>1064.2</ele>
        <time>2026-05-10T14:52:54Z</time>
      </trkpt>
      <trkpt lat="46.01301" lon="5.63891">
        <ele>1064.2</ele>
        <time>2026-05-10T14:52:55Z</time>
      </trkpt>
      <trkpt lat="46.01297" lon="5.63891">
        <ele>1064.2</ele>
        <time>2026-05-10T14:52:56Z</time>
      </trkpt>
      <trkpt lat="46.01293" lon="5.63892">
        <ele>1064.2</ele>
        <time>2026-05-10T14:52:57Z</time>
      </trkpt>
      <trkpt lat="46.01289" lon="5.63892">
        <ele>1064.2</ele>
        <time>2026-05-10T14:52:58Z</time>
      </trkpt>
      <trkpt lat="46.01286" lon="5.63893">
        <ele>1064.4</ele>
        <time>2026-05-10T14:52:59Z</time>
      </trkpt>
      <trkpt lat="46.01284" lon="5.63894">
        <ele>1064.8</ele>
        <time>2026-05-10T14:53:00Z</time>
      </trkpt>
      <trkpt lat="46.01281" lon="5.63896">
        <ele>1064.8</ele>
        <time>2026-05-10T14:53:01Z</time>
      </trkpt>
      <trkpt lat="46.01278" lon="5.63897">
        <ele>1064.8</ele>
        <time>2026-05-10T14:53:02Z</time>
      </trkpt>
      <trkpt lat="46.01275" lon="5.63898">
        <ele>1064.8</ele>
        <time>2026-05-10T14:53:03Z</time>
      </trkpt>
      <trkpt lat="46.01272" lon="5.63899">
        <ele>1064.8</ele>
        <time>2026-05-10T14:53:04Z</time>
      </trkpt>
      <trkpt lat="46.01269" lon="5.63901">
        <ele>1065</ele>
        <time>2026-05-10T14:53:05Z</time>
      </trkpt>
      <trkpt lat="46.01267" lon="5.63904">
        <ele>1065</ele>
        <time>2026-05-10T14:53:06Z</time>
      </trkpt>
      <trkpt lat="46.01266" lon="5.63906">
        <ele>1065</ele>
        <time>2026-05-10T14:53:07Z</time>
      </trkpt>
      <trkpt lat="46.01265" lon="5.63908">
        <ele>1065</ele>
        <time>2026-05-10T14:53:08Z</time>
      </trkpt>
      <trkpt lat="46.01262" lon="5.6391">
        <ele>1065</ele>
        <time>2026-05-10T14:53:09Z</time>
      </trkpt>
      <trkpt lat="46.01254" lon="5.63908">
        <ele>1065</ele>
        <time>2026-05-10T14:53:10Z</time>
      </trkpt>
      <trkpt lat="46.01251" lon="5.63906">
        <ele>1065</ele>
        <time>2026-05-10T14:53:11Z</time>
      </trkpt>
      <trkpt lat="46.01247" lon="5.63905">
        <ele>1065</ele>
        <time>2026-05-10T14:53:12Z</time>
      </trkpt>
      <trkpt lat="46.01244" lon="5.63906">
        <ele>1065.2</ele>
        <time>2026-05-10T14:53:13Z</time>
      </trkpt>
      <trkpt lat="46.01243" lon="5.63905">
        <ele>1065.2</ele>
        <time>2026-05-10T14:53:14Z</time>
      </trkpt>
      <trkpt lat="46.01241" lon="5.63904">
        <ele>1065.8</ele>
        <time>2026-05-10T14:53:15Z</time>
      </trkpt>
      <trkpt lat="46.01239" lon="5.63904">
        <ele>1065.8</ele>
        <time>2026-05-10T14:53:16Z</time>
      </trkpt>
      <trkpt lat="46.01239" lon="5.63903">
        <ele>1066.4</ele>
        <time>2026-05-10T14:53:17Z</time>
      </trkpt>
      <trkpt lat="46.01237" lon="5.63902">
        <ele>1066.4</ele>
        <time>2026-05-10T14:53:18Z</time>
      </trkpt>
      <trkpt lat="46.01235" lon="5.63901">
        <ele>1066.8</ele>
        <time>2026-05-10T14:53:19Z</time>
      </trkpt>
      <trkpt lat="46.01234" lon="5.63901">
        <ele>1067.2</ele>
        <time>2026-05-10T14:53:20Z</time>
      </trkpt>
      <trkpt lat="46.01233" lon="5.63901">
        <ele>1067.4</ele>
        <time>2026-05-10T14:53:21Z</time>
      </trkpt>
      <trkpt lat="46.01231" lon="5.639">
        <ele>1067.4</ele>
        <time>2026-05-10T14:53:22Z</time>
      </trkpt>
      <trkpt lat="46.0123" lon="5.63899">
        <ele>1067.8</ele>
        <time>2026-05-10T14:53:23Z</time>
      </trkpt>
      <trkpt lat="46.01229" lon="5.63899">
        <ele>1067.8</ele>
        <time>2026-05-10T14:53:24Z</time>
      </trkpt>
      <trkpt lat="46.01227" lon="5.63898">
        <ele>1068</ele>
        <time>2026-05-10T14:53:25Z</time>
      </trkpt>
      <trkpt lat="46.01226" lon="5.63897">
        <ele>1068.4</ele>
        <time>2026-05-10T14:53:26Z</time>
      </trkpt>
      <trkpt lat="46.01224" lon="5.63896">
        <ele>1068.4</ele>
        <time>2026-05-10T14:53:27Z</time>
      </trkpt>
      <trkpt lat="46.01222" lon="5.63896">
        <ele>1068.6</ele>
        <time>2026-05-10T14:53:28Z</time>
      </trkpt>
      <trkpt lat="46.01221" lon="5.63896">
        <ele>1068.8</ele>
        <time>2026-05-10T14:53:29Z</time>
      </trkpt>
      <trkpt lat="46.01219" lon="5.63896">
        <ele>1069.2</ele>
        <time>2026-05-10T14:53:30Z</time>
      </trkpt>
      <trkpt lat="46.01218" lon="5.63896">
        <ele>1069.4</ele>
        <time>2026-05-10T14:53:31Z</time>
      </trkpt>
      <trkpt lat="46.01216" lon="5.63896">
        <ele>1069.6</ele>
        <time>2026-05-10T14:53:32Z</time>
      </trkpt>
      <trkpt lat="46.01214" lon="5.63896">
        <ele>1069.6</ele>
        <time>2026-05-10T14:53:33Z</time>
      </trkpt>
      <trkpt lat="46.01213" lon="5.63895">
        <ele>1070</ele>
        <time>2026-05-10T14:53:34Z</time>
      </trkpt>
      <trkpt lat="46.01211" lon="5.63894">
        <ele>1070.2</ele>
        <time>2026-05-10T14:53:35Z</time>
      </trkpt>
      <trkpt lat="46.0121" lon="5.63893">
        <ele>1070.4</ele>
        <time>2026-05-10T14:53:36Z</time>
      </trkpt>
      <trkpt lat="46.01209" lon="5.63892">
        <ele>1070.4</ele>
        <time>2026-05-10T14:53:37Z</time>
      </trkpt>
      <trkpt lat="46.01208" lon="5.63892">
        <ele>1071</ele>
        <time>2026-05-10T14:53:38Z</time>
      </trkpt>
      <trkpt lat="46.01207" lon="5.63891">
        <ele>1071.2</ele>
        <time>2026-05-10T14:53:39Z</time>
      </trkpt>
      <trkpt lat="46.01205" lon="5.6389">
        <ele>1071.2</ele>
        <time>2026-05-10T14:53:40Z</time>
      </trkpt>
      <trkpt lat="46.01204" lon="5.6389">
        <ele>1071.2</ele>
        <time>2026-05-10T14:53:41Z</time>
      </trkpt>
      <trkpt lat="46.01204" lon="5.63889">
        <ele>1071.6</ele>
        <time>2026-05-10T14:53:42Z</time>
      </trkpt>
      <trkpt lat="46.01203" lon="5.63888">
        <ele>1071.8</ele>
        <time>2026-05-10T14:53:43Z</time>
      </trkpt>
      <trkpt lat="46.01202" lon="5.63887">
        <ele>1071.8</ele>
        <time>2026-05-10T14:53:44Z</time>
      </trkpt>
      <trkpt lat="46.01201" lon="5.63887">
        <ele>1072</ele>
        <time>2026-05-10T14:53:45Z</time>
      </trkpt>
      <trkpt lat="46.01199" lon="5.63886">
        <ele>1072</ele>
        <time>2026-05-10T14:53:46Z</time>
      </trkpt>
      <trkpt lat="46.01199" lon="5.63886">
        <ele>1072.2</ele>
        <time>2026-05-10T14:53:47Z</time>
      </trkpt>
      <trkpt lat="46.01198" lon="5.63885">
        <ele>1072.2</ele>
        <time>2026-05-10T14:53:48Z</time>
      </trkpt>
      <trkpt lat="46.01197" lon="5.63884">
        <ele>1072.6</ele>
        <time>2026-05-10T14:53:49Z</time>
      </trkpt>
      <trkpt lat="46.01195" lon="5.63883">
        <ele>1072.6</ele>
        <time>2026-05-10T14:53:50Z</time>
      </trkpt>
      <trkpt lat="46.01191" lon="5.63882">
        <ele>1072.6</ele>
        <time>2026-05-10T14:53:51Z</time>
      </trkpt>
      <trkpt lat="46.01189" lon="5.63882">
        <ele>1072.6</ele>
        <time>2026-05-10T14:53:52Z</time>
      </trkpt>
      <trkpt lat="46.01188" lon="5.63881">
        <ele>1072.6</ele>
        <time>2026-05-10T14:53:53Z</time>
      </trkpt>
      <trkpt lat="46.01188" lon="5.6388">
        <ele>1072.6</ele>
        <time>2026-05-10T14:53:54Z</time>
      </trkpt>
      <trkpt lat="46.01187" lon="5.63879">
        <ele>1072.6</ele>
        <time>2026-05-10T14:53:55Z</time>
      </trkpt>
      <trkpt lat="46.01186" lon="5.63878">
        <ele>1072.6</ele>
        <time>2026-05-10T14:53:56Z</time>
      </trkpt>
      <trkpt lat="46.01185" lon="5.63877">
        <ele>1072.6</ele>
        <time>2026-05-10T14:53:57Z</time>
      </trkpt>
      <trkpt lat="46.01183" lon="5.63877">
        <ele>1072.4</ele>
        <time>2026-05-10T14:53:58Z</time>
      </trkpt>
      <trkpt lat="46.01181" lon="5.63877">
        <ele>1072.4</ele>
        <time>2026-05-10T14:53:59Z</time>
      </trkpt>
      <trkpt lat="46.0118" lon="5.63875">
        <ele>1072.4</ele>
        <time>2026-05-10T14:54:00Z</time>
      </trkpt>
      <trkpt lat="46.01178" lon="5.63874">
        <ele>1072</ele>
        <time>2026-05-10T14:54:01Z</time>
      </trkpt>
      <trkpt lat="46.01176" lon="5.63874">
        <ele>1072</ele>
        <time>2026-05-10T14:54:02Z</time>
      </trkpt>
      <trkpt lat="46.01174" lon="5.63873">
        <ele>1072.4</ele>
        <time>2026-05-10T14:54:03Z</time>
      </trkpt>
      <trkpt lat="46.01172" lon="5.63873">
        <ele>1072.4</ele>
        <time>2026-05-10T14:54:04Z</time>
      </trkpt>
      <trkpt lat="46.0117" lon="5.63872">
        <ele>1072.6</ele>
        <time>2026-05-10T14:54:05Z</time>
      </trkpt>
      <trkpt lat="46.01168" lon="5.63871">
        <ele>1072.8</ele>
        <time>2026-05-10T14:54:06Z</time>
      </trkpt>
      <trkpt lat="46.01166" lon="5.6387">
        <ele>1072.8</ele>
        <time>2026-05-10T14:54:07Z</time>
      </trkpt>
      <trkpt lat="46.01164" lon="5.6387">
        <ele>1072.8</ele>
        <time>2026-05-10T14:54:08Z</time>
      </trkpt>
      <trkpt lat="46.01162" lon="5.6387">
        <ele>1072.8</ele>
        <time>2026-05-10T14:54:09Z</time>
      </trkpt>
      <trkpt lat="46.01161" lon="5.63869">
        <ele>1072.8</ele>
        <time>2026-05-10T14:54:10Z</time>
      </trkpt>
      <trkpt lat="46.01161" lon="5.63869">
        <ele>1073</ele>
        <time>2026-05-10T14:54:11Z</time>
      </trkpt>
      <trkpt lat="46.01159" lon="5.63869">
        <ele>1073</ele>
        <time>2026-05-10T14:54:12Z</time>
      </trkpt>
      <trkpt lat="46.01157" lon="5.63868">
        <ele>1073</ele>
        <time>2026-05-10T14:54:13Z</time>
      </trkpt>
      <trkpt lat="46.01155" lon="5.63867">
        <ele>1073</ele>
        <time>2026-05-10T14:54:14Z</time>
      </trkpt>
      <trkpt lat="46.01154" lon="5.63867">
        <ele>1073.4</ele>
        <time>2026-05-10T14:54:15Z</time>
      </trkpt>
      <trkpt lat="46.01152" lon="5.63866">
        <ele>1073.4</ele>
        <time>2026-05-10T14:54:16Z</time>
      </trkpt>
      <trkpt lat="46.01151" lon="5.63866">
        <ele>1073.8</ele>
        <time>2026-05-10T14:54:17Z</time>
      </trkpt>
      <trkpt lat="46.0115" lon="5.63865">
        <ele>1073.8</ele>
        <time>2026-05-10T14:54:18Z</time>
      </trkpt>
      <trkpt lat="46.01148" lon="5.63864">
        <ele>1074</ele>
        <time>2026-05-10T14:54:19Z</time>
      </trkpt>
      <trkpt lat="46.01146" lon="5.63863">
        <ele>1074</ele>
        <time>2026-05-10T14:54:20Z</time>
      </trkpt>
      <trkpt lat="46.01144" lon="5.63863">
        <ele>1074</ele>
        <time>2026-05-10T14:54:21Z</time>
      </trkpt>
      <trkpt lat="46.01142" lon="5.63862">
        <ele>1074</ele>
        <time>2026-05-10T14:54:22Z</time>
      </trkpt>
      <trkpt lat="46.01139" lon="5.63862">
        <ele>1074</ele>
        <time>2026-05-10T14:54:23Z</time>
      </trkpt>
      <trkpt lat="46.01137" lon="5.63861">
        <ele>1074</ele>
        <time>2026-05-10T14:54:24Z</time>
      </trkpt>
      <trkpt lat="46.01134" lon="5.63861">
        <ele>1074</ele>
        <time>2026-05-10T14:54:25Z</time>
      </trkpt>
      <trkpt lat="46.01132" lon="5.63861">
        <ele>1073.8</ele>
        <time>2026-05-10T14:54:26Z</time>
      </trkpt>
      <trkpt lat="46.01129" lon="5.63861">
        <ele>1073.8</ele>
        <time>2026-05-10T14:54:27Z</time>
      </trkpt>
      <trkpt lat="46.01126" lon="5.63861">
        <ele>1073.8</ele>
        <time>2026-05-10T14:54:28Z</time>
      </trkpt>
      <trkpt lat="46.01123" lon="5.63861">
        <ele>1073.4</ele>
        <time>2026-05-10T14:54:29Z</time>
      </trkpt>
      <trkpt lat="46.0112" lon="5.6386">
        <ele>1073.4</ele>
        <time>2026-05-10T14:54:30Z</time>
      </trkpt>
      <trkpt lat="46.01118" lon="5.6386">
        <ele>1073.2</ele>
        <time>2026-05-10T14:54:31Z</time>
      </trkpt>
      <trkpt lat="46.01114" lon="5.63859">
        <ele>1073.2</ele>
        <time>2026-05-10T14:54:32Z</time>
      </trkpt>
      <trkpt lat="46.01111" lon="5.63858">
        <ele>1072.8</ele>
        <time>2026-05-10T14:54:33Z</time>
      </trkpt>
      <trkpt lat="46.01108" lon="5.63858">
        <ele>1072.6</ele>
        <time>2026-05-10T14:54:34Z</time>
      </trkpt>
      <trkpt lat="46.01104" lon="5.63859">
        <ele>1072.4</ele>
        <time>2026-05-10T14:54:35Z</time>
      </trkpt>
      <trkpt lat="46.01101" lon="5.63859">
        <ele>1073</ele>
        <time>2026-05-10T14:54:36Z</time>
      </trkpt>
      <trkpt lat="46.01099" lon="5.63859">
        <ele>1073</ele>
        <time>2026-05-10T14:54:37Z</time>
      </trkpt>
      <trkpt lat="46.01097" lon="5.63859">
        <ele>1073</ele>
        <time>2026-05-10T14:54:38Z</time>
      </trkpt>
      <trkpt lat="46.01095" lon="5.63859">
        <ele>1072.6</ele>
        <time>2026-05-10T14:54:39Z</time>
      </trkpt>
      <trkpt lat="46.01093" lon="5.6386">
        <ele>1072.4</ele>
        <time>2026-05-10T14:54:40Z</time>
      </trkpt>
      <trkpt lat="46.0109" lon="5.6386">
        <ele>1072</ele>
        <time>2026-05-10T14:54:41Z</time>
      </trkpt>
      <trkpt lat="46.01087" lon="5.63861">
        <ele>1072</ele>
        <time>2026-05-10T14:54:42Z</time>
      </trkpt>
      <trkpt lat="46.01085" lon="5.6386">
        <ele>1071.8</ele>
        <time>2026-05-10T14:54:43Z</time>
      </trkpt>
      <trkpt lat="46.01083" lon="5.6386">
        <ele>1071.4</ele>
        <time>2026-05-10T14:54:44Z</time>
      </trkpt>
      <trkpt lat="46.0108" lon="5.63859">
        <ele>1071.2</ele>
        <time>2026-05-10T14:54:45Z</time>
      </trkpt>
      <trkpt lat="46.01078" lon="5.63859">
        <ele>1071.2</ele>
        <time>2026-05-10T14:54:46Z</time>
      </trkpt>
      <trkpt lat="46.01076" lon="5.63859">
        <ele>1071.2</ele>
        <time>2026-05-10T14:54:47Z</time>
      </trkpt>
      <trkpt lat="46.01073" lon="5.63859">
        <ele>1070.8</ele>
        <time>2026-05-10T14:54:48Z</time>
      </trkpt>
      <trkpt lat="46.01071" lon="5.63859">
        <ele>1070.8</ele>
        <time>2026-05-10T14:54:49Z</time>
      </trkpt>
      <trkpt lat="46.01068" lon="5.63859">
        <ele>1071.2</ele>
        <time>2026-05-10T14:54:50Z</time>
      </trkpt>
      <trkpt lat="46.01065" lon="5.63858">
        <ele>1071.2</ele>
        <time>2026-05-10T14:54:51Z</time>
      </trkpt>
      <trkpt lat="46.01062" lon="5.63858">
        <ele>1071</ele>
        <time>2026-05-10T14:54:52Z</time>
      </trkpt>
      <trkpt lat="46.0106" lon="5.63858">
        <ele>1071</ele>
        <time>2026-05-10T14:54:53Z</time>
      </trkpt>
      <trkpt lat="46.01057" lon="5.63858">
        <ele>1071.2</ele>
        <time>2026-05-10T14:54:54Z</time>
      </trkpt>
      <trkpt lat="46.01055" lon="5.63858">
        <ele>1071.6</ele>
        <time>2026-05-10T14:54:55Z</time>
      </trkpt>
      <trkpt lat="46.01052" lon="5.63857">
        <ele>1071.8</ele>
        <time>2026-05-10T14:54:56Z</time>
      </trkpt>
      <trkpt lat="46.0105" lon="5.63857">
        <ele>1071.8</ele>
        <time>2026-05-10T14:54:57Z</time>
      </trkpt>
      <trkpt lat="46.01048" lon="5.63856">
        <ele>1072.2</ele>
        <time>2026-05-10T14:54:58Z</time>
      </trkpt>
      <trkpt lat="46.01046" lon="5.63855">
        <ele>1072.2</ele>
        <time>2026-05-10T14:54:59Z</time>
      </trkpt>
      <trkpt lat="46.01045" lon="5.63854">
        <ele>1072.4</ele>
        <time>2026-05-10T14:55:00Z</time>
      </trkpt>
      <trkpt lat="46.01042" lon="5.63853">
        <ele>1072.4</ele>
        <time>2026-05-10T14:55:01Z</time>
      </trkpt>
      <trkpt lat="46.0104" lon="5.63852">
        <ele>1072.4</ele>
        <time>2026-05-10T14:55:02Z</time>
      </trkpt>
      <trkpt lat="46.01038" lon="5.63851">
        <ele>1072.4</ele>
        <time>2026-05-10T14:55:03Z</time>
      </trkpt>
      <trkpt lat="46.01035" lon="5.6385">
        <ele>1072.4</ele>
        <time>2026-05-10T14:55:04Z</time>
      </trkpt>
      <trkpt lat="46.01033" lon="5.6385">
        <ele>1072.4</ele>
        <time>2026-05-10T14:55:05Z</time>
      </trkpt>
      <trkpt lat="46.0103" lon="5.6385">
        <ele>1072.4</ele>
        <time>2026-05-10T14:55:06Z</time>
      </trkpt>
      <trkpt lat="46.01028" lon="5.6385">
        <ele>1072.4</ele>
        <time>2026-05-10T14:55:07Z</time>
      </trkpt>
      <trkpt lat="46.01026" lon="5.6385">
        <ele>1072.4</ele>
        <time>2026-05-10T14:55:08Z</time>
      </trkpt>
      <trkpt lat="46.01023" lon="5.6385">
        <ele>1072.2</ele>
        <time>2026-05-10T14:55:09Z</time>
      </trkpt>
      <trkpt lat="46.0102" lon="5.6385">
        <ele>1072.2</ele>
        <time>2026-05-10T14:55:10Z</time>
      </trkpt>
      <trkpt lat="46.01018" lon="5.63851">
        <ele>1072.2</ele>
        <time>2026-05-10T14:55:11Z</time>
      </trkpt>
      <trkpt lat="46.01016" lon="5.63852">
        <ele>1072.2</ele>
        <time>2026-05-10T14:55:12Z</time>
      </trkpt>
      <trkpt lat="46.01013" lon="5.63854">
        <ele>1072.2</ele>
        <time>2026-05-10T14:55:13Z</time>
      </trkpt>
      <trkpt lat="46.01011" lon="5.63855">
        <ele>1072.2</ele>
        <time>2026-05-10T14:55:14Z</time>
      </trkpt>
      <trkpt lat="46.01009" lon="5.63855">
        <ele>1072.4</ele>
        <time>2026-05-10T14:55:15Z</time>
      </trkpt>
      <trkpt lat="46.01007" lon="5.63854">
        <ele>1072.4</ele>
        <time>2026-05-10T14:55:16Z</time>
      </trkpt>
      <trkpt lat="46.01005" lon="5.63854">
        <ele>1072.4</ele>
        <time>2026-05-10T14:55:17Z</time>
      </trkpt>
      <trkpt lat="46.01002" lon="5.63853">
        <ele>1072.4</ele>
        <time>2026-05-10T14:55:18Z</time>
      </trkpt>
      <trkpt lat="46.00999" lon="5.63853">
        <ele>1072.2</ele>
        <time>2026-05-10T14:55:19Z</time>
      </trkpt>
      <trkpt lat="46.00997" lon="5.63853">
        <ele>1072.2</ele>
        <time>2026-05-10T14:55:20Z</time>
      </trkpt>
      <trkpt lat="46.00994" lon="5.63853">
        <ele>1072.2</ele>
        <time>2026-05-10T14:55:21Z</time>
      </trkpt>
      <trkpt lat="46.00992" lon="5.63853">
        <ele>1071.8</ele>
        <time>2026-05-10T14:55:22Z</time>
      </trkpt>
      <trkpt lat="46.00989" lon="5.63852">
        <ele>1071.8</ele>
        <time>2026-05-10T14:55:23Z</time>
      </trkpt>
      <trkpt lat="46.00986" lon="5.63852">
        <ele>1071.8</ele>
        <time>2026-05-10T14:55:24Z</time>
      </trkpt>
      <trkpt lat="46.00984" lon="5.63852">
        <ele>1071.8</ele>
        <time>2026-05-10T14:55:25Z</time>
      </trkpt>
      <trkpt lat="46.00981" lon="5.63852">
        <ele>1071.8</ele>
        <time>2026-05-10T14:55:26Z</time>
      </trkpt>
      <trkpt lat="46.00979" lon="5.63851">
        <ele>1071.8</ele>
        <time>2026-05-10T14:55:27Z</time>
      </trkpt>
      <trkpt lat="46.00977" lon="5.63851">
        <ele>1072.2</ele>
        <time>2026-05-10T14:55:28Z</time>
      </trkpt>
      <trkpt lat="46.00974" lon="5.63851">
        <ele>1072.2</ele>
        <time>2026-05-10T14:55:29Z</time>
      </trkpt>
      <trkpt lat="46.00972" lon="5.63851">
        <ele>1072.2</ele>
        <time>2026-05-10T14:55:30Z</time>
      </trkpt>
      <trkpt lat="46.0097" lon="5.63851">
        <ele>1072.2</ele>
        <time>2026-05-10T14:55:31Z</time>
      </trkpt>
      <trkpt lat="46.00968" lon="5.63851">
        <ele>1072</ele>
        <time>2026-05-10T14:55:32Z</time>
      </trkpt>
      <trkpt lat="46.00966" lon="5.63851">
        <ele>1071.6</ele>
        <time>2026-05-10T14:55:33Z</time>
      </trkpt>
      <trkpt lat="46.00964" lon="5.63851">
        <ele>1071.4</ele>
        <time>2026-05-10T14:55:34Z</time>
      </trkpt>
      <trkpt lat="46.00961" lon="5.63851">
        <ele>1071.2</ele>
        <time>2026-05-10T14:55:35Z</time>
      </trkpt>
      <trkpt lat="46.00959" lon="5.63851">
        <ele>1071.2</ele>
        <time>2026-05-10T14:55:36Z</time>
      </trkpt>
      <trkpt lat="46.00955" lon="5.63851">
        <ele>1070.8</ele>
        <time>2026-05-10T14:55:37Z</time>
      </trkpt>
      <trkpt lat="46.00951" lon="5.63851">
        <ele>1070.4</ele>
        <time>2026-05-10T14:55:38Z</time>
      </trkpt>
      <trkpt lat="46.00946" lon="5.63854">
        <ele>1070.4</ele>
        <time>2026-05-10T14:55:39Z</time>
      </trkpt>
      <trkpt lat="46.00942" lon="5.63855">
        <ele>1070</ele>
        <time>2026-05-10T14:55:40Z</time>
      </trkpt>
      <trkpt lat="46.00938" lon="5.63857">
        <ele>1070</ele>
        <time>2026-05-10T14:55:41Z</time>
      </trkpt>
      <trkpt lat="46.00935" lon="5.63857">
        <ele>1070</ele>
        <time>2026-05-10T14:55:42Z</time>
      </trkpt>
      <trkpt lat="46.00933" lon="5.63857">
        <ele>1070</ele>
        <time>2026-05-10T14:55:43Z</time>
      </trkpt>
      <trkpt lat="46.00929" lon="5.63856">
        <ele>1070</ele>
        <time>2026-05-10T14:55:44Z</time>
      </trkpt>
      <trkpt lat="46.00926" lon="5.63856">
        <ele>1070</ele>
        <time>2026-05-10T14:55:45Z</time>
      </trkpt>
      <trkpt lat="46.00923" lon="5.63856">
        <ele>1070</ele>
        <time>2026-05-10T14:55:46Z</time>
      </trkpt>
      <trkpt lat="46.00922" lon="5.63856">
        <ele>1070</ele>
        <time>2026-05-10T14:55:47Z</time>
      </trkpt>
      <trkpt lat="46.00917" lon="5.63856">
        <ele>1070.2</ele>
        <time>2026-05-10T14:55:48Z</time>
      </trkpt>
      <trkpt lat="46.00912" lon="5.63857">
        <ele>1070</ele>
        <time>2026-05-10T14:55:49Z</time>
      </trkpt>
      <trkpt lat="46.00907" lon="5.63859">
        <ele>1069.4</ele>
        <time>2026-05-10T14:55:50Z</time>
      </trkpt>
      <trkpt lat="46.00904" lon="5.63859">
        <ele>1069</ele>
        <time>2026-05-10T14:55:51Z</time>
      </trkpt>
      <trkpt lat="46.00898" lon="5.63857">
        <ele>1069</ele>
        <time>2026-05-10T14:55:52Z</time>
      </trkpt>
      <trkpt lat="46.00894" lon="5.63856">
        <ele>1069</ele>
        <time>2026-05-10T14:55:53Z</time>
      </trkpt>
      <trkpt lat="46.00891" lon="5.63855">
        <ele>1069.4</ele>
        <time>2026-05-10T14:55:54Z</time>
      </trkpt>
      <trkpt lat="46.00888" lon="5.63854">
        <ele>1069.6</ele>
        <time>2026-05-10T14:55:55Z</time>
      </trkpt>
      <trkpt lat="46.00885" lon="5.6385">
        <ele>1069.8</ele>
        <time>2026-05-10T14:55:56Z</time>
      </trkpt>
      <trkpt lat="46.00884" lon="5.63848">
        <ele>1070</ele>
        <time>2026-05-10T14:55:57Z</time>
      </trkpt>
      <trkpt lat="46.00881" lon="5.63846">
        <ele>1070</ele>
        <time>2026-05-10T14:55:58Z</time>
      </trkpt>
      <trkpt lat="46.0088" lon="5.63845">
        <ele>1070.4</ele>
        <time>2026-05-10T14:55:59Z</time>
      </trkpt>
      <trkpt lat="46.00877" lon="5.63844">
        <ele>1070.4</ele>
        <time>2026-05-10T14:56:00Z</time>
      </trkpt>
      <trkpt lat="46.00875" lon="5.63845">
        <ele>1070.6</ele>
        <time>2026-05-10T14:56:01Z</time>
      </trkpt>
      <trkpt lat="46.00872" lon="5.63844">
        <ele>1070.6</ele>
        <time>2026-05-10T14:56:02Z</time>
      </trkpt>
      <trkpt lat="46.0087" lon="5.63843">
        <ele>1070.6</ele>
        <time>2026-05-10T14:56:03Z</time>
      </trkpt>
      <trkpt lat="46.00868" lon="5.63843">
        <ele>1071</ele>
        <time>2026-05-10T14:56:04Z</time>
      </trkpt>
      <trkpt lat="46.00865" lon="5.63843">
        <ele>1071.4</ele>
        <time>2026-05-10T14:56:05Z</time>
      </trkpt>
      <trkpt lat="46.00863" lon="5.63843">
        <ele>1071.4</ele>
        <time>2026-05-10T14:56:06Z</time>
      </trkpt>
      <trkpt lat="46.0086" lon="5.63843">
        <ele>1071.6</ele>
        <time>2026-05-10T14:56:07Z</time>
      </trkpt>
      <trkpt lat="46.00857" lon="5.63843">
        <ele>1071.6</ele>
        <time>2026-05-10T14:56:08Z</time>
      </trkpt>
      <trkpt lat="46.00854" lon="5.63842">
        <ele>1071.6</ele>
        <time>2026-05-10T14:56:09Z</time>
      </trkpt>
      <trkpt lat="46.00853" lon="5.63841">
        <ele>1071.8</ele>
        <time>2026-05-10T14:56:10Z</time>
      </trkpt>
      <trkpt lat="46.00851" lon="5.6384">
        <ele>1072.2</ele>
        <time>2026-05-10T14:56:11Z</time>
      </trkpt>
      <trkpt lat="46.00849" lon="5.6384">
        <ele>1072.2</ele>
        <time>2026-05-10T14:56:12Z</time>
      </trkpt>
      <trkpt lat="46.00847" lon="5.63839">
        <ele>1072.8</ele>
        <time>2026-05-10T14:56:13Z</time>
      </trkpt>
      <trkpt lat="46.00846" lon="5.63838">
        <ele>1072.8</ele>
        <time>2026-05-10T14:56:14Z</time>
      </trkpt>
      <trkpt lat="46.00844" lon="5.63837">
        <ele>1073.2</ele>
        <time>2026-05-10T14:56:15Z</time>
      </trkpt>
      <trkpt lat="46.00842" lon="5.63835">
        <ele>1073.2</ele>
        <time>2026-05-10T14:56:16Z</time>
      </trkpt>
      <trkpt lat="46.0084" lon="5.63834">
        <ele>1073.6</ele>
        <time>2026-05-10T14:56:17Z</time>
      </trkpt>
      <trkpt lat="46.00838" lon="5.63833">
        <ele>1073.6</ele>
        <time>2026-05-10T14:56:18Z</time>
      </trkpt>
      <trkpt lat="46.00837" lon="5.63832">
        <ele>1074</ele>
        <time>2026-05-10T14:56:19Z</time>
      </trkpt>
      <trkpt lat="46.00835" lon="5.63831">
        <ele>1074.2</ele>
        <time>2026-05-10T14:56:20Z</time>
      </trkpt>
      <trkpt lat="46.00833" lon="5.6383">
        <ele>1074.6</ele>
        <time>2026-05-10T14:56:21Z</time>
      </trkpt>
      <trkpt lat="46.00832" lon="5.63829">
        <ele>1074.8</ele>
        <time>2026-05-10T14:56:22Z</time>
      </trkpt>
      <trkpt lat="46.0083" lon="5.63829">
        <ele>1074.8</ele>
        <time>2026-05-10T14:56:23Z</time>
      </trkpt>
      <trkpt lat="46.00828" lon="5.63828">
        <ele>1075.2</ele>
        <time>2026-05-10T14:56:24Z</time>
      </trkpt>
      <trkpt lat="46.00826" lon="5.63828">
        <ele>1075.2</ele>
        <time>2026-05-10T14:56:25Z</time>
      </trkpt>
      <trkpt lat="46.00824" lon="5.63828">
        <ele>1075.2</ele>
        <time>2026-05-10T14:56:26Z</time>
      </trkpt>
      <trkpt lat="46.00822" lon="5.63828">
        <ele>1075.8</ele>
        <time>2026-05-10T14:56:27Z</time>
      </trkpt>
      <trkpt lat="46.0082" lon="5.63828">
        <ele>1075.8</ele>
        <time>2026-05-10T14:56:28Z</time>
      </trkpt>
      <trkpt lat="46.00819" lon="5.63828">
        <ele>1075.8</ele>
        <time>2026-05-10T14:56:29Z</time>
      </trkpt>
      <trkpt lat="46.00817" lon="5.63829">
        <ele>1075.8</ele>
        <time>2026-05-10T14:56:30Z</time>
      </trkpt>
      <trkpt lat="46.00815" lon="5.63829">
        <ele>1075.8</ele>
        <time>2026-05-10T14:56:31Z</time>
      </trkpt>
      <trkpt lat="46.00813" lon="5.6383">
        <ele>1075.8</ele>
        <time>2026-05-10T14:56:32Z</time>
      </trkpt>
      <trkpt lat="46.00811" lon="5.6383">
        <ele>1075.8</ele>
        <time>2026-05-10T14:56:33Z</time>
      </trkpt>
      <trkpt lat="46.0081" lon="5.6383">
        <ele>1075.8</ele>
        <time>2026-05-10T14:56:34Z</time>
      </trkpt>
      <trkpt lat="46.00808" lon="5.63831">
        <ele>1075.8</ele>
        <time>2026-05-10T14:56:35Z</time>
      </trkpt>
      <trkpt lat="46.00807" lon="5.63831">
        <ele>1076.2</ele>
        <time>2026-05-10T14:56:36Z</time>
      </trkpt>
      <trkpt lat="46.00806" lon="5.6383">
        <ele>1076.2</ele>
        <time>2026-05-10T14:56:37Z</time>
      </trkpt>
      <trkpt lat="46.00806" lon="5.6383">
        <ele>1076.2</ele>
        <time>2026-05-10T14:56:38Z</time>
      </trkpt>
      <trkpt lat="46.00806" lon="5.6383">
        <ele>1076.2</ele>
        <time>2026-05-10T14:56:39Z</time>
      </trkpt>
      <trkpt lat="46.00805" lon="5.6383">
        <ele>1076</ele>
        <time>2026-05-10T14:56:50Z</time>
      </trkpt>
      <trkpt lat="46.00805" lon="5.63829">
        <ele>1076</ele>
        <time>2026-05-10T14:56:51Z</time>
      </trkpt>
      <trkpt lat="46.00804" lon="5.63829">
        <ele>1076</ele>
        <time>2026-05-10T14:56:52Z</time>
      </trkpt>
      <trkpt lat="46.00803" lon="5.6383">
        <ele>1076.6</ele>
        <time>2026-05-10T14:58:31Z</time>
      </trkpt>
      <trkpt lat="46.00803" lon="5.6383">
        <ele>1076.6</ele>
        <time>2026-05-10T14:58:32Z</time>
      </trkpt>
      <trkpt lat="46.00803" lon="5.6383">
        <ele>1076.6</ele>
        <time>2026-05-10T14:58:33Z</time>
      </trkpt>
      <trkpt lat="46.00803" lon="5.6383">
        <ele>1076.6</ele>
        <time>2026-05-10T14:58:34Z</time>
      </trkpt>
      <trkpt lat="46.00803" lon="5.63833">
        <ele>1075.8</ele>
        <time>2026-05-10T14:58:41Z</time>
      </trkpt>
      <trkpt lat="46.00803" lon="5.63833">
        <ele>1075.8</ele>
        <time>2026-05-10T14:58:42Z</time>
      </trkpt>
      <trkpt lat="46.00802" lon="5.63833">
        <ele>1075.8</ele>
        <time>2026-05-10T14:58:43Z</time>
      </trkpt>
      <trkpt lat="46.00802" lon="5.63834">
        <ele>1075.8</ele>
        <time>2026-05-10T14:58:44Z</time>
      </trkpt>
      <trkpt lat="46.00801" lon="5.63834">
        <ele>1075.8</ele>
        <time>2026-05-10T14:58:45Z</time>
      </trkpt>
      <trkpt lat="46.008" lon="5.63834">
        <ele>1075.8</ele>
        <time>2026-05-10T14:58:46Z</time>
      </trkpt>
      <trkpt lat="46.00799" lon="5.63834">
        <ele>1075.8</ele>
        <time>2026-05-10T14:58:47Z</time>
      </trkpt>
      <trkpt lat="46.00798" lon="5.63834">
        <ele>1076.2</ele>
        <time>2026-05-10T14:58:48Z</time>
      </trkpt>
      <trkpt lat="46.00797" lon="5.63833">
        <ele>1076.2</ele>
        <time>2026-05-10T14:58:49Z</time>
      </trkpt>
      <trkpt lat="46.00796" lon="5.63833">
        <ele>1076.2</ele>
        <time>2026-05-10T14:58:50Z</time>
      </trkpt>
      <trkpt lat="46.00795" lon="5.63834">
        <ele>1076.2</ele>
        <time>2026-05-10T14:58:51Z</time>
      </trkpt>
      <trkpt lat="46.00793" lon="5.63834">
        <ele>1076.2</ele>
        <time>2026-05-10T14:58:52Z</time>
      </trkpt>
      <trkpt lat="46.00792" lon="5.63833">
        <ele>1076.2</ele>
        <time>2026-05-10T14:58:53Z</time>
      </trkpt>
      <trkpt lat="46.0079" lon="5.63833">
        <ele>1076.4</ele>
        <time>2026-05-10T14:58:54Z</time>
      </trkpt>
      <trkpt lat="46.00788" lon="5.63833">
        <ele>1076.4</ele>
        <time>2026-05-10T14:58:55Z</time>
      </trkpt>
      <trkpt lat="46.00786" lon="5.63834">
        <ele>1076.4</ele>
        <time>2026-05-10T14:58:56Z</time>
      </trkpt>
      <trkpt lat="46.00784" lon="5.63834">
        <ele>1076.4</ele>
        <time>2026-05-10T14:58:57Z</time>
      </trkpt>
      <trkpt lat="46.00783" lon="5.63835">
        <ele>1076.4</ele>
        <time>2026-05-10T14:58:58Z</time>
      </trkpt>
      <trkpt lat="46.00781" lon="5.63835">
        <ele>1076.4</ele>
        <time>2026-05-10T14:58:59Z</time>
      </trkpt>
      <trkpt lat="46.00777" lon="5.63834">
        <ele>1076.4</ele>
        <time>2026-05-10T14:59:00Z</time>
      </trkpt>
      <trkpt lat="46.00775" lon="5.63834">
        <ele>1076.6</ele>
        <time>2026-05-10T14:59:01Z</time>
      </trkpt>
      <trkpt lat="46.00773" lon="5.63834">
        <ele>1076.6</ele>
        <time>2026-05-10T14:59:02Z</time>
      </trkpt>
      <trkpt lat="46.00772" lon="5.63834">
        <ele>1076.8</ele>
        <time>2026-05-10T14:59:03Z</time>
      </trkpt>
      <trkpt lat="46.00769" lon="5.63834">
        <ele>1076.8</ele>
        <time>2026-05-10T14:59:04Z</time>
      </trkpt>
      <trkpt lat="46.00767" lon="5.63834">
        <ele>1077</ele>
        <time>2026-05-10T14:59:05Z</time>
      </trkpt>
      <trkpt lat="46.00765" lon="5.63833">
        <ele>1077</ele>
        <time>2026-05-10T14:59:06Z</time>
      </trkpt>
      <trkpt lat="46.00762" lon="5.63834">
        <ele>1076.8</ele>
        <time>2026-05-10T14:59:07Z</time>
      </trkpt>
      <trkpt lat="46.00759" lon="5.63834">
        <ele>1076.8</ele>
        <time>2026-05-10T14:59:08Z</time>
      </trkpt>
      <trkpt lat="46.00757" lon="5.63834">
        <ele>1076.8</ele>
        <time>2026-05-10T14:59:09Z</time>
      </trkpt>
      <trkpt lat="46.00755" lon="5.63833">
        <ele>1076.6</ele>
        <time>2026-05-10T14:59:10Z</time>
      </trkpt>
      <trkpt lat="46.00752" lon="5.63833">
        <ele>1076.6</ele>
        <time>2026-05-10T14:59:11Z</time>
      </trkpt>
      <trkpt lat="46.00749" lon="5.63832">
        <ele>1076.6</ele>
        <time>2026-05-10T14:59:12Z</time>
      </trkpt>
      <trkpt lat="46.00747" lon="5.63832">
        <ele>1076.6</ele>
        <time>2026-05-10T14:59:13Z</time>
      </trkpt>
      <trkpt lat="46.00745" lon="5.63832">
        <ele>1076.6</ele>
        <time>2026-05-10T14:59:14Z</time>
      </trkpt>
      <trkpt lat="46.00745" lon="5.63832">
        <ele>1076.6</ele>
        <time>2026-05-10T14:59:15Z</time>
      </trkpt>
      <trkpt lat="46.00742" lon="5.63832">
        <ele>1076.8</ele>
        <time>2026-05-10T14:59:16Z</time>
      </trkpt>
      <trkpt lat="46.00739" lon="5.63832">
        <ele>1076.4</ele>
        <time>2026-05-10T14:59:17Z</time>
      </trkpt>
      <trkpt lat="46.00737" lon="5.63832">
        <ele>1076.4</ele>
        <time>2026-05-10T14:59:18Z</time>
      </trkpt>
      <trkpt lat="46.00734" lon="5.63832">
        <ele>1076.4</ele>
        <time>2026-05-10T14:59:19Z</time>
      </trkpt>
      <trkpt lat="46.00731" lon="5.63832">
        <ele>1076.6</ele>
        <time>2026-05-10T14:59:20Z</time>
      </trkpt>
      <trkpt lat="46.00729" lon="5.63832">
        <ele>1076.6</ele>
        <time>2026-05-10T14:59:21Z</time>
      </trkpt>
      <trkpt lat="46.00727" lon="5.63832">
        <ele>1076.6</ele>
        <time>2026-05-10T14:59:22Z</time>
      </trkpt>
      <trkpt lat="46.00725" lon="5.63832">
        <ele>1076.6</ele>
        <time>2026-05-10T14:59:23Z</time>
      </trkpt>
      <trkpt lat="46.00722" lon="5.63832">
        <ele>1076.6</ele>
        <time>2026-05-10T14:59:24Z</time>
      </trkpt>
      <trkpt lat="46.0072" lon="5.63832">
        <ele>1076.8</ele>
        <time>2026-05-10T14:59:25Z</time>
      </trkpt>
      <trkpt lat="46.00717" lon="5.63832">
        <ele>1076.8</ele>
        <time>2026-05-10T14:59:26Z</time>
      </trkpt>
      <trkpt lat="46.00716" lon="5.63832">
        <ele>1076.8</ele>
        <time>2026-05-10T14:59:27Z</time>
      </trkpt>
      <trkpt lat="46.00714" lon="5.63832">
        <ele>1077.2</ele>
        <time>2026-05-10T14:59:28Z</time>
      </trkpt>
      <trkpt lat="46.00711" lon="5.63832">
        <ele>1077.2</ele>
        <time>2026-05-10T14:59:29Z</time>
      </trkpt>
      <trkpt lat="46.00708" lon="5.63832">
        <ele>1077.2</ele>
        <time>2026-05-10T14:59:30Z</time>
      </trkpt>
      <trkpt lat="46.00706" lon="5.63832">
        <ele>1077.2</ele>
        <time>2026-05-10T14:59:31Z</time>
      </trkpt>
      <trkpt lat="46.00703" lon="5.63832">
        <ele>1077.6</ele>
        <time>2026-05-10T14:59:32Z</time>
      </trkpt>
      <trkpt lat="46.007" lon="5.63831">
        <ele>1077.6</ele>
        <time>2026-05-10T14:59:33Z</time>
      </trkpt>
      <trkpt lat="46.00698" lon="5.63831">
        <ele>1077.6</ele>
        <time>2026-05-10T14:59:34Z</time>
      </trkpt>
      <trkpt lat="46.00695" lon="5.63831">
        <ele>1077.6</ele>
        <time>2026-05-10T14:59:35Z</time>
      </trkpt>
      <trkpt lat="46.00692" lon="5.63831">
        <ele>1077.6</ele>
        <time>2026-05-10T14:59:36Z</time>
      </trkpt>
      <trkpt lat="46.00689" lon="5.6383">
        <ele>1078</ele>
        <time>2026-05-10T14:59:37Z</time>
      </trkpt>
      <trkpt lat="46.00686" lon="5.6383">
        <ele>1077.8</ele>
        <time>2026-05-10T14:59:38Z</time>
      </trkpt>
      <trkpt lat="46.00683" lon="5.63829">
        <ele>1078</ele>
        <time>2026-05-10T14:59:39Z</time>
      </trkpt>
      <trkpt lat="46.0068" lon="5.63829">
        <ele>1078</ele>
        <time>2026-05-10T14:59:40Z</time>
      </trkpt>
      <trkpt lat="46.00677" lon="5.63829">
        <ele>1078</ele>
        <time>2026-05-10T14:59:41Z</time>
      </trkpt>
      <trkpt lat="46.00675" lon="5.63829">
        <ele>1078</ele>
        <time>2026-05-10T14:59:42Z</time>
      </trkpt>
      <trkpt lat="46.00672" lon="5.63829">
        <ele>1078</ele>
        <time>2026-05-10T14:59:43Z</time>
      </trkpt>
      <trkpt lat="46.0067" lon="5.63829">
        <ele>1078</ele>
        <time>2026-05-10T14:59:44Z</time>
      </trkpt>
      <trkpt lat="46.00669" lon="5.63829">
        <ele>1078.2</ele>
        <time>2026-05-10T14:59:45Z</time>
      </trkpt>
      <trkpt lat="46.00668" lon="5.63829">
        <ele>1078.2</ele>
        <time>2026-05-10T14:59:46Z</time>
      </trkpt>
      <trkpt lat="46.00666" lon="5.63829">
        <ele>1078.4</ele>
        <time>2026-05-10T14:59:47Z</time>
      </trkpt>
      <trkpt lat="46.00665" lon="5.63829">
        <ele>1078.4</ele>
        <time>2026-05-10T14:59:48Z</time>
      </trkpt>
      <trkpt lat="46.00663" lon="5.63829">
        <ele>1078.4</ele>
        <time>2026-05-10T14:59:49Z</time>
      </trkpt>
      <trkpt lat="46.00661" lon="5.63829">
        <ele>1078.4</ele>
        <time>2026-05-10T14:59:50Z</time>
      </trkpt>
      <trkpt lat="46.00658" lon="5.63829">
        <ele>1078</ele>
        <time>2026-05-10T14:59:51Z</time>
      </trkpt>
      <trkpt lat="46.00654" lon="5.6383">
        <ele>1077.6</ele>
        <time>2026-05-10T14:59:52Z</time>
      </trkpt>
      <trkpt lat="46.00649" lon="5.63832">
        <ele>1077.2</ele>
        <time>2026-05-10T14:59:53Z</time>
      </trkpt>
      <trkpt lat="46.00643" lon="5.63831">
        <ele>1077.2</ele>
        <time>2026-05-10T14:59:54Z</time>
      </trkpt>
      <trkpt lat="46.00639" lon="5.63833">
        <ele>1077.8</ele>
        <time>2026-05-10T14:59:55Z</time>
      </trkpt>
      <trkpt lat="46.00634" lon="5.63833">
        <ele>1077.2</ele>
        <time>2026-05-10T14:59:56Z</time>
      </trkpt>
      <trkpt lat="46.0063" lon="5.63834">
        <ele>1076.8</ele>
        <time>2026-05-10T14:59:57Z</time>
      </trkpt>
      <trkpt lat="46.00626" lon="5.63834">
        <ele>1076</ele>
        <time>2026-05-10T14:59:58Z</time>
      </trkpt>
      <trkpt lat="46.00623" lon="5.63835">
        <ele>1075.6</ele>
        <time>2026-05-10T14:59:59Z</time>
      </trkpt>
      <trkpt lat="46.00619" lon="5.63835">
        <ele>1075.6</ele>
        <time>2026-05-10T15:00:00Z</time>
      </trkpt>
      <trkpt lat="46.00616" lon="5.63835">
        <ele>1075.4</ele>
        <time>2026-05-10T15:00:01Z</time>
      </trkpt>
      <trkpt lat="46.00611" lon="5.63833">
        <ele>1075</ele>
        <time>2026-05-10T15:00:02Z</time>
      </trkpt>
      <trkpt lat="46.00608" lon="5.63832">
        <ele>1075.2</ele>
        <time>2026-05-10T15:00:03Z</time>
      </trkpt>
      <trkpt lat="46.00605" lon="5.63829">
        <ele>1075.2</ele>
        <time>2026-05-10T15:00:04Z</time>
      </trkpt>
      <trkpt lat="46.00603" lon="5.63826">
        <ele>1075.6</ele>
        <time>2026-05-10T15:00:05Z</time>
      </trkpt>
      <trkpt lat="46.00601" lon="5.63826">
        <ele>1075.6</ele>
        <time>2026-05-10T15:00:06Z</time>
      </trkpt>
      <trkpt lat="46.006" lon="5.63826">
        <ele>1075.8</ele>
        <time>2026-05-10T15:00:07Z</time>
      </trkpt>
      <trkpt lat="46.00598" lon="5.63825">
        <ele>1076.2</ele>
        <time>2026-05-10T15:00:08Z</time>
      </trkpt>
      <trkpt lat="46.00598" lon="5.63824">
        <ele>1076.4</ele>
        <time>2026-05-10T15:00:09Z</time>
      </trkpt>
      <trkpt lat="46.00597" lon="5.63822">
        <ele>1076.4</ele>
        <time>2026-05-10T15:00:10Z</time>
      </trkpt>
      <trkpt lat="46.00595" lon="5.63821">
        <ele>1076.8</ele>
        <time>2026-05-10T15:00:11Z</time>
      </trkpt>
      <trkpt lat="46.00594" lon="5.63822">
        <ele>1077</ele>
        <time>2026-05-10T15:00:12Z</time>
      </trkpt>
      <trkpt lat="46.00592" lon="5.63821">
        <ele>1077.2</ele>
        <time>2026-05-10T15:00:13Z</time>
      </trkpt>
      <trkpt lat="46.00591" lon="5.6382">
        <ele>1077.6</ele>
        <time>2026-05-10T15:00:14Z</time>
      </trkpt>
      <trkpt lat="46.0059" lon="5.63819">
        <ele>1077.8</ele>
        <time>2026-05-10T15:00:15Z</time>
      </trkpt>
      <trkpt lat="46.00588" lon="5.63819">
        <ele>1077.8</ele>
        <time>2026-05-10T15:00:16Z</time>
      </trkpt>
      <trkpt lat="46.00586" lon="5.63818">
        <ele>1078.4</ele>
        <time>2026-05-10T15:00:17Z</time>
      </trkpt>
      <trkpt lat="46.00584" lon="5.63818">
        <ele>1078.4</ele>
        <time>2026-05-10T15:00:18Z</time>
      </trkpt>
      <trkpt lat="46.00582" lon="5.63818">
        <ele>1078.4</ele>
        <time>2026-05-10T15:00:19Z</time>
      </trkpt>
      <trkpt lat="46.00581" lon="5.63817">
        <ele>1078.4</ele>
        <time>2026-05-10T15:00:20Z</time>
      </trkpt>
      <trkpt lat="46.00579" lon="5.63817">
        <ele>1078.4</ele>
        <time>2026-05-10T15:00:21Z</time>
      </trkpt>
      <trkpt lat="46.00575" lon="5.63818">
        <ele>1078.4</ele>
        <time>2026-05-10T15:00:22Z</time>
      </trkpt>
      <trkpt lat="46.00573" lon="5.63818">
        <ele>1078.4</ele>
        <time>2026-05-10T15:00:23Z</time>
      </trkpt>
      <trkpt lat="46.0057" lon="5.63819">
        <ele>1078.4</ele>
        <time>2026-05-10T15:00:24Z</time>
      </trkpt>
      <trkpt lat="46.00567" lon="5.6382">
        <ele>1078.4</ele>
        <time>2026-05-10T15:00:25Z</time>
      </trkpt>
      <trkpt lat="46.00564" lon="5.6382">
        <ele>1078.4</ele>
        <time>2026-05-10T15:00:26Z</time>
      </trkpt>
      <trkpt lat="46.00561" lon="5.63821">
        <ele>1077.8</ele>
        <time>2026-05-10T15:00:27Z</time>
      </trkpt>
      <trkpt lat="46.00557" lon="5.63822">
        <ele>1077.6</ele>
        <time>2026-05-10T15:00:28Z</time>
      </trkpt>
      <trkpt lat="46.00553" lon="5.63823">
        <ele>1077.4</ele>
        <time>2026-05-10T15:00:29Z</time>
      </trkpt>
      <trkpt lat="46.00549" lon="5.63824">
        <ele>1077</ele>
        <time>2026-05-10T15:00:30Z</time>
      </trkpt>
      <trkpt lat="46.00546" lon="5.63825">
        <ele>1077</ele>
        <time>2026-05-10T15:00:31Z</time>
      </trkpt>
      <trkpt lat="46.00543" lon="5.63825">
        <ele>1077.2</ele>
        <time>2026-05-10T15:00:32Z</time>
      </trkpt>
      <trkpt lat="46.0054" lon="5.63826">
        <ele>1077.4</ele>
        <time>2026-05-10T15:00:33Z</time>
      </trkpt>
      <trkpt lat="46.00536" lon="5.63827">
        <ele>1077.8</ele>
        <time>2026-05-10T15:00:34Z</time>
      </trkpt>
      <trkpt lat="46.00532" lon="5.63825">
        <ele>1078</ele>
        <time>2026-05-10T15:00:35Z</time>
      </trkpt>
      <trkpt lat="46.00528" lon="5.63826">
        <ele>1078.2</ele>
        <time>2026-05-10T15:00:36Z</time>
      </trkpt>
      <trkpt lat="46.00525" lon="5.63826">
        <ele>1077.8</ele>
        <time>2026-05-10T15:00:37Z</time>
      </trkpt>
      <trkpt lat="46.00523" lon="5.63826">
        <ele>1078</ele>
        <time>2026-05-10T15:00:38Z</time>
      </trkpt>
      <trkpt lat="46.00521" lon="5.63826">
        <ele>1078</ele>
        <time>2026-05-10T15:00:39Z</time>
      </trkpt>
      <trkpt lat="46.00518" lon="5.63827">
        <ele>1078.4</ele>
        <time>2026-05-10T15:00:40Z</time>
      </trkpt>
      <trkpt lat="46.00516" lon="5.63827">
        <ele>1078.8</ele>
        <time>2026-05-10T15:00:41Z</time>
      </trkpt>
      <trkpt lat="46.00515" lon="5.63827">
        <ele>1079.2</ele>
        <time>2026-05-10T15:00:42Z</time>
      </trkpt>
      <trkpt lat="46.00514" lon="5.63827">
        <ele>1079.4</ele>
        <time>2026-05-10T15:00:43Z</time>
      </trkpt>
      <trkpt lat="46.00513" lon="5.63827">
        <ele>1079.6</ele>
        <time>2026-05-10T15:00:44Z</time>
      </trkpt>
      <trkpt lat="46.00511" lon="5.63828">
        <ele>1079.8</ele>
        <time>2026-05-10T15:00:45Z</time>
      </trkpt>
      <trkpt lat="46.0051" lon="5.6383">
        <ele>1080.2</ele>
        <time>2026-05-10T15:00:46Z</time>
      </trkpt>
      <trkpt lat="46.00509" lon="5.63831">
        <ele>1080.2</ele>
        <time>2026-05-10T15:00:47Z</time>
      </trkpt>
      <trkpt lat="46.00507" lon="5.63833">
        <ele>1080.4</ele>
        <time>2026-05-10T15:00:48Z</time>
      </trkpt>
      <trkpt lat="46.00505" lon="5.63833">
        <ele>1080.4</ele>
        <time>2026-05-10T15:00:49Z</time>
      </trkpt>
      <trkpt lat="46.00504" lon="5.63833">
        <ele>1080.8</ele>
        <time>2026-05-10T15:00:50Z</time>
      </trkpt>
      <trkpt lat="46.00502" lon="5.63834">
        <ele>1081.2</ele>
        <time>2026-05-10T15:00:51Z</time>
      </trkpt>
      <trkpt lat="46.005" lon="5.63834">
        <ele>1081.2</ele>
        <time>2026-05-10T15:00:52Z</time>
      </trkpt>
      <trkpt lat="46.00499" lon="5.63834">
        <ele>1081.4</ele>
        <time>2026-05-10T15:00:53Z</time>
      </trkpt>
      <trkpt lat="46.00497" lon="5.63834">
        <ele>1081.8</ele>
        <time>2026-05-10T15:00:54Z</time>
      </trkpt>
      <trkpt lat="46.00496" lon="5.63834">
        <ele>1081.8</ele>
        <time>2026-05-10T15:00:55Z</time>
      </trkpt>
      <trkpt lat="46.00496" lon="5.63834">
        <ele>1082.2</ele>
        <time>2026-05-10T15:00:56Z</time>
      </trkpt>
      <trkpt lat="46.00495" lon="5.63835">
        <ele>1082.2</ele>
        <time>2026-05-10T15:00:57Z</time>
      </trkpt>
      <trkpt lat="46.00494" lon="5.63835">
        <ele>1082.6</ele>
        <time>2026-05-10T15:00:58Z</time>
      </trkpt>
      <trkpt lat="46.00492" lon="5.63835">
        <ele>1082.8</ele>
        <time>2026-05-10T15:00:59Z</time>
      </trkpt>
      <trkpt lat="46.00491" lon="5.63835">
        <ele>1082.8</ele>
        <time>2026-05-10T15:01:00Z</time>
      </trkpt>
      <trkpt lat="46.00489" lon="5.63835">
        <ele>1082.8</ele>
        <time>2026-05-10T15:01:01Z</time>
      </trkpt>
      <trkpt lat="46.00488" lon="5.63835">
        <ele>1082.8</ele>
        <time>2026-05-10T15:01:02Z</time>
      </trkpt>
      <trkpt lat="46.00486" lon="5.63835">
        <ele>1082.8</ele>
        <time>2026-05-10T15:01:03Z</time>
      </trkpt>
      <trkpt lat="46.00484" lon="5.63835">
        <ele>1082.8</ele>
        <time>2026-05-10T15:01:04Z</time>
      </trkpt>
      <trkpt lat="46.00482" lon="5.63836">
        <ele>1082.8</ele>
        <time>2026-05-10T15:01:05Z</time>
      </trkpt>
      <trkpt lat="46.00479" lon="5.63837">
        <ele>1082.4</ele>
        <time>2026-05-10T15:01:06Z</time>
      </trkpt>
      <trkpt lat="46.00476" lon="5.63837">
        <ele>1082.4</ele>
        <time>2026-05-10T15:01:07Z</time>
      </trkpt>
      <trkpt lat="46.00474" lon="5.63838">
        <ele>1082.4</ele>
        <time>2026-05-10T15:01:08Z</time>
      </trkpt>
      <trkpt lat="46.00471" lon="5.63838">
        <ele>1082.8</ele>
        <time>2026-05-10T15:01:09Z</time>
      </trkpt>
      <trkpt lat="46.0047" lon="5.63838">
        <ele>1083</ele>
        <time>2026-05-10T15:01:10Z</time>
      </trkpt>
      <trkpt lat="46.00468" lon="5.63839">
        <ele>1083.4</ele>
        <time>2026-05-10T15:01:11Z</time>
      </trkpt>
      <trkpt lat="46.00465" lon="5.6384">
        <ele>1083.4</ele>
        <time>2026-05-10T15:01:12Z</time>
      </trkpt>
      <trkpt lat="46.00464" lon="5.6384">
        <ele>1083.8</ele>
        <time>2026-05-10T15:01:13Z</time>
      </trkpt>
      <trkpt lat="46.00463" lon="5.6384">
        <ele>1084.2</ele>
        <time>2026-05-10T15:01:14Z</time>
      </trkpt>
      <trkpt lat="46.00462" lon="5.63839">
        <ele>1084.2</ele>
        <time>2026-05-10T15:01:15Z</time>
      </trkpt>
      <trkpt lat="46.00461" lon="5.63839">
        <ele>1084.6</ele>
        <time>2026-05-10T15:01:16Z</time>
      </trkpt>
      <trkpt lat="46.0046" lon="5.63839">
        <ele>1084.6</ele>
        <time>2026-05-10T15:01:17Z</time>
      </trkpt>
      <trkpt lat="46.00458" lon="5.63838">
        <ele>1084.8</ele>
        <time>2026-05-10T15:01:18Z</time>
      </trkpt>
      <trkpt lat="46.00457" lon="5.63838">
        <ele>1084.8</ele>
        <time>2026-05-10T15:01:19Z</time>
      </trkpt>
      <trkpt lat="46.00455" lon="5.63837">
        <ele>1085.2</ele>
        <time>2026-05-10T15:01:20Z</time>
      </trkpt>
      <trkpt lat="46.00453" lon="5.63835">
        <ele>1085.2</ele>
        <time>2026-05-10T15:01:21Z</time>
      </trkpt>
      <trkpt lat="46.00451" lon="5.63835">
        <ele>1085.2</ele>
        <time>2026-05-10T15:01:22Z</time>
      </trkpt>
      <trkpt lat="46.00449" lon="5.63835">
        <ele>1085.2</ele>
        <time>2026-05-10T15:01:23Z</time>
      </trkpt>
      <trkpt lat="46.00448" lon="5.63834">
        <ele>1085.2</ele>
        <time>2026-05-10T15:01:24Z</time>
      </trkpt>
      <trkpt lat="46.00446" lon="5.63834">
        <ele>1085.4</ele>
        <time>2026-05-10T15:01:25Z</time>
      </trkpt>
      <trkpt lat="46.00444" lon="5.63834">
        <ele>1085.8</ele>
        <time>2026-05-10T15:01:26Z</time>
      </trkpt>
      <trkpt lat="46.00442" lon="5.63833">
        <ele>1085.8</ele>
        <time>2026-05-10T15:01:27Z</time>
      </trkpt>
      <trkpt lat="46.00441" lon="5.63832">
        <ele>1085.8</ele>
        <time>2026-05-10T15:01:28Z</time>
      </trkpt>
      <trkpt lat="46.00439" lon="5.63832">
        <ele>1085.8</ele>
        <time>2026-05-10T15:01:29Z</time>
      </trkpt>
      <trkpt lat="46.00437" lon="5.63831">
        <ele>1085.8</ele>
        <time>2026-05-10T15:01:30Z</time>
      </trkpt>
      <trkpt lat="46.00435" lon="5.63831">
        <ele>1085.8</ele>
        <time>2026-05-10T15:01:31Z</time>
      </trkpt>
      <trkpt lat="46.00433" lon="5.63831">
        <ele>1085.8</ele>
        <time>2026-05-10T15:01:32Z</time>
      </trkpt>
      <trkpt lat="46.00432" lon="5.63831">
        <ele>1085.8</ele>
        <time>2026-05-10T15:01:33Z</time>
      </trkpt>
      <trkpt lat="46.0043" lon="5.63831">
        <ele>1086</ele>
        <time>2026-05-10T15:01:34Z</time>
      </trkpt>
      <trkpt lat="46.00428" lon="5.63831">
        <ele>1086</ele>
        <time>2026-05-10T15:01:35Z</time>
      </trkpt>
      <trkpt lat="46.00427" lon="5.63831">
        <ele>1086.2</ele>
        <time>2026-05-10T15:01:36Z</time>
      </trkpt>
      <trkpt lat="46.00425" lon="5.63832">
        <ele>1086.2</ele>
        <time>2026-05-10T15:01:37Z</time>
      </trkpt>
      <trkpt lat="46.00424" lon="5.63832">
        <ele>1086.2</ele>
        <time>2026-05-10T15:01:38Z</time>
      </trkpt>
      <trkpt lat="46.00422" lon="5.63833">
        <ele>1086.6</ele>
        <time>2026-05-10T15:01:39Z</time>
      </trkpt>
      <trkpt lat="46.00421" lon="5.63833">
        <ele>1086.6</ele>
        <time>2026-05-10T15:01:40Z</time>
      </trkpt>
      <trkpt lat="46.00419" lon="5.63833">
        <ele>1086.6</ele>
        <time>2026-05-10T15:01:41Z</time>
      </trkpt>
      <trkpt lat="46.00417" lon="5.63834">
        <ele>1087</ele>
        <time>2026-05-10T15:01:42Z</time>
      </trkpt>
      <trkpt lat="46.00415" lon="5.63834">
        <ele>1087</ele>
        <time>2026-05-10T15:01:43Z</time>
      </trkpt>
      <trkpt lat="46.00413" lon="5.63835">
        <ele>1087.4</ele>
        <time>2026-05-10T15:01:44Z</time>
      </trkpt>
      <trkpt lat="46.00412" lon="5.63835">
        <ele>1087.4</ele>
        <time>2026-05-10T15:01:45Z</time>
      </trkpt>
      <trkpt lat="46.0041" lon="5.63836">
        <ele>1087.6</ele>
        <time>2026-05-10T15:01:46Z</time>
      </trkpt>
      <trkpt lat="46.00408" lon="5.63836">
        <ele>1087.6</ele>
        <time>2026-05-10T15:01:47Z</time>
      </trkpt>
      <trkpt lat="46.00407" lon="5.63836">
        <ele>1088</ele>
        <time>2026-05-10T15:01:48Z</time>
      </trkpt>
      <trkpt lat="46.00405" lon="5.63836">
        <ele>1088</ele>
        <time>2026-05-10T15:01:49Z</time>
      </trkpt>
      <trkpt lat="46.00404" lon="5.63836">
        <ele>1088.4</ele>
        <time>2026-05-10T15:01:50Z</time>
      </trkpt>
      <trkpt lat="46.00402" lon="5.63837">
        <ele>1088.4</ele>
        <time>2026-05-10T15:01:51Z</time>
      </trkpt>
      <trkpt lat="46.00401" lon="5.63837">
        <ele>1088.8</ele>
        <time>2026-05-10T15:01:52Z</time>
      </trkpt>
      <trkpt lat="46.00399" lon="5.63836">
        <ele>1088.8</ele>
        <time>2026-05-10T15:01:53Z</time>
      </trkpt>
      <trkpt lat="46.00398" lon="5.63836">
        <ele>1089</ele>
        <time>2026-05-10T15:01:54Z</time>
      </trkpt>
      <trkpt lat="46.00396" lon="5.63836">
        <ele>1089</ele>
        <time>2026-05-10T15:01:55Z</time>
      </trkpt>
      <trkpt lat="46.00394" lon="5.63835">
        <ele>1089</ele>
        <time>2026-05-10T15:01:56Z</time>
      </trkpt>
      <trkpt lat="46.00391" lon="5.63835">
        <ele>1089</ele>
        <time>2026-05-10T15:01:57Z</time>
      </trkpt>
      <trkpt lat="46.00389" lon="5.63834">
        <ele>1089.2</ele>
        <time>2026-05-10T15:01:58Z</time>
      </trkpt>
      <trkpt lat="46.00387" lon="5.63834">
        <ele>1089.6</ele>
        <time>2026-05-10T15:01:59Z</time>
      </trkpt>
      <trkpt lat="46.00384" lon="5.63835">
        <ele>1089.6</ele>
        <time>2026-05-10T15:02:00Z</time>
      </trkpt>
      <trkpt lat="46.00382" lon="5.63836">
        <ele>1089.2</ele>
        <time>2026-05-10T15:02:01Z</time>
      </trkpt>
      <trkpt lat="46.00379" lon="5.63837">
        <ele>1089.4</ele>
        <time>2026-05-10T15:02:02Z</time>
      </trkpt>
      <trkpt lat="46.00377" lon="5.63838">
        <ele>1089.4</ele>
        <time>2026-05-10T15:02:03Z</time>
      </trkpt>
      <trkpt lat="46.00374" lon="5.6384">
        <ele>1089.4</ele>
        <time>2026-05-10T15:02:04Z</time>
      </trkpt>
      <trkpt lat="46.00371" lon="5.63842">
        <ele>1089.4</ele>
        <time>2026-05-10T15:02:05Z</time>
      </trkpt>
      <trkpt lat="46.00368" lon="5.63844">
        <ele>1089.4</ele>
        <time>2026-05-10T15:02:06Z</time>
      </trkpt>
      <trkpt lat="46.00365" lon="5.63845">
        <ele>1089.6</ele>
        <time>2026-05-10T15:02:07Z</time>
      </trkpt>
      <trkpt lat="46.00361" lon="5.63846">
        <ele>1089.6</ele>
        <time>2026-05-10T15:02:08Z</time>
      </trkpt>
      <trkpt lat="46.00359" lon="5.63847">
        <ele>1089.6</ele>
        <time>2026-05-10T15:02:09Z</time>
      </trkpt>
      <trkpt lat="46.00356" lon="5.63847">
        <ele>1090</ele>
        <time>2026-05-10T15:02:10Z</time>
      </trkpt>
      <trkpt lat="46.00354" lon="5.63848">
        <ele>1090</ele>
        <time>2026-05-10T15:02:11Z</time>
      </trkpt>
      <trkpt lat="46.0035" lon="5.63849">
        <ele>1090</ele>
        <time>2026-05-10T15:02:12Z</time>
      </trkpt>
      <trkpt lat="46.00347" lon="5.6385">
        <ele>1089.6</ele>
        <time>2026-05-10T15:02:13Z</time>
      </trkpt>
      <trkpt lat="46.00345" lon="5.63852">
        <ele>1089.6</ele>
        <time>2026-05-10T15:02:14Z</time>
      </trkpt>
      <trkpt lat="46.00342" lon="5.63854">
        <ele>1088.6</ele>
        <time>2026-05-10T15:02:15Z</time>
      </trkpt>
      <trkpt lat="46.00339" lon="5.63857">
        <ele>1088.4</ele>
        <time>2026-05-10T15:02:16Z</time>
      </trkpt>
      <trkpt lat="46.00336" lon="5.6386">
        <ele>1088.2</ele>
        <time>2026-05-10T15:02:17Z</time>
      </trkpt>
      <trkpt lat="46.00332" lon="5.63863">
        <ele>1087.8</ele>
        <time>2026-05-10T15:02:18Z</time>
      </trkpt>
      <trkpt lat="46.00329" lon="5.63866">
        <ele>1087.2</ele>
        <time>2026-05-10T15:02:19Z</time>
      </trkpt>
      <trkpt lat="46.00325" lon="5.63869">
        <ele>1086.6</ele>
        <time>2026-05-10T15:02:20Z</time>
      </trkpt>
      <trkpt lat="46.00321" lon="5.63873">
        <ele>1085.8</ele>
        <time>2026-05-10T15:02:21Z</time>
      </trkpt>
      <trkpt lat="46.00317" lon="5.63875">
        <ele>1085.2</ele>
        <time>2026-05-10T15:02:22Z</time>
      </trkpt>
      <trkpt lat="46.00312" lon="5.63878">
        <ele>1084.6</ele>
        <time>2026-05-10T15:02:23Z</time>
      </trkpt>
      <trkpt lat="46.00308" lon="5.6388">
        <ele>1084.2</ele>
        <time>2026-05-10T15:02:24Z</time>
      </trkpt>
      <trkpt lat="46.00305" lon="5.63883">
        <ele>1083.8</ele>
        <time>2026-05-10T15:02:25Z</time>
      </trkpt>
      <trkpt lat="46.00302" lon="5.63885">
        <ele>1082.8</ele>
        <time>2026-05-10T15:02:26Z</time>
      </trkpt>
      <trkpt lat="46.00297" lon="5.63887">
        <ele>1081.8</ele>
        <time>2026-05-10T15:02:27Z</time>
      </trkpt>
      <trkpt lat="46.00293" lon="5.6389">
        <ele>1081.2</ele>
        <time>2026-05-10T15:02:28Z</time>
      </trkpt>
      <trkpt lat="46.00288" lon="5.63892">
        <ele>1079.8</ele>
        <time>2026-05-10T15:02:29Z</time>
      </trkpt>
      <trkpt lat="46.00284" lon="5.63895">
        <ele>1079.8</ele>
        <time>2026-05-10T15:02:30Z</time>
      </trkpt>
      <trkpt lat="46.00279" lon="5.63899">
        <ele>1078.8</ele>
        <time>2026-05-10T15:02:31Z</time>
      </trkpt>
      <trkpt lat="46.00274" lon="5.63903">
        <ele>1077.6</ele>
        <time>2026-05-10T15:02:32Z</time>
      </trkpt>
      <trkpt lat="46.00267" lon="5.63907">
        <ele>1076.8</ele>
        <time>2026-05-10T15:02:33Z</time>
      </trkpt>
      <trkpt lat="46.00261" lon="5.6391">
        <ele>1077.2</ele>
        <time>2026-05-10T15:02:34Z</time>
      </trkpt>
      <trkpt lat="46.00255" lon="5.63912">
        <ele>1077</ele>
        <time>2026-05-10T15:02:35Z</time>
      </trkpt>
      <trkpt lat="46.00249" lon="5.63914">
        <ele>1075.4</ele>
        <time>2026-05-10T15:02:36Z</time>
      </trkpt>
      <trkpt lat="46.00244" lon="5.63916">
        <ele>1075.4</ele>
        <time>2026-05-10T15:02:37Z</time>
      </trkpt>
      <trkpt lat="46.00238" lon="5.63916">
        <ele>1075.4</ele>
        <time>2026-05-10T15:02:38Z</time>
      </trkpt>
      <trkpt lat="46.00233" lon="5.63917">
        <ele>1075.4</ele>
        <time>2026-05-10T15:02:39Z</time>
      </trkpt>
      <trkpt lat="46.00228" lon="5.63917">
        <ele>1075.4</ele>
        <time>2026-05-10T15:02:40Z</time>
      </trkpt>
      <trkpt lat="46.00224" lon="5.63917">
        <ele>1075.4</ele>
        <time>2026-05-10T15:02:41Z</time>
      </trkpt>
      <trkpt lat="46.00219" lon="5.63919">
        <ele>1075.6</ele>
        <time>2026-05-10T15:02:42Z</time>
      </trkpt>
      <trkpt lat="46.00214" lon="5.63918">
        <ele>1075.6</ele>
        <time>2026-05-10T15:02:43Z</time>
      </trkpt>
      <trkpt lat="46.00211" lon="5.6392">
        <ele>1076.2</ele>
        <time>2026-05-10T15:02:44Z</time>
      </trkpt>
      <trkpt lat="46.00207" lon="5.6392">
        <ele>1076.6</ele>
        <time>2026-05-10T15:02:45Z</time>
      </trkpt>
      <trkpt lat="46.00201" lon="5.63923">
        <ele>1076.6</ele>
        <time>2026-05-10T15:02:46Z</time>
      </trkpt>
      <trkpt lat="46.00196" lon="5.63926">
        <ele>1076.2</ele>
        <time>2026-05-10T15:02:47Z</time>
      </trkpt>
      <trkpt lat="46.00192" lon="5.63927">
        <ele>1076</ele>
        <time>2026-05-10T15:02:48Z</time>
      </trkpt>
      <trkpt lat="46.00188" lon="5.6393">
        <ele>1076.4</ele>
        <time>2026-05-10T15:02:49Z</time>
      </trkpt>
      <trkpt lat="46.00184" lon="5.63931">
        <ele>1076.4</ele>
        <time>2026-05-10T15:02:50Z</time>
      </trkpt>
      <trkpt lat="46.00181" lon="5.63935">
        <ele>1076.4</ele>
        <time>2026-05-10T15:02:51Z</time>
      </trkpt>
      <trkpt lat="46.00177" lon="5.63936">
        <ele>1076.6</ele>
        <time>2026-05-10T15:02:52Z</time>
      </trkpt>
      <trkpt lat="46.00175" lon="5.63936">
        <ele>1077</ele>
        <time>2026-05-10T15:02:53Z</time>
      </trkpt>
      <trkpt lat="46.00172" lon="5.63937">
        <ele>1077.2</ele>
        <time>2026-05-10T15:02:54Z</time>
      </trkpt>
      <trkpt lat="46.00168" lon="5.63938">
        <ele>1077.6</ele>
        <time>2026-05-10T15:02:55Z</time>
      </trkpt>
      <trkpt lat="46.00166" lon="5.63938">
        <ele>1077.6</ele>
        <time>2026-05-10T15:02:56Z</time>
      </trkpt>
      <trkpt lat="46.00163" lon="5.63938">
        <ele>1077.6</ele>
        <time>2026-05-10T15:02:57Z</time>
      </trkpt>
      <trkpt lat="46.0016" lon="5.6394">
        <ele>1077.6</ele>
        <time>2026-05-10T15:02:58Z</time>
      </trkpt>
      <trkpt lat="46.00157" lon="5.63941">
        <ele>1077.6</ele>
        <time>2026-05-10T15:02:59Z</time>
      </trkpt>
      <trkpt lat="46.00152" lon="5.63941">
        <ele>1077.8</ele>
        <time>2026-05-10T15:03:00Z</time>
      </trkpt>
      <trkpt lat="46.00149" lon="5.63944">
        <ele>1077.8</ele>
        <time>2026-05-10T15:03:01Z</time>
      </trkpt>
      <trkpt lat="46.00146" lon="5.63943">
        <ele>1077.8</ele>
        <time>2026-05-10T15:03:02Z</time>
      </trkpt>
      <trkpt lat="46.00143" lon="5.63945">
        <ele>1077.2</ele>
        <time>2026-05-10T15:03:03Z</time>
      </trkpt>
      <trkpt lat="46.00139" lon="5.63946">
        <ele>1077.2</ele>
        <time>2026-05-10T15:03:04Z</time>
      </trkpt>
      <trkpt lat="46.00137" lon="5.63947">
        <ele>1077.2</ele>
        <time>2026-05-10T15:03:05Z</time>
      </trkpt>
      <trkpt lat="46.00134" lon="5.63947">
        <ele>1077.2</ele>
        <time>2026-05-10T15:03:06Z</time>
      </trkpt>
      <trkpt lat="46.00133" lon="5.63948">
        <ele>1077.8</ele>
        <time>2026-05-10T15:03:07Z</time>
      </trkpt>
      <trkpt lat="46.00131" lon="5.63948">
        <ele>1078.2</ele>
        <time>2026-05-10T15:03:08Z</time>
      </trkpt>
      <trkpt lat="46.0013" lon="5.63949">
        <ele>1078.4</ele>
        <time>2026-05-10T15:03:09Z</time>
      </trkpt>
      <trkpt lat="46.00128" lon="5.63949">
        <ele>1078.8</ele>
        <time>2026-05-10T15:03:10Z</time>
      </trkpt>
      <trkpt lat="46.00128" lon="5.63949">
        <ele>1079.2</ele>
        <time>2026-05-10T15:03:11Z</time>
      </trkpt>
      <trkpt lat="46.00127" lon="5.6395">
        <ele>1079.6</ele>
        <time>2026-05-10T15:03:12Z</time>
      </trkpt>
      <trkpt lat="46.00125" lon="5.6395">
        <ele>1079.8</ele>
        <time>2026-05-10T15:03:13Z</time>
      </trkpt>
      <trkpt lat="46.00124" lon="5.63951">
        <ele>1080.2</ele>
        <time>2026-05-10T15:03:14Z</time>
      </trkpt>
      <trkpt lat="46.00123" lon="5.63953">
        <ele>1080.6</ele>
        <time>2026-05-10T15:03:15Z</time>
      </trkpt>
      <trkpt lat="46.00121" lon="5.63953">
        <ele>1080.8</ele>
        <time>2026-05-10T15:03:16Z</time>
      </trkpt>
      <trkpt lat="46.0012" lon="5.63954">
        <ele>1080.8</ele>
        <time>2026-05-10T15:03:17Z</time>
      </trkpt>
      <trkpt lat="46.00118" lon="5.63954">
        <ele>1081.4</ele>
        <time>2026-05-10T15:03:18Z</time>
      </trkpt>
      <trkpt lat="46.00117" lon="5.63955">
        <ele>1081.4</ele>
        <time>2026-05-10T15:03:19Z</time>
      </trkpt>
      <trkpt lat="46.00115" lon="5.63955">
        <ele>1081.8</ele>
        <time>2026-05-10T15:03:20Z</time>
      </trkpt>
      <trkpt lat="46.00114" lon="5.63955">
        <ele>1081.8</ele>
        <time>2026-05-10T15:03:21Z</time>
      </trkpt>
      <trkpt lat="46.00112" lon="5.63954">
        <ele>1082.2</ele>
        <time>2026-05-10T15:03:22Z</time>
      </trkpt>
      <trkpt lat="46.0011" lon="5.63954">
        <ele>1082.4</ele>
        <time>2026-05-10T15:03:23Z</time>
      </trkpt>
      <trkpt lat="46.00109" lon="5.63953">
        <ele>1082.4</ele>
        <time>2026-05-10T15:03:24Z</time>
      </trkpt>
      <trkpt lat="46.00107" lon="5.63954">
        <ele>1082.8</ele>
        <time>2026-05-10T15:03:25Z</time>
      </trkpt>
      <trkpt lat="46.00105" lon="5.63954">
        <ele>1083</ele>
        <time>2026-05-10T15:03:26Z</time>
      </trkpt>
      <trkpt lat="46.00104" lon="5.63953">
        <ele>1083</ele>
        <time>2026-05-10T15:03:27Z</time>
      </trkpt>
      <trkpt lat="46.00103" lon="5.63953">
        <ele>1083</ele>
        <time>2026-05-10T15:03:28Z</time>
      </trkpt>
      <trkpt lat="46.00101" lon="5.63952">
        <ele>1083.4</ele>
        <time>2026-05-10T15:03:29Z</time>
      </trkpt>
      <trkpt lat="46.00099" lon="5.63952">
        <ele>1083.4</ele>
        <time>2026-05-10T15:03:30Z</time>
      </trkpt>
      <trkpt lat="46.00098" lon="5.63952">
        <ele>1083.4</ele>
        <time>2026-05-10T15:03:31Z</time>
      </trkpt>
      <trkpt lat="46.00096" lon="5.63951">
        <ele>1083.8</ele>
        <time>2026-05-10T15:03:32Z</time>
      </trkpt>
      <trkpt lat="46.00094" lon="5.63951">
        <ele>1083.8</ele>
        <time>2026-05-10T15:03:33Z</time>
      </trkpt>
      <trkpt lat="46.00093" lon="5.6395">
        <ele>1084</ele>
        <time>2026-05-10T15:03:34Z</time>
      </trkpt>
      <trkpt lat="46.00092" lon="5.6395">
        <ele>1084</ele>
        <time>2026-05-10T15:03:35Z</time>
      </trkpt>
      <trkpt lat="46.0009" lon="5.6395">
        <ele>1084</ele>
        <time>2026-05-10T15:03:36Z</time>
      </trkpt>
      <trkpt lat="46.00089" lon="5.63949">
        <ele>1084.4</ele>
        <time>2026-05-10T15:03:37Z</time>
      </trkpt>
      <trkpt lat="46.00088" lon="5.63949">
        <ele>1084.8</ele>
        <time>2026-05-10T15:03:38Z</time>
      </trkpt>
      <trkpt lat="46.00086" lon="5.63949">
        <ele>1084.8</ele>
        <time>2026-05-10T15:03:39Z</time>
      </trkpt>
      <trkpt lat="46.00085" lon="5.63949">
        <ele>1085.2</ele>
        <time>2026-05-10T15:03:40Z</time>
      </trkpt>
      <trkpt lat="46.00084" lon="5.63949">
        <ele>1085.4</ele>
        <time>2026-05-10T15:03:41Z</time>
      </trkpt>
      <trkpt lat="46.00083" lon="5.63949">
        <ele>1085.4</ele>
        <time>2026-05-10T15:03:42Z</time>
      </trkpt>
      <trkpt lat="46.00082" lon="5.6395">
        <ele>1086</ele>
        <time>2026-05-10T15:03:43Z</time>
      </trkpt>
      <trkpt lat="46.00081" lon="5.6395">
        <ele>1086.2</ele>
        <time>2026-05-10T15:03:44Z</time>
      </trkpt>
      <trkpt lat="46.0008" lon="5.6395">
        <ele>1086.6</ele>
        <time>2026-05-10T15:03:45Z</time>
      </trkpt>
      <trkpt lat="46.00079" lon="5.63949">
        <ele>1086.6</ele>
        <time>2026-05-10T15:03:46Z</time>
      </trkpt>
      <trkpt lat="46.00078" lon="5.63948">
        <ele>1087</ele>
        <time>2026-05-10T15:03:47Z</time>
      </trkpt>
      <trkpt lat="46.00076" lon="5.63948">
        <ele>1087</ele>
        <time>2026-05-10T15:03:48Z</time>
      </trkpt>
      <trkpt lat="46.00075" lon="5.63948">
        <ele>1087</ele>
        <time>2026-05-10T15:03:49Z</time>
      </trkpt>
      <trkpt lat="46.00074" lon="5.63948">
        <ele>1087.6</ele>
        <time>2026-05-10T15:03:50Z</time>
      </trkpt>
      <trkpt lat="46.00073" lon="5.63947">
        <ele>1087.6</ele>
        <time>2026-05-10T15:03:51Z</time>
      </trkpt>
      <trkpt lat="46.00072" lon="5.63947">
        <ele>1088</ele>
        <time>2026-05-10T15:03:52Z</time>
      </trkpt>
      <trkpt lat="46.00071" lon="5.63946">
        <ele>1088.2</ele>
        <time>2026-05-10T15:03:53Z</time>
      </trkpt>
      <trkpt lat="46.0007" lon="5.63946">
        <ele>1088.6</ele>
        <time>2026-05-10T15:03:54Z</time>
      </trkpt>
      <trkpt lat="46.00069" lon="5.63946">
        <ele>1088.8</ele>
        <time>2026-05-10T15:03:55Z</time>
      </trkpt>
      <trkpt lat="46.00068" lon="5.63947">
        <ele>1088.8</ele>
        <time>2026-05-10T15:03:56Z</time>
      </trkpt>
      <trkpt lat="46.00067" lon="5.63947">
        <ele>1088.8</ele>
        <time>2026-05-10T15:03:57Z</time>
      </trkpt>
      <trkpt lat="46.00065" lon="5.63947">
        <ele>1089.2</ele>
        <time>2026-05-10T15:03:58Z</time>
      </trkpt>
      <trkpt lat="46.00064" lon="5.63946">
        <ele>1089.2</ele>
        <time>2026-05-10T15:03:59Z</time>
      </trkpt>
      <trkpt lat="46.00062" lon="5.63946">
        <ele>1089.2</ele>
        <time>2026-05-10T15:04:00Z</time>
      </trkpt>
      <trkpt lat="46.00061" lon="5.63946">
        <ele>1089.6</ele>
        <time>2026-05-10T15:04:01Z</time>
      </trkpt>
      <trkpt lat="46.0006" lon="5.63946">
        <ele>1089.6</ele>
        <time>2026-05-10T15:04:02Z</time>
      </trkpt>
      <trkpt lat="46.00059" lon="5.63946">
        <ele>1089.6</ele>
        <time>2026-05-10T15:04:03Z</time>
      </trkpt>
      <trkpt lat="46.00058" lon="5.63946">
        <ele>1089.6</ele>
        <time>2026-05-10T15:04:04Z</time>
      </trkpt>
      <trkpt lat="46.00056" lon="5.63946">
        <ele>1090</ele>
        <time>2026-05-10T15:04:05Z</time>
      </trkpt>
      <trkpt lat="46.00055" lon="5.63947">
        <ele>1090</ele>
        <time>2026-05-10T15:04:06Z</time>
      </trkpt>
      <trkpt lat="46.00053" lon="5.63947">
        <ele>1090</ele>
        <time>2026-05-10T15:04:07Z</time>
      </trkpt>
      <trkpt lat="46.00053" lon="5.63947">
        <ele>1090.4</ele>
        <time>2026-05-10T15:04:08Z</time>
      </trkpt>
      <trkpt lat="46.00052" lon="5.63948">
        <ele>1090.4</ele>
        <time>2026-05-10T15:04:09Z</time>
      </trkpt>
      <trkpt lat="46.0005" lon="5.63948">
        <ele>1090.4</ele>
        <time>2026-05-10T15:04:10Z</time>
      </trkpt>
      <trkpt lat="46.00049" lon="5.63948">
        <ele>1090.4</ele>
        <time>2026-05-10T15:04:11Z</time>
      </trkpt>
      <trkpt lat="46.00048" lon="5.63949">
        <ele>1090.4</ele>
        <time>2026-05-10T15:04:12Z</time>
      </trkpt>
      <trkpt lat="46.00046" lon="5.63949">
        <ele>1090.4</ele>
        <time>2026-05-10T15:04:13Z</time>
      </trkpt>
      <trkpt lat="46.00045" lon="5.6395">
        <ele>1090.4</ele>
        <time>2026-05-10T15:04:14Z</time>
      </trkpt>
      <trkpt lat="46.00044" lon="5.6395">
        <ele>1090.4</ele>
        <time>2026-05-10T15:04:15Z</time>
      </trkpt>
      <trkpt lat="46.00043" lon="5.6395">
        <ele>1090.4</ele>
        <time>2026-05-10T15:04:16Z</time>
      </trkpt>
      <trkpt lat="46.00042" lon="5.63951">
        <ele>1090.4</ele>
        <time>2026-05-10T15:04:17Z</time>
      </trkpt>
      <trkpt lat="46.00042" lon="5.63951">
        <ele>1090.4</ele>
        <time>2026-05-10T15:04:18Z</time>
      </trkpt>
      <trkpt lat="46.0004" lon="5.63951">
        <ele>1090.2</ele>
        <time>2026-05-10T15:05:16Z</time>
      </trkpt>
      <trkpt lat="46.00038" lon="5.63951">
        <ele>1090</ele>
        <time>2026-05-10T15:05:17Z</time>
      </trkpt>
      <trkpt lat="46.00036" lon="5.63951">
        <ele>1090</ele>
        <time>2026-05-10T15:05:18Z</time>
      </trkpt>
      <trkpt lat="46.00033" lon="5.6395">
        <ele>1089.8</ele>
        <time>2026-05-10T15:05:19Z</time>
      </trkpt>
      <trkpt lat="46.0003" lon="5.63949">
        <ele>1089.2</ele>
        <time>2026-05-10T15:05:20Z</time>
      </trkpt>
      <trkpt lat="46.00027" lon="5.63947">
        <ele>1089</ele>
        <time>2026-05-10T15:05:21Z</time>
      </trkpt>
      <trkpt lat="46.00024" lon="5.63944">
        <ele>1088.4</ele>
        <time>2026-05-10T15:05:22Z</time>
      </trkpt>
      <trkpt lat="46.0002" lon="5.63939">
        <ele>1088</ele>
        <time>2026-05-10T15:05:23Z</time>
      </trkpt>
      <trkpt lat="46.00016" lon="5.63937">
        <ele>1088</ele>
        <time>2026-05-10T15:05:24Z</time>
      </trkpt>
      <trkpt lat="46.00012" lon="5.63935">
        <ele>1087.6</ele>
        <time>2026-05-10T15:05:25Z</time>
      </trkpt>
      <trkpt lat="46.00009" lon="5.63931">
        <ele>1087.6</ele>
        <time>2026-05-10T15:05:26Z</time>
      </trkpt>
      <trkpt lat="46.00006" lon="5.63928">
        <ele>1087.6</ele>
        <time>2026-05-10T15:05:27Z</time>
      </trkpt>
      <trkpt lat="46.00004" lon="5.63924">
        <ele>1087.4</ele>
        <time>2026-05-10T15:05:28Z</time>
      </trkpt>
      <trkpt lat="46.00002" lon="5.63921">
        <ele>1086.8</ele>
        <time>2026-05-10T15:05:29Z</time>
      </trkpt>
      <trkpt lat="46" lon="5.63917">
        <ele>1086.8</ele>
        <time>2026-05-10T15:05:30Z</time>
      </trkpt>
      <trkpt lat="45.99998" lon="5.63914">
        <ele>1086.8</ele>
        <time>2026-05-10T15:05:31Z</time>
      </trkpt>
      <trkpt lat="45.99997" lon="5.6391">
        <ele>1086.8</ele>
        <time>2026-05-10T15:05:32Z</time>
      </trkpt>
      <trkpt lat="45.99995" lon="5.63906">
        <ele>1087.2</ele>
        <time>2026-05-10T15:05:33Z</time>
      </trkpt>
      <trkpt lat="45.99994" lon="5.63903">
        <ele>1087.2</ele>
        <time>2026-05-10T15:05:34Z</time>
      </trkpt>
      <trkpt lat="45.99993" lon="5.639">
        <ele>1087.6</ele>
        <time>2026-05-10T15:05:35Z</time>
      </trkpt>
      <trkpt lat="45.99992" lon="5.63897">
        <ele>1087.8</ele>
        <time>2026-05-10T15:05:36Z</time>
      </trkpt>
      <trkpt lat="45.99991" lon="5.63895">
        <ele>1087.8</ele>
        <time>2026-05-10T15:05:37Z</time>
      </trkpt>
      <trkpt lat="45.99989" lon="5.63893">
        <ele>1088</ele>
        <time>2026-05-10T15:05:38Z</time>
      </trkpt>
      <trkpt lat="45.99988" lon="5.63891">
        <ele>1088.2</ele>
        <time>2026-05-10T15:05:39Z</time>
      </trkpt>
      <trkpt lat="45.99987" lon="5.63888">
        <ele>1088.6</ele>
        <time>2026-05-10T15:05:40Z</time>
      </trkpt>
      <trkpt lat="45.99986" lon="5.63885">
        <ele>1089</ele>
        <time>2026-05-10T15:05:41Z</time>
      </trkpt>
      <trkpt lat="45.99985" lon="5.63883">
        <ele>1089</ele>
        <time>2026-05-10T15:05:42Z</time>
      </trkpt>
      <trkpt lat="45.99985" lon="5.63881">
        <ele>1089.2</ele>
        <time>2026-05-10T15:05:43Z</time>
      </trkpt>
      <trkpt lat="45.99985" lon="5.63879">
        <ele>1089.2</ele>
        <time>2026-05-10T15:05:44Z</time>
      </trkpt>
      <trkpt lat="45.99985" lon="5.63877">
        <ele>1089.8</ele>
        <time>2026-05-10T15:05:45Z</time>
      </trkpt>
      <trkpt lat="45.99985" lon="5.63875">
        <ele>1090.2</ele>
        <time>2026-05-10T15:05:46Z</time>
      </trkpt>
      <trkpt lat="45.99985" lon="5.63874">
        <ele>1090.2</ele>
        <time>2026-05-10T15:05:47Z</time>
      </trkpt>
      <trkpt lat="45.99985" lon="5.63873">
        <ele>1090.6</ele>
        <time>2026-05-10T15:05:48Z</time>
      </trkpt>
      <trkpt lat="45.99984" lon="5.63873">
        <ele>1090.6</ele>
        <time>2026-05-10T15:05:49Z</time>
      </trkpt>
      <trkpt lat="45.99984" lon="5.63873">
        <ele>1090.8</ele>
        <time>2026-05-10T15:05:50Z</time>
      </trkpt>
      <trkpt lat="45.99983" lon="5.63872">
        <ele>1091.2</ele>
        <time>2026-05-10T15:05:51Z</time>
      </trkpt>
      <trkpt lat="45.99983" lon="5.63871">
        <ele>1091.2</ele>
        <time>2026-05-10T15:05:52Z</time>
      </trkpt>
      <trkpt lat="45.99983" lon="5.6387">
        <ele>1091.4</ele>
        <time>2026-05-10T15:05:53Z</time>
      </trkpt>
      <trkpt lat="45.99983" lon="5.63869">
        <ele>1091.4</ele>
        <time>2026-05-10T15:05:54Z</time>
      </trkpt>
      <trkpt lat="45.99984" lon="5.63868">
        <ele>1091.8</ele>
        <time>2026-05-10T15:05:55Z</time>
      </trkpt>
      <trkpt lat="45.99984" lon="5.63867">
        <ele>1092</ele>
        <time>2026-05-10T15:05:56Z</time>
      </trkpt>
      <trkpt lat="45.99984" lon="5.63865">
        <ele>1092.2</ele>
        <time>2026-05-10T15:05:57Z</time>
      </trkpt>
      <trkpt lat="45.99985" lon="5.63864">
        <ele>1092.2</ele>
        <time>2026-05-10T15:05:58Z</time>
      </trkpt>
      <trkpt lat="45.99985" lon="5.63862">
        <ele>1092.8</ele>
        <time>2026-05-10T15:05:59Z</time>
      </trkpt>
      <trkpt lat="45.99986" lon="5.63861">
        <ele>1093.2</ele>
        <time>2026-05-10T15:06:00Z</time>
      </trkpt>
      <trkpt lat="45.99986" lon="5.6386">
        <ele>1093.4</ele>
        <time>2026-05-10T15:06:01Z</time>
      </trkpt>
      <trkpt lat="45.99986" lon="5.63859">
        <ele>1093.4</ele>
        <time>2026-05-10T15:06:02Z</time>
      </trkpt>
      <trkpt lat="45.99985" lon="5.63857">
        <ele>1093.8</ele>
        <time>2026-05-10T15:06:03Z</time>
      </trkpt>
      <trkpt lat="45.99985" lon="5.63857">
        <ele>1094</ele>
        <time>2026-05-10T15:06:04Z</time>
      </trkpt>
      <trkpt lat="45.99985" lon="5.63856">
        <ele>1094.2</ele>
        <time>2026-05-10T15:06:05Z</time>
      </trkpt>
      <trkpt lat="45.99985" lon="5.63855">
        <ele>1094.6</ele>
        <time>2026-05-10T15:06:06Z</time>
      </trkpt>
      <trkpt lat="45.99985" lon="5.63854">
        <ele>1094.8</ele>
        <time>2026-05-10T15:06:07Z</time>
      </trkpt>
      <trkpt lat="45.99985" lon="5.63853">
        <ele>1094.8</ele>
        <time>2026-05-10T15:06:08Z</time>
      </trkpt>
      <trkpt lat="45.99985" lon="5.63853">
        <ele>1094.8</ele>
        <time>2026-05-10T15:06:09Z</time>
      </trkpt>
      <trkpt lat="45.99985" lon="5.63852">
        <ele>1095.2</ele>
        <time>2026-05-10T15:06:10Z</time>
      </trkpt>
      <trkpt lat="45.99985" lon="5.6385">
        <ele>1095.2</ele>
        <time>2026-05-10T15:06:11Z</time>
      </trkpt>
      <trkpt lat="45.99985" lon="5.63849">
        <ele>1095.4</ele>
        <time>2026-05-10T15:06:12Z</time>
      </trkpt>
      <trkpt lat="45.99985" lon="5.63848">
        <ele>1095.4</ele>
        <time>2026-05-10T15:06:13Z</time>
      </trkpt>
      <trkpt lat="45.99984" lon="5.63847">
        <ele>1095.8</ele>
        <time>2026-05-10T15:06:14Z</time>
      </trkpt>
      <trkpt lat="45.99984" lon="5.63846">
        <ele>1096</ele>
        <time>2026-05-10T15:06:15Z</time>
      </trkpt>
      <trkpt lat="45.99984" lon="5.63844">
        <ele>1096</ele>
        <time>2026-05-10T15:06:16Z</time>
      </trkpt>
      <trkpt lat="45.99983" lon="5.63843">
        <ele>1096.4</ele>
        <time>2026-05-10T15:06:17Z</time>
      </trkpt>
      <trkpt lat="45.99982" lon="5.63842">
        <ele>1096.4</ele>
        <time>2026-05-10T15:06:18Z</time>
      </trkpt>
      <trkpt lat="45.99981" lon="5.63841">
        <ele>1096.8</ele>
        <time>2026-05-10T15:06:19Z</time>
      </trkpt>
      <trkpt lat="45.99981" lon="5.63839">
        <ele>1097</ele>
        <time>2026-05-10T15:06:20Z</time>
      </trkpt>
      <trkpt lat="45.9998" lon="5.63838">
        <ele>1097</ele>
        <time>2026-05-10T15:06:21Z</time>
      </trkpt>
      <trkpt lat="45.99979" lon="5.63837">
        <ele>1097.4</ele>
        <time>2026-05-10T15:06:22Z</time>
      </trkpt>
      <trkpt lat="45.99979" lon="5.63836">
        <ele>1097.6</ele>
        <time>2026-05-10T15:06:23Z</time>
      </trkpt>
      <trkpt lat="45.99978" lon="5.63835">
        <ele>1097.6</ele>
        <time>2026-05-10T15:06:24Z</time>
      </trkpt>
      <trkpt lat="45.99978" lon="5.63834">
        <ele>1097.6</ele>
        <time>2026-05-10T15:06:25Z</time>
      </trkpt>
      <trkpt lat="45.99977" lon="5.63833">
        <ele>1097.6</ele>
        <time>2026-05-10T15:06:26Z</time>
      </trkpt>
      <trkpt lat="45.99976" lon="5.63833">
        <ele>1097.6</ele>
        <time>2026-05-10T15:06:27Z</time>
      </trkpt>
      <trkpt lat="45.99976" lon="5.63832">
        <ele>1097.6</ele>
        <time>2026-05-10T15:06:28Z</time>
      </trkpt>
      <trkpt lat="45.99975" lon="5.63832">
        <ele>1097.6</ele>
        <time>2026-05-10T15:06:29Z</time>
      </trkpt>
      <trkpt lat="45.99974" lon="5.63831">
        <ele>1097.6</ele>
        <time>2026-05-10T15:06:30Z</time>
      </trkpt>
      <trkpt lat="45.99973" lon="5.63831">
        <ele>1097.6</ele>
        <time>2026-05-10T15:06:31Z</time>
      </trkpt>
      <trkpt lat="45.99972" lon="5.63831">
        <ele>1097.6</ele>
        <time>2026-05-10T15:06:32Z</time>
      </trkpt>
      <trkpt lat="45.99972" lon="5.63831">
        <ele>1097.6</ele>
        <time>2026-05-10T15:06:33Z</time>
      </trkpt>
      <trkpt lat="45.99972" lon="5.63831">
        <ele>1097.6</ele>
        <time>2026-05-10T15:06:34Z</time>
      </trkpt>
      <trkpt lat="45.9997" lon="5.63831">
        <ele>1098.2</ele>
        <time>2026-05-10T15:06:46Z</time>
      </trkpt>
      <trkpt lat="45.99969" lon="5.6383">
        <ele>1098.2</ele>
        <time>2026-05-10T15:06:47Z</time>
      </trkpt>
      <trkpt lat="45.99968" lon="5.6383">
        <ele>1098</ele>
        <time>2026-05-10T15:06:48Z</time>
      </trkpt>
      <trkpt lat="45.99967" lon="5.63829">
        <ele>1098</ele>
        <time>2026-05-10T15:06:49Z</time>
      </trkpt>
      <trkpt lat="45.99967" lon="5.63828">
        <ele>1098</ele>
        <time>2026-05-10T15:06:50Z</time>
      </trkpt>
      <trkpt lat="45.99966" lon="5.63827">
        <ele>1098</ele>
        <time>2026-05-10T15:06:51Z</time>
      </trkpt>
      <trkpt lat="45.99966" lon="5.63826">
        <ele>1098</ele>
        <time>2026-05-10T15:06:52Z</time>
      </trkpt>
      <trkpt lat="45.99967" lon="5.63826">
        <ele>1097.8</ele>
        <time>2026-05-10T15:06:53Z</time>
      </trkpt>
      <trkpt lat="45.99966" lon="5.63825">
        <ele>1097.8</ele>
        <time>2026-05-10T15:06:54Z</time>
      </trkpt>
      <trkpt lat="45.99966" lon="5.63823">
        <ele>1097.6</ele>
        <time>2026-05-10T15:06:55Z</time>
      </trkpt>
      <trkpt lat="45.99965" lon="5.63821">
        <ele>1097.6</ele>
        <time>2026-05-10T15:06:56Z</time>
      </trkpt>
      <trkpt lat="45.99964" lon="5.63817">
        <ele>1097.4</ele>
        <time>2026-05-10T15:06:57Z</time>
      </trkpt>
      <trkpt lat="45.99963" lon="5.63814">
        <ele>1097.4</ele>
        <time>2026-05-10T15:06:58Z</time>
      </trkpt>
      <trkpt lat="45.99961" lon="5.6381">
        <ele>1097.4</ele>
        <time>2026-05-10T15:06:59Z</time>
      </trkpt>
      <trkpt lat="45.99958" lon="5.63808">
        <ele>1097.2</ele>
        <time>2026-05-10T15:07:00Z</time>
      </trkpt>
      <trkpt lat="45.99956" lon="5.63806">
        <ele>1096.6</ele>
        <time>2026-05-10T15:07:01Z</time>
      </trkpt>
      <trkpt lat="45.99955" lon="5.63806">
        <ele>1097.2</ele>
        <time>2026-05-10T15:07:02Z</time>
      </trkpt>
      <trkpt lat="45.99953" lon="5.63804">
        <ele>1097.6</ele>
        <time>2026-05-10T15:07:03Z</time>
      </trkpt>
      <trkpt lat="45.99952" lon="5.63802">
        <ele>1097.8</ele>
        <time>2026-05-10T15:07:04Z</time>
      </trkpt>
      <trkpt lat="45.9995" lon="5.63799">
        <ele>1097.8</ele>
        <time>2026-05-10T15:07:05Z</time>
      </trkpt>
      <trkpt lat="45.9995" lon="5.63797">
        <ele>1098.2</ele>
        <time>2026-05-10T15:07:06Z</time>
      </trkpt>
      <trkpt lat="45.9995" lon="5.63793">
        <ele>1098.2</ele>
        <time>2026-05-10T15:07:07Z</time>
      </trkpt>
      <trkpt lat="45.9995" lon="5.6379">
        <ele>1098.4</ele>
        <time>2026-05-10T15:07:08Z</time>
      </trkpt>
      <trkpt lat="45.9995" lon="5.63786">
        <ele>1098.4</ele>
        <time>2026-05-10T15:07:09Z</time>
      </trkpt>
      <trkpt lat="45.9995" lon="5.63781">
        <ele>1098.4</ele>
        <time>2026-05-10T15:07:10Z</time>
      </trkpt>
      <trkpt lat="45.99949" lon="5.63777">
        <ele>1098.4</ele>
        <time>2026-05-10T15:07:11Z</time>
      </trkpt>
      <trkpt lat="45.99948" lon="5.63774">
        <ele>1098.4</ele>
        <time>2026-05-10T15:07:12Z</time>
      </trkpt>
      <trkpt lat="45.99947" lon="5.6377">
        <ele>1098.4</ele>
        <time>2026-05-10T15:07:13Z</time>
      </trkpt>
      <trkpt lat="45.99947" lon="5.63767">
        <ele>1098.4</ele>
        <time>2026-05-10T15:07:14Z</time>
      </trkpt>
      <trkpt lat="45.99947" lon="5.63763">
        <ele>1098.4</ele>
        <time>2026-05-10T15:07:15Z</time>
      </trkpt>
      <trkpt lat="45.99947" lon="5.63759">
        <ele>1098.4</ele>
        <time>2026-05-10T15:07:16Z</time>
      </trkpt>
      <trkpt lat="45.99947" lon="5.63755">
        <ele>1098.4</ele>
        <time>2026-05-10T15:07:17Z</time>
      </trkpt>
      <trkpt lat="45.99947" lon="5.63752">
        <ele>1098.6</ele>
        <time>2026-05-10T15:07:18Z</time>
      </trkpt>
      <trkpt lat="45.99947" lon="5.63748">
        <ele>1099</ele>
        <time>2026-05-10T15:07:19Z</time>
      </trkpt>
      <trkpt lat="45.99946" lon="5.63743">
        <ele>1099</ele>
        <time>2026-05-10T15:07:20Z</time>
      </trkpt>
      <trkpt lat="45.99946" lon="5.63739">
        <ele>1099</ele>
        <time>2026-05-10T15:07:21Z</time>
      </trkpt>
      <trkpt lat="45.99945" lon="5.63735">
        <ele>1099</ele>
        <time>2026-05-10T15:07:22Z</time>
      </trkpt>
      <trkpt lat="45.99944" lon="5.63731">
        <ele>1099</ele>
        <time>2026-05-10T15:07:23Z</time>
      </trkpt>
      <trkpt lat="45.99944" lon="5.63727">
        <ele>1099</ele>
        <time>2026-05-10T15:07:24Z</time>
      </trkpt>
      <trkpt lat="45.99943" lon="5.63725">
        <ele>1099</ele>
        <time>2026-05-10T15:07:25Z</time>
      </trkpt>
      <trkpt lat="45.99942" lon="5.63721">
        <ele>1099</ele>
        <time>2026-05-10T15:07:26Z</time>
      </trkpt>
      <trkpt lat="45.99942" lon="5.63718">
        <ele>1099.2</ele>
        <time>2026-05-10T15:07:27Z</time>
      </trkpt>
      <trkpt lat="45.99943" lon="5.63715">
        <ele>1099.2</ele>
        <time>2026-05-10T15:07:28Z</time>
      </trkpt>
      <trkpt lat="45.99943" lon="5.63711">
        <ele>1099.6</ele>
        <time>2026-05-10T15:07:29Z</time>
      </trkpt>
      <trkpt lat="45.99944" lon="5.63707">
        <ele>1099.6</ele>
        <time>2026-05-10T15:07:30Z</time>
      </trkpt>
      <trkpt lat="45.99944" lon="5.63704">
        <ele>1099.6</ele>
        <time>2026-05-10T15:07:31Z</time>
      </trkpt>
      <trkpt lat="45.99945" lon="5.637">
        <ele>1099.6</ele>
        <time>2026-05-10T15:07:32Z</time>
      </trkpt>
      <trkpt lat="45.99945" lon="5.63696">
        <ele>1100</ele>
        <time>2026-05-10T15:07:33Z</time>
      </trkpt>
      <trkpt lat="45.99946" lon="5.63693">
        <ele>1100.4</ele>
        <time>2026-05-10T15:07:34Z</time>
      </trkpt>
      <trkpt lat="45.99946" lon="5.6369">
        <ele>1100.4</ele>
        <time>2026-05-10T15:07:35Z</time>
      </trkpt>
      <trkpt lat="45.99947" lon="5.63686">
        <ele>1100.4</ele>
        <time>2026-05-10T15:07:36Z</time>
      </trkpt>
      <trkpt lat="45.99948" lon="5.63682">
        <ele>1100.4</ele>
        <time>2026-05-10T15:07:37Z</time>
      </trkpt>
      <trkpt lat="45.99948" lon="5.6368">
        <ele>1100.4</ele>
        <time>2026-05-10T15:07:38Z</time>
      </trkpt>
      <trkpt lat="45.99948" lon="5.63676">
        <ele>1100.4</ele>
        <time>2026-05-10T15:07:39Z</time>
      </trkpt>
      <trkpt lat="45.99949" lon="5.63672">
        <ele>1100.6</ele>
        <time>2026-05-10T15:07:40Z</time>
      </trkpt>
      <trkpt lat="45.99949" lon="5.63669">
        <ele>1100.6</ele>
        <time>2026-05-10T15:07:41Z</time>
      </trkpt>
      <trkpt lat="45.99949" lon="5.63665">
        <ele>1100.6</ele>
        <time>2026-05-10T15:07:42Z</time>
      </trkpt>
      <trkpt lat="45.9995" lon="5.63662">
        <ele>1100.8</ele>
        <time>2026-05-10T15:07:43Z</time>
      </trkpt>
      <trkpt lat="45.9995" lon="5.63658">
        <ele>1100.8</ele>
        <time>2026-05-10T15:07:44Z</time>
      </trkpt>
      <trkpt lat="45.99951" lon="5.63655">
        <ele>1100.8</ele>
        <time>2026-05-10T15:07:45Z</time>
      </trkpt>
      <trkpt lat="45.99951" lon="5.63651">
        <ele>1101</ele>
        <time>2026-05-10T15:07:46Z</time>
      </trkpt>
      <trkpt lat="45.99951" lon="5.63647">
        <ele>1101</ele>
        <time>2026-05-10T15:07:47Z</time>
      </trkpt>
      <trkpt lat="45.9995" lon="5.63643">
        <ele>1101</ele>
        <time>2026-05-10T15:07:48Z</time>
      </trkpt>
      <trkpt lat="45.99949" lon="5.63639">
        <ele>1100.8</ele>
        <time>2026-05-10T15:07:49Z</time>
      </trkpt>
      <trkpt lat="45.99949" lon="5.63636">
        <ele>1100.8</ele>
        <time>2026-05-10T15:07:50Z</time>
      </trkpt>
      <trkpt lat="45.99949" lon="5.63632">
        <ele>1101.2</ele>
        <time>2026-05-10T15:07:51Z</time>
      </trkpt>
      <trkpt lat="45.99948" lon="5.63629">
        <ele>1101.2</ele>
        <time>2026-05-10T15:07:52Z</time>
      </trkpt>
      <trkpt lat="45.99947" lon="5.63625">
        <ele>1101.4</ele>
        <time>2026-05-10T15:07:53Z</time>
      </trkpt>
      <trkpt lat="45.99946" lon="5.63623">
        <ele>1101.4</ele>
        <time>2026-05-10T15:07:54Z</time>
      </trkpt>
      <trkpt lat="45.99945" lon="5.6362">
        <ele>1101.8</ele>
        <time>2026-05-10T15:07:55Z</time>
      </trkpt>
      <trkpt lat="45.99944" lon="5.63617">
        <ele>1101.8</ele>
        <time>2026-05-10T15:07:56Z</time>
      </trkpt>
      <trkpt lat="45.99943" lon="5.63615">
        <ele>1101.8</ele>
        <time>2026-05-10T15:07:57Z</time>
      </trkpt>
      <trkpt lat="45.99941" lon="5.63613">
        <ele>1101.8</ele>
        <time>2026-05-10T15:07:58Z</time>
      </trkpt>
      <trkpt lat="45.9994" lon="5.6361">
        <ele>1102.2</ele>
        <time>2026-05-10T15:07:59Z</time>
      </trkpt>
      <trkpt lat="45.99938" lon="5.63607">
        <ele>1102.2</ele>
        <time>2026-05-10T15:08:00Z</time>
      </trkpt>
      <trkpt lat="45.99937" lon="5.63605">
        <ele>1102.4</ele>
        <time>2026-05-10T15:08:01Z</time>
      </trkpt>
      <trkpt lat="45.99935" lon="5.63602">
        <ele>1102.4</ele>
        <time>2026-05-10T15:08:02Z</time>
      </trkpt>
      <trkpt lat="45.99933" lon="5.636">
        <ele>1102.4</ele>
        <time>2026-05-10T15:08:03Z</time>
      </trkpt>
      <trkpt lat="45.99932" lon="5.63598">
        <ele>1102.4</ele>
        <time>2026-05-10T15:08:04Z</time>
      </trkpt>
      <trkpt lat="45.9993" lon="5.63596">
        <ele>1102.4</ele>
        <time>2026-05-10T15:08:05Z</time>
      </trkpt>
      <trkpt lat="45.99928" lon="5.63593">
        <ele>1102.8</ele>
        <time>2026-05-10T15:08:06Z</time>
      </trkpt>
      <trkpt lat="45.99926" lon="5.6359">
        <ele>1102.8</ele>
        <time>2026-05-10T15:08:07Z</time>
      </trkpt>
      <trkpt lat="45.99924" lon="5.63587">
        <ele>1103</ele>
        <time>2026-05-10T15:08:08Z</time>
      </trkpt>
      <trkpt lat="45.99922" lon="5.63585">
        <ele>1103</ele>
        <time>2026-05-10T15:08:09Z</time>
      </trkpt>
      <trkpt lat="45.9992" lon="5.63582">
        <ele>1102.8</ele>
        <time>2026-05-10T15:08:10Z</time>
      </trkpt>
      <trkpt lat="45.99918" lon="5.6358">
        <ele>1102.8</ele>
        <time>2026-05-10T15:08:11Z</time>
      </trkpt>
      <trkpt lat="45.99916" lon="5.63578">
        <ele>1103</ele>
        <time>2026-05-10T15:08:12Z</time>
      </trkpt>
      <trkpt lat="45.99914" lon="5.63577">
        <ele>1103</ele>
        <time>2026-05-10T15:08:13Z</time>
      </trkpt>
      <trkpt lat="45.99912" lon="5.63575">
        <ele>1103.4</ele>
        <time>2026-05-10T15:08:14Z</time>
      </trkpt>
      <trkpt lat="45.99909" lon="5.63573">
        <ele>1103.6</ele>
        <time>2026-05-10T15:08:15Z</time>
      </trkpt>
      <trkpt lat="45.99907" lon="5.63572">
        <ele>1103.8</ele>
        <time>2026-05-10T15:08:16Z</time>
      </trkpt>
      <trkpt lat="45.99905" lon="5.6357">
        <ele>1103.6</ele>
        <time>2026-05-10T15:08:17Z</time>
      </trkpt>
      <trkpt lat="45.99903" lon="5.63568">
        <ele>1103.6</ele>
        <time>2026-05-10T15:08:18Z</time>
      </trkpt>
      <trkpt lat="45.999" lon="5.63567">
        <ele>1103.6</ele>
        <time>2026-05-10T15:08:19Z</time>
      </trkpt>
      <trkpt lat="45.99898" lon="5.63566">
        <ele>1104</ele>
        <time>2026-05-10T15:08:20Z</time>
      </trkpt>
      <trkpt lat="45.99895" lon="5.63565">
        <ele>1104.4</ele>
        <time>2026-05-10T15:08:21Z</time>
      </trkpt>
      <trkpt lat="45.99893" lon="5.63564">
        <ele>1104.6</ele>
        <time>2026-05-10T15:08:22Z</time>
      </trkpt>
      <trkpt lat="45.99891" lon="5.63563">
        <ele>1104.6</ele>
        <time>2026-05-10T15:08:23Z</time>
      </trkpt>
      <trkpt lat="45.99889" lon="5.63562">
        <ele>1104.2</ele>
        <time>2026-05-10T15:08:24Z</time>
      </trkpt>
      <trkpt lat="45.99886" lon="5.6356">
        <ele>1104.2</ele>
        <time>2026-05-10T15:08:25Z</time>
      </trkpt>
      <trkpt lat="45.99884" lon="5.63559">
        <ele>1104.6</ele>
        <time>2026-05-10T15:08:26Z</time>
      </trkpt>
      <trkpt lat="45.99882" lon="5.63557">
        <ele>1104.6</ele>
        <time>2026-05-10T15:08:27Z</time>
      </trkpt>
      <trkpt lat="45.99879" lon="5.63556">
        <ele>1104.6</ele>
        <time>2026-05-10T15:08:28Z</time>
      </trkpt>
      <trkpt lat="45.99877" lon="5.63555">
        <ele>1104.6</ele>
        <time>2026-05-10T15:08:29Z</time>
      </trkpt>
      <trkpt lat="45.99874" lon="5.63555">
        <ele>1104.6</ele>
        <time>2026-05-10T15:08:30Z</time>
      </trkpt>
      <trkpt lat="45.99872" lon="5.63554">
        <ele>1105</ele>
        <time>2026-05-10T15:08:31Z</time>
      </trkpt>
      <trkpt lat="45.99869" lon="5.63553">
        <ele>1105.2</ele>
        <time>2026-05-10T15:08:32Z</time>
      </trkpt>
      <trkpt lat="45.99867" lon="5.63552">
        <ele>1105.2</ele>
        <time>2026-05-10T15:08:33Z</time>
      </trkpt>
      <trkpt lat="45.99865" lon="5.63551">
        <ele>1105.6</ele>
        <time>2026-05-10T15:08:34Z</time>
      </trkpt>
      <trkpt lat="45.99862" lon="5.6355">
        <ele>1105.6</ele>
        <time>2026-05-10T15:08:35Z</time>
      </trkpt>
      <trkpt lat="45.9986" lon="5.63549">
        <ele>1105.6</ele>
        <time>2026-05-10T15:08:36Z</time>
      </trkpt>
      <trkpt lat="45.99857" lon="5.63548">
        <ele>1105.8</ele>
        <time>2026-05-10T15:08:37Z</time>
      </trkpt>
      <trkpt lat="45.99855" lon="5.63547">
        <ele>1105.6</ele>
        <time>2026-05-10T15:08:38Z</time>
      </trkpt>
      <trkpt lat="45.99853" lon="5.63546">
        <ele>1105.6</ele>
        <time>2026-05-10T15:08:39Z</time>
      </trkpt>
      <trkpt lat="45.9985" lon="5.63544">
        <ele>1105.6</ele>
        <time>2026-05-10T15:08:40Z</time>
      </trkpt>
      <trkpt lat="45.99848" lon="5.63544">
        <ele>1106</ele>
        <time>2026-05-10T15:08:41Z</time>
      </trkpt>
      <trkpt lat="45.99845" lon="5.63543">
        <ele>1106.2</ele>
        <time>2026-05-10T15:08:42Z</time>
      </trkpt>
      <trkpt lat="45.99843" lon="5.63542">
        <ele>1106.2</ele>
        <time>2026-05-10T15:08:43Z</time>
      </trkpt>
      <trkpt lat="45.9984" lon="5.63542">
        <ele>1106.2</ele>
        <time>2026-05-10T15:08:44Z</time>
      </trkpt>
      <trkpt lat="45.99838" lon="5.63541">
        <ele>1106.6</ele>
        <time>2026-05-10T15:08:45Z</time>
      </trkpt>
      <trkpt lat="45.99836" lon="5.6354">
        <ele>1106.6</ele>
        <time>2026-05-10T15:08:46Z</time>
      </trkpt>
      <trkpt lat="45.99833" lon="5.6354">
        <ele>1106.6</ele>
        <time>2026-05-10T15:08:47Z</time>
      </trkpt>
      <trkpt lat="45.99831" lon="5.63539">
        <ele>1106.4</ele>
        <time>2026-05-10T15:08:48Z</time>
      </trkpt>
      <trkpt lat="45.99828" lon="5.63539">
        <ele>1106.8</ele>
        <time>2026-05-10T15:08:49Z</time>
      </trkpt>
      <trkpt lat="45.99825" lon="5.63538">
        <ele>1106.8</ele>
        <time>2026-05-10T15:08:50Z</time>
      </trkpt>
      <trkpt lat="45.99823" lon="5.63538">
        <ele>1106.8</ele>
        <time>2026-05-10T15:08:51Z</time>
      </trkpt>
      <trkpt lat="45.9982" lon="5.63537">
        <ele>1106.8</ele>
        <time>2026-05-10T15:08:52Z</time>
      </trkpt>
      <trkpt lat="45.99817" lon="5.63537">
        <ele>1107</ele>
        <time>2026-05-10T15:08:53Z</time>
      </trkpt>
      <trkpt lat="45.99815" lon="5.63537">
        <ele>1107</ele>
        <time>2026-05-10T15:08:54Z</time>
      </trkpt>
      <trkpt lat="45.99812" lon="5.63537">
        <ele>1107.4</ele>
        <time>2026-05-10T15:08:55Z</time>
      </trkpt>
      <trkpt lat="45.99809" lon="5.63536">
        <ele>1107.4</ele>
        <time>2026-05-10T15:08:56Z</time>
      </trkpt>
      <trkpt lat="45.99806" lon="5.63536">
        <ele>1107.8</ele>
        <time>2026-05-10T15:08:57Z</time>
      </trkpt>
      <trkpt lat="45.99803" lon="5.63535">
        <ele>1107.8</ele>
        <time>2026-05-10T15:08:58Z</time>
      </trkpt>
      <trkpt lat="45.99799" lon="5.63535">
        <ele>1107.8</ele>
        <time>2026-05-10T15:08:59Z</time>
      </trkpt>
      <trkpt lat="45.99796" lon="5.63534">
        <ele>1107.8</ele>
        <time>2026-05-10T15:09:00Z</time>
      </trkpt>
      <trkpt lat="45.99793" lon="5.63533">
        <ele>1107.8</ele>
        <time>2026-05-10T15:09:01Z</time>
      </trkpt>
      <trkpt lat="45.9979" lon="5.63532">
        <ele>1107.8</ele>
        <time>2026-05-10T15:09:02Z</time>
      </trkpt>
      <trkpt lat="45.99786" lon="5.63532">
        <ele>1107.8</ele>
        <time>2026-05-10T15:09:03Z</time>
      </trkpt>
      <trkpt lat="45.99783" lon="5.63531">
        <ele>1107.8</ele>
        <time>2026-05-10T15:09:04Z</time>
      </trkpt>
      <trkpt lat="45.99779" lon="5.63531">
        <ele>1107.8</ele>
        <time>2026-05-10T15:09:05Z</time>
      </trkpt>
      <trkpt lat="45.99776" lon="5.6353">
        <ele>1107.8</ele>
        <time>2026-05-10T15:09:06Z</time>
      </trkpt>
      <trkpt lat="45.99772" lon="5.6353">
        <ele>1107.8</ele>
        <time>2026-05-10T15:09:07Z</time>
      </trkpt>
      <trkpt lat="45.99768" lon="5.63529">
        <ele>1107.4</ele>
        <time>2026-05-10T15:09:08Z</time>
      </trkpt>
      <trkpt lat="45.99765" lon="5.63529">
        <ele>1107.4</ele>
        <time>2026-05-10T15:09:09Z</time>
      </trkpt>
      <trkpt lat="45.99761" lon="5.63528">
        <ele>1107.4</ele>
        <time>2026-05-10T15:09:10Z</time>
      </trkpt>
      <trkpt lat="45.99758" lon="5.63527">
        <ele>1107.4</ele>
        <time>2026-05-10T15:09:11Z</time>
      </trkpt>
      <trkpt lat="45.99754" lon="5.63527">
        <ele>1107.2</ele>
        <time>2026-05-10T15:09:12Z</time>
      </trkpt>
      <trkpt lat="45.9975" lon="5.63527">
        <ele>1107.2</ele>
        <time>2026-05-10T15:09:13Z</time>
      </trkpt>
      <trkpt lat="45.99746" lon="5.63526">
        <ele>1107.2</ele>
        <time>2026-05-10T15:09:14Z</time>
      </trkpt>
      <trkpt lat="45.99743" lon="5.63526">
        <ele>1107.2</ele>
        <time>2026-05-10T15:09:15Z</time>
      </trkpt>
      <trkpt lat="45.9974" lon="5.63526">
        <ele>1107.2</ele>
        <time>2026-05-10T15:09:16Z</time>
      </trkpt>
      <trkpt lat="45.99738" lon="5.63526">
        <ele>1107</ele>
        <time>2026-05-10T15:09:17Z</time>
      </trkpt>
      <trkpt lat="45.99735" lon="5.63524">
        <ele>1107.4</ele>
        <time>2026-05-10T15:09:18Z</time>
      </trkpt>
      <trkpt lat="45.99731" lon="5.63522">
        <ele>1107.4</ele>
        <time>2026-05-10T15:09:19Z</time>
      </trkpt>
      <trkpt lat="45.99727" lon="5.6352">
        <ele>1107.6</ele>
        <time>2026-05-10T15:09:20Z</time>
      </trkpt>
      <trkpt lat="45.99723" lon="5.63519">
        <ele>1107.6</ele>
        <time>2026-05-10T15:09:21Z</time>
      </trkpt>
      <trkpt lat="45.99719" lon="5.63518">
        <ele>1107.6</ele>
        <time>2026-05-10T15:09:22Z</time>
      </trkpt>
      <trkpt lat="45.99715" lon="5.63517">
        <ele>1107.6</ele>
        <time>2026-05-10T15:09:23Z</time>
      </trkpt>
      <trkpt lat="45.99711" lon="5.63516">
        <ele>1107.6</ele>
        <time>2026-05-10T15:09:24Z</time>
      </trkpt>
      <trkpt lat="45.99707" lon="5.63515">
        <ele>1107.6</ele>
        <time>2026-05-10T15:09:25Z</time>
      </trkpt>
      <trkpt lat="45.99698" lon="5.63514">
        <ele>1107.6</ele>
        <time>2026-05-10T15:09:26Z</time>
      </trkpt>
      <trkpt lat="45.99693" lon="5.63513">
        <ele>1107.8</ele>
        <time>2026-05-10T15:09:27Z</time>
      </trkpt>
      <trkpt lat="45.99688" lon="5.63512">
        <ele>1107.8</ele>
        <time>2026-05-10T15:09:28Z</time>
      </trkpt>
      <trkpt lat="45.99683" lon="5.6351">
        <ele>1107.8</ele>
        <time>2026-05-10T15:09:29Z</time>
      </trkpt>
      <trkpt lat="45.99679" lon="5.6351">
        <ele>1107.2</ele>
        <time>2026-05-10T15:09:30Z</time>
      </trkpt>
      <trkpt lat="45.99674" lon="5.6351">
        <ele>1107</ele>
        <time>2026-05-10T15:09:31Z</time>
      </trkpt>
      <trkpt lat="45.9967" lon="5.63509">
        <ele>1107.4</ele>
        <time>2026-05-10T15:09:32Z</time>
      </trkpt>
      <trkpt lat="45.99666" lon="5.63509">
        <ele>1106.8</ele>
        <time>2026-05-10T15:09:33Z</time>
      </trkpt>
      <trkpt lat="45.99662" lon="5.63509">
        <ele>1106.4</ele>
        <time>2026-05-10T15:09:34Z</time>
      </trkpt>
      <trkpt lat="45.99658" lon="5.63508">
        <ele>1106.8</ele>
        <time>2026-05-10T15:09:35Z</time>
      </trkpt>
      <trkpt lat="45.99653" lon="5.63507">
        <ele>1107.4</ele>
        <time>2026-05-10T15:09:36Z</time>
      </trkpt>
      <trkpt lat="45.99649" lon="5.63506">
        <ele>1108.2</ele>
        <time>2026-05-10T15:09:37Z</time>
      </trkpt>
      <trkpt lat="45.99646" lon="5.63505">
        <ele>1108.2</ele>
        <time>2026-05-10T15:09:38Z</time>
      </trkpt>
      <trkpt lat="45.99642" lon="5.63505">
        <ele>1108.2</ele>
        <time>2026-05-10T15:09:39Z</time>
      </trkpt>
      <trkpt lat="45.99638" lon="5.63505">
        <ele>1108.2</ele>
        <time>2026-05-10T15:09:40Z</time>
      </trkpt>
      <trkpt lat="45.99635" lon="5.63504">
        <ele>1108.2</ele>
        <time>2026-05-10T15:09:41Z</time>
      </trkpt>
      <trkpt lat="45.99631" lon="5.63502">
        <ele>1108.4</ele>
        <time>2026-05-10T15:09:42Z</time>
      </trkpt>
      <trkpt lat="45.99628" lon="5.63502">
        <ele>1108.4</ele>
        <time>2026-05-10T15:09:43Z</time>
      </trkpt>
      <trkpt lat="45.99625" lon="5.63501">
        <ele>1108.4</ele>
        <time>2026-05-10T15:09:44Z</time>
      </trkpt>
      <trkpt lat="45.99622" lon="5.635">
        <ele>1108.2</ele>
        <time>2026-05-10T15:09:45Z</time>
      </trkpt>
      <trkpt lat="45.99619" lon="5.635">
        <ele>1108.4</ele>
        <time>2026-05-10T15:09:46Z</time>
      </trkpt>
      <trkpt lat="45.99616" lon="5.635">
        <ele>1109</ele>
        <time>2026-05-10T15:09:47Z</time>
      </trkpt>
      <trkpt lat="45.99616" lon="5.635">
        <ele>1108.8</ele>
        <time>2026-05-10T15:09:48Z</time>
      </trkpt>
      <trkpt lat="45.99613" lon="5.635">
        <ele>1108.4</ele>
        <time>2026-05-10T15:09:49Z</time>
      </trkpt>
      <trkpt lat="45.9961" lon="5.63499">
        <ele>1109.2</ele>
        <time>2026-05-10T15:09:50Z</time>
      </trkpt>
      <trkpt lat="45.99607" lon="5.63499">
        <ele>1109.2</ele>
        <time>2026-05-10T15:09:51Z</time>
      </trkpt>
      <trkpt lat="45.99604" lon="5.63498">
        <ele>1109.6</ele>
        <time>2026-05-10T15:09:52Z</time>
      </trkpt>
      <trkpt lat="45.99602" lon="5.63497">
        <ele>1109.8</ele>
        <time>2026-05-10T15:09:53Z</time>
      </trkpt>
      <trkpt lat="45.99599" lon="5.63497">
        <ele>1109.8</ele>
        <time>2026-05-10T15:09:54Z</time>
      </trkpt>
      <trkpt lat="45.99597" lon="5.63496">
        <ele>1109.8</ele>
        <time>2026-05-10T15:09:55Z</time>
      </trkpt>
      <trkpt lat="45.99594" lon="5.63496">
        <ele>1109.8</ele>
        <time>2026-05-10T15:09:56Z</time>
      </trkpt>
      <trkpt lat="45.99591" lon="5.63495">
        <ele>1110.2</ele>
        <time>2026-05-10T15:09:57Z</time>
      </trkpt>
      <trkpt lat="45.99588" lon="5.63495">
        <ele>1110.2</ele>
        <time>2026-05-10T15:09:58Z</time>
      </trkpt>
      <trkpt lat="45.99586" lon="5.63495">
        <ele>1110.2</ele>
        <time>2026-05-10T15:09:59Z</time>
      </trkpt>
      <trkpt lat="45.99584" lon="5.63494">
        <ele>1110.2</ele>
        <time>2026-05-10T15:10:00Z</time>
      </trkpt>
      <trkpt lat="45.99581" lon="5.63493">
        <ele>1110.6</ele>
        <time>2026-05-10T15:10:01Z</time>
      </trkpt>
      <trkpt lat="45.99578" lon="5.63493">
        <ele>1110.8</ele>
        <time>2026-05-10T15:10:02Z</time>
      </trkpt>
      <trkpt lat="45.99576" lon="5.63492">
        <ele>1110.8</ele>
        <time>2026-05-10T15:10:03Z</time>
      </trkpt>
      <trkpt lat="45.99573" lon="5.63491">
        <ele>1111.2</ele>
        <time>2026-05-10T15:10:04Z</time>
      </trkpt>
      <trkpt lat="45.9957" lon="5.63491">
        <ele>1111.2</ele>
        <time>2026-05-10T15:10:05Z</time>
      </trkpt>
      <trkpt lat="45.99568" lon="5.63491">
        <ele>1111.2</ele>
        <time>2026-05-10T15:10:06Z</time>
      </trkpt>
      <trkpt lat="45.99566" lon="5.63491">
        <ele>1111.2</ele>
        <time>2026-05-10T15:10:07Z</time>
      </trkpt>
      <trkpt lat="45.99563" lon="5.63491">
        <ele>1111.2</ele>
        <time>2026-05-10T15:10:08Z</time>
      </trkpt>
      <trkpt lat="45.9956" lon="5.63491">
        <ele>1111.2</ele>
        <time>2026-05-10T15:10:09Z</time>
      </trkpt>
      <trkpt lat="45.99559" lon="5.6349">
        <ele>1111.2</ele>
        <time>2026-05-10T15:10:10Z</time>
      </trkpt>
      <trkpt lat="45.99557" lon="5.63488">
        <ele>1111.6</ele>
        <time>2026-05-10T15:10:11Z</time>
      </trkpt>
      <trkpt lat="45.99555" lon="5.63487">
        <ele>1111.8</ele>
        <time>2026-05-10T15:10:12Z</time>
      </trkpt>
      <trkpt lat="45.99552" lon="5.63486">
        <ele>1111.8</ele>
        <time>2026-05-10T15:10:13Z</time>
      </trkpt>
      <trkpt lat="45.9955" lon="5.63485">
        <ele>1112.2</ele>
        <time>2026-05-10T15:10:14Z</time>
      </trkpt>
      <trkpt lat="45.99548" lon="5.63484">
        <ele>1112.2</ele>
        <time>2026-05-10T15:10:15Z</time>
      </trkpt>
      <trkpt lat="45.99546" lon="5.63482">
        <ele>1112.2</ele>
        <time>2026-05-10T15:10:16Z</time>
      </trkpt>
      <trkpt lat="45.99544" lon="5.6348">
        <ele>1112.4</ele>
        <time>2026-05-10T15:10:17Z</time>
      </trkpt>
      <trkpt lat="45.99542" lon="5.63478">
        <ele>1112.8</ele>
        <time>2026-05-10T15:10:18Z</time>
      </trkpt>
      <trkpt lat="45.9954" lon="5.63477">
        <ele>1112.8</ele>
        <time>2026-05-10T15:10:19Z</time>
      </trkpt>
      <trkpt lat="45.99537" lon="5.63475">
        <ele>1112.8</ele>
        <time>2026-05-10T15:10:20Z</time>
      </trkpt>
      <trkpt lat="45.99535" lon="5.63473">
        <ele>1113</ele>
        <time>2026-05-10T15:10:21Z</time>
      </trkpt>
      <trkpt lat="45.99532" lon="5.63472">
        <ele>1113</ele>
        <time>2026-05-10T15:10:22Z</time>
      </trkpt>
      <trkpt lat="45.9953" lon="5.6347">
        <ele>1113.2</ele>
        <time>2026-05-10T15:10:23Z</time>
      </trkpt>
      <trkpt lat="45.99528" lon="5.63468">
        <ele>1113.2</ele>
        <time>2026-05-10T15:10:24Z</time>
      </trkpt>
      <trkpt lat="45.99526" lon="5.63466">
        <ele>1113.2</ele>
        <time>2026-05-10T15:10:25Z</time>
      </trkpt>
      <trkpt lat="45.99524" lon="5.63464">
        <ele>1113.2</ele>
        <time>2026-05-10T15:10:26Z</time>
      </trkpt>
      <trkpt lat="45.99521" lon="5.63462">
        <ele>1113.2</ele>
        <time>2026-05-10T15:10:27Z</time>
      </trkpt>
      <trkpt lat="45.99519" lon="5.63461">
        <ele>1113.2</ele>
        <time>2026-05-10T15:10:28Z</time>
      </trkpt>
      <trkpt lat="45.99517" lon="5.63459">
        <ele>1113.2</ele>
        <time>2026-05-10T15:10:29Z</time>
      </trkpt>
      <trkpt lat="45.99515" lon="5.63457">
        <ele>1113.2</ele>
        <time>2026-05-10T15:10:30Z</time>
      </trkpt>
      <trkpt lat="45.99515" lon="5.63457">
        <ele>1113.6</ele>
        <time>2026-05-10T15:10:31Z</time>
      </trkpt>
      <trkpt lat="45.99515" lon="5.63457">
        <ele>1114.2</ele>
        <time>2026-05-10T15:10:32Z</time>
      </trkpt>
      <trkpt lat="45.99505" lon="5.6345">
        <ele>1114.2</ele>
        <time>2026-05-10T15:10:34Z</time>
      </trkpt>
      <trkpt lat="45.99503" lon="5.63448">
        <ele>1114.2</ele>
        <time>2026-05-10T15:10:35Z</time>
      </trkpt>
      <trkpt lat="45.99501" lon="5.63446">
        <ele>1114.4</ele>
        <time>2026-05-10T15:10:36Z</time>
      </trkpt>
      <trkpt lat="45.99498" lon="5.63443">
        <ele>1114.4</ele>
        <time>2026-05-10T15:10:37Z</time>
      </trkpt>
      <trkpt lat="45.99496" lon="5.63441">
        <ele>1114.4</ele>
        <time>2026-05-10T15:10:38Z</time>
      </trkpt>
      <trkpt lat="45.99494" lon="5.63438">
        <ele>1114.8</ele>
        <time>2026-05-10T15:10:39Z</time>
      </trkpt>
      <trkpt lat="45.99492" lon="5.63436">
        <ele>1114.8</ele>
        <time>2026-05-10T15:10:40Z</time>
      </trkpt>
      <trkpt lat="45.99489" lon="5.63434">
        <ele>1114.8</ele>
        <time>2026-05-10T15:10:41Z</time>
      </trkpt>
      <trkpt lat="45.99487" lon="5.63432">
        <ele>1114.8</ele>
        <time>2026-05-10T15:10:42Z</time>
      </trkpt>
      <trkpt lat="45.99485" lon="5.6343">
        <ele>1114.8</ele>
        <time>2026-05-10T15:10:43Z</time>
      </trkpt>
      <trkpt lat="45.99483" lon="5.63428">
        <ele>1114.8</ele>
        <time>2026-05-10T15:10:44Z</time>
      </trkpt>
      <trkpt lat="45.9948" lon="5.63426">
        <ele>1115</ele>
        <time>2026-05-10T15:10:45Z</time>
      </trkpt>
      <trkpt lat="45.99478" lon="5.63425">
        <ele>1114.6</ele>
        <time>2026-05-10T15:10:46Z</time>
      </trkpt>
      <trkpt lat="45.99475" lon="5.63423">
        <ele>1114.6</ele>
        <time>2026-05-10T15:10:47Z</time>
      </trkpt>
      <trkpt lat="45.99473" lon="5.63421">
        <ele>1115</ele>
        <time>2026-05-10T15:10:48Z</time>
      </trkpt>
      <trkpt lat="45.9947" lon="5.63419">
        <ele>1115</ele>
        <time>2026-05-10T15:10:49Z</time>
      </trkpt>
      <trkpt lat="45.99468" lon="5.63416">
        <ele>1115</ele>
        <time>2026-05-10T15:10:50Z</time>
      </trkpt>
      <trkpt lat="45.99465" lon="5.63414">
        <ele>1114.8</ele>
        <time>2026-05-10T15:10:51Z</time>
      </trkpt>
      <trkpt lat="45.99463" lon="5.63412">
        <ele>1115</ele>
        <time>2026-05-10T15:10:52Z</time>
      </trkpt>
      <trkpt lat="45.9946" lon="5.6341">
        <ele>1115</ele>
        <time>2026-05-10T15:10:53Z</time>
      </trkpt>
      <trkpt lat="45.99457" lon="5.63408">
        <ele>1115</ele>
        <time>2026-05-10T15:10:54Z</time>
      </trkpt>
      <trkpt lat="45.99454" lon="5.63406">
        <ele>1115</ele>
        <time>2026-05-10T15:10:55Z</time>
      </trkpt>
      <trkpt lat="45.99451" lon="5.63403">
        <ele>1115</ele>
        <time>2026-05-10T15:10:56Z</time>
      </trkpt>
      <trkpt lat="45.99449" lon="5.634">
        <ele>1115</ele>
        <time>2026-05-10T15:10:57Z</time>
      </trkpt>
      <trkpt lat="45.99446" lon="5.63398">
        <ele>1115.2</ele>
        <time>2026-05-10T15:10:58Z</time>
      </trkpt>
      <trkpt lat="45.99443" lon="5.63397">
        <ele>1115.2</ele>
        <time>2026-05-10T15:10:59Z</time>
      </trkpt>
      <trkpt lat="45.99441" lon="5.63395">
        <ele>1115.2</ele>
        <time>2026-05-10T15:11:00Z</time>
      </trkpt>
      <trkpt lat="45.99436" lon="5.63392">
        <ele>1115.6</ele>
        <time>2026-05-10T15:11:01Z</time>
      </trkpt>
      <trkpt lat="45.99433" lon="5.6339">
        <ele>1115.8</ele>
        <time>2026-05-10T15:11:02Z</time>
      </trkpt>
      <trkpt lat="45.99431" lon="5.63388">
        <ele>1115.8</ele>
        <time>2026-05-10T15:11:03Z</time>
      </trkpt>
      <trkpt lat="45.99429" lon="5.63387">
        <ele>1115.8</ele>
        <time>2026-05-10T15:11:04Z</time>
      </trkpt>
      <trkpt lat="45.99427" lon="5.63385">
        <ele>1115.8</ele>
        <time>2026-05-10T15:11:05Z</time>
      </trkpt>
      <trkpt lat="45.99425" lon="5.63384">
        <ele>1115.8</ele>
        <time>2026-05-10T15:11:06Z</time>
      </trkpt>
      <trkpt lat="45.99422" lon="5.63382">
        <ele>1114.8</ele>
        <time>2026-05-10T15:11:07Z</time>
      </trkpt>
      <trkpt lat="45.9942" lon="5.6338">
        <ele>1115</ele>
        <time>2026-05-10T15:11:08Z</time>
      </trkpt>
      <trkpt lat="45.99417" lon="5.63378">
        <ele>1115.4</ele>
        <time>2026-05-10T15:11:09Z</time>
      </trkpt>
      <trkpt lat="45.99417" lon="5.63378">
        <ele>1115.6</ele>
        <time>2026-05-10T15:11:10Z</time>
      </trkpt>
      <trkpt lat="45.99415" lon="5.63376">
        <ele>1116</ele>
        <time>2026-05-10T15:11:11Z</time>
      </trkpt>
      <trkpt lat="45.99413" lon="5.63375">
        <ele>1116.4</ele>
        <time>2026-05-10T15:11:12Z</time>
      </trkpt>
      <trkpt lat="45.99411" lon="5.63373">
        <ele>1116.4</ele>
        <time>2026-05-10T15:11:13Z</time>
      </trkpt>
      <trkpt lat="45.99409" lon="5.63372">
        <ele>1116.4</ele>
        <time>2026-05-10T15:11:14Z</time>
      </trkpt>
      <trkpt lat="45.99408" lon="5.63371">
        <ele>1117.2</ele>
        <time>2026-05-10T15:11:15Z</time>
      </trkpt>
      <trkpt lat="45.99406" lon="5.63369">
        <ele>1117.2</ele>
        <time>2026-05-10T15:11:16Z</time>
      </trkpt>
      <trkpt lat="45.99403" lon="5.63365">
        <ele>1117.2</ele>
        <time>2026-05-10T15:11:17Z</time>
      </trkpt>
      <trkpt lat="45.99401" lon="5.63362">
        <ele>1117.2</ele>
        <time>2026-05-10T15:11:18Z</time>
      </trkpt>
      <trkpt lat="45.994" lon="5.63358">
        <ele>1117.2</ele>
        <time>2026-05-10T15:11:19Z</time>
      </trkpt>
      <trkpt lat="45.99399" lon="5.63355">
        <ele>1117.2</ele>
        <time>2026-05-10T15:11:20Z</time>
      </trkpt>
      <trkpt lat="45.99398" lon="5.63351">
        <ele>1117.4</ele>
        <time>2026-05-10T15:11:21Z</time>
      </trkpt>
      <trkpt lat="45.99397" lon="5.63347">
        <ele>1117.8</ele>
        <time>2026-05-10T15:11:22Z</time>
      </trkpt>
      <trkpt lat="45.99396" lon="5.63344">
        <ele>1117.8</ele>
        <time>2026-05-10T15:11:23Z</time>
      </trkpt>
      <trkpt lat="45.99395" lon="5.6334">
        <ele>1117.8</ele>
        <time>2026-05-10T15:11:24Z</time>
      </trkpt>
      <trkpt lat="45.99395" lon="5.63335">
        <ele>1117.4</ele>
        <time>2026-05-10T15:11:25Z</time>
      </trkpt>
      <trkpt lat="45.99395" lon="5.63331">
        <ele>1117.4</ele>
        <time>2026-05-10T15:11:26Z</time>
      </trkpt>
      <trkpt lat="45.99395" lon="5.63326">
        <ele>1117.4</ele>
        <time>2026-05-10T15:11:27Z</time>
      </trkpt>
      <trkpt lat="45.99394" lon="5.63322">
        <ele>1117.4</ele>
        <time>2026-05-10T15:11:28Z</time>
      </trkpt>
      <trkpt lat="45.99393" lon="5.63317">
        <ele>1117.4</ele>
        <time>2026-05-10T15:11:29Z</time>
      </trkpt>
      <trkpt lat="45.99392" lon="5.63313">
        <ele>1117.2</ele>
        <time>2026-05-10T15:11:30Z</time>
      </trkpt>
      <trkpt lat="45.9939" lon="5.63307">
        <ele>1117.2</ele>
        <time>2026-05-10T15:11:31Z</time>
      </trkpt>
      <trkpt lat="45.99388" lon="5.633">
        <ele>1116.6</ele>
        <time>2026-05-10T15:11:32Z</time>
      </trkpt>
      <trkpt lat="45.99385" lon="5.63292">
        <ele>1116.2</ele>
        <time>2026-05-10T15:11:33Z</time>
      </trkpt>
      <trkpt lat="45.99384" lon="5.63284">
        <ele>1116.2</ele>
        <time>2026-05-10T15:11:34Z</time>
      </trkpt>
      <trkpt lat="45.9938" lon="5.63278">
        <ele>1116.2</ele>
        <time>2026-05-10T15:11:35Z</time>
      </trkpt>
      <trkpt lat="45.99376" lon="5.6327">
        <ele>1116.2</ele>
        <time>2026-05-10T15:11:36Z</time>
      </trkpt>
      <trkpt lat="45.99375" lon="5.63261">
        <ele>1115.2</ele>
        <time>2026-05-10T15:11:37Z</time>
      </trkpt>
      <trkpt lat="45.99373" lon="5.63253">
        <ele>1115</ele>
        <time>2026-05-10T15:11:38Z</time>
      </trkpt>
      <trkpt lat="45.9937" lon="5.63245">
        <ele>1113.6</ele>
        <time>2026-05-10T15:11:39Z</time>
      </trkpt>
      <trkpt lat="45.99366" lon="5.63233">
        <ele>1112.6</ele>
        <time>2026-05-10T15:11:40Z</time>
      </trkpt>
      <trkpt lat="45.99364" lon="5.6322">
        <ele>1111.8</ele>
        <time>2026-05-10T15:11:41Z</time>
      </trkpt>
      <trkpt lat="45.99363" lon="5.63208">
        <ele>1110.8</ele>
        <time>2026-05-10T15:11:42Z</time>
      </trkpt>
      <trkpt lat="45.9936" lon="5.63197">
        <ele>1109.2</ele>
        <time>2026-05-10T15:11:43Z</time>
      </trkpt>
      <trkpt lat="45.99358" lon="5.63184">
        <ele>1108</ele>
        <time>2026-05-10T15:11:44Z</time>
      </trkpt>
      <trkpt lat="45.99357" lon="5.63172">
        <ele>1108</ele>
        <time>2026-05-10T15:11:45Z</time>
      </trkpt>
      <trkpt lat="45.99355" lon="5.6316">
        <ele>1106.8</ele>
        <time>2026-05-10T15:11:46Z</time>
      </trkpt>
      <trkpt lat="45.99354" lon="5.63148">
        <ele>1106.6</ele>
        <time>2026-05-10T15:11:47Z</time>
      </trkpt>
      <trkpt lat="45.99354" lon="5.63136">
        <ele>1105.8</ele>
        <time>2026-05-10T15:11:48Z</time>
      </trkpt>
      <trkpt lat="45.99354" lon="5.63124">
        <ele>1105.8</ele>
        <time>2026-05-10T15:11:49Z</time>
      </trkpt>
      <trkpt lat="45.99355" lon="5.63102">
        <ele>1105.4</ele>
        <time>2026-05-10T15:11:50Z</time>
      </trkpt>
      <trkpt lat="45.99355" lon="5.6309">
        <ele>1105.4</ele>
        <time>2026-05-10T15:11:51Z</time>
      </trkpt>
      <trkpt lat="45.99355" lon="5.6308">
        <ele>1105.2</ele>
        <time>2026-05-10T15:11:52Z</time>
      </trkpt>
      <trkpt lat="45.99355" lon="5.63071">
        <ele>1105.8</ele>
        <time>2026-05-10T15:11:53Z</time>
      </trkpt>
      <trkpt lat="45.99355" lon="5.63061">
        <ele>1105.8</ele>
        <time>2026-05-10T15:11:54Z</time>
      </trkpt>
      <trkpt lat="45.99355" lon="5.63053">
        <ele>1105.8</ele>
        <time>2026-05-10T15:11:55Z</time>
      </trkpt>
      <trkpt lat="45.99355" lon="5.63045">
        <ele>1106</ele>
        <time>2026-05-10T15:11:56Z</time>
      </trkpt>
      <trkpt lat="45.99356" lon="5.63038">
        <ele>1105.8</ele>
        <time>2026-05-10T15:11:57Z</time>
      </trkpt>
      <trkpt lat="45.99356" lon="5.63032">
        <ele>1105.8</ele>
        <time>2026-05-10T15:11:58Z</time>
      </trkpt>
      <trkpt lat="45.99356" lon="5.63028">
        <ele>1106.4</ele>
        <time>2026-05-10T15:11:59Z</time>
      </trkpt>
      <trkpt lat="45.99356" lon="5.63023">
        <ele>1106.8</ele>
        <time>2026-05-10T15:12:00Z</time>
      </trkpt>
      <trkpt lat="45.99356" lon="5.63019">
        <ele>1107.4</ele>
        <time>2026-05-10T15:12:01Z</time>
      </trkpt>
      <trkpt lat="45.99354" lon="5.63015">
        <ele>1107.8</ele>
        <time>2026-05-10T15:12:02Z</time>
      </trkpt>
      <trkpt lat="45.99354" lon="5.63011">
        <ele>1108.2</ele>
        <time>2026-05-10T15:12:03Z</time>
      </trkpt>
      <trkpt lat="45.99353" lon="5.63006">
        <ele>1108.6</ele>
        <time>2026-05-10T15:12:04Z</time>
      </trkpt>
      <trkpt lat="45.99352" lon="5.63003">
        <ele>1108.8</ele>
        <time>2026-05-10T15:12:05Z</time>
      </trkpt>
      <trkpt lat="45.99352" lon="5.62998">
        <ele>1108.8</ele>
        <time>2026-05-10T15:12:06Z</time>
      </trkpt>
      <trkpt lat="45.99352" lon="5.62993">
        <ele>1109</ele>
        <time>2026-05-10T15:12:07Z</time>
      </trkpt>
      <trkpt lat="45.99351" lon="5.62988">
        <ele>1109</ele>
        <time>2026-05-10T15:12:08Z</time>
      </trkpt>
      <trkpt lat="45.99351" lon="5.62983">
        <ele>1109</ele>
        <time>2026-05-10T15:12:09Z</time>
      </trkpt>
      <trkpt lat="45.99351" lon="5.62983">
        <ele>1108.8</ele>
        <time>2026-05-10T15:12:10Z</time>
      </trkpt>
      <trkpt lat="45.99349" lon="5.62976">
        <ele>1108.8</ele>
        <time>2026-05-10T15:12:11Z</time>
      </trkpt>
      <trkpt lat="45.99347" lon="5.62971">
        <ele>1108.4</ele>
        <time>2026-05-10T15:12:12Z</time>
      </trkpt>
      <trkpt lat="45.99344" lon="5.62964">
        <ele>1108</ele>
        <time>2026-05-10T15:12:13Z</time>
      </trkpt>
      <trkpt lat="45.99341" lon="5.62958">
        <ele>1107.4</ele>
        <time>2026-05-10T15:12:14Z</time>
      </trkpt>
      <trkpt lat="45.99339" lon="5.62952">
        <ele>1107.2</ele>
        <time>2026-05-10T15:12:15Z</time>
      </trkpt>
      <trkpt lat="45.99334" lon="5.62946">
        <ele>1106.6</ele>
        <time>2026-05-10T15:12:16Z</time>
      </trkpt>
      <trkpt lat="45.99331" lon="5.62937">
        <ele>1105.8</ele>
        <time>2026-05-10T15:12:17Z</time>
      </trkpt>
      <trkpt lat="45.99327" lon="5.6293">
        <ele>1104.8</ele>
        <time>2026-05-10T15:12:18Z</time>
      </trkpt>
      <trkpt lat="45.99323" lon="5.62922">
        <ele>1103.8</ele>
        <time>2026-05-10T15:12:19Z</time>
      </trkpt>
      <trkpt lat="45.99315" lon="5.62912">
        <ele>1102.8</ele>
        <time>2026-05-10T15:12:20Z</time>
      </trkpt>
      <trkpt lat="45.99308" lon="5.62905">
        <ele>1101.8</ele>
        <time>2026-05-10T15:12:21Z</time>
      </trkpt>
      <trkpt lat="45.99298" lon="5.62899">
        <ele>1100.6</ele>
        <time>2026-05-10T15:12:22Z</time>
      </trkpt>
      <trkpt lat="45.9929" lon="5.62894">
        <ele>1099.6</ele>
        <time>2026-05-10T15:12:23Z</time>
      </trkpt>
      <trkpt lat="45.99282" lon="5.62887">
        <ele>1098</ele>
        <time>2026-05-10T15:12:24Z</time>
      </trkpt>
      <trkpt lat="45.99274" lon="5.6288">
        <ele>1096.8</ele>
        <time>2026-05-10T15:12:25Z</time>
      </trkpt>
      <trkpt lat="45.99266" lon="5.62874">
        <ele>1095.2</ele>
        <time>2026-05-10T15:12:26Z</time>
      </trkpt>
      <trkpt lat="45.99257" lon="5.6287">
        <ele>1094</ele>
        <time>2026-05-10T15:12:27Z</time>
      </trkpt>
      <trkpt lat="45.9925" lon="5.62862">
        <ele>1092.4</ele>
        <time>2026-05-10T15:12:28Z</time>
      </trkpt>
      <trkpt lat="45.99242" lon="5.62855">
        <ele>1090.6</ele>
        <time>2026-05-10T15:12:29Z</time>
      </trkpt>
      <trkpt lat="45.99234" lon="5.62843">
        <ele>1089</ele>
        <time>2026-05-10T15:12:30Z</time>
      </trkpt>
      <trkpt lat="45.99226" lon="5.62834">
        <ele>1087.6</ele>
        <time>2026-05-10T15:12:31Z</time>
      </trkpt>
      <trkpt lat="45.9922" lon="5.62825">
        <ele>1086.6</ele>
        <time>2026-05-10T15:12:32Z</time>
      </trkpt>
      <trkpt lat="45.9921" lon="5.62814">
        <ele>1086.2</ele>
        <time>2026-05-10T15:12:33Z</time>
      </trkpt>
      <trkpt lat="45.99204" lon="5.62805">
        <ele>1086.2</ele>
        <time>2026-05-10T15:12:34Z</time>
      </trkpt>
      <trkpt lat="45.99198" lon="5.62797">
        <ele>1086.2</ele>
        <time>2026-05-10T15:12:35Z</time>
      </trkpt>
      <trkpt lat="45.99193" lon="5.6279">
        <ele>1086.2</ele>
        <time>2026-05-10T15:12:36Z</time>
      </trkpt>
      <trkpt lat="45.99189" lon="5.62781">
        <ele>1085.8</ele>
        <time>2026-05-10T15:12:37Z</time>
      </trkpt>
      <trkpt lat="45.99187" lon="5.6277">
        <ele>1085.6</ele>
        <time>2026-05-10T15:12:38Z</time>
      </trkpt>
      <trkpt lat="45.99185" lon="5.62762">
        <ele>1085.2</ele>
        <time>2026-05-10T15:12:39Z</time>
      </trkpt>
      <trkpt lat="45.99183" lon="5.62754">
        <ele>1084.8</ele>
        <time>2026-05-10T15:12:40Z</time>
      </trkpt>
      <trkpt lat="45.99182" lon="5.62744">
        <ele>1084.2</ele>
        <time>2026-05-10T15:12:41Z</time>
      </trkpt>
      <trkpt lat="45.99181" lon="5.62734">
        <ele>1083.4</ele>
        <time>2026-05-10T15:12:42Z</time>
      </trkpt>
      <trkpt lat="45.99181" lon="5.62726">
        <ele>1082.8</ele>
        <time>2026-05-10T15:12:43Z</time>
      </trkpt>
      <trkpt lat="45.99181" lon="5.62716">
        <ele>1082</ele>
        <time>2026-05-10T15:12:44Z</time>
      </trkpt>
      <trkpt lat="45.99177" lon="5.62703">
        <ele>1081</ele>
        <time>2026-05-10T15:12:45Z</time>
      </trkpt>
      <trkpt lat="45.99175" lon="5.62698">
        <ele>1080.4</ele>
        <time>2026-05-10T15:12:46Z</time>
      </trkpt>
      <trkpt lat="45.9917" lon="5.62689">
        <ele>1079.6</ele>
        <time>2026-05-10T15:12:47Z</time>
      </trkpt>
      <trkpt lat="45.9916" lon="5.62687">
        <ele>1079</ele>
        <time>2026-05-10T15:12:48Z</time>
      </trkpt>
      <trkpt lat="45.99154" lon="5.62683">
        <ele>1077.8</ele>
        <time>2026-05-10T15:12:49Z</time>
      </trkpt>
      <trkpt lat="45.99147" lon="5.62683">
        <ele>1076.6</ele>
        <time>2026-05-10T15:12:50Z</time>
      </trkpt>
      <trkpt lat="45.99138" lon="5.62681">
        <ele>1075.4</ele>
        <time>2026-05-10T15:12:51Z</time>
      </trkpt>
      <trkpt lat="45.99132" lon="5.6268">
        <ele>1074.4</ele>
        <time>2026-05-10T15:12:52Z</time>
      </trkpt>
      <trkpt lat="45.99125" lon="5.62678">
        <ele>1074</ele>
        <time>2026-05-10T15:12:53Z</time>
      </trkpt>
      <trkpt lat="45.99117" lon="5.62676">
        <ele>1073.2</ele>
        <time>2026-05-10T15:12:54Z</time>
      </trkpt>
      <trkpt lat="45.9911" lon="5.62671">
        <ele>1072</ele>
        <time>2026-05-10T15:12:55Z</time>
      </trkpt>
      <trkpt lat="45.99102" lon="5.62669">
        <ele>1071.4</ele>
        <time>2026-05-10T15:12:56Z</time>
      </trkpt>
      <trkpt lat="45.99096" lon="5.62666">
        <ele>1069.8</ele>
        <time>2026-05-10T15:12:57Z</time>
      </trkpt>
      <trkpt lat="45.9909" lon="5.62663">
        <ele>1068</ele>
        <time>2026-05-10T15:12:58Z</time>
      </trkpt>
      <trkpt lat="45.99083" lon="5.62662">
        <ele>1067</ele>
        <time>2026-05-10T15:12:59Z</time>
      </trkpt>
      <trkpt lat="45.99073" lon="5.62658">
        <ele>1065.6</ele>
        <time>2026-05-10T15:13:00Z</time>
      </trkpt>
      <trkpt lat="45.99065" lon="5.62657">
        <ele>1064.4</ele>
        <time>2026-05-10T15:13:01Z</time>
      </trkpt>
      <trkpt lat="45.99054" lon="5.62654">
        <ele>1064</ele>
        <time>2026-05-10T15:13:02Z</time>
      </trkpt>
      <trkpt lat="45.99045" lon="5.62645">
        <ele>1063.2</ele>
        <time>2026-05-10T15:13:03Z</time>
      </trkpt>
      <trkpt lat="45.99035" lon="5.62641">
        <ele>1062</ele>
        <time>2026-05-10T15:13:04Z</time>
      </trkpt>
      <trkpt lat="45.99024" lon="5.62635">
        <ele>1061.2</ele>
        <time>2026-05-10T15:13:05Z</time>
      </trkpt>
      <trkpt lat="45.99014" lon="5.62632">
        <ele>1060.4</ele>
        <time>2026-05-10T15:13:06Z</time>
      </trkpt>
      <trkpt lat="45.99002" lon="5.62627">
        <ele>1059.8</ele>
        <time>2026-05-10T15:13:07Z</time>
      </trkpt>
      <trkpt lat="45.98991" lon="5.62626">
        <ele>1059.8</ele>
        <time>2026-05-10T15:13:08Z</time>
      </trkpt>
      <trkpt lat="45.98982" lon="5.62619">
        <ele>1059.2</ele>
        <time>2026-05-10T15:13:09Z</time>
      </trkpt>
      <trkpt lat="45.98974" lon="5.62616">
        <ele>1059.2</ele>
        <time>2026-05-10T15:13:10Z</time>
      </trkpt>
      <trkpt lat="45.98967" lon="5.62609">
        <ele>1059.6</ele>
        <time>2026-05-10T15:13:11Z</time>
      </trkpt>
      <trkpt lat="45.98962" lon="5.62602">
        <ele>1059.8</ele>
        <time>2026-05-10T15:13:12Z</time>
      </trkpt>
      <trkpt lat="45.98957" lon="5.6259">
        <ele>1060.4</ele>
        <time>2026-05-10T15:13:13Z</time>
      </trkpt>
      <trkpt lat="45.98956" lon="5.62581">
        <ele>1061.2</ele>
        <time>2026-05-10T15:13:14Z</time>
      </trkpt>
      <trkpt lat="45.98955" lon="5.62574">
        <ele>1061.2</ele>
        <time>2026-05-10T15:13:15Z</time>
      </trkpt>
      <trkpt lat="45.98953" lon="5.62566">
        <ele>1062</ele>
        <time>2026-05-10T15:13:16Z</time>
      </trkpt>
      <trkpt lat="45.98952" lon="5.62559">
        <ele>1062.6</ele>
        <time>2026-05-10T15:13:17Z</time>
      </trkpt>
      <trkpt lat="45.98951" lon="5.62553">
        <ele>1063.2</ele>
        <time>2026-05-10T15:13:18Z</time>
      </trkpt>
      <trkpt lat="45.98952" lon="5.62548">
        <ele>1063.4</ele>
        <time>2026-05-10T15:13:19Z</time>
      </trkpt>
      <trkpt lat="45.98952" lon="5.62543">
        <ele>1064</ele>
        <time>2026-05-10T15:13:20Z</time>
      </trkpt>
      <trkpt lat="45.9895" lon="5.6254">
        <ele>1064.2</ele>
        <time>2026-05-10T15:13:21Z</time>
      </trkpt>
      <trkpt lat="45.98949" lon="5.62537">
        <ele>1064.2</ele>
        <time>2026-05-10T15:13:22Z</time>
      </trkpt>
      <trkpt lat="45.98947" lon="5.62534">
        <ele>1064.8</ele>
        <time>2026-05-10T15:13:23Z</time>
      </trkpt>
      <trkpt lat="45.98944" lon="5.6253">
        <ele>1065</ele>
        <time>2026-05-10T15:13:24Z</time>
      </trkpt>
      <trkpt lat="45.98942" lon="5.62526">
        <ele>1065</ele>
        <time>2026-05-10T15:13:25Z</time>
      </trkpt>
      <trkpt lat="45.98941" lon="5.62525">
        <ele>1065</ele>
        <time>2026-05-10T15:13:26Z</time>
      </trkpt>
      <trkpt lat="45.98939" lon="5.62522">
        <ele>1065</ele>
        <time>2026-05-10T15:13:27Z</time>
      </trkpt>
      <trkpt lat="45.98934" lon="5.62516">
        <ele>1064.8</ele>
        <time>2026-05-10T15:13:28Z</time>
      </trkpt>
      <trkpt lat="45.98929" lon="5.62511">
        <ele>1064.8</ele>
        <time>2026-05-10T15:13:29Z</time>
      </trkpt>
      <trkpt lat="45.98923" lon="5.62507">
        <ele>1064.2</ele>
        <time>2026-05-10T15:13:30Z</time>
      </trkpt>
      <trkpt lat="45.98918" lon="5.62503">
        <ele>1063.6</ele>
        <time>2026-05-10T15:13:31Z</time>
      </trkpt>
      <trkpt lat="45.98912" lon="5.62501">
        <ele>1063.4</ele>
        <time>2026-05-10T15:13:32Z</time>
      </trkpt>
      <trkpt lat="45.98907" lon="5.62497">
        <ele>1063.4</ele>
        <time>2026-05-10T15:13:33Z</time>
      </trkpt>
      <trkpt lat="45.98901" lon="5.62494">
        <ele>1062.4</ele>
        <time>2026-05-10T15:13:34Z</time>
      </trkpt>
      <trkpt lat="45.98894" lon="5.6249">
        <ele>1061</ele>
        <time>2026-05-10T15:13:35Z</time>
      </trkpt>
      <trkpt lat="45.98888" lon="5.62486">
        <ele>1061</ele>
        <time>2026-05-10T15:13:36Z</time>
      </trkpt>
      <trkpt lat="45.98882" lon="5.62481">
        <ele>1060.2</ele>
        <time>2026-05-10T15:13:37Z</time>
      </trkpt>
      <trkpt lat="45.98876" lon="5.62476">
        <ele>1059.4</ele>
        <time>2026-05-10T15:13:38Z</time>
      </trkpt>
      <trkpt lat="45.9887" lon="5.6247">
        <ele>1058.4</ele>
        <time>2026-05-10T15:13:39Z</time>
      </trkpt>
      <trkpt lat="45.98863" lon="5.62465">
        <ele>1057.2</ele>
        <time>2026-05-10T15:13:40Z</time>
      </trkpt>
      <trkpt lat="45.98855" lon="5.62459">
        <ele>1056.2</ele>
        <time>2026-05-10T15:13:41Z</time>
      </trkpt>
      <trkpt lat="45.98849" lon="5.62455">
        <ele>1055.4</ele>
        <time>2026-05-10T15:13:42Z</time>
      </trkpt>
      <trkpt lat="45.98841" lon="5.62449">
        <ele>1055.2</ele>
        <time>2026-05-10T15:13:43Z</time>
      </trkpt>
      <trkpt lat="45.98834" lon="5.62443">
        <ele>1054.6</ele>
        <time>2026-05-10T15:13:44Z</time>
      </trkpt>
      <trkpt lat="45.98827" lon="5.6244">
        <ele>1054.2</ele>
        <time>2026-05-10T15:13:45Z</time>
      </trkpt>
      <trkpt lat="45.9882" lon="5.62436">
        <ele>1054.2</ele>
        <time>2026-05-10T15:13:46Z</time>
      </trkpt>
      <trkpt lat="45.98813" lon="5.62432">
        <ele>1053.2</ele>
        <time>2026-05-10T15:13:47Z</time>
      </trkpt>
      <trkpt lat="45.98805" lon="5.62429">
        <ele>1052.8</ele>
        <time>2026-05-10T15:13:48Z</time>
      </trkpt>
      <trkpt lat="45.98796" lon="5.62428">
        <ele>1052.2</ele>
        <time>2026-05-10T15:13:49Z</time>
      </trkpt>
      <trkpt lat="45.98787" lon="5.62426">
        <ele>1052</ele>
        <time>2026-05-10T15:13:50Z</time>
      </trkpt>
      <trkpt lat="45.98779" lon="5.62425">
        <ele>1051.6</ele>
        <time>2026-05-10T15:13:51Z</time>
      </trkpt>
      <trkpt lat="45.98771" lon="5.62422">
        <ele>1050.8</ele>
        <time>2026-05-10T15:13:52Z</time>
      </trkpt>
      <trkpt lat="45.98763" lon="5.62419">
        <ele>1050.2</ele>
        <time>2026-05-10T15:13:53Z</time>
      </trkpt>
      <trkpt lat="45.98754" lon="5.62418">
        <ele>1049.2</ele>
        <time>2026-05-10T15:13:54Z</time>
      </trkpt>
      <trkpt lat="45.98746" lon="5.62413">
        <ele>1048.4</ele>
        <time>2026-05-10T15:13:55Z</time>
      </trkpt>
      <trkpt lat="45.98737" lon="5.62408">
        <ele>1047.4</ele>
        <time>2026-05-10T15:13:56Z</time>
      </trkpt>
      <trkpt lat="45.9873" lon="5.624">
        <ele>1047.2</ele>
        <time>2026-05-10T15:13:57Z</time>
      </trkpt>
      <trkpt lat="45.98724" lon="5.62392">
        <ele>1046.8</ele>
        <time>2026-05-10T15:13:58Z</time>
      </trkpt>
      <trkpt lat="45.98717" lon="5.62383">
        <ele>1046.8</ele>
        <time>2026-05-10T15:13:59Z</time>
      </trkpt>
      <trkpt lat="45.9871" lon="5.62374">
        <ele>1046.6</ele>
        <time>2026-05-10T15:14:00Z</time>
      </trkpt>
      <trkpt lat="45.98704" lon="5.62367">
        <ele>1046.4</ele>
        <time>2026-05-10T15:14:01Z</time>
      </trkpt>
      <trkpt lat="45.98694" lon="5.62358">
        <ele>1046.4</ele>
        <time>2026-05-10T15:14:02Z</time>
      </trkpt>
      <trkpt lat="45.98685" lon="5.62354">
        <ele>1045.8</ele>
        <time>2026-05-10T15:14:03Z</time>
      </trkpt>
      <trkpt lat="45.98677" lon="5.62351">
        <ele>1045.4</ele>
        <time>2026-05-10T15:14:04Z</time>
      </trkpt>
      <trkpt lat="45.9867" lon="5.62349">
        <ele>1045.4</ele>
        <time>2026-05-10T15:14:05Z</time>
      </trkpt>
      <trkpt lat="45.98664" lon="5.62348">
        <ele>1045</ele>
        <time>2026-05-10T15:14:06Z</time>
      </trkpt>
      <trkpt lat="45.98658" lon="5.62348">
        <ele>1045</ele>
        <time>2026-05-10T15:14:07Z</time>
      </trkpt>
      <trkpt lat="45.98651" lon="5.62347">
        <ele>1044.6</ele>
        <time>2026-05-10T15:14:08Z</time>
      </trkpt>
      <trkpt lat="45.98645" lon="5.62346">
        <ele>1044.2</ele>
        <time>2026-05-10T15:14:09Z</time>
      </trkpt>
      <trkpt lat="45.98639" lon="5.62345">
        <ele>1044</ele>
        <time>2026-05-10T15:14:10Z</time>
      </trkpt>
      <trkpt lat="45.98634" lon="5.62344">
        <ele>1043.6</ele>
        <time>2026-05-10T15:14:11Z</time>
      </trkpt>
      <trkpt lat="45.9863" lon="5.6234">
        <ele>1043.2</ele>
        <time>2026-05-10T15:14:12Z</time>
      </trkpt>
      <trkpt lat="45.98626" lon="5.62335">
        <ele>1042.6</ele>
        <time>2026-05-10T15:14:13Z</time>
      </trkpt>
      <trkpt lat="45.98623" lon="5.6233">
        <ele>1042.6</ele>
        <time>2026-05-10T15:14:14Z</time>
      </trkpt>
      <trkpt lat="45.98622" lon="5.62326">
        <ele>1041.8</ele>
        <time>2026-05-10T15:14:15Z</time>
      </trkpt>
      <trkpt lat="45.98621" lon="5.62323">
        <ele>1041.4</ele>
        <time>2026-05-10T15:14:16Z</time>
      </trkpt>
      <trkpt lat="45.9862" lon="5.62321">
        <ele>1041.2</ele>
        <time>2026-05-10T15:14:17Z</time>
      </trkpt>
      <trkpt lat="45.9862" lon="5.62319">
        <ele>1040.8</ele>
        <time>2026-05-10T15:14:18Z</time>
      </trkpt>
      <trkpt lat="45.9862" lon="5.62316">
        <ele>1040.4</ele>
        <time>2026-05-10T15:14:19Z</time>
      </trkpt>
      <trkpt lat="45.9862" lon="5.62314">
        <ele>1040.2</ele>
        <time>2026-05-10T15:14:20Z</time>
      </trkpt>
      <trkpt lat="45.9862" lon="5.62314">
        <ele>1040.2</ele>
        <time>2026-05-10T15:14:21Z</time>
      </trkpt>
      <trkpt lat="45.98619" lon="5.62308">
        <ele>1041.2</ele>
        <time>2026-05-10T15:18:12Z</time>
      </trkpt>
      <trkpt lat="45.98618" lon="5.62304">
        <ele>1041.2</ele>
        <time>2026-05-10T15:18:13Z</time>
      </trkpt>
      <trkpt lat="45.98617" lon="5.62299">
        <ele>1040.6</ele>
        <time>2026-05-10T15:18:14Z</time>
      </trkpt>
      <trkpt lat="45.98616" lon="5.62294">
        <ele>1040</ele>
        <time>2026-05-10T15:18:15Z</time>
      </trkpt>
      <trkpt lat="45.98615" lon="5.6229">
        <ele>1039.4</ele>
        <time>2026-05-10T15:18:16Z</time>
      </trkpt>
      <trkpt lat="45.98614" lon="5.62286">
        <ele>1039.2</ele>
        <time>2026-05-10T15:18:17Z</time>
      </trkpt>
      <trkpt lat="45.98613" lon="5.62282">
        <ele>1038.8</ele>
        <time>2026-05-10T15:18:18Z</time>
      </trkpt>
      <trkpt lat="45.98612" lon="5.62278">
        <ele>1038.4</ele>
        <time>2026-05-10T15:18:19Z</time>
      </trkpt>
      <trkpt lat="45.98611" lon="5.62274">
        <ele>1038.2</ele>
        <time>2026-05-10T15:18:20Z</time>
      </trkpt>
      <trkpt lat="45.9861" lon="5.62269">
        <ele>1037.8</ele>
        <time>2026-05-10T15:18:21Z</time>
      </trkpt>
      <trkpt lat="45.98608" lon="5.62264">
        <ele>1037.4</ele>
        <time>2026-05-10T15:18:22Z</time>
      </trkpt>
      <trkpt lat="45.98605" lon="5.62259">
        <ele>1036.8</ele>
        <time>2026-05-10T15:18:23Z</time>
      </trkpt>
      <trkpt lat="45.98602" lon="5.62254">
        <ele>1036.6</ele>
        <time>2026-05-10T15:18:24Z</time>
      </trkpt>
      <trkpt lat="45.98599" lon="5.62248">
        <ele>1035.8</ele>
        <time>2026-05-10T15:18:25Z</time>
      </trkpt>
      <trkpt lat="45.98595" lon="5.62243">
        <ele>1035.2</ele>
        <time>2026-05-10T15:18:26Z</time>
      </trkpt>
      <trkpt lat="45.98592" lon="5.62237">
        <ele>1034.2</ele>
        <time>2026-05-10T15:18:27Z</time>
      </trkpt>
      <trkpt lat="45.98588" lon="5.62232">
        <ele>1033.4</ele>
        <time>2026-05-10T15:18:28Z</time>
      </trkpt>
      <trkpt lat="45.98585" lon="5.62226">
        <ele>1033</ele>
        <time>2026-05-10T15:18:29Z</time>
      </trkpt>
      <trkpt lat="45.9858" lon="5.62221">
        <ele>1032.6</ele>
        <time>2026-05-10T15:18:30Z</time>
      </trkpt>
      <trkpt lat="45.98576" lon="5.62217">
        <ele>1032.2</ele>
        <time>2026-05-10T15:18:31Z</time>
      </trkpt>
      <trkpt lat="45.98572" lon="5.62213">
        <ele>1031.4</ele>
        <time>2026-05-10T15:18:32Z</time>
      </trkpt>
      <trkpt lat="45.98568" lon="5.62209">
        <ele>1030.8</ele>
        <time>2026-05-10T15:18:33Z</time>
      </trkpt>
      <trkpt lat="45.98563" lon="5.62207">
        <ele>1030.4</ele>
        <time>2026-05-10T15:18:34Z</time>
      </trkpt>
      <trkpt lat="45.98558" lon="5.62205">
        <ele>1029.6</ele>
        <time>2026-05-10T15:18:35Z</time>
      </trkpt>
      <trkpt lat="45.98552" lon="5.62204">
        <ele>1029.2</ele>
        <time>2026-05-10T15:18:36Z</time>
      </trkpt>
      <trkpt lat="45.98546" lon="5.62203">
        <ele>1028.8</ele>
        <time>2026-05-10T15:18:37Z</time>
      </trkpt>
      <trkpt lat="45.9854" lon="5.62201">
        <ele>1028.2</ele>
        <time>2026-05-10T15:18:38Z</time>
      </trkpt>
      <trkpt lat="45.98533" lon="5.62199">
        <ele>1027.6</ele>
        <time>2026-05-10T15:18:39Z</time>
      </trkpt>
      <trkpt lat="45.98525" lon="5.62197">
        <ele>1026.4</ele>
        <time>2026-05-10T15:18:40Z</time>
      </trkpt>
      <trkpt lat="45.9852" lon="5.62187">
        <ele>1025.6</ele>
        <time>2026-05-10T15:18:41Z</time>
      </trkpt>
      <trkpt lat="45.98513" lon="5.62179">
        <ele>1025</ele>
        <time>2026-05-10T15:18:42Z</time>
      </trkpt>
      <trkpt lat="45.98507" lon="5.62169">
        <ele>1024</ele>
        <time>2026-05-10T15:18:43Z</time>
      </trkpt>
      <trkpt lat="45.98501" lon="5.6216">
        <ele>1023.2</ele>
        <time>2026-05-10T15:18:44Z</time>
      </trkpt>
      <trkpt lat="45.98495" lon="5.62151">
        <ele>1022</ele>
        <time>2026-05-10T15:18:45Z</time>
      </trkpt>
      <trkpt lat="45.98489" lon="5.62142">
        <ele>1021.4</ele>
        <time>2026-05-10T15:18:46Z</time>
      </trkpt>
      <trkpt lat="45.98484" lon="5.62132">
        <ele>1020.8</ele>
        <time>2026-05-10T15:18:47Z</time>
      </trkpt>
      <trkpt lat="45.98479" lon="5.62124">
        <ele>1020.4</ele>
        <time>2026-05-10T15:18:48Z</time>
      </trkpt>
      <trkpt lat="45.98475" lon="5.62116">
        <ele>1019.6</ele>
        <time>2026-05-10T15:18:49Z</time>
      </trkpt>
      <trkpt lat="45.9847" lon="5.62109">
        <ele>1019.2</ele>
        <time>2026-05-10T15:18:50Z</time>
      </trkpt>
      <trkpt lat="45.98466" lon="5.62102">
        <ele>1018.8</ele>
        <time>2026-05-10T15:18:51Z</time>
      </trkpt>
      <trkpt lat="45.98461" lon="5.62096">
        <ele>1018.2</ele>
        <time>2026-05-10T15:18:52Z</time>
      </trkpt>
      <trkpt lat="45.98457" lon="5.62088">
        <ele>1017.6</ele>
        <time>2026-05-10T15:18:53Z</time>
      </trkpt>
      <trkpt lat="45.98454" lon="5.62082">
        <ele>1017</ele>
        <time>2026-05-10T15:18:54Z</time>
      </trkpt>
      <trkpt lat="45.98451" lon="5.62075">
        <ele>1016.4</ele>
        <time>2026-05-10T15:18:55Z</time>
      </trkpt>
      <trkpt lat="45.98449" lon="5.62067">
        <ele>1015.6</ele>
        <time>2026-05-10T15:18:56Z</time>
      </trkpt>
      <trkpt lat="45.98448" lon="5.62053">
        <ele>1015</ele>
        <time>2026-05-10T15:18:57Z</time>
      </trkpt>
      <trkpt lat="45.98451" lon="5.62045">
        <ele>1014.2</ele>
        <time>2026-05-10T15:18:58Z</time>
      </trkpt>
      <trkpt lat="45.98455" lon="5.62039">
        <ele>1013.4</ele>
        <time>2026-05-10T15:18:59Z</time>
      </trkpt>
      <trkpt lat="45.9846" lon="5.62033">
        <ele>1013</ele>
        <time>2026-05-10T15:19:00Z</time>
      </trkpt>
      <trkpt lat="45.98467" lon="5.62029">
        <ele>1011.8</ele>
        <time>2026-05-10T15:19:01Z</time>
      </trkpt>
      <trkpt lat="45.98473" lon="5.62025">
        <ele>1011.4</ele>
        <time>2026-05-10T15:19:02Z</time>
      </trkpt>
      <trkpt lat="45.9848" lon="5.62023">
        <ele>1010.4</ele>
        <time>2026-05-10T15:19:03Z</time>
      </trkpt>
      <trkpt lat="45.98487" lon="5.62021">
        <ele>1009.6</ele>
        <time>2026-05-10T15:19:04Z</time>
      </trkpt>
      <trkpt lat="45.98493" lon="5.62018">
        <ele>1008.6</ele>
        <time>2026-05-10T15:19:05Z</time>
      </trkpt>
      <trkpt lat="45.98499" lon="5.62011">
        <ele>1007.8</ele>
        <time>2026-05-10T15:19:06Z</time>
      </trkpt>
      <trkpt lat="45.98506" lon="5.62008">
        <ele>1007.2</ele>
        <time>2026-05-10T15:19:07Z</time>
      </trkpt>
      <trkpt lat="45.98515" lon="5.62009">
        <ele>1006.6</ele>
        <time>2026-05-10T15:19:08Z</time>
      </trkpt>
      <trkpt lat="45.98523" lon="5.62008">
        <ele>1005.4</ele>
        <time>2026-05-10T15:19:09Z</time>
      </trkpt>
      <trkpt lat="45.98531" lon="5.6201">
        <ele>1004.8</ele>
        <time>2026-05-10T15:19:10Z</time>
      </trkpt>
      <trkpt lat="45.98541" lon="5.62007">
        <ele>1003.8</ele>
        <time>2026-05-10T15:19:11Z</time>
      </trkpt>
      <trkpt lat="45.98549" lon="5.62008">
        <ele>1003</ele>
        <time>2026-05-10T15:19:12Z</time>
      </trkpt>
      <trkpt lat="45.98562" lon="5.62013">
        <ele>1001.4</ele>
        <time>2026-05-10T15:19:13Z</time>
      </trkpt>
      <trkpt lat="45.98571" lon="5.62015">
        <ele>1000</ele>
        <time>2026-05-10T15:19:14Z</time>
      </trkpt>
      <trkpt lat="45.98571" lon="5.62015">
        <ele>999.2</ele>
        <time>2026-05-10T15:19:15Z</time>
      </trkpt>
      <trkpt lat="45.98578" lon="5.62018">
        <ele>998.8</ele>
        <time>2026-05-10T15:19:16Z</time>
      </trkpt>
      <trkpt lat="45.98584" lon="5.62017">
        <ele>998</ele>
        <time>2026-05-10T15:19:17Z</time>
      </trkpt>
      <trkpt lat="45.98591" lon="5.62013">
        <ele>997.2</ele>
        <time>2026-05-10T15:19:18Z</time>
      </trkpt>
      <trkpt lat="45.98599" lon="5.62009">
        <ele>996.2</ele>
        <time>2026-05-10T15:19:19Z</time>
      </trkpt>
      <trkpt lat="45.98605" lon="5.62003">
        <ele>995.4</ele>
        <time>2026-05-10T15:19:20Z</time>
      </trkpt>
      <trkpt lat="45.98611" lon="5.61995">
        <ele>994.4</ele>
        <time>2026-05-10T15:19:21Z</time>
      </trkpt>
      <trkpt lat="45.98617" lon="5.61986">
        <ele>993.8</ele>
        <time>2026-05-10T15:19:22Z</time>
      </trkpt>
      <trkpt lat="45.98623" lon="5.61978">
        <ele>992.6</ele>
        <time>2026-05-10T15:19:23Z</time>
      </trkpt>
      <trkpt lat="45.98629" lon="5.61971">
        <ele>992.2</ele>
        <time>2026-05-10T15:19:24Z</time>
      </trkpt>
      <trkpt lat="45.98635" lon="5.61963">
        <ele>991.6</ele>
        <time>2026-05-10T15:19:25Z</time>
      </trkpt>
      <trkpt lat="45.98641" lon="5.61956">
        <ele>991.2</ele>
        <time>2026-05-10T15:19:26Z</time>
      </trkpt>
      <trkpt lat="45.98647" lon="5.61949">
        <ele>990.6</ele>
        <time>2026-05-10T15:19:27Z</time>
      </trkpt>
      <trkpt lat="45.98654" lon="5.61945">
        <ele>989.6</ele>
        <time>2026-05-10T15:19:28Z</time>
      </trkpt>
      <trkpt lat="45.9866" lon="5.61942">
        <ele>989.2</ele>
        <time>2026-05-10T15:19:29Z</time>
      </trkpt>
      <trkpt lat="45.98665" lon="5.6194">
        <ele>989.2</ele>
        <time>2026-05-10T15:19:30Z</time>
      </trkpt>
      <trkpt lat="45.98669" lon="5.6194">
        <ele>988.6</ele>
        <time>2026-05-10T15:19:31Z</time>
      </trkpt>
      <trkpt lat="45.98674" lon="5.61942">
        <ele>988.2</ele>
        <time>2026-05-10T15:19:32Z</time>
      </trkpt>
      <trkpt lat="45.98679" lon="5.61945">
        <ele>987.4</ele>
        <time>2026-05-10T15:19:33Z</time>
      </trkpt>
      <trkpt lat="45.98685" lon="5.61948">
        <ele>986.6</ele>
        <time>2026-05-10T15:19:34Z</time>
      </trkpt>
      <trkpt lat="45.9869" lon="5.61953">
        <ele>985.8</ele>
        <time>2026-05-10T15:19:35Z</time>
      </trkpt>
      <trkpt lat="45.98696" lon="5.61958">
        <ele>985.2</ele>
        <time>2026-05-10T15:19:36Z</time>
      </trkpt>
      <trkpt lat="45.98702" lon="5.61964">
        <ele>984.4</ele>
        <time>2026-05-10T15:19:37Z</time>
      </trkpt>
      <trkpt lat="45.98707" lon="5.61969">
        <ele>983.6</ele>
        <time>2026-05-10T15:19:38Z</time>
      </trkpt>
      <trkpt lat="45.98712" lon="5.61977">
        <ele>983</ele>
        <time>2026-05-10T15:19:39Z</time>
      </trkpt>
      <trkpt lat="45.98718" lon="5.61984">
        <ele>982.2</ele>
        <time>2026-05-10T15:19:40Z</time>
      </trkpt>
      <trkpt lat="45.98718" lon="5.61994">
        <ele>981.6</ele>
        <time>2026-05-10T15:19:41Z</time>
      </trkpt>
      <trkpt lat="45.9872" lon="5.62005">
        <ele>981</ele>
        <time>2026-05-10T15:19:42Z</time>
      </trkpt>
      <trkpt lat="45.9872" lon="5.62016">
        <ele>980</ele>
        <time>2026-05-10T15:19:43Z</time>
      </trkpt>
      <trkpt lat="45.98721" lon="5.62027">
        <ele>979.6</ele>
        <time>2026-05-10T15:19:44Z</time>
      </trkpt>
      <trkpt lat="45.98725" lon="5.62036">
        <ele>979</ele>
        <time>2026-05-10T15:19:45Z</time>
      </trkpt>
      <trkpt lat="45.98728" lon="5.62045">
        <ele>978.6</ele>
        <time>2026-05-10T15:19:46Z</time>
      </trkpt>
      <trkpt lat="45.98731" lon="5.62053">
        <ele>978</ele>
        <time>2026-05-10T15:19:47Z</time>
      </trkpt>
      <trkpt lat="45.98735" lon="5.6206">
        <ele>977.4</ele>
        <time>2026-05-10T15:19:48Z</time>
      </trkpt>
      <trkpt lat="45.98739" lon="5.62066">
        <ele>977</ele>
        <time>2026-05-10T15:19:49Z</time>
      </trkpt>
      <trkpt lat="45.98741" lon="5.6207">
        <ele>976.6</ele>
        <time>2026-05-10T15:19:50Z</time>
      </trkpt>
      <trkpt lat="45.98745" lon="5.62074">
        <ele>975.8</ele>
        <time>2026-05-10T15:19:51Z</time>
      </trkpt>
      <trkpt lat="45.98749" lon="5.62078">
        <ele>975.4</ele>
        <time>2026-05-10T15:19:52Z</time>
      </trkpt>
      <trkpt lat="45.98754" lon="5.62081">
        <ele>974.8</ele>
        <time>2026-05-10T15:19:53Z</time>
      </trkpt>
      <trkpt lat="45.98759" lon="5.62083">
        <ele>974.4</ele>
        <time>2026-05-10T15:19:54Z</time>
      </trkpt>
      <trkpt lat="45.98765" lon="5.62082">
        <ele>973.8</ele>
        <time>2026-05-10T15:19:55Z</time>
      </trkpt>
      <trkpt lat="45.9877" lon="5.6208">
        <ele>973</ele>
        <time>2026-05-10T15:19:56Z</time>
      </trkpt>
      <trkpt lat="45.98775" lon="5.62076">
        <ele>972.6</ele>
        <time>2026-05-10T15:19:57Z</time>
      </trkpt>
      <trkpt lat="45.98779" lon="5.62072">
        <ele>971.6</ele>
        <time>2026-05-10T15:19:58Z</time>
      </trkpt>
      <trkpt lat="45.98782" lon="5.62063">
        <ele>971.4</ele>
        <time>2026-05-10T15:19:59Z</time>
      </trkpt>
      <trkpt lat="45.98787" lon="5.62056">
        <ele>971.4</ele>
        <time>2026-05-10T15:20:00Z</time>
      </trkpt>
      <trkpt lat="45.98788" lon="5.62047">
        <ele>970</ele>
        <time>2026-05-10T15:20:01Z</time>
      </trkpt>
      <trkpt lat="45.98789" lon="5.62038">
        <ele>969</ele>
        <time>2026-05-10T15:20:02Z</time>
      </trkpt>
      <trkpt lat="45.9879" lon="5.62029">
        <ele>967.8</ele>
        <time>2026-05-10T15:20:03Z</time>
      </trkpt>
      <trkpt lat="45.98792" lon="5.62018">
        <ele>966.8</ele>
        <time>2026-05-10T15:20:04Z</time>
      </trkpt>
      <trkpt lat="45.98792" lon="5.62008">
        <ele>965.6</ele>
        <time>2026-05-10T15:20:05Z</time>
      </trkpt>
      <trkpt lat="45.98792" lon="5.61996">
        <ele>964</ele>
        <time>2026-05-10T15:20:06Z</time>
      </trkpt>
      <trkpt lat="45.9879" lon="5.61984">
        <ele>962.4</ele>
        <time>2026-05-10T15:20:07Z</time>
      </trkpt>
      <trkpt lat="45.98789" lon="5.61972">
        <ele>961</ele>
        <time>2026-05-10T15:20:08Z</time>
      </trkpt>
      <trkpt lat="45.98787" lon="5.6196">
        <ele>959.8</ele>
        <time>2026-05-10T15:20:09Z</time>
      </trkpt>
      <trkpt lat="45.98785" lon="5.61948">
        <ele>959</ele>
        <time>2026-05-10T15:20:10Z</time>
      </trkpt>
      <trkpt lat="45.98784" lon="5.61936">
        <ele>958</ele>
        <time>2026-05-10T15:20:11Z</time>
      </trkpt>
      <trkpt lat="45.98783" lon="5.61924">
        <ele>957.2</ele>
        <time>2026-05-10T15:20:12Z</time>
      </trkpt>
      <trkpt lat="45.98783" lon="5.61911">
        <ele>956.6</ele>
        <time>2026-05-10T15:20:13Z</time>
      </trkpt>
      <trkpt lat="45.98783" lon="5.61898">
        <ele>956.2</ele>
        <time>2026-05-10T15:20:14Z</time>
      </trkpt>
      <trkpt lat="45.98783" lon="5.61886">
        <ele>955.8</ele>
        <time>2026-05-10T15:20:15Z</time>
      </trkpt>
      <trkpt lat="45.98784" lon="5.61873">
        <ele>955.4</ele>
        <time>2026-05-10T15:20:16Z</time>
      </trkpt>
      <trkpt lat="45.98783" lon="5.61861">
        <ele>955</ele>
        <time>2026-05-10T15:20:17Z</time>
      </trkpt>
      <trkpt lat="45.98782" lon="5.61849">
        <ele>954.2</ele>
        <time>2026-05-10T15:20:18Z</time>
      </trkpt>
      <trkpt lat="45.98781" lon="5.61837">
        <ele>953.6</ele>
        <time>2026-05-10T15:20:19Z</time>
      </trkpt>
      <trkpt lat="45.98781" lon="5.61824">
        <ele>953</ele>
        <time>2026-05-10T15:20:20Z</time>
      </trkpt>
      <trkpt lat="45.98783" lon="5.61812">
        <ele>952.6</ele>
        <time>2026-05-10T15:20:21Z</time>
      </trkpt>
      <trkpt lat="45.98783" lon="5.61799">
        <ele>952.2</ele>
        <time>2026-05-10T15:20:22Z</time>
      </trkpt>
      <trkpt lat="45.98784" lon="5.61786">
        <ele>952</ele>
        <time>2026-05-10T15:20:23Z</time>
      </trkpt>
      <trkpt lat="45.98784" lon="5.61774">
        <ele>951.6</ele>
        <time>2026-05-10T15:20:24Z</time>
      </trkpt>
      <trkpt lat="45.98785" lon="5.61762">
        <ele>951.4</ele>
        <time>2026-05-10T15:20:25Z</time>
      </trkpt>
      <trkpt lat="45.98785" lon="5.61752">
        <ele>951</ele>
        <time>2026-05-10T15:20:26Z</time>
      </trkpt>
      <trkpt lat="45.98785" lon="5.61744">
        <ele>951</ele>
        <time>2026-05-10T15:20:27Z</time>
      </trkpt>
      <trkpt lat="45.98786" lon="5.61736">
        <ele>951</ele>
        <time>2026-05-10T15:20:28Z</time>
      </trkpt>
      <trkpt lat="45.98789" lon="5.61728">
        <ele>949.6</ele>
        <time>2026-05-10T15:20:29Z</time>
      </trkpt>
      <trkpt lat="45.98791" lon="5.61722">
        <ele>949.6</ele>
        <time>2026-05-10T15:20:30Z</time>
      </trkpt>
      <trkpt lat="45.98793" lon="5.61716">
        <ele>949.4</ele>
        <time>2026-05-10T15:20:31Z</time>
      </trkpt>
      <trkpt lat="45.98796" lon="5.6171">
        <ele>949.4</ele>
        <time>2026-05-10T15:20:32Z</time>
      </trkpt>
      <trkpt lat="45.98799" lon="5.61705">
        <ele>949.4</ele>
        <time>2026-05-10T15:20:33Z</time>
      </trkpt>
      <trkpt lat="45.98802" lon="5.617">
        <ele>949.4</ele>
        <time>2026-05-10T15:20:34Z</time>
      </trkpt>
      <trkpt lat="45.98804" lon="5.61697">
        <ele>949.4</ele>
        <time>2026-05-10T15:20:35Z</time>
      </trkpt>
      <trkpt lat="45.98806" lon="5.61695">
        <ele>949.6</ele>
        <time>2026-05-10T15:20:36Z</time>
      </trkpt>
      <trkpt lat="45.98808" lon="5.61692">
        <ele>949.6</ele>
        <time>2026-05-10T15:20:37Z</time>
      </trkpt>
      <trkpt lat="45.9881" lon="5.61689">
        <ele>949.6</ele>
        <time>2026-05-10T15:20:38Z</time>
      </trkpt>
      <trkpt lat="45.98812" lon="5.61685">
        <ele>949.6</ele>
        <time>2026-05-10T15:20:39Z</time>
      </trkpt>
      <trkpt lat="45.98814" lon="5.61682">
        <ele>950</ele>
        <time>2026-05-10T15:20:40Z</time>
      </trkpt>
      <trkpt lat="45.98816" lon="5.61679">
        <ele>950</ele>
        <time>2026-05-10T15:20:41Z</time>
      </trkpt>
      <trkpt lat="45.98818" lon="5.61675">
        <ele>950</ele>
        <time>2026-05-10T15:20:42Z</time>
      </trkpt>
      <trkpt lat="45.9882" lon="5.61672">
        <ele>950</ele>
        <time>2026-05-10T15:20:43Z</time>
      </trkpt>
      <trkpt lat="45.98822" lon="5.61668">
        <ele>950</ele>
        <time>2026-05-10T15:20:44Z</time>
      </trkpt>
      <trkpt lat="45.98824" lon="5.61665">
        <ele>949.6</ele>
        <time>2026-05-10T15:20:45Z</time>
      </trkpt>
      <trkpt lat="45.98826" lon="5.61662">
        <ele>949.6</ele>
        <time>2026-05-10T15:20:46Z</time>
      </trkpt>
      <trkpt lat="45.98827" lon="5.61658">
        <ele>949.2</ele>
        <time>2026-05-10T15:20:47Z</time>
      </trkpt>
      <trkpt lat="45.98829" lon="5.61654">
        <ele>949.2</ele>
        <time>2026-05-10T15:20:48Z</time>
      </trkpt>
      <trkpt lat="45.98831" lon="5.61651">
        <ele>949</ele>
        <time>2026-05-10T15:20:49Z</time>
      </trkpt>
      <trkpt lat="45.98833" lon="5.61648">
        <ele>949</ele>
        <time>2026-05-10T15:20:50Z</time>
      </trkpt>
      <trkpt lat="45.98835" lon="5.61644">
        <ele>948.6</ele>
        <time>2026-05-10T15:20:51Z</time>
      </trkpt>
      <trkpt lat="45.98838" lon="5.6164">
        <ele>948</ele>
        <time>2026-05-10T15:20:52Z</time>
      </trkpt>
      <trkpt lat="45.9884" lon="5.61636">
        <ele>948</ele>
        <time>2026-05-10T15:20:53Z</time>
      </trkpt>
      <trkpt lat="45.98842" lon="5.61632">
        <ele>948</ele>
        <time>2026-05-10T15:20:54Z</time>
      </trkpt>
      <trkpt lat="45.98844" lon="5.61629">
        <ele>948.4</ele>
        <time>2026-05-10T15:20:55Z</time>
      </trkpt>
      <trkpt lat="45.98845" lon="5.61626">
        <ele>948.4</ele>
        <time>2026-05-10T15:20:56Z</time>
      </trkpt>
      <trkpt lat="45.98844" lon="5.61622">
        <ele>948.4</ele>
        <time>2026-05-10T15:20:57Z</time>
      </trkpt>
      <trkpt lat="45.98843" lon="5.61618">
        <ele>948.4</ele>
        <time>2026-05-10T15:20:58Z</time>
      </trkpt>
      <trkpt lat="45.98842" lon="5.61614">
        <ele>948</ele>
        <time>2026-05-10T15:20:59Z</time>
      </trkpt>
      <trkpt lat="45.98841" lon="5.6161">
        <ele>948</ele>
        <time>2026-05-10T15:21:00Z</time>
      </trkpt>
      <trkpt lat="45.9884" lon="5.61607">
        <ele>948</ele>
        <time>2026-05-10T15:21:01Z</time>
      </trkpt>
      <trkpt lat="45.98838" lon="5.61604">
        <ele>948</ele>
        <time>2026-05-10T15:21:02Z</time>
      </trkpt>
      <trkpt lat="45.98837" lon="5.61602">
        <ele>948.2</ele>
        <time>2026-05-10T15:21:03Z</time>
      </trkpt>
      <trkpt lat="45.98835" lon="5.616">
        <ele>948.2</ele>
        <time>2026-05-10T15:21:04Z</time>
      </trkpt>
      <trkpt lat="45.98833" lon="5.616">
        <ele>948.4</ele>
        <time>2026-05-10T15:21:05Z</time>
      </trkpt>
      <trkpt lat="45.98831" lon="5.616">
        <ele>948.4</ele>
        <time>2026-05-10T15:21:06Z</time>
      </trkpt>
      <trkpt lat="45.98829" lon="5.61602">
        <ele>948.4</ele>
        <time>2026-05-10T15:21:07Z</time>
      </trkpt>
      <trkpt lat="45.98827" lon="5.61603">
        <ele>948.4</ele>
        <time>2026-05-10T15:21:08Z</time>
      </trkpt>
      <trkpt lat="45.98824" lon="5.61604">
        <ele>948.4</ele>
        <time>2026-05-10T15:21:09Z</time>
      </trkpt>
      <trkpt lat="45.98824" lon="5.61604">
        <ele>948.4</ele>
        <time>2026-05-10T15:21:10Z</time>
      </trkpt>
      <trkpt lat="45.98824" lon="5.61604">
        <ele>948.4</ele>
        <time>2026-05-10T15:21:11Z</time>
      </trkpt>
      <trkpt lat="45.98818" lon="5.61605">
        <ele>948.4</ele>
        <time>2026-05-10T15:21:13Z</time>
      </trkpt>
      <trkpt lat="45.98817" lon="5.61608">
        <ele>948.4</ele>
        <time>2026-05-10T15:21:14Z</time>
      </trkpt>
      <trkpt lat="45.98817" lon="5.61611">
        <ele>948.8</ele>
        <time>2026-05-10T15:21:15Z</time>
      </trkpt>
      <trkpt lat="45.98819" lon="5.61614">
        <ele>948.8</ele>
        <time>2026-05-10T15:21:16Z</time>
      </trkpt>
      <trkpt lat="45.98822" lon="5.61615">
        <ele>948.8</ele>
        <time>2026-05-10T15:21:17Z</time>
      </trkpt>
      <trkpt lat="45.98825" lon="5.61614">
        <ele>948.8</ele>
        <time>2026-05-10T15:21:18Z</time>
      </trkpt>
      <trkpt lat="45.98827" lon="5.61611">
        <ele>948.8</ele>
        <time>2026-05-10T15:21:19Z</time>
      </trkpt>
      <trkpt lat="45.98829" lon="5.61609">
        <ele>948.8</ele>
        <time>2026-05-10T15:21:20Z</time>
      </trkpt>
      <trkpt lat="45.98831" lon="5.61607">
        <ele>948.8</ele>
        <time>2026-05-10T15:21:21Z</time>
      </trkpt>
      <trkpt lat="45.98832" lon="5.61606">
        <ele>948.8</ele>
        <time>2026-05-10T15:21:22Z</time>
      </trkpt>
      <trkpt lat="45.98833" lon="5.61605">
        <ele>948.8</ele>
        <time>2026-05-10T15:21:23Z</time>
      </trkpt>
      <trkpt lat="45.98835" lon="5.61606">
        <ele>948.8</ele>
        <time>2026-05-10T15:21:24Z</time>
      </trkpt>
      <trkpt lat="45.98836" lon="5.61608">
        <ele>948.8</ele>
        <time>2026-05-10T15:21:25Z</time>
      </trkpt>
      <trkpt lat="45.98835" lon="5.61609">
        <ele>948.8</ele>
        <time>2026-05-10T15:21:26Z</time>
      </trkpt>
      <trkpt lat="45.98833" lon="5.6161">
        <ele>948.8</ele>
        <time>2026-05-10T15:21:27Z</time>
      </trkpt>
      <trkpt lat="45.98832" lon="5.6161">
        <ele>948.8</ele>
        <time>2026-05-10T15:21:28Z</time>
      </trkpt>
      <trkpt lat="45.9883" lon="5.6161">
        <ele>948.8</ele>
        <time>2026-05-10T15:21:29Z</time>
      </trkpt>
      <trkpt lat="45.9883" lon="5.6161">
        <ele>948.8</ele>
        <time>2026-05-10T15:21:30Z</time>
      </trkpt>
      <trkpt lat="45.98828" lon="5.61609">
        <ele>948.8</ele>
        <time>2026-05-10T15:21:31Z</time>
      </trkpt>
      <trkpt lat="45.98826" lon="5.61609">
        <ele>948.8</ele>
        <time>2026-05-10T15:21:32Z</time>
      </trkpt>
      <trkpt lat="45.98826" lon="5.61609">
        <ele>948.4</ele>
        <time>2026-05-10T15:21:33Z</time>
      </trkpt>
      <trkpt lat="45.98822" lon="5.61607">
        <ele>948.4</ele>
        <time>2026-05-10T15:21:34Z</time>
      </trkpt>
      <trkpt lat="45.9882" lon="5.61606">
        <ele>948.4</ele>
        <time>2026-05-10T15:21:35Z</time>
      </trkpt>
      <trkpt lat="45.98818" lon="5.61606">
        <ele>948.4</ele>
        <time>2026-05-10T15:21:36Z</time>
      </trkpt>
      <trkpt lat="45.98816" lon="5.61608">
        <ele>948.4</ele>
        <time>2026-05-10T15:21:37Z</time>
      </trkpt>
      <trkpt lat="45.98814" lon="5.6161">
        <ele>948.4</ele>
        <time>2026-05-10T15:21:38Z</time>
      </trkpt>
      <trkpt lat="45.98814" lon="5.61613">
        <ele>948.4</ele>
        <time>2026-05-10T15:21:39Z</time>
      </trkpt>
      <trkpt lat="45.98813" lon="5.61616">
        <ele>948.4</ele>
        <time>2026-05-10T15:21:40Z</time>
      </trkpt>
      <trkpt lat="45.98814" lon="5.61619">
        <ele>948.4</ele>
        <time>2026-05-10T15:21:41Z</time>
      </trkpt>
      <trkpt lat="45.98817" lon="5.61619">
        <ele>948.4</ele>
        <time>2026-05-10T15:21:42Z</time>
      </trkpt>
      <trkpt lat="45.98819" lon="5.61618">
        <ele>948.4</ele>
        <time>2026-05-10T15:21:43Z</time>
      </trkpt>
      <trkpt lat="45.9882" lon="5.61615">
        <ele>948.4</ele>
        <time>2026-05-10T15:21:44Z</time>
      </trkpt>
      <trkpt lat="45.98821" lon="5.61611">
        <ele>948.4</ele>
        <time>2026-05-10T15:21:45Z</time>
      </trkpt>
      <trkpt lat="45.98823" lon="5.61608">
        <ele>948.4</ele>
        <time>2026-05-10T15:21:46Z</time>
      </trkpt>
      <trkpt lat="45.98824" lon="5.61606">
        <ele>948.4</ele>
        <time>2026-05-10T15:21:47Z</time>
      </trkpt>
      <trkpt lat="45.98826" lon="5.61606">
        <ele>948.4</ele>
        <time>2026-05-10T15:21:48Z</time>
      </trkpt>
      <trkpt lat="45.98828" lon="5.61605">
        <ele>948.6</ele>
        <time>2026-05-10T15:21:49Z</time>
      </trkpt>
      <trkpt lat="45.98829" lon="5.61606">
        <ele>948.6</ele>
        <time>2026-05-10T15:21:50Z</time>
      </trkpt>
      <trkpt lat="45.98831" lon="5.61606">
        <ele>948.6</ele>
        <time>2026-05-10T15:21:51Z</time>
      </trkpt>
      <trkpt lat="45.98833" lon="5.61606">
        <ele>948.6</ele>
        <time>2026-05-10T15:21:52Z</time>
      </trkpt>
      <trkpt lat="45.98836" lon="5.61605">
        <ele>948.6</ele>
        <time>2026-05-10T15:21:53Z</time>
      </trkpt>
      <trkpt lat="45.98838" lon="5.61604">
        <ele>948.6</ele>
        <time>2026-05-10T15:21:54Z</time>
      </trkpt>
      <trkpt lat="45.9884" lon="5.61604">
        <ele>948.6</ele>
        <time>2026-05-10T15:21:55Z</time>
      </trkpt>
      <trkpt lat="45.98843" lon="5.61604">
        <ele>948.6</ele>
        <time>2026-05-10T15:21:56Z</time>
      </trkpt>
      <trkpt lat="45.98845" lon="5.61604">
        <ele>948.6</ele>
        <time>2026-05-10T15:21:57Z</time>
      </trkpt>
      <trkpt lat="45.98848" lon="5.61604">
        <ele>948.4</ele>
        <time>2026-05-10T15:21:58Z</time>
      </trkpt>
      <trkpt lat="45.98852" lon="5.61603">
        <ele>947.8</ele>
        <time>2026-05-10T15:21:59Z</time>
      </trkpt>
      <trkpt lat="45.98856" lon="5.616">
        <ele>947.4</ele>
        <time>2026-05-10T15:22:00Z</time>
      </trkpt>
      <trkpt lat="45.98857" lon="5.61592">
        <ele>947</ele>
        <time>2026-05-10T15:22:01Z</time>
      </trkpt>
      <trkpt lat="45.98858" lon="5.61586">
        <ele>946.2</ele>
        <time>2026-05-10T15:22:02Z</time>
      </trkpt>
      <trkpt lat="45.98859" lon="5.61578">
        <ele>945.6</ele>
        <time>2026-05-10T15:22:03Z</time>
      </trkpt>
      <trkpt lat="45.9886" lon="5.6157">
        <ele>944.6</ele>
        <time>2026-05-10T15:22:04Z</time>
      </trkpt>
      <trkpt lat="45.98859" lon="5.61564">
        <ele>943.8</ele>
        <time>2026-05-10T15:22:05Z</time>
      </trkpt>
      <trkpt lat="45.98861" lon="5.61552">
        <ele>943</ele>
        <time>2026-05-10T15:22:06Z</time>
      </trkpt>
      <trkpt lat="45.98863" lon="5.61543">
        <ele>942.2</ele>
        <time>2026-05-10T15:22:07Z</time>
      </trkpt>
      <trkpt lat="45.98864" lon="5.61535">
        <ele>941.4</ele>
        <time>2026-05-10T15:22:08Z</time>
      </trkpt>
      <trkpt lat="45.98865" lon="5.61526">
        <ele>940.6</ele>
        <time>2026-05-10T15:22:09Z</time>
      </trkpt>
      <trkpt lat="45.98866" lon="5.61516">
        <ele>940</ele>
        <time>2026-05-10T15:22:10Z</time>
      </trkpt>
      <trkpt lat="45.98868" lon="5.61509">
        <ele>939.2</ele>
        <time>2026-05-10T15:22:11Z</time>
      </trkpt>
      <trkpt lat="45.98869" lon="5.61499">
        <ele>938.2</ele>
        <time>2026-05-10T15:22:12Z</time>
      </trkpt>
      <trkpt lat="45.98869" lon="5.61488">
        <ele>937</ele>
        <time>2026-05-10T15:22:13Z</time>
      </trkpt>
      <trkpt lat="45.98869" lon="5.61477">
        <ele>936</ele>
        <time>2026-05-10T15:22:14Z</time>
      </trkpt>
      <trkpt lat="45.98869" lon="5.61465">
        <ele>935</ele>
        <time>2026-05-10T15:22:15Z</time>
      </trkpt>
      <trkpt lat="45.9887" lon="5.61453">
        <ele>933.8</ele>
        <time>2026-05-10T15:22:16Z</time>
      </trkpt>
      <trkpt lat="45.98872" lon="5.6144">
        <ele>932.8</ele>
        <time>2026-05-10T15:22:17Z</time>
      </trkpt>
      <trkpt lat="45.98874" lon="5.61429">
        <ele>931.4</ele>
        <time>2026-05-10T15:22:18Z</time>
      </trkpt>
      <trkpt lat="45.98876" lon="5.61418">
        <ele>930.2</ele>
        <time>2026-05-10T15:22:19Z</time>
      </trkpt>
      <trkpt lat="45.98876" lon="5.61407">
        <ele>929.4</ele>
        <time>2026-05-10T15:22:20Z</time>
      </trkpt>
      <trkpt lat="45.98877" lon="5.61397">
        <ele>928.8</ele>
        <time>2026-05-10T15:22:21Z</time>
      </trkpt>
      <trkpt lat="45.98878" lon="5.61389">
        <ele>928.6</ele>
        <time>2026-05-10T15:22:22Z</time>
      </trkpt>
      <trkpt lat="45.98879" lon="5.61382">
        <ele>928</ele>
        <time>2026-05-10T15:22:23Z</time>
      </trkpt>
      <trkpt lat="45.9888" lon="5.61373">
        <ele>928</ele>
        <time>2026-05-10T15:22:24Z</time>
      </trkpt>
      <trkpt lat="45.98879" lon="5.61366">
        <ele>927.8</ele>
        <time>2026-05-10T15:22:25Z</time>
      </trkpt>
      <trkpt lat="45.9888" lon="5.61358">
        <ele>927.4</ele>
        <time>2026-05-10T15:22:26Z</time>
      </trkpt>
      <trkpt lat="45.9888" lon="5.6135">
        <ele>927</ele>
        <time>2026-05-10T15:22:27Z</time>
      </trkpt>
      <trkpt lat="45.98879" lon="5.61341">
        <ele>926.4</ele>
        <time>2026-05-10T15:22:28Z</time>
      </trkpt>
      <trkpt lat="45.98877" lon="5.6133">
        <ele>926.2</ele>
        <time>2026-05-10T15:22:29Z</time>
      </trkpt>
      <trkpt lat="45.98876" lon="5.6132">
        <ele>925.4</ele>
        <time>2026-05-10T15:22:30Z</time>
      </trkpt>
      <trkpt lat="45.98873" lon="5.61311">
        <ele>925</ele>
        <time>2026-05-10T15:22:31Z</time>
      </trkpt>
      <trkpt lat="45.98871" lon="5.61301">
        <ele>924.2</ele>
        <time>2026-05-10T15:22:32Z</time>
      </trkpt>
      <trkpt lat="45.98868" lon="5.6129">
        <ele>923.6</ele>
        <time>2026-05-10T15:22:33Z</time>
      </trkpt>
      <trkpt lat="45.98867" lon="5.61282">
        <ele>923.2</ele>
        <time>2026-05-10T15:22:34Z</time>
      </trkpt>
      <trkpt lat="45.98865" lon="5.6127">
        <ele>922.2</ele>
        <time>2026-05-10T15:22:35Z</time>
      </trkpt>
      <trkpt lat="45.98862" lon="5.6126">
        <ele>921.4</ele>
        <time>2026-05-10T15:22:36Z</time>
      </trkpt>
      <trkpt lat="45.98861" lon="5.61248">
        <ele>920.6</ele>
        <time>2026-05-10T15:22:37Z</time>
      </trkpt>
      <trkpt lat="45.98857" lon="5.61237">
        <ele>919.6</ele>
        <time>2026-05-10T15:22:38Z</time>
      </trkpt>
      <trkpt lat="45.98854" lon="5.61225">
        <ele>918.8</ele>
        <time>2026-05-10T15:22:39Z</time>
      </trkpt>
      <trkpt lat="45.98852" lon="5.61211">
        <ele>918.2</ele>
        <time>2026-05-10T15:22:40Z</time>
      </trkpt>
      <trkpt lat="45.98848" lon="5.61199">
        <ele>917.4</ele>
        <time>2026-05-10T15:22:41Z</time>
      </trkpt>
      <trkpt lat="45.98846" lon="5.61186">
        <ele>916.6</ele>
        <time>2026-05-10T15:22:42Z</time>
      </trkpt>
      <trkpt lat="45.98843" lon="5.61175">
        <ele>915.8</ele>
        <time>2026-05-10T15:22:43Z</time>
      </trkpt>
      <trkpt lat="45.98841" lon="5.61163">
        <ele>915.2</ele>
        <time>2026-05-10T15:22:44Z</time>
      </trkpt>
      <trkpt lat="45.9884" lon="5.61151">
        <ele>914.8</ele>
        <time>2026-05-10T15:22:45Z</time>
      </trkpt>
      <trkpt lat="45.98837" lon="5.61142">
        <ele>914.4</ele>
        <time>2026-05-10T15:22:46Z</time>
      </trkpt>
      <trkpt lat="45.98837" lon="5.61133">
        <ele>913.8</ele>
        <time>2026-05-10T15:22:47Z</time>
      </trkpt>
      <trkpt lat="45.98835" lon="5.61126">
        <ele>913.4</ele>
        <time>2026-05-10T15:22:48Z</time>
      </trkpt>
      <trkpt lat="45.98836" lon="5.61118">
        <ele>912.8</ele>
        <time>2026-05-10T15:22:49Z</time>
      </trkpt>
      <trkpt lat="45.98836" lon="5.61114">
        <ele>912.4</ele>
        <time>2026-05-10T15:22:50Z</time>
      </trkpt>
      <trkpt lat="45.98838" lon="5.61111">
        <ele>912</ele>
        <time>2026-05-10T15:22:51Z</time>
      </trkpt>
      <trkpt lat="45.98839" lon="5.61108">
        <ele>911.8</ele>
        <time>2026-05-10T15:22:52Z</time>
      </trkpt>
      <trkpt lat="45.9884" lon="5.61104">
        <ele>911.8</ele>
        <time>2026-05-10T15:22:53Z</time>
      </trkpt>
      <trkpt lat="45.9884" lon="5.61099">
        <ele>911.6</ele>
        <time>2026-05-10T15:22:54Z</time>
      </trkpt>
      <trkpt lat="45.98838" lon="5.61095">
        <ele>911.2</ele>
        <time>2026-05-10T15:22:55Z</time>
      </trkpt>
      <trkpt lat="45.98835" lon="5.61093">
        <ele>911.2</ele>
        <time>2026-05-10T15:22:56Z</time>
      </trkpt>
      <trkpt lat="45.98831" lon="5.61092">
        <ele>911.2</ele>
        <time>2026-05-10T15:22:57Z</time>
      </trkpt>
      <trkpt lat="45.98825" lon="5.61088">
        <ele>911</ele>
        <time>2026-05-10T15:22:58Z</time>
      </trkpt>
      <trkpt lat="45.98822" lon="5.61087">
        <ele>911</ele>
        <time>2026-05-10T15:22:59Z</time>
      </trkpt>
      <trkpt lat="45.98819" lon="5.61087">
        <ele>910.6</ele>
        <time>2026-05-10T15:23:00Z</time>
      </trkpt>
      <trkpt lat="45.98816" lon="5.61086">
        <ele>910.6</ele>
        <time>2026-05-10T15:23:01Z</time>
      </trkpt>
      <trkpt lat="45.98812" lon="5.61085">
        <ele>910.6</ele>
        <time>2026-05-10T15:23:02Z</time>
      </trkpt>
      <trkpt lat="45.98808" lon="5.61083">
        <ele>910.6</ele>
        <time>2026-05-10T15:23:03Z</time>
      </trkpt>
      <trkpt lat="45.98805" lon="5.61081">
        <ele>910.6</ele>
        <time>2026-05-10T15:23:04Z</time>
      </trkpt>
      <trkpt lat="45.98802" lon="5.6108">
        <ele>910.6</ele>
        <time>2026-05-10T15:23:05Z</time>
      </trkpt>
      <trkpt lat="45.98799" lon="5.61079">
        <ele>910.6</ele>
        <time>2026-05-10T15:23:06Z</time>
      </trkpt>
      <trkpt lat="45.98795" lon="5.6108">
        <ele>910.6</ele>
        <time>2026-05-10T15:23:07Z</time>
      </trkpt>
      <trkpt lat="45.98792" lon="5.61081">
        <ele>910.4</ele>
        <time>2026-05-10T15:23:08Z</time>
      </trkpt>
      <trkpt lat="45.98788" lon="5.61084">
        <ele>910</ele>
        <time>2026-05-10T15:23:09Z</time>
      </trkpt>
      <trkpt lat="45.98785" lon="5.61087">
        <ele>909.8</ele>
        <time>2026-05-10T15:23:10Z</time>
      </trkpt>
      <trkpt lat="45.98781" lon="5.6109">
        <ele>909.4</ele>
        <time>2026-05-10T15:23:11Z</time>
      </trkpt>
      <trkpt lat="45.98779" lon="5.61092">
        <ele>909.4</ele>
        <time>2026-05-10T15:23:12Z</time>
      </trkpt>
      <trkpt lat="45.98777" lon="5.61094">
        <ele>909</ele>
        <time>2026-05-10T15:23:13Z</time>
      </trkpt>
      <trkpt lat="45.98775" lon="5.61094">
        <ele>909</ele>
        <time>2026-05-10T15:23:14Z</time>
      </trkpt>
      <trkpt lat="45.98773" lon="5.61095">
        <ele>909</ele>
        <time>2026-05-10T15:23:15Z</time>
      </trkpt>
      <trkpt lat="45.98771" lon="5.61095">
        <ele>909</ele>
        <time>2026-05-10T15:23:16Z</time>
      </trkpt>
      <trkpt lat="45.98771" lon="5.61095">
        <ele>909</ele>
        <time>2026-05-10T15:23:17Z</time>
      </trkpt>
      <trkpt lat="45.98769" lon="5.61096">
        <ele>909</ele>
        <time>2026-05-10T15:23:18Z</time>
      </trkpt>
      <trkpt lat="45.98767" lon="5.61097">
        <ele>908.8</ele>
        <time>2026-05-10T15:23:19Z</time>
      </trkpt>
      <trkpt lat="45.98765" lon="5.61099">
        <ele>908.8</ele>
        <time>2026-05-10T15:23:20Z</time>
      </trkpt>
      <trkpt lat="45.98764" lon="5.611">
        <ele>908.6</ele>
        <time>2026-05-10T15:23:21Z</time>
      </trkpt>
      <trkpt lat="45.98763" lon="5.61101">
        <ele>908.2</ele>
        <time>2026-05-10T15:23:22Z</time>
      </trkpt>
      <trkpt lat="45.98761" lon="5.61102">
        <ele>908.6</ele>
        <time>2026-05-10T15:23:23Z</time>
      </trkpt>
      <trkpt lat="45.98759" lon="5.61102">
        <ele>908.6</ele>
        <time>2026-05-10T15:23:24Z</time>
      </trkpt>
      <trkpt lat="45.98758" lon="5.61103">
        <ele>908.6</ele>
        <time>2026-05-10T15:23:25Z</time>
      </trkpt>
      <trkpt lat="45.98757" lon="5.61104">
        <ele>908.6</ele>
        <time>2026-05-10T15:23:26Z</time>
      </trkpt>
      <trkpt lat="45.98755" lon="5.61104">
        <ele>908.6</ele>
        <time>2026-05-10T15:23:27Z</time>
      </trkpt>
      <trkpt lat="45.98754" lon="5.61105">
        <ele>908.6</ele>
        <time>2026-05-10T15:23:28Z</time>
      </trkpt>
      <trkpt lat="45.98752" lon="5.61104">
        <ele>908.6</ele>
        <time>2026-05-10T15:23:29Z</time>
      </trkpt>
      <trkpt lat="45.9875" lon="5.61104">
        <ele>907.6</ele>
        <time>2026-05-10T15:23:30Z</time>
      </trkpt>
      <trkpt lat="45.98747" lon="5.61104">
        <ele>908.4</ele>
        <time>2026-05-10T15:23:31Z</time>
      </trkpt>
      <trkpt lat="45.98745" lon="5.61104">
        <ele>908.4</ele>
        <time>2026-05-10T15:23:32Z</time>
      </trkpt>
      <trkpt lat="45.98743" lon="5.61104">
        <ele>908.4</ele>
        <time>2026-05-10T15:23:33Z</time>
      </trkpt>
      <trkpt lat="45.98741" lon="5.61104">
        <ele>908.2</ele>
        <time>2026-05-10T15:23:34Z</time>
      </trkpt>
      <trkpt lat="45.98739" lon="5.61104">
        <ele>908.2</ele>
        <time>2026-05-10T15:23:35Z</time>
      </trkpt>
      <trkpt lat="45.98737" lon="5.61104">
        <ele>908.2</ele>
        <time>2026-05-10T15:23:36Z</time>
      </trkpt>
      <trkpt lat="45.98735" lon="5.61104">
        <ele>908.2</ele>
        <time>2026-05-10T15:23:37Z</time>
      </trkpt>
      <trkpt lat="45.98733" lon="5.61105">
        <ele>908.2</ele>
        <time>2026-05-10T15:23:38Z</time>
      </trkpt>
      <trkpt lat="45.98731" lon="5.61105">
        <ele>908.4</ele>
        <time>2026-05-10T15:23:39Z</time>
      </trkpt>
      <trkpt lat="45.9873" lon="5.61105">
        <ele>908.4</ele>
        <time>2026-05-10T15:23:40Z</time>
      </trkpt>
      <trkpt lat="45.98729" lon="5.61105">
        <ele>908.4</ele>
        <time>2026-05-10T15:23:41Z</time>
      </trkpt>
      <trkpt lat="45.98729" lon="5.61105">
        <ele>908.8</ele>
        <time>2026-05-10T15:23:42Z</time>
      </trkpt>
      <trkpt lat="45.98728" lon="5.61103">
        <ele>909.2</ele>
        <time>2026-05-10T15:25:46Z</time>
      </trkpt>
      <trkpt lat="45.98727" lon="5.61103">
        <ele>909.2</ele>
        <time>2026-05-10T15:25:47Z</time>
      </trkpt>
      <trkpt lat="45.98725" lon="5.61103">
        <ele>909.2</ele>
        <time>2026-05-10T15:25:48Z</time>
      </trkpt>
      <trkpt lat="45.98722" lon="5.61103">
        <ele>909.2</ele>
        <time>2026-05-10T15:25:49Z</time>
      </trkpt>
      <trkpt lat="45.98721" lon="5.61103">
        <ele>909</ele>
        <time>2026-05-10T15:25:50Z</time>
      </trkpt>
      <trkpt lat="45.98718" lon="5.61103">
        <ele>909</ele>
        <time>2026-05-10T15:25:51Z</time>
      </trkpt>
      <trkpt lat="45.98716" lon="5.61104">
        <ele>909</ele>
        <time>2026-05-10T15:25:52Z</time>
      </trkpt>
      <trkpt lat="45.98715" lon="5.61104">
        <ele>909</ele>
        <time>2026-05-10T15:25:53Z</time>
      </trkpt>
      <trkpt lat="45.98713" lon="5.61105">
        <ele>909</ele>
        <time>2026-05-10T15:25:54Z</time>
      </trkpt>
      <trkpt lat="45.98712" lon="5.61106">
        <ele>909.2</ele>
        <time>2026-05-10T15:25:55Z</time>
      </trkpt>
      <trkpt lat="45.98709" lon="5.61106">
        <ele>909.2</ele>
        <time>2026-05-10T15:25:56Z</time>
      </trkpt>
      <trkpt lat="45.98706" lon="5.61105">
        <ele>909.2</ele>
        <time>2026-05-10T15:25:57Z</time>
      </trkpt>
      <trkpt lat="45.98703" lon="5.61104">
        <ele>909.2</ele>
        <time>2026-05-10T15:25:58Z</time>
      </trkpt>
      <trkpt lat="45.987" lon="5.61104">
        <ele>909.2</ele>
        <time>2026-05-10T15:25:59Z</time>
      </trkpt>
      <trkpt lat="45.98697" lon="5.61103">
        <ele>909.2</ele>
        <time>2026-05-10T15:26:00Z</time>
      </trkpt>
      <trkpt lat="45.98694" lon="5.61103">
        <ele>909.2</ele>
        <time>2026-05-10T15:26:01Z</time>
      </trkpt>
      <trkpt lat="45.98691" lon="5.61103">
        <ele>909.2</ele>
        <time>2026-05-10T15:26:02Z</time>
      </trkpt>
      <trkpt lat="45.98688" lon="5.61102">
        <ele>909.2</ele>
        <time>2026-05-10T15:26:03Z</time>
      </trkpt>
      <trkpt lat="45.98685" lon="5.61103">
        <ele>909.2</ele>
        <time>2026-05-10T15:26:04Z</time>
      </trkpt>
      <trkpt lat="45.98682" lon="5.61103">
        <ele>909.2</ele>
        <time>2026-05-10T15:26:05Z</time>
      </trkpt>
      <trkpt lat="45.9868" lon="5.61104">
        <ele>909.6</ele>
        <time>2026-05-10T15:26:06Z</time>
      </trkpt>
      <trkpt lat="45.98677" lon="5.61105">
        <ele>909.6</ele>
        <time>2026-05-10T15:26:07Z</time>
      </trkpt>
      <trkpt lat="45.98674" lon="5.61106">
        <ele>910</ele>
        <time>2026-05-10T15:26:08Z</time>
      </trkpt>
      <trkpt lat="45.98671" lon="5.61108">
        <ele>910.4</ele>
        <time>2026-05-10T15:26:09Z</time>
      </trkpt>
      <trkpt lat="45.98669" lon="5.61108">
        <ele>910.4</ele>
        <time>2026-05-10T15:26:10Z</time>
      </trkpt>
      <trkpt lat="45.98666" lon="5.61107">
        <ele>910.6</ele>
        <time>2026-05-10T15:26:11Z</time>
      </trkpt>
      <trkpt lat="45.98664" lon="5.61106">
        <ele>910.8</ele>
        <time>2026-05-10T15:26:12Z</time>
      </trkpt>
      <trkpt lat="45.98662" lon="5.61106">
        <ele>910.8</ele>
        <time>2026-05-10T15:26:13Z</time>
      </trkpt>
      <trkpt lat="45.9866" lon="5.61105">
        <ele>910.8</ele>
        <time>2026-05-10T15:26:14Z</time>
      </trkpt>
      <trkpt lat="45.98657" lon="5.61105">
        <ele>910.8</ele>
        <time>2026-05-10T15:26:15Z</time>
      </trkpt>
      <trkpt lat="45.98654" lon="5.61104">
        <ele>910.8</ele>
        <time>2026-05-10T15:26:16Z</time>
      </trkpt>
      <trkpt lat="45.98652" lon="5.61102">
        <ele>910.8</ele>
        <time>2026-05-10T15:26:17Z</time>
      </trkpt>
      <trkpt lat="45.9865" lon="5.61099">
        <ele>910.8</ele>
        <time>2026-05-10T15:26:18Z</time>
      </trkpt>
      <trkpt lat="45.98647" lon="5.61096">
        <ele>910.8</ele>
        <time>2026-05-10T15:26:19Z</time>
      </trkpt>
      <trkpt lat="45.98645" lon="5.61092">
        <ele>910.8</ele>
        <time>2026-05-10T15:26:20Z</time>
      </trkpt>
      <trkpt lat="45.98643" lon="5.61088">
        <ele>910.2</ele>
        <time>2026-05-10T15:26:21Z</time>
      </trkpt>
      <trkpt lat="45.98642" lon="5.61083">
        <ele>910.2</ele>
        <time>2026-05-10T15:26:22Z</time>
      </trkpt>
      <trkpt lat="45.98641" lon="5.61077">
        <ele>909.8</ele>
        <time>2026-05-10T15:26:23Z</time>
      </trkpt>
      <trkpt lat="45.98639" lon="5.61072">
        <ele>909.8</ele>
        <time>2026-05-10T15:26:24Z</time>
      </trkpt>
      <trkpt lat="45.98638" lon="5.61066">
        <ele>909.6</ele>
        <time>2026-05-10T15:26:25Z</time>
      </trkpt>
      <trkpt lat="45.98637" lon="5.6106">
        <ele>909.6</ele>
        <time>2026-05-10T15:26:26Z</time>
      </trkpt>
      <trkpt lat="45.98637" lon="5.61054">
        <ele>909.6</ele>
        <time>2026-05-10T15:26:27Z</time>
      </trkpt>
      <trkpt lat="45.98636" lon="5.61048">
        <ele>909</ele>
        <time>2026-05-10T15:26:28Z</time>
      </trkpt>
      <trkpt lat="45.98636" lon="5.61043">
        <ele>908.4</ele>
        <time>2026-05-10T15:26:29Z</time>
      </trkpt>
      <trkpt lat="45.98636" lon="5.61038">
        <ele>908.4</ele>
        <time>2026-05-10T15:26:30Z</time>
      </trkpt>
      <trkpt lat="45.98637" lon="5.61033">
        <ele>908</ele>
        <time>2026-05-10T15:26:31Z</time>
      </trkpt>
      <trkpt lat="45.98638" lon="5.61027">
        <ele>907.8</ele>
        <time>2026-05-10T15:26:32Z</time>
      </trkpt>
      <trkpt lat="45.98639" lon="5.6102">
        <ele>907.6</ele>
        <time>2026-05-10T15:26:33Z</time>
      </trkpt>
      <trkpt lat="45.9864" lon="5.61013">
        <ele>907.2</ele>
        <time>2026-05-10T15:26:34Z</time>
      </trkpt>
      <trkpt lat="45.98641" lon="5.61007">
        <ele>906.8</ele>
        <time>2026-05-10T15:26:35Z</time>
      </trkpt>
      <trkpt lat="45.98642" lon="5.61001">
        <ele>906.4</ele>
        <time>2026-05-10T15:26:36Z</time>
      </trkpt>
      <trkpt lat="45.98643" lon="5.60993">
        <ele>905.8</ele>
        <time>2026-05-10T15:26:37Z</time>
      </trkpt>
      <trkpt lat="45.98644" lon="5.60986">
        <ele>905.4</ele>
        <time>2026-05-10T15:26:38Z</time>
      </trkpt>
      <trkpt lat="45.98645" lon="5.60981">
        <ele>905.2</ele>
        <time>2026-05-10T15:26:39Z</time>
      </trkpt>
      <trkpt lat="45.98645" lon="5.60975">
        <ele>905.2</ele>
        <time>2026-05-10T15:26:40Z</time>
      </trkpt>
      <trkpt lat="45.98646" lon="5.60971">
        <ele>905.2</ele>
        <time>2026-05-10T15:26:41Z</time>
      </trkpt>
      <trkpt lat="45.98647" lon="5.60966">
        <ele>904.8</ele>
        <time>2026-05-10T15:26:42Z</time>
      </trkpt>
      <trkpt lat="45.98649" lon="5.6096">
        <ele>904.4</ele>
        <time>2026-05-10T15:26:43Z</time>
      </trkpt>
      <trkpt lat="45.98649" lon="5.60954">
        <ele>904</ele>
        <time>2026-05-10T15:26:44Z</time>
      </trkpt>
      <trkpt lat="45.98649" lon="5.60951">
        <ele>903.8</ele>
        <time>2026-05-10T15:26:45Z</time>
      </trkpt>
      <trkpt lat="45.98649" lon="5.60949">
        <ele>903.8</ele>
        <time>2026-05-10T15:26:46Z</time>
      </trkpt>
      <trkpt lat="45.98649" lon="5.60947">
        <ele>903.2</ele>
        <time>2026-05-10T15:26:47Z</time>
      </trkpt>
      <trkpt lat="45.9865" lon="5.60946">
        <ele>904</ele>
        <time>2026-05-10T15:26:48Z</time>
      </trkpt>
      <trkpt lat="45.9865" lon="5.60945">
        <ele>904.4</ele>
        <time>2026-05-10T15:26:49Z</time>
      </trkpt>
      <trkpt lat="45.98651" lon="5.60943">
        <ele>904.4</ele>
        <time>2026-05-10T15:26:50Z</time>
      </trkpt>
      <trkpt lat="45.98654" lon="5.60941">
        <ele>904.4</ele>
        <time>2026-05-10T15:26:51Z</time>
      </trkpt>
      <trkpt lat="45.98656" lon="5.60939">
        <ele>904.2</ele>
        <time>2026-05-10T15:26:52Z</time>
      </trkpt>
      <trkpt lat="45.98659" lon="5.60935">
        <ele>904.2</ele>
        <time>2026-05-10T15:26:53Z</time>
      </trkpt>
      <trkpt lat="45.98662" lon="5.60931">
        <ele>903.8</ele>
        <time>2026-05-10T15:26:54Z</time>
      </trkpt>
      <trkpt lat="45.98665" lon="5.60927">
        <ele>903.6</ele>
        <time>2026-05-10T15:26:55Z</time>
      </trkpt>
      <trkpt lat="45.98668" lon="5.60923">
        <ele>903.2</ele>
        <time>2026-05-10T15:26:56Z</time>
      </trkpt>
      <trkpt lat="45.98672" lon="5.60917">
        <ele>902.8</ele>
        <time>2026-05-10T15:26:57Z</time>
      </trkpt>
      <trkpt lat="45.98677" lon="5.60913">
        <ele>902.4</ele>
        <time>2026-05-10T15:26:58Z</time>
      </trkpt>
      <trkpt lat="45.98683" lon="5.60913">
        <ele>902.2</ele>
        <time>2026-05-10T15:26:59Z</time>
      </trkpt>
      <trkpt lat="45.98688" lon="5.60914">
        <ele>901.6</ele>
        <time>2026-05-10T15:27:00Z</time>
      </trkpt>
      <trkpt lat="45.98693" lon="5.60915">
        <ele>900.8</ele>
        <time>2026-05-10T15:27:01Z</time>
      </trkpt>
      <trkpt lat="45.98697" lon="5.60918">
        <ele>900.6</ele>
        <time>2026-05-10T15:27:02Z</time>
      </trkpt>
      <trkpt lat="45.98701" lon="5.60921">
        <ele>900.2</ele>
        <time>2026-05-10T15:27:03Z</time>
      </trkpt>
      <trkpt lat="45.98705" lon="5.60924">
        <ele>900</ele>
        <time>2026-05-10T15:27:04Z</time>
      </trkpt>
      <trkpt lat="45.98708" lon="5.60927">
        <ele>899.2</ele>
        <time>2026-05-10T15:27:05Z</time>
      </trkpt>
      <trkpt lat="45.98712" lon="5.6093">
        <ele>899</ele>
        <time>2026-05-10T15:27:06Z</time>
      </trkpt>
      <trkpt lat="45.98717" lon="5.6093">
        <ele>899</ele>
        <time>2026-05-10T15:27:07Z</time>
      </trkpt>
      <trkpt lat="45.98722" lon="5.60927">
        <ele>899</ele>
        <time>2026-05-10T15:27:08Z</time>
      </trkpt>
      <trkpt lat="45.98726" lon="5.60925">
        <ele>898.6</ele>
        <time>2026-05-10T15:27:09Z</time>
      </trkpt>
      <trkpt lat="45.98727" lon="5.60916">
        <ele>898.6</ele>
        <time>2026-05-10T15:27:10Z</time>
      </trkpt>
      <trkpt lat="45.98728" lon="5.6091">
        <ele>898.4</ele>
        <time>2026-05-10T15:27:11Z</time>
      </trkpt>
      <trkpt lat="45.98729" lon="5.60903">
        <ele>897.8</ele>
        <time>2026-05-10T15:27:12Z</time>
      </trkpt>
      <trkpt lat="45.98727" lon="5.60895">
        <ele>897.4</ele>
        <time>2026-05-10T15:27:13Z</time>
      </trkpt>
      <trkpt lat="45.98727" lon="5.60888">
        <ele>897</ele>
        <time>2026-05-10T15:27:14Z</time>
      </trkpt>
      <trkpt lat="45.98727" lon="5.6088">
        <ele>896.8</ele>
        <time>2026-05-10T15:27:15Z</time>
      </trkpt>
      <trkpt lat="45.98723" lon="5.60877">
        <ele>896.2</ele>
        <time>2026-05-10T15:27:16Z</time>
      </trkpt>
      <trkpt lat="45.9872" lon="5.60871">
        <ele>895.8</ele>
        <time>2026-05-10T15:27:17Z</time>
      </trkpt>
      <trkpt lat="45.98717" lon="5.60868">
        <ele>895.6</ele>
        <time>2026-05-10T15:27:18Z</time>
      </trkpt>
      <trkpt lat="45.98714" lon="5.60865">
        <ele>895.6</ele>
        <time>2026-05-10T15:27:19Z</time>
      </trkpt>
      <trkpt lat="45.98711" lon="5.60862">
        <ele>895.6</ele>
        <time>2026-05-10T15:27:20Z</time>
      </trkpt>
      <trkpt lat="45.98708" lon="5.60858">
        <ele>895.4</ele>
        <time>2026-05-10T15:27:21Z</time>
      </trkpt>
      <trkpt lat="45.98705" lon="5.60855">
        <ele>895</ele>
        <time>2026-05-10T15:27:22Z</time>
      </trkpt>
      <trkpt lat="45.98703" lon="5.60853">
        <ele>894.8</ele>
        <time>2026-05-10T15:27:23Z</time>
      </trkpt>
      <trkpt lat="45.98701" lon="5.60849">
        <ele>894.4</ele>
        <time>2026-05-10T15:27:24Z</time>
      </trkpt>
      <trkpt lat="45.98696" lon="5.60847">
        <ele>894.4</ele>
        <time>2026-05-10T15:27:25Z</time>
      </trkpt>
      <trkpt lat="45.98693" lon="5.60845">
        <ele>894.4</ele>
        <time>2026-05-10T15:27:26Z</time>
      </trkpt>
      <trkpt lat="45.98691" lon="5.6084">
        <ele>894.2</ele>
        <time>2026-05-10T15:27:27Z</time>
      </trkpt>
      <trkpt lat="45.98689" lon="5.60835">
        <ele>894.2</ele>
        <time>2026-05-10T15:27:28Z</time>
      </trkpt>
      <trkpt lat="45.98687" lon="5.60829">
        <ele>893.8</ele>
        <time>2026-05-10T15:27:29Z</time>
      </trkpt>
      <trkpt lat="45.98686" lon="5.60824">
        <ele>893.8</ele>
        <time>2026-05-10T15:27:30Z</time>
      </trkpt>
      <trkpt lat="45.98685" lon="5.60819">
        <ele>893.8</ele>
        <time>2026-05-10T15:27:31Z</time>
      </trkpt>
      <trkpt lat="45.98685" lon="5.60813">
        <ele>893.8</ele>
        <time>2026-05-10T15:27:32Z</time>
      </trkpt>
      <trkpt lat="45.98685" lon="5.60809">
        <ele>893.6</ele>
        <time>2026-05-10T15:27:33Z</time>
      </trkpt>
      <trkpt lat="45.98685" lon="5.60804">
        <ele>893.8</ele>
        <time>2026-05-10T15:27:34Z</time>
      </trkpt>
      <trkpt lat="45.98686" lon="5.608">
        <ele>893.8</ele>
        <time>2026-05-10T15:27:35Z</time>
      </trkpt>
      <trkpt lat="45.98686" lon="5.60796">
        <ele>893.8</ele>
        <time>2026-05-10T15:27:36Z</time>
      </trkpt>
      <trkpt lat="45.98686" lon="5.60792">
        <ele>894</ele>
        <time>2026-05-10T15:27:37Z</time>
      </trkpt>
      <trkpt lat="45.98687" lon="5.60789">
        <ele>894</ele>
        <time>2026-05-10T15:27:38Z</time>
      </trkpt>
      <trkpt lat="45.98686" lon="5.60786">
        <ele>894.2</ele>
        <time>2026-05-10T15:27:39Z</time>
      </trkpt>
      <trkpt lat="45.98686" lon="5.60784">
        <ele>894.2</ele>
        <time>2026-05-10T15:27:40Z</time>
      </trkpt>
      <trkpt lat="45.98687" lon="5.60782">
        <ele>894.4</ele>
        <time>2026-05-10T15:27:41Z</time>
      </trkpt>
      <trkpt lat="45.98686" lon="5.60779">
        <ele>894.4</ele>
        <time>2026-05-10T15:27:42Z</time>
      </trkpt>
      <trkpt lat="45.98686" lon="5.60778">
        <ele>894.4</ele>
        <time>2026-05-10T15:27:43Z</time>
      </trkpt>
      <trkpt lat="45.98686" lon="5.60778">
        <ele>894.2</ele>
        <time>2026-05-10T15:27:44Z</time>
      </trkpt>
      <trkpt lat="45.98686" lon="5.60778">
        <ele>894.2</ele>
        <time>2026-05-10T15:27:45Z</time>
      </trkpt>
      <trkpt lat="45.98685" lon="5.60778">
        <ele>894.2</ele>
        <time>2026-05-10T15:27:46Z</time>
      </trkpt>
      <trkpt lat="45.98685" lon="5.60778">
        <ele>894.2</ele>
        <time>2026-05-10T15:27:47Z</time>
      </trkpt>
      <trkpt lat="45.98684" lon="5.60779">
        <ele>894.2</ele>
        <time>2026-05-10T15:27:48Z</time>
      </trkpt>
      <trkpt lat="45.98684" lon="5.60781">
        <ele>894</ele>
        <time>2026-05-10T15:27:49Z</time>
      </trkpt>
      <trkpt lat="45.98684" lon="5.60784">
        <ele>894</ele>
        <time>2026-05-10T15:27:50Z</time>
      </trkpt>
      <trkpt lat="45.98684" lon="5.60787">
        <ele>894</ele>
        <time>2026-05-10T15:27:51Z</time>
      </trkpt>
      <trkpt lat="45.98686" lon="5.60791">
        <ele>894</ele>
        <time>2026-05-10T15:27:52Z</time>
      </trkpt>
      <trkpt lat="45.98687" lon="5.60795">
        <ele>893.6</ele>
        <time>2026-05-10T15:27:53Z</time>
      </trkpt>
      <trkpt lat="45.98688" lon="5.60798">
        <ele>893.6</ele>
        <time>2026-05-10T15:27:54Z</time>
      </trkpt>
      <trkpt lat="45.98688" lon="5.60802">
        <ele>893.6</ele>
        <time>2026-05-10T15:27:55Z</time>
      </trkpt>
      <trkpt lat="45.98689" lon="5.60806">
        <ele>893.6</ele>
        <time>2026-05-10T15:27:56Z</time>
      </trkpt>
      <trkpt lat="45.98689" lon="5.60809">
        <ele>893.6</ele>
        <time>2026-05-10T15:27:57Z</time>
      </trkpt>
      <trkpt lat="45.98688" lon="5.60813">
        <ele>893.6</ele>
        <time>2026-05-10T15:27:58Z</time>
      </trkpt>
      <trkpt lat="45.98688" lon="5.60816">
        <ele>893.6</ele>
        <time>2026-05-10T15:27:59Z</time>
      </trkpt>
      <trkpt lat="45.98687" lon="5.60819">
        <ele>893.6</ele>
        <time>2026-05-10T15:28:00Z</time>
      </trkpt>
      <trkpt lat="45.98685" lon="5.6082">
        <ele>893.8</ele>
        <time>2026-05-10T15:28:01Z</time>
      </trkpt>
      <trkpt lat="45.98684" lon="5.6082">
        <ele>893.8</ele>
        <time>2026-05-10T15:28:02Z</time>
      </trkpt>
      <trkpt lat="45.98682" lon="5.6082">
        <ele>893.6</ele>
        <time>2026-05-10T15:28:03Z</time>
      </trkpt>
      <trkpt lat="45.9868" lon="5.60819">
        <ele>893.2</ele>
        <time>2026-05-10T15:28:04Z</time>
      </trkpt>
      <trkpt lat="45.98678" lon="5.60817">
        <ele>893.2</ele>
        <time>2026-05-10T15:28:05Z</time>
      </trkpt>
      <trkpt lat="45.98675" lon="5.60815">
        <ele>893</ele>
        <time>2026-05-10T15:28:06Z</time>
      </trkpt>
      <trkpt lat="45.98672" lon="5.60814">
        <ele>893</ele>
        <time>2026-05-10T15:28:07Z</time>
      </trkpt>
      <trkpt lat="45.98669" lon="5.60814">
        <ele>892.6</ele>
        <time>2026-05-10T15:28:08Z</time>
      </trkpt>
      <trkpt lat="45.98663" lon="5.60815">
        <ele>892</ele>
        <time>2026-05-10T15:28:09Z</time>
      </trkpt>
      <trkpt lat="45.98659" lon="5.60813">
        <ele>892</ele>
        <time>2026-05-10T15:28:10Z</time>
      </trkpt>
      <trkpt lat="45.98657" lon="5.60814">
        <ele>891.2</ele>
        <time>2026-05-10T15:28:11Z</time>
      </trkpt>
      <trkpt lat="45.98652" lon="5.60814">
        <ele>891.6</ele>
        <time>2026-05-10T15:28:12Z</time>
      </trkpt>
      <trkpt lat="45.98648" lon="5.6081">
        <ele>890.6</ele>
        <time>2026-05-10T15:28:13Z</time>
      </trkpt>
      <trkpt lat="45.98643" lon="5.60809">
        <ele>890.4</ele>
        <time>2026-05-10T15:28:14Z</time>
      </trkpt>
      <trkpt lat="45.98638" lon="5.60807">
        <ele>889.6</ele>
        <time>2026-05-10T15:28:15Z</time>
      </trkpt>
      <trkpt lat="45.98634" lon="5.60807">
        <ele>889.2</ele>
        <time>2026-05-10T15:28:16Z</time>
      </trkpt>
      <trkpt lat="45.98628" lon="5.60809">
        <ele>888.4</ele>
        <time>2026-05-10T15:28:17Z</time>
      </trkpt>
      <trkpt lat="45.98624" lon="5.60807">
        <ele>887.8</ele>
        <time>2026-05-10T15:28:18Z</time>
      </trkpt>
      <trkpt lat="45.98619" lon="5.60803">
        <ele>887.6</ele>
        <time>2026-05-10T15:28:19Z</time>
      </trkpt>
      <trkpt lat="45.98616" lon="5.60802">
        <ele>886.2</ele>
        <time>2026-05-10T15:28:20Z</time>
      </trkpt>
      <trkpt lat="45.98612" lon="5.60801">
        <ele>886.2</ele>
        <time>2026-05-10T15:28:21Z</time>
      </trkpt>
      <trkpt lat="45.98607" lon="5.60798">
        <ele>886.2</ele>
        <time>2026-05-10T15:28:22Z</time>
      </trkpt>
      <trkpt lat="45.98603" lon="5.60796">
        <ele>886.2</ele>
        <time>2026-05-10T15:28:23Z</time>
      </trkpt>
      <trkpt lat="45.98598" lon="5.60794">
        <ele>885.8</ele>
        <time>2026-05-10T15:28:24Z</time>
      </trkpt>
      <trkpt lat="45.98593" lon="5.60792">
        <ele>884.4</ele>
        <time>2026-05-10T15:28:25Z</time>
      </trkpt>
      <trkpt lat="45.98589" lon="5.6079">
        <ele>884.8</ele>
        <time>2026-05-10T15:28:26Z</time>
      </trkpt>
      <trkpt lat="45.98585" lon="5.60792">
        <ele>884.2</ele>
        <time>2026-05-10T15:28:27Z</time>
      </trkpt>
      <trkpt lat="45.9858" lon="5.60789">
        <ele>883.8</ele>
        <time>2026-05-10T15:28:28Z</time>
      </trkpt>
      <trkpt lat="45.98577" lon="5.60787">
        <ele>883.8</ele>
        <time>2026-05-10T15:28:29Z</time>
      </trkpt>
      <trkpt lat="45.98573" lon="5.60786">
        <ele>883.6</ele>
        <time>2026-05-10T15:28:30Z</time>
      </trkpt>
      <trkpt lat="45.98569" lon="5.60783">
        <ele>883.2</ele>
        <time>2026-05-10T15:28:31Z</time>
      </trkpt>
      <trkpt lat="45.98566" lon="5.60784">
        <ele>883</ele>
        <time>2026-05-10T15:28:32Z</time>
      </trkpt>
      <trkpt lat="45.98564" lon="5.60783">
        <ele>882.4</ele>
        <time>2026-05-10T15:28:33Z</time>
      </trkpt>
      <trkpt lat="45.98561" lon="5.60785">
        <ele>881.6</ele>
        <time>2026-05-10T15:28:34Z</time>
      </trkpt>
      <trkpt lat="45.98558" lon="5.60784">
        <ele>881</ele>
        <time>2026-05-10T15:28:35Z</time>
      </trkpt>
      <trkpt lat="45.98553" lon="5.60783">
        <ele>880.4</ele>
        <time>2026-05-10T15:28:36Z</time>
      </trkpt>
      <trkpt lat="45.98548" lon="5.60782">
        <ele>880.4</ele>
        <time>2026-05-10T15:28:37Z</time>
      </trkpt>
      <trkpt lat="45.98542" lon="5.60777">
        <ele>879.4</ele>
        <time>2026-05-10T15:28:38Z</time>
      </trkpt>
      <trkpt lat="45.98537" lon="5.60776">
        <ele>879.4</ele>
        <time>2026-05-10T15:28:39Z</time>
      </trkpt>
      <trkpt lat="45.98533" lon="5.60773">
        <ele>878.8</ele>
        <time>2026-05-10T15:28:40Z</time>
      </trkpt>
      <trkpt lat="45.98527" lon="5.60768">
        <ele>878.8</ele>
        <time>2026-05-10T15:28:41Z</time>
      </trkpt>
      <trkpt lat="45.98521" lon="5.60768">
        <ele>877.6</ele>
        <time>2026-05-10T15:28:42Z</time>
      </trkpt>
      <trkpt lat="45.98517" lon="5.6077">
        <ele>877</ele>
        <time>2026-05-10T15:28:43Z</time>
      </trkpt>
      <trkpt lat="45.98513" lon="5.60771">
        <ele>877</ele>
        <time>2026-05-10T15:28:44Z</time>
      </trkpt>
      <trkpt lat="45.98509" lon="5.60773">
        <ele>877</ele>
        <time>2026-05-10T15:28:45Z</time>
      </trkpt>
      <trkpt lat="45.98505" lon="5.6077">
        <ele>876.6</ele>
        <time>2026-05-10T15:28:46Z</time>
      </trkpt>
      <trkpt lat="45.98501" lon="5.60768">
        <ele>876.6</ele>
        <time>2026-05-10T15:28:47Z</time>
      </trkpt>
      <trkpt lat="45.98495" lon="5.60765">
        <ele>875.8</ele>
        <time>2026-05-10T15:28:48Z</time>
      </trkpt>
      <trkpt lat="45.9849" lon="5.60762">
        <ele>875.4</ele>
        <time>2026-05-10T15:28:49Z</time>
      </trkpt>
      <trkpt lat="45.98484" lon="5.60758">
        <ele>875</ele>
        <time>2026-05-10T15:28:50Z</time>
      </trkpt>
      <trkpt lat="45.98478" lon="5.60755">
        <ele>874.6</ele>
        <time>2026-05-10T15:28:51Z</time>
      </trkpt>
      <trkpt lat="45.98471" lon="5.60751">
        <ele>874.2</ele>
        <time>2026-05-10T15:28:52Z</time>
      </trkpt>
      <trkpt lat="45.98466" lon="5.60745">
        <ele>873.4</ele>
        <time>2026-05-10T15:28:53Z</time>
      </trkpt>
      <trkpt lat="45.9846" lon="5.60739">
        <ele>872.4</ele>
        <time>2026-05-10T15:28:54Z</time>
      </trkpt>
      <trkpt lat="45.98455" lon="5.60731">
        <ele>871.8</ele>
        <time>2026-05-10T15:28:55Z</time>
      </trkpt>
      <trkpt lat="45.9845" lon="5.60725">
        <ele>871.2</ele>
        <time>2026-05-10T15:28:56Z</time>
      </trkpt>
      <trkpt lat="45.98445" lon="5.60715">
        <ele>870.4</ele>
        <time>2026-05-10T15:28:57Z</time>
      </trkpt>
      <trkpt lat="45.98441" lon="5.60706">
        <ele>869.6</ele>
        <time>2026-05-10T15:28:58Z</time>
      </trkpt>
      <trkpt lat="45.98437" lon="5.60696">
        <ele>868.6</ele>
        <time>2026-05-10T15:28:59Z</time>
      </trkpt>
      <trkpt lat="45.98437" lon="5.60696">
        <ele>868</ele>
        <time>2026-05-10T15:29:00Z</time>
      </trkpt>
      <trkpt lat="45.98434" lon="5.60689">
        <ele>867.4</ele>
        <time>2026-05-10T15:29:01Z</time>
      </trkpt>
      <trkpt lat="45.9843" lon="5.6068">
        <ele>866.6</ele>
        <time>2026-05-10T15:29:02Z</time>
      </trkpt>
      <trkpt lat="45.98429" lon="5.60669">
        <ele>865.8</ele>
        <time>2026-05-10T15:29:03Z</time>
      </trkpt>
      <trkpt lat="45.98424" lon="5.60661">
        <ele>865</ele>
        <time>2026-05-10T15:29:04Z</time>
      </trkpt>
      <trkpt lat="45.98423" lon="5.6065">
        <ele>864.4</ele>
        <time>2026-05-10T15:29:05Z</time>
      </trkpt>
      <trkpt lat="45.9842" lon="5.6064">
        <ele>863.8</ele>
        <time>2026-05-10T15:29:06Z</time>
      </trkpt>
      <trkpt lat="45.98414" lon="5.60632">
        <ele>863.4</ele>
        <time>2026-05-10T15:29:07Z</time>
      </trkpt>
      <trkpt lat="45.98408" lon="5.60622">
        <ele>862.6</ele>
        <time>2026-05-10T15:29:08Z</time>
      </trkpt>
      <trkpt lat="45.98401" lon="5.60614">
        <ele>862</ele>
        <time>2026-05-10T15:29:09Z</time>
      </trkpt>
      <trkpt lat="45.98393" lon="5.60606">
        <ele>861.4</ele>
        <time>2026-05-10T15:29:10Z</time>
      </trkpt>
      <trkpt lat="45.98386" lon="5.60597">
        <ele>860.4</ele>
        <time>2026-05-10T15:29:11Z</time>
      </trkpt>
      <trkpt lat="45.98378" lon="5.60588">
        <ele>859.4</ele>
        <time>2026-05-10T15:29:12Z</time>
      </trkpt>
      <trkpt lat="45.9837" lon="5.60579">
        <ele>858.6</ele>
        <time>2026-05-10T15:29:13Z</time>
      </trkpt>
      <trkpt lat="45.98362" lon="5.60574">
        <ele>857.8</ele>
        <time>2026-05-10T15:29:14Z</time>
      </trkpt>
      <trkpt lat="45.98354" lon="5.60569">
        <ele>857.2</ele>
        <time>2026-05-10T15:29:15Z</time>
      </trkpt>
      <trkpt lat="45.98345" lon="5.60568">
        <ele>856.6</ele>
        <time>2026-05-10T15:29:16Z</time>
      </trkpt>
      <trkpt lat="45.98335" lon="5.60568">
        <ele>855.6</ele>
        <time>2026-05-10T15:29:17Z</time>
      </trkpt>
      <trkpt lat="45.98327" lon="5.6057">
        <ele>854.6</ele>
        <time>2026-05-10T15:29:18Z</time>
      </trkpt>
      <trkpt lat="45.98317" lon="5.60572">
        <ele>854</ele>
        <time>2026-05-10T15:29:19Z</time>
      </trkpt>
      <trkpt lat="45.98309" lon="5.60572">
        <ele>853.2</ele>
        <time>2026-05-10T15:29:20Z</time>
      </trkpt>
      <trkpt lat="45.98301" lon="5.60573">
        <ele>852.2</ele>
        <time>2026-05-10T15:29:21Z</time>
      </trkpt>
      <trkpt lat="45.98291" lon="5.60573">
        <ele>851.4</ele>
        <time>2026-05-10T15:29:22Z</time>
      </trkpt>
      <trkpt lat="45.98282" lon="5.6057">
        <ele>850.8</ele>
        <time>2026-05-10T15:29:23Z</time>
      </trkpt>
      <trkpt lat="45.98272" lon="5.60567">
        <ele>850</ele>
        <time>2026-05-10T15:29:24Z</time>
      </trkpt>
      <trkpt lat="45.98263" lon="5.60565">
        <ele>849.4</ele>
        <time>2026-05-10T15:29:25Z</time>
      </trkpt>
      <trkpt lat="45.98253" lon="5.60563">
        <ele>849.2</ele>
        <time>2026-05-10T15:29:26Z</time>
      </trkpt>
      <trkpt lat="45.98244" lon="5.60563">
        <ele>848.6</ele>
        <time>2026-05-10T15:29:27Z</time>
      </trkpt>
      <trkpt lat="45.98236" lon="5.60564">
        <ele>848.2</ele>
        <time>2026-05-10T15:29:28Z</time>
      </trkpt>
      <trkpt lat="45.98226" lon="5.60565">
        <ele>847.6</ele>
        <time>2026-05-10T15:29:29Z</time>
      </trkpt>
      <trkpt lat="45.98218" lon="5.60568">
        <ele>847.2</ele>
        <time>2026-05-10T15:29:30Z</time>
      </trkpt>
      <trkpt lat="45.9821" lon="5.60571">
        <ele>846.8</ele>
        <time>2026-05-10T15:29:31Z</time>
      </trkpt>
      <trkpt lat="45.98201" lon="5.60573">
        <ele>846.8</ele>
        <time>2026-05-10T15:29:32Z</time>
      </trkpt>
      <trkpt lat="45.98193" lon="5.60577">
        <ele>846.2</ele>
        <time>2026-05-10T15:29:33Z</time>
      </trkpt>
      <trkpt lat="45.98186" lon="5.60579">
        <ele>846</ele>
        <time>2026-05-10T15:29:34Z</time>
      </trkpt>
      <trkpt lat="45.98179" lon="5.60583">
        <ele>845.2</ele>
        <time>2026-05-10T15:29:35Z</time>
      </trkpt>
      <trkpt lat="45.98172" lon="5.60585">
        <ele>845</ele>
        <time>2026-05-10T15:29:36Z</time>
      </trkpt>
      <trkpt lat="45.98166" lon="5.60587">
        <ele>844.4</ele>
        <time>2026-05-10T15:29:37Z</time>
      </trkpt>
      <trkpt lat="45.98161" lon="5.6059">
        <ele>844.4</ele>
        <time>2026-05-10T15:29:38Z</time>
      </trkpt>
      <trkpt lat="45.98158" lon="5.6059">
        <ele>844.8</ele>
        <time>2026-05-10T15:29:39Z</time>
      </trkpt>
      <trkpt lat="45.98156" lon="5.60589">
        <ele>845.2</ele>
        <time>2026-05-10T15:29:40Z</time>
      </trkpt>
      <trkpt lat="45.98153" lon="5.6059">
        <ele>845.4</ele>
        <time>2026-05-10T15:29:41Z</time>
      </trkpt>
      <trkpt lat="45.98154" lon="5.6059">
        <ele>845.8</ele>
        <time>2026-05-10T15:29:42Z</time>
      </trkpt>
      <trkpt lat="45.98154" lon="5.6059">
        <ele>846.2</ele>
        <time>2026-05-10T15:29:43Z</time>
      </trkpt>
      <trkpt lat="45.98151" lon="5.6059">
        <ele>846.8</ele>
        <time>2026-05-10T15:29:56Z</time>
      </trkpt>
      <trkpt lat="45.98151" lon="5.60591">
        <ele>846.8</ele>
        <time>2026-05-10T15:29:57Z</time>
      </trkpt>
      <trkpt lat="45.9815" lon="5.60592">
        <ele>846.6</ele>
        <time>2026-05-10T15:29:58Z</time>
      </trkpt>
      <trkpt lat="45.98148" lon="5.60592">
        <ele>846.6</ele>
        <time>2026-05-10T15:29:59Z</time>
      </trkpt>
      <trkpt lat="45.98146" lon="5.60592">
        <ele>846.6</ele>
        <time>2026-05-10T15:30:00Z</time>
      </trkpt>
      <trkpt lat="45.98144" lon="5.60591">
        <ele>846.6</ele>
        <time>2026-05-10T15:30:01Z</time>
      </trkpt>
      <trkpt lat="45.98142" lon="5.60591">
        <ele>846.6</ele>
        <time>2026-05-10T15:30:02Z</time>
      </trkpt>
      <trkpt lat="45.9814" lon="5.60592">
        <ele>846.6</ele>
        <time>2026-05-10T15:30:03Z</time>
      </trkpt>
      <trkpt lat="45.98138" lon="5.60594">
        <ele>846.6</ele>
        <time>2026-05-10T15:30:04Z</time>
      </trkpt>
      <trkpt lat="45.98136" lon="5.60595">
        <ele>846.6</ele>
        <time>2026-05-10T15:30:05Z</time>
      </trkpt>
      <trkpt lat="45.98134" lon="5.60597">
        <ele>846.6</ele>
        <time>2026-05-10T15:30:06Z</time>
      </trkpt>
      <trkpt lat="45.98132" lon="5.60598">
        <ele>846.8</ele>
        <time>2026-05-10T15:30:07Z</time>
      </trkpt>
      <trkpt lat="45.9813" lon="5.606">
        <ele>846.8</ele>
        <time>2026-05-10T15:30:08Z</time>
      </trkpt>
      <trkpt lat="45.98127" lon="5.60602">
        <ele>847</ele>
        <time>2026-05-10T15:30:09Z</time>
      </trkpt>
      <trkpt lat="45.98125" lon="5.60604">
        <ele>847</ele>
        <time>2026-05-10T15:30:10Z</time>
      </trkpt>
      <trkpt lat="45.98123" lon="5.60606">
        <ele>847</ele>
        <time>2026-05-10T15:30:11Z</time>
      </trkpt>
      <trkpt lat="45.9812" lon="5.60607">
        <ele>847.4</ele>
        <time>2026-05-10T15:30:12Z</time>
      </trkpt>
      <trkpt lat="45.98117" lon="5.60608">
        <ele>847.4</ele>
        <time>2026-05-10T15:30:13Z</time>
      </trkpt>
      <trkpt lat="45.98114" lon="5.60608">
        <ele>847.6</ele>
        <time>2026-05-10T15:30:14Z</time>
      </trkpt>
      <trkpt lat="45.98112" lon="5.60608">
        <ele>847.6</ele>
        <time>2026-05-10T15:30:15Z</time>
      </trkpt>
      <trkpt lat="45.98109" lon="5.60608">
        <ele>847.6</ele>
        <time>2026-05-10T15:30:16Z</time>
      </trkpt>
      <trkpt lat="45.98106" lon="5.60607">
        <ele>847.6</ele>
        <time>2026-05-10T15:30:17Z</time>
      </trkpt>
      <trkpt lat="45.98103" lon="5.60606">
        <ele>847.6</ele>
        <time>2026-05-10T15:30:18Z</time>
      </trkpt>
      <trkpt lat="45.981" lon="5.60605">
        <ele>847.6</ele>
        <time>2026-05-10T15:30:19Z</time>
      </trkpt>
      <trkpt lat="45.98098" lon="5.60604">
        <ele>847.6</ele>
        <time>2026-05-10T15:30:20Z</time>
      </trkpt>
      <trkpt lat="45.98095" lon="5.60603">
        <ele>847.6</ele>
        <time>2026-05-10T15:30:21Z</time>
      </trkpt>
      <trkpt lat="45.98092" lon="5.60602">
        <ele>847.8</ele>
        <time>2026-05-10T15:30:22Z</time>
      </trkpt>
      <trkpt lat="45.9809" lon="5.606">
        <ele>847.8</ele>
        <time>2026-05-10T15:30:23Z</time>
      </trkpt>
      <trkpt lat="45.98088" lon="5.60599">
        <ele>848.2</ele>
        <time>2026-05-10T15:30:24Z</time>
      </trkpt>
      <trkpt lat="45.98085" lon="5.60598">
        <ele>848.2</ele>
        <time>2026-05-10T15:30:25Z</time>
      </trkpt>
      <trkpt lat="45.98083" lon="5.60597">
        <ele>848.2</ele>
        <time>2026-05-10T15:30:26Z</time>
      </trkpt>
      <trkpt lat="45.98081" lon="5.60595">
        <ele>848.6</ele>
        <time>2026-05-10T15:30:27Z</time>
      </trkpt>
      <trkpt lat="45.98079" lon="5.60594">
        <ele>849</ele>
        <time>2026-05-10T15:30:28Z</time>
      </trkpt>
      <trkpt lat="45.98076" lon="5.60593">
        <ele>849</ele>
        <time>2026-05-10T15:30:29Z</time>
      </trkpt>
      <trkpt lat="45.98074" lon="5.60591">
        <ele>849</ele>
        <time>2026-05-10T15:30:30Z</time>
      </trkpt>
      <trkpt lat="45.98072" lon="5.6059">
        <ele>849</ele>
        <time>2026-05-10T15:30:31Z</time>
      </trkpt>
      <trkpt lat="45.9807" lon="5.60589">
        <ele>849</ele>
        <time>2026-05-10T15:30:32Z</time>
      </trkpt>
      <trkpt lat="45.98068" lon="5.60587">
        <ele>849.2</ele>
        <time>2026-05-10T15:30:33Z</time>
      </trkpt>
      <trkpt lat="45.98065" lon="5.60586">
        <ele>849.2</ele>
        <time>2026-05-10T15:30:34Z</time>
      </trkpt>
      <trkpt lat="45.98063" lon="5.60585">
        <ele>849.6</ele>
        <time>2026-05-10T15:30:35Z</time>
      </trkpt>
      <trkpt lat="45.9806" lon="5.60584">
        <ele>849.8</ele>
        <time>2026-05-10T15:30:36Z</time>
      </trkpt>
      <trkpt lat="45.98058" lon="5.60583">
        <ele>850</ele>
        <time>2026-05-10T15:30:37Z</time>
      </trkpt>
      <trkpt lat="45.98055" lon="5.60582">
        <ele>850</ele>
        <time>2026-05-10T15:30:38Z</time>
      </trkpt>
      <trkpt lat="45.98053" lon="5.60581">
        <ele>850.4</ele>
        <time>2026-05-10T15:30:39Z</time>
      </trkpt>
      <trkpt lat="45.98051" lon="5.60579">
        <ele>850.8</ele>
        <time>2026-05-10T15:30:40Z</time>
      </trkpt>
      <trkpt lat="45.98049" lon="5.60577">
        <ele>850.8</ele>
        <time>2026-05-10T15:30:41Z</time>
      </trkpt>
      <trkpt lat="45.98046" lon="5.60576">
        <ele>850.8</ele>
        <time>2026-05-10T15:30:42Z</time>
      </trkpt>
      <trkpt lat="45.98044" lon="5.60575">
        <ele>850.8</ele>
        <time>2026-05-10T15:30:43Z</time>
      </trkpt>
      <trkpt lat="45.98041" lon="5.60574">
        <ele>850.8</ele>
        <time>2026-05-10T15:30:44Z</time>
      </trkpt>
      <trkpt lat="45.98038" lon="5.60573">
        <ele>850.8</ele>
        <time>2026-05-10T15:30:45Z</time>
      </trkpt>
      <trkpt lat="45.98036" lon="5.60571">
        <ele>850.8</ele>
        <time>2026-05-10T15:30:46Z</time>
      </trkpt>
      <trkpt lat="45.98033" lon="5.60569">
        <ele>850.8</ele>
        <time>2026-05-10T15:30:47Z</time>
      </trkpt>
      <trkpt lat="45.9803" lon="5.60567">
        <ele>850.8</ele>
        <time>2026-05-10T15:30:48Z</time>
      </trkpt>
      <trkpt lat="45.98028" lon="5.60565">
        <ele>850.8</ele>
        <time>2026-05-10T15:30:49Z</time>
      </trkpt>
      <trkpt lat="45.98025" lon="5.60564">
        <ele>851</ele>
        <time>2026-05-10T15:30:50Z</time>
      </trkpt>
      <trkpt lat="45.98022" lon="5.60562">
        <ele>851</ele>
        <time>2026-05-10T15:30:51Z</time>
      </trkpt>
      <trkpt lat="45.9802" lon="5.6056">
        <ele>851.2</ele>
        <time>2026-05-10T15:30:52Z</time>
      </trkpt>
      <trkpt lat="45.98017" lon="5.60559">
        <ele>851.2</ele>
        <time>2026-05-10T15:30:53Z</time>
      </trkpt>
      <trkpt lat="45.98015" lon="5.60558">
        <ele>851.2</ele>
        <time>2026-05-10T15:30:54Z</time>
      </trkpt>
      <trkpt lat="45.98012" lon="5.60556">
        <ele>851.2</ele>
        <time>2026-05-10T15:30:55Z</time>
      </trkpt>
      <trkpt lat="45.98009" lon="5.60554">
        <ele>851.2</ele>
        <time>2026-05-10T15:30:56Z</time>
      </trkpt>
      <trkpt lat="45.98005" lon="5.60553">
        <ele>851.2</ele>
        <time>2026-05-10T15:30:57Z</time>
      </trkpt>
      <trkpt lat="45.98002" lon="5.60551">
        <ele>851.2</ele>
        <time>2026-05-10T15:30:58Z</time>
      </trkpt>
      <trkpt lat="45.97999" lon="5.6055">
        <ele>851.2</ele>
        <time>2026-05-10T15:30:59Z</time>
      </trkpt>
      <trkpt lat="45.97996" lon="5.60548">
        <ele>851.6</ele>
        <time>2026-05-10T15:31:00Z</time>
      </trkpt>
      <trkpt lat="45.97993" lon="5.60546">
        <ele>851.6</ele>
        <time>2026-05-10T15:31:01Z</time>
      </trkpt>
      <trkpt lat="45.9799" lon="5.60544">
        <ele>851.6</ele>
        <time>2026-05-10T15:31:02Z</time>
      </trkpt>
      <trkpt lat="45.97987" lon="5.60542">
        <ele>851.6</ele>
        <time>2026-05-10T15:31:03Z</time>
      </trkpt>
      <trkpt lat="45.97984" lon="5.60541">
        <ele>851.8</ele>
        <time>2026-05-10T15:31:04Z</time>
      </trkpt>
      <trkpt lat="45.97981" lon="5.60539">
        <ele>851.8</ele>
        <time>2026-05-10T15:31:05Z</time>
      </trkpt>
      <trkpt lat="45.97978" lon="5.60537">
        <ele>851.8</ele>
        <time>2026-05-10T15:31:06Z</time>
      </trkpt>
      <trkpt lat="45.97975" lon="5.60535">
        <ele>852.2</ele>
        <time>2026-05-10T15:31:07Z</time>
      </trkpt>
      <trkpt lat="45.97972" lon="5.60533">
        <ele>852.2</ele>
        <time>2026-05-10T15:31:08Z</time>
      </trkpt>
      <trkpt lat="45.9797" lon="5.60531">
        <ele>852.2</ele>
        <time>2026-05-10T15:31:09Z</time>
      </trkpt>
      <trkpt lat="45.97967" lon="5.60529">
        <ele>852.2</ele>
        <time>2026-05-10T15:31:10Z</time>
      </trkpt>
      <trkpt lat="45.97961" lon="5.60526">
        <ele>852.2</ele>
        <time>2026-05-10T15:31:11Z</time>
      </trkpt>
      <trkpt lat="45.97958" lon="5.60524">
        <ele>852.2</ele>
        <time>2026-05-10T15:31:12Z</time>
      </trkpt>
      <trkpt lat="45.97955" lon="5.60522">
        <ele>852.2</ele>
        <time>2026-05-10T15:31:13Z</time>
      </trkpt>
      <trkpt lat="45.97952" lon="5.6052">
        <ele>852.2</ele>
        <time>2026-05-10T15:31:14Z</time>
      </trkpt>
      <trkpt lat="45.97949" lon="5.60517">
        <ele>852.2</ele>
        <time>2026-05-10T15:31:15Z</time>
      </trkpt>
      <trkpt lat="45.97949" lon="5.60517">
        <ele>851.8</ele>
        <time>2026-05-10T15:31:16Z</time>
      </trkpt>
      <trkpt lat="45.97946" lon="5.60515">
        <ele>851.8</ele>
        <time>2026-05-10T15:31:17Z</time>
      </trkpt>
      <trkpt lat="45.97942" lon="5.60513">
        <ele>851.8</ele>
        <time>2026-05-10T15:31:18Z</time>
      </trkpt>
      <trkpt lat="45.97938" lon="5.6051">
        <ele>851.4</ele>
        <time>2026-05-10T15:31:19Z</time>
      </trkpt>
      <trkpt lat="45.97934" lon="5.60507">
        <ele>851.2</ele>
        <time>2026-05-10T15:31:20Z</time>
      </trkpt>
      <trkpt lat="45.9793" lon="5.60505">
        <ele>850.8</ele>
        <time>2026-05-10T15:31:21Z</time>
      </trkpt>
      <trkpt lat="45.97925" lon="5.60502">
        <ele>850.4</ele>
        <time>2026-05-10T15:31:22Z</time>
      </trkpt>
      <trkpt lat="45.9792" lon="5.60498">
        <ele>850.4</ele>
        <time>2026-05-10T15:31:23Z</time>
      </trkpt>
      <trkpt lat="45.97915" lon="5.60495">
        <ele>850.2</ele>
        <time>2026-05-10T15:31:24Z</time>
      </trkpt>
      <trkpt lat="45.9791" lon="5.60492">
        <ele>849.6</ele>
        <time>2026-05-10T15:31:25Z</time>
      </trkpt>
      <trkpt lat="45.97904" lon="5.6049">
        <ele>849.2</ele>
        <time>2026-05-10T15:31:26Z</time>
      </trkpt>
      <trkpt lat="45.97899" lon="5.60486">
        <ele>849</ele>
        <time>2026-05-10T15:31:27Z</time>
      </trkpt>
      <trkpt lat="45.97892" lon="5.60482">
        <ele>848.4</ele>
        <time>2026-05-10T15:31:28Z</time>
      </trkpt>
      <trkpt lat="45.97886" lon="5.60479">
        <ele>848</ele>
        <time>2026-05-10T15:31:29Z</time>
      </trkpt>
      <trkpt lat="45.97879" lon="5.60475">
        <ele>847.6</ele>
        <time>2026-05-10T15:31:30Z</time>
      </trkpt>
      <trkpt lat="45.97873" lon="5.6047">
        <ele>847.2</ele>
        <time>2026-05-10T15:31:31Z</time>
      </trkpt>
      <trkpt lat="45.97866" lon="5.60465">
        <ele>846.8</ele>
        <time>2026-05-10T15:31:32Z</time>
      </trkpt>
      <trkpt lat="45.97859" lon="5.60459">
        <ele>846.4</ele>
        <time>2026-05-10T15:31:33Z</time>
      </trkpt>
      <trkpt lat="45.97853" lon="5.60453">
        <ele>845.6</ele>
        <time>2026-05-10T15:31:34Z</time>
      </trkpt>
      <trkpt lat="45.97846" lon="5.60447">
        <ele>844.8</ele>
        <time>2026-05-10T15:31:35Z</time>
      </trkpt>
      <trkpt lat="45.9784" lon="5.60439">
        <ele>844</ele>
        <time>2026-05-10T15:31:36Z</time>
      </trkpt>
      <trkpt lat="45.97834" lon="5.60432">
        <ele>843.2</ele>
        <time>2026-05-10T15:31:37Z</time>
      </trkpt>
      <trkpt lat="45.97828" lon="5.60424">
        <ele>842.6</ele>
        <time>2026-05-10T15:31:38Z</time>
      </trkpt>
      <trkpt lat="45.97822" lon="5.60417">
        <ele>842</ele>
        <time>2026-05-10T15:31:39Z</time>
      </trkpt>
      <trkpt lat="45.97816" lon="5.6041">
        <ele>841.6</ele>
        <time>2026-05-10T15:31:40Z</time>
      </trkpt>
      <trkpt lat="45.9781" lon="5.60404">
        <ele>841.2</ele>
        <time>2026-05-10T15:31:41Z</time>
      </trkpt>
      <trkpt lat="45.97805" lon="5.60396">
        <ele>840.6</ele>
        <time>2026-05-10T15:31:42Z</time>
      </trkpt>
      <trkpt lat="45.97799" lon="5.60389">
        <ele>840.4</ele>
        <time>2026-05-10T15:31:43Z</time>
      </trkpt>
      <trkpt lat="45.97793" lon="5.60381">
        <ele>840</ele>
        <time>2026-05-10T15:31:44Z</time>
      </trkpt>
      <trkpt lat="45.97786" lon="5.60374">
        <ele>839.4</ele>
        <time>2026-05-10T15:31:45Z</time>
      </trkpt>
      <trkpt lat="45.9778" lon="5.60364">
        <ele>839</ele>
        <time>2026-05-10T15:31:46Z</time>
      </trkpt>
      <trkpt lat="45.97774" lon="5.60356">
        <ele>838.4</ele>
        <time>2026-05-10T15:31:47Z</time>
      </trkpt>
      <trkpt lat="45.97767" lon="5.60348">
        <ele>837.8</ele>
        <time>2026-05-10T15:31:48Z</time>
      </trkpt>
      <trkpt lat="45.9776" lon="5.60339">
        <ele>837.2</ele>
        <time>2026-05-10T15:31:49Z</time>
      </trkpt>
      <trkpt lat="45.97754" lon="5.60331">
        <ele>837</ele>
        <time>2026-05-10T15:31:50Z</time>
      </trkpt>
      <trkpt lat="45.97748" lon="5.60324">
        <ele>836.4</ele>
        <time>2026-05-10T15:31:51Z</time>
      </trkpt>
      <trkpt lat="45.97743" lon="5.60317">
        <ele>836</ele>
        <time>2026-05-10T15:31:52Z</time>
      </trkpt>
      <trkpt lat="45.97737" lon="5.60311">
        <ele>835.4</ele>
        <time>2026-05-10T15:31:53Z</time>
      </trkpt>
      <trkpt lat="45.97731" lon="5.60305">
        <ele>835.2</ele>
        <time>2026-05-10T15:31:54Z</time>
      </trkpt>
      <trkpt lat="45.97726" lon="5.603">
        <ele>835.2</ele>
        <time>2026-05-10T15:31:55Z</time>
      </trkpt>
      <trkpt lat="45.9772" lon="5.60295">
        <ele>834.8</ele>
        <time>2026-05-10T15:31:56Z</time>
      </trkpt>
      <trkpt lat="45.97714" lon="5.60289">
        <ele>834.6</ele>
        <time>2026-05-10T15:31:57Z</time>
      </trkpt>
      <trkpt lat="45.97709" lon="5.60285">
        <ele>834.4</ele>
        <time>2026-05-10T15:31:58Z</time>
      </trkpt>
      <trkpt lat="45.97703" lon="5.60281">
        <ele>834.4</ele>
        <time>2026-05-10T15:31:59Z</time>
      </trkpt>
      <trkpt lat="45.97698" lon="5.60277">
        <ele>834</ele>
        <time>2026-05-10T15:32:00Z</time>
      </trkpt>
      <trkpt lat="45.97693" lon="5.60274">
        <ele>834</ele>
        <time>2026-05-10T15:32:01Z</time>
      </trkpt>
      <trkpt lat="45.97688" lon="5.6027">
        <ele>834</ele>
        <time>2026-05-10T15:32:02Z</time>
      </trkpt>
      <trkpt lat="45.97684" lon="5.60267">
        <ele>833.8</ele>
        <time>2026-05-10T15:32:03Z</time>
      </trkpt>
      <trkpt lat="45.97681" lon="5.60265">
        <ele>833.8</ele>
        <time>2026-05-10T15:32:04Z</time>
      </trkpt>
      <trkpt lat="45.97678" lon="5.60263">
        <ele>833.8</ele>
        <time>2026-05-10T15:32:05Z</time>
      </trkpt>
      <trkpt lat="45.97677" lon="5.60261">
        <ele>833.8</ele>
        <time>2026-05-10T15:32:06Z</time>
      </trkpt>
      <trkpt lat="45.97676" lon="5.60259">
        <ele>833.8</ele>
        <time>2026-05-10T15:32:07Z</time>
      </trkpt>
      <trkpt lat="45.97675" lon="5.60259">
        <ele>833.8</ele>
        <time>2026-05-10T15:32:08Z</time>
      </trkpt>
      <trkpt lat="45.97675" lon="5.60259">
        <ele>833.8</ele>
        <time>2026-05-10T15:32:09Z</time>
      </trkpt>
      <trkpt lat="45.97674" lon="5.60258">
        <ele>833.8</ele>
        <time>2026-05-10T15:32:10Z</time>
      </trkpt>
      <trkpt lat="45.97673" lon="5.60256">
        <ele>833.8</ele>
        <time>2026-05-10T15:32:11Z</time>
      </trkpt>
      <trkpt lat="45.97671" lon="5.60254">
        <ele>833.4</ele>
        <time>2026-05-10T15:32:12Z</time>
      </trkpt>
      <trkpt lat="45.9767" lon="5.60251">
        <ele>833.4</ele>
        <time>2026-05-10T15:32:13Z</time>
      </trkpt>
      <trkpt lat="45.9767" lon="5.60246">
        <ele>833.4</ele>
        <time>2026-05-10T15:32:14Z</time>
      </trkpt>
      <trkpt lat="45.9767" lon="5.60239">
        <ele>833.2</ele>
        <time>2026-05-10T15:32:15Z</time>
      </trkpt>
      <trkpt lat="45.97672" lon="5.60233">
        <ele>832.6</ele>
        <time>2026-05-10T15:32:16Z</time>
      </trkpt>
      <trkpt lat="45.97675" lon="5.60226">
        <ele>832</ele>
        <time>2026-05-10T15:32:17Z</time>
      </trkpt>
      <trkpt lat="45.9768" lon="5.60221">
        <ele>831.6</ele>
        <time>2026-05-10T15:32:18Z</time>
      </trkpt>
      <trkpt lat="45.97684" lon="5.60218">
        <ele>831</ele>
        <time>2026-05-10T15:32:19Z</time>
      </trkpt>
    </trkseg>
  </trk>
</gpx>